<?xml version="1.0" encoding="UTF-8" standalone="no" ?><gpx xmlns="http://www.topografix.com/GPX/1/1" xmlns:gpxx="http://www.garmin.com/xmlschemas/GpxExtensions/v3" xmlns:wptx1="http://www.garmin.com/xmlschemas/WaypointExtension/v1" xmlns:gpxtpx="http://www.garmin.com/xmlschemas/TrackPointExtension/v1" creator="GuideVTT.com" version="1.1" xmlns:xsi="http://www.w3.org/2001/XMLSchema-instance" xsi:schemaLocation="http://www.topografix.com/GPX/1/1 http://www.topografix.com/GPX/1/1/gpx.xsd http://www.garmin.com/xmlschemas/GpxExtensions/v3 http://www8.garmin.com/xmlschemas/GpxExtensionsv3.xsd http://www.garmin.com/xmlschemas/WaypointExtension/v1 http://www8.garmin.com/xmlschemas/WaypointExtensionv1.xsd http://www.garmin.com/xmlschemas/TrackPointExtension/v1 http://www.garmin.com/xmlschemas/TrackPointExtensionv1.xsd">
<metadata><link href="http://www.garmin.com"><text>Garmin International</text></link><time>2013-06-22T15:13:50Z</time></metadata>
<trk><name>22_08_09.gpx</name><extensions><gpxx:TrackExtension><gpxx:DisplayColor>Cyan</gpxx:DisplayColor></gpxx:TrackExtension></extensions><trkseg>
<trkpt lat="46.14841017" lon="5.97142347"><ele></ele><time>2014-10-8T8:21:21Z</time></trkpt>
<trkpt lat="46.14844127" lon="5.97146857"><ele></ele><time>2014-10-8T8:21:24Z</time></trkpt>
<trkpt lat="46.14847362" lon="5.97151182"><ele></ele><time>2014-10-8T8:21:27Z</time></trkpt>
<trkpt lat="46.14850522" lon="5.97155289"><ele></ele><time>2014-10-8T8:21:30Z</time></trkpt>
<trkpt lat="46.14853724" lon="5.97159538"><ele></ele><time>2014-10-8T8:21:33Z</time></trkpt>
<trkpt lat="46.14856758" lon="5.97164274"><ele></ele><time>2014-10-8T8:21:36Z</time></trkpt>
<trkpt lat="46.14859952" lon="5.97169085"><ele></ele><time>2014-10-8T8:21:39Z</time></trkpt>
<trkpt lat="46.14863137" lon="5.97174165"><ele></ele><time>2014-10-8T8:21:42Z</time></trkpt>
<trkpt lat="46.14866548" lon="5.97178884"><ele></ele><time>2014-10-8T8:21:45Z</time></trkpt>
<trkpt lat="46.14870245" lon="5.97183335"><ele></ele><time>2014-10-8T8:21:48Z</time></trkpt>
<trkpt lat="46.14874042" lon="5.97187609"><ele></ele><time>2014-10-8T8:21:51Z</time></trkpt>
<trkpt lat="46.14877897" lon="5.97191842"><ele></ele><time>2014-10-8T8:21:54Z</time></trkpt>
<trkpt lat="46.14881594" lon="5.97196260"><ele></ele><time>2014-10-8T8:21:57Z</time></trkpt>
<trkpt lat="46.14885282" lon="5.97200610"><ele></ele><time>2014-10-8T8:22:0Z</time></trkpt>
<trkpt lat="46.14889037" lon="5.97204776"><ele></ele><time>2014-10-8T8:22:3Z</time></trkpt>
<trkpt lat="46.14892767" lon="5.97209025"><ele></ele><time>2014-10-8T8:22:6Z</time></trkpt>
<trkpt lat="46.14896614" lon="5.97213375"><ele></ele><time>2014-10-8T8:22:9Z</time></trkpt>
<trkpt lat="46.14901199" lon="5.97218648"><ele></ele><time>2014-10-8T8:22:12Z</time></trkpt>
<trkpt lat="46.14906387" lon="5.97223492"><ele></ele><time>2014-10-8T8:22:15Z</time></trkpt>
<trkpt lat="46.14910495" lon="5.97228446"><ele></ele><time>2014-10-8T8:22:18Z</time></trkpt>
<trkpt lat="46.14914300" lon="5.97233349"><ele></ele><time>2014-10-8T8:22:21Z</time></trkpt>
<trkpt lat="46.14917996" lon="5.97238035"><ele></ele><time>2014-10-8T8:22:24Z</time></trkpt>
<trkpt lat="46.14921324" lon="5.97242586"><ele></ele><time>2014-10-8T8:22:27Z</time></trkpt>
<trkpt lat="46.14924744" lon="5.97247012"><ele></ele><time>2014-10-8T8:22:30Z</time></trkpt>
<trkpt lat="46.14928633" lon="5.97251312"><ele></ele><time>2014-10-8T8:22:33Z</time></trkpt>
<trkpt lat="46.14932204" lon="5.97255369"><ele></ele><time>2014-10-8T8:22:36Z</time></trkpt>
<trkpt lat="46.14935489" lon="5.97259518"><ele></ele><time>2014-10-8T8:22:39Z</time></trkpt>
<trkpt lat="46.14938582" lon="5.97263893"><ele></ele><time>2014-10-8T8:22:42Z</time></trkpt>
<trkpt lat="46.14941642" lon="5.97267900"><ele></ele><time>2014-10-8T8:22:45Z</time></trkpt>
<trkpt lat="46.14944617" lon="5.97271579"><ele></ele><time>2014-10-8T8:22:48Z</time></trkpt>
<trkpt lat="46.14947727" lon="5.97275049"><ele></ele><time>2014-10-8T8:22:51Z</time></trkpt>
<trkpt lat="46.14950728" lon="5.97279307"><ele></ele><time>2014-10-8T8:22:54Z</time></trkpt>
<trkpt lat="46.14953988" lon="5.97283859"><ele></ele><time>2014-10-8T8:22:57Z</time></trkpt>
<trkpt lat="46.14957282" lon="5.97288620"><ele></ele><time>2014-10-8T8:23:0Z</time></trkpt>
<trkpt lat="46.14960719" lon="5.97293666"><ele></ele><time>2014-10-8T8:23:3Z</time></trkpt>
<trkpt lat="46.14963979" lon="5.97299365"><ele></ele><time>2014-10-8T8:23:6Z</time></trkpt>
<trkpt lat="46.14967357" lon="5.97305182"><ele></ele><time>2014-10-8T8:23:9Z</time></trkpt>
<trkpt lat="46.14971096" lon="5.97310857"><ele></ele><time>2014-10-8T8:23:12Z</time></trkpt>
<trkpt lat="46.14974465" lon="5.97316942"><ele></ele><time>2014-10-8T8:23:15Z</time></trkpt>
<trkpt lat="46.14978254" lon="5.97322768"><ele></ele><time>2014-10-8T8:23:18Z</time></trkpt>
<trkpt lat="46.14982168" lon="5.97328107"><ele></ele><time>2014-10-8T8:23:21Z</time></trkpt>
<trkpt lat="46.14986275" lon="5.97333387"><ele></ele><time>2014-10-8T8:23:24Z</time></trkpt>
<trkpt lat="46.14990726" lon="5.97338366"><ele></ele><time>2014-10-8T8:23:27Z</time></trkpt>
<trkpt lat="46.14995428" lon="5.97343236"><ele></ele><time>2014-10-8T8:23:30Z</time></trkpt>
<trkpt lat="46.15000055" lon="5.97348165"><ele></ele><time>2014-10-8T8:23:33Z</time></trkpt>
<trkpt lat="46.15004288" lon="5.97353848"><ele></ele><time>2014-10-8T8:23:36Z</time></trkpt>
<trkpt lat="46.15008395" lon="5.97359782"><ele></ele><time>2014-10-8T8:23:39Z</time></trkpt>
<trkpt lat="46.15012695" lon="5.97365624"><ele></ele><time>2014-10-8T8:23:42Z</time></trkpt>
<trkpt lat="46.15016987" lon="5.97371726"><ele></ele><time>2014-10-8T8:23:45Z</time></trkpt>
<trkpt lat="46.15021312" lon="5.97377627"><ele></ele><time>2014-10-8T8:23:48Z</time></trkpt>
<trkpt lat="46.15025553" lon="5.97383729"><ele></ele><time>2014-10-8T8:23:51Z</time></trkpt>
<trkpt lat="46.15029752" lon="5.97389714"><ele></ele><time>2014-10-8T8:23:54Z</time></trkpt>
<trkpt lat="46.15033918" lon="5.97395548"><ele></ele><time>2014-10-8T8:23:57Z</time></trkpt>
<trkpt lat="46.15037967" lon="5.97401289"><ele></ele><time>2014-10-8T8:24:0Z</time></trkpt>
<trkpt lat="46.15041872" lon="5.97407140"><ele></ele><time>2014-10-8T8:24:3Z</time></trkpt>
<trkpt lat="46.15045686" lon="5.97412915"><ele></ele><time>2014-10-8T8:24:6Z</time></trkpt>
<trkpt lat="46.15049525" lon="5.97418682"><ele></ele><time>2014-10-8T8:24:9Z</time></trkpt>
<trkpt lat="46.15053247" lon="5.97424163"><ele></ele><time>2014-10-8T8:24:12Z</time></trkpt>
<trkpt lat="46.15056926" lon="5.97429419"><ele></ele><time>2014-10-8T8:24:15Z</time></trkpt>
<trkpt lat="46.15060774" lon="5.97434532"><ele></ele><time>2014-10-8T8:24:18Z</time></trkpt>
<trkpt lat="46.15064646" lon="5.97439704"><ele></ele><time>2014-10-8T8:24:21Z</time></trkpt>
<trkpt lat="46.15068535" lon="5.97444615"><ele></ele><time>2014-10-8T8:24:24Z</time></trkpt>
<trkpt lat="46.15072458" lon="5.97449737"><ele></ele><time>2014-10-8T8:24:27Z</time></trkpt>
<trkpt lat="46.15076615" lon="5.97454456"><ele></ele><time>2014-10-8T8:24:30Z</time></trkpt>
<trkpt lat="46.15081066" lon="5.97458445"><ele></ele><time>2014-10-8T8:24:33Z</time></trkpt>
<trkpt lat="46.15085433" lon="5.97462016"><ele></ele><time>2014-10-8T8:24:36Z</time></trkpt>
<trkpt lat="46.15089624" lon="5.97465587"><ele></ele><time>2014-10-8T8:24:39Z</time></trkpt>
<trkpt lat="46.15094134" lon="5.97468303"><ele></ele><time>2014-10-8T8:24:42Z</time></trkpt>
<trkpt lat="46.15099858" lon="5.97468797"><ele></ele><time>2014-10-8T8:24:45Z</time></trkpt>
<trkpt lat="46.15104888" lon="5.97466165"><ele></ele><time>2014-10-8T8:24:48Z</time></trkpt>
<trkpt lat="46.15109632" lon="5.97462477"><ele></ele><time>2014-10-8T8:24:51Z</time></trkpt>
<trkpt lat="46.15113085" lon="5.97457968"><ele></ele><time>2014-10-8T8:24:54Z</time></trkpt>
<trkpt lat="46.15116882" lon="5.97452519"><ele></ele><time>2014-10-8T8:24:57Z</time></trkpt>
<trkpt lat="46.15121073" lon="5.97447918"><ele></ele><time>2014-10-8T8:25:0Z</time></trkpt>
<trkpt lat="46.15125063" lon="5.97443023"><ele></ele><time>2014-10-8T8:25:3Z</time></trkpt>
<trkpt lat="46.15129313" lon="5.97437952"><ele></ele><time>2014-10-8T8:25:6Z</time></trkpt>
<trkpt lat="46.15133889" lon="5.97432923"><ele></ele><time>2014-10-8T8:25:9Z</time></trkpt>
<trkpt lat="46.15138214" lon="5.97428463"><ele></ele><time>2014-10-8T8:25:12Z</time></trkpt>
<trkpt lat="46.15142078" lon="5.97424784"><ele></ele><time>2014-10-8T8:25:15Z</time></trkpt>
<trkpt lat="46.15146386" lon="5.97420735"><ele></ele><time>2014-10-8T8:25:18Z</time></trkpt>
<trkpt lat="46.15150385" lon="5.97416620"><ele></ele><time>2014-10-8T8:25:21Z</time></trkpt>
<trkpt lat="46.15154685" lon="5.97412948"><ele></ele><time>2014-10-8T8:25:24Z</time></trkpt>
<trkpt lat="46.15159395" lon="5.97408925"><ele></ele><time>2014-10-8T8:25:27Z</time></trkpt>
<trkpt lat="46.15163863" lon="5.97405639"><ele></ele><time>2014-10-8T8:25:30Z</time></trkpt>
<trkpt lat="46.15168347" lon="5.97402932"><ele></ele><time>2014-10-8T8:25:33Z</time></trkpt>
<trkpt lat="46.15173158" lon="5.97400359"><ele></ele><time>2014-10-8T8:25:36Z</time></trkpt>
<trkpt lat="46.15177793" lon="5.97397517"><ele></ele><time>2014-10-8T8:25:39Z</time></trkpt>
<trkpt lat="46.15182412" lon="5.97393855"><ele></ele><time>2014-10-8T8:25:42Z</time></trkpt>
<trkpt lat="46.15187114" lon="5.97390125"><ele></ele><time>2014-10-8T8:25:45Z</time></trkpt>
<trkpt lat="46.15191967" lon="5.97386546"><ele></ele><time>2014-10-8T8:25:48Z</time></trkpt>
<trkpt lat="46.15196837" lon="5.97382916"><ele></ele><time>2014-10-8T8:25:51Z</time></trkpt>
<trkpt lat="46.15201707" lon="5.97378993"><ele></ele><time>2014-10-8T8:25:54Z</time></trkpt>
<trkpt lat="46.15206636" lon="5.97374953"><ele></ele><time>2014-10-8T8:25:57Z</time></trkpt>
<trkpt lat="46.15211640" lon="5.97370905"><ele></ele><time>2014-10-8T8:26:0Z</time></trkpt>
<trkpt lat="46.15216685" lon="5.97366865"><ele></ele><time>2014-10-8T8:26:3Z</time></trkpt>
<trkpt lat="46.15221916" lon="5.97363235"><ele></ele><time>2014-10-8T8:26:6Z</time></trkpt>
<trkpt lat="46.15227188" lon="5.97360117"><ele></ele><time>2014-10-8T8:26:9Z</time></trkpt>
<trkpt lat="46.15232410" lon="5.97357117"><ele></ele><time>2014-10-8T8:26:12Z</time></trkpt>
<trkpt lat="46.15237565" lon="5.97353814"><ele></ele><time>2014-10-8T8:26:15Z</time></trkpt>
<trkpt lat="46.15242753" lon="5.97350336"><ele></ele><time>2014-10-8T8:26:18Z</time></trkpt>
<trkpt lat="46.15247824" lon="5.97347050"><ele></ele><time>2014-10-8T8:26:21Z</time></trkpt>
<trkpt lat="46.15252853" lon="5.97343697"><ele></ele><time>2014-10-8T8:26:24Z</time></trkpt>
<trkpt lat="46.15257866" lon="5.97340353"><ele></ele><time>2014-10-8T8:26:27Z</time></trkpt>
<trkpt lat="46.15262769" lon="5.97337134"><ele></ele><time>2014-10-8T8:26:30Z</time></trkpt>
<trkpt lat="46.15267689" lon="5.97334016"><ele></ele><time>2014-10-8T8:26:33Z</time></trkpt>
<trkpt lat="46.15272568" lon="5.97330957"><ele></ele><time>2014-10-8T8:26:36Z</time></trkpt>
<trkpt lat="46.15277404" lon="5.97327864"><ele></ele><time>2014-10-8T8:26:39Z</time></trkpt>
<trkpt lat="46.15282182" lon="5.97324779"><ele></ele><time>2014-10-8T8:26:42Z</time></trkpt>
<trkpt lat="46.15286934" lon="5.97321619"><ele></ele><time>2014-10-8T8:26:45Z</time></trkpt>
<trkpt lat="46.15291645" lon="5.97318107"><ele></ele><time>2014-10-8T8:26:48Z</time></trkpt>
<trkpt lat="46.15296213" lon="5.97314092"><ele></ele><time>2014-10-8T8:26:51Z</time></trkpt>
<trkpt lat="46.15300706" lon="5.97309650"><ele></ele><time>2014-10-8T8:26:54Z</time></trkpt>
<trkpt lat="46.15305332" lon="5.97305182"><ele></ele><time>2014-10-8T8:26:57Z</time></trkpt>
<trkpt lat="46.15309993" lon="5.97300648"><ele></ele><time>2014-10-8T8:27:0Z</time></trkpt>
<trkpt lat="46.15314519" lon="5.97295560"><ele></ele><time>2014-10-8T8:27:3Z</time></trkpt>
<trkpt lat="46.15318819" lon="5.97289894"><ele></ele><time>2014-10-8T8:27:6Z</time></trkpt>
<trkpt lat="46.15322960" lon="5.97283649"><ele></ele><time>2014-10-8T8:27:9Z</time></trkpt>
<trkpt lat="46.15326807" lon="5.97277145"><ele></ele><time>2014-10-8T8:27:12Z</time></trkpt>
<trkpt lat="46.15330579" lon="5.97270716"><ele></ele><time>2014-10-8T8:27:15Z</time></trkpt>
<trkpt lat="46.15334493" lon="5.97264622"><ele></ele><time>2014-10-8T8:27:18Z</time></trkpt>
<trkpt lat="46.15338516" lon="5.97258805"><ele></ele><time>2014-10-8T8:27:21Z</time></trkpt>
<trkpt lat="46.15342339" lon="5.97252955"><ele></ele><time>2014-10-8T8:27:24Z</time></trkpt>
<trkpt lat="46.15345909" lon="5.97247255"><ele></ele><time>2014-10-8T8:27:27Z</time></trkpt>
<trkpt lat="46.15349824" lon="5.97242947"><ele></ele><time>2014-10-8T8:27:30Z</time></trkpt>
<trkpt lat="46.15354199" lon="5.97241245"><ele></ele><time>2014-10-8T8:27:33Z</time></trkpt>
<trkpt lat="46.15358616" lon="5.97242570"><ele></ele><time>2014-10-8T8:27:36Z</time></trkpt>
<trkpt lat="46.15362816" lon="5.97245847"><ele></ele><time>2014-10-8T8:27:39Z</time></trkpt>
<trkpt lat="46.15366872" lon="5.97249853"><ele></ele><time>2014-10-8T8:27:42Z</time></trkpt>
<trkpt lat="46.15371063" lon="5.97253944"><ele></ele><time>2014-10-8T8:27:45Z</time></trkpt>
<trkpt lat="46.15375363" lon="5.97258219"><ele></ele><time>2014-10-8T8:27:48Z</time></trkpt>
<trkpt lat="46.15379688" lon="5.97262770"><ele></ele><time>2014-10-8T8:27:51Z</time></trkpt>
<trkpt lat="46.15383997" lon="5.97267338"><ele></ele><time>2014-10-8T8:27:54Z</time></trkpt>
<trkpt lat="46.15388389" lon="5.97271755"><ele></ele><time>2014-10-8T8:27:57Z</time></trkpt>
<trkpt lat="46.15392923" lon="5.97276106"><ele></ele><time>2014-10-8T8:28:0Z</time></trkpt>
<trkpt lat="46.15397483" lon="5.97280540"><ele></ele><time>2014-10-8T8:28:3Z</time></trkpt>
<trkpt lat="46.15402018" lon="5.97284965"><ele></ele><time>2014-10-8T8:28:6Z</time></trkpt>
<trkpt lat="46.15406552" lon="5.97289315"><ele></ele><time>2014-10-8T8:28:9Z</time></trkpt>
<trkpt lat="46.15411154" lon="5.97293615"><ele></ele><time>2014-10-8T8:28:12Z</time></trkpt>
<trkpt lat="46.15415705" lon="5.97298108"><ele></ele><time>2014-10-8T8:28:15Z</time></trkpt>
<trkpt lat="46.15420240" lon="5.97302592"><ele></ele><time>2014-10-8T8:28:18Z</time></trkpt>
<trkpt lat="46.15424716" lon="5.97307186"><ele></ele><time>2014-10-8T8:28:21Z</time></trkpt>
<trkpt lat="46.15429225" lon="5.97311762"><ele></ele><time>2014-10-8T8:28:24Z</time></trkpt>
<trkpt lat="46.15433768" lon="5.97316163"><ele></ele><time>2014-10-8T8:28:27Z</time></trkpt>
<trkpt lat="46.15438320" lon="5.97320387"><ele></ele><time>2014-10-8T8:28:30Z</time></trkpt>
<trkpt lat="46.15442947" lon="5.97324260"><ele></ele><time>2014-10-8T8:28:33Z</time></trkpt>
<trkpt lat="46.15447699" lon="5.97327822"><ele></ele><time>2014-10-8T8:28:36Z</time></trkpt>
<trkpt lat="46.15452443" lon="5.97331225"><ele></ele><time>2014-10-8T8:28:39Z</time></trkpt>
<trkpt lat="46.15457129" lon="5.97334368"><ele></ele><time>2014-10-8T8:28:42Z</time></trkpt>
<trkpt lat="46.15461739" lon="5.97337352"><ele></ele><time>2014-10-8T8:28:45Z</time></trkpt>
<trkpt lat="46.15466223" lon="5.97340378"><ele></ele><time>2014-10-8T8:28:48Z</time></trkpt>
<trkpt lat="46.15470666" lon="5.97343379"><ele></ele><time>2014-10-8T8:28:51Z</time></trkpt>
<trkpt lat="46.15475183" lon="5.97346346"><ele></ele><time>2014-10-8T8:28:54Z</time></trkpt>
<trkpt lat="46.15479726" lon="5.97349539"><ele></ele><time>2014-10-8T8:28:57Z</time></trkpt>
<trkpt lat="46.15484303" lon="5.97352842"><ele></ele><time>2014-10-8T8:29:0Z</time></trkpt>
<trkpt lat="46.15488837" lon="5.97356387"><ele></ele><time>2014-10-8T8:29:3Z</time></trkpt>
<trkpt lat="46.15493339" lon="5.97360117"><ele></ele><time>2014-10-8T8:29:6Z</time></trkpt>
<trkpt lat="46.15497865" lon="5.97363747"><ele></ele><time>2014-10-8T8:29:9Z</time></trkpt>
<trkpt lat="46.15502458" lon="5.97367208"><ele></ele><time>2014-10-8T8:29:12Z</time></trkpt>
<trkpt lat="46.15507026" lon="5.97370528"><ele></ele><time>2014-10-8T8:29:15Z</time></trkpt>
<trkpt lat="46.15511502" lon="5.97373847"><ele></ele><time>2014-10-8T8:29:18Z</time></trkpt>
<trkpt lat="46.15515852" lon="5.97377334"><ele></ele><time>2014-10-8T8:29:21Z</time></trkpt>
<trkpt lat="46.15520219" lon="5.97380586"><ele></ele><time>2014-10-8T8:29:24Z</time></trkpt>
<trkpt lat="46.15524653" lon="5.97383520"><ele></ele><time>2014-10-8T8:29:27Z</time></trkpt>
<trkpt lat="46.15529196" lon="5.97386554"><ele></ele><time>2014-10-8T8:29:30Z</time></trkpt>
<trkpt lat="46.15533848" lon="5.97389664"><ele></ele><time>2014-10-8T8:29:33Z</time></trkpt>
<trkpt lat="46.15538584" lon="5.97392740"><ele></ele><time>2014-10-8T8:29:36Z</time></trkpt>
<trkpt lat="46.15543429" lon="5.97395590"><ele></ele><time>2014-10-8T8:29:39Z</time></trkpt>
<trkpt lat="46.15548215" lon="5.97398238"><ele></ele><time>2014-10-8T8:29:42Z</time></trkpt>
<trkpt lat="46.15553043" lon="5.97400736"><ele></ele><time>2014-10-8T8:29:45Z</time></trkpt>
<trkpt lat="46.15557930" lon="5.97403142"><ele></ele><time>2014-10-8T8:29:48Z</time></trkpt>
<trkpt lat="46.15562783" lon="5.97405723"><ele></ele><time>2014-10-8T8:29:51Z</time></trkpt>
<trkpt lat="46.15567527" lon="5.97408749"><ele></ele><time>2014-10-8T8:29:54Z</time></trkpt>
<trkpt lat="46.15572179" lon="5.97412043"><ele></ele><time>2014-10-8T8:29:57Z</time></trkpt>
<trkpt lat="46.15576705" lon="5.97415555"><ele></ele><time>2014-10-8T8:30:0Z</time></trkpt>
<trkpt lat="46.15581047" lon="5.97419394"><ele></ele><time>2014-10-8T8:30:3Z</time></trkpt>
<trkpt lat="46.15585087" lon="5.97423728"><ele></ele><time>2014-10-8T8:30:6Z</time></trkpt>
<trkpt lat="46.15588884" lon="5.97428430"><ele></ele><time>2014-10-8T8:30:9Z</time></trkpt>
<trkpt lat="46.15592647" lon="5.97433216"><ele></ele><time>2014-10-8T8:30:12Z</time></trkpt>
<trkpt lat="46.15596478" lon="5.97437834"><ele></ele><time>2014-10-8T8:30:15Z</time></trkpt>
<trkpt lat="46.15600669" lon="5.97441405"><ele></ele><time>2014-10-8T8:30:18Z</time></trkpt>
<trkpt lat="46.15605388" lon="5.97443886"><ele></ele><time>2014-10-8T8:30:21Z</time></trkpt>
<trkpt lat="46.15610333" lon="5.97446484"><ele></ele><time>2014-10-8T8:30:24Z</time></trkpt>
<trkpt lat="46.15615278" lon="5.97449485"><ele></ele><time>2014-10-8T8:30:27Z</time></trkpt>
<trkpt lat="46.15620073" lon="5.97452394"><ele></ele><time>2014-10-8T8:30:30Z</time></trkpt>
<trkpt lat="46.15624792" lon="5.97455277"><ele></ele><time>2014-10-8T8:30:33Z</time></trkpt>
<trkpt lat="46.15629318" lon="5.97458554"><ele></ele><time>2014-10-8T8:30:36Z</time></trkpt>
<trkpt lat="46.15633660" lon="5.97462284"><ele></ele><time>2014-10-8T8:30:39Z</time></trkpt>
<trkpt lat="46.15637834" lon="5.97466316"><ele></ele><time>2014-10-8T8:30:42Z</time></trkpt>
<trkpt lat="46.15641816" lon="5.97470339"><ele></ele><time>2014-10-8T8:30:45Z</time></trkpt>
<trkpt lat="46.15645856" lon="5.97473918"><ele></ele><time>2014-10-8T8:30:48Z</time></trkpt>
<trkpt lat="46.15649963" lon="5.97476793"><ele></ele><time>2014-10-8T8:30:51Z</time></trkpt>
<trkpt lat="46.15654078" lon="5.97479350"><ele></ele><time>2014-10-8T8:30:54Z</time></trkpt>
<trkpt lat="46.15658144" lon="5.97482057"><ele></ele><time>2014-10-8T8:30:57Z</time></trkpt>
<trkpt lat="46.15662217" lon="5.97485108"><ele></ele><time>2014-10-8T8:31:0Z</time></trkpt>
<trkpt lat="46.15666215" lon="5.97488578"><ele></ele><time>2014-10-8T8:31:3Z</time></trkpt>
<trkpt lat="46.15669987" lon="5.97492266"><ele></ele><time>2014-10-8T8:31:6Z</time></trkpt>
<trkpt lat="46.15673625" lon="5.97495988"><ele></ele><time>2014-10-8T8:31:9Z</time></trkpt>
<trkpt lat="46.15677464" lon="5.97499207"><ele></ele><time>2014-10-8T8:31:12Z</time></trkpt>
<trkpt lat="46.15681504" lon="5.97501998"><ele></ele><time>2014-10-8T8:31:15Z</time></trkpt>
<trkpt lat="46.15685452" lon="5.97504538"><ele></ele><time>2014-10-8T8:31:18Z</time></trkpt>
<trkpt lat="46.15689299" lon="5.97507664"><ele></ele><time>2014-10-8T8:31:21Z</time></trkpt>
<trkpt lat="46.15693088" lon="5.97511319"><ele></ele><time>2014-10-8T8:31:24Z</time></trkpt>
<trkpt lat="46.15697069" lon="5.97514847"><ele></ele><time>2014-10-8T8:31:27Z</time></trkpt>
<trkpt lat="46.15701159" lon="5.97518368"><ele></ele><time>2014-10-8T8:31:30Z</time></trkpt>
<trkpt lat="46.15705325" lon="5.97521813"><ele></ele><time>2014-10-8T8:31:33Z</time></trkpt>
<trkpt lat="46.15709709" lon="5.97524503"><ele></ele><time>2014-10-8T8:31:36Z</time></trkpt>
<trkpt lat="46.15714336" lon="5.97526372"><ele></ele><time>2014-10-8T8:31:39Z</time></trkpt>
<trkpt lat="46.15718996" lon="5.97528493"><ele></ele><time>2014-10-8T8:31:42Z</time></trkpt>
<trkpt lat="46.15723573" lon="5.97531075"><ele></ele><time>2014-10-8T8:31:45Z</time></trkpt>
<trkpt lat="46.15728107" lon="5.97533723"><ele></ele><time>2014-10-8T8:31:48Z</time></trkpt>
<trkpt lat="46.15732516" lon="5.97536598"><ele></ele><time>2014-10-8T8:31:51Z</time></trkpt>
<trkpt lat="46.15736607" lon="5.97540169"><ele></ele><time>2014-10-8T8:31:54Z</time></trkpt>
<trkpt lat="46.15740119" lon="5.97544829"><ele></ele><time>2014-10-8T8:31:57Z</time></trkpt>
<trkpt lat="46.15743178" lon="5.97550152"><ele></ele><time>2014-10-8T8:32:0Z</time></trkpt>
<trkpt lat="46.15746179" lon="5.97555357"><ele></ele><time>2014-10-8T8:32:3Z</time></trkpt>
<trkpt lat="46.15749548" lon="5.97559883"><ele></ele><time>2014-10-8T8:32:6Z</time></trkpt>
<trkpt lat="46.15753345" lon="5.97563278"><ele></ele><time>2014-10-8T8:32:9Z</time></trkpt>
<trkpt lat="46.15757503" lon="5.97565684"><ele></ele><time>2014-10-8T8:32:12Z</time></trkpt>
<trkpt lat="46.15762046" lon="5.97567695"><ele></ele><time>2014-10-8T8:32:15Z</time></trkpt>
<trkpt lat="46.15766304" lon="5.97570185"><ele></ele><time>2014-10-8T8:32:18Z</time></trkpt>
<trkpt lat="46.15770109" lon="5.97572909"><ele></ele><time>2014-10-8T8:32:21Z</time></trkpt>
<trkpt lat="46.15773453" lon="5.97576463"><ele></ele><time>2014-10-8T8:32:24Z</time></trkpt>
<trkpt lat="46.15776999" lon="5.97580419"><ele></ele><time>2014-10-8T8:32:27Z</time></trkpt>
<trkpt lat="46.15780469" lon="5.97584677"><ele></ele><time>2014-10-8T8:32:30Z</time></trkpt>
<trkpt lat="46.15784006" lon="5.97588725"><ele></ele><time>2014-10-8T8:32:33Z</time></trkpt>
<trkpt lat="46.15787728" lon="5.97592145"><ele></ele><time>2014-10-8T8:32:36Z</time></trkpt>
<trkpt lat="46.15791349" lon="5.97595716"><ele></ele><time>2014-10-8T8:32:39Z</time></trkpt>
<trkpt lat="46.15794475" lon="5.97600259"><ele></ele><time>2014-10-8T8:32:42Z</time></trkpt>
<trkpt lat="46.15797342" lon="5.97605238"><ele></ele><time>2014-10-8T8:32:45Z</time></trkpt>
<trkpt lat="46.15800393" lon="5.97610057"><ele></ele><time>2014-10-8T8:32:48Z</time></trkpt>
<trkpt lat="46.15803503" lon="5.97614852"><ele></ele><time>2014-10-8T8:32:51Z</time></trkpt>
<trkpt lat="46.15806445" lon="5.97619990"><ele></ele><time>2014-10-8T8:32:54Z</time></trkpt>
<trkpt lat="46.15809194" lon="5.97625346"><ele></ele><time>2014-10-8T8:32:57Z</time></trkpt>
<trkpt lat="46.15811465" lon="5.97631004"><ele></ele><time>2014-10-8T8:33:0Z</time></trkpt>
<trkpt lat="46.15812949" lon="5.97637114"><ele></ele><time>2014-10-8T8:33:3Z</time></trkpt>
<trkpt lat="46.15813519" lon="5.97643585"><ele></ele><time>2014-10-8T8:33:6Z</time></trkpt>
<trkpt lat="46.15814005" lon="5.97650366"><ele></ele><time>2014-10-8T8:33:9Z</time></trkpt>
<trkpt lat="46.15815162" lon="5.97657189"><ele></ele><time>2014-10-8T8:33:12Z</time></trkpt>
<trkpt lat="46.15816855" lon="5.97663919"><ele></ele><time>2014-10-8T8:33:15Z</time></trkpt>
<trkpt lat="46.15818523" lon="5.97670742"><ele></ele><time>2014-10-8T8:33:18Z</time></trkpt>
<trkpt lat="46.15819898" lon="5.97677632"><ele></ele><time>2014-10-8T8:33:21Z</time></trkpt>
<trkpt lat="46.15820962" lon="5.97684614"><ele></ele><time>2014-10-8T8:33:24Z</time></trkpt>
<trkpt lat="46.15821876" lon="5.97691479"><ele></ele><time>2014-10-8T8:33:27Z</time></trkpt>
<trkpt lat="46.15822932" lon="5.97698109"><ele></ele><time>2014-10-8T8:33:30Z</time></trkpt>
<trkpt lat="46.15824172" lon="5.97704555"><ele></ele><time>2014-10-8T8:33:33Z</time></trkpt>
<trkpt lat="46.15825430" lon="5.97710917"><ele></ele><time>2014-10-8T8:33:36Z</time></trkpt>
<trkpt lat="46.15826486" lon="5.97717253"><ele></ele><time>2014-10-8T8:33:39Z</time></trkpt>
<trkpt lat="46.15827232" lon="5.97723515"><ele></ele><time>2014-10-8T8:33:42Z</time></trkpt>
<trkpt lat="46.15827919" lon="5.97729575"><ele></ele><time>2014-10-8T8:33:45Z</time></trkpt>
<trkpt lat="46.15828933" lon="5.97735677"><ele></ele><time>2014-10-8T8:33:48Z</time></trkpt>
<trkpt lat="46.15830123" lon="5.97741846"><ele></ele><time>2014-10-8T8:33:51Z</time></trkpt>
<trkpt lat="46.15831138" lon="5.97748183"><ele></ele><time>2014-10-8T8:33:54Z</time></trkpt>
<trkpt lat="46.15831892" lon="5.97754746"><ele></ele><time>2014-10-8T8:33:57Z</time></trkpt>
<trkpt lat="46.15832579" lon="5.97761510"><ele></ele><time>2014-10-8T8:34:0Z</time></trkpt>
<trkpt lat="46.15833267" lon="5.97768199"><ele></ele><time>2014-10-8T8:34:3Z</time></trkpt>
<trkpt lat="46.15834004" lon="5.97774753"><ele></ele><time>2014-10-8T8:34:6Z</time></trkpt>
<trkpt lat="46.15834759" lon="5.97781233"><ele></ele><time>2014-10-8T8:34:9Z</time></trkpt>
<trkpt lat="46.15835429" lon="5.97787603"><ele></ele><time>2014-10-8T8:34:12Z</time></trkpt>
<trkpt lat="46.15835907" lon="5.97793872"><ele></ele><time>2014-10-8T8:34:15Z</time></trkpt>
<trkpt lat="46.15836175" lon="5.97800067"><ele></ele><time>2014-10-8T8:34:18Z</time></trkpt>
<trkpt lat="46.15836376" lon="5.97806169"><ele></ele><time>2014-10-8T8:34:21Z</time></trkpt>
<trkpt lat="46.15836619" lon="5.97812162"><ele></ele><time>2014-10-8T8:34:24Z</time></trkpt>
<trkpt lat="46.15836904" lon="5.97818079"><ele></ele><time>2014-10-8T8:34:27Z</time></trkpt>
<trkpt lat="46.15837223" lon="5.97823855"><ele></ele><time>2014-10-8T8:34:30Z</time></trkpt>
<trkpt lat="46.15837525" lon="5.97829588"><ele></ele><time>2014-10-8T8:34:33Z</time></trkpt>
<trkpt lat="46.15837835" lon="5.97835355"><ele></ele><time>2014-10-8T8:34:36Z</time></trkpt>
<trkpt lat="46.15838120" lon="5.97841272"><ele></ele><time>2014-10-8T8:34:39Z</time></trkpt>
<trkpt lat="46.15838338" lon="5.97847357"><ele></ele><time>2014-10-8T8:34:42Z</time></trkpt>
<trkpt lat="46.15838489" lon="5.97853418"><ele></ele><time>2014-10-8T8:34:45Z</time></trkpt>
<trkpt lat="46.15838690" lon="5.97859335"><ele></ele><time>2014-10-8T8:34:48Z</time></trkpt>
<trkpt lat="46.15839075" lon="5.97865018"><ele></ele><time>2014-10-8T8:34:51Z</time></trkpt>
<trkpt lat="46.15839629" lon="5.97870450"><ele></ele><time>2014-10-8T8:34:54Z</time></trkpt>
<trkpt lat="46.15840324" lon="5.97875697"><ele></ele><time>2014-10-8T8:34:57Z</time></trkpt>
<trkpt lat="46.15841162" lon="5.97880919"><ele></ele><time>2014-10-8T8:35:0Z</time></trkpt>
<trkpt lat="46.15842076" lon="5.97886006"><ele></ele><time>2014-10-8T8:35:3Z</time></trkpt>
<trkpt lat="46.15842872" lon="5.97891128"><ele></ele><time>2014-10-8T8:35:6Z</time></trkpt>
<trkpt lat="46.15843166" lon="5.97896383"><ele></ele><time>2014-10-8T8:35:9Z</time></trkpt>
<trkpt lat="46.15842906" lon="5.97901639"><ele></ele><time>2014-10-8T8:35:12Z</time></trkpt>
<trkpt lat="46.15842294" lon="5.97906919"><ele></ele><time>2014-10-8T8:35:15Z</time></trkpt>
<trkpt lat="46.15841397" lon="5.97912032"><ele></ele><time>2014-10-8T8:35:18Z</time></trkpt>
<trkpt lat="46.15840173" lon="5.97916810"><ele></ele><time>2014-10-8T8:35:21Z</time></trkpt>
<trkpt lat="46.15838606" lon="5.97921579"><ele></ele><time>2014-10-8T8:35:24Z</time></trkpt>
<trkpt lat="46.15837064" lon="5.97926256"><ele></ele><time>2014-10-8T8:35:27Z</time></trkpt>
<trkpt lat="46.15835454" lon="5.97930757"><ele></ele><time>2014-10-8T8:35:30Z</time></trkpt>
<trkpt lat="46.15833837" lon="5.97935393"><ele></ele><time>2014-10-8T8:35:33Z</time></trkpt>
<trkpt lat="46.15832252" lon="5.97940019"><ele></ele><time>2014-10-8T8:35:36Z</time></trkpt>
<trkpt lat="46.15830610" lon="5.97944378"><ele></ele><time>2014-10-8T8:35:39Z</time></trkpt>
<trkpt lat="46.15828916" lon="5.97948913"><ele></ele><time>2014-10-8T8:35:42Z</time></trkpt>
<trkpt lat="46.15827274" lon="5.97953414"><ele></ele><time>2014-10-8T8:35:45Z</time></trkpt>
<trkpt lat="46.15825882" lon="5.97958233"><ele></ele><time>2014-10-8T8:35:48Z</time></trkpt>
<trkpt lat="46.15824583" lon="5.97962843"><ele></ele><time>2014-10-8T8:35:51Z</time></trkpt>
<trkpt lat="46.15823317" lon="5.97967302"><ele></ele><time>2014-10-8T8:35:54Z</time></trkpt>
<trkpt lat="46.15822127" lon="5.97971334"><ele></ele><time>2014-10-8T8:35:57Z</time></trkpt>
<trkpt lat="46.15820853" lon="5.97975659"><ele></ele><time>2014-10-8T8:36:0Z</time></trkpt>
<trkpt lat="46.15819755" lon="5.97980294"><ele></ele><time>2014-10-8T8:36:3Z</time></trkpt>
<trkpt lat="46.15818347" lon="5.97984930"><ele></ele><time>2014-10-8T8:36:6Z</time></trkpt>
<trkpt lat="46.15816830" lon="5.97990009"><ele></ele><time>2014-10-8T8:36:9Z</time></trkpt>
<trkpt lat="46.15815346" lon="5.97994938"><ele></ele><time>2014-10-8T8:36:12Z</time></trkpt>
<trkpt lat="46.15813670" lon="5.98000025"><ele></ele><time>2014-10-8T8:36:15Z</time></trkpt>
<trkpt lat="46.15811725" lon="5.98004426"><ele></ele><time>2014-10-8T8:36:18Z</time></trkpt>
<trkpt lat="46.15809605" lon="5.98009036"><ele></ele><time>2014-10-8T8:36:21Z</time></trkpt>
<trkpt lat="46.15808129" lon="5.98013964"><ele></ele><time>2014-10-8T8:36:24Z</time></trkpt>
<trkpt lat="46.15806813" lon="5.98018616"><ele></ele><time>2014-10-8T8:36:27Z</time></trkpt>
<trkpt lat="46.15805338" lon="5.98023495"><ele></ele><time>2014-10-8T8:36:30Z</time></trkpt>
<trkpt lat="46.15803964" lon="5.98028423"><ele></ele><time>2014-10-8T8:36:33Z</time></trkpt>
<trkpt lat="46.15802555" lon="5.98033067"><ele></ele><time>2014-10-8T8:36:36Z</time></trkpt>
<trkpt lat="46.15800980" lon="5.98037719"><ele></ele><time>2014-10-8T8:36:39Z</time></trkpt>
<trkpt lat="46.15799613" lon="5.98042714"><ele></ele><time>2014-10-8T8:36:42Z</time></trkpt>
<trkpt lat="46.15798180" lon="5.98047693"><ele></ele><time>2014-10-8T8:36:45Z</time></trkpt>
<trkpt lat="46.15796629" lon="5.98052303"><ele></ele><time>2014-10-8T8:36:48Z</time></trkpt>
<trkpt lat="46.15795297" lon="5.98056276"><ele></ele><time>2014-10-8T8:36:51Z</time></trkpt>
<trkpt lat="46.15794232" lon="5.98060216"><ele></ele><time>2014-10-8T8:36:54Z</time></trkpt>
<trkpt lat="46.15793285" lon="5.98064885"><ele></ele><time>2014-10-8T8:36:57Z</time></trkpt>
<trkpt lat="46.15791902" lon="5.98070006"><ele></ele><time>2014-10-8T8:37:0Z</time></trkpt>
<trkpt lat="46.15790687" lon="5.98074926"><ele></ele><time>2014-10-8T8:37:3Z</time></trkpt>
<trkpt lat="46.15789396" lon="5.98079519"><ele></ele><time>2014-10-8T8:37:6Z</time></trkpt>
<trkpt lat="46.15787627" lon="5.98083652"><ele></ele><time>2014-10-8T8:37:9Z</time></trkpt>
<trkpt lat="46.15785490" lon="5.98087524"><ele></ele><time>2014-10-8T8:37:12Z</time></trkpt>
<trkpt lat="46.15783160" lon="5.98091070"><ele></ele><time>2014-10-8T8:37:15Z</time></trkpt>
<trkpt lat="46.15780838" lon="5.98095059"><ele></ele><time>2014-10-8T8:37:18Z</time></trkpt>
<trkpt lat="46.15778223" lon="5.98098915"><ele></ele><time>2014-10-8T8:37:21Z</time></trkpt>
<trkpt lat="46.15774820" lon="5.98102427"><ele></ele><time>2014-10-8T8:37:24Z</time></trkpt>
<trkpt lat="46.15771215" lon="5.98105126"><ele></ele><time>2014-10-8T8:37:27Z</time></trkpt>
<trkpt lat="46.15767435" lon="5.98107356"><ele></ele><time>2014-10-8T8:37:30Z</time></trkpt>
<trkpt lat="46.15763437" lon="5.98109225"><ele></ele><time>2014-10-8T8:37:33Z</time></trkpt>
<trkpt lat="46.15759414" lon="5.98110423"><ele></ele><time>2014-10-8T8:37:36Z</time></trkpt>
<trkpt lat="46.15755323" lon="5.98111069"><ele></ele><time>2014-10-8T8:37:39Z</time></trkpt>
<trkpt lat="46.15751250" lon="5.98111454"><ele></ele><time>2014-10-8T8:37:42Z</time></trkpt>
<trkpt lat="46.15747235" lon="5.98111563"><ele></ele><time>2014-10-8T8:37:45Z</time></trkpt>
<trkpt lat="46.15743237" lon="5.98111345"><ele></ele><time>2014-10-8T8:37:48Z</time></trkpt>
<trkpt lat="46.15739272" lon="5.98110868"><ele></ele><time>2014-10-8T8:37:51Z</time></trkpt>
<trkpt lat="46.15735374" lon="5.98110088"><ele></ele><time>2014-10-8T8:37:54Z</time></trkpt>
<trkpt lat="46.15731494" lon="5.98109124"><ele></ele><time>2014-10-8T8:37:57Z</time></trkpt>
<trkpt lat="46.15727655" lon="5.98108009"><ele></ele><time>2014-10-8T8:38:0Z</time></trkpt>
<trkpt lat="46.15723866" lon="5.98106677"><ele></ele><time>2014-10-8T8:38:3Z</time></trkpt>
<trkpt lat="46.15720119" lon="5.98105243"><ele></ele><time>2014-10-8T8:38:6Z</time></trkpt>
<trkpt lat="46.15716406" lon="5.98103768"><ele></ele><time>2014-10-8T8:38:9Z</time></trkpt>
<trkpt lat="46.15712718" lon="5.98102067"><ele></ele><time>2014-10-8T8:38:12Z</time></trkpt>
<trkpt lat="46.15709064" lon="5.98100055"><ele></ele><time>2014-10-8T8:38:15Z</time></trkpt>
<trkpt lat="46.15705359" lon="5.98097985"><ele></ele><time>2014-10-8T8:38:18Z</time></trkpt>
<trkpt lat="46.15701629" lon="5.98096107"><ele></ele><time>2014-10-8T8:38:21Z</time></trkpt>
<trkpt lat="46.15697857" lon="5.98094473"><ele></ele><time>2014-10-8T8:38:24Z</time></trkpt>
<trkpt lat="46.15694077" lon="5.98092696"><ele></ele><time>2014-10-8T8:38:27Z</time></trkpt>
<trkpt lat="46.15690514" lon="5.98090625"><ele></ele><time>2014-10-8T8:38:30Z</time></trkpt>
<trkpt lat="46.15686952" lon="5.98088496"><ele></ele><time>2014-10-8T8:38:33Z</time></trkpt>
<trkpt lat="46.15683205" lon="5.98086627"><ele></ele><time>2014-10-8T8:38:36Z</time></trkpt>
<trkpt lat="46.15679274" lon="5.98085269"><ele></ele><time>2014-10-8T8:38:39Z</time></trkpt>
<trkpt lat="46.15675285" lon="5.98084926"><ele></ele><time>2014-10-8T8:38:42Z</time></trkpt>
<trkpt lat="46.15671488" lon="5.98086049"><ele></ele><time>2014-10-8T8:38:45Z</time></trkpt>
<trkpt lat="46.15668386" lon="5.98089016"><ele></ele><time>2014-10-8T8:38:48Z</time></trkpt>
<trkpt lat="46.15666173" lon="5.98093509"><ele></ele><time>2014-10-8T8:38:51Z</time></trkpt>
<trkpt lat="46.15664648" lon="5.98098764"><ele></ele><time>2014-10-8T8:38:54Z</time></trkpt>
<trkpt lat="46.15663407" lon="5.98104238"><ele></ele><time>2014-10-8T8:38:57Z</time></trkpt>
<trkpt lat="46.15662125" lon="5.98109778"><ele></ele><time>2014-10-8T8:39:0Z</time></trkpt>
<trkpt lat="46.15661446" lon="5.98115595"><ele></ele><time>2014-10-8T8:39:3Z</time></trkpt>
<trkpt lat="46.15661748" lon="5.98121638"><ele></ele><time>2014-10-8T8:39:6Z</time></trkpt>
<trkpt lat="46.15662628" lon="5.98127497"><ele></ele><time>2014-10-8T8:39:9Z</time></trkpt>
<trkpt lat="46.15663726" lon="5.98133105"><ele></ele><time>2014-10-8T8:39:12Z</time></trkpt>
<trkpt lat="46.15664497" lon="5.98138813"><ele></ele><time>2014-10-8T8:39:15Z</time></trkpt>
<trkpt lat="46.15664648" lon="5.98144655"><ele></ele><time>2014-10-8T8:39:18Z</time></trkpt>
<trkpt lat="46.15664036" lon="5.98150673"><ele></ele><time>2014-10-8T8:39:21Z</time></trkpt>
<trkpt lat="46.15663173" lon="5.98156700"><ele></ele><time>2014-10-8T8:39:24Z</time></trkpt>
<trkpt lat="46.15662385" lon="5.98162659"><ele></ele><time>2014-10-8T8:39:27Z</time></trkpt>
<trkpt lat="46.15661605" lon="5.98168527"><ele></ele><time>2014-10-8T8:39:30Z</time></trkpt>
<trkpt lat="46.15660884" lon="5.98174285"><ele></ele><time>2014-10-8T8:39:33Z</time></trkpt>
<trkpt lat="46.15660298" lon="5.98180035"><ele></ele><time>2014-10-8T8:39:36Z</time></trkpt>
<trkpt lat="46.15659828" lon="5.98185726"><ele></ele><time>2014-10-8T8:39:39Z</time></trkpt>
<trkpt lat="46.15659258" lon="5.98191108"><ele></ele><time>2014-10-8T8:39:42Z</time></trkpt>
<trkpt lat="46.15658445" lon="5.98196304"><ele></ele><time>2014-10-8T8:39:45Z</time></trkpt>
<trkpt lat="46.15657632" lon="5.98201443"><ele></ele><time>2014-10-8T8:39:48Z</time></trkpt>
<trkpt lat="46.15656878" lon="5.98206430"><ele></ele><time>2014-10-8T8:39:51Z</time></trkpt>
<trkpt lat="46.15656023" lon="5.98211274"><ele></ele><time>2014-10-8T8:39:54Z</time></trkpt>
<trkpt lat="46.15655109" lon="5.98216044"><ele></ele><time>2014-10-8T8:39:57Z</time></trkpt>
<trkpt lat="46.15654263" lon="5.98220830"><ele></ele><time>2014-10-8T8:40:0Z</time></trkpt>
<trkpt lat="46.15653483" lon="5.98225616"><ele></ele><time>2014-10-8T8:40:3Z</time></trkpt>
<trkpt lat="46.15652528" lon="5.98230125"><ele></ele><time>2014-10-8T8:40:6Z</time></trkpt>
<trkpt lat="46.15651463" lon="5.98234777"><ele></ele><time>2014-10-8T8:40:9Z</time></trkpt>
<trkpt lat="46.15650457" lon="5.98239572"><ele></ele><time>2014-10-8T8:40:12Z</time></trkpt>
<trkpt lat="46.15649426" lon="5.98244358"><ele></ele><time>2014-10-8T8:40:15Z</time></trkpt>
<trkpt lat="46.15648655" lon="5.98249236"><ele></ele><time>2014-10-8T8:40:18Z</time></trkpt>
<trkpt lat="46.15648286" lon="5.98254274"><ele></ele><time>2014-10-8T8:40:21Z</time></trkpt>
<trkpt lat="46.15648203" lon="5.98259403"><ele></ele><time>2014-10-8T8:40:24Z</time></trkpt>
<trkpt lat="46.15648337" lon="5.98264525"><ele></ele><time>2014-10-8T8:40:27Z</time></trkpt>
<trkpt lat="46.15648714" lon="5.98269646"><ele></ele><time>2014-10-8T8:40:30Z</time></trkpt>
<trkpt lat="46.15649284" lon="5.98274809"><ele></ele><time>2014-10-8T8:40:33Z</time></trkpt>
<trkpt lat="46.15649938" lon="5.98280023"><ele></ele><time>2014-10-8T8:40:36Z</time></trkpt>
<trkpt lat="46.15650617" lon="5.98285270"><ele></ele><time>2014-10-8T8:40:39Z</time></trkpt>
<trkpt lat="46.15651354" lon="5.98290626"><ele></ele><time>2014-10-8T8:40:42Z</time></trkpt>
<trkpt lat="46.15652016" lon="5.98295982"><ele></ele><time>2014-10-8T8:40:45Z</time></trkpt>
<trkpt lat="46.15652586" lon="5.98301380"><ele></ele><time>2014-10-8T8:40:48Z</time></trkpt>
<trkpt lat="46.15652855" lon="5.98306744"><ele></ele><time>2014-10-8T8:40:51Z</time></trkpt>
<trkpt lat="46.15652913" lon="5.98312033"><ele></ele><time>2014-10-8T8:40:54Z</time></trkpt>
<trkpt lat="46.15652955" lon="5.98317347"><ele></ele><time>2014-10-8T8:40:57Z</time></trkpt>
<trkpt lat="46.15653072" lon="5.98322687"><ele></ele><time>2014-10-8T8:41:0Z</time></trkpt>
<trkpt lat="46.15653299" lon="5.98327976"><ele></ele><time>2014-10-8T8:41:3Z</time></trkpt>
<trkpt lat="46.15653416" lon="5.98333315"><ele></ele><time>2014-10-8T8:41:6Z</time></trkpt>
<trkpt lat="46.15653458" lon="5.98338746"><ele></ele><time>2014-10-8T8:41:9Z</time></trkpt>
<trkpt lat="46.15653508" lon="5.98344245"><ele></ele><time>2014-10-8T8:41:12Z</time></trkpt>
<trkpt lat="46.15653517" lon="5.98349819"><ele></ele><time>2014-10-8T8:41:15Z</time></trkpt>
<trkpt lat="46.15653466" lon="5.98355477"><ele></ele><time>2014-10-8T8:41:18Z</time></trkpt>
<trkpt lat="46.15653517" lon="5.98361210"><ele></ele><time>2014-10-8T8:41:21Z</time></trkpt>
<trkpt lat="46.15653634" lon="5.98367002"><ele></ele><time>2014-10-8T8:41:24Z</time></trkpt>
<trkpt lat="46.15653668" lon="5.98372852"><ele></ele><time>2014-10-8T8:41:27Z</time></trkpt>
<trkpt lat="46.15653642" lon="5.98378745"><ele></ele><time>2014-10-8T8:41:30Z</time></trkpt>
<trkpt lat="46.15653626" lon="5.98384663"><ele></ele><time>2014-10-8T8:41:33Z</time></trkpt>
<trkpt lat="46.15653634" lon="5.98390614"><ele></ele><time>2014-10-8T8:41:36Z</time></trkpt>
<trkpt lat="46.15653718" lon="5.98396573"><ele></ele><time>2014-10-8T8:41:39Z</time></trkpt>
<trkpt lat="46.15653818" lon="5.98402550"><ele></ele><time>2014-10-8T8:41:42Z</time></trkpt>
<trkpt lat="46.15653877" lon="5.98408517"><ele></ele><time>2014-10-8T8:41:45Z</time></trkpt>
<trkpt lat="46.15653944" lon="5.98414494"><ele></ele><time>2014-10-8T8:41:48Z</time></trkpt>
<trkpt lat="46.15654028" lon="5.98420478"><ele></ele><time>2014-10-8T8:41:51Z</time></trkpt>
<trkpt lat="46.15654112" lon="5.98426404"><ele></ele><time>2014-10-8T8:41:54Z</time></trkpt>
<trkpt lat="46.15654246" lon="5.98432263"><ele></ele><time>2014-10-8T8:41:57Z</time></trkpt>
<trkpt lat="46.15654405" lon="5.98438089"><ele></ele><time>2014-10-8T8:42:0Z</time></trkpt>
<trkpt lat="46.15654523" lon="5.98443914"><ele></ele><time>2014-10-8T8:42:3Z</time></trkpt>
<trkpt lat="46.15654640" lon="5.98449748"><ele></ele><time>2014-10-8T8:42:6Z</time></trkpt>
<trkpt lat="46.15654724" lon="5.98455565"><ele></ele><time>2014-10-8T8:42:9Z</time></trkpt>
<trkpt lat="46.15654824" lon="5.98461382"><ele></ele><time>2014-10-8T8:42:12Z</time></trkpt>
<trkpt lat="46.15654925" lon="5.98467208"><ele></ele><time>2014-10-8T8:42:15Z</time></trkpt>
<trkpt lat="46.15655076" lon="5.98473058"><ele></ele><time>2014-10-8T8:42:18Z</time></trkpt>
<trkpt lat="46.15655218" lon="5.98478925"><ele></ele><time>2014-10-8T8:42:21Z</time></trkpt>
<trkpt lat="46.15655252" lon="5.98484826"><ele></ele><time>2014-10-8T8:42:24Z</time></trkpt>
<trkpt lat="46.15655327" lon="5.98490736"><ele></ele><time>2014-10-8T8:42:27Z</time></trkpt>
<trkpt lat="46.15655386" lon="5.98496670"><ele></ele><time>2014-10-8T8:42:30Z</time></trkpt>
<trkpt lat="46.15655445" lon="5.98502613"><ele></ele><time>2014-10-8T8:42:33Z</time></trkpt>
<trkpt lat="46.15655554" lon="5.98508572"><ele></ele><time>2014-10-8T8:42:36Z</time></trkpt>
<trkpt lat="46.15655679" lon="5.98514557"><ele></ele><time>2014-10-8T8:42:39Z</time></trkpt>
<trkpt lat="46.15655788" lon="5.98520525"><ele></ele><time>2014-10-8T8:42:42Z</time></trkpt>
<trkpt lat="46.15655914" lon="5.98526484"><ele></ele><time>2014-10-8T8:42:45Z</time></trkpt>
<trkpt lat="46.15656023" lon="5.98532427"><ele></ele><time>2014-10-8T8:42:48Z</time></trkpt>
<trkpt lat="46.15656107" lon="5.98538328"><ele></ele><time>2014-10-8T8:42:51Z</time></trkpt>
<trkpt lat="46.15656174" lon="5.98544187"><ele></ele><time>2014-10-8T8:42:54Z</time></trkpt>
<trkpt lat="46.15656216" lon="5.98550004"><ele></ele><time>2014-10-8T8:42:57Z</time></trkpt>
<trkpt lat="46.15656308" lon="5.98555796"><ele></ele><time>2014-10-8T8:43:0Z</time></trkpt>
<trkpt lat="46.15656417" lon="5.98561596"><ele></ele><time>2014-10-8T8:43:3Z</time></trkpt>
<trkpt lat="46.15656509" lon="5.98567430"><ele></ele><time>2014-10-8T8:43:6Z</time></trkpt>
<trkpt lat="46.15656559" lon="5.98573272"><ele></ele><time>2014-10-8T8:43:9Z</time></trkpt>
<trkpt lat="46.15656618" lon="5.98579190"><ele></ele><time>2014-10-8T8:43:12Z</time></trkpt>
<trkpt lat="46.15656693" lon="5.98585149"><ele></ele><time>2014-10-8T8:43:15Z</time></trkpt>
<trkpt lat="46.15656752" lon="5.98591167"><ele></ele><time>2014-10-8T8:43:18Z</time></trkpt>
<trkpt lat="46.15656836" lon="5.98597219"><ele></ele><time>2014-10-8T8:43:21Z</time></trkpt>
<trkpt lat="46.15656928" lon="5.98603263"><ele></ele><time>2014-10-8T8:43:24Z</time></trkpt>
<trkpt lat="46.15656987" lon="5.98609289"><ele></ele><time>2014-10-8T8:43:27Z</time></trkpt>
<trkpt lat="46.15657096" lon="5.98615232"><ele></ele><time>2014-10-8T8:43:30Z</time></trkpt>
<trkpt lat="46.15657205" lon="5.98621150"><ele></ele><time>2014-10-8T8:43:33Z</time></trkpt>
<trkpt lat="46.15657205" lon="5.98626992"><ele></ele><time>2014-10-8T8:43:36Z</time></trkpt>
<trkpt lat="46.15657263" lon="5.98632867"><ele></ele><time>2014-10-8T8:43:39Z</time></trkpt>
<trkpt lat="46.15657389" lon="5.98638785"><ele></ele><time>2014-10-8T8:43:42Z</time></trkpt>
<trkpt lat="46.15657515" lon="5.98644736"><ele></ele><time>2014-10-8T8:43:45Z</time></trkpt>
<trkpt lat="46.15657574" lon="5.98650729"><ele></ele><time>2014-10-8T8:43:48Z</time></trkpt>
<trkpt lat="46.15657624" lon="5.98656689"><ele></ele><time>2014-10-8T8:43:51Z</time></trkpt>
<trkpt lat="46.15657674" lon="5.98662657"><ele></ele><time>2014-10-8T8:43:54Z</time></trkpt>
<trkpt lat="46.15657724" lon="5.98668650"><ele></ele><time>2014-10-8T8:43:57Z</time></trkpt>
<trkpt lat="46.15657808" lon="5.98674643"><ele></ele><time>2014-10-8T8:44:0Z</time></trkpt>
<trkpt lat="46.15657909" lon="5.98680628"><ele></ele><time>2014-10-8T8:44:3Z</time></trkpt>
<trkpt lat="46.15657976" lon="5.98686554"><ele></ele><time>2014-10-8T8:44:6Z</time></trkpt>
<trkpt lat="46.15658043" lon="5.98692429"><ele></ele><time>2014-10-8T8:44:9Z</time></trkpt>
<trkpt lat="46.15658127" lon="5.98698246"><ele></ele><time>2014-10-8T8:44:12Z</time></trkpt>
<trkpt lat="46.15658177" lon="5.98704055"><ele></ele><time>2014-10-8T8:44:15Z</time></trkpt>
<trkpt lat="46.15658219" lon="5.98709897"><ele></ele><time>2014-10-8T8:44:18Z</time></trkpt>
<trkpt lat="46.15658252" lon="5.98715723"><ele></ele><time>2014-10-8T8:44:21Z</time></trkpt>
<trkpt lat="46.15658320" lon="5.98721540"><ele></ele><time>2014-10-8T8:44:24Z</time></trkpt>
<trkpt lat="46.15658353" lon="5.98727357"><ele></ele><time>2014-10-8T8:44:27Z</time></trkpt>
<trkpt lat="46.15658395" lon="5.98733165"><ele></ele><time>2014-10-8T8:44:30Z</time></trkpt>
<trkpt lat="46.15658445" lon="5.98739007"><ele></ele><time>2014-10-8T8:44:33Z</time></trkpt>
<trkpt lat="46.15658512" lon="5.98744825"><ele></ele><time>2014-10-8T8:44:36Z</time></trkpt>
<trkpt lat="46.15658588" lon="5.98750650"><ele></ele><time>2014-10-8T8:44:39Z</time></trkpt>
<trkpt lat="46.15658655" lon="5.98756442"><ele></ele><time>2014-10-8T8:44:42Z</time></trkpt>
<trkpt lat="46.15658797" lon="5.98762276"><ele></ele><time>2014-10-8T8:44:45Z</time></trkpt>
<trkpt lat="46.15658915" lon="5.98768143"><ele></ele><time>2014-10-8T8:44:48Z</time></trkpt>
<trkpt lat="46.15658998" lon="5.98774027"><ele></ele><time>2014-10-8T8:44:51Z</time></trkpt>
<trkpt lat="46.15659057" lon="5.98779920"><ele></ele><time>2014-10-8T8:44:54Z</time></trkpt>
<trkpt lat="46.15659066" lon="5.98785812"><ele></ele><time>2014-10-8T8:44:57Z</time></trkpt>
<trkpt lat="46.15659074" lon="5.98791738"><ele></ele><time>2014-10-8T8:45:0Z</time></trkpt>
<trkpt lat="46.15659124" lon="5.98797672"><ele></ele><time>2014-10-8T8:45:3Z</time></trkpt>
<trkpt lat="46.15659166" lon="5.98803665"><ele></ele><time>2014-10-8T8:45:6Z</time></trkpt>
<trkpt lat="46.15659216" lon="5.98809709"><ele></ele><time>2014-10-8T8:45:9Z</time></trkpt>
<trkpt lat="46.15659334" lon="5.98815744"><ele></ele><time>2014-10-8T8:45:12Z</time></trkpt>
<trkpt lat="46.15659443" lon="5.98821779"><ele></ele><time>2014-10-8T8:45:15Z</time></trkpt>
<trkpt lat="46.15659602" lon="5.98827797"><ele></ele><time>2014-10-8T8:45:18Z</time></trkpt>
<trkpt lat="46.15659770" lon="5.98833815"><ele></ele><time>2014-10-8T8:45:21Z</time></trkpt>
<trkpt lat="46.15659879" lon="5.98839842"><ele></ele><time>2014-10-8T8:45:24Z</time></trkpt>
<trkpt lat="46.15660004" lon="5.98845826"><ele></ele><time>2014-10-8T8:45:27Z</time></trkpt>
<trkpt lat="46.15660147" lon="5.98851752"><ele></ele><time>2014-10-8T8:45:30Z</time></trkpt>
<trkpt lat="46.15660306" lon="5.98857653"><ele></ele><time>2014-10-8T8:45:33Z</time></trkpt>
<trkpt lat="46.15660465" lon="5.98863563"><ele></ele><time>2014-10-8T8:45:36Z</time></trkpt>
<trkpt lat="46.15660507" lon="5.98869388"><ele></ele><time>2014-10-8T8:45:39Z</time></trkpt>
<trkpt lat="46.15660566" lon="5.98875197"><ele></ele><time>2014-10-8T8:45:42Z</time></trkpt>
<trkpt lat="46.15660616" lon="5.98880997"><ele></ele><time>2014-10-8T8:45:45Z</time></trkpt>
<trkpt lat="46.15660666" lon="5.98886789"><ele></ele><time>2014-10-8T8:45:48Z</time></trkpt>
<trkpt lat="46.15660734" lon="5.98892665"><ele></ele><time>2014-10-8T8:45:51Z</time></trkpt>
<trkpt lat="46.15660834" lon="5.98898565"><ele></ele><time>2014-10-8T8:45:54Z</time></trkpt>
<trkpt lat="46.15661002" lon="5.98904483"><ele></ele><time>2014-10-8T8:45:57Z</time></trkpt>
<trkpt lat="46.15661178" lon="5.98910375"><ele></ele><time>2014-10-8T8:46:0Z</time></trkpt>
<trkpt lat="46.15661337" lon="5.98916167"><ele></ele><time>2014-10-8T8:46:3Z</time></trkpt>
<trkpt lat="46.15661488" lon="5.98921926"><ele></ele><time>2014-10-8T8:46:6Z</time></trkpt>
<trkpt lat="46.15661622" lon="5.98927793"><ele></ele><time>2014-10-8T8:46:9Z</time></trkpt>
<trkpt lat="46.15661748" lon="5.98933719"><ele></ele><time>2014-10-8T8:46:12Z</time></trkpt>
<trkpt lat="46.15661823" lon="5.98939595"><ele></ele><time>2014-10-8T8:46:15Z</time></trkpt>
<trkpt lat="46.15661949" lon="5.98945395"><ele></ele><time>2014-10-8T8:46:18Z</time></trkpt>
<trkpt lat="46.15662083" lon="5.98951212"><ele></ele><time>2014-10-8T8:46:21Z</time></trkpt>
<trkpt lat="46.15662108" lon="5.98956887"><ele></ele><time>2014-10-8T8:46:24Z</time></trkpt>
<trkpt lat="46.15662058" lon="5.98962628"><ele></ele><time>2014-10-8T8:46:27Z</time></trkpt>
<trkpt lat="46.15661907" lon="5.98968529"><ele></ele><time>2014-10-8T8:46:30Z</time></trkpt>
<trkpt lat="46.15661848" lon="5.98974422"><ele></ele><time>2014-10-8T8:46:33Z</time></trkpt>
<trkpt lat="46.15661907" lon="5.98980264"><ele></ele><time>2014-10-8T8:46:36Z</time></trkpt>
<trkpt lat="46.15661949" lon="5.98986148"><ele></ele><time>2014-10-8T8:46:39Z</time></trkpt>
<trkpt lat="46.15661899" lon="5.98992074"><ele></ele><time>2014-10-8T8:46:42Z</time></trkpt>
<trkpt lat="46.15661639" lon="5.98998017"><ele></ele><time>2014-10-8T8:46:45Z</time></trkpt>
<trkpt lat="46.15661245" lon="5.99003909"><ele></ele><time>2014-10-8T8:46:48Z</time></trkpt>
<trkpt lat="46.15660817" lon="5.99009768"><ele></ele><time>2014-10-8T8:46:51Z</time></trkpt>
<trkpt lat="46.15660264" lon="5.99015669"><ele></ele><time>2014-10-8T8:46:54Z</time></trkpt>
<trkpt lat="46.15659619" lon="5.99021528"><ele></ele><time>2014-10-8T8:46:57Z</time></trkpt>
<trkpt lat="46.15658973" lon="5.99027412"><ele></ele><time>2014-10-8T8:47:0Z</time></trkpt>
<trkpt lat="46.15658294" lon="5.99033313"><ele></ele><time>2014-10-8T8:47:3Z</time></trkpt>
<trkpt lat="46.15657523" lon="5.99039197"><ele></ele><time>2014-10-8T8:47:6Z</time></trkpt>
<trkpt lat="46.15656744" lon="5.99045006"><ele></ele><time>2014-10-8T8:47:9Z</time></trkpt>
<trkpt lat="46.15655813" lon="5.99050948"><ele></ele><time>2014-10-8T8:47:12Z</time></trkpt>
<trkpt lat="46.15654732" lon="5.99056858"><ele></ele><time>2014-10-8T8:47:15Z</time></trkpt>
<trkpt lat="46.15653533" lon="5.99062717"><ele></ele><time>2014-10-8T8:47:18Z</time></trkpt>
<trkpt lat="46.15652293" lon="5.99068584"><ele></ele><time>2014-10-8T8:47:21Z</time></trkpt>
<trkpt lat="46.15651002" lon="5.99074342"><ele></ele><time>2014-10-8T8:47:24Z</time></trkpt>
<trkpt lat="46.15649628" lon="5.99079992"><ele></ele><time>2014-10-8T8:47:27Z</time></trkpt>
<trkpt lat="46.15648169" lon="5.99085599"><ele></ele><time>2014-10-8T8:47:30Z</time></trkpt>
<trkpt lat="46.15646535" lon="5.99091140"><ele></ele><time>2014-10-8T8:47:33Z</time></trkpt>
<trkpt lat="46.15644816" lon="5.99096688"><ele></ele><time>2014-10-8T8:47:36Z</time></trkpt>
<trkpt lat="46.15642956" lon="5.99102044"><ele></ele><time>2014-10-8T8:47:39Z</time></trkpt>
<trkpt lat="46.15641120" lon="5.99107426"><ele></ele><time>2014-10-8T8:47:42Z</time></trkpt>
<trkpt lat="46.15639267" lon="5.99112740"><ele></ele><time>2014-10-8T8:47:45Z</time></trkpt>
<trkpt lat="46.15637289" lon="5.99117744"><ele></ele><time>2014-10-8T8:47:48Z</time></trkpt>
<trkpt lat="46.15635336" lon="5.99122823"><ele></ele><time>2014-10-8T8:47:51Z</time></trkpt>
<trkpt lat="46.15633216" lon="5.99127609"><ele></ele><time>2014-10-8T8:47:54Z</time></trkpt>
<trkpt lat="46.15631154" lon="5.99132714"><ele></ele><time>2014-10-8T8:47:57Z</time></trkpt>
<trkpt lat="46.15628899" lon="5.99137777"><ele></ele><time>2014-10-8T8:48:0Z</time></trkpt>
<trkpt lat="46.15626468" lon="5.99142353"><ele></ele><time>2014-10-8T8:48:3Z</time></trkpt>
<trkpt lat="46.15623895" lon="5.99146846"><ele></ele><time>2014-10-8T8:48:6Z</time></trkpt>
<trkpt lat="46.15621322" lon="5.99151439"><ele></ele><time>2014-10-8T8:48:9Z</time></trkpt>
<trkpt lat="46.15618757" lon="5.99155898"><ele></ele><time>2014-10-8T8:48:12Z</time></trkpt>
<trkpt lat="46.15616159" lon="5.99160282"><ele></ele><time>2014-10-8T8:48:15Z</time></trkpt>
<trkpt lat="46.15613443" lon="5.99164884"><ele></ele><time>2014-10-8T8:48:18Z</time></trkpt>
<trkpt lat="46.15610828" lon="5.99168966"><ele></ele><time>2014-10-8T8:48:21Z</time></trkpt>
<trkpt lat="46.15608229" lon="5.99172947"><ele></ele><time>2014-10-8T8:48:24Z</time></trkpt>
<trkpt lat="46.15605463" lon="5.99177297"><ele></ele><time>2014-10-8T8:48:27Z</time></trkpt>
<trkpt lat="46.15602597" lon="5.99181756"><ele></ele><time>2014-10-8T8:48:30Z</time></trkpt>
<trkpt lat="46.15599856" lon="5.99185897"><ele></ele><time>2014-10-8T8:48:33Z</time></trkpt>
<trkpt lat="46.15597165" lon="5.99189945"><ele></ele><time>2014-10-8T8:48:36Z</time></trkpt>
<trkpt lat="46.15594416" lon="5.99194053"><ele></ele><time>2014-10-8T8:48:39Z</time></trkpt>
<trkpt lat="46.15591583" lon="5.99198327"><ele></ele><time>2014-10-8T8:48:42Z</time></trkpt>
<trkpt lat="46.15588758" lon="5.99202334"><ele></ele><time>2014-10-8T8:48:45Z</time></trkpt>
<trkpt lat="46.15585992" lon="5.99206139"><ele></ele><time>2014-10-8T8:48:48Z</time></trkpt>
<trkpt lat="46.15583142" lon="5.99210582"><ele></ele><time>2014-10-8T8:48:51Z</time></trkpt>
<trkpt lat="46.15580427" lon="5.99214857"><ele></ele><time>2014-10-8T8:48:54Z</time></trkpt>
<trkpt lat="46.15577677" lon="5.99218947"><ele></ele><time>2014-10-8T8:48:57Z</time></trkpt>
<trkpt lat="46.15574794" lon="5.99223088"><ele></ele><time>2014-10-8T8:49:0Z</time></trkpt>
<trkpt lat="46.15571852" lon="5.99227413"><ele></ele><time>2014-10-8T8:49:3Z</time></trkpt>
<trkpt lat="46.15568918" lon="5.99231763"><ele></ele><time>2014-10-8T8:49:6Z</time></trkpt>
<trkpt lat="46.15566244" lon="5.99235518"><ele></ele><time>2014-10-8T8:49:9Z</time></trkpt>
<trkpt lat="46.15563403" lon="5.99239717"><ele></ele><time>2014-10-8T8:49:12Z</time></trkpt>
<trkpt lat="46.15560679" lon="5.99243673"><ele></ele><time>2014-10-8T8:49:15Z</time></trkpt>
<trkpt lat="46.15557963" lon="5.99247605"><ele></ele><time>2014-10-8T8:49:18Z</time></trkpt>
<trkpt lat="46.15555205" lon="5.99251628"><ele></ele><time>2014-10-8T8:49:21Z</time></trkpt>
<trkpt lat="46.15552406" lon="5.99255584"><ele></ele><time>2014-10-8T8:49:24Z</time></trkpt>
<trkpt lat="46.15549673" lon="5.99259599"><ele></ele><time>2014-10-8T8:49:27Z</time></trkpt>
<trkpt lat="46.15546874" lon="5.99263664"><ele></ele><time>2014-10-8T8:49:30Z</time></trkpt>
<trkpt lat="46.15544057" lon="5.99267813"><ele></ele><time>2014-10-8T8:49:33Z</time></trkpt>
<trkpt lat="46.15541266" lon="5.99272080"><ele></ele><time>2014-10-8T8:49:36Z</time></trkpt>
<trkpt lat="46.15538475" lon="5.99276464"><ele></ele><time>2014-10-8T8:49:39Z</time></trkpt>
<trkpt lat="46.15535692" lon="5.99280822"><ele></ele><time>2014-10-8T8:49:42Z</time></trkpt>
<trkpt lat="46.15532977" lon="5.99285206"><ele></ele><time>2014-10-8T8:49:45Z</time></trkpt>
<trkpt lat="46.15530328" lon="5.99289564"><ele></ele><time>2014-10-8T8:49:48Z</time></trkpt>
<trkpt lat="46.15527553" lon="5.99294174"><ele></ele><time>2014-10-8T8:49:51Z</time></trkpt>
<trkpt lat="46.15524955" lon="5.99298893"><ele></ele><time>2014-10-8T8:49:54Z</time></trkpt>
<trkpt lat="46.15522600" lon="5.99303738"><ele></ele><time>2014-10-8T8:49:57Z</time></trkpt>
<trkpt lat="46.15520278" lon="5.99308633"><ele></ele><time>2014-10-8T8:50:0Z</time></trkpt>
<trkpt lat="46.15518048" lon="5.99313545"><ele></ele><time>2014-10-8T8:50:3Z</time></trkpt>
<trkpt lat="46.15515567" lon="5.99318876"><ele></ele><time>2014-10-8T8:50:6Z</time></trkpt>
<trkpt lat="46.15513162" lon="5.99324333"><ele></ele><time>2014-10-8T8:50:9Z</time></trkpt>
<trkpt lat="46.15510907" lon="5.99329848"><ele></ele><time>2014-10-8T8:50:12Z</time></trkpt>
<trkpt lat="46.15508820" lon="5.99335464"><ele></ele><time>2014-10-8T8:50:15Z</time></trkpt>
<trkpt lat="46.15506942" lon="5.99341172"><ele></ele><time>2014-10-8T8:50:18Z</time></trkpt>
<trkpt lat="46.15505207" lon="5.99346905"><ele></ele><time>2014-10-8T8:50:21Z</time></trkpt>
<trkpt lat="46.15503556" lon="5.99352588"><ele></ele><time>2014-10-8T8:50:24Z</time></trkpt>
<trkpt lat="46.15501997" lon="5.99358304"><ele></ele><time>2014-10-8T8:50:27Z</time></trkpt>
<trkpt lat="46.15500547" lon="5.99364113"><ele></ele><time>2014-10-8T8:50:30Z</time></trkpt>
<trkpt lat="46.15499139" lon="5.99369746"><ele></ele><time>2014-10-8T8:50:33Z</time></trkpt>
<trkpt lat="46.15497840" lon="5.99375395"><ele></ele><time>2014-10-8T8:50:36Z</time></trkpt>
<trkpt lat="46.15496582" lon="5.99381045"><ele></ele><time>2014-10-8T8:50:39Z</time></trkpt>
<trkpt lat="46.15495417" lon="5.99386652"><ele></ele><time>2014-10-8T8:50:42Z</time></trkpt>
<trkpt lat="46.15494252" lon="5.99392310"><ele></ele><time>2014-10-8T8:50:45Z</time></trkpt>
<trkpt lat="46.15493028" lon="5.99398026"><ele></ele><time>2014-10-8T8:50:48Z</time></trkpt>
<trkpt lat="46.15491813" lon="5.99403558"><ele></ele><time>2014-10-8T8:50:51Z</time></trkpt>
<trkpt lat="46.15490556" lon="5.99409300"><ele></ele><time>2014-10-8T8:50:54Z</time></trkpt>
<trkpt lat="46.15489508" lon="5.99415134"><ele></ele><time>2014-10-8T8:50:57Z</time></trkpt>
<trkpt lat="46.15488418" lon="5.99420984"><ele></ele><time>2014-10-8T8:51:0Z</time></trkpt>
<trkpt lat="46.15487186" lon="5.99426843"><ele></ele><time>2014-10-8T8:51:3Z</time></trkpt>
<trkpt lat="46.15485703" lon="5.99432803"><ele></ele><time>2014-10-8T8:51:6Z</time></trkpt>
<trkpt lat="46.15484445" lon="5.99438645"><ele></ele><time>2014-10-8T8:51:9Z</time></trkpt>
<trkpt lat="46.15483196" lon="5.99444496"><ele></ele><time>2014-10-8T8:51:12Z</time></trkpt>
<trkpt lat="46.15481822" lon="5.99450245"><ele></ele><time>2014-10-8T8:51:15Z</time></trkpt>
<trkpt lat="46.15480757" lon="5.99455954"><ele></ele><time>2014-10-8T8:51:18Z</time></trkpt>
<trkpt lat="46.15479852" lon="5.99461653"><ele></ele><time>2014-10-8T8:51:21Z</time></trkpt>
<trkpt lat="46.15478788" lon="5.99467135"><ele></ele><time>2014-10-8T8:51:24Z</time></trkpt>
<trkpt lat="46.15477379" lon="5.99472793"><ele></ele><time>2014-10-8T8:51:27Z</time></trkpt>
<trkpt lat="46.15476139" lon="5.99478333"><ele></ele><time>2014-10-8T8:51:30Z</time></trkpt>
<trkpt lat="46.15474907" lon="5.99483874"><ele></ele><time>2014-10-8T8:51:33Z</time></trkpt>
<trkpt lat="46.15473658" lon="5.99489523"><ele></ele><time>2014-10-8T8:51:36Z</time></trkpt>
<trkpt lat="46.15472342" lon="5.99495097"><ele></ele><time>2014-10-8T8:51:39Z</time></trkpt>
<trkpt lat="46.15470925" lon="5.99500780"><ele></ele><time>2014-10-8T8:51:42Z</time></trkpt>
<trkpt lat="46.15469534" lon="5.99506480"><ele></ele><time>2014-10-8T8:51:45Z</time></trkpt>
<trkpt lat="46.15468126" lon="5.99512112"><ele></ele><time>2014-10-8T8:51:48Z</time></trkpt>
<trkpt lat="46.15466852" lon="5.99517854"><ele></ele><time>2014-10-8T8:51:51Z</time></trkpt>
<trkpt lat="46.15465653" lon="5.99523688"><ele></ele><time>2014-10-8T8:51:54Z</time></trkpt>
<trkpt lat="46.15464455" lon="5.99529488"><ele></ele><time>2014-10-8T8:51:57Z</time></trkpt>
<trkpt lat="46.15463407" lon="5.99535339"><ele></ele><time>2014-10-8T8:52:0Z</time></trkpt>
<trkpt lat="46.15462376" lon="5.99541223"><ele></ele><time>2014-10-8T8:52:3Z</time></trkpt>
<trkpt lat="46.15461169" lon="5.99546914"><ele></ele><time>2014-10-8T8:52:6Z</time></trkpt>
<trkpt lat="46.15459786" lon="5.99552589"><ele></ele><time>2014-10-8T8:52:9Z</time></trkpt>
<trkpt lat="46.15458637" lon="5.99558238"><ele></ele><time>2014-10-8T8:52:12Z</time></trkpt>
<trkpt lat="46.15457565" lon="5.99564038"><ele></ele><time>2014-10-8T8:52:15Z</time></trkpt>
<trkpt lat="46.15456425" lon="5.99569939"><ele></ele><time>2014-10-8T8:52:18Z</time></trkpt>
<trkpt lat="46.15455016" lon="5.99575790"><ele></ele><time>2014-10-8T8:52:21Z</time></trkpt>
<trkpt lat="46.15453868" lon="5.99581447"><ele></ele><time>2014-10-8T8:52:24Z</time></trkpt>
<trkpt lat="46.15452887" lon="5.99587298"><ele></ele><time>2014-10-8T8:52:27Z</time></trkpt>
<trkpt lat="46.15451999" lon="5.99593123"><ele></ele><time>2014-10-8T8:52:30Z</time></trkpt>
<trkpt lat="46.15451194" lon="5.99598932"><ele></ele><time>2014-10-8T8:52:33Z</time></trkpt>
<trkpt lat="46.15450314" lon="5.99604774"><ele></ele><time>2014-10-8T8:52:36Z</time></trkpt>
<trkpt lat="46.15449560" lon="5.99610600"><ele></ele><time>2014-10-8T8:52:39Z</time></trkpt>
<trkpt lat="46.15448940" lon="5.99616484"><ele></ele><time>2014-10-8T8:52:42Z</time></trkpt>
<trkpt lat="46.15448353" lon="5.99622334"><ele></ele><time>2014-10-8T8:52:45Z</time></trkpt>
<trkpt lat="46.15447716" lon="5.99628252"><ele></ele><time>2014-10-8T8:52:48Z</time></trkpt>
<trkpt lat="46.15447188" lon="5.99634178"><ele></ele><time>2014-10-8T8:52:51Z</time></trkpt>
<trkpt lat="46.15446827" lon="5.99640104"><ele></ele><time>2014-10-8T8:52:54Z</time></trkpt>
<trkpt lat="46.15446559" lon="5.99646047"><ele></ele><time>2014-10-8T8:52:57Z</time></trkpt>
<trkpt lat="46.15446358" lon="5.99652015"><ele></ele><time>2014-10-8T8:53:0Z</time></trkpt>
<trkpt lat="46.15446224" lon="5.99658075"><ele></ele><time>2014-10-8T8:53:3Z</time></trkpt>
<trkpt lat="46.15446165" lon="5.99664143"><ele></ele><time>2014-10-8T8:53:6Z</time></trkpt>
<trkpt lat="46.15446182" lon="5.99670245"><ele></ele><time>2014-10-8T8:53:9Z</time></trkpt>
<trkpt lat="46.15446383" lon="5.99676389"><ele></ele><time>2014-10-8T8:53:12Z</time></trkpt>
<trkpt lat="46.15446827" lon="5.99682525"><ele></ele><time>2014-10-8T8:53:15Z</time></trkpt>
<trkpt lat="46.15447339" lon="5.99688585"><ele></ele><time>2014-10-8T8:53:18Z</time></trkpt>
<trkpt lat="46.15447917" lon="5.99694586"><ele></ele><time>2014-10-8T8:53:21Z</time></trkpt>
<trkpt lat="46.15448588" lon="5.99700588"><ele></ele><time>2014-10-8T8:53:24Z</time></trkpt>
<trkpt lat="46.15449409" lon="5.99706640"><ele></ele><time>2014-10-8T8:53:27Z</time></trkpt>
<trkpt lat="46.15450356" lon="5.99712725"><ele></ele><time>2014-10-8T8:53:30Z</time></trkpt>
<trkpt lat="46.15451429" lon="5.99718869"><ele></ele><time>2014-10-8T8:53:33Z</time></trkpt>
<trkpt lat="46.15452603" lon="5.99725113"><ele></ele><time>2014-10-8T8:53:36Z</time></trkpt>
<trkpt lat="46.15453918" lon="5.99731450"><ele></ele><time>2014-10-8T8:53:39Z</time></trkpt>
<trkpt lat="46.15455419" lon="5.99737703"><ele></ele><time>2014-10-8T8:53:42Z</time></trkpt>
<trkpt lat="46.15457078" lon="5.99743889"><ele></ele><time>2014-10-8T8:53:45Z</time></trkpt>
<trkpt lat="46.15458889" lon="5.99749999"><ele></ele><time>2014-10-8T8:53:48Z</time></trkpt>
<trkpt lat="46.15460708" lon="5.99756110"><ele></ele><time>2014-10-8T8:53:51Z</time></trkpt>
<trkpt lat="46.15462418" lon="5.99762262"><ele></ele><time>2014-10-8T8:53:54Z</time></trkpt>
<trkpt lat="46.15464102" lon="5.99768439"><ele></ele><time>2014-10-8T8:53:57Z</time></trkpt>
<trkpt lat="46.15465838" lon="5.99774516"><ele></ele><time>2014-10-8T8:54:0Z</time></trkpt>
<trkpt lat="46.15467598" lon="5.99780568"><ele></ele><time>2014-10-8T8:54:3Z</time></trkpt>
<trkpt lat="46.15469417" lon="5.99786695"><ele></ele><time>2014-10-8T8:54:6Z</time></trkpt>
<trkpt lat="46.15471235" lon="5.99792940"><ele></ele><time>2014-10-8T8:54:9Z</time></trkpt>
<trkpt lat="46.15473046" lon="5.99799276"><ele></ele><time>2014-10-8T8:54:12Z</time></trkpt>
<trkpt lat="46.15474865" lon="5.99805697"><ele></ele><time>2014-10-8T8:54:15Z</time></trkpt>
<trkpt lat="46.15476684" lon="5.99812126"><ele></ele><time>2014-10-8T8:54:18Z</time></trkpt>
<trkpt lat="46.15478494" lon="5.99818555"><ele></ele><time>2014-10-8T8:54:21Z</time></trkpt>
<trkpt lat="46.15480363" lon="5.99824917"><ele></ele><time>2014-10-8T8:54:24Z</time></trkpt>
<trkpt lat="46.15482274" lon="5.99831253"><ele></ele><time>2014-10-8T8:54:27Z</time></trkpt>
<trkpt lat="46.15484118" lon="5.99837624"><ele></ele><time>2014-10-8T8:54:30Z</time></trkpt>
<trkpt lat="46.15485904" lon="5.99843985"><ele></ele><time>2014-10-8T8:54:33Z</time></trkpt>
<trkpt lat="46.15487689" lon="5.99850305"><ele></ele><time>2014-10-8T8:54:36Z</time></trkpt>
<trkpt lat="46.15489449" lon="5.99856592"><ele></ele><time>2014-10-8T8:54:39Z</time></trkpt>
<trkpt lat="46.15491277" lon="5.99862836"><ele></ele><time>2014-10-8T8:54:42Z</time></trkpt>
<trkpt lat="46.15493129" lon="5.99869072"><ele></ele><time>2014-10-8T8:54:45Z</time></trkpt>
<trkpt lat="46.15494923" lon="5.99875376"><ele></ele><time>2014-10-8T8:54:48Z</time></trkpt>
<trkpt lat="46.15496767" lon="5.99881696"><ele></ele><time>2014-10-8T8:54:51Z</time></trkpt>
<trkpt lat="46.15498577" lon="5.99888024"><ele></ele><time>2014-10-8T8:54:54Z</time></trkpt>
<trkpt lat="46.15500354" lon="5.99894436"><ele></ele><time>2014-10-8T8:54:57Z</time></trkpt>
<trkpt lat="46.15502249" lon="5.99900899"><ele></ele><time>2014-10-8T8:55:0Z</time></trkpt>
<trkpt lat="46.15504126" lon="5.99907428"><ele></ele><time>2014-10-8T8:55:3Z</time></trkpt>
<trkpt lat="46.15505802" lon="5.99914075"><ele></ele><time>2014-10-8T8:55:6Z</time></trkpt>
<trkpt lat="46.15507412" lon="5.99920789"><ele></ele><time>2014-10-8T8:55:9Z</time></trkpt>
<trkpt lat="46.15509214" lon="5.99927436"><ele></ele><time>2014-10-8T8:55:12Z</time></trkpt>
<trkpt lat="46.15511133" lon="5.99934049"><ele></ele><time>2014-10-8T8:55:15Z</time></trkpt>
<trkpt lat="46.15513195" lon="5.99940646"><ele></ele><time>2014-10-8T8:55:18Z</time></trkpt>
<trkpt lat="46.15515416" lon="5.99947116"><ele></ele><time>2014-10-8T8:55:21Z</time></trkpt>
<trkpt lat="46.15517747" lon="5.99953436"><ele></ele><time>2014-10-8T8:55:24Z</time></trkpt>
<trkpt lat="46.15519934" lon="5.99959798"><ele></ele><time>2014-10-8T8:55:27Z</time></trkpt>
<trkpt lat="46.15521963" lon="5.99966252"><ele></ele><time>2014-10-8T8:55:30Z</time></trkpt>
<trkpt lat="46.15523974" lon="5.99972748"><ele></ele><time>2014-10-8T8:55:33Z</time></trkpt>
<trkpt lat="46.15525986" lon="5.99979244"><ele></ele><time>2014-10-8T8:55:36Z</time></trkpt>
<trkpt lat="46.15528014" lon="5.99985732"><ele></ele><time>2014-10-8T8:55:39Z</time></trkpt>
<trkpt lat="46.15530043" lon="5.99992228"><ele></ele><time>2014-10-8T8:55:42Z</time></trkpt>
<trkpt lat="46.15532105" lon="5.99998732"><ele></ele><time>2014-10-8T8:55:45Z</time></trkpt>
<trkpt lat="46.15534184" lon="6.00005304"><ele></ele><time>2014-10-8T8:55:48Z</time></trkpt>
<trkpt lat="46.15536246" lon="6.00011959"><ele></ele><time>2014-10-8T8:55:51Z</time></trkpt>
<trkpt lat="46.15538383" lon="6.00018606"><ele></ele><time>2014-10-8T8:55:54Z</time></trkpt>
<trkpt lat="46.15540638" lon="6.00025244"><ele></ele><time>2014-10-8T8:55:57Z</time></trkpt>
<trkpt lat="46.15542859" lon="6.00031933"><ele></ele><time>2014-10-8T8:56:0Z</time></trkpt>
<trkpt lat="46.15545055" lon="6.00038638"><ele></ele><time>2014-10-8T8:56:3Z</time></trkpt>
<trkpt lat="46.15547234" lon="6.00045335"><ele></ele><time>2014-10-8T8:56:6Z</time></trkpt>
<trkpt lat="46.15549405" lon="6.00052007"><ele></ele><time>2014-10-8T8:56:9Z</time></trkpt>
<trkpt lat="46.15551635" lon="6.00058629"><ele></ele><time>2014-10-8T8:56:12Z</time></trkpt>
<trkpt lat="46.15553889" lon="6.00065276"><ele></ele><time>2014-10-8T8:56:15Z</time></trkpt>
<trkpt lat="46.15556127" lon="6.00071965"><ele></ele><time>2014-10-8T8:56:18Z</time></trkpt>
<trkpt lat="46.15558424" lon="6.00078654"><ele></ele><time>2014-10-8T8:56:21Z</time></trkpt>
<trkpt lat="46.15560729" lon="6.00085393"><ele></ele><time>2014-10-8T8:56:24Z</time></trkpt>
<trkpt lat="46.15563059" lon="6.00092123"><ele></ele><time>2014-10-8T8:56:27Z</time></trkpt>
<trkpt lat="46.15565389" lon="6.00098829"><ele></ele><time>2014-10-8T8:56:30Z</time></trkpt>
<trkpt lat="46.15567694" lon="6.00105509"><ele></ele><time>2014-10-8T8:56:33Z</time></trkpt>
<trkpt lat="46.15570025" lon="6.00112164"><ele></ele><time>2014-10-8T8:56:36Z</time></trkpt>
<trkpt lat="46.15572346" lon="6.00118786"><ele></ele><time>2014-10-8T8:56:39Z</time></trkpt>
<trkpt lat="46.15574744" lon="6.00125349"><ele></ele><time>2014-10-8T8:56:42Z</time></trkpt>
<trkpt lat="46.15577149" lon="6.00131820"><ele></ele><time>2014-10-8T8:56:45Z</time></trkpt>
<trkpt lat="46.15579496" lon="6.00138299"><ele></ele><time>2014-10-8T8:56:48Z</time></trkpt>
<trkpt lat="46.15581885" lon="6.00144787"><ele></ele><time>2014-10-8T8:56:51Z</time></trkpt>
<trkpt lat="46.15584282" lon="6.00151308"><ele></ele><time>2014-10-8T8:56:54Z</time></trkpt>
<trkpt lat="46.15586696" lon="6.00157846"><ele></ele><time>2014-10-8T8:56:57Z</time></trkpt>
<trkpt lat="46.15589135" lon="6.00164375"><ele></ele><time>2014-10-8T8:57:0Z</time></trkpt>
<trkpt lat="46.15591566" lon="6.00170930"><ele></ele><time>2014-10-8T8:57:3Z</time></trkpt>
<trkpt lat="46.15593955" lon="6.00177468"><ele></ele><time>2014-10-8T8:57:6Z</time></trkpt>
<trkpt lat="46.15596352" lon="6.00183964"><ele></ele><time>2014-10-8T8:57:9Z</time></trkpt>
<trkpt lat="46.15598783" lon="6.00190426"><ele></ele><time>2014-10-8T8:57:12Z</time></trkpt>
<trkpt lat="46.15601214" lon="6.00196838"><ele></ele><time>2014-10-8T8:57:15Z</time></trkpt>
<trkpt lat="46.15603653" lon="6.00203150"><ele></ele><time>2014-10-8T8:57:18Z</time></trkpt>
<trkpt lat="46.15606159" lon="6.00209369"><ele></ele><time>2014-10-8T8:57:21Z</time></trkpt>
<trkpt lat="46.15608606" lon="6.00215597"><ele></ele><time>2014-10-8T8:57:24Z</time></trkpt>
<trkpt lat="46.15611029" lon="6.00221816"><ele></ele><time>2014-10-8T8:57:27Z</time></trkpt>
<trkpt lat="46.15613510" lon="6.00228002"><ele></ele><time>2014-10-8T8:57:30Z</time></trkpt>
<trkpt lat="46.15615899" lon="6.00234247"><ele></ele><time>2014-10-8T8:57:33Z</time></trkpt>
<trkpt lat="46.15618229" lon="6.00240299"><ele></ele><time>2014-10-8T8:57:36Z</time></trkpt>
<trkpt lat="46.15620576" lon="6.00245990"><ele></ele><time>2014-10-8T8:57:39Z</time></trkpt>
<trkpt lat="46.15622872" lon="6.00251396"><ele></ele><time>2014-10-8T8:57:42Z</time></trkpt>
<trkpt lat="46.15625052" lon="6.00256618"><ele></ele><time>2014-10-8T8:57:45Z</time></trkpt>
<trkpt lat="46.15627382" lon="6.00261932"><ele></ele><time>2014-10-8T8:57:48Z</time></trkpt>
<trkpt lat="46.15630148" lon="6.00267204"><ele></ele><time>2014-10-8T8:57:51Z</time></trkpt>
<trkpt lat="46.15633182" lon="6.00272326"><ele></ele><time>2014-10-8T8:57:54Z</time></trkpt>
<trkpt lat="46.15636032" lon="6.00277849"><ele></ele><time>2014-10-8T8:57:57Z</time></trkpt>
<trkpt lat="46.15638404" lon="6.00283968"><ele></ele><time>2014-10-8T8:58:0Z</time></trkpt>
<trkpt lat="46.15640424" lon="6.00290456"><ele></ele><time>2014-10-8T8:58:3Z</time></trkpt>
<trkpt lat="46.15642352" lon="6.00297036"><ele></ele><time>2014-10-8T8:58:6Z</time></trkpt>
<trkpt lat="46.15644322" lon="6.00303565"><ele></ele><time>2014-10-8T8:58:9Z</time></trkpt>
<trkpt lat="46.15646618" lon="6.00309835"><ele></ele><time>2014-10-8T8:58:12Z</time></trkpt>
<trkpt lat="46.15649183" lon="6.00315895"><ele></ele><time>2014-10-8T8:58:15Z</time></trkpt>
<trkpt lat="46.15651807" lon="6.00321989"><ele></ele><time>2014-10-8T8:58:18Z</time></trkpt>
<trkpt lat="46.15654506" lon="6.00328166"><ele></ele><time>2014-10-8T8:58:21Z</time></trkpt>
<trkpt lat="46.15657230" lon="6.00334452"><ele></ele><time>2014-10-8T8:58:24Z</time></trkpt>
<trkpt lat="46.15659988" lon="6.00340764"><ele></ele><time>2014-10-8T8:58:27Z</time></trkpt>
<trkpt lat="46.15662762" lon="6.00347034"><ele></ele><time>2014-10-8T8:58:30Z</time></trkpt>
<trkpt lat="46.15665453" lon="6.00353329"><ele></ele><time>2014-10-8T8:58:33Z</time></trkpt>
<trkpt lat="46.15668026" lon="6.00359632"><ele></ele><time>2014-10-8T8:58:36Z</time></trkpt>
<trkpt lat="46.15670557" lon="6.00365943"><ele></ele><time>2014-10-8T8:58:39Z</time></trkpt>
<trkpt lat="46.15673147" lon="6.00372146"><ele></ele><time>2014-10-8T8:58:42Z</time></trkpt>
<trkpt lat="46.15675754" lon="6.00378290"><ele></ele><time>2014-10-8T8:58:45Z</time></trkpt>
<trkpt lat="46.15678344" lon="6.00384459"><ele></ele><time>2014-10-8T8:58:48Z</time></trkpt>
<trkpt lat="46.15680917" lon="6.00390628"><ele></ele><time>2014-10-8T8:58:51Z</time></trkpt>
<trkpt lat="46.15683516" lon="6.00396814"><ele></ele><time>2014-10-8T8:58:54Z</time></trkpt>
<trkpt lat="46.15686139" lon="6.00402983"><ele></ele><time>2014-10-8T8:58:57Z</time></trkpt>
<trkpt lat="46.15688846" lon="6.00409077"><ele></ele><time>2014-10-8T8:59:0Z</time></trkpt>
<trkpt lat="46.15691562" lon="6.00415120"><ele></ele><time>2014-10-8T8:59:3Z</time></trkpt>
<trkpt lat="46.15694236" lon="6.00421306"><ele></ele><time>2014-10-8T8:59:6Z</time></trkpt>
<trkpt lat="46.15696910" lon="6.00427659"><ele></ele><time>2014-10-8T8:59:9Z</time></trkpt>
<trkpt lat="46.15699634" lon="6.00434138"><ele></ele><time>2014-10-8T8:59:12Z</time></trkpt>
<trkpt lat="46.15702417" lon="6.00440676"><ele></ele><time>2014-10-8T8:59:15Z</time></trkpt>
<trkpt lat="46.15705208" lon="6.00447147"><ele></ele><time>2014-10-8T8:59:18Z</time></trkpt>
<trkpt lat="46.15707949" lon="6.00453593"><ele></ele><time>2014-10-8T8:59:21Z</time></trkpt>
<trkpt lat="46.15710698" lon="6.00460039"><ele></ele><time>2014-10-8T8:59:24Z</time></trkpt>
<trkpt lat="46.15713439" lon="6.00466476"><ele></ele><time>2014-10-8T8:59:27Z</time></trkpt>
<trkpt lat="46.15716155" lon="6.00472938"><ele></ele><time>2014-10-8T8:59:30Z</time></trkpt>
<trkpt lat="46.15718912" lon="6.00479367"><ele></ele><time>2014-10-8T8:59:33Z</time></trkpt>
<trkpt lat="46.15721754" lon="6.00485788"><ele></ele><time>2014-10-8T8:59:36Z</time></trkpt>
<trkpt lat="46.15724537" lon="6.00492200"><ele></ele><time>2014-10-8T8:59:39Z</time></trkpt>
<trkpt lat="46.15727336" lon="6.00498696"><ele></ele><time>2014-10-8T8:59:42Z</time></trkpt>
<trkpt lat="46.15730127" lon="6.00505284"><ele></ele><time>2014-10-8T8:59:45Z</time></trkpt>
<trkpt lat="46.15732918" lon="6.00511956"><ele></ele><time>2014-10-8T8:59:48Z</time></trkpt>
<trkpt lat="46.15735768" lon="6.00518695"><ele></ele><time>2014-10-8T8:59:51Z</time></trkpt>
<trkpt lat="46.15738618" lon="6.00525409"><ele></ele><time>2014-10-8T8:59:54Z</time></trkpt>
<trkpt lat="46.15741443" lon="6.00532106"><ele></ele><time>2014-10-8T8:59:57Z</time></trkpt>
<trkpt lat="46.15744318" lon="6.00538812"><ele></ele><time>2014-10-8T9:0:0Z</time></trkpt>
<trkpt lat="46.15747193" lon="6.00545517"><ele></ele><time>2014-10-8T9:0:3Z</time></trkpt>
<trkpt lat="46.15750068" lon="6.00552198"><ele></ele><time>2014-10-8T9:0:6Z</time></trkpt>
<trkpt lat="46.15752960" lon="6.00558853"><ele></ele><time>2014-10-8T9:0:9Z</time></trkpt>
<trkpt lat="46.15755835" lon="6.00565500"><ele></ele><time>2014-10-8T9:0:12Z</time></trkpt>
<trkpt lat="46.15758668" lon="6.00572163"><ele></ele><time>2014-10-8T9:0:15Z</time></trkpt>
<trkpt lat="46.15761484" lon="6.00578827"><ele></ele><time>2014-10-8T9:0:18Z</time></trkpt>
<trkpt lat="46.15764242" lon="6.00585289"><ele></ele><time>2014-10-8T9:0:21Z</time></trkpt>
<trkpt lat="46.15767033" lon="6.00591676"><ele></ele><time>2014-10-8T9:0:24Z</time></trkpt>
<trkpt lat="46.15769782" lon="6.00598088"><ele></ele><time>2014-10-8T9:0:27Z</time></trkpt>
<trkpt lat="46.15772506" lon="6.00604492"><ele></ele><time>2014-10-8T9:0:30Z</time></trkpt>
<trkpt lat="46.15775272" lon="6.00610997"><ele></ele><time>2014-10-8T9:0:33Z</time></trkpt>
<trkpt lat="46.15778030" lon="6.00617467"><ele></ele><time>2014-10-8T9:0:36Z</time></trkpt>
<trkpt lat="46.15780779" lon="6.00623938"><ele></ele><time>2014-10-8T9:0:39Z</time></trkpt>
<trkpt lat="46.15783562" lon="6.00630384"><ele></ele><time>2014-10-8T9:0:42Z</time></trkpt>
<trkpt lat="46.15786378" lon="6.00636880"><ele></ele><time>2014-10-8T9:0:45Z</time></trkpt>
<trkpt lat="46.15789178" lon="6.00643426"><ele></ele><time>2014-10-8T9:0:48Z</time></trkpt>
<trkpt lat="46.15791977" lon="6.00649998"><ele></ele><time>2014-10-8T9:0:51Z</time></trkpt>
<trkpt lat="46.15794819" lon="6.00656619"><ele></ele><time>2014-10-8T9:0:54Z</time></trkpt>
<trkpt lat="46.15797627" lon="6.00663249"><ele></ele><time>2014-10-8T9:0:57Z</time></trkpt>
<trkpt lat="46.15800326" lon="6.00669695"><ele></ele><time>2014-10-8T9:1:0Z</time></trkpt>
<trkpt lat="46.15803192" lon="6.00676250"><ele></ele><time>2014-10-8T9:1:3Z</time></trkpt>
<trkpt lat="46.15806042" lon="6.00682754"><ele></ele><time>2014-10-8T9:1:6Z</time></trkpt>
<trkpt lat="46.15808833" lon="6.00689292"><ele></ele><time>2014-10-8T9:1:9Z</time></trkpt>
<trkpt lat="46.15811625" lon="6.00695847"><ele></ele><time>2014-10-8T9:1:12Z</time></trkpt>
<trkpt lat="46.15814474" lon="6.00702368"><ele></ele><time>2014-10-8T9:1:15Z</time></trkpt>
<trkpt lat="46.15817274" lon="6.00708813"><ele></ele><time>2014-10-8T9:1:18Z</time></trkpt>
<trkpt lat="46.15820048" lon="6.00715309"><ele></ele><time>2014-10-8T9:1:21Z</time></trkpt>
<trkpt lat="46.15822806" lon="6.00721864"><ele></ele><time>2014-10-8T9:1:24Z</time></trkpt>
<trkpt lat="46.15825547" lon="6.00728486"><ele></ele><time>2014-10-8T9:1:27Z</time></trkpt>
<trkpt lat="46.15828338" lon="6.00735149"><ele></ele><time>2014-10-8T9:1:30Z</time></trkpt>
<trkpt lat="46.15831163" lon="6.00741754"><ele></ele><time>2014-10-8T9:1:33Z</time></trkpt>
<trkpt lat="46.15833996" lon="6.00748292"><ele></ele><time>2014-10-8T9:1:36Z</time></trkpt>
<trkpt lat="46.15836787" lon="6.00754805"><ele></ele><time>2014-10-8T9:1:39Z</time></trkpt>
<trkpt lat="46.15839553" lon="6.00761309"><ele></ele><time>2014-10-8T9:1:42Z</time></trkpt>
<trkpt lat="46.15842302" lon="6.00767763"><ele></ele><time>2014-10-8T9:1:45Z</time></trkpt>
<trkpt lat="46.15845068" lon="6.00774234"><ele></ele><time>2014-10-8T9:1:48Z</time></trkpt>
<trkpt lat="46.15847968" lon="6.00780772"><ele></ele><time>2014-10-8T9:1:51Z</time></trkpt>
<trkpt lat="46.15850885" lon="6.00787318"><ele></ele><time>2014-10-8T9:1:54Z</time></trkpt>
<trkpt lat="46.15853727" lon="6.00793932"><ele></ele><time>2014-10-8T9:1:57Z</time></trkpt>
<trkpt lat="46.15856535" lon="6.00800587"><ele></ele><time>2014-10-8T9:2:0Z</time></trkpt>
<trkpt lat="46.15859334" lon="6.00807234"><ele></ele><time>2014-10-8T9:2:3Z</time></trkpt>
<trkpt lat="46.15862126" lon="6.00813914"><ele></ele><time>2014-10-8T9:2:6Z</time></trkpt>
<trkpt lat="46.15864942" lon="6.00820569"><ele></ele><time>2014-10-8T9:2:9Z</time></trkpt>
<trkpt lat="46.15867725" lon="6.00827057"><ele></ele><time>2014-10-8T9:2:12Z</time></trkpt>
<trkpt lat="46.15870474" lon="6.00833586"><ele></ele><time>2014-10-8T9:2:15Z</time></trkpt>
<trkpt lat="46.15873248" lon="6.00840124"><ele></ele><time>2014-10-8T9:2:18Z</time></trkpt>
<trkpt lat="46.15876023" lon="6.00846637"><ele></ele><time>2014-10-8T9:2:21Z</time></trkpt>
<trkpt lat="46.15878772" lon="6.00853116"><ele></ele><time>2014-10-8T9:2:24Z</time></trkpt>
<trkpt lat="46.15881546" lon="6.00859562"><ele></ele><time>2014-10-8T9:2:27Z</time></trkpt>
<trkpt lat="46.15884296" lon="6.00866058"><ele></ele><time>2014-10-8T9:2:30Z</time></trkpt>
<trkpt lat="46.15887045" lon="6.00872629"><ele></ele><time>2014-10-8T9:2:33Z</time></trkpt>
<trkpt lat="46.15889786" lon="6.00879134"><ele></ele><time>2014-10-8T9:2:36Z</time></trkpt>
<trkpt lat="46.15892535" lon="6.00885579"><ele></ele><time>2014-10-8T9:2:39Z</time></trkpt>
<trkpt lat="46.15895293" lon="6.00891975"><ele></ele><time>2014-10-8T9:2:42Z</time></trkpt>
<trkpt lat="46.15898076" lon="6.00898337"><ele></ele><time>2014-10-8T9:2:45Z</time></trkpt>
<trkpt lat="46.15900875" lon="6.00904682"><ele></ele><time>2014-10-8T9:2:48Z</time></trkpt>
<trkpt lat="46.15903649" lon="6.00911127"><ele></ele><time>2014-10-8T9:2:51Z</time></trkpt>
<trkpt lat="46.15906407" lon="6.00917548"><ele></ele><time>2014-10-8T9:2:54Z</time></trkpt>
<trkpt lat="46.15909140" lon="6.00923943"><ele></ele><time>2014-10-8T9:2:57Z</time></trkpt>
<trkpt lat="46.15911813" lon="6.00930347"><ele></ele><time>2014-10-8T9:3:0Z</time></trkpt>
<trkpt lat="46.15914496" lon="6.00936709"><ele></ele><time>2014-10-8T9:3:3Z</time></trkpt>
<trkpt lat="46.15917228" lon="6.00943062"><ele></ele><time>2014-10-8T9:3:6Z</time></trkpt>
<trkpt lat="46.15919977" lon="6.00949483"><ele></ele><time>2014-10-8T9:3:9Z</time></trkpt>
<trkpt lat="46.15922769" lon="6.00955937"><ele></ele><time>2014-10-8T9:3:12Z</time></trkpt>
<trkpt lat="46.15925560" lon="6.00962332"><ele></ele><time>2014-10-8T9:3:15Z</time></trkpt>
<trkpt lat="46.15928284" lon="6.00968694"><ele></ele><time>2014-10-8T9:3:18Z</time></trkpt>
<trkpt lat="46.15931008" lon="6.00975039"><ele></ele><time>2014-10-8T9:3:21Z</time></trkpt>
<trkpt lat="46.15933707" lon="6.00981410"><ele></ele><time>2014-10-8T9:3:24Z</time></trkpt>
<trkpt lat="46.15936398" lon="6.00987713"><ele></ele><time>2014-10-8T9:3:27Z</time></trkpt>
<trkpt lat="46.15939097" lon="6.00993966"><ele></ele><time>2014-10-8T9:3:30Z</time></trkpt>
<trkpt lat="46.15941804" lon="6.01000277"><ele></ele><time>2014-10-8T9:3:33Z</time></trkpt>
<trkpt lat="46.15944528" lon="6.01006606"><ele></ele><time>2014-10-8T9:3:36Z</time></trkpt>
<trkpt lat="46.15947244" lon="6.01012976"><ele></ele><time>2014-10-8T9:3:39Z</time></trkpt>
<trkpt lat="46.15949926" lon="6.01019355"><ele></ele><time>2014-10-8T9:3:42Z</time></trkpt>
<trkpt lat="46.15952633" lon="6.01025708"><ele></ele><time>2014-10-8T9:3:45Z</time></trkpt>
<trkpt lat="46.15955399" lon="6.01032070"><ele></ele><time>2014-10-8T9:3:48Z</time></trkpt>
<trkpt lat="46.15958123" lon="6.01038415"><ele></ele><time>2014-10-8T9:3:51Z</time></trkpt>
<trkpt lat="46.15960873" lon="6.01044743"><ele></ele><time>2014-10-8T9:3:54Z</time></trkpt>
<trkpt lat="46.15963656" lon="6.01051105"><ele></ele><time>2014-10-8T9:3:57Z</time></trkpt>
<trkpt lat="46.15966346" lon="6.01057517"><ele></ele><time>2014-10-8T9:4:0Z</time></trkpt>
<trkpt lat="46.15969003" lon="6.01063896"><ele></ele><time>2014-10-8T9:4:3Z</time></trkpt>
<trkpt lat="46.15971727" lon="6.01070233"><ele></ele><time>2014-10-8T9:4:6Z</time></trkpt>
<trkpt lat="46.15974468" lon="6.01076603"><ele></ele><time>2014-10-8T9:4:9Z</time></trkpt>
<trkpt lat="46.15977209" lon="6.01082990"><ele></ele><time>2014-10-8T9:4:12Z</time></trkpt>
<trkpt lat="46.15979933" lon="6.01089369"><ele></ele><time>2014-10-8T9:4:15Z</time></trkpt>
<trkpt lat="46.15982716" lon="6.01095722"><ele></ele><time>2014-10-8T9:4:18Z</time></trkpt>
<trkpt lat="46.15985432" lon="6.01102042"><ele></ele><time>2014-10-8T9:4:21Z</time></trkpt>
<trkpt lat="46.15988139" lon="6.01108404"><ele></ele><time>2014-10-8T9:4:24Z</time></trkpt>
<trkpt lat="46.15990796" lon="6.01114724"><ele></ele><time>2014-10-8T9:4:27Z</time></trkpt>
<trkpt lat="46.15993487" lon="6.01121027"><ele></ele><time>2014-10-8T9:4:30Z</time></trkpt>
<trkpt lat="46.15996236" lon="6.01127422"><ele></ele><time>2014-10-8T9:4:33Z</time></trkpt>
<trkpt lat="46.15998994" lon="6.01133868"><ele></ele><time>2014-10-8T9:4:36Z</time></trkpt>
<trkpt lat="46.16001793" lon="6.01140347"><ele></ele><time>2014-10-8T9:4:39Z</time></trkpt>
<trkpt lat="46.16004593" lon="6.01146902"><ele></ele><time>2014-10-8T9:4:42Z</time></trkpt>
<trkpt lat="46.16007367" lon="6.01153465"><ele></ele><time>2014-10-8T9:4:45Z</time></trkpt>
<trkpt lat="46.16010183" lon="6.01159927"><ele></ele><time>2014-10-8T9:4:48Z</time></trkpt>
<trkpt lat="46.16013067" lon="6.01166340"><ele></ele><time>2014-10-8T9:4:51Z</time></trkpt>
<trkpt lat="46.16015866" lon="6.01172836"><ele></ele><time>2014-10-8T9:4:54Z</time></trkpt>
<trkpt lat="46.16018666" lon="6.01179399"><ele></ele><time>2014-10-8T9:4:57Z</time></trkpt>
<trkpt lat="46.16021533" lon="6.01186012"><ele></ele><time>2014-10-8T9:5:0Z</time></trkpt>
<trkpt lat="46.16024424" lon="6.01192717"><ele></ele><time>2014-10-8T9:5:3Z</time></trkpt>
<trkpt lat="46.16027308" lon="6.01199448"><ele></ele><time>2014-10-8T9:5:6Z</time></trkpt>
<trkpt lat="46.16030199" lon="6.01206145"><ele></ele><time>2014-10-8T9:5:9Z</time></trkpt>
<trkpt lat="46.16033058" lon="6.01212834"><ele></ele><time>2014-10-8T9:5:12Z</time></trkpt>
<trkpt lat="46.16035908" lon="6.01219556"><ele></ele><time>2014-10-8T9:5:15Z</time></trkpt>
<trkpt lat="46.16038757" lon="6.01226253"><ele></ele><time>2014-10-8T9:5:18Z</time></trkpt>
<trkpt lat="46.16041624" lon="6.01233009"><ele></ele><time>2014-10-8T9:5:21Z</time></trkpt>
<trkpt lat="46.16044516" lon="6.01239807"><ele></ele><time>2014-10-8T9:5:24Z</time></trkpt>
<trkpt lat="46.16047382" lon="6.01246580"><ele></ele><time>2014-10-8T9:5:27Z</time></trkpt>
<trkpt lat="46.16050207" lon="6.01253344"><ele></ele><time>2014-10-8T9:5:30Z</time></trkpt>
<trkpt lat="46.16053099" lon="6.01260133"><ele></ele><time>2014-10-8T9:5:33Z</time></trkpt>
<trkpt lat="46.16056016" lon="6.01266914"><ele></ele><time>2014-10-8T9:5:36Z</time></trkpt>
<trkpt lat="46.16058958" lon="6.01273779"><ele></ele><time>2014-10-8T9:5:39Z</time></trkpt>
<trkpt lat="46.16061866" lon="6.01280702"><ele></ele><time>2014-10-8T9:5:42Z</time></trkpt>
<trkpt lat="46.16064800" lon="6.01287676"><ele></ele><time>2014-10-8T9:5:45Z</time></trkpt>
<trkpt lat="46.16067776" lon="6.01294675"><ele></ele><time>2014-10-8T9:5:48Z</time></trkpt>
<trkpt lat="46.16070810" lon="6.01301674"><ele></ele><time>2014-10-8T9:5:51Z</time></trkpt>
<trkpt lat="46.16073827" lon="6.01308689"><ele></ele><time>2014-10-8T9:5:54Z</time></trkpt>
<trkpt lat="46.16076820" lon="6.01315722"><ele></ele><time>2014-10-8T9:5:57Z</time></trkpt>
<trkpt lat="46.16079753" lon="6.01322763"><ele></ele><time>2014-10-8T9:6:0Z</time></trkpt>
<trkpt lat="46.16082704" lon="6.01329795"><ele></ele><time>2014-10-8T9:6:3Z</time></trkpt>
<trkpt lat="46.16085637" lon="6.01336702"><ele></ele><time>2014-10-8T9:6:6Z</time></trkpt>
<trkpt lat="46.16088722" lon="6.01343499"><ele></ele><time>2014-10-8T9:6:9Z</time></trkpt>
<trkpt lat="46.16091773" lon="6.01350146"><ele></ele><time>2014-10-8T9:6:12Z</time></trkpt>
<trkpt lat="46.16094665" lon="6.01356894"><ele></ele><time>2014-10-8T9:6:15Z</time></trkpt>
<trkpt lat="46.16097498" lon="6.01363566"><ele></ele><time>2014-10-8T9:6:18Z</time></trkpt>
<trkpt lat="46.16100289" lon="6.01370255"><ele></ele><time>2014-10-8T9:6:21Z</time></trkpt>
<trkpt lat="46.16103072" lon="6.01376818"><ele></ele><time>2014-10-8T9:6:24Z</time></trkpt>
<trkpt lat="46.16105930" lon="6.01383305"><ele></ele><time>2014-10-8T9:6:27Z</time></trkpt>
<trkpt lat="46.16108662" lon="6.01389818"><ele></ele><time>2014-10-8T9:6:30Z</time></trkpt>
<trkpt lat="46.16111378" lon="6.01396255"><ele></ele><time>2014-10-8T9:6:33Z</time></trkpt>
<trkpt lat="46.16114119" lon="6.01402558"><ele></ele><time>2014-10-8T9:6:36Z</time></trkpt>
<trkpt lat="46.16116835" lon="6.01408887"><ele></ele><time>2014-10-8T9:6:39Z</time></trkpt>
<trkpt lat="46.16119475" lon="6.01415316"><ele></ele><time>2014-10-8T9:6:42Z</time></trkpt>
<trkpt lat="46.16122132" lon="6.01421753"><ele></ele><time>2014-10-8T9:6:45Z</time></trkpt>
<trkpt lat="46.16124873" lon="6.01428157"><ele></ele><time>2014-10-8T9:6:48Z</time></trkpt>
<trkpt lat="46.16127647" lon="6.01434502"><ele></ele><time>2014-10-8T9:6:51Z</time></trkpt>
<trkpt lat="46.16130346" lon="6.01440914"><ele></ele><time>2014-10-8T9:6:54Z</time></trkpt>
<trkpt lat="46.16133062" lon="6.01447360"><ele></ele><time>2014-10-8T9:6:57Z</time></trkpt>
<trkpt lat="46.16135904" lon="6.01453763"><ele></ele><time>2014-10-8T9:7:0Z</time></trkpt>
<trkpt lat="46.16138737" lon="6.01460226"><ele></ele><time>2014-10-8T9:7:3Z</time></trkpt>
<trkpt lat="46.16141452" lon="6.01466722"><ele></ele><time>2014-10-8T9:7:6Z</time></trkpt>
<trkpt lat="46.16144177" lon="6.01473184"><ele></ele><time>2014-10-8T9:7:9Z</time></trkpt>
<trkpt lat="46.16146959" lon="6.01479588"><ele></ele><time>2014-10-8T9:7:12Z</time></trkpt>
<trkpt lat="46.16149675" lon="6.01486017"><ele></ele><time>2014-10-8T9:7:15Z</time></trkpt>
<trkpt lat="46.16152475" lon="6.01492429"><ele></ele><time>2014-10-8T9:7:18Z</time></trkpt>
<trkpt lat="46.16155274" lon="6.01498883"><ele></ele><time>2014-10-8T9:7:21Z</time></trkpt>
<trkpt lat="46.16158057" lon="6.01505354"><ele></ele><time>2014-10-8T9:7:24Z</time></trkpt>
<trkpt lat="46.16160857" lon="6.01511758"><ele></ele><time>2014-10-8T9:7:27Z</time></trkpt>
<trkpt lat="46.16163648" lon="6.01518120"><ele></ele><time>2014-10-8T9:7:30Z</time></trkpt>
<trkpt lat="46.16166397" lon="6.01524549"><ele></ele><time>2014-10-8T9:7:33Z</time></trkpt>
<trkpt lat="46.16169163" lon="6.01531003"><ele></ele><time>2014-10-8T9:7:36Z</time></trkpt>
<trkpt lat="46.16171904" lon="6.01537507"><ele></ele><time>2014-10-8T9:7:39Z</time></trkpt>
<trkpt lat="46.16174636" lon="6.01544129"><ele></ele><time>2014-10-8T9:7:42Z</time></trkpt>
<trkpt lat="46.16177402" lon="6.01550415"><ele></ele><time>2014-10-8T9:7:45Z</time></trkpt>
<trkpt lat="46.16180143" lon="6.01556668"><ele></ele><time>2014-10-8T9:7:48Z</time></trkpt>
<trkpt lat="46.16182884" lon="6.01562929"><ele></ele><time>2014-10-8T9:7:51Z</time></trkpt>
<trkpt lat="46.16185709" lon="6.01569107"><ele></ele><time>2014-10-8T9:7:54Z</time></trkpt>
<trkpt lat="46.16188517" lon="6.01575326"><ele></ele><time>2014-10-8T9:7:57Z</time></trkpt>
<trkpt lat="46.16191274" lon="6.01581587"><ele></ele><time>2014-10-8T9:8:0Z</time></trkpt>
<trkpt lat="46.16193973" lon="6.01587874"><ele></ele><time>2014-10-8T9:8:3Z</time></trkpt>
<trkpt lat="46.16196706" lon="6.01594043"><ele></ele><time>2014-10-8T9:8:6Z</time></trkpt>
<trkpt lat="46.16199464" lon="6.01600204"><ele></ele><time>2014-10-8T9:8:9Z</time></trkpt>
<trkpt lat="46.16202188" lon="6.01606390"><ele></ele><time>2014-10-8T9:8:12Z</time></trkpt>
<trkpt lat="46.16204778" lon="6.01612894"><ele></ele><time>2014-10-8T9:8:15Z</time></trkpt>
<trkpt lat="46.16207862" lon="6.01618476"><ele></ele><time>2014-10-8T9:8:18Z</time></trkpt>
<trkpt lat="46.16210653" lon="6.01624612"><ele></ele><time>2014-10-8T9:8:21Z</time></trkpt>
<trkpt lat="46.16213436" lon="6.01630948"><ele></ele><time>2014-10-8T9:8:24Z</time></trkpt>
<trkpt lat="46.16216152" lon="6.01637428"><ele></ele><time>2014-10-8T9:8:27Z</time></trkpt>
<trkpt lat="46.16218943" lon="6.01643798"><ele></ele><time>2014-10-8T9:8:30Z</time></trkpt>
<trkpt lat="46.16221810" lon="6.01650059"><ele></ele><time>2014-10-8T9:8:33Z</time></trkpt>
<trkpt lat="46.16224618" lon="6.01656488"><ele></ele><time>2014-10-8T9:8:36Z</time></trkpt>
<trkpt lat="46.16227317" lon="6.01663118"><ele></ele><time>2014-10-8T9:8:39Z</time></trkpt>
<trkpt lat="46.16230024" lon="6.01669706"><ele></ele><time>2014-10-8T9:8:42Z</time></trkpt>
<trkpt lat="46.16232849" lon="6.01676253"><ele></ele><time>2014-10-8T9:8:45Z</time></trkpt>
<trkpt lat="46.16235699" lon="6.01682774"><ele></ele><time>2014-10-8T9:8:48Z</time></trkpt>
<trkpt lat="46.16238523" lon="6.01689278"><ele></ele><time>2014-10-8T9:8:51Z</time></trkpt>
<trkpt lat="46.16241306" lon="6.01695774"><ele></ele><time>2014-10-8T9:8:54Z</time></trkpt>
<trkpt lat="46.16244055" lon="6.01702245"><ele></ele><time>2014-10-8T9:8:57Z</time></trkpt>
<trkpt lat="46.16246796" lon="6.01708707"><ele></ele><time>2014-10-8T9:9:0Z</time></trkpt>
<trkpt lat="46.16249554" lon="6.01715128"><ele></ele><time>2014-10-8T9:9:3Z</time></trkpt>
<trkpt lat="46.16252253" lon="6.01721548"><ele></ele><time>2014-10-8T9:9:6Z</time></trkpt>
<trkpt lat="46.16255027" lon="6.01728246"><ele></ele><time>2014-10-8T9:9:9Z</time></trkpt>
<trkpt lat="46.16257827" lon="6.01734725"><ele></ele><time>2014-10-8T9:9:12Z</time></trkpt>
<trkpt lat="46.16260559" lon="6.01741145"><ele></ele><time>2014-10-8T9:9:15Z</time></trkpt>
<trkpt lat="46.16263216" lon="6.01747474"><ele></ele><time>2014-10-8T9:9:18Z</time></trkpt>
<trkpt lat="46.16265924" lon="6.01753584"><ele></ele><time>2014-10-8T9:9:21Z</time></trkpt>
<trkpt lat="46.16268815" lon="6.01759057"><ele></ele><time>2014-10-8T9:9:24Z</time></trkpt>
<trkpt lat="46.16272202" lon="6.01763718"><ele></ele><time>2014-10-8T9:9:27Z</time></trkpt>
<trkpt lat="46.16276007" lon="6.01766953"><ele></ele><time>2014-10-8T9:9:30Z</time></trkpt>
<trkpt lat="46.16279762" lon="6.01768873"><ele></ele><time>2014-10-8T9:9:33Z</time></trkpt>
<trkpt lat="46.16282704" lon="6.01769904"><ele></ele><time>2014-10-8T9:9:36Z</time></trkpt>
<trkpt lat="46.16284548" lon="6.01770826"><ele></ele><time>2014-10-8T9:9:39Z</time></trkpt>
<trkpt lat="46.16285898" lon="6.01771806"><ele></ele><time>2014-10-8T9:9:42Z</time></trkpt>
<trkpt lat="46.16287155" lon="6.01773508"><ele></ele><time>2014-10-8T9:9:45Z</time></trkpt>
<trkpt lat="46.16288840" lon="6.01776349"><ele></ele><time>2014-10-8T9:9:48Z</time></trkpt>
<trkpt lat="46.16290877" lon="6.01780146"><ele></ele><time>2014-10-8T9:9:51Z</time></trkpt>
<trkpt lat="46.16292737" lon="6.01785276"><ele></ele><time>2014-10-8T9:9:54Z</time></trkpt>
<trkpt lat="46.16293525" lon="6.01791663"><ele></ele><time>2014-10-8T9:9:57Z</time></trkpt>
<trkpt lat="46.16293324" lon="6.01798746"><ele></ele><time>2014-10-8T9:10:0Z</time></trkpt>
<trkpt lat="46.16293265" lon="6.01806063"><ele></ele><time>2014-10-8T9:10:3Z</time></trkpt>
<trkpt lat="46.16294204" lon="6.01813423"><ele></ele><time>2014-10-8T9:10:6Z</time></trkpt>
<trkpt lat="46.16296316" lon="6.01820379"><ele></ele><time>2014-10-8T9:10:9Z</time></trkpt>
<trkpt lat="46.16299074" lon="6.01827043"><ele></ele><time>2014-10-8T9:10:12Z</time></trkpt>
<trkpt lat="46.16301882" lon="6.01833598"><ele></ele><time>2014-10-8T9:10:15Z</time></trkpt>
<trkpt lat="46.16304732" lon="6.01840270"><ele></ele><time>2014-10-8T9:10:18Z</time></trkpt>
<trkpt lat="46.16307607" lon="6.01846967"><ele></ele><time>2014-10-8T9:10:21Z</time></trkpt>
<trkpt lat="46.16310482" lon="6.01853689"><ele></ele><time>2014-10-8T9:10:24Z</time></trkpt>
<trkpt lat="46.16313315" lon="6.01860604"><ele></ele><time>2014-10-8T9:10:27Z</time></trkpt>
<trkpt lat="46.16316307" lon="6.01867712"><ele></ele><time>2014-10-8T9:10:30Z</time></trkpt>
<trkpt lat="46.16319518" lon="6.01875155"><ele></ele><time>2014-10-8T9:10:33Z</time></trkpt>
<trkpt lat="46.16322854" lon="6.01883126"><ele></ele><time>2014-10-8T9:10:36Z</time></trkpt>
<trkpt lat="46.16326332" lon="6.01891483"><ele></ele><time>2014-10-8T9:10:39Z</time></trkpt>
<trkpt lat="46.16329878" lon="6.01900209"><ele></ele><time>2014-10-8T9:10:42Z</time></trkpt>
<trkpt lat="46.16333306" lon="6.01909286"><ele></ele><time>2014-10-8T9:10:45Z</time></trkpt>
<trkpt lat="46.16336684" lon="6.01918548"><ele></ele><time>2014-10-8T9:10:48Z</time></trkpt>
<trkpt lat="46.16340229" lon="6.01927735"><ele></ele><time>2014-10-8T9:10:51Z</time></trkpt>
<trkpt lat="46.16344026" lon="6.01936729"><ele></ele><time>2014-10-8T9:10:54Z</time></trkpt>
<trkpt lat="46.16347932" lon="6.01945672"><ele></ele><time>2014-10-8T9:10:57Z</time></trkpt>
<trkpt lat="46.16351830" lon="6.01954674"><ele></ele><time>2014-10-8T9:11:0Z</time></trkpt>
<trkpt lat="46.16355686" lon="6.01963727"><ele></ele><time>2014-10-8T9:11:3Z</time></trkpt>
<trkpt lat="46.16359600" lon="6.01972712"><ele></ele><time>2014-10-8T9:11:6Z</time></trkpt>
<trkpt lat="46.16363388" lon="6.01981865"><ele></ele><time>2014-10-8T9:11:9Z</time></trkpt>
<trkpt lat="46.16367227" lon="6.01990817"><ele></ele><time>2014-10-8T9:11:12Z</time></trkpt>
<trkpt lat="46.16371125" lon="6.01999543"><ele></ele><time>2014-10-8T9:11:15Z</time></trkpt>
<trkpt lat="46.16375014" lon="6.02008218"><ele></ele><time>2014-10-8T9:11:18Z</time></trkpt>
<trkpt lat="46.16378836" lon="6.02016944"><ele></ele><time>2014-10-8T9:11:21Z</time></trkpt>
<trkpt lat="46.16382575" lon="6.02025753"><ele></ele><time>2014-10-8T9:11:24Z</time></trkpt>
<trkpt lat="46.16386330" lon="6.02034445"><ele></ele><time>2014-10-8T9:11:27Z</time></trkpt>
<trkpt lat="46.16390018" lon="6.02043020"><ele></ele><time>2014-10-8T9:11:30Z</time></trkpt>
<trkpt lat="46.16393597" lon="6.02051427"><ele></ele><time>2014-10-8T9:11:33Z</time></trkpt>
<trkpt lat="46.16397142" lon="6.02059658"><ele></ele><time>2014-10-8T9:11:36Z</time></trkpt>
<trkpt lat="46.16400487" lon="6.02067755"><ele></ele><time>2014-10-8T9:11:39Z</time></trkpt>
<trkpt lat="46.16403806" lon="6.02075416"><ele></ele><time>2014-10-8T9:11:42Z</time></trkpt>
<trkpt lat="46.16406974" lon="6.02082943"><ele></ele><time>2014-10-8T9:11:45Z</time></trkpt>
<trkpt lat="46.16409950" lon="6.02090386"><ele></ele><time>2014-10-8T9:11:48Z</time></trkpt>
<trkpt lat="46.16412775" lon="6.02097653"><ele></ele><time>2014-10-8T9:11:51Z</time></trkpt>
<trkpt lat="46.16415633" lon="6.02104694"><ele></ele><time>2014-10-8T9:11:54Z</time></trkpt>
<trkpt lat="46.16418516" lon="6.02111734"><ele></ele><time>2014-10-8T9:11:57Z</time></trkpt>
<trkpt lat="46.16421525" lon="6.02118893"><ele></ele><time>2014-10-8T9:12:0Z</time></trkpt>
<trkpt lat="46.16424635" lon="6.02126135"><ele></ele><time>2014-10-8T9:12:3Z</time></trkpt>
<trkpt lat="46.16427745" lon="6.02133536"><ele></ele><time>2014-10-8T9:12:6Z</time></trkpt>
<trkpt lat="46.16430947" lon="6.02140945"><ele></ele><time>2014-10-8T9:12:9Z</time></trkpt>
<trkpt lat="46.16434157" lon="6.02148472"><ele></ele><time>2014-10-8T9:12:12Z</time></trkpt>
<trkpt lat="46.16437292" lon="6.02156108"><ele></ele><time>2014-10-8T9:12:15Z</time></trkpt>
<trkpt lat="46.16440443" lon="6.02163685"><ele></ele><time>2014-10-8T9:12:18Z</time></trkpt>
<trkpt lat="46.16443662" lon="6.02171279"><ele></ele><time>2014-10-8T9:12:21Z</time></trkpt>
<trkpt lat="46.16446906" lon="6.02178957"><ele></ele><time>2014-10-8T9:12:24Z</time></trkpt>
<trkpt lat="46.16450124" lon="6.02186702"><ele></ele><time>2014-10-8T9:12:27Z</time></trkpt>
<trkpt lat="46.16453393" lon="6.02194464"><ele></ele><time>2014-10-8T9:12:30Z</time></trkpt>
<trkpt lat="46.16456637" lon="6.02202217"><ele></ele><time>2014-10-8T9:12:33Z</time></trkpt>
<trkpt lat="46.16459814" lon="6.02209937"><ele></ele><time>2014-10-8T9:12:36Z</time></trkpt>
<trkpt lat="46.16462915" lon="6.02217598"><ele></ele><time>2014-10-8T9:12:39Z</time></trkpt>
<trkpt lat="46.16465983" lon="6.02225116"><ele></ele><time>2014-10-8T9:12:42Z</time></trkpt>
<trkpt lat="46.16469059" lon="6.02232509"><ele></ele><time>2014-10-8T9:12:45Z</time></trkpt>
<trkpt lat="46.16472102" lon="6.02239827"><ele></ele><time>2014-10-8T9:12:48Z</time></trkpt>
<trkpt lat="46.16475119" lon="6.02247027"><ele></ele><time>2014-10-8T9:12:51Z</time></trkpt>
<trkpt lat="46.16478120" lon="6.02254126"><ele></ele><time>2014-10-8T9:12:54Z</time></trkpt>
<trkpt lat="46.16481062" lon="6.02261242"><ele></ele><time>2014-10-8T9:12:57Z</time></trkpt>
<trkpt lat="46.16483996" lon="6.02268283"><ele></ele><time>2014-10-8T9:13:0Z</time></trkpt>
<trkpt lat="46.16486963" lon="6.02275056"><ele></ele><time>2014-10-8T9:13:3Z</time></trkpt>
<trkpt lat="46.16489888" lon="6.02281719"><ele></ele><time>2014-10-8T9:13:6Z</time></trkpt>
<trkpt lat="46.16492730" lon="6.02288333"><ele></ele><time>2014-10-8T9:13:9Z</time></trkpt>
<trkpt lat="46.16495538" lon="6.02294904"><ele></ele><time>2014-10-8T9:13:12Z</time></trkpt>
<trkpt lat="46.16498262" lon="6.02301492"><ele></ele><time>2014-10-8T9:13:15Z</time></trkpt>
<trkpt lat="46.16500902" lon="6.02307980"><ele></ele><time>2014-10-8T9:13:18Z</time></trkpt>
<trkpt lat="46.16503668" lon="6.02314535"><ele></ele><time>2014-10-8T9:13:21Z</time></trkpt>
<trkpt lat="46.16506426" lon="6.02321106"><ele></ele><time>2014-10-8T9:13:24Z</time></trkpt>
<trkpt lat="46.16510248" lon="6.02327225"><ele></ele><time>2014-10-8T9:13:27Z</time></trkpt>
<trkpt lat="46.16513743" lon="6.02333494"><ele></ele><time>2014-10-8T9:13:30Z</time></trkpt>
<trkpt lat="46.16516920" lon="6.02339974"><ele></ele><time>2014-10-8T9:13:33Z</time></trkpt>
<trkpt lat="46.16519376" lon="6.02344927"><ele></ele><time>2014-10-8T9:13:36Z</time></trkpt>
<trkpt lat="46.16521773" lon="6.02350443"><ele></ele><time>2014-10-8T9:13:39Z</time></trkpt>
<trkpt lat="46.16523617" lon="6.02356059"><ele></ele><time>2014-10-8T9:13:42Z</time></trkpt>
<trkpt lat="46.16525855" lon="6.02362278"><ele></ele><time>2014-10-8T9:13:45Z</time></trkpt>
<trkpt lat="46.16528076" lon="6.02368958"><ele></ele><time>2014-10-8T9:13:48Z</time></trkpt>
<trkpt lat="46.16530582" lon="6.02375614"><ele></ele><time>2014-10-8T9:13:51Z</time></trkpt>
<trkpt lat="46.16533172" lon="6.02382135"><ele></ele><time>2014-10-8T9:13:54Z</time></trkpt>
<trkpt lat="46.16535620" lon="6.02388354"><ele></ele><time>2014-10-8T9:13:57Z</time></trkpt>
<trkpt lat="46.16537992" lon="6.02394666"><ele></ele><time>2014-10-8T9:14:0Z</time></trkpt>
<trkpt lat="46.16540448" lon="6.02401229"><ele></ele><time>2014-10-8T9:14:3Z</time></trkpt>
<trkpt lat="46.16542837" lon="6.02407507"><ele></ele><time>2014-10-8T9:14:6Z</time></trkpt>
<trkpt lat="46.16545343" lon="6.02413986"><ele></ele><time>2014-10-8T9:14:9Z</time></trkpt>
<trkpt lat="46.16547883" lon="6.02421127"><ele></ele><time>2014-10-8T9:14:12Z</time></trkpt>
<trkpt lat="46.16550406" lon="6.02428210"><ele></ele><time>2014-10-8T9:14:15Z</time></trkpt>
<trkpt lat="46.16552895" lon="6.02435318"><ele></ele><time>2014-10-8T9:14:18Z</time></trkpt>
<trkpt lat="46.16555368" lon="6.02441923"><ele></ele><time>2014-10-8T9:14:21Z</time></trkpt>
<trkpt lat="46.16557748" lon="6.02448519"><ele></ele><time>2014-10-8T9:14:24Z</time></trkpt>
<trkpt lat="46.16560179" lon="6.02454940"><ele></ele><time>2014-10-8T9:14:27Z</time></trkpt>
<trkpt lat="46.16562543" lon="6.02461335"><ele></ele><time>2014-10-8T9:14:30Z</time></trkpt>
<trkpt lat="46.16564940" lon="6.02467722"><ele></ele><time>2014-10-8T9:14:33Z</time></trkpt>
<trkpt lat="46.16567329" lon="6.02473933"><ele></ele><time>2014-10-8T9:14:36Z</time></trkpt>
<trkpt lat="46.16569709" lon="6.02480245"><ele></ele><time>2014-10-8T9:14:39Z</time></trkpt>
<trkpt lat="46.16572115" lon="6.02486615"><ele></ele><time>2014-10-8T9:14:42Z</time></trkpt>
<trkpt lat="46.16574529" lon="6.02493027"><ele></ele><time>2014-10-8T9:14:45Z</time></trkpt>
<trkpt lat="46.16576926" lon="6.02499356"><ele></ele><time>2014-10-8T9:14:48Z</time></trkpt>
<trkpt lat="46.16579533" lon="6.02505382"><ele></ele><time>2014-10-8T9:14:51Z</time></trkpt>
<trkpt lat="46.16582818" lon="6.02510084"><ele></ele><time>2014-10-8T9:14:54Z</time></trkpt>
<trkpt lat="46.16586716" lon="6.02512700"><ele></ele><time>2014-10-8T9:14:57Z</time></trkpt>
<trkpt lat="46.16590664" lon="6.02514284"><ele></ele><time>2014-10-8T9:15:0Z</time></trkpt>
<trkpt lat="46.16594058" lon="6.02517033"><ele></ele><time>2014-10-8T9:15:3Z</time></trkpt>
<trkpt lat="46.16596724" lon="6.02520696"><ele></ele><time>2014-10-8T9:15:6Z</time></trkpt>
<trkpt lat="46.16599138" lon="6.02524962"><ele></ele><time>2014-10-8T9:15:9Z</time></trkpt>
<trkpt lat="46.16600865" lon="6.02529832"><ele></ele><time>2014-10-8T9:15:12Z</time></trkpt>
<trkpt lat="46.16601267" lon="6.02535029"><ele></ele><time>2014-10-8T9:15:15Z</time></trkpt>
<trkpt lat="46.16600487" lon="6.02540527"><ele></ele><time>2014-10-8T9:15:18Z</time></trkpt>
<trkpt lat="46.16599616" lon="6.02546168"><ele></ele><time>2014-10-8T9:15:21Z</time></trkpt>
<trkpt lat="46.16599398" lon="6.02552203"><ele></ele><time>2014-10-8T9:15:24Z</time></trkpt>
<trkpt lat="46.16600286" lon="6.02558364"><ele></ele><time>2014-10-8T9:15:27Z</time></trkpt>
<trkpt lat="46.16602063" lon="6.02564567"><ele></ele><time>2014-10-8T9:15:30Z</time></trkpt>
<trkpt lat="46.16604318" lon="6.02570828"><ele></ele><time>2014-10-8T9:15:33Z</time></trkpt>
<trkpt lat="46.16606715" lon="6.02577198"><ele></ele><time>2014-10-8T9:15:36Z</time></trkpt>
<trkpt lat="46.16609104" lon="6.02583719"><ele></ele><time>2014-10-8T9:15:39Z</time></trkpt>
<trkpt lat="46.16611484" lon="6.02590358"><ele></ele><time>2014-10-8T9:15:42Z</time></trkpt>
<trkpt lat="46.16613907" lon="6.02597047"><ele></ele><time>2014-10-8T9:15:45Z</time></trkpt>
<trkpt lat="46.16616354" lon="6.02603844"><ele></ele><time>2014-10-8T9:15:48Z</time></trkpt>
<trkpt lat="46.16618894" lon="6.02610676"><ele></ele><time>2014-10-8T9:15:51Z</time></trkpt>
<trkpt lat="46.16621417" lon="6.02617482"><ele></ele><time>2014-10-8T9:15:54Z</time></trkpt>
<trkpt lat="46.16623814" lon="6.02624439"><ele></ele><time>2014-10-8T9:15:57Z</time></trkpt>
<trkpt lat="46.16626228" lon="6.02631513"><ele></ele><time>2014-10-8T9:16:0Z</time></trkpt>
<trkpt lat="46.16628743" lon="6.02638495"><ele></ele><time>2014-10-8T9:16:3Z</time></trkpt>
<trkpt lat="46.16631282" lon="6.02645452"><ele></ele><time>2014-10-8T9:16:6Z</time></trkpt>
<trkpt lat="46.16633847" lon="6.02652275"><ele></ele><time>2014-10-8T9:16:9Z</time></trkpt>
<trkpt lat="46.16636404" lon="6.02658972"><ele></ele><time>2014-10-8T9:16:12Z</time></trkpt>
<trkpt lat="46.16638969" lon="6.02665912"><ele></ele><time>2014-10-8T9:16:15Z</time></trkpt>
<trkpt lat="46.16641542" lon="6.02672878"><ele></ele><time>2014-10-8T9:16:18Z</time></trkpt>
<trkpt lat="46.16644124" lon="6.02679835"><ele></ele><time>2014-10-8T9:16:21Z</time></trkpt>
<trkpt lat="46.16646630" lon="6.02686934"><ele></ele><time>2014-10-8T9:16:24Z</time></trkpt>
<trkpt lat="46.16649144" lon="6.02694008"><ele></ele><time>2014-10-8T9:16:27Z</time></trkpt>
<trkpt lat="46.16651659" lon="6.02701133"><ele></ele><time>2014-10-8T9:16:30Z</time></trkpt>
<trkpt lat="46.16654123" lon="6.02708367"><ele></ele><time>2014-10-8T9:16:33Z</time></trkpt>
<trkpt lat="46.16656596" lon="6.02715625"><ele></ele><time>2014-10-8T9:16:36Z</time></trkpt>
<trkpt lat="46.16659094" lon="6.02722867"><ele></ele><time>2014-10-8T9:16:39Z</time></trkpt>
<trkpt lat="46.16661457" lon="6.02730302"><ele></ele><time>2014-10-8T9:16:42Z</time></trkpt>
<trkpt lat="46.16663796" lon="6.02737779"><ele></ele><time>2014-10-8T9:16:45Z</time></trkpt>
<trkpt lat="46.16666126" lon="6.02745222"><ele></ele><time>2014-10-8T9:16:48Z</time></trkpt>
<trkpt lat="46.16668507" lon="6.02752590"><ele></ele><time>2014-10-8T9:16:51Z</time></trkpt>
<trkpt lat="46.16670879" lon="6.02759957"><ele></ele><time>2014-10-8T9:16:54Z</time></trkpt>
<trkpt lat="46.16673267" lon="6.02767250"><ele></ele><time>2014-10-8T9:16:57Z</time></trkpt>
<trkpt lat="46.16675723" lon="6.02774332"><ele></ele><time>2014-10-8T9:17:0Z</time></trkpt>
<trkpt lat="46.16678146" lon="6.02781340"><ele></ele><time>2014-10-8T9:17:3Z</time></trkpt>
<trkpt lat="46.16680509" lon="6.02788204"><ele></ele><time>2014-10-8T9:17:6Z</time></trkpt>
<trkpt lat="46.16682898" lon="6.02795002"><ele></ele><time>2014-10-8T9:17:9Z</time></trkpt>
<trkpt lat="46.16685295" lon="6.02801766"><ele></ele><time>2014-10-8T9:17:12Z</time></trkpt>
<trkpt lat="46.16687642" lon="6.02808522"><ele></ele><time>2014-10-8T9:17:15Z</time></trkpt>
<trkpt lat="46.16689872" lon="6.02815496"><ele></ele><time>2014-10-8T9:17:18Z</time></trkpt>
<trkpt lat="46.16692093" lon="6.02822444"><ele></ele><time>2014-10-8T9:17:21Z</time></trkpt>
<trkpt lat="46.16694314" lon="6.02829468"><ele></ele><time>2014-10-8T9:17:24Z</time></trkpt>
<trkpt lat="46.16696569" lon="6.02836518"><ele></ele><time>2014-10-8T9:17:27Z</time></trkpt>
<trkpt lat="46.16698874" lon="6.02843575"><ele></ele><time>2014-10-8T9:17:30Z</time></trkpt>
<trkpt lat="46.16701196" lon="6.02850675"><ele></ele><time>2014-10-8T9:17:33Z</time></trkpt>
<trkpt lat="46.16703484" lon="6.02857816"><ele></ele><time>2014-10-8T9:17:36Z</time></trkpt>
<trkpt lat="46.16705764" lon="6.02865117"><ele></ele><time>2014-10-8T9:17:39Z</time></trkpt>
<trkpt lat="46.16708362" lon="6.02871847"><ele></ele><time>2014-10-8T9:17:42Z</time></trkpt>
<trkpt lat="46.16710919" lon="6.02878762"><ele></ele><time>2014-10-8T9:17:45Z</time></trkpt>
<trkpt lat="46.16713375" lon="6.02885803"><ele></ele><time>2014-10-8T9:17:48Z</time></trkpt>
<trkpt lat="46.16715713" lon="6.02892894"><ele></ele><time>2014-10-8T9:17:51Z</time></trkpt>
<trkpt lat="46.16718044" lon="6.02900002"><ele></ele><time>2014-10-8T9:17:54Z</time></trkpt>
<trkpt lat="46.16720416" lon="6.02907085"><ele></ele><time>2014-10-8T9:17:57Z</time></trkpt>
<trkpt lat="46.16722754" lon="6.02914176"><ele></ele><time>2014-10-8T9:18:0Z</time></trkpt>
<trkpt lat="46.16725076" lon="6.02921259"><ele></ele><time>2014-10-8T9:18:3Z</time></trkpt>
<trkpt lat="46.16727448" lon="6.02928274"><ele></ele><time>2014-10-8T9:18:6Z</time></trkpt>
<trkpt lat="46.16729795" lon="6.02935315"><ele></ele><time>2014-10-8T9:18:9Z</time></trkpt>
<trkpt lat="46.16732108" lon="6.02942373"><ele></ele><time>2014-10-8T9:18:12Z</time></trkpt>
<trkpt lat="46.16734422" lon="6.02949413"><ele></ele><time>2014-10-8T9:18:15Z</time></trkpt>
<trkpt lat="46.16736727" lon="6.02956446"><ele></ele><time>2014-10-8T9:18:18Z</time></trkpt>
<trkpt lat="46.16739023" lon="6.02963529"><ele></ele><time>2014-10-8T9:18:21Z</time></trkpt>
<trkpt lat="46.16741303" lon="6.02970653"><ele></ele><time>2014-10-8T9:18:24Z</time></trkpt>
<trkpt lat="46.16743600" lon="6.02977837"><ele></ele><time>2014-10-8T9:18:27Z</time></trkpt>
<trkpt lat="46.16745913" lon="6.02985037"><ele></ele><time>2014-10-8T9:18:30Z</time></trkpt>
<trkpt lat="46.16748252" lon="6.02992253"><ele></ele><time>2014-10-8T9:18:33Z</time></trkpt>
<trkpt lat="46.16750666" lon="6.02999445"><ele></ele><time>2014-10-8T9:18:36Z</time></trkpt>
<trkpt lat="46.16753038" lon="6.03006620"><ele></ele><time>2014-10-8T9:18:39Z</time></trkpt>
<trkpt lat="46.16755377" lon="6.03013862"><ele></ele><time>2014-10-8T9:18:42Z</time></trkpt>
<trkpt lat="46.16757707" lon="6.03021129"><ele></ele><time>2014-10-8T9:18:45Z</time></trkpt>
<trkpt lat="46.16760146" lon="6.03028237"><ele></ele><time>2014-10-8T9:18:48Z</time></trkpt>
<trkpt lat="46.16762526" lon="6.03035462"><ele></ele><time>2014-10-8T9:18:51Z</time></trkpt>
<trkpt lat="46.16764907" lon="6.03042779"><ele></ele><time>2014-10-8T9:18:54Z</time></trkpt>
<trkpt lat="46.16767312" lon="6.03050072"><ele></ele><time>2014-10-8T9:18:57Z</time></trkpt>
<trkpt lat="46.16769718" lon="6.03057347"><ele></ele><time>2014-10-8T9:19:0Z</time></trkpt>
<trkpt lat="46.16772098" lon="6.03064598"><ele></ele><time>2014-10-8T9:19:3Z</time></trkpt>
<trkpt lat="46.16774429" lon="6.03071848"><ele></ele><time>2014-10-8T9:19:6Z</time></trkpt>
<trkpt lat="46.16776767" lon="6.03079149"><ele></ele><time>2014-10-8T9:19:9Z</time></trkpt>
<trkpt lat="46.16779123" lon="6.03086416"><ele></ele><time>2014-10-8T9:19:12Z</time></trkpt>
<trkpt lat="46.16781478" lon="6.03093683"><ele></ele><time>2014-10-8T9:19:15Z</time></trkpt>
<trkpt lat="46.16783816" lon="6.03100983"><ele></ele><time>2014-10-8T9:19:18Z</time></trkpt>
<trkpt lat="46.16786205" lon="6.03108360"><ele></ele><time>2014-10-8T9:19:21Z</time></trkpt>
<trkpt lat="46.16788594" lon="6.03115627"><ele></ele><time>2014-10-8T9:19:24Z</time></trkpt>
<trkpt lat="46.16790924" lon="6.03122969"><ele></ele><time>2014-10-8T9:19:27Z</time></trkpt>
<trkpt lat="46.16793254" lon="6.03130412"><ele></ele><time>2014-10-8T9:19:30Z</time></trkpt>
<trkpt lat="46.16795593" lon="6.03137906"><ele></ele><time>2014-10-8T9:19:33Z</time></trkpt>
<trkpt lat="46.16797957" lon="6.03145315"><ele></ele><time>2014-10-8T9:19:36Z</time></trkpt>
<trkpt lat="46.16800304" lon="6.03152675"><ele></ele><time>2014-10-8T9:19:39Z</time></trkpt>
<trkpt lat="46.16802625" lon="6.03159908"><ele></ele><time>2014-10-8T9:19:42Z</time></trkpt>
<trkpt lat="46.16804972" lon="6.03167008"><ele></ele><time>2014-10-8T9:19:45Z</time></trkpt>
<trkpt lat="46.16807319" lon="6.03174258"><ele></ele><time>2014-10-8T9:19:48Z</time></trkpt>
<trkpt lat="46.16809683" lon="6.03181525"><ele></ele><time>2014-10-8T9:19:51Z</time></trkpt>
<trkpt lat="46.16812147" lon="6.03188742"><ele></ele><time>2014-10-8T9:19:54Z</time></trkpt>
<trkpt lat="46.16814620" lon="6.03196110"><ele></ele><time>2014-10-8T9:19:57Z</time></trkpt>
<trkpt lat="46.16817067" lon="6.03203553"><ele></ele><time>2014-10-8T9:20:0Z</time></trkpt>
<trkpt lat="46.16819498" lon="6.03211046"><ele></ele><time>2014-10-8T9:20:3Z</time></trkpt>
<trkpt lat="46.16822038" lon="6.03218464"><ele></ele><time>2014-10-8T9:20:6Z</time></trkpt>
<trkpt lat="46.16824527" lon="6.03226050"><ele></ele><time>2014-10-8T9:20:9Z</time></trkpt>
<trkpt lat="46.16826958" lon="6.03233635"><ele></ele><time>2014-10-8T9:20:12Z</time></trkpt>
<trkpt lat="46.16829364" lon="6.03241280"><ele></ele><time>2014-10-8T9:20:15Z</time></trkpt>
<trkpt lat="46.16831853" lon="6.03248882"><ele></ele><time>2014-10-8T9:20:18Z</time></trkpt>
<trkpt lat="46.16834342" lon="6.03256560"><ele></ele><time>2014-10-8T9:20:21Z</time></trkpt>
<trkpt lat="46.16836958" lon="6.03264037"><ele></ele><time>2014-10-8T9:20:24Z</time></trkpt>
<trkpt lat="46.16839598" lon="6.03271480"><ele></ele><time>2014-10-8T9:20:27Z</time></trkpt>
<trkpt lat="46.16842272" lon="6.03278873"><ele></ele><time>2014-10-8T9:20:30Z</time></trkpt>
<trkpt lat="46.16844987" lon="6.03286299"><ele></ele><time>2014-10-8T9:20:33Z</time></trkpt>
<trkpt lat="46.16847670" lon="6.03293792"><ele></ele><time>2014-10-8T9:20:36Z</time></trkpt>
<trkpt lat="46.16850327" lon="6.03301294"><ele></ele><time>2014-10-8T9:20:39Z</time></trkpt>
<trkpt lat="46.16853009" lon="6.03308704"><ele></ele><time>2014-10-8T9:20:42Z</time></trkpt>
<trkpt lat="46.16855725" lon="6.03315937"><ele></ele><time>2014-10-8T9:20:45Z</time></trkpt>
<trkpt lat="46.16858306" lon="6.03323364"><ele></ele><time>2014-10-8T9:20:48Z</time></trkpt>
<trkpt lat="46.16860804" lon="6.03330765"><ele></ele><time>2014-10-8T9:20:51Z</time></trkpt>
<trkpt lat="46.16863302" lon="6.03338166"><ele></ele><time>2014-10-8T9:20:54Z</time></trkpt>
<trkpt lat="46.16865783" lon="6.03345593"><ele></ele><time>2014-10-8T9:20:57Z</time></trkpt>
<trkpt lat="46.16868272" lon="6.03352927"><ele></ele><time>2014-10-8T9:21:0Z</time></trkpt>
<trkpt lat="46.16870787" lon="6.03360194"><ele></ele><time>2014-10-8T9:21:3Z</time></trkpt>
<trkpt lat="46.16873335" lon="6.03367528"><ele></ele><time>2014-10-8T9:21:6Z</time></trkpt>
<trkpt lat="46.16875925" lon="6.03374929"><ele></ele><time>2014-10-8T9:21:9Z</time></trkpt>
<trkpt lat="46.16878565" lon="6.03382314"><ele></ele><time>2014-10-8T9:21:12Z</time></trkpt>
<trkpt lat="46.16881214" lon="6.03389765"><ele></ele><time>2014-10-8T9:21:15Z</time></trkpt>
<trkpt lat="46.16883854" lon="6.03397032"><ele></ele><time>2014-10-8T9:21:18Z</time></trkpt>
<trkpt lat="46.16886503" lon="6.03404467"><ele></ele><time>2014-10-8T9:21:21Z</time></trkpt>
<trkpt lat="46.16889169" lon="6.03412027"><ele></ele><time>2014-10-8T9:21:24Z</time></trkpt>
<trkpt lat="46.16891876" lon="6.03419588"><ele></ele><time>2014-10-8T9:21:27Z</time></trkpt>
<trkpt lat="46.16894608" lon="6.03427224"><ele></ele><time>2014-10-8T9:21:30Z</time></trkpt>
<trkpt lat="46.16897316" lon="6.03434918"><ele></ele><time>2014-10-8T9:21:33Z</time></trkpt>
<trkpt lat="46.16900099" lon="6.03442554"><ele></ele><time>2014-10-8T9:21:36Z</time></trkpt>
<trkpt lat="46.16902948" lon="6.03450140"><ele></ele><time>2014-10-8T9:21:39Z</time></trkpt>
<trkpt lat="46.16905798" lon="6.03457818"><ele></ele><time>2014-10-8T9:21:42Z</time></trkpt>
<trkpt lat="46.16908673" lon="6.03465454"><ele></ele><time>2014-10-8T9:21:45Z</time></trkpt>
<trkpt lat="46.16911548" lon="6.03473098"><ele></ele><time>2014-10-8T9:21:48Z</time></trkpt>
<trkpt lat="46.16914390" lon="6.03480952"><ele></ele><time>2014-10-8T9:21:51Z</time></trkpt>
<trkpt lat="46.16917214" lon="6.03488755"><ele></ele><time>2014-10-8T9:21:54Z</time></trkpt>
<trkpt lat="46.16920274" lon="6.03496157"><ele></ele><time>2014-10-8T9:21:57Z</time></trkpt>
<trkpt lat="46.16923392" lon="6.03503223"><ele></ele><time>2014-10-8T9:22:0Z</time></trkpt>
<trkpt lat="46.16926468" lon="6.03510322"><ele></ele><time>2014-10-8T9:22:3Z</time></trkpt>
<trkpt lat="46.16929435" lon="6.03517489"><ele></ele><time>2014-10-8T9:22:6Z</time></trkpt>
<trkpt lat="46.16932469" lon="6.03524647"><ele></ele><time>2014-10-8T9:22:9Z</time></trkpt>
<trkpt lat="46.16935529" lon="6.03531813"><ele></ele><time>2014-10-8T9:22:12Z</time></trkpt>
<trkpt lat="46.16938496" lon="6.03539240"><ele></ele><time>2014-10-8T9:22:15Z</time></trkpt>
<trkpt lat="46.16941656" lon="6.03546406"><ele></ele><time>2014-10-8T9:22:18Z</time></trkpt>
<trkpt lat="46.16944824" lon="6.03553548"><ele></ele><time>2014-10-8T9:22:21Z</time></trkpt>
<trkpt lat="46.16947993" lon="6.03560714"><ele></ele><time>2014-10-8T9:22:24Z</time></trkpt>
<trkpt lat="46.16951178" lon="6.03567990"><ele></ele><time>2014-10-8T9:22:27Z</time></trkpt>
<trkpt lat="46.16954396" lon="6.03574879"><ele></ele><time>2014-10-8T9:22:30Z</time></trkpt>
<trkpt lat="46.16957515" lon="6.03581887"><ele></ele><time>2014-10-8T9:22:33Z</time></trkpt>
<trkpt lat="46.16960616" lon="6.03589145"><ele></ele><time>2014-10-8T9:22:36Z</time></trkpt>
<trkpt lat="46.16963784" lon="6.03596329"><ele></ele><time>2014-10-8T9:22:39Z</time></trkpt>
<trkpt lat="46.16966927" lon="6.03603420"><ele></ele><time>2014-10-8T9:22:42Z</time></trkpt>
<trkpt lat="46.16970104" lon="6.03610603"><ele></ele><time>2014-10-8T9:22:45Z</time></trkpt>
<trkpt lat="46.16973273" lon="6.03617853"><ele></ele><time>2014-10-8T9:22:48Z</time></trkpt>
<trkpt lat="46.16976449" lon="6.03625137"><ele></ele><time>2014-10-8T9:22:51Z</time></trkpt>
<trkpt lat="46.16979718" lon="6.03632396"><ele></ele><time>2014-10-8T9:22:54Z</time></trkpt>
<trkpt lat="46.16983004" lon="6.03639705"><ele></ele><time>2014-10-8T9:22:57Z</time></trkpt>
<trkpt lat="46.16986273" lon="6.03647023"><ele></ele><time>2014-10-8T9:23:0Z</time></trkpt>
<trkpt lat="46.16989525" lon="6.03654348"><ele></ele><time>2014-10-8T9:23:3Z</time></trkpt>
<trkpt lat="46.16992769" lon="6.03661699"><ele></ele><time>2014-10-8T9:23:6Z</time></trkpt>
<trkpt lat="46.16996038" lon="6.03669067"><ele></ele><time>2014-10-8T9:23:9Z</time></trkpt>
<trkpt lat="46.16999407" lon="6.03676384"><ele></ele><time>2014-10-8T9:23:12Z</time></trkpt>
<trkpt lat="46.17002752" lon="6.03683844"><ele></ele><time>2014-10-8T9:23:15Z</time></trkpt>
<trkpt lat="46.17006113" lon="6.03691254"><ele></ele><time>2014-10-8T9:23:18Z</time></trkpt>
<trkpt lat="46.17009474" lon="6.03698630"><ele></ele><time>2014-10-8T9:23:21Z</time></trkpt>
<trkpt lat="46.17012835" lon="6.03705947"><ele></ele><time>2014-10-8T9:23:24Z</time></trkpt>
<trkpt lat="46.17016129" lon="6.03713206"><ele></ele><time>2014-10-8T9:23:27Z</time></trkpt>
<trkpt lat="46.17019448" lon="6.03720465"><ele></ele><time>2014-10-8T9:23:30Z</time></trkpt>
<trkpt lat="46.17022717" lon="6.03727573"><ele></ele><time>2014-10-8T9:23:33Z</time></trkpt>
<trkpt lat="46.17025978" lon="6.03734689"><ele></ele><time>2014-10-8T9:23:36Z</time></trkpt>
<trkpt lat="46.17029197" lon="6.03741864"><ele></ele><time>2014-10-8T9:23:39Z</time></trkpt>
<trkpt lat="46.17032499" lon="6.03749072"><ele></ele><time>2014-10-8T9:23:42Z</time></trkpt>
<trkpt lat="46.17035835" lon="6.03756222"><ele></ele><time>2014-10-8T9:23:45Z</time></trkpt>
<trkpt lat="46.17039238" lon="6.03763338"><ele></ele><time>2014-10-8T9:23:48Z</time></trkpt>
<trkpt lat="46.17042658" lon="6.03770429"><ele></ele><time>2014-10-8T9:23:51Z</time></trkpt>
<trkpt lat="46.17045994" lon="6.03777554"><ele></ele><time>2014-10-8T9:23:54Z</time></trkpt>
<trkpt lat="46.17049229" lon="6.03784712"><ele></ele><time>2014-10-8T9:23:57Z</time></trkpt>
<trkpt lat="46.17052448" lon="6.03791778"><ele></ele><time>2014-10-8T9:24:0Z</time></trkpt>
<trkpt lat="46.17055675" lon="6.03798735"><ele></ele><time>2014-10-8T9:24:3Z</time></trkpt>
<trkpt lat="46.17058994" lon="6.03805415"><ele></ele><time>2014-10-8T9:24:6Z</time></trkpt>
<trkpt lat="46.17062615" lon="6.03811543"><ele></ele><time>2014-10-8T9:24:9Z</time></trkpt>
<trkpt lat="46.17066597" lon="6.03816848"><ele></ele><time>2014-10-8T9:24:12Z</time></trkpt>
<trkpt lat="46.17071106" lon="6.03820888"><ele></ele><time>2014-10-8T9:24:15Z</time></trkpt>
<trkpt lat="46.17076118" lon="6.03823663"><ele></ele><time>2014-10-8T9:24:18Z</time></trkpt>
<trkpt lat="46.17081055" lon="6.03826705"><ele></ele><time>2014-10-8T9:24:21Z</time></trkpt>
<trkpt lat="46.17085255" lon="6.03831274"><ele></ele><time>2014-10-8T9:24:24Z</time></trkpt>
<trkpt lat="46.17087996" lon="6.03837577"><ele></ele><time>2014-10-8T9:24:27Z</time></trkpt>
<trkpt lat="46.17089270" lon="6.03844509"><ele></ele><time>2014-10-8T9:24:30Z</time></trkpt>
<trkpt lat="46.17089303" lon="6.03851859"><ele></ele><time>2014-10-8T9:24:33Z</time></trkpt>
<trkpt lat="46.17089085" lon="6.03859537"><ele></ele><time>2014-10-8T9:24:36Z</time></trkpt>
<trkpt lat="46.17089974" lon="6.03867400"><ele></ele><time>2014-10-8T9:24:39Z</time></trkpt>
<trkpt lat="46.17092027" lon="6.03875195"><ele></ele><time>2014-10-8T9:24:42Z</time></trkpt>
<trkpt lat="46.17094634" lon="6.03882638"><ele></ele><time>2014-10-8T9:24:45Z</time></trkpt>
<trkpt lat="46.17097727" lon="6.03890098"><ele></ele><time>2014-10-8T9:24:48Z</time></trkpt>
<trkpt lat="46.17101029" lon="6.03897206"><ele></ele><time>2014-10-8T9:24:51Z</time></trkpt>
<trkpt lat="46.17104332" lon="6.03904364"><ele></ele><time>2014-10-8T9:24:54Z</time></trkpt>
<trkpt lat="46.17107668" lon="6.03911513"><ele></ele><time>2014-10-8T9:24:57Z</time></trkpt>
<trkpt lat="46.17110979" lon="6.03918596"><ele></ele><time>2014-10-8T9:25:0Z</time></trkpt>
<trkpt lat="46.17114273" lon="6.03925687"><ele></ele><time>2014-10-8T9:25:3Z</time></trkpt>
<trkpt lat="46.17117584" lon="6.03932787"><ele></ele><time>2014-10-8T9:25:6Z</time></trkpt>
<trkpt lat="46.17120903" lon="6.03939903"><ele></ele><time>2014-10-8T9:25:9Z</time></trkpt>
<trkpt lat="46.17124164" lon="6.03946885"><ele></ele><time>2014-10-8T9:25:12Z</time></trkpt>
<trkpt lat="46.17127416" lon="6.03954077"><ele></ele><time>2014-10-8T9:25:15Z</time></trkpt>
<trkpt lat="46.17130668" lon="6.03961319"><ele></ele><time>2014-10-8T9:25:18Z</time></trkpt>
<trkpt lat="46.17133903" lon="6.03968536"><ele></ele><time>2014-10-8T9:25:21Z</time></trkpt>
<trkpt lat="46.17137139" lon="6.03975669"><ele></ele><time>2014-10-8T9:25:24Z</time></trkpt>
<trkpt lat="46.17140324" lon="6.03982810"><ele></ele><time>2014-10-8T9:25:27Z</time></trkpt>
<trkpt lat="46.17143475" lon="6.03990010"><ele></ele><time>2014-10-8T9:25:30Z</time></trkpt>
<trkpt lat="46.17146677" lon="6.03997193"><ele></ele><time>2014-10-8T9:25:33Z</time></trkpt>
<trkpt lat="46.17149795" lon="6.04004318"><ele></ele><time>2014-10-8T9:25:36Z</time></trkpt>
<trkpt lat="46.17152838" lon="6.04011484"><ele></ele><time>2014-10-8T9:25:39Z</time></trkpt>
<trkpt lat="46.17155856" lon="6.04018693"><ele></ele><time>2014-10-8T9:25:42Z</time></trkpt>
<trkpt lat="46.17158865" lon="6.04025876"><ele></ele><time>2014-10-8T9:25:45Z</time></trkpt>
<trkpt lat="46.17161823" lon="6.04033093"><ele></ele><time>2014-10-8T9:25:48Z</time></trkpt>
<trkpt lat="46.17164757" lon="6.04040385"><ele></ele><time>2014-10-8T9:25:51Z</time></trkpt>
<trkpt lat="46.17167666" lon="6.04047778"><ele></ele><time>2014-10-8T9:25:54Z</time></trkpt>
<trkpt lat="46.17170432" lon="6.04055104"><ele></ele><time>2014-10-8T9:25:57Z</time></trkpt>
<trkpt lat="46.17173198" lon="6.04062522"><ele></ele><time>2014-10-8T9:26:0Z</time></trkpt>
<trkpt lat="46.17176022" lon="6.04070032"><ele></ele><time>2014-10-8T9:26:3Z</time></trkpt>
<trkpt lat="46.17178847" lon="6.04077618"><ele></ele><time>2014-10-8T9:26:6Z</time></trkpt>
<trkpt lat="46.17181504" lon="6.04085103"><ele></ele><time>2014-10-8T9:26:9Z</time></trkpt>
<trkpt lat="46.17184195" lon="6.04092596"><ele></ele><time>2014-10-8T9:26:12Z</time></trkpt>
<trkpt lat="46.17186877" lon="6.04100123"><ele></ele><time>2014-10-8T9:26:15Z</time></trkpt>
<trkpt lat="46.17189509" lon="6.04107709"><ele></ele><time>2014-10-8T9:26:18Z</time></trkpt>
<trkpt lat="46.17192074" lon="6.04115227"><ele></ele><time>2014-10-8T9:26:21Z</time></trkpt>
<trkpt lat="46.17194546" lon="6.04122687"><ele></ele><time>2014-10-8T9:26:24Z</time></trkpt>
<trkpt lat="46.17197078" lon="6.04130214"><ele></ele><time>2014-10-8T9:26:27Z</time></trkpt>
<trkpt lat="46.17199584" lon="6.04137825"><ele></ele><time>2014-10-8T9:26:30Z</time></trkpt>
<trkpt lat="46.17202040" lon="6.04145595"><ele></ele><time>2014-10-8T9:26:33Z</time></trkpt>
<trkpt lat="46.17204479" lon="6.04153482"><ele></ele><time>2014-10-8T9:26:36Z</time></trkpt>
<trkpt lat="46.17206893" lon="6.04161462"><ele></ele><time>2014-10-8T9:26:39Z</time></trkpt>
<trkpt lat="46.17209240" lon="6.04169542"><ele></ele><time>2014-10-8T9:26:42Z</time></trkpt>
<trkpt lat="46.17211520" lon="6.04177765"><ele></ele><time>2014-10-8T9:26:45Z</time></trkpt>
<trkpt lat="46.17213707" lon="6.04186054"><ele></ele><time>2014-10-8T9:26:48Z</time></trkpt>
<trkpt lat="46.17215828" lon="6.04194302"><ele></ele><time>2014-10-8T9:26:51Z</time></trkpt>
<trkpt lat="46.17217915" lon="6.04202558"><ele></ele><time>2014-10-8T9:26:54Z</time></trkpt>
<trkpt lat="46.17219952" lon="6.04210789"><ele></ele><time>2014-10-8T9:26:57Z</time></trkpt>
<trkpt lat="46.17221947" lon="6.04219037"><ele></ele><time>2014-10-8T9:27:0Z</time></trkpt>
<trkpt lat="46.17223850" lon="6.04227344"><ele></ele><time>2014-10-8T9:27:3Z</time></trkpt>
<trkpt lat="46.17225626" lon="6.04235709"><ele></ele><time>2014-10-8T9:27:6Z</time></trkpt>
<trkpt lat="46.17227395" lon="6.04243940"><ele></ele><time>2014-10-8T9:27:9Z</time></trkpt>
<trkpt lat="46.17229080" lon="6.04252062"><ele></ele><time>2014-10-8T9:27:12Z</time></trkpt>
<trkpt lat="46.17230622" lon="6.04260217"><ele></ele><time>2014-10-8T9:27:15Z</time></trkpt>
<trkpt lat="46.17232148" lon="6.04268256"><ele></ele><time>2014-10-8T9:27:18Z</time></trkpt>
<trkpt lat="46.17233640" lon="6.04276135"><ele></ele><time>2014-10-8T9:27:21Z</time></trkpt>
<trkpt lat="46.17235014" lon="6.04283896"><ele></ele><time>2014-10-8T9:27:24Z</time></trkpt>
<trkpt lat="46.17236255" lon="6.04291549"><ele></ele><time>2014-10-8T9:27:27Z</time></trkpt>
<trkpt lat="46.17237437" lon="6.04299034"><ele></ele><time>2014-10-8T9:27:30Z</time></trkpt>
<trkpt lat="46.17238618" lon="6.04306368"><ele></ele><time>2014-10-8T9:27:33Z</time></trkpt>
<trkpt lat="46.17239775" lon="6.04313484"><ele></ele><time>2014-10-8T9:27:36Z</time></trkpt>
<trkpt lat="46.17240555" lon="6.04320324"><ele></ele><time>2014-10-8T9:27:39Z</time></trkpt>
<trkpt lat="46.17241183" lon="6.04327164"><ele></ele><time>2014-10-8T9:27:42Z</time></trkpt>
<trkpt lat="46.17241904" lon="6.04334263"><ele></ele><time>2014-10-8T9:27:45Z</time></trkpt>
<trkpt lat="46.17242726" lon="6.04341606"><ele></ele><time>2014-10-8T9:27:48Z</time></trkpt>
<trkpt lat="46.17243572" lon="6.04349066"><ele></ele><time>2014-10-8T9:27:51Z</time></trkpt>
<trkpt lat="46.17244343" lon="6.04356609"><ele></ele><time>2014-10-8T9:27:54Z</time></trkpt>
<trkpt lat="46.17245215" lon="6.04364304"><ele></ele><time>2014-10-8T9:27:57Z</time></trkpt>
<trkpt lat="46.17246103" lon="6.04372174"><ele></ele><time>2014-10-8T9:28:0Z</time></trkpt>
<trkpt lat="46.17246833" lon="6.04380188"><ele></ele><time>2014-10-8T9:28:3Z</time></trkpt>
<trkpt lat="46.17247453" lon="6.04388259"><ele></ele><time>2014-10-8T9:28:6Z</time></trkpt>
<trkpt lat="46.17247964" lon="6.04396415"><ele></ele><time>2014-10-8T9:28:9Z</time></trkpt>
<trkpt lat="46.17248492" lon="6.04404713"><ele></ele><time>2014-10-8T9:28:12Z</time></trkpt>
<trkpt lat="46.17249054" lon="6.04413078"><ele></ele><time>2014-10-8T9:28:15Z</time></trkpt>
<trkpt lat="46.17249607" lon="6.04421494"><ele></ele><time>2014-10-8T9:28:18Z</time></trkpt>
<trkpt lat="46.17250202" lon="6.04430026"><ele></ele><time>2014-10-8T9:28:21Z</time></trkpt>
<trkpt lat="46.17250755" lon="6.04438660"><ele></ele><time>2014-10-8T9:28:24Z</time></trkpt>
<trkpt lat="46.17251166" lon="6.04447343"><ele></ele><time>2014-10-8T9:28:27Z</time></trkpt>
<trkpt lat="46.17251585" lon="6.04456027"><ele></ele><time>2014-10-8T9:28:30Z</time></trkpt>
<trkpt lat="46.17252029" lon="6.04464736"><ele></ele><time>2014-10-8T9:28:33Z</time></trkpt>
<trkpt lat="46.17252516" lon="6.04473604"><ele></ele><time>2014-10-8T9:28:36Z</time></trkpt>
<trkpt lat="46.17253035" lon="6.04482505"><ele></ele><time>2014-10-8T9:28:39Z</time></trkpt>
<trkpt lat="46.17253597" lon="6.04491482"><ele></ele><time>2014-10-8T9:28:42Z</time></trkpt>
<trkpt lat="46.17254016" lon="6.04500434"><ele></ele><time>2014-10-8T9:28:45Z</time></trkpt>
<trkpt lat="46.17254318" lon="6.04509428"><ele></ele><time>2014-10-8T9:28:48Z</time></trkpt>
<trkpt lat="46.17254653" lon="6.04518724"><ele></ele><time>2014-10-8T9:28:51Z</time></trkpt>
<trkpt lat="46.17255089" lon="6.04527919"><ele></ele><time>2014-10-8T9:28:54Z</time></trkpt>
<trkpt lat="46.17255407" lon="6.04536829"><ele></ele><time>2014-10-8T9:28:57Z</time></trkpt>
<trkpt lat="46.17255718" lon="6.04545848"><ele></ele><time>2014-10-8T9:29:0Z</time></trkpt>
<trkpt lat="46.17255994" lon="6.04554959"><ele></ele><time>2014-10-8T9:29:3Z</time></trkpt>
<trkpt lat="46.17256287" lon="6.04564145"><ele></ele><time>2014-10-8T9:29:6Z</time></trkpt>
<trkpt lat="46.17256640" lon="6.04573349"><ele></ele><time>2014-10-8T9:29:9Z</time></trkpt>
<trkpt lat="46.17257067" lon="6.04582669"><ele></ele><time>2014-10-8T9:29:12Z</time></trkpt>
<trkpt lat="46.17257427" lon="6.04592166"><ele></ele><time>2014-10-8T9:29:15Z</time></trkpt>
<trkpt lat="46.17257779" lon="6.04601864"><ele></ele><time>2014-10-8T9:29:18Z</time></trkpt>
<trkpt lat="46.17258173" lon="6.04611687"><ele></ele><time>2014-10-8T9:29:21Z</time></trkpt>
<trkpt lat="46.17258643" lon="6.04621595"><ele></ele><time>2014-10-8T9:29:24Z</time></trkpt>
<trkpt lat="46.17259179" lon="6.04631552"><ele></ele><time>2014-10-8T9:29:27Z</time></trkpt>
<trkpt lat="46.17259783" lon="6.04641502"><ele></ele><time>2014-10-8T9:29:30Z</time></trkpt>
<trkpt lat="46.17260403" lon="6.04651459"><ele></ele><time>2014-10-8T9:29:33Z</time></trkpt>
<trkpt lat="46.17261015" lon="6.04661467"><ele></ele><time>2014-10-8T9:29:36Z</time></trkpt>
<trkpt lat="46.17261702" lon="6.04671509"><ele></ele><time>2014-10-8T9:29:39Z</time></trkpt>
<trkpt lat="46.17262515" lon="6.04681492"><ele></ele><time>2014-10-8T9:29:42Z</time></trkpt>
<trkpt lat="46.17263412" lon="6.04691483"><ele></ele><time>2014-10-8T9:29:45Z</time></trkpt>
<trkpt lat="46.17264443" lon="6.04701768"><ele></ele><time>2014-10-8T9:29:48Z</time></trkpt>
<trkpt lat="46.17265575" lon="6.04711927"><ele></ele><time>2014-10-8T9:29:51Z</time></trkpt>
<trkpt lat="46.17266807" lon="6.04722010"><ele></ele><time>2014-10-8T9:29:54Z</time></trkpt>
<trkpt lat="46.17267955" lon="6.04731775"><ele></ele><time>2014-10-8T9:29:57Z</time></trkpt>
<trkpt lat="46.17269145" lon="6.04741783"><ele></ele><time>2014-10-8T9:30:0Z</time></trkpt>
<trkpt lat="46.17270478" lon="6.04751606"><ele></ele><time>2014-10-8T9:30:3Z</time></trkpt>
<trkpt lat="46.17271920" lon="6.04761288"><ele></ele><time>2014-10-8T9:30:6Z</time></trkpt>
<trkpt lat="46.17273437" lon="6.04770868"><ele></ele><time>2014-10-8T9:30:9Z</time></trkpt>
<trkpt lat="46.17274954" lon="6.04780474"><ele></ele><time>2014-10-8T9:30:12Z</time></trkpt>
<trkpt lat="46.17276538" lon="6.04790046"><ele></ele><time>2014-10-8T9:30:15Z</time></trkpt>
<trkpt lat="46.17278223" lon="6.04799543"><ele></ele><time>2014-10-8T9:30:18Z</time></trkpt>
<trkpt lat="46.17280008" lon="6.04808964"><ele></ele><time>2014-10-8T9:30:21Z</time></trkpt>
<trkpt lat="46.17281794" lon="6.04818293"><ele></ele><time>2014-10-8T9:30:24Z</time></trkpt>
<trkpt lat="46.17283604" lon="6.04827463"><ele></ele><time>2014-10-8T9:30:27Z</time></trkpt>
<trkpt lat="46.17285448" lon="6.04836507"><ele></ele><time>2014-10-8T9:30:30Z</time></trkpt>
<trkpt lat="46.17287309" lon="6.04845425"><ele></ele><time>2014-10-8T9:30:33Z</time></trkpt>
<trkpt lat="46.17289195" lon="6.04854268"><ele></ele><time>2014-10-8T9:30:36Z</time></trkpt>
<trkpt lat="46.17291198" lon="6.04863077"><ele></ele><time>2014-10-8T9:30:39Z</time></trkpt>
<trkpt lat="46.17293268" lon="6.04871845"><ele></ele><time>2014-10-8T9:30:42Z</time></trkpt>
<trkpt lat="46.17295288" lon="6.04880587"><ele></ele><time>2014-10-8T9:30:45Z</time></trkpt>
<trkpt lat="46.17297309" lon="6.04889262"><ele></ele><time>2014-10-8T9:30:48Z</time></trkpt>
<trkpt lat="46.17299337" lon="6.04897913"><ele></ele><time>2014-10-8T9:30:51Z</time></trkpt>
<trkpt lat="46.17301374" lon="6.04906529"><ele></ele><time>2014-10-8T9:30:54Z</time></trkpt>
<trkpt lat="46.17303419" lon="6.04915146"><ele></ele><time>2014-10-8T9:30:57Z</time></trkpt>
<trkpt lat="46.17305590" lon="6.04923888"><ele></ele><time>2014-10-8T9:31:0Z</time></trkpt>
<trkpt lat="46.17307803" lon="6.04932656"><ele></ele><time>2014-10-8T9:31:3Z</time></trkpt>
<trkpt lat="46.17310024" lon="6.04941423"><ele></ele><time>2014-10-8T9:31:6Z</time></trkpt>
<trkpt lat="46.17312304" lon="6.04950123"><ele></ele><time>2014-10-8T9:31:9Z</time></trkpt>
<trkpt lat="46.17314575" lon="6.04958816"><ele></ele><time>2014-10-8T9:31:12Z</time></trkpt>
<trkpt lat="46.17316780" lon="6.04967616"><ele></ele><time>2014-10-8T9:31:15Z</time></trkpt>
<trkpt lat="46.17318967" lon="6.04976493"><ele></ele><time>2014-10-8T9:31:18Z</time></trkpt>
<trkpt lat="46.17321172" lon="6.04985403"><ele></ele><time>2014-10-8T9:31:21Z</time></trkpt>
<trkpt lat="46.17323443" lon="6.04994355"><ele></ele><time>2014-10-8T9:31:24Z</time></trkpt>
<trkpt lat="46.17325690" lon="6.05003315"><ele></ele><time>2014-10-8T9:31:27Z</time></trkpt>
<trkpt lat="46.17327902" lon="6.05012233"><ele></ele><time>2014-10-8T9:31:30Z</time></trkpt>
<trkpt lat="46.17330149" lon="6.05021143"><ele></ele><time>2014-10-8T9:31:33Z</time></trkpt>
<trkpt lat="46.17332429" lon="6.05030045"><ele></ele><time>2014-10-8T9:31:36Z</time></trkpt>
<trkpt lat="46.17334667" lon="6.05038946"><ele></ele><time>2014-10-8T9:31:39Z</time></trkpt>
<trkpt lat="46.17336854" lon="6.05047848"><ele></ele><time>2014-10-8T9:31:42Z</time></trkpt>
<trkpt lat="46.17339025" lon="6.05056708"><ele></ele><time>2014-10-8T9:31:45Z</time></trkpt>
<trkpt lat="46.17341238" lon="6.05065442"><ele></ele><time>2014-10-8T9:31:48Z</time></trkpt>
<trkpt lat="46.17343367" lon="6.05074067"><ele></ele><time>2014-10-8T9:31:51Z</time></trkpt>
<trkpt lat="46.17345429" lon="6.05082658"><ele></ele><time>2014-10-8T9:31:54Z</time></trkpt>
<trkpt lat="46.17347483" lon="6.05091216"><ele></ele><time>2014-10-8T9:31:57Z</time></trkpt>
<trkpt lat="46.17349586" lon="6.05099715"><ele></ele><time>2014-10-8T9:32:0Z</time></trkpt>
<trkpt lat="46.17351665" lon="6.05108156"><ele></ele><time>2014-10-8T9:32:3Z</time></trkpt>
<trkpt lat="46.17353668" lon="6.05116504"><ele></ele><time>2014-10-8T9:32:6Z</time></trkpt>
<trkpt lat="46.17355647" lon="6.05124727"><ele></ele><time>2014-10-8T9:32:9Z</time></trkpt>
<trkpt lat="46.17357616" lon="6.05132866"><ele></ele><time>2014-10-8T9:32:12Z</time></trkpt>
<trkpt lat="46.17359594" lon="6.05140963"><ele></ele><time>2014-10-8T9:32:15Z</time></trkpt>
<trkpt lat="46.17361547" lon="6.05149018"><ele></ele><time>2014-10-8T9:32:18Z</time></trkpt>
<trkpt lat="46.17363442" lon="6.05157022"><ele></ele><time>2014-10-8T9:32:21Z</time></trkpt>
<trkpt lat="46.17365353" lon="6.05165069"><ele></ele><time>2014-10-8T9:32:24Z</time></trkpt>
<trkpt lat="46.17367256" lon="6.05173065"><ele></ele><time>2014-10-8T9:32:27Z</time></trkpt>
<trkpt lat="46.17369133" lon="6.05181045"><ele></ele><time>2014-10-8T9:32:30Z</time></trkpt>
<trkpt lat="46.17370994" lon="6.05188999"><ele></ele><time>2014-10-8T9:32:33Z</time></trkpt>
<trkpt lat="46.17372829" lon="6.05196945"><ele></ele><time>2014-10-8T9:32:36Z</time></trkpt>
<trkpt lat="46.17374615" lon="6.05204900"><ele></ele><time>2014-10-8T9:32:39Z</time></trkpt>
<trkpt lat="46.17376425" lon="6.05212779"><ele></ele><time>2014-10-8T9:32:42Z</time></trkpt>
<trkpt lat="46.17378186" lon="6.05220624"><ele></ele><time>2014-10-8T9:32:45Z</time></trkpt>
<trkpt lat="46.17379979" lon="6.05228528"><ele></ele><time>2014-10-8T9:32:48Z</time></trkpt>
<trkpt lat="46.17381815" lon="6.05236500"><ele></ele><time>2014-10-8T9:32:51Z</time></trkpt>
<trkpt lat="46.17383575" lon="6.05244437"><ele></ele><time>2014-10-8T9:32:54Z</time></trkpt>
<trkpt lat="46.17385335" lon="6.05252375"><ele></ele><time>2014-10-8T9:32:57Z</time></trkpt>
<trkpt lat="46.17387045" lon="6.05260246"><ele></ele><time>2014-10-8T9:33:0Z</time></trkpt>
<trkpt lat="46.17388713" lon="6.05268066"><ele></ele><time>2014-10-8T9:33:3Z</time></trkpt>
<trkpt lat="46.17390406" lon="6.05275886"><ele></ele><time>2014-10-8T9:33:6Z</time></trkpt>
<trkpt lat="46.17392108" lon="6.05283723"><ele></ele><time>2014-10-8T9:33:9Z</time></trkpt>
<trkpt lat="46.17393868" lon="6.05291627"><ele></ele><time>2014-10-8T9:33:12Z</time></trkpt>
<trkpt lat="46.17395536" lon="6.05299582"><ele></ele><time>2014-10-8T9:33:15Z</time></trkpt>
<trkpt lat="46.17396735" lon="6.05307293"><ele></ele><time>2014-10-8T9:33:18Z</time></trkpt>
<trkpt lat="46.17398034" lon="6.05315038"><ele></ele><time>2014-10-8T9:33:21Z</time></trkpt>
<trkpt lat="46.17399735" lon="6.05323085"><ele></ele><time>2014-10-8T9:33:24Z</time></trkpt>
<trkpt lat="46.17401395" lon="6.05331148"><ele></ele><time>2014-10-8T9:33:27Z</time></trkpt>
<trkpt lat="46.17403038" lon="6.05339170"><ele></ele><time>2014-10-8T9:33:30Z</time></trkpt>
<trkpt lat="46.17404656" lon="6.05347174"><ele></ele><time>2014-10-8T9:33:33Z</time></trkpt>
<trkpt lat="46.17406240" lon="6.05355129"><ele></ele><time>2014-10-8T9:33:36Z</time></trkpt>
<trkpt lat="46.17407874" lon="6.05363016"><ele></ele><time>2014-10-8T9:33:39Z</time></trkpt>
<trkpt lat="46.17409375" lon="6.05370912"><ele></ele><time>2014-10-8T9:33:42Z</time></trkpt>
<trkpt lat="46.17410338" lon="6.05378472"><ele></ele><time>2014-10-8T9:33:45Z</time></trkpt>
<trkpt lat="46.17411336" lon="6.05385957"><ele></ele><time>2014-10-8T9:33:48Z</time></trkpt>
<trkpt lat="46.17412786" lon="6.05393694"><ele></ele><time>2014-10-8T9:33:51Z</time></trkpt>
<trkpt lat="46.17414228" lon="6.05401506"><ele></ele><time>2014-10-8T9:33:54Z</time></trkpt>
<trkpt lat="46.17415669" lon="6.05409376"><ele></ele><time>2014-10-8T9:33:57Z</time></trkpt>
<trkpt lat="46.17417136" lon="6.05417247"><ele></ele><time>2014-10-8T9:34:0Z</time></trkpt>
<trkpt lat="46.17418586" lon="6.05425109"><ele></ele><time>2014-10-8T9:34:3Z</time></trkpt>
<trkpt lat="46.17419994" lon="6.05433013"><ele></ele><time>2014-10-8T9:34:6Z</time></trkpt>
<trkpt lat="46.17421403" lon="6.05440934"><ele></ele><time>2014-10-8T9:34:9Z</time></trkpt>
<trkpt lat="46.17422836" lon="6.05448813"><ele></ele><time>2014-10-8T9:34:12Z</time></trkpt>
<trkpt lat="46.17424185" lon="6.05456675"><ele></ele><time>2014-10-8T9:34:15Z</time></trkpt>
<trkpt lat="46.17425443" lon="6.05464512"><ele></ele><time>2014-10-8T9:34:18Z</time></trkpt>
<trkpt lat="46.17426700" lon="6.05472308"><ele></ele><time>2014-10-8T9:34:21Z</time></trkpt>
<trkpt lat="46.17428008" lon="6.05480044"><ele></ele><time>2014-10-8T9:34:24Z</time></trkpt>
<trkpt lat="46.17429307" lon="6.05487772"><ele></ele><time>2014-10-8T9:34:27Z</time></trkpt>
<trkpt lat="46.17430614" lon="6.05495509"><ele></ele><time>2014-10-8T9:34:30Z</time></trkpt>
<trkpt lat="46.17431964" lon="6.05503187"><ele></ele><time>2014-10-8T9:34:33Z</time></trkpt>
<trkpt lat="46.17433280" lon="6.05510848"><ele></ele><time>2014-10-8T9:34:36Z</time></trkpt>
<trkpt lat="46.17434470" lon="6.05518525"><ele></ele><time>2014-10-8T9:34:39Z</time></trkpt>
<trkpt lat="46.17435534" lon="6.05526145"><ele></ele><time>2014-10-8T9:34:42Z</time></trkpt>
<trkpt lat="46.17436364" lon="6.05533512"><ele></ele><time>2014-10-8T9:34:45Z</time></trkpt>
<trkpt lat="46.17437244" lon="6.05540888"><ele></ele><time>2014-10-8T9:34:48Z</time></trkpt>
<trkpt lat="46.17438183" lon="6.05548290"><ele></ele><time>2014-10-8T9:34:51Z</time></trkpt>
<trkpt lat="46.17439122" lon="6.05555649"><ele></ele><time>2014-10-8T9:34:54Z</time></trkpt>
<trkpt lat="46.17440262" lon="6.05563109"><ele></ele><time>2014-10-8T9:34:57Z</time></trkpt>
<trkpt lat="46.17441335" lon="6.05570468"><ele></ele><time>2014-10-8T9:35:0Z</time></trkpt>
<trkpt lat="46.17442223" lon="6.05577702"><ele></ele><time>2014-10-8T9:35:3Z</time></trkpt>
<trkpt lat="46.17443137" lon="6.05584986"><ele></ele><time>2014-10-8T9:35:6Z</time></trkpt>
<trkpt lat="46.17443975" lon="6.05592144"><ele></ele><time>2014-10-8T9:35:9Z</time></trkpt>
<trkpt lat="46.17444947" lon="6.05599302"><ele></ele><time>2014-10-8T9:35:12Z</time></trkpt>
<trkpt lat="46.17445928" lon="6.05606452"><ele></ele><time>2014-10-8T9:35:15Z</time></trkpt>
<trkpt lat="46.17446884" lon="6.05613635"><ele></ele><time>2014-10-8T9:35:18Z</time></trkpt>
<trkpt lat="46.17447839" lon="6.05620835"><ele></ele><time>2014-10-8T9:35:21Z</time></trkpt>
<trkpt lat="46.17448795" lon="6.05628052"><ele></ele><time>2014-10-8T9:35:24Z</time></trkpt>
<trkpt lat="46.17449784" lon="6.05635285"><ele></ele><time>2014-10-8T9:35:27Z</time></trkpt>
<trkpt lat="46.17450756" lon="6.05642477"><ele></ele><time>2014-10-8T9:35:30Z</time></trkpt>
<trkpt lat="46.17451653" lon="6.05649585"><ele></ele><time>2014-10-8T9:35:33Z</time></trkpt>
<trkpt lat="46.17452449" lon="6.05656559"><ele></ele><time>2014-10-8T9:35:36Z</time></trkpt>
<trkpt lat="46.17453279" lon="6.05663365"><ele></ele><time>2014-10-8T9:35:39Z</time></trkpt>
<trkpt lat="46.17454260" lon="6.05670062"><ele></ele><time>2014-10-8T9:35:42Z</time></trkpt>
<trkpt lat="46.17455316" lon="6.05676759"><ele></ele><time>2014-10-8T9:35:45Z</time></trkpt>
<trkpt lat="46.17456439" lon="6.05683406"><ele></ele><time>2014-10-8T9:35:48Z</time></trkpt>
<trkpt lat="46.17457788" lon="6.05689935"><ele></ele><time>2014-10-8T9:35:51Z</time></trkpt>
<trkpt lat="46.17459700" lon="6.05696146"><ele></ele><time>2014-10-8T9:35:54Z</time></trkpt>
<trkpt lat="46.17462315" lon="6.05701804"><ele></ele><time>2014-10-8T9:35:57Z</time></trkpt>
<trkpt lat="46.17465374" lon="6.05706959"><ele></ele><time>2014-10-8T9:36:0Z</time></trkpt>
<trkpt lat="46.17468425" lon="6.05712097"><ele></ele><time>2014-10-8T9:36:3Z</time></trkpt>
<trkpt lat="46.17470596" lon="6.05717948"><ele></ele><time>2014-10-8T9:36:6Z</time></trkpt>
<trkpt lat="46.17471627" lon="6.05724494"><ele></ele><time>2014-10-8T9:36:9Z</time></trkpt>
<trkpt lat="46.17471308" lon="6.05730973"><ele></ele><time>2014-10-8T9:36:12Z</time></trkpt>
<trkpt lat="46.17469867" lon="6.05737058"><ele></ele><time>2014-10-8T9:36:15Z</time></trkpt>
<trkpt lat="46.17467796" lon="6.05742725"><ele></ele><time>2014-10-8T9:36:18Z</time></trkpt>
<trkpt lat="46.17465952" lon="6.05748517"><ele></ele><time>2014-10-8T9:36:21Z</time></trkpt>
<trkpt lat="46.17464905" lon="6.05754786"><ele></ele><time>2014-10-8T9:36:24Z</time></trkpt>
<trkpt lat="46.17464955" lon="6.05761282"><ele></ele><time>2014-10-8T9:36:27Z</time></trkpt>
<trkpt lat="46.17465718" lon="6.05767946"><ele></ele><time>2014-10-8T9:36:30Z</time></trkpt>
<trkpt lat="46.17466589" lon="6.05774635"><ele></ele><time>2014-10-8T9:36:33Z</time></trkpt>
<trkpt lat="46.17467344" lon="6.05781332"><ele></ele><time>2014-10-8T9:36:36Z</time></trkpt>
<trkpt lat="46.17468006" lon="6.05788012"><ele></ele><time>2014-10-8T9:36:39Z</time></trkpt>
<trkpt lat="46.17468609" lon="6.05794684"><ele></ele><time>2014-10-8T9:36:42Z</time></trkpt>
<trkpt lat="46.17469230" lon="6.05801356"><ele></ele><time>2014-10-8T9:36:45Z</time></trkpt>
<trkpt lat="46.17469917" lon="6.05807986"><ele></ele><time>2014-10-8T9:36:48Z</time></trkpt>
<trkpt lat="46.17470630" lon="6.05814633"><ele></ele><time>2014-10-8T9:36:51Z</time></trkpt>
<trkpt lat="46.17471208" lon="6.05821263"><ele></ele><time>2014-10-8T9:36:54Z</time></trkpt>
<trkpt lat="46.17471887" lon="6.05827918"><ele></ele><time>2014-10-8T9:36:57Z</time></trkpt>
<trkpt lat="46.17472960" lon="6.05834724"><ele></ele><time>2014-10-8T9:37:0Z</time></trkpt>
<trkpt lat="46.17474016" lon="6.05841598"><ele></ele><time>2014-10-8T9:37:3Z</time></trkpt>
<trkpt lat="46.17474988" lon="6.05848563"><ele></ele><time>2014-10-8T9:37:6Z</time></trkpt>
<trkpt lat="46.17475918" lon="6.05855646"><ele></ele><time>2014-10-8T9:37:9Z</time></trkpt>
<trkpt lat="46.17476832" lon="6.05862812"><ele></ele><time>2014-10-8T9:37:12Z</time></trkpt>
<trkpt lat="46.17477737" lon="6.05870037"><ele></ele><time>2014-10-8T9:37:15Z</time></trkpt>
<trkpt lat="46.17478408" lon="6.05877112"><ele></ele><time>2014-10-8T9:37:18Z</time></trkpt>
<trkpt lat="46.17479095" lon="6.05884194"><ele></ele><time>2014-10-8T9:37:21Z</time></trkpt>
<trkpt lat="46.17479799" lon="6.05891277"><ele></ele><time>2014-10-8T9:37:24Z</time></trkpt>
<trkpt lat="46.17480495" lon="6.05898402"><ele></ele><time>2014-10-8T9:37:27Z</time></trkpt>
<trkpt lat="46.17481182" lon="6.05905577"><ele></ele><time>2014-10-8T9:37:30Z</time></trkpt>
<trkpt lat="46.17481920" lon="6.05912793"><ele></ele><time>2014-10-8T9:37:33Z</time></trkpt>
<trkpt lat="46.17482716" lon="6.05920102"><ele></ele><time>2014-10-8T9:37:36Z</time></trkpt>
<trkpt lat="46.17483487" lon="6.05927462"><ele></ele><time>2014-10-8T9:37:39Z</time></trkpt>
<trkpt lat="46.17484342" lon="6.05934855"><ele></ele><time>2014-10-8T9:37:42Z</time></trkpt>
<trkpt lat="46.17485139" lon="6.05942206"><ele></ele><time>2014-10-8T9:37:45Z</time></trkpt>
<trkpt lat="46.17485843" lon="6.05949565"><ele></ele><time>2014-10-8T9:37:48Z</time></trkpt>
<trkpt lat="46.17486597" lon="6.05956899"><ele></ele><time>2014-10-8T9:37:51Z</time></trkpt>
<trkpt lat="46.17487393" lon="6.05964258"><ele></ele><time>2014-10-8T9:37:54Z</time></trkpt>
<trkpt lat="46.17488173" lon="6.05971685"><ele></ele><time>2014-10-8T9:37:57Z</time></trkpt>
<trkpt lat="46.17488944" lon="6.05979178"><ele></ele><time>2014-10-8T9:38:0Z</time></trkpt>
<trkpt lat="46.17489723" lon="6.05986646"><ele></ele><time>2014-10-8T9:38:3Z</time></trkpt>
<trkpt lat="46.17490537" lon="6.05994098"><ele></ele><time>2014-10-8T9:38:6Z</time></trkpt>
<trkpt lat="46.17491400" lon="6.06001533"><ele></ele><time>2014-10-8T9:38:9Z</time></trkpt>
<trkpt lat="46.17492263" lon="6.06008976"><ele></ele><time>2014-10-8T9:38:12Z</time></trkpt>
<trkpt lat="46.17493168" lon="6.06016419"><ele></ele><time>2014-10-8T9:38:15Z</time></trkpt>
<trkpt lat="46.17494124" lon="6.06023862"><ele></ele><time>2014-10-8T9:38:18Z</time></trkpt>
<trkpt lat="46.17495163" lon="6.06031364"><ele></ele><time>2014-10-8T9:38:21Z</time></trkpt>
<trkpt lat="46.17496312" lon="6.06038908"><ele></ele><time>2014-10-8T9:38:24Z</time></trkpt>
<trkpt lat="46.17497569" lon="6.06046485"><ele></ele><time>2014-10-8T9:38:27Z</time></trkpt>
<trkpt lat="46.17498659" lon="6.06054213"><ele></ele><time>2014-10-8T9:38:30Z</time></trkpt>
<trkpt lat="46.17499463" lon="6.06062125"><ele></ele><time>2014-10-8T9:38:33Z</time></trkpt>
<trkpt lat="46.17500125" lon="6.06070147"><ele></ele><time>2014-10-8T9:38:36Z</time></trkpt>
<trkpt lat="46.17500712" lon="6.06078202"><ele></ele><time>2014-10-8T9:38:39Z</time></trkpt>
<trkpt lat="46.17501374" lon="6.06086399"><ele></ele><time>2014-10-8T9:38:42Z</time></trkpt>
<trkpt lat="46.17502129" lon="6.06094706"><ele></ele><time>2014-10-8T9:38:45Z</time></trkpt>
<trkpt lat="46.17503026" lon="6.06103088"><ele></ele><time>2014-10-8T9:38:48Z</time></trkpt>
<trkpt lat="46.17504224" lon="6.06111646"><ele></ele><time>2014-10-8T9:38:51Z</time></trkpt>
<trkpt lat="46.17505490" lon="6.06120229"><ele></ele><time>2014-10-8T9:38:54Z</time></trkpt>
<trkpt lat="46.17506714" lon="6.06128837"><ele></ele><time>2014-10-8T9:38:57Z</time></trkpt>
<trkpt lat="46.17507879" lon="6.06137495"><ele></ele><time>2014-10-8T9:39:0Z</time></trkpt>
<trkpt lat="46.17509019" lon="6.06146162"><ele></ele><time>2014-10-8T9:39:3Z</time></trkpt>
<trkpt lat="46.17510142" lon="6.06154838"><ele></ele><time>2014-10-8T9:39:6Z</time></trkpt>
<trkpt lat="46.17511282" lon="6.06163513"><ele></ele><time>2014-10-8T9:39:9Z</time></trkpt>
<trkpt lat="46.17512179" lon="6.06172012"><ele></ele><time>2014-10-8T9:39:12Z</time></trkpt>
<trkpt lat="46.17513092" lon="6.06180528"><ele></ele><time>2014-10-8T9:39:15Z</time></trkpt>
<trkpt lat="46.17514006" lon="6.06189027"><ele></ele><time>2014-10-8T9:39:18Z</time></trkpt>
<trkpt lat="46.17514953" lon="6.06197527"><ele></ele><time>2014-10-8T9:39:21Z</time></trkpt>
<trkpt lat="46.17515942" lon="6.06206026"><ele></ele><time>2014-10-8T9:39:24Z</time></trkpt>
<trkpt lat="46.17516889" lon="6.06214559"><ele></ele><time>2014-10-8T9:39:27Z</time></trkpt>
<trkpt lat="46.17517912" lon="6.06223125"><ele></ele><time>2014-10-8T9:39:30Z</time></trkpt>
<trkpt lat="46.17518993" lon="6.06231675"><ele></ele><time>2014-10-8T9:39:33Z</time></trkpt>
<trkpt lat="46.17520058" lon="6.06240258"><ele></ele><time>2014-10-8T9:39:36Z</time></trkpt>
<trkpt lat="46.17521105" lon="6.06248824"><ele></ele><time>2014-10-8T9:39:39Z</time></trkpt>
<trkpt lat="46.17522170" lon="6.06257424"><ele></ele><time>2014-10-8T9:39:42Z</time></trkpt>
<trkpt lat="46.17523276" lon="6.06265998"><ele></ele><time>2014-10-8T9:39:45Z</time></trkpt>
<trkpt lat="46.17524383" lon="6.06274548"><ele></ele><time>2014-10-8T9:39:48Z</time></trkpt>
<trkpt lat="46.17525514" lon="6.06283114"><ele></ele><time>2014-10-8T9:39:51Z</time></trkpt>
<trkpt lat="46.17526629" lon="6.06291689"><ele></ele><time>2014-10-8T9:39:54Z</time></trkpt>
<trkpt lat="46.17527769" lon="6.06300264"><ele></ele><time>2014-10-8T9:39:57Z</time></trkpt>
<trkpt lat="46.17528984" lon="6.06308863"><ele></ele><time>2014-10-8T9:40:0Z</time></trkpt>
<trkpt lat="46.17530250" lon="6.06317514"><ele></ele><time>2014-10-8T9:40:3Z</time></trkpt>
<trkpt lat="46.17531558" lon="6.06326172"><ele></ele><time>2014-10-8T9:40:6Z</time></trkpt>
<trkpt lat="46.17532915" lon="6.06334839"><ele></ele><time>2014-10-8T9:40:9Z</time></trkpt>
<trkpt lat="46.17534248" lon="6.06343514"><ele></ele><time>2014-10-8T9:40:12Z</time></trkpt>
<trkpt lat="46.17535598" lon="6.06352240"><ele></ele><time>2014-10-8T9:40:15Z</time></trkpt>
<trkpt lat="46.17537173" lon="6.06361058"><ele></ele><time>2014-10-8T9:40:18Z</time></trkpt>
<trkpt lat="46.17538816" lon="6.06369859"><ele></ele><time>2014-10-8T9:40:21Z</time></trkpt>
<trkpt lat="46.17540493" lon="6.06378660"><ele></ele><time>2014-10-8T9:40:24Z</time></trkpt>
<trkpt lat="46.17542244" lon="6.06387486"><ele></ele><time>2014-10-8T9:40:27Z</time></trkpt>
<trkpt lat="46.17543963" lon="6.06396337"><ele></ele><time>2014-10-8T9:40:30Z</time></trkpt>
<trkpt lat="46.17545689" lon="6.06405247"><ele></ele><time>2014-10-8T9:40:33Z</time></trkpt>
<trkpt lat="46.17547517" lon="6.06414199"><ele></ele><time>2014-10-8T9:40:36Z</time></trkpt>
<trkpt lat="46.17549269" lon="6.06423000"><ele></ele><time>2014-10-8T9:40:39Z</time></trkpt>
<trkpt lat="46.17551188" lon="6.06431885"><ele></ele><time>2014-10-8T9:40:42Z</time></trkpt>
<trkpt lat="46.17553133" lon="6.06440744"><ele></ele><time>2014-10-8T9:40:45Z</time></trkpt>
<trkpt lat="46.17555102" lon="6.06449596"><ele></ele><time>2014-10-8T9:40:48Z</time></trkpt>
<trkpt lat="46.17557055" lon="6.06458447"><ele></ele><time>2014-10-8T9:40:51Z</time></trkpt>
<trkpt lat="46.17559025" lon="6.06467265"><ele></ele><time>2014-10-8T9:40:54Z</time></trkpt>
<trkpt lat="46.17561045" lon="6.06476015"><ele></ele><time>2014-10-8T9:40:57Z</time></trkpt>
<trkpt lat="46.17563124" lon="6.06484674"><ele></ele><time>2014-10-8T9:41:0Z</time></trkpt>
<trkpt lat="46.17565203" lon="6.06493282"><ele></ele><time>2014-10-8T9:41:3Z</time></trkpt>
<trkpt lat="46.17567256" lon="6.06501899"><ele></ele><time>2014-10-8T9:41:6Z</time></trkpt>
<trkpt lat="46.17569368" lon="6.06510457"><ele></ele><time>2014-10-8T9:41:9Z</time></trkpt>
<trkpt lat="46.17571564" lon="6.06518897"><ele></ele><time>2014-10-8T9:41:12Z</time></trkpt>
<trkpt lat="46.17573752" lon="6.06527162"><ele></ele><time>2014-10-8T9:41:15Z</time></trkpt>
<trkpt lat="46.17575839" lon="6.06535359"><ele></ele><time>2014-10-8T9:41:18Z</time></trkpt>
<trkpt lat="46.17577859" lon="6.06543448"><ele></ele><time>2014-10-8T9:41:21Z</time></trkpt>
<trkpt lat="46.17579938" lon="6.06551402"><ele></ele><time>2014-10-8T9:41:24Z</time></trkpt>
<trkpt lat="46.17582126" lon="6.06559315"><ele></ele><time>2014-10-8T9:41:27Z</time></trkpt>
<trkpt lat="46.17584355" lon="6.06567185"><ele></ele><time>2014-10-8T9:41:30Z</time></trkpt>
<trkpt lat="46.17586526" lon="6.06574989"><ele></ele><time>2014-10-8T9:41:33Z</time></trkpt>
<trkpt lat="46.17588705" lon="6.06582692"><ele></ele><time>2014-10-8T9:41:36Z</time></trkpt>
<trkpt lat="46.17590943" lon="6.06590328"><ele></ele><time>2014-10-8T9:41:39Z</time></trkpt>
<trkpt lat="46.17593173" lon="6.06597888"><ele></ele><time>2014-10-8T9:41:42Z</time></trkpt>
<trkpt lat="46.17595352" lon="6.06605407"><ele></ele><time>2014-10-8T9:41:45Z</time></trkpt>
<trkpt lat="46.17597515" lon="6.06612858"><ele></ele><time>2014-10-8T9:41:48Z</time></trkpt>
<trkpt lat="46.17599593" lon="6.06620109"><ele></ele><time>2014-10-8T9:41:51Z</time></trkpt>
<trkpt lat="46.17601773" lon="6.06627426"><ele></ele><time>2014-10-8T9:41:54Z</time></trkpt>
<trkpt lat="46.17603952" lon="6.06634752"><ele></ele><time>2014-10-8T9:41:57Z</time></trkpt>
<trkpt lat="46.17606123" lon="6.06642069"><ele></ele><time>2014-10-8T9:42:0Z</time></trkpt>
<trkpt lat="46.17608344" lon="6.06649336"><ele></ele><time>2014-10-8T9:42:3Z</time></trkpt>
<trkpt lat="46.17610632" lon="6.06656604"><ele></ele><time>2014-10-8T9:42:6Z</time></trkpt>
<trkpt lat="46.17612912" lon="6.06663904"><ele></ele><time>2014-10-8T9:42:9Z</time></trkpt>
<trkpt lat="46.17615209" lon="6.06671196"><ele></ele><time>2014-10-8T9:42:12Z</time></trkpt>
<trkpt lat="46.17617489" lon="6.06678522"><ele></ele><time>2014-10-8T9:42:15Z</time></trkpt>
<trkpt lat="46.17619744" lon="6.06685898"><ele></ele><time>2014-10-8T9:42:18Z</time></trkpt>
<trkpt lat="46.17622082" lon="6.06693258"><ele></ele><time>2014-10-8T9:42:21Z</time></trkpt>
<trkpt lat="46.17624496" lon="6.06700625"><ele></ele><time>2014-10-8T9:42:24Z</time></trkpt>
<trkpt lat="46.17626885" lon="6.06708026"><ele></ele><time>2014-10-8T9:42:27Z</time></trkpt>
<trkpt lat="46.17629232" lon="6.06715503"><ele></ele><time>2014-10-8T9:42:30Z</time></trkpt>
<trkpt lat="46.17631587" lon="6.06723038"><ele></ele><time>2014-10-8T9:42:33Z</time></trkpt>
<trkpt lat="46.17633943" lon="6.06730632"><ele></ele><time>2014-10-8T9:42:36Z</time></trkpt>
<trkpt lat="46.17636382" lon="6.06738285"><ele></ele><time>2014-10-8T9:42:39Z</time></trkpt>
<trkpt lat="46.17638854" lon="6.06745980"><ele></ele><time>2014-10-8T9:42:42Z</time></trkpt>
<trkpt lat="46.17641277" lon="6.06753716"><ele></ele><time>2014-10-8T9:42:45Z</time></trkpt>
<trkpt lat="46.17643716" lon="6.06761453"><ele></ele><time>2014-10-8T9:42:48Z</time></trkpt>
<trkpt lat="46.17646188" lon="6.06769298"><ele></ele><time>2014-10-8T9:42:51Z</time></trkpt>
<trkpt lat="46.17648644" lon="6.06777202"><ele></ele><time>2014-10-8T9:42:54Z</time></trkpt>
<trkpt lat="46.17651134" lon="6.06785098"><ele></ele><time>2014-10-8T9:42:57Z</time></trkpt>
<trkpt lat="46.17653573" lon="6.06792759"><ele></ele><time>2014-10-8T9:43:0Z</time></trkpt>
<trkpt lat="46.17656012" lon="6.06800454"><ele></ele><time>2014-10-8T9:43:3Z</time></trkpt>
<trkpt lat="46.17658275" lon="6.06808224"><ele></ele><time>2014-10-8T9:43:6Z</time></trkpt>
<trkpt lat="46.17660589" lon="6.06815994"><ele></ele><time>2014-10-8T9:43:9Z</time></trkpt>
<trkpt lat="46.17663187" lon="6.06823906"><ele></ele><time>2014-10-8T9:43:12Z</time></trkpt>
<trkpt lat="46.17665769" lon="6.06831836"><ele></ele><time>2014-10-8T9:43:15Z</time></trkpt>
<trkpt lat="46.17668375" lon="6.06839782"><ele></ele><time>2014-10-8T9:43:18Z</time></trkpt>
<trkpt lat="46.17670865" lon="6.06847627"><ele></ele><time>2014-10-8T9:43:21Z</time></trkpt>
<trkpt lat="46.17673329" lon="6.06855489"><ele></ele><time>2014-10-8T9:43:24Z</time></trkpt>
<trkpt lat="46.17675819" lon="6.06863293"><ele></ele><time>2014-10-8T9:43:27Z</time></trkpt>
<trkpt lat="46.17678325" lon="6.06871205"><ele></ele><time>2014-10-8T9:43:30Z</time></trkpt>
<trkpt lat="46.17680839" lon="6.06879235"><ele></ele><time>2014-10-8T9:43:33Z</time></trkpt>
<trkpt lat="46.17683463" lon="6.06887332"><ele></ele><time>2014-10-8T9:43:36Z</time></trkpt>
<trkpt lat="46.17686145" lon="6.06895488"><ele></ele><time>2014-10-8T9:43:39Z</time></trkpt>
<trkpt lat="46.17688869" lon="6.06903677"><ele></ele><time>2014-10-8T9:43:42Z</time></trkpt>
<trkpt lat="46.17691484" lon="6.06911983"><ele></ele><time>2014-10-8T9:43:45Z</time></trkpt>
<trkpt lat="46.17694066" lon="6.06920382"><ele></ele><time>2014-10-8T9:43:48Z</time></trkpt>
<trkpt lat="46.17696798" lon="6.06928806"><ele></ele><time>2014-10-8T9:43:51Z</time></trkpt>
<trkpt lat="46.17699724" lon="6.06937288"><ele></ele><time>2014-10-8T9:43:54Z</time></trkpt>
<trkpt lat="46.17702615" lon="6.06945746"><ele></ele><time>2014-10-8T9:43:57Z</time></trkpt>
<trkpt lat="46.17705340" lon="6.06954128"><ele></ele><time>2014-10-8T9:44:0Z</time></trkpt>
<trkpt lat="46.17708164" lon="6.06962577"><ele></ele><time>2014-10-8T9:44:3Z</time></trkpt>
<trkpt lat="46.17711098" lon="6.06971009"><ele></ele><time>2014-10-8T9:44:6Z</time></trkpt>
<trkpt lat="46.17714149" lon="6.06979575"><ele></ele><time>2014-10-8T9:44:9Z</time></trkpt>
<trkpt lat="46.17717133" lon="6.06988225"><ele></ele><time>2014-10-8T9:44:12Z</time></trkpt>
<trkpt lat="46.17719916" lon="6.06996716"><ele></ele><time>2014-10-8T9:44:15Z</time></trkpt>
<trkpt lat="46.17722757" lon="6.07005140"><ele></ele><time>2014-10-8T9:44:18Z</time></trkpt>
<trkpt lat="46.17725632" lon="6.07013463"><ele></ele><time>2014-10-8T9:44:21Z</time></trkpt>
<trkpt lat="46.17728616" lon="6.07021837"><ele></ele><time>2014-10-8T9:44:24Z</time></trkpt>
<trkpt lat="46.17731508" lon="6.07030185"><ele></ele><time>2014-10-8T9:44:27Z</time></trkpt>
<trkpt lat="46.17734366" lon="6.07038508"><ele></ele><time>2014-10-8T9:44:30Z</time></trkpt>
<trkpt lat="46.17737157" lon="6.07046714"><ele></ele><time>2014-10-8T9:44:33Z</time></trkpt>
<trkpt lat="46.17740158" lon="6.07054953"><ele></ele><time>2014-10-8T9:44:36Z</time></trkpt>
<trkpt lat="46.17743175" lon="6.07063184"><ele></ele><time>2014-10-8T9:44:39Z</time></trkpt>
<trkpt lat="46.17745967" lon="6.07071315"><ele></ele><time>2014-10-8T9:44:42Z</time></trkpt>
<trkpt lat="46.17748884" lon="6.07079613"><ele></ele><time>2014-10-8T9:44:45Z</time></trkpt>
<trkpt lat="46.17752337" lon="6.07088179"><ele></ele><time>2014-10-8T9:44:48Z</time></trkpt>
<trkpt lat="46.17755547" lon="6.07096486"><ele></ele><time>2014-10-8T9:44:51Z</time></trkpt>
<trkpt lat="46.17758598" lon="6.07104717"><ele></ele><time>2014-10-8T9:44:54Z</time></trkpt>
<trkpt lat="46.17761565" lon="6.07112847"><ele></ele><time>2014-10-8T9:44:57Z</time></trkpt>
<trkpt lat="46.17764516" lon="6.07120818"><ele></ele><time>2014-10-8T9:45:0Z</time></trkpt>
<trkpt lat="46.17767667" lon="6.07128798"><ele></ele><time>2014-10-8T9:45:3Z</time></trkpt>
<trkpt lat="46.17770492" lon="6.07136459"><ele></ele><time>2014-10-8T9:45:6Z</time></trkpt>
<trkpt lat="46.17773124" lon="6.07144028"><ele></ele><time>2014-10-8T9:45:9Z</time></trkpt>
<trkpt lat="46.17775756" lon="6.07151563"><ele></ele><time>2014-10-8T9:45:12Z</time></trkpt>
<trkpt lat="46.17778388" lon="6.07158964"><ele></ele><time>2014-10-8T9:45:15Z</time></trkpt>
<trkpt lat="46.17781003" lon="6.07166240"><ele></ele><time>2014-10-8T9:45:18Z</time></trkpt>
<trkpt lat="46.17783677" lon="6.07173365"><ele></ele><time>2014-10-8T9:45:21Z</time></trkpt>
<trkpt lat="46.17786359" lon="6.07180355"><ele></ele><time>2014-10-8T9:45:24Z</time></trkpt>
<trkpt lat="46.17789175" lon="6.07187538"><ele></ele><time>2014-10-8T9:45:27Z</time></trkpt>
<trkpt lat="46.17791765" lon="6.07194495"><ele></ele><time>2014-10-8T9:45:30Z</time></trkpt>
<trkpt lat="46.17794322" lon="6.07201058"><ele></ele><time>2014-10-8T9:45:33Z</time></trkpt>
<trkpt lat="46.17796526" lon="6.07206725"><ele></ele><time>2014-10-8T9:45:36Z</time></trkpt>
<trkpt lat="46.17799058" lon="6.07212022"><ele></ele><time>2014-10-8T9:45:39Z</time></trkpt>
<trkpt lat="46.17801354" lon="6.07216615"><ele></ele><time>2014-10-8T9:45:42Z</time></trkpt>
<trkpt lat="46.17803458" lon="6.07219717"><ele></ele><time>2014-10-8T9:45:45Z</time></trkpt>
<trkpt lat="46.17805419" lon="6.07221108"><ele></ele><time>2014-10-8T9:45:48Z</time></trkpt>
<trkpt lat="46.17807289" lon="6.07222122"><ele></ele><time>2014-10-8T9:45:51Z</time></trkpt>
<trkpt lat="46.17808856" lon="6.07223799"><ele></ele><time>2014-10-8T9:45:54Z</time></trkpt>
<trkpt lat="46.17809007" lon="6.07225659"><ele></ele><time>2014-10-8T9:45:57Z</time></trkpt>
<trkpt lat="46.17808512" lon="6.07227503"><ele></ele><time>2014-10-8T9:46:0Z</time></trkpt>
<trkpt lat="46.17808236" lon="6.07229029"><ele></ele><time>2014-10-8T9:46:3Z</time></trkpt>
<trkpt lat="46.17808395" lon="6.07230437"><ele></ele><time>2014-10-8T9:46:6Z</time></trkpt>
<trkpt lat="46.17808923" lon="6.07231518"><ele></ele><time>2014-10-8T9:46:9Z</time></trkpt>
<trkpt lat="46.17809828" lon="6.07232373"><ele></ele><time>2014-10-8T9:46:12Z</time></trkpt>
<trkpt lat="46.17810633" lon="6.07232608"><ele></ele><time>2014-10-8T9:46:15Z</time></trkpt>
<trkpt lat="46.17810868" lon="6.07232373"><ele></ele><time>2014-10-8T9:46:18Z</time></trkpt>
<trkpt lat="46.17810616" lon="6.07232097"><ele></ele><time>2014-10-8T9:46:21Z</time></trkpt>
<trkpt lat="46.17810432" lon="6.07231904"><ele></ele><time>2014-10-8T9:46:24Z</time></trkpt>
<trkpt lat="46.17810306" lon="6.07231644"><ele></ele><time>2014-10-8T9:46:27Z</time></trkpt>
<trkpt lat="46.17810164" lon="6.07231409"><ele></ele><time>2014-10-8T9:46:30Z</time></trkpt>
<trkpt lat="46.17810038" lon="6.07231200"><ele></ele><time>2014-10-8T9:46:33Z</time></trkpt>
<trkpt lat="46.17809988" lon="6.07231024"><ele></ele><time>2014-10-8T9:46:36Z</time></trkpt>
<trkpt lat="46.17809946" lon="6.07231049"><ele></ele><time>2014-10-8T9:46:39Z</time></trkpt>
<trkpt lat="46.17810239" lon="6.07231569"><ele></ele><time>2014-10-8T9:46:42Z</time></trkpt>
<trkpt lat="46.17811178" lon="6.07232843"><ele></ele><time>2014-10-8T9:46:45Z</time></trkpt>
<trkpt lat="46.17812418" lon="6.07234494"><ele></ele><time>2014-10-8T9:46:48Z</time></trkpt>
<trkpt lat="46.17814028" lon="6.07236262"><ele></ele><time>2014-10-8T9:46:51Z</time></trkpt>
<trkpt lat="46.17816090" lon="6.07238308"><ele></ele><time>2014-10-8T9:46:54Z</time></trkpt>
<trkpt lat="46.17818495" lon="6.07240998"><ele></ele><time>2014-10-8T9:46:57Z</time></trkpt>
<trkpt lat="46.17820306" lon="6.07244904"><ele></ele><time>2014-10-8T9:47:0Z</time></trkpt>
<trkpt lat="46.17820155" lon="6.07249866"><ele></ele><time>2014-10-8T9:47:3Z</time></trkpt>
<trkpt lat="46.17819325" lon="6.07255113"><ele></ele><time>2014-10-8T9:47:6Z</time></trkpt>
<trkpt lat="46.17818906" lon="6.07260729"><ele></ele><time>2014-10-8T9:47:9Z</time></trkpt>
<trkpt lat="46.17819208" lon="6.07266622"><ele></ele><time>2014-10-8T9:47:12Z</time></trkpt>
<trkpt lat="46.17820088" lon="6.07272749"><ele></ele><time>2014-10-8T9:47:15Z</time></trkpt>
<trkpt lat="46.17821379" lon="6.07279044"><ele></ele><time>2014-10-8T9:47:18Z</time></trkpt>
<trkpt lat="46.17823013" lon="6.07285514"><ele></ele><time>2014-10-8T9:47:21Z</time></trkpt>
<trkpt lat="46.17824924" lon="6.07291985"><ele></ele><time>2014-10-8T9:47:24Z</time></trkpt>
<trkpt lat="46.17827103" lon="6.07298423"><ele></ele><time>2014-10-8T9:47:27Z</time></trkpt>
<trkpt lat="46.17829534" lon="6.07304818"><ele></ele><time>2014-10-8T9:47:30Z</time></trkpt>
<trkpt lat="46.17832133" lon="6.07311264"><ele></ele><time>2014-10-8T9:47:33Z</time></trkpt>
<trkpt lat="46.17834823" lon="6.07317810"><ele></ele><time>2014-10-8T9:47:36Z</time></trkpt>
<trkpt lat="46.17837497" lon="6.07324390"><ele></ele><time>2014-10-8T9:47:39Z</time></trkpt>
<trkpt lat="46.17840079" lon="6.07331112"><ele></ele><time>2014-10-8T9:47:42Z</time></trkpt>
<trkpt lat="46.17842493" lon="6.07338044"><ele></ele><time>2014-10-8T9:47:45Z</time></trkpt>
<trkpt lat="46.17844915" lon="6.07345068"><ele></ele><time>2014-10-8T9:47:48Z</time></trkpt>
<trkpt lat="46.17847539" lon="6.07352109"><ele></ele><time>2014-10-8T9:47:51Z</time></trkpt>
<trkpt lat="46.17850296" lon="6.07359233"><ele></ele><time>2014-10-8T9:47:54Z</time></trkpt>
<trkpt lat="46.17853037" lon="6.07366442"><ele></ele><time>2014-10-8T9:47:57Z</time></trkpt>
<trkpt lat="46.17855694" lon="6.07373826"><ele></ele><time>2014-10-8T9:48:0Z</time></trkpt>
<trkpt lat="46.17858318" lon="6.07381395"><ele></ele><time>2014-10-8T9:48:3Z</time></trkpt>
<trkpt lat="46.17860966" lon="6.07388989"><ele></ele><time>2014-10-8T9:48:6Z</time></trkpt>
<trkpt lat="46.17863665" lon="6.07396533"><ele></ele><time>2014-10-8T9:48:9Z</time></trkpt>
<trkpt lat="46.17866389" lon="6.07404118"><ele></ele><time>2014-10-8T9:48:12Z</time></trkpt>
<trkpt lat="46.17869189" lon="6.07411712"><ele></ele><time>2014-10-8T9:48:15Z</time></trkpt>
<trkpt lat="46.17872022" lon="6.07419323"><ele></ele><time>2014-10-8T9:48:18Z</time></trkpt>
<trkpt lat="46.17874838" lon="6.07426967"><ele></ele><time>2014-10-8T9:48:21Z</time></trkpt>
<trkpt lat="46.17877638" lon="6.07434545"><ele></ele><time>2014-10-8T9:48:24Z</time></trkpt>
<trkpt lat="46.17880354" lon="6.07442088"><ele></ele><time>2014-10-8T9:48:27Z</time></trkpt>
<trkpt lat="46.17883002" lon="6.07449599"><ele></ele><time>2014-10-8T9:48:30Z</time></trkpt>
<trkpt lat="46.17885659" lon="6.07457067"><ele></ele><time>2014-10-8T9:48:33Z</time></trkpt>
<trkpt lat="46.17888308" lon="6.07464476"><ele></ele><time>2014-10-8T9:48:36Z</time></trkpt>
<trkpt lat="46.17890974" lon="6.07471894"><ele></ele><time>2014-10-8T9:48:39Z</time></trkpt>
<trkpt lat="46.17893647" lon="6.07479363"><ele></ele><time>2014-10-8T9:48:42Z</time></trkpt>
<trkpt lat="46.17896330" lon="6.07486873"><ele></ele><time>2014-10-8T9:48:45Z</time></trkpt>
<trkpt lat="46.17899045" lon="6.07494433"><ele></ele><time>2014-10-8T9:48:48Z</time></trkpt>
<trkpt lat="46.17901769" lon="6.07501994"><ele></ele><time>2014-10-8T9:48:51Z</time></trkpt>
<trkpt lat="46.17904468" lon="6.07509580"><ele></ele><time>2014-10-8T9:48:54Z</time></trkpt>
<trkpt lat="46.17907159" lon="6.07517090"><ele></ele><time>2014-10-8T9:48:57Z</time></trkpt>
<trkpt lat="46.17909850" lon="6.07524524"><ele></ele><time>2014-10-8T9:49:0Z</time></trkpt>
<trkpt lat="46.17912532" lon="6.07531909"><ele></ele><time>2014-10-8T9:49:3Z</time></trkpt>
<trkpt lat="46.17915197" lon="6.07539260"><ele></ele><time>2014-10-8T9:49:6Z</time></trkpt>
<trkpt lat="46.17917779" lon="6.07546594"><ele></ele><time>2014-10-8T9:49:9Z</time></trkpt>
<trkpt lat="46.17920344" lon="6.07553928"><ele></ele><time>2014-10-8T9:49:12Z</time></trkpt>
<trkpt lat="46.17922917" lon="6.07561254"><ele></ele><time>2014-10-8T9:49:15Z</time></trkpt>
<trkpt lat="46.17925423" lon="6.07568596"><ele></ele><time>2014-10-8T9:49:18Z</time></trkpt>
<trkpt lat="46.17927879" lon="6.07575973"><ele></ele><time>2014-10-8T9:49:21Z</time></trkpt>
<trkpt lat="46.17930276" lon="6.07583424"><ele></ele><time>2014-10-8T9:49:24Z</time></trkpt>
<trkpt lat="46.17932657" lon="6.07590917"><ele></ele><time>2014-10-8T9:49:27Z</time></trkpt>
<trkpt lat="46.17934928" lon="6.07598495"><ele></ele><time>2014-10-8T9:49:30Z</time></trkpt>
<trkpt lat="46.17937133" lon="6.07606114"><ele></ele><time>2014-10-8T9:49:33Z</time></trkpt>
<trkpt lat="46.17939337" lon="6.07613649"><ele></ele><time>2014-10-8T9:49:36Z</time></trkpt>
<trkpt lat="46.17941642" lon="6.07621210"><ele></ele><time>2014-10-8T9:49:39Z</time></trkpt>
<trkpt lat="46.17943645" lon="6.07628846"><ele></ele><time>2014-10-8T9:49:42Z</time></trkpt>
<trkpt lat="46.17945456" lon="6.07636599"><ele></ele><time>2014-10-8T9:49:45Z</time></trkpt>
<trkpt lat="46.17947225" lon="6.07644377"><ele></ele><time>2014-10-8T9:49:48Z</time></trkpt>
<trkpt lat="46.17948893" lon="6.07652198"><ele></ele><time>2014-10-8T9:49:51Z</time></trkpt>
<trkpt lat="46.17950485" lon="6.07660060"><ele></ele><time>2014-10-8T9:49:54Z</time></trkpt>
<trkpt lat="46.17952002" lon="6.07667956"><ele></ele><time>2014-10-8T9:49:57Z</time></trkpt>
<trkpt lat="46.17953427" lon="6.07675843"><ele></ele><time>2014-10-8T9:50:0Z</time></trkpt>
<trkpt lat="46.17954819" lon="6.07683714"><ele></ele><time>2014-10-8T9:50:3Z</time></trkpt>
<trkpt lat="46.17956134" lon="6.07691534"><ele></ele><time>2014-10-8T9:50:6Z</time></trkpt>
<trkpt lat="46.17957367" lon="6.07699363"><ele></ele><time>2014-10-8T9:50:9Z</time></trkpt>
<trkpt lat="46.17958582" lon="6.07707208"><ele></ele><time>2014-10-8T9:50:12Z</time></trkpt>
<trkpt lat="46.17959663" lon="6.07715003"><ele></ele><time>2014-10-8T9:50:15Z</time></trkpt>
<trkpt lat="46.17960585" lon="6.07722656"><ele></ele><time>2014-10-8T9:50:18Z</time></trkpt>
<trkpt lat="46.17961457" lon="6.07730116"><ele></ele><time>2014-10-8T9:50:21Z</time></trkpt>
<trkpt lat="46.17962262" lon="6.07737316"><ele></ele><time>2014-10-8T9:50:24Z</time></trkpt>
<trkpt lat="46.17963108" lon="6.07744306"><ele></ele><time>2014-10-8T9:50:27Z</time></trkpt>
<trkpt lat="46.17963829" lon="6.07751179"><ele></ele><time>2014-10-8T9:50:30Z</time></trkpt>
<trkpt lat="46.17964449" lon="6.07757902"><ele></ele><time>2014-10-8T9:50:33Z</time></trkpt>
<trkpt lat="46.17965103" lon="6.07764440"><ele></ele><time>2014-10-8T9:50:36Z</time></trkpt>
<trkpt lat="46.17965765" lon="6.07770760"><ele></ele><time>2014-10-8T9:50:39Z</time></trkpt>
<trkpt lat="46.17966344" lon="6.07776904"><ele></ele><time>2014-10-8T9:50:42Z</time></trkpt>
<trkpt lat="46.17966872" lon="6.07782855"><ele></ele><time>2014-10-8T9:50:45Z</time></trkpt>
<trkpt lat="46.17967366" lon="6.07788588"><ele></ele><time>2014-10-8T9:50:48Z</time></trkpt>
<trkpt lat="46.17967844" lon="6.07794137"><ele></ele><time>2014-10-8T9:50:51Z</time></trkpt>
<trkpt lat="46.17968238" lon="6.07799417"><ele></ele><time>2014-10-8T9:50:54Z</time></trkpt>
<trkpt lat="46.17968657" lon="6.07804597"><ele></ele><time>2014-10-8T9:50:57Z</time></trkpt>
<trkpt lat="46.17969143" lon="6.07809585"><ele></ele><time>2014-10-8T9:51:0Z</time></trkpt>
<trkpt lat="46.17969562" lon="6.07814413"><ele></ele><time>2014-10-8T9:51:3Z</time></trkpt>
<trkpt lat="46.17969864" lon="6.07819073"><ele></ele><time>2014-10-8T9:51:6Z</time></trkpt>
<trkpt lat="46.17970157" lon="6.07823532"><ele></ele><time>2014-10-8T9:51:9Z</time></trkpt>
<trkpt lat="46.17970535" lon="6.07827757"><ele></ele><time>2014-10-8T9:51:12Z</time></trkpt>
<trkpt lat="46.17970912" lon="6.07831788"><ele></ele><time>2014-10-8T9:51:15Z</time></trkpt>
<trkpt lat="46.17971247" lon="6.07835795"><ele></ele><time>2014-10-8T9:51:18Z</time></trkpt>
<trkpt lat="46.17971549" lon="6.07839843"><ele></ele><time>2014-10-8T9:51:21Z</time></trkpt>
<trkpt lat="46.17971767" lon="6.07844185"><ele></ele><time>2014-10-8T9:51:24Z</time></trkpt>
<trkpt lat="46.17972379" lon="6.07848460"><ele></ele><time>2014-10-8T9:51:27Z</time></trkpt>
<trkpt lat="46.17973502" lon="6.07852424"><ele></ele><time>2014-10-8T9:51:30Z</time></trkpt>
<trkpt lat="46.17975019" lon="6.07855836"><ele></ele><time>2014-10-8T9:51:33Z</time></trkpt>
<trkpt lat="46.17976620" lon="6.07858644"><ele></ele><time>2014-10-8T9:51:36Z</time></trkpt>
<trkpt lat="46.17978238" lon="6.07860672"><ele></ele><time>2014-10-8T9:51:39Z</time></trkpt>
<trkpt lat="46.17979512" lon="6.07862424"><ele></ele><time>2014-10-8T9:51:42Z</time></trkpt>
<trkpt lat="46.17979973" lon="6.07864243"><ele></ele><time>2014-10-8T9:51:45Z</time></trkpt>
<trkpt lat="46.17979889" lon="6.07865257"><ele></ele><time>2014-10-8T9:51:48Z</time></trkpt>
<trkpt lat="46.17979646" lon="6.07865282"><ele></ele><time>2014-10-8T9:51:51Z</time></trkpt>
<trkpt lat="46.17979730" lon="6.07864989"><ele></ele><time>2014-10-8T9:51:54Z</time></trkpt>
<trkpt lat="46.17979813" lon="6.07864679"><ele></ele><time>2014-10-8T9:51:57Z</time></trkpt>
<trkpt lat="46.17979897" lon="6.07864243"><ele></ele><time>2014-10-8T9:52:0Z</time></trkpt>
<trkpt lat="46.17979989" lon="6.07863832"><ele></ele><time>2014-10-8T9:52:3Z</time></trkpt>
<trkpt lat="46.17980073" lon="6.07863463"><ele></ele><time>2014-10-8T9:52:6Z</time></trkpt>
<trkpt lat="46.17980165" lon="6.07863145"><ele></ele><time>2014-10-8T9:52:9Z</time></trkpt>
<trkpt lat="46.17979847" lon="6.07862634"><ele></ele><time>2014-10-8T9:52:12Z</time></trkpt>
<trkpt lat="46.17979537" lon="6.07862122"><ele></ele><time>2014-10-8T9:52:15Z</time></trkpt>
<trkpt lat="46.17979243" lon="6.07861636"><ele></ele><time>2014-10-8T9:52:18Z</time></trkpt>
<trkpt lat="46.17978984" lon="6.07861158"><ele></ele><time>2014-10-8T9:52:21Z</time></trkpt>
<trkpt lat="46.17978808" lon="6.07860723"><ele></ele><time>2014-10-8T9:52:24Z</time></trkpt>
<trkpt lat="46.17978648" lon="6.07860303"><ele></ele><time>2014-10-8T9:52:27Z</time></trkpt>
<trkpt lat="46.17978564" lon="6.07859910"><ele></ele><time>2014-10-8T9:52:30Z</time></trkpt>
<trkpt lat="46.17978489" lon="6.07859549"><ele></ele><time>2014-10-8T9:52:33Z</time></trkpt>
<trkpt lat="46.17978414" lon="6.07859247"><ele></ele><time>2014-10-8T9:52:36Z</time></trkpt>
<trkpt lat="46.17978363" lon="6.07858962"><ele></ele><time>2014-10-8T9:52:39Z</time></trkpt>
<trkpt lat="46.17978338" lon="6.07858719"><ele></ele><time>2014-10-8T9:52:42Z</time></trkpt>
<trkpt lat="46.17978313" lon="6.07858384"><ele></ele><time>2014-10-8T9:52:45Z</time></trkpt>
<trkpt lat="46.17978372" lon="6.07858133"><ele></ele><time>2014-10-8T9:52:48Z</time></trkpt>
<trkpt lat="46.17978455" lon="6.07857923"><ele></ele><time>2014-10-8T9:52:51Z</time></trkpt>
<trkpt lat="46.17978514" lon="6.07857713"><ele></ele><time>2014-10-8T9:52:54Z</time></trkpt>
<trkpt lat="46.17978564" lon="6.07857537"><ele></ele><time>2014-10-8T9:52:57Z</time></trkpt>
<trkpt lat="46.17978615" lon="6.07857370"><ele></ele><time>2014-10-8T9:53:0Z</time></trkpt>
<trkpt lat="46.17978648" lon="6.07857202"><ele></ele><time>2014-10-8T9:53:3Z</time></trkpt>
<trkpt lat="46.17978673" lon="6.07857060"><ele></ele><time>2014-10-8T9:53:6Z</time></trkpt>
<trkpt lat="46.17978715" lon="6.07856917"><ele></ele><time>2014-10-8T9:53:9Z</time></trkpt>
<trkpt lat="46.17978732" lon="6.07856783"><ele></ele><time>2014-10-8T9:53:12Z</time></trkpt>
<trkpt lat="46.17978682" lon="6.07856657"><ele></ele><time>2014-10-8T9:53:15Z</time></trkpt>
<trkpt lat="46.17978648" lon="6.07856523"><ele></ele><time>2014-10-8T9:53:18Z</time></trkpt>
<trkpt lat="46.17978640" lon="6.07856414"><ele></ele><time>2014-10-8T9:53:21Z</time></trkpt>
<trkpt lat="46.17978615" lon="6.07856322"><ele></ele><time>2014-10-8T9:53:24Z</time></trkpt>
<trkpt lat="46.17978606" lon="6.07856238"><ele></ele><time>2014-10-8T9:53:27Z</time></trkpt>
<trkpt lat="46.17978573" lon="6.07856180"><ele></ele><time>2014-10-8T9:53:30Z</time></trkpt>
<trkpt lat="46.17978556" lon="6.07856104"><ele></ele><time>2014-10-8T9:53:33Z</time></trkpt>
<trkpt lat="46.17978556" lon="6.07856045"><ele></ele><time>2014-10-8T9:53:36Z</time></trkpt>
<trkpt lat="46.17978514" lon="6.07855987"><ele></ele><time>2014-10-8T9:53:39Z</time></trkpt>
<trkpt lat="46.17978506" lon="6.07855878"><ele></ele><time>2014-10-8T9:53:42Z</time></trkpt>
<trkpt lat="46.17978548" lon="6.07856188"><ele></ele><time>2014-10-8T9:53:45Z</time></trkpt>
<trkpt lat="46.17978514" lon="6.07857630"><ele></ele><time>2014-10-8T9:53:48Z</time></trkpt>
<trkpt lat="46.17978657" lon="6.07860153"><ele></ele><time>2014-10-8T9:53:51Z</time></trkpt>
<trkpt lat="46.17979503" lon="6.07863472"><ele></ele><time>2014-10-8T9:53:54Z</time></trkpt>
<trkpt lat="46.17981096" lon="6.07867277"><ele></ele><time>2014-10-8T9:53:57Z</time></trkpt>
<trkpt lat="46.17983803" lon="6.07870806"><ele></ele><time>2014-10-8T9:54:0Z</time></trkpt>
<trkpt lat="46.17987617" lon="6.07873765"><ele></ele><time>2014-10-8T9:54:3Z</time></trkpt>
<trkpt lat="46.17992009" lon="6.07875927"><ele></ele><time>2014-10-8T9:54:6Z</time></trkpt>
<trkpt lat="46.17996896" lon="6.07876975"><ele></ele><time>2014-10-8T9:54:9Z</time></trkpt>
<trkpt lat="46.18002243" lon="6.07877662"><ele></ele><time>2014-10-8T9:54:12Z</time></trkpt>
<trkpt lat="46.18008505" lon="6.07882499"><ele></ele><time>2014-10-8T9:54:15Z</time></trkpt>
<trkpt lat="46.18015730" lon="6.07883563"><ele></ele><time>2014-10-8T9:54:18Z</time></trkpt>
<trkpt lat="46.18022377" lon="6.07885055"><ele></ele><time>2014-10-8T9:54:21Z</time></trkpt>
<trkpt lat="46.18028998" lon="6.07886556"><ele></ele><time>2014-10-8T9:54:24Z</time></trkpt>
<trkpt lat="46.18035788" lon="6.07887310"><ele></ele><time>2014-10-8T9:54:27Z</time></trkpt>
<trkpt lat="46.18042627" lon="6.07887444"><ele></ele><time>2014-10-8T9:54:30Z</time></trkpt>
<trkpt lat="46.18049417" lon="6.07886824"><ele></ele><time>2014-10-8T9:54:33Z</time></trkpt>
<trkpt lat="46.18056089" lon="6.07885676"><ele></ele><time>2014-10-8T9:54:36Z</time></trkpt>
<trkpt lat="46.18062685" lon="6.07884645"><ele></ele><time>2014-10-8T9:54:39Z</time></trkpt>
<trkpt lat="46.18069139" lon="6.07883974"><ele></ele><time>2014-10-8T9:54:42Z</time></trkpt>
<trkpt lat="46.18075308" lon="6.07884158"><ele></ele><time>2014-10-8T9:54:45Z</time></trkpt>
<trkpt lat="46.18080740" lon="6.07885667"><ele></ele><time>2014-10-8T9:54:48Z</time></trkpt>
<trkpt lat="46.18085073" lon="6.07888584"><ele></ele><time>2014-10-8T9:54:51Z</time></trkpt>
<trkpt lat="46.18088552" lon="6.07892767"><ele></ele><time>2014-10-8T9:54:54Z</time></trkpt>
<trkpt lat="46.18092332" lon="6.07896932"><ele></ele><time>2014-10-8T9:54:57Z</time></trkpt>
<trkpt lat="46.18096984" lon="6.07898265"><ele></ele><time>2014-10-8T9:55:0Z</time></trkpt>
<trkpt lat="46.18102726" lon="6.07890998"><ele></ele><time>2014-10-8T9:55:3Z</time></trkpt>
<trkpt lat="46.18106464" lon="6.07883337"><ele></ele><time>2014-10-8T9:55:6Z</time></trkpt>
<trkpt lat="46.18108945" lon="6.07876363"><ele></ele><time>2014-10-8T9:55:9Z</time></trkpt>
<trkpt lat="46.18112432" lon="6.07870907"><ele></ele><time>2014-10-8T9:55:12Z</time></trkpt>
<trkpt lat="46.18117578" lon="6.07868526"><ele></ele><time>2014-10-8T9:55:15Z</time></trkpt>
<trkpt lat="46.18123186" lon="6.07867353"><ele></ele><time>2014-10-8T9:55:18Z</time></trkpt>
<trkpt lat="46.18128969" lon="6.07865978"><ele></ele><time>2014-10-8T9:55:21Z</time></trkpt>
<trkpt lat="46.18134820" lon="6.07864184"><ele></ele><time>2014-10-8T9:55:24Z</time></trkpt>
<trkpt lat="46.18140888" lon="6.07862198"><ele></ele><time>2014-10-8T9:55:27Z</time></trkpt>
<trkpt lat="46.18147200" lon="6.07860245"><ele></ele><time>2014-10-8T9:55:30Z</time></trkpt>
<trkpt lat="46.18153528" lon="6.07858459"><ele></ele><time>2014-10-8T9:55:33Z</time></trkpt>
<trkpt lat="46.18159957" lon="6.07855744"><ele></ele><time>2014-10-8T9:55:36Z</time></trkpt>
<trkpt lat="46.18166185" lon="6.07852709"><ele></ele><time>2014-10-8T9:55:39Z</time></trkpt>
<trkpt lat="46.18172430" lon="6.07849885"><ele></ele><time>2014-10-8T9:55:42Z</time></trkpt>
<trkpt lat="46.18178984" lon="6.07847320"><ele></ele><time>2014-10-8T9:55:45Z</time></trkpt>
<trkpt lat="46.18186000" lon="6.07844789"><ele></ele><time>2014-10-8T9:55:48Z</time></trkpt>
<trkpt lat="46.18192898" lon="6.07842534"><ele></ele><time>2014-10-8T9:55:51Z</time></trkpt>
<trkpt lat="46.18199956" lon="6.07839826"><ele></ele><time>2014-10-8T9:55:54Z</time></trkpt>
<trkpt lat="46.18207005" lon="6.07836960"><ele></ele><time>2014-10-8T9:55:57Z</time></trkpt>
<trkpt lat="46.18214205" lon="6.07834043"><ele></ele><time>2014-10-8T9:56:0Z</time></trkpt>
<trkpt lat="46.18221447" lon="6.07831042"><ele></ele><time>2014-10-8T9:56:3Z</time></trkpt>
<trkpt lat="46.18228915" lon="6.07827798"><ele></ele><time>2014-10-8T9:56:6Z</time></trkpt>
<trkpt lat="46.18236476" lon="6.07824387"><ele></ele><time>2014-10-8T9:56:9Z</time></trkpt>
<trkpt lat="46.18243936" lon="6.07821118"><ele></ele><time>2014-10-8T9:56:12Z</time></trkpt>
<trkpt lat="46.18251387" lon="6.07817899"><ele></ele><time>2014-10-8T9:56:15Z</time></trkpt>
<trkpt lat="46.18258914" lon="6.07814312"><ele></ele><time>2014-10-8T9:56:18Z</time></trkpt>
<trkpt lat="46.18266399" lon="6.07810783"><ele></ele><time>2014-10-8T9:56:21Z</time></trkpt>
<trkpt lat="46.18274077" lon="6.07807187"><ele></ele><time>2014-10-8T9:56:24Z</time></trkpt>
<trkpt lat="46.18281763" lon="6.07803633"><ele></ele><time>2014-10-8T9:56:27Z</time></trkpt>
<trkpt lat="46.18289374" lon="6.07800046"><ele></ele><time>2014-10-8T9:56:30Z</time></trkpt>
<trkpt lat="46.18297035" lon="6.07796366"><ele></ele><time>2014-10-8T9:56:33Z</time></trkpt>
<trkpt lat="46.18304855" lon="6.07792703"><ele></ele><time>2014-10-8T9:56:36Z</time></trkpt>
<trkpt lat="46.18312474" lon="6.07789535"><ele></ele><time>2014-10-8T9:56:39Z</time></trkpt>
<trkpt lat="46.18320504" lon="6.07786048"><ele></ele><time>2014-10-8T9:56:42Z</time></trkpt>
<trkpt lat="46.18328777" lon="6.07782008"><ele></ele><time>2014-10-8T9:56:45Z</time></trkpt>
<trkpt lat="46.18337033" lon="6.07778069"><ele></ele><time>2014-10-8T9:56:48Z</time></trkpt>
<trkpt lat="46.18345398" lon="6.07774079"><ele></ele><time>2014-10-8T9:56:51Z</time></trkpt>
<trkpt lat="46.18353403" lon="6.07770626"><ele></ele><time>2014-10-8T9:56:54Z</time></trkpt>
<trkpt lat="46.18361534" lon="6.07766912"><ele></ele><time>2014-10-8T9:56:57Z</time></trkpt>
<trkpt lat="46.18369605" lon="6.07763082"><ele></ele><time>2014-10-8T9:57:0Z</time></trkpt>
<trkpt lat="46.18377585" lon="6.07759687"><ele></ele><time>2014-10-8T9:57:3Z</time></trkpt>
<trkpt lat="46.18385598" lon="6.07756779"><ele></ele><time>2014-10-8T9:57:6Z</time></trkpt>
<trkpt lat="46.18393837" lon="6.07754784"><ele></ele><time>2014-10-8T9:57:9Z</time></trkpt>
<trkpt lat="46.18402077" lon="6.07754893"><ele></ele><time>2014-10-8T9:57:12Z</time></trkpt>
<trkpt lat="46.18409989" lon="6.07757290"><ele></ele><time>2014-10-8T9:57:15Z</time></trkpt>
<trkpt lat="46.18417357" lon="6.07761523"><ele></ele><time>2014-10-8T9:57:18Z</time></trkpt>
<trkpt lat="46.18424465" lon="6.07766518"><ele></ele><time>2014-10-8T9:57:21Z</time></trkpt>
<trkpt lat="46.18431548" lon="6.07771413"><ele></ele><time>2014-10-8T9:57:24Z</time></trkpt>
<trkpt lat="46.18438689" lon="6.07776158"><ele></ele><time>2014-10-8T9:57:27Z</time></trkpt>
<trkpt lat="46.18445738" lon="6.07780918"><ele></ele><time>2014-10-8T9:57:30Z</time></trkpt>
<trkpt lat="46.18452502" lon="6.07785663"><ele></ele><time>2014-10-8T9:57:33Z</time></trkpt>
<trkpt lat="46.18459057" lon="6.07790239"><ele></ele><time>2014-10-8T9:57:36Z</time></trkpt>
<trkpt lat="46.18465520" lon="6.07794489"><ele></ele><time>2014-10-8T9:57:39Z</time></trkpt>
<trkpt lat="46.18471839" lon="6.07798529"><ele></ele><time>2014-10-8T9:57:42Z</time></trkpt>
<trkpt lat="46.18477916" lon="6.07802460"><ele></ele><time>2014-10-8T9:57:45Z</time></trkpt>
<trkpt lat="46.18483817" lon="6.07806190"><ele></ele><time>2014-10-8T9:57:48Z</time></trkpt>
<trkpt lat="46.18489693" lon="6.07809585"><ele></ele><time>2014-10-8T9:57:51Z</time></trkpt>
<trkpt lat="46.18495678" lon="6.07812728"><ele></ele><time>2014-10-8T9:57:54Z</time></trkpt>
<trkpt lat="46.18501830" lon="6.07815737"><ele></ele><time>2014-10-8T9:57:57Z</time></trkpt>
<trkpt lat="46.18508033" lon="6.07818746"><ele></ele><time>2014-10-8T9:58:0Z</time></trkpt>
<trkpt lat="46.18514386" lon="6.07821219"><ele></ele><time>2014-10-8T9:58:3Z</time></trkpt>
<trkpt lat="46.18520790" lon="6.07823247"><ele></ele><time>2014-10-8T9:58:6Z</time></trkpt>
<trkpt lat="46.18527177" lon="6.07825049"><ele></ele><time>2014-10-8T9:58:9Z</time></trkpt>
<trkpt lat="46.18533698" lon="6.07825695"><ele></ele><time>2014-10-8T9:58:12Z</time></trkpt>
<trkpt lat="46.18539959" lon="6.07826323"><ele></ele><time>2014-10-8T9:58:15Z</time></trkpt>
<trkpt lat="46.18546774" lon="6.07826600"><ele></ele><time>2014-10-8T9:58:18Z</time></trkpt>
<trkpt lat="46.18554393" lon="6.07826524"><ele></ele><time>2014-10-8T9:58:21Z</time></trkpt>
<trkpt lat="46.18563177" lon="6.07825653"><ele></ele><time>2014-10-8T9:58:24Z</time></trkpt>
<trkpt lat="46.18571668" lon="6.07824898"><ele></ele><time>2014-10-8T9:58:27Z</time></trkpt>
<trkpt lat="46.18580142" lon="6.07824815"><ele></ele><time>2014-10-8T9:58:30Z</time></trkpt>
<trkpt lat="46.18589044" lon="6.07825284"><ele></ele><time>2014-10-8T9:58:33Z</time></trkpt>
<trkpt lat="46.18598507" lon="6.07825695"><ele></ele><time>2014-10-8T9:58:36Z</time></trkpt>
<trkpt lat="46.18607844" lon="6.07826717"><ele></ele><time>2014-10-8T9:58:39Z</time></trkpt>
<trkpt lat="46.18616939" lon="6.07828016"><ele></ele><time>2014-10-8T9:58:42Z</time></trkpt>
<trkpt lat="46.18626016" lon="6.07829064"><ele></ele><time>2014-10-8T9:58:45Z</time></trkpt>
<trkpt lat="46.18634842" lon="6.07830036"><ele></ele><time>2014-10-8T9:58:48Z</time></trkpt>
<trkpt lat="46.18643459" lon="6.07830908"><ele></ele><time>2014-10-8T9:58:51Z</time></trkpt>
<trkpt lat="46.18651908" lon="6.07831688"><ele></ele><time>2014-10-8T9:58:54Z</time></trkpt>
<trkpt lat="46.18660315" lon="6.07832459"><ele></ele><time>2014-10-8T9:58:57Z</time></trkpt>
<trkpt lat="46.18668688" lon="6.07833062"><ele></ele><time>2014-10-8T9:59:0Z</time></trkpt>
<trkpt lat="46.18677003" lon="6.07833657"><ele></ele><time>2014-10-8T9:59:3Z</time></trkpt>
<trkpt lat="46.18685285" lon="6.07834294"><ele></ele><time>2014-10-8T9:59:6Z</time></trkpt>
<trkpt lat="46.18693499" lon="6.07834923"><ele></ele><time>2014-10-8T9:59:9Z</time></trkpt>
<trkpt lat="46.18701604" lon="6.07835359"><ele></ele><time>2014-10-8T9:59:12Z</time></trkpt>
<trkpt lat="46.18709626" lon="6.07835627"><ele></ele><time>2014-10-8T9:59:15Z</time></trkpt>
<trkpt lat="46.18717505" lon="6.07835946"><ele></ele><time>2014-10-8T9:59:18Z</time></trkpt>
<trkpt lat="46.18725208" lon="6.07836172"><ele></ele><time>2014-10-8T9:59:21Z</time></trkpt>
<trkpt lat="46.18732743" lon="6.07836365"><ele></ele><time>2014-10-8T9:59:24Z</time></trkpt>
<trkpt lat="46.18740153" lon="6.07836834"><ele></ele><time>2014-10-8T9:59:27Z</time></trkpt>
<trkpt lat="46.18747378" lon="6.07837664"><ele></ele><time>2014-10-8T9:59:30Z</time></trkpt>
<trkpt lat="46.18754444" lon="6.07839240"><ele></ele><time>2014-10-8T9:59:33Z</time></trkpt>
<trkpt lat="46.18761384" lon="6.07841662"><ele></ele><time>2014-10-8T9:59:36Z</time></trkpt>
<trkpt lat="46.18768022" lon="6.07844378"><ele></ele><time>2014-10-8T9:59:39Z</time></trkpt>
<trkpt lat="46.18774384" lon="6.07847395"><ele></ele><time>2014-10-8T9:59:42Z</time></trkpt>
<trkpt lat="46.18780595" lon="6.07850187"><ele></ele><time>2014-10-8T9:59:45Z</time></trkpt>
<trkpt lat="46.18786924" lon="6.07852123"><ele></ele><time>2014-10-8T9:59:48Z</time></trkpt>
<trkpt lat="46.18793512" lon="6.07853497"><ele></ele><time>2014-10-8T9:59:51Z</time></trkpt>
<trkpt lat="46.18799639" lon="6.07854704"><ele></ele><time>2014-10-8T9:59:54Z</time></trkpt>
<trkpt lat="46.18805347" lon="6.07855878"><ele></ele><time>2014-10-8T9:59:57Z</time></trkpt>
<trkpt lat="46.18811382" lon="6.07856096"><ele></ele><time>2014-10-8T10:0:0Z</time></trkpt>
<trkpt lat="46.18817182" lon="6.07856163"><ele></ele><time>2014-10-8T10:0:3Z</time></trkpt>
<trkpt lat="46.18822765" lon="6.07856490"><ele></ele><time>2014-10-8T10:0:6Z</time></trkpt>
<trkpt lat="46.18828297" lon="6.07856247"><ele></ele><time>2014-10-8T10:0:9Z</time></trkpt>
<trkpt lat="46.18834223" lon="6.07855149"><ele></ele><time>2014-10-8T10:0:12Z</time></trkpt>
<trkpt lat="46.18840149" lon="6.07853439"><ele></ele><time>2014-10-8T10:0:15Z</time></trkpt>
<trkpt lat="46.18846854" lon="6.07849868"><ele></ele><time>2014-10-8T10:0:18Z</time></trkpt>
<trkpt lat="46.18855404" lon="6.07843883"><ele></ele><time>2014-10-8T10:0:21Z</time></trkpt>
<trkpt lat="46.18864515" lon="6.07837446"><ele></ele><time>2014-10-8T10:0:24Z</time></trkpt>
<trkpt lat="46.18872754" lon="6.07831797"><ele></ele><time>2014-10-8T10:0:27Z</time></trkpt>
<trkpt lat="46.18880692" lon="6.07826533"><ele></ele><time>2014-10-8T10:0:30Z</time></trkpt>
<trkpt lat="46.18888319" lon="6.07821705"><ele></ele><time>2014-10-8T10:0:33Z</time></trkpt>
<trkpt lat="46.18895696" lon="6.07816994"><ele></ele><time>2014-10-8T10:0:36Z</time></trkpt>
<trkpt lat="46.18904036" lon="6.07811705"><ele></ele><time>2014-10-8T10:0:39Z</time></trkpt>
<trkpt lat="46.18911286" lon="6.07806919"><ele></ele><time>2014-10-8T10:0:42Z</time></trkpt>
<trkpt lat="46.18918343" lon="6.07802183"><ele></ele><time>2014-10-8T10:0:45Z</time></trkpt>
<trkpt lat="46.18925275" lon="6.07797422"><ele></ele><time>2014-10-8T10:0:48Z</time></trkpt>
<trkpt lat="46.18932132" lon="6.07792620"><ele></ele><time>2014-10-8T10:0:51Z</time></trkpt>
<trkpt lat="46.18938745" lon="6.07787825"><ele></ele><time>2014-10-8T10:0:54Z</time></trkpt>
<trkpt lat="46.18945258" lon="6.07783140"><ele></ele><time>2014-10-8T10:0:57Z</time></trkpt>
<trkpt lat="46.18951955" lon="6.07778563"><ele></ele><time>2014-10-8T10:1:0Z</time></trkpt>
<trkpt lat="46.18958652" lon="6.07774138"><ele></ele><time>2014-10-8T10:1:3Z</time></trkpt>
<trkpt lat="46.18965249" lon="6.07769762"><ele></ele><time>2014-10-8T10:1:6Z</time></trkpt>
<trkpt lat="46.18971786" lon="6.07765378"><ele></ele><time>2014-10-8T10:1:9Z</time></trkpt>
<trkpt lat="46.18978366" lon="6.07761003"><ele></ele><time>2014-10-8T10:1:12Z</time></trkpt>
<trkpt lat="46.18984938" lon="6.07756703"><ele></ele><time>2014-10-8T10:1:15Z</time></trkpt>
<trkpt lat="46.18991425" lon="6.07752328"><ele></ele><time>2014-10-8T10:1:18Z</time></trkpt>
<trkpt lat="46.18997846" lon="6.07747978"><ele></ele><time>2014-10-8T10:1:21Z</time></trkpt>
<trkpt lat="46.19004224" lon="6.07743619"><ele></ele><time>2014-10-8T10:1:24Z</time></trkpt>
<trkpt lat="46.19010586" lon="6.07739235"><ele></ele><time>2014-10-8T10:1:27Z</time></trkpt>
<trkpt lat="46.19016889" lon="6.07734944"><ele></ele><time>2014-10-8T10:1:30Z</time></trkpt>
<trkpt lat="46.19023084" lon="6.07730669"><ele></ele><time>2014-10-8T10:1:33Z</time></trkpt>
<trkpt lat="46.19029253" lon="6.07726352"><ele></ele><time>2014-10-8T10:1:36Z</time></trkpt>
<trkpt lat="46.19035522" lon="6.07722279"><ele></ele><time>2014-10-8T10:1:39Z</time></trkpt>
<trkpt lat="46.19041943" lon="6.07718314"><ele></ele><time>2014-10-8T10:1:42Z</time></trkpt>
<trkpt lat="46.19048472" lon="6.07714232"><ele></ele><time>2014-10-8T10:1:45Z</time></trkpt>
<trkpt lat="46.19055103" lon="6.07710016"><ele></ele><time>2014-10-8T10:1:48Z</time></trkpt>
<trkpt lat="46.19061825" lon="6.07705733"><ele></ele><time>2014-10-8T10:1:51Z</time></trkpt>
<trkpt lat="46.19068706" lon="6.07701316"><ele></ele><time>2014-10-8T10:1:54Z</time></trkpt>
<trkpt lat="46.19075739" lon="6.07696789"><ele></ele><time>2014-10-8T10:1:57Z</time></trkpt>
<trkpt lat="46.19082855" lon="6.07692146"><ele></ele><time>2014-10-8T10:2:0Z</time></trkpt>
<trkpt lat="46.19090072" lon="6.07687477"><ele></ele><time>2014-10-8T10:2:3Z</time></trkpt>
<trkpt lat="46.19097440" lon="6.07682867"><ele></ele><time>2014-10-8T10:2:6Z</time></trkpt>
<trkpt lat="46.19104866" lon="6.07678282"><ele></ele><time>2014-10-8T10:2:9Z</time></trkpt>
<trkpt lat="46.19112519" lon="6.07673203"><ele></ele><time>2014-10-8T10:2:12Z</time></trkpt>
<trkpt lat="46.19120012" lon="6.07667863"><ele></ele><time>2014-10-8T10:2:15Z</time></trkpt>
<trkpt lat="46.19127179" lon="6.07662088"><ele></ele><time>2014-10-8T10:2:18Z</time></trkpt>
<trkpt lat="46.19133918" lon="6.07655768"><ele></ele><time>2014-10-8T10:2:21Z</time></trkpt>
<trkpt lat="46.19140313" lon="6.07649080"><ele></ele><time>2014-10-8T10:2:24Z</time></trkpt>
<trkpt lat="46.19146583" lon="6.07642248"><ele></ele><time>2014-10-8T10:2:27Z</time></trkpt>
<trkpt lat="46.19152634" lon="6.07635509"><ele></ele><time>2014-10-8T10:2:30Z</time></trkpt>
<trkpt lat="46.19158468" lon="6.07628879"><ele></ele><time>2014-10-8T10:2:33Z</time></trkpt>
<trkpt lat="46.19164025" lon="6.07622400"><ele></ele><time>2014-10-8T10:2:36Z</time></trkpt>
<trkpt lat="46.19169398" lon="6.07616197"><ele></ele><time>2014-10-8T10:2:39Z</time></trkpt>
<trkpt lat="46.19174679" lon="6.07610187"><ele></ele><time>2014-10-8T10:2:42Z</time></trkpt>
<trkpt lat="46.19179892" lon="6.07604178"><ele></ele><time>2014-10-8T10:2:45Z</time></trkpt>
<trkpt lat="46.19185114" lon="6.07598042"><ele></ele><time>2014-10-8T10:2:48Z</time></trkpt>
<trkpt lat="46.19190479" lon="6.07591898"><ele></ele><time>2014-10-8T10:2:51Z</time></trkpt>
<trkpt lat="46.19196002" lon="6.07585696"><ele></ele><time>2014-10-8T10:2:54Z</time></trkpt>
<trkpt lat="46.19201677" lon="6.07579317"><ele></ele><time>2014-10-8T10:2:57Z</time></trkpt>
<trkpt lat="46.19207368" lon="6.07572779"><ele></ele><time>2014-10-8T10:3:0Z</time></trkpt>
<trkpt lat="46.19213060" lon="6.07566199"><ele></ele><time>2014-10-8T10:3:3Z</time></trkpt>
<trkpt lat="46.19218768" lon="6.07559728"><ele></ele><time>2014-10-8T10:3:6Z</time></trkpt>
<trkpt lat="46.19224367" lon="6.07553249"><ele></ele><time>2014-10-8T10:3:9Z</time></trkpt>
<trkpt lat="46.19229832" lon="6.07546879"><ele></ele><time>2014-10-8T10:3:12Z</time></trkpt>
<trkpt lat="46.19235263" lon="6.07540752"><ele></ele><time>2014-10-8T10:3:15Z</time></trkpt>
<trkpt lat="46.19240703" lon="6.07534683"><ele></ele><time>2014-10-8T10:3:18Z</time></trkpt>
<trkpt lat="46.19246009" lon="6.07528573"><ele></ele><time>2014-10-8T10:3:21Z</time></trkpt>
<trkpt lat="46.19251197" lon="6.07522345"><ele></ele><time>2014-10-8T10:3:24Z</time></trkpt>
<trkpt lat="46.19256344" lon="6.07516293"><ele></ele><time>2014-10-8T10:3:27Z</time></trkpt>
<trkpt lat="46.19261306" lon="6.07510485"><ele></ele><time>2014-10-8T10:3:30Z</time></trkpt>
<trkpt lat="46.19266125" lon="6.07504944"><ele></ele><time>2014-10-8T10:3:33Z</time></trkpt>
<trkpt lat="46.19270870" lon="6.07499714"><ele></ele><time>2014-10-8T10:3:36Z</time></trkpt>
<trkpt lat="46.19275555" lon="6.07494802"><ele></ele><time>2014-10-8T10:3:39Z</time></trkpt>
<trkpt lat="46.19280090" lon="6.07489949"><ele></ele><time>2014-10-8T10:3:42Z</time></trkpt>
<trkpt lat="46.19284406" lon="6.07484845"><ele></ele><time>2014-10-8T10:3:45Z</time></trkpt>
<trkpt lat="46.19288480" lon="6.07479522"><ele></ele><time>2014-10-8T10:3:48Z</time></trkpt>
<trkpt lat="46.19292319" lon="6.07474199"><ele></ele><time>2014-10-8T10:3:51Z</time></trkpt>
<trkpt lat="46.19296133" lon="6.07468969"><ele></ele><time>2014-10-8T10:3:54Z</time></trkpt>
<trkpt lat="46.19300089" lon="6.07463823"><ele></ele><time>2014-10-8T10:3:57Z</time></trkpt>
<trkpt lat="46.19304338" lon="6.07458785"><ele></ele><time>2014-10-8T10:4:0Z</time></trkpt>
<trkpt lat="46.19308580" lon="6.07453714"><ele></ele><time>2014-10-8T10:4:3Z</time></trkpt>
<trkpt lat="46.19312913" lon="6.07448517"><ele></ele><time>2014-10-8T10:4:6Z</time></trkpt>
<trkpt lat="46.19317247" lon="6.07443756"><ele></ele><time>2014-10-8T10:4:9Z</time></trkpt>
<trkpt lat="46.19321806" lon="6.07438702"><ele></ele><time>2014-10-8T10:4:12Z</time></trkpt>
<trkpt lat="46.19326743" lon="6.07433489"><ele></ele><time>2014-10-8T10:4:15Z</time></trkpt>
<trkpt lat="46.19331747" lon="6.07428233"><ele></ele><time>2014-10-8T10:4:18Z</time></trkpt>
<trkpt lat="46.19336559" lon="6.07422919"><ele></ele><time>2014-10-8T10:4:21Z</time></trkpt>
<trkpt lat="46.19340909" lon="6.07417865"><ele></ele><time>2014-10-8T10:4:24Z</time></trkpt>
<trkpt lat="46.19345225" lon="6.07412869"><ele></ele><time>2014-10-8T10:4:27Z</time></trkpt>
<trkpt lat="46.19350020" lon="6.07407572"><ele></ele><time>2014-10-8T10:4:30Z</time></trkpt>
<trkpt lat="46.19354613" lon="6.07402174"><ele></ele><time>2014-10-8T10:4:33Z</time></trkpt>
<trkpt lat="46.19359156" lon="6.07397036"><ele></ele><time>2014-10-8T10:4:36Z</time></trkpt>
<trkpt lat="46.19363942" lon="6.07392074"><ele></ele><time>2014-10-8T10:4:39Z</time></trkpt>
<trkpt lat="46.19368728" lon="6.07386936"><ele></ele><time>2014-10-8T10:4:42Z</time></trkpt>
<trkpt lat="46.19373397" lon="6.07381487"><ele></ele><time>2014-10-8T10:4:45Z</time></trkpt>
<trkpt lat="46.19378208" lon="6.07376156"><ele></ele><time>2014-10-8T10:4:48Z</time></trkpt>
<trkpt lat="46.19382952" lon="6.07370993"><ele></ele><time>2014-10-8T10:4:51Z</time></trkpt>
<trkpt lat="46.19387529" lon="6.07366224"><ele></ele><time>2014-10-8T10:4:54Z</time></trkpt>
<trkpt lat="46.19392323" lon="6.07361563"><ele></ele><time>2014-10-8T10:4:57Z</time></trkpt>
<trkpt lat="46.19397319" lon="6.07356744"><ele></ele><time>2014-10-8T10:5:0Z</time></trkpt>
<trkpt lat="46.19401988" lon="6.07351757"><ele></ele><time>2014-10-8T10:5:3Z</time></trkpt>
<trkpt lat="46.19406698" lon="6.07346325"><ele></ele><time>2014-10-8T10:5:6Z</time></trkpt>
<trkpt lat="46.19411694" lon="6.07340952"><ele></ele><time>2014-10-8T10:5:9Z</time></trkpt>
<trkpt lat="46.19416589" lon="6.07335689"><ele></ele><time>2014-10-8T10:5:12Z</time></trkpt>
<trkpt lat="46.19421308" lon="6.07330458"><ele></ele><time>2014-10-8T10:5:15Z</time></trkpt>
<trkpt lat="46.19425859" lon="6.07325253"><ele></ele><time>2014-10-8T10:5:18Z</time></trkpt>
<trkpt lat="46.19430318" lon="6.07319998"><ele></ele><time>2014-10-8T10:5:21Z</time></trkpt>
<trkpt lat="46.19434685" lon="6.07314449"><ele></ele><time>2014-10-8T10:5:24Z</time></trkpt>
<trkpt lat="46.19439002" lon="6.07309327"><ele></ele><time>2014-10-8T10:5:27Z</time></trkpt>
<trkpt lat="46.19443998" lon="6.07304273"><ele></ele><time>2014-10-8T10:5:30Z</time></trkpt>
<trkpt lat="46.19448943" lon="6.07299034"><ele></ele><time>2014-10-8T10:5:33Z</time></trkpt>
<trkpt lat="46.19453830" lon="6.07294399"><ele></ele><time>2014-10-8T10:5:36Z</time></trkpt>
<trkpt lat="46.19459219" lon="6.07289052"><ele></ele><time>2014-10-8T10:5:39Z</time></trkpt>
<trkpt lat="46.19463645" lon="6.07283645"><ele></ele><time>2014-10-8T10:5:42Z</time></trkpt>
<trkpt lat="46.19468423" lon="6.07278155"><ele></ele><time>2014-10-8T10:5:45Z</time></trkpt>
<trkpt lat="46.19473259" lon="6.07272606"><ele></ele><time>2014-10-8T10:5:48Z</time></trkpt>
<trkpt lat="46.19478523" lon="6.07266974"><ele></ele><time>2014-10-8T10:5:51Z</time></trkpt>
<trkpt lat="46.19483217" lon="6.07261844"><ele></ele><time>2014-10-8T10:5:54Z</time></trkpt>
<trkpt lat="46.19488237" lon="6.07256513"><ele></ele><time>2014-10-8T10:5:57Z</time></trkpt>
<trkpt lat="46.19492579" lon="6.07251409"><ele></ele><time>2014-10-8T10:6:0Z</time></trkpt>
<trkpt lat="46.19496762" lon="6.07246388"><ele></ele><time>2014-10-8T10:6:3Z</time></trkpt>
<trkpt lat="46.19501087" lon="6.07241275"><ele></ele><time>2014-10-8T10:6:6Z</time></trkpt>
<trkpt lat="46.19504440" lon="6.07236497"><ele></ele><time>2014-10-8T10:6:9Z</time></trkpt>
<trkpt lat="46.19508346" lon="6.07233102"><ele></ele><time>2014-10-8T10:6:12Z</time></trkpt>
<trkpt lat="46.19512327" lon="6.07234376"><ele></ele><time>2014-10-8T10:6:15Z</time></trkpt>
<trkpt lat="46.19515956" lon="6.07238123"><ele></ele><time>2014-10-8T10:6:18Z</time></trkpt>
<trkpt lat="46.19517826" lon="6.07244175"><ele></ele><time>2014-10-8T10:6:21Z</time></trkpt>
<trkpt lat="46.19520072" lon="6.07250537"><ele></ele><time>2014-10-8T10:6:24Z</time></trkpt>
<trkpt lat="46.19523014" lon="6.07257125"><ele></ele><time>2014-10-8T10:6:27Z</time></trkpt>
<trkpt lat="46.19526308" lon="6.07264124"><ele></ele><time>2014-10-8T10:6:30Z</time></trkpt>
<trkpt lat="46.19529753" lon="6.07271399"><ele></ele><time>2014-10-8T10:6:33Z</time></trkpt>
<trkpt lat="46.19533215" lon="6.07278960"><ele></ele><time>2014-10-8T10:6:36Z</time></trkpt>
<trkpt lat="46.19536609" lon="6.07286755"><ele></ele><time>2014-10-8T10:6:39Z</time></trkpt>
<trkpt lat="46.19539753" lon="6.07294743"><ele></ele><time>2014-10-8T10:6:42Z</time></trkpt>
<trkpt lat="46.19542804" lon="6.07302639"><ele></ele><time>2014-10-8T10:6:45Z</time></trkpt>
<trkpt lat="46.19545897" lon="6.07310182"><ele></ele><time>2014-10-8T10:6:48Z</time></trkpt>
<trkpt lat="46.19549048" lon="6.07317500"><ele></ele><time>2014-10-8T10:6:51Z</time></trkpt>
<trkpt lat="46.19552275" lon="6.07324742"><ele></ele><time>2014-10-8T10:6:54Z</time></trkpt>
<trkpt lat="46.19555628" lon="6.07331975"><ele></ele><time>2014-10-8T10:6:57Z</time></trkpt>
<trkpt lat="46.19559299" lon="6.07338832"><ele></ele><time>2014-10-8T10:7:0Z</time></trkpt>
<trkpt lat="46.19563172" lon="6.07345353"><ele></ele><time>2014-10-8T10:7:3Z</time></trkpt>
<trkpt lat="46.19567027" lon="6.07351949"><ele></ele><time>2014-10-8T10:7:6Z</time></trkpt>
<trkpt lat="46.19570933" lon="6.07358538"><ele></ele><time>2014-10-8T10:7:9Z</time></trkpt>
<trkpt lat="46.19574915" lon="6.07365143"><ele></ele><time>2014-10-8T10:7:12Z</time></trkpt>
<trkpt lat="46.19579022" lon="6.07371664"><ele></ele><time>2014-10-8T10:7:15Z</time></trkpt>
<trkpt lat="46.19583288" lon="6.07378193"><ele></ele><time>2014-10-8T10:7:18Z</time></trkpt>
<trkpt lat="46.19587714" lon="6.07384756"><ele></ele><time>2014-10-8T10:7:21Z</time></trkpt>
<trkpt lat="46.19592198" lon="6.07391403"><ele></ele><time>2014-10-8T10:7:24Z</time></trkpt>
<trkpt lat="46.19596758" lon="6.07397974"><ele></ele><time>2014-10-8T10:7:27Z</time></trkpt>
<trkpt lat="46.19601343" lon="6.07404504"><ele></ele><time>2014-10-8T10:7:30Z</time></trkpt>
<trkpt lat="46.19605986" lon="6.07411067"><ele></ele><time>2014-10-8T10:7:33Z</time></trkpt>
<trkpt lat="46.19610747" lon="6.07417555"><ele></ele><time>2014-10-8T10:7:36Z</time></trkpt>
<trkpt lat="46.19615533" lon="6.07424235"><ele></ele><time>2014-10-8T10:7:39Z</time></trkpt>
<trkpt lat="46.19620353" lon="6.07430966"><ele></ele><time>2014-10-8T10:7:42Z</time></trkpt>
<trkpt lat="46.19625206" lon="6.07437747"><ele></ele><time>2014-10-8T10:7:45Z</time></trkpt>
<trkpt lat="46.19630177" lon="6.07444595"><ele></ele><time>2014-10-8T10:7:48Z</time></trkpt>
<trkpt lat="46.19635256" lon="6.07451619"><ele></ele><time>2014-10-8T10:7:51Z</time></trkpt>
<trkpt lat="46.19640537" lon="6.07458819"><ele></ele><time>2014-10-8T10:7:54Z</time></trkpt>
<trkpt lat="46.19646052" lon="6.07466304"><ele></ele><time>2014-10-8T10:7:57Z</time></trkpt>
<trkpt lat="46.19651693" lon="6.07474107"><ele></ele><time>2014-10-8T10:8:0Z</time></trkpt>
<trkpt lat="46.19657376" lon="6.07481902"><ele></ele><time>2014-10-8T10:8:3Z</time></trkpt>
<trkpt lat="46.19662983" lon="6.07489488"><ele></ele><time>2014-10-8T10:8:6Z</time></trkpt>
<trkpt lat="46.19668482" lon="6.07496965"><ele></ele><time>2014-10-8T10:8:9Z</time></trkpt>
<trkpt lat="46.19673922" lon="6.07504383"><ele></ele><time>2014-10-8T10:8:12Z</time></trkpt>
<trkpt lat="46.19679387" lon="6.07511792"><ele></ele><time>2014-10-8T10:8:15Z</time></trkpt>
<trkpt lat="46.19684877" lon="6.07519286"><ele></ele><time>2014-10-8T10:8:18Z</time></trkpt>
<trkpt lat="46.19690417" lon="6.07526813"><ele></ele><time>2014-10-8T10:8:21Z</time></trkpt>
<trkpt lat="46.19696016" lon="6.07534348"><ele></ele><time>2014-10-8T10:8:24Z</time></trkpt>
<trkpt lat="46.19701666" lon="6.07541892"><ele></ele><time>2014-10-8T10:8:27Z</time></trkpt>
<trkpt lat="46.19707273" lon="6.07549377"><ele></ele><time>2014-10-8T10:8:30Z</time></trkpt>
<trkpt lat="46.19712772" lon="6.07556744"><ele></ele><time>2014-10-8T10:8:33Z</time></trkpt>
<trkpt lat="46.19718120" lon="6.07564062"><ele></ele><time>2014-10-8T10:8:36Z</time></trkpt>
<trkpt lat="46.19723333" lon="6.07571597"><ele></ele><time>2014-10-8T10:8:39Z</time></trkpt>
<trkpt lat="46.19728588" lon="6.07579024"><ele></ele><time>2014-10-8T10:8:42Z</time></trkpt>
<trkpt lat="46.19733844" lon="6.07586324"><ele></ele><time>2014-10-8T10:8:45Z</time></trkpt>
<trkpt lat="46.19739074" lon="6.07593575"><ele></ele><time>2014-10-8T10:8:48Z</time></trkpt>
<trkpt lat="46.19744296" lon="6.07600800"><ele></ele><time>2014-10-8T10:8:51Z</time></trkpt>
<trkpt lat="46.19749468" lon="6.07608008"><ele></ele><time>2014-10-8T10:8:54Z</time></trkpt>
<trkpt lat="46.19754564" lon="6.07615217"><ele></ele><time>2014-10-8T10:8:57Z</time></trkpt>
<trkpt lat="46.19759610" lon="6.07622358"><ele></ele><time>2014-10-8T10:9:0Z</time></trkpt>
<trkpt lat="46.19764622" lon="6.07629349"><ele></ele><time>2014-10-8T10:9:3Z</time></trkpt>
<trkpt lat="46.19769618" lon="6.07636222"><ele></ele><time>2014-10-8T10:9:6Z</time></trkpt>
<trkpt lat="46.19774546" lon="6.07643053"><ele></ele><time>2014-10-8T10:9:9Z</time></trkpt>
<trkpt lat="46.19779416" lon="6.07649826"><ele></ele><time>2014-10-8T10:9:12Z</time></trkpt>
<trkpt lat="46.19784202" lon="6.07656548"><ele></ele><time>2014-10-8T10:9:15Z</time></trkpt>
<trkpt lat="46.19788880" lon="6.07663346"><ele></ele><time>2014-10-8T10:9:18Z</time></trkpt>
<trkpt lat="46.19793339" lon="6.07670353"><ele></ele><time>2014-10-8T10:9:21Z</time></trkpt>
<trkpt lat="46.19797789" lon="6.07677318"><ele></ele><time>2014-10-8T10:9:24Z</time></trkpt>
<trkpt lat="46.19802383" lon="6.07683906"><ele></ele><time>2014-10-8T10:9:27Z</time></trkpt>
<trkpt lat="46.19807010" lon="6.07690302"><ele></ele><time>2014-10-8T10:9:30Z</time></trkpt>
<trkpt lat="46.19811502" lon="6.07696664"><ele></ele><time>2014-10-8T10:9:33Z</time></trkpt>
<trkpt lat="46.19815995" lon="6.07702757"><ele></ele><time>2014-10-8T10:9:36Z</time></trkpt>
<trkpt lat="46.19820412" lon="6.07708692"><ele></ele><time>2014-10-8T10:9:39Z</time></trkpt>
<trkpt lat="46.19824679" lon="6.07714626"><ele></ele><time>2014-10-8T10:9:42Z</time></trkpt>
<trkpt lat="46.19828853" lon="6.07720502"><ele></ele><time>2014-10-8T10:9:45Z</time></trkpt>
<trkpt lat="46.19832767" lon="6.07726436"><ele></ele><time>2014-10-8T10:9:48Z</time></trkpt>
<trkpt lat="46.19836162" lon="6.07732806"><ele></ele><time>2014-10-8T10:9:51Z</time></trkpt>
<trkpt lat="46.19839003" lon="6.07739805"><ele></ele><time>2014-10-8T10:9:54Z</time></trkpt>
<trkpt lat="46.19841308" lon="6.07747408"><ele></ele><time>2014-10-8T10:9:57Z</time></trkpt>
<trkpt lat="46.19842985" lon="6.07755605"><ele></ele><time>2014-10-8T10:10:0Z</time></trkpt>
<trkpt lat="46.19843815" lon="6.07764272"><ele></ele><time>2014-10-8T10:10:3Z</time></trkpt>
<trkpt lat="46.19843672" lon="6.07773199"><ele></ele><time>2014-10-8T10:10:6Z</time></trkpt>
<trkpt lat="46.19842792" lon="6.07782184"><ele></ele><time>2014-10-8T10:10:9Z</time></trkpt>
<trkpt lat="46.19841644" lon="6.07791195"><ele></ele><time>2014-10-8T10:10:12Z</time></trkpt>
<trkpt lat="46.19840554" lon="6.07800297"><ele></ele><time>2014-10-8T10:10:15Z</time></trkpt>
<trkpt lat="46.19839515" lon="6.07809266"><ele></ele><time>2014-10-8T10:10:18Z</time></trkpt>
<trkpt lat="46.19838433" lon="6.07818067"><ele></ele><time>2014-10-8T10:10:21Z</time></trkpt>
<trkpt lat="46.19837402" lon="6.07826767"><ele></ele><time>2014-10-8T10:10:24Z</time></trkpt>
<trkpt lat="46.19836388" lon="6.07835376"><ele></ele><time>2014-10-8T10:10:27Z</time></trkpt>
<trkpt lat="46.19835332" lon="6.07843875"><ele></ele><time>2014-10-8T10:10:30Z</time></trkpt>
<trkpt lat="46.19834309" lon="6.07852274"><ele></ele><time>2014-10-8T10:10:33Z</time></trkpt>
<trkpt lat="46.19833354" lon="6.07860572"><ele></ele><time>2014-10-8T10:10:36Z</time></trkpt>
<trkpt lat="46.19832407" lon="6.07868744"><ele></ele><time>2014-10-8T10:10:39Z</time></trkpt>
<trkpt lat="46.19831418" lon="6.07876757"><ele></ele><time>2014-10-8T10:10:42Z</time></trkpt>
<trkpt lat="46.19830437" lon="6.07884670"><ele></ele><time>2014-10-8T10:10:45Z</time></trkpt>
<trkpt lat="46.19829456" lon="6.07892465"><ele></ele><time>2014-10-8T10:10:48Z</time></trkpt>
<trkpt lat="46.19828476" lon="6.07900218"><ele></ele><time>2014-10-8T10:10:51Z</time></trkpt>
<trkpt lat="46.19827528" lon="6.07907929"><ele></ele><time>2014-10-8T10:10:54Z</time></trkpt>
<trkpt lat="46.19826606" lon="6.07915658"><ele></ele><time>2014-10-8T10:10:57Z</time></trkpt>
<trkpt lat="46.19825793" lon="6.07923369"><ele></ele><time>2014-10-8T10:11:0Z</time></trkpt>
<trkpt lat="46.19825014" lon="6.07931122"><ele></ele><time>2014-10-8T10:11:3Z</time></trkpt>
<trkpt lat="46.19824234" lon="6.07938507"><ele></ele><time>2014-10-8T10:11:6Z</time></trkpt>
<trkpt lat="46.19823237" lon="6.07945774"><ele></ele><time>2014-10-8T10:11:9Z</time></trkpt>
<trkpt lat="46.19821904" lon="6.07952848"><ele></ele><time>2014-10-8T10:11:12Z</time></trkpt>
<trkpt lat="46.19820404" lon="6.07959780"><ele></ele><time>2014-10-8T10:11:15Z</time></trkpt>
<trkpt lat="46.19818929" lon="6.07966628"><ele></ele><time>2014-10-8T10:11:18Z</time></trkpt>
<trkpt lat="46.19817596" lon="6.07973384"><ele></ele><time>2014-10-8T10:11:21Z</time></trkpt>
<trkpt lat="46.19816389" lon="6.07980198"><ele></ele><time>2014-10-8T10:11:24Z</time></trkpt>
<trkpt lat="46.19815316" lon="6.07987155"><ele></ele><time>2014-10-8T10:11:27Z</time></trkpt>
<trkpt lat="46.19814704" lon="6.07994230"><ele></ele><time>2014-10-8T10:11:30Z</time></trkpt>
<trkpt lat="46.19814788" lon="6.08001329"><ele></ele><time>2014-10-8T10:11:33Z</time></trkpt>
<trkpt lat="46.19815039" lon="6.08008772"><ele></ele><time>2014-10-8T10:11:36Z</time></trkpt>
<trkpt lat="46.19815266" lon="6.08016475"><ele></ele><time>2014-10-8T10:11:39Z</time></trkpt>
<trkpt lat="46.19815484" lon="6.08024220"><ele></ele><time>2014-10-8T10:11:42Z</time></trkpt>
<trkpt lat="46.19815660" lon="6.08031864"><ele></ele><time>2014-10-8T10:11:45Z</time></trkpt>
<trkpt lat="46.19815903" lon="6.08039458"><ele></ele><time>2014-10-8T10:11:48Z</time></trkpt>
<trkpt lat="46.19816179" lon="6.08046935"><ele></ele><time>2014-10-8T10:11:51Z</time></trkpt>
<trkpt lat="46.19816582" lon="6.08054495"><ele></ele><time>2014-10-8T10:11:54Z</time></trkpt>
<trkpt lat="46.19817085" lon="6.08062006"><ele></ele><time>2014-10-8T10:11:57Z</time></trkpt>
<trkpt lat="46.19817579" lon="6.08069348"><ele></ele><time>2014-10-8T10:12:0Z</time></trkpt>
<trkpt lat="46.19818057" lon="6.08076699"><ele></ele><time>2014-10-8T10:12:3Z</time></trkpt>
<trkpt lat="46.19818686" lon="6.08084016"><ele></ele><time>2014-10-8T10:12:6Z</time></trkpt>
<trkpt lat="46.19819314" lon="6.08091434"><ele></ele><time>2014-10-8T10:12:9Z</time></trkpt>
<trkpt lat="46.19819834" lon="6.08099028"><ele></ele><time>2014-10-8T10:12:12Z</time></trkpt>
<trkpt lat="46.19820395" lon="6.08106622"><ele></ele><time>2014-10-8T10:12:15Z</time></trkpt>
<trkpt lat="46.19820865" lon="6.08114183"><ele></ele><time>2014-10-8T10:12:18Z</time></trkpt>
<trkpt lat="46.19821343" lon="6.08121752"><ele></ele><time>2014-10-8T10:12:21Z</time></trkpt>
<trkpt lat="46.19821628" lon="6.08129363"><ele></ele><time>2014-10-8T10:12:24Z</time></trkpt>
<trkpt lat="46.19822156" lon="6.08136772"><ele></ele><time>2014-10-8T10:12:27Z</time></trkpt>
<trkpt lat="46.19822483" lon="6.08144115"><ele></ele><time>2014-10-8T10:12:30Z</time></trkpt>
<trkpt lat="46.19822918" lon="6.08151264"><ele></ele><time>2014-10-8T10:12:33Z</time></trkpt>
<trkpt lat="46.19823472" lon="6.08158196"><ele></ele><time>2014-10-8T10:12:36Z</time></trkpt>
<trkpt lat="46.19823849" lon="6.08165287"><ele></ele><time>2014-10-8T10:12:39Z</time></trkpt>
<trkpt lat="46.19824260" lon="6.08172278"><ele></ele><time>2014-10-8T10:12:42Z</time></trkpt>
<trkpt lat="46.19824628" lon="6.08179369"><ele></ele><time>2014-10-8T10:12:45Z</time></trkpt>
<trkpt lat="46.19824938" lon="6.08186536"><ele></ele><time>2014-10-8T10:12:48Z</time></trkpt>
<trkpt lat="46.19825475" lon="6.08193694"><ele></ele><time>2014-10-8T10:12:51Z</time></trkpt>
<trkpt lat="46.19826439" lon="6.08200634"><ele></ele><time>2014-10-8T10:12:54Z</time></trkpt>
<trkpt lat="46.19827847" lon="6.08207339"><ele></ele><time>2014-10-8T10:12:57Z</time></trkpt>
<trkpt lat="46.19829808" lon="6.08213626"><ele></ele><time>2014-10-8T10:13:0Z</time></trkpt>
<trkpt lat="46.19832298" lon="6.08219435"><ele></ele><time>2014-10-8T10:13:3Z</time></trkpt>
<trkpt lat="46.19835089" lon="6.08224900"><ele></ele><time>2014-10-8T10:13:6Z</time></trkpt>
<trkpt lat="46.19838006" lon="6.08230197"><ele></ele><time>2014-10-8T10:13:9Z</time></trkpt>
<trkpt lat="46.19840940" lon="6.08235503"><ele></ele><time>2014-10-8T10:13:12Z</time></trkpt>
<trkpt lat="46.19843789" lon="6.08240942"><ele></ele><time>2014-10-8T10:13:15Z</time></trkpt>
<trkpt lat="46.19846715" lon="6.08246483"><ele></ele><time>2014-10-8T10:13:18Z</time></trkpt>
<trkpt lat="46.19849824" lon="6.08252032"><ele></ele><time>2014-10-8T10:13:21Z</time></trkpt>
<trkpt lat="46.19853035" lon="6.08257706"><ele></ele><time>2014-10-8T10:13:24Z</time></trkpt>
<trkpt lat="46.19856228" lon="6.08263507"><ele></ele><time>2014-10-8T10:13:27Z</time></trkpt>
<trkpt lat="46.19859438" lon="6.08269324"><ele></ele><time>2014-10-8T10:13:30Z</time></trkpt>
<trkpt lat="46.19862732" lon="6.08275074"><ele></ele><time>2014-10-8T10:13:33Z</time></trkpt>
<trkpt lat="46.19866094" lon="6.08280798"><ele></ele><time>2014-10-8T10:13:36Z</time></trkpt>
<trkpt lat="46.19869413" lon="6.08286607"><ele></ele><time>2014-10-8T10:13:39Z</time></trkpt>
<trkpt lat="46.19872699" lon="6.08292500"><ele></ele><time>2014-10-8T10:13:42Z</time></trkpt>
<trkpt lat="46.19875976" lon="6.08298417"><ele></ele><time>2014-10-8T10:13:45Z</time></trkpt>
<trkpt lat="46.19879253" lon="6.08304393"><ele></ele><time>2014-10-8T10:13:48Z</time></trkpt>
<trkpt lat="46.19882564" lon="6.08310437"><ele></ele><time>2014-10-8T10:13:51Z</time></trkpt>
<trkpt lat="46.19885875" lon="6.08316430"><ele></ele><time>2014-10-8T10:13:54Z</time></trkpt>
<trkpt lat="46.19889186" lon="6.08322389"><ele></ele><time>2014-10-8T10:13:57Z</time></trkpt>
<trkpt lat="46.19892606" lon="6.08328299"><ele></ele><time>2014-10-8T10:14:0Z</time></trkpt>
<trkpt lat="46.19895933" lon="6.08334200"><ele></ele><time>2014-10-8T10:14:3Z</time></trkpt>
<trkpt lat="46.19899328" lon="6.08339933"><ele></ele><time>2014-10-8T10:14:6Z</time></trkpt>
<trkpt lat="46.19902764" lon="6.08345616"><ele></ele><time>2014-10-8T10:14:9Z</time></trkpt>
<trkpt lat="46.19906235" lon="6.08351617"><ele></ele><time>2014-10-8T10:14:12Z</time></trkpt>
<trkpt lat="46.19909529" lon="6.08357669"><ele></ele><time>2014-10-8T10:14:15Z</time></trkpt>
<trkpt lat="46.19912806" lon="6.08363804"><ele></ele><time>2014-10-8T10:14:18Z</time></trkpt>
<trkpt lat="46.19916175" lon="6.08369915"><ele></ele><time>2014-10-8T10:14:21Z</time></trkpt>
<trkpt lat="46.19919453" lon="6.08376059"><ele></ele><time>2014-10-8T10:14:24Z</time></trkpt>
<trkpt lat="46.19922764" lon="6.08382228"><ele></ele><time>2014-10-8T10:14:27Z</time></trkpt>
<trkpt lat="46.19926133" lon="6.08388296"><ele></ele><time>2014-10-8T10:14:30Z</time></trkpt>
<trkpt lat="46.19929545" lon="6.08394264"><ele></ele><time>2014-10-8T10:14:33Z</time></trkpt>
<trkpt lat="46.19932956" lon="6.08400266"><ele></ele><time>2014-10-8T10:14:36Z</time></trkpt>
<trkpt lat="46.19936443" lon="6.08406292"><ele></ele><time>2014-10-8T10:14:39Z</time></trkpt>
<trkpt lat="46.19939930" lon="6.08412595"><ele></ele><time>2014-10-8T10:14:42Z</time></trkpt>
<trkpt lat="46.19943249" lon="6.08419175"><ele></ele><time>2014-10-8T10:14:45Z</time></trkpt>
<trkpt lat="46.19946619" lon="6.08425856"><ele></ele><time>2014-10-8T10:14:48Z</time></trkpt>
<trkpt lat="46.19950122" lon="6.08432586"><ele></ele><time>2014-10-8T10:14:51Z</time></trkpt>
<trkpt lat="46.19953743" lon="6.08439342"><ele></ele><time>2014-10-8T10:14:54Z</time></trkpt>
<trkpt lat="46.19957448" lon="6.08446056"><ele></ele><time>2014-10-8T10:14:57Z</time></trkpt>
<trkpt lat="46.19961312" lon="6.08452653"><ele></ele><time>2014-10-8T10:15:0Z</time></trkpt>
<trkpt lat="46.19964866" lon="6.08459467"><ele></ele><time>2014-10-8T10:15:3Z</time></trkpt>
<trkpt lat="46.19968135" lon="6.08466499"><ele></ele><time>2014-10-8T10:15:6Z</time></trkpt>
<trkpt lat="46.19971488" lon="6.08473490"><ele></ele><time>2014-10-8T10:15:9Z</time></trkpt>
<trkpt lat="46.19975016" lon="6.08480397"><ele></ele><time>2014-10-8T10:15:12Z</time></trkpt>
<trkpt lat="46.19978696" lon="6.08487136"><ele></ele><time>2014-10-8T10:15:15Z</time></trkpt>
<trkpt lat="46.19982543" lon="6.08493866"><ele></ele><time>2014-10-8T10:15:18Z</time></trkpt>
<trkpt lat="46.19986475" lon="6.08500673"><ele></ele><time>2014-10-8T10:15:21Z</time></trkpt>
<trkpt lat="46.19990414" lon="6.08507663"><ele></ele><time>2014-10-8T10:15:24Z</time></trkpt>
<trkpt lat="46.19994253" lon="6.08514687"><ele></ele><time>2014-10-8T10:15:27Z</time></trkpt>
<trkpt lat="46.19998092" lon="6.08521594"><ele></ele><time>2014-10-8T10:15:30Z</time></trkpt>
<trkpt lat="46.20002006" lon="6.08528492"><ele></ele><time>2014-10-8T10:15:33Z</time></trkpt>
<trkpt lat="46.20005954" lon="6.08535189"><ele></ele><time>2014-10-8T10:15:36Z</time></trkpt>
<trkpt lat="46.20009868" lon="6.08541895"><ele></ele><time>2014-10-8T10:15:39Z</time></trkpt>
<trkpt lat="46.20013732" lon="6.08548558"><ele></ele><time>2014-10-8T10:15:42Z</time></trkpt>
<trkpt lat="46.20017647" lon="6.08555222"><ele></ele><time>2014-10-8T10:15:45Z</time></trkpt>
<trkpt lat="46.20021578" lon="6.08561869"><ele></ele><time>2014-10-8T10:15:48Z</time></trkpt>
<trkpt lat="46.20025610" lon="6.08568373"><ele></ele><time>2014-10-8T10:15:51Z</time></trkpt>
<trkpt lat="46.20029759" lon="6.08574802"><ele></ele><time>2014-10-8T10:15:54Z</time></trkpt>
<trkpt lat="46.20033983" lon="6.08581189"><ele></ele><time>2014-10-8T10:15:57Z</time></trkpt>
<trkpt lat="46.20038266" lon="6.08587434"><ele></ele><time>2014-10-8T10:16:0Z</time></trkpt>
<trkpt lat="46.20042633" lon="6.08593502"><ele></ele><time>2014-10-8T10:16:3Z</time></trkpt>
<trkpt lat="46.20047176" lon="6.08599110"><ele></ele><time>2014-10-8T10:16:6Z</time></trkpt>
<trkpt lat="46.20051996" lon="6.08604348"><ele></ele><time>2014-10-8T10:16:9Z</time></trkpt>
<trkpt lat="46.20057059" lon="6.08609327"><ele></ele><time>2014-10-8T10:16:12Z</time></trkpt>
<trkpt lat="46.20062146" lon="6.08614289"><ele></ele><time>2014-10-8T10:16:15Z</time></trkpt>
<trkpt lat="46.20067318" lon="6.08618866"><ele></ele><time>2014-10-8T10:16:18Z</time></trkpt>
<trkpt lat="46.20072758" lon="6.08622856"><ele></ele><time>2014-10-8T10:16:21Z</time></trkpt>
<trkpt lat="46.20078206" lon="6.08626502"><ele></ele><time>2014-10-8T10:16:24Z</time></trkpt>
<trkpt lat="46.20083679" lon="6.08629947"><ele></ele><time>2014-10-8T10:16:27Z</time></trkpt>
<trkpt lat="46.20088994" lon="6.08633232"><ele></ele><time>2014-10-8T10:16:30Z</time></trkpt>
<trkpt lat="46.20094408" lon="6.08636484"><ele></ele><time>2014-10-8T10:16:33Z</time></trkpt>
<trkpt lat="46.20099949" lon="6.08639502"><ele></ele><time>2014-10-8T10:16:36Z</time></trkpt>
<trkpt lat="46.20105464" lon="6.08642494"><ele></ele><time>2014-10-8T10:16:39Z</time></trkpt>
<trkpt lat="46.20111113" lon="6.08644975"><ele></ele><time>2014-10-8T10:16:42Z</time></trkpt>
<trkpt lat="46.20116972" lon="6.08646953"><ele></ele><time>2014-10-8T10:16:45Z</time></trkpt>
<trkpt lat="46.20122932" lon="6.08648915"><ele></ele><time>2014-10-8T10:16:48Z</time></trkpt>
<trkpt lat="46.20129093" lon="6.08651069"><ele></ele><time>2014-10-8T10:16:51Z</time></trkpt>
<trkpt lat="46.20135396" lon="6.08653458"><ele></ele><time>2014-10-8T10:16:54Z</time></trkpt>
<trkpt lat="46.20141883" lon="6.08655964"><ele></ele><time>2014-10-8T10:16:57Z</time></trkpt>
<trkpt lat="46.20148455" lon="6.08658554"><ele></ele><time>2014-10-8T10:17:0Z</time></trkpt>
<trkpt lat="46.20155085" lon="6.08661094"><ele></ele><time>2014-10-8T10:17:3Z</time></trkpt>
<trkpt lat="46.20161765" lon="6.08663013"><ele></ele><time>2014-10-8T10:17:6Z</time></trkpt>
<trkpt lat="46.20168597" lon="6.08663918"><ele></ele><time>2014-10-8T10:17:9Z</time></trkpt>
<trkpt lat="46.20175654" lon="6.08663809"><ele></ele><time>2014-10-8T10:17:12Z</time></trkpt>
<trkpt lat="46.20182955" lon="6.08662586"><ele></ele><time>2014-10-8T10:17:15Z</time></trkpt>
<trkpt lat="46.20190440" lon="6.08660524"><ele></ele><time>2014-10-8T10:17:18Z</time></trkpt>
<trkpt lat="46.20198025" lon="6.08658135"><ele></ele><time>2014-10-8T10:17:21Z</time></trkpt>
<trkpt lat="46.20205745" lon="6.08655863"><ele></ele><time>2014-10-8T10:17:24Z</time></trkpt>
<trkpt lat="46.20213549" lon="6.08653508"><ele></ele><time>2014-10-8T10:17:27Z</time></trkpt>
<trkpt lat="46.20221302" lon="6.08650943"><ele></ele><time>2014-10-8T10:17:30Z</time></trkpt>
<trkpt lat="46.20229072" lon="6.08648345"><ele></ele><time>2014-10-8T10:17:33Z</time></trkpt>
<trkpt lat="46.20236917" lon="6.08645939"><ele></ele><time>2014-10-8T10:17:36Z</time></trkpt>
<trkpt lat="46.20244754" lon="6.08643517"><ele></ele><time>2014-10-8T10:17:39Z</time></trkpt>
<trkpt lat="46.20252558" lon="6.08640977"><ele></ele><time>2014-10-8T10:17:42Z</time></trkpt>
<trkpt lat="46.20260429" lon="6.08638396"><ele></ele><time>2014-10-8T10:17:45Z</time></trkpt>
<trkpt lat="46.20268299" lon="6.08635847"><ele></ele><time>2014-10-8T10:17:48Z</time></trkpt>
<trkpt lat="46.20276086" lon="6.08633199"><ele></ele><time>2014-10-8T10:17:51Z</time></trkpt>
<trkpt lat="46.20283353" lon="6.08631363"><ele></ele><time>2014-10-8T10:17:54Z</time></trkpt>
<trkpt lat="46.20290855" lon="6.08629083"><ele></ele><time>2014-10-8T10:17:57Z</time></trkpt>
<trkpt lat="46.20298499" lon="6.08626736"><ele></ele><time>2014-10-8T10:18:0Z</time></trkpt>
<trkpt lat="46.20305859" lon="6.08624264"><ele></ele><time>2014-10-8T10:18:3Z</time></trkpt>
<trkpt lat="46.20313209" lon="6.08621707"><ele></ele><time>2014-10-8T10:18:6Z</time></trkpt>
<trkpt lat="46.20320460" lon="6.08619427"><ele></ele><time>2014-10-8T10:18:9Z</time></trkpt>
<trkpt lat="46.20327677" lon="6.08617122"><ele></ele><time>2014-10-8T10:18:12Z</time></trkpt>
<trkpt lat="46.20334684" lon="6.08614733"><ele></ele><time>2014-10-8T10:18:15Z</time></trkpt>
<trkpt lat="46.20341239" lon="6.08612898"><ele></ele><time>2014-10-8T10:18:18Z</time></trkpt>
<trkpt lat="46.20348020" lon="6.08610325"><ele></ele><time>2014-10-8T10:18:21Z</time></trkpt>
<trkpt lat="46.20354448" lon="6.08607877"><ele></ele><time>2014-10-8T10:18:24Z</time></trkpt>
<trkpt lat="46.20360944" lon="6.08604809"><ele></ele><time>2014-10-8T10:18:27Z</time></trkpt>
<trkpt lat="46.20367533" lon="6.08602018"><ele></ele><time>2014-10-8T10:18:30Z</time></trkpt>
<trkpt lat="46.20374213" lon="6.08599487"><ele></ele><time>2014-10-8T10:18:33Z</time></trkpt>
<trkpt lat="46.20380516" lon="6.08598774"><ele></ele><time>2014-10-8T10:18:36Z</time></trkpt>
<trkpt lat="46.20386903" lon="6.08599772"><ele></ele><time>2014-10-8T10:18:39Z</time></trkpt>
<trkpt lat="46.20393106" lon="6.08602747"><ele></ele><time>2014-10-8T10:18:42Z</time></trkpt>
<trkpt lat="46.20398177" lon="6.08608413"><ele></ele><time>2014-10-8T10:18:45Z</time></trkpt>
<trkpt lat="46.20401949" lon="6.08615790"><ele></ele><time>2014-10-8T10:18:48Z</time></trkpt>
<trkpt lat="46.20404933" lon="6.08623853"><ele></ele><time>2014-10-8T10:18:51Z</time></trkpt>
<trkpt lat="46.20407498" lon="6.08632185"><ele></ele><time>2014-10-8T10:18:54Z</time></trkpt>
<trkpt lat="46.20409844" lon="6.08640684"><ele></ele><time>2014-10-8T10:18:57Z</time></trkpt>
<trkpt lat="46.20412149" lon="6.08649108"><ele></ele><time>2014-10-8T10:19:0Z</time></trkpt>
<trkpt lat="46.20414429" lon="6.08657355"><ele></ele><time>2014-10-8T10:19:3Z</time></trkpt>
<trkpt lat="46.20416785" lon="6.08665385"><ele></ele><time>2014-10-8T10:19:6Z</time></trkpt>
<trkpt lat="46.20419207" lon="6.08673298"><ele></ele><time>2014-10-8T10:19:9Z</time></trkpt>
<trkpt lat="46.20421764" lon="6.08681043"><ele></ele><time>2014-10-8T10:19:12Z</time></trkpt>
<trkpt lat="46.20424605" lon="6.08688553"><ele></ele><time>2014-10-8T10:19:15Z</time></trkpt>
<trkpt lat="46.20427933" lon="6.08695594"><ele></ele><time>2014-10-8T10:19:18Z</time></trkpt>
<trkpt lat="46.20431763" lon="6.08701813"><ele></ele><time>2014-10-8T10:19:21Z</time></trkpt>
<trkpt lat="46.20435853" lon="6.08707446"><ele></ele><time>2014-10-8T10:19:24Z</time></trkpt>
<trkpt lat="46.20440044" lon="6.08712969"><ele></ele><time>2014-10-8T10:19:27Z</time></trkpt>
<trkpt lat="46.20444076" lon="6.08718703"><ele></ele><time>2014-10-8T10:19:30Z</time></trkpt>
<trkpt lat="46.20448150" lon="6.08724897"><ele></ele><time>2014-10-8T10:19:33Z</time></trkpt>
<trkpt lat="46.20452106" lon="6.08731460"><ele></ele><time>2014-10-8T10:19:36Z</time></trkpt>
<trkpt lat="46.20455978" lon="6.08738274"><ele></ele><time>2014-10-8T10:19:39Z</time></trkpt>
<trkpt lat="46.20459826" lon="6.08745223"><ele></ele><time>2014-10-8T10:19:42Z</time></trkpt>
<trkpt lat="46.20463447" lon="6.08752415"><ele></ele><time>2014-10-8T10:19:45Z</time></trkpt>
<trkpt lat="46.20466875" lon="6.08759958"><ele></ele><time>2014-10-8T10:19:48Z</time></trkpt>
<trkpt lat="46.20470228" lon="6.08768307"><ele></ele><time>2014-10-8T10:19:51Z</time></trkpt>
<trkpt lat="46.20473958" lon="6.08777787"><ele></ele><time>2014-10-8T10:19:54Z</time></trkpt>
<trkpt lat="46.20477956" lon="6.08788029"><ele></ele><time>2014-10-8T10:19:57Z</time></trkpt>
<trkpt lat="46.20481937" lon="6.08798389"><ele></ele><time>2014-10-8T10:20:0Z</time></trkpt>
<trkpt lat="46.20486044" lon="6.08808515"><ele></ele><time>2014-10-8T10:20:3Z</time></trkpt>
<trkpt lat="46.20490738" lon="6.08818766"><ele></ele><time>2014-10-8T10:20:6Z</time></trkpt>
<trkpt lat="46.20495977" lon="6.08828397"><ele></ele><time>2014-10-8T10:20:9Z</time></trkpt>
<trkpt lat="46.20501886" lon="6.08836234"><ele></ele><time>2014-10-8T10:20:12Z</time></trkpt>
<trkpt lat="46.20508768" lon="6.08841958"><ele></ele><time>2014-10-8T10:20:15Z</time></trkpt>
<trkpt lat="46.20516035" lon="6.08845646"><ele></ele><time>2014-10-8T10:20:18Z</time></trkpt>
<trkpt lat="46.20522858" lon="6.08849863"><ele></ele><time>2014-10-8T10:20:21Z</time></trkpt>
<trkpt lat="46.20528784" lon="6.08856325"><ele></ele><time>2014-10-8T10:20:24Z</time></trkpt>
<trkpt lat="46.20533176" lon="6.08863559"><ele></ele><time>2014-10-8T10:20:27Z</time></trkpt>
<trkpt lat="46.20536294" lon="6.08871044"><ele></ele><time>2014-10-8T10:20:30Z</time></trkpt>
<trkpt lat="46.20537870" lon="6.08878772"><ele></ele><time>2014-10-8T10:20:33Z</time></trkpt>
<trkpt lat="46.20538088" lon="6.08887053"><ele></ele><time>2014-10-8T10:20:36Z</time></trkpt>
<trkpt lat="46.20537484" lon="6.08895217"><ele></ele><time>2014-10-8T10:20:39Z</time></trkpt>
<trkpt lat="46.20536453" lon="6.08903515"><ele></ele><time>2014-10-8T10:20:42Z</time></trkpt>
<trkpt lat="46.20535615" lon="6.08912299"><ele></ele><time>2014-10-8T10:20:45Z</time></trkpt>
<trkpt lat="46.20535204" lon="6.08921436"><ele></ele><time>2014-10-8T10:20:48Z</time></trkpt>
<trkpt lat="46.20534659" lon="6.08930312"><ele></ele><time>2014-10-8T10:20:51Z</time></trkpt>
<trkpt lat="46.20533947" lon="6.08938778"><ele></ele><time>2014-10-8T10:20:54Z</time></trkpt>
<trkpt lat="46.20533503" lon="6.08946363"><ele></ele><time>2014-10-8T10:20:57Z</time></trkpt>
<trkpt lat="46.20533310" lon="6.08953748"><ele></ele><time>2014-10-8T10:21:0Z</time></trkpt>
<trkpt lat="46.20533117" lon="6.08961116"><ele></ele><time>2014-10-8T10:21:3Z</time></trkpt>
<trkpt lat="46.20532857" lon="6.08968450"><ele></ele><time>2014-10-8T10:21:6Z</time></trkpt>
<trkpt lat="46.20532363" lon="6.08975985"><ele></ele><time>2014-10-8T10:21:9Z</time></trkpt>
<trkpt lat="46.20531818" lon="6.08983822"><ele></ele><time>2014-10-8T10:21:12Z</time></trkpt>
<trkpt lat="46.20531298" lon="6.08991575"><ele></ele><time>2014-10-8T10:21:15Z</time></trkpt>
<trkpt lat="46.20530779" lon="6.08999530"><ele></ele><time>2014-10-8T10:21:18Z</time></trkpt>
<trkpt lat="46.20530074" lon="6.09007694"><ele></ele><time>2014-10-8T10:21:21Z</time></trkpt>
<trkpt lat="46.20529295" lon="6.09015942"><ele></ele><time>2014-10-8T10:21:24Z</time></trkpt>
<trkpt lat="46.20528717" lon="6.09024248"><ele></ele><time>2014-10-8T10:21:27Z</time></trkpt>
<trkpt lat="46.20529010" lon="6.09032462"><ele></ele><time>2014-10-8T10:21:30Z</time></trkpt>
<trkpt lat="46.20530795" lon="6.09039235"><ele></ele><time>2014-10-8T10:21:33Z</time></trkpt>
<trkpt lat="46.20533813" lon="6.09044205"><ele></ele><time>2014-10-8T10:21:36Z</time></trkpt>
<trkpt lat="46.20536805" lon="6.09048095"><ele></ele><time>2014-10-8T10:21:39Z</time></trkpt>
<trkpt lat="46.20539152" lon="6.09052252"><ele></ele><time>2014-10-8T10:21:42Z</time></trkpt>
<trkpt lat="46.20540024" lon="6.09056904"><ele></ele><time>2014-10-8T10:21:45Z</time></trkpt>
<trkpt lat="46.20539856" lon="6.09062654"><ele></ele><time>2014-10-8T10:21:48Z</time></trkpt>
<trkpt lat="46.20539135" lon="6.09069636"><ele></ele><time>2014-10-8T10:21:51Z</time></trkpt>
<trkpt lat="46.20538163" lon="6.09077825"><ele></ele><time>2014-10-8T10:21:54Z</time></trkpt>
<trkpt lat="46.20536679" lon="6.09086869"><ele></ele><time>2014-10-8T10:21:57Z</time></trkpt>
<trkpt lat="46.20534609" lon="6.09096768"><ele></ele><time>2014-10-8T10:22:0Z</time></trkpt>
<trkpt lat="46.20532044" lon="6.09106936"><ele></ele><time>2014-10-8T10:22:3Z</time></trkpt>
<trkpt lat="46.20529848" lon="6.09117757"><ele></ele><time>2014-10-8T10:22:6Z</time></trkpt>
<trkpt lat="46.20527493" lon="6.09129692"><ele></ele><time>2014-10-8T10:22:9Z</time></trkpt>
<trkpt lat="46.20524769" lon="6.09142357"><ele></ele><time>2014-10-8T10:22:12Z</time></trkpt>
<trkpt lat="46.20521810" lon="6.09155375"><ele></ele><time>2014-10-8T10:22:15Z</time></trkpt>
<trkpt lat="46.20519220" lon="6.09167528"><ele></ele><time>2014-10-8T10:22:18Z</time></trkpt>
<trkpt lat="46.20516999" lon="6.09177855"><ele></ele><time>2014-10-8T10:22:21Z</time></trkpt>
<trkpt lat="46.20515222" lon="6.09186295"><ele></ele><time>2014-10-8T10:22:24Z</time></trkpt>
<trkpt lat="46.20513596" lon="6.09193956"><ele></ele><time>2014-10-8T10:22:27Z</time></trkpt>
<trkpt lat="46.20511718" lon="6.09201014"><ele></ele><time>2014-10-8T10:22:30Z</time></trkpt>
<trkpt lat="46.20509522" lon="6.09207736"><ele></ele><time>2014-10-8T10:22:33Z</time></trkpt>
<trkpt lat="46.20507678" lon="6.09215104"><ele></ele><time>2014-10-8T10:22:36Z</time></trkpt>
<trkpt lat="46.20505993" lon="6.09222514"><ele></ele><time>2014-10-8T10:22:39Z</time></trkpt>
<trkpt lat="46.20504367" lon="6.09229839"><ele></ele><time>2014-10-8T10:22:42Z</time></trkpt>
<trkpt lat="46.20502758" lon="6.09237132"><ele></ele><time>2014-10-8T10:22:45Z</time></trkpt>
<trkpt lat="46.20501040" lon="6.09244290"><ele></ele><time>2014-10-8T10:22:48Z</time></trkpt>
<trkpt lat="46.20499439" lon="6.09251046"><ele></ele><time>2014-10-8T10:22:51Z</time></trkpt>
<trkpt lat="46.20497972" lon="6.09257332"><ele></ele><time>2014-10-8T10:22:54Z</time></trkpt>
<trkpt lat="46.20496656" lon="6.09263166"><ele></ele><time>2014-10-8T10:22:57Z</time></trkpt>
<trkpt lat="46.20495507" lon="6.09268446"><ele></ele><time>2014-10-8T10:23:0Z</time></trkpt>
<trkpt lat="46.20494493" lon="6.09273258"><ele></ele><time>2014-10-8T10:23:3Z</time></trkpt>
<trkpt lat="46.20493714" lon="6.09276904"><ele></ele><time>2014-10-8T10:23:6Z</time></trkpt>
<trkpt lat="46.20493127" lon="6.09280474"><ele></ele><time>2014-10-8T10:23:9Z</time></trkpt>
<trkpt lat="46.20492976" lon="6.09284372"><ele></ele><time>2014-10-8T10:23:12Z</time></trkpt>
<trkpt lat="46.20493362" lon="6.09288848"><ele></ele><time>2014-10-8T10:23:15Z</time></trkpt>
<trkpt lat="46.20493957" lon="6.09293207"><ele></ele><time>2014-10-8T10:23:18Z</time></trkpt>
<trkpt lat="46.20494678" lon="6.09297272"><ele></ele><time>2014-10-8T10:23:21Z</time></trkpt>
<trkpt lat="46.20495499" lon="6.09301220"><ele></ele><time>2014-10-8T10:23:24Z</time></trkpt>
<trkpt lat="46.20496195" lon="6.09304648"><ele></ele><time>2014-10-8T10:23:27Z</time></trkpt>
<trkpt lat="46.20496832" lon="6.09308076"><ele></ele><time>2014-10-8T10:23:30Z</time></trkpt>
<trkpt lat="46.20497075" lon="6.09311052"><ele></ele><time>2014-10-8T10:23:33Z</time></trkpt>
<trkpt lat="46.20496899" lon="6.09313658"><ele></ele><time>2014-10-8T10:23:36Z</time></trkpt>
<trkpt lat="46.20496689" lon="6.09316114"><ele></ele><time>2014-10-8T10:23:39Z</time></trkpt>
<trkpt lat="46.20497259" lon="6.09319006"><ele></ele><time>2014-10-8T10:23:42Z</time></trkpt>
<trkpt lat="46.20498408" lon="6.09322510"><ele></ele><time>2014-10-8T10:23:45Z</time></trkpt>
<trkpt lat="46.20499916" lon="6.09326198"><ele></ele><time>2014-10-8T10:23:48Z</time></trkpt>
<trkpt lat="46.20501333" lon="6.09329743"><ele></ele><time>2014-10-8T10:23:51Z</time></trkpt>
<trkpt lat="46.20502808" lon="6.09333146"><ele></ele><time>2014-10-8T10:23:54Z</time></trkpt>
<trkpt lat="46.20504166" lon="6.09336566"><ele></ele><time>2014-10-8T10:23:57Z</time></trkpt>
<trkpt lat="46.20504862" lon="6.09339760"><ele></ele><time>2014-10-8T10:24:0Z</time></trkpt>
<trkpt lat="46.20504652" lon="6.09342157"><ele></ele><time>2014-10-8T10:24:3Z</time></trkpt>
<trkpt lat="46.20504409" lon="6.09344009"><ele></ele><time>2014-10-8T10:24:6Z</time></trkpt>
<trkpt lat="46.20503764" lon="6.09345837"><ele></ele><time>2014-10-8T10:24:9Z</time></trkpt>
<trkpt lat="46.20502607" lon="6.09347840"><ele></ele><time>2014-10-8T10:24:12Z</time></trkpt>
<trkpt lat="46.20501090" lon="6.09349550"><ele></ele><time>2014-10-8T10:24:15Z</time></trkpt>
<trkpt lat="46.20499816" lon="6.09350933"><ele></ele><time>2014-10-8T10:24:18Z</time></trkpt>
<trkpt lat="46.20498240" lon="6.09352014"><ele></ele><time>2014-10-8T10:24:21Z</time></trkpt>
<trkpt lat="46.20496656" lon="6.09352089"><ele></ele><time>2014-10-8T10:24:24Z</time></trkpt>
<trkpt lat="46.20495005" lon="6.09351268"><ele></ele><time>2014-10-8T10:24:27Z</time></trkpt>
<trkpt lat="46.20493437" lon="6.09350178"><ele></ele><time>2014-10-8T10:24:30Z</time></trkpt>
<trkpt lat="46.20491828" lon="6.09348544"><ele></ele><time>2014-10-8T10:24:33Z</time></trkpt>
<trkpt lat="46.20489724" lon="6.09346624"><ele></ele><time>2014-10-8T10:24:36Z</time></trkpt>
<trkpt lat="46.20487922" lon="6.09344512"><ele></ele><time>2014-10-8T10:24:39Z</time></trkpt>
<trkpt lat="46.20486095" lon="6.09342308"><ele></ele><time>2014-10-8T10:24:42Z</time></trkpt>
<trkpt lat="46.20484225" lon="6.09339944"><ele></ele><time>2014-10-8T10:24:45Z</time></trkpt>
<trkpt lat="46.20482599" lon="6.09337815"><ele></ele><time>2014-10-8T10:24:48Z</time></trkpt>
<trkpt lat="46.20481518" lon="6.09335602"><ele></ele><time>2014-10-8T10:24:51Z</time></trkpt>
<trkpt lat="46.20480462" lon="6.09333272"><ele></ele><time>2014-10-8T10:24:54Z</time></trkpt>
<trkpt lat="46.20479112" lon="6.09331336"><ele></ele><time>2014-10-8T10:24:57Z</time></trkpt>
<trkpt lat="46.20477612" lon="6.09329534"><ele></ele><time>2014-10-8T10:25:0Z</time></trkpt>
<trkpt lat="46.20476355" lon="6.09327623"><ele></ele><time>2014-10-8T10:25:3Z</time></trkpt>
<trkpt lat="46.20475349" lon="6.09325586"><ele></ele><time>2014-10-8T10:25:6Z</time></trkpt>
<trkpt lat="46.20474494" lon="6.09323239"><ele></ele><time>2014-10-8T10:25:9Z</time></trkpt>
<trkpt lat="46.20473430" lon="6.09321110"><ele></ele><time>2014-10-8T10:25:12Z</time></trkpt>
<trkpt lat="46.20472658" lon="6.09320079"><ele></ele><time>2014-10-8T10:25:15Z</time></trkpt>
<trkpt lat="46.20471368" lon="6.09320775"><ele></ele><time>2014-10-8T10:25:18Z</time></trkpt>
<trkpt lat="46.20470068" lon="6.09323004"><ele></ele><time>2014-10-8T10:25:21Z</time></trkpt>
<trkpt lat="46.20469574" lon="6.09325527"><ele></ele><time>2014-10-8T10:25:24Z</time></trkpt>
<trkpt lat="46.20469616" lon="6.09328226"><ele></ele><time>2014-10-8T10:25:27Z</time></trkpt>
<trkpt lat="46.20469666" lon="6.09330925"><ele></ele><time>2014-10-8T10:25:30Z</time></trkpt>
<trkpt lat="46.20469389" lon="6.09333582"><ele></ele><time>2014-10-8T10:25:33Z</time></trkpt>
<trkpt lat="46.20468778" lon="6.09336239"><ele></ele><time>2014-10-8T10:25:36Z</time></trkpt>
<trkpt lat="46.20468560" lon="6.09339114"><ele></ele><time>2014-10-8T10:25:39Z</time></trkpt>
<trkpt lat="46.20468434" lon="6.09342165"><ele></ele><time>2014-10-8T10:25:42Z</time></trkpt>
<trkpt lat="46.20467789" lon="6.09344688"><ele></ele><time>2014-10-8T10:25:45Z</time></trkpt>
<trkpt lat="46.20466984" lon="6.09347354"><ele></ele><time>2014-10-8T10:25:48Z</time></trkpt>
<trkpt lat="46.20465894" lon="6.09350153"><ele></ele><time>2014-10-8T10:25:51Z</time></trkpt>
<trkpt lat="46.20464427" lon="6.09352726"><ele></ele><time>2014-10-8T10:25:54Z</time></trkpt>
<trkpt lat="46.20462726" lon="6.09355057"><ele></ele><time>2014-10-8T10:25:57Z</time></trkpt>
<trkpt lat="46.20461024" lon="6.09357152"><ele></ele><time>2014-10-8T10:26:0Z</time></trkpt>
<trkpt lat="46.20459264" lon="6.09359155"><ele></ele><time>2014-10-8T10:26:3Z</time></trkpt>
<trkpt lat="46.20457663" lon="6.09361276"><ele></ele><time>2014-10-8T10:26:6Z</time></trkpt>
<trkpt lat="46.20456875" lon="6.09362843"><ele></ele><time>2014-10-8T10:26:9Z</time></trkpt>
<trkpt lat="46.20456238" lon="6.09364117"><ele></ele><time>2014-10-8T10:26:12Z</time></trkpt>
<trkpt lat="46.20455559" lon="6.09364863"><ele></ele><time>2014-10-8T10:26:15Z</time></trkpt>
<trkpt lat="46.20454838" lon="6.09365383"><ele></ele><time>2014-10-8T10:26:18Z</time></trkpt>
<trkpt lat="46.20454906" lon="6.09365224"><ele></ele><time>2014-10-8T10:26:21Z</time></trkpt>
<trkpt lat="46.20453975" lon="6.09365844"><ele></ele><time>2014-10-8T10:26:24Z</time></trkpt>
<trkpt lat="46.20453187" lon="6.09367244"><ele></ele><time>2014-10-8T10:26:27Z</time></trkpt>
<trkpt lat="46.20452140" lon="6.09368376"><ele></ele><time>2014-10-8T10:26:30Z</time></trkpt>
<trkpt lat="46.20451058" lon="6.09369616"><ele></ele><time>2014-10-8T10:26:33Z</time></trkpt>
<trkpt lat="46.20450228" lon="6.09371133"><ele></ele><time>2014-10-8T10:26:36Z</time></trkpt>
<trkpt lat="46.20448946" lon="6.09372575"><ele></ele><time>2014-10-8T10:26:39Z</time></trkpt>
<trkpt lat="46.20447999" lon="6.09374058"><ele></ele><time>2014-10-8T10:26:42Z</time></trkpt>
<trkpt lat="46.20447194" lon="6.09375358"><ele></ele><time>2014-10-8T10:26:45Z</time></trkpt>
<trkpt lat="46.20445895" lon="6.09376456"><ele></ele><time>2014-10-8T10:26:48Z</time></trkpt>
<trkpt lat="46.20444763" lon="6.09377529"><ele></ele><time>2014-10-8T10:26:51Z</time></trkpt>
<trkpt lat="46.20443808" lon="6.09379004"><ele></ele><time>2014-10-8T10:26:54Z</time></trkpt>
<trkpt lat="46.20443045" lon="6.09380672"><ele></ele><time>2014-10-8T10:26:57Z</time></trkpt>
<trkpt lat="46.20442534" lon="6.09382616"><ele></ele><time>2014-10-8T10:27:0Z</time></trkpt>
<trkpt lat="46.20442366" lon="6.09384594"><ele></ele><time>2014-10-8T10:27:3Z</time></trkpt>
<trkpt lat="46.20442090" lon="6.09386464"><ele></ele><time>2014-10-8T10:27:6Z</time></trkpt>
<trkpt lat="46.20441478" lon="6.09388534"><ele></ele><time>2014-10-8T10:27:9Z</time></trkpt>
<trkpt lat="46.20440866" lon="6.09390680"><ele></ele><time>2014-10-8T10:27:12Z</time></trkpt>
<trkpt lat="46.20440338" lon="6.09393010"><ele></ele><time>2014-10-8T10:27:15Z</time></trkpt>
<trkpt lat="46.20440690" lon="6.09395357"><ele></ele><time>2014-10-8T10:27:18Z</time></trkpt>
<trkpt lat="46.20440849" lon="6.09397318"><ele></ele><time>2014-10-8T10:27:21Z</time></trkpt>
<trkpt lat="46.20441243" lon="6.09399489"><ele></ele><time>2014-10-8T10:27:24Z</time></trkpt>
<trkpt lat="46.20441520" lon="6.09401685"><ele></ele><time>2014-10-8T10:27:27Z</time></trkpt>
<trkpt lat="46.20441109" lon="6.09404217"><ele></ele><time>2014-10-8T10:27:30Z</time></trkpt>
<trkpt lat="46.20440925" lon="6.09406647"><ele></ele><time>2014-10-8T10:27:33Z</time></trkpt>
<trkpt lat="46.20440723" lon="6.09409522"><ele></ele><time>2014-10-8T10:27:36Z</time></trkpt>
<trkpt lat="46.20440715" lon="6.09412129"><ele></ele><time>2014-10-8T10:27:39Z</time></trkpt>
<trkpt lat="46.20440388" lon="6.09414518"><ele></ele><time>2014-10-8T10:27:42Z</time></trkpt>
<trkpt lat="46.20440296" lon="6.09417007"><ele></ele><time>2014-10-8T10:27:45Z</time></trkpt>
<trkpt lat="46.20440195" lon="6.09419522"><ele></ele><time>2014-10-8T10:27:48Z</time></trkpt>
<trkpt lat="46.20440128" lon="6.09421978"><ele></ele><time>2014-10-8T10:27:51Z</time></trkpt>
<trkpt lat="46.20440095" lon="6.09424434"><ele></ele><time>2014-10-8T10:27:54Z</time></trkpt>
<trkpt lat="46.20440262" lon="6.09426823"><ele></ele><time>2014-10-8T10:27:57Z</time></trkpt>
<trkpt lat="46.20440489" lon="6.09428868"><ele></ele><time>2014-10-8T10:28:0Z</time></trkpt>
<trkpt lat="46.20440640" lon="6.09430955"><ele></ele><time>2014-10-8T10:28:3Z</time></trkpt>
<trkpt lat="46.20440673" lon="6.09433159"><ele></ele><time>2014-10-8T10:28:6Z</time></trkpt>
<trkpt lat="46.20440707" lon="6.09435339"><ele></ele><time>2014-10-8T10:28:9Z</time></trkpt>
<trkpt lat="46.20440857" lon="6.09437434"><ele></ele><time>2014-10-8T10:28:12Z</time></trkpt>
<trkpt lat="46.20441025" lon="6.09439404"><ele></ele><time>2014-10-8T10:28:15Z</time></trkpt>
<trkpt lat="46.20441268" lon="6.09441457"><ele></ele><time>2014-10-8T10:28:18Z</time></trkpt>
<trkpt lat="46.20441469" lon="6.09443486"><ele></ele><time>2014-10-8T10:28:21Z</time></trkpt>
<trkpt lat="46.20441679" lon="6.09445590"><ele></ele><time>2014-10-8T10:28:24Z</time></trkpt>
<trkpt lat="46.20441939" lon="6.09447635"><ele></ele><time>2014-10-8T10:28:27Z</time></trkpt>
<trkpt lat="46.20442282" lon="6.09449588"><ele></ele><time>2014-10-8T10:28:30Z</time></trkpt>
<trkpt lat="46.20442626" lon="6.09451323"><ele></ele><time>2014-10-8T10:28:33Z</time></trkpt>
<trkpt lat="46.20442819" lon="6.09452480"><ele></ele><time>2014-10-8T10:28:36Z</time></trkpt>
<trkpt lat="46.20442886" lon="6.09452714"><ele></ele><time>2014-10-8T10:28:39Z</time></trkpt>
<trkpt lat="46.20442953" lon="6.09452513"><ele></ele><time>2014-10-8T10:28:42Z</time></trkpt>
<trkpt lat="46.20443037" lon="6.09452446"><ele></ele><time>2014-10-8T10:28:45Z</time></trkpt>
<trkpt lat="46.20443095" lon="6.09452412"><ele></ele><time>2014-10-8T10:28:48Z</time></trkpt>
<trkpt lat="46.20443196" lon="6.09452379"><ele></ele><time>2014-10-8T10:28:51Z</time></trkpt>
<trkpt lat="46.20443313" lon="6.09452379"><ele></ele><time>2014-10-8T10:28:54Z</time></trkpt>
<trkpt lat="46.20443439" lon="6.09452463"><ele></ele><time>2014-10-8T10:28:57Z</time></trkpt>
<trkpt lat="46.20443540" lon="6.09452547"><ele></ele><time>2014-10-8T10:29:0Z</time></trkpt>
<trkpt lat="46.20443615" lon="6.09452547"><ele></ele><time>2014-10-8T10:29:3Z</time></trkpt>
<trkpt lat="46.20443699" lon="6.09452547"><ele></ele><time>2014-10-8T10:29:6Z</time></trkpt>
<trkpt lat="46.20443766" lon="6.09452538"><ele></ele><time>2014-10-8T10:29:9Z</time></trkpt>
<trkpt lat="46.20443816" lon="6.09452538"><ele></ele><time>2014-10-8T10:29:12Z</time></trkpt>
<trkpt lat="46.20443850" lon="6.09452480"><ele></ele><time>2014-10-8T10:29:15Z</time></trkpt>
<trkpt lat="46.20443917" lon="6.09452404"><ele></ele><time>2014-10-8T10:29:18Z</time></trkpt>
<trkpt lat="46.20443976" lon="6.09452429"><ele></ele><time>2014-10-8T10:29:21Z</time></trkpt>
<trkpt lat="46.20444009" lon="6.09452488"><ele></ele><time>2014-10-8T10:29:24Z</time></trkpt>
<trkpt lat="46.20444076" lon="6.09452505"><ele></ele><time>2014-10-8T10:29:27Z</time></trkpt>
<trkpt lat="46.20444160" lon="6.09452530"><ele></ele><time>2014-10-8T10:29:30Z</time></trkpt>
<trkpt lat="46.20444202" lon="6.09452572"><ele></ele><time>2014-10-8T10:29:33Z</time></trkpt>
<trkpt lat="46.20444252" lon="6.09452647"><ele></ele><time>2014-10-8T10:29:36Z</time></trkpt>
<trkpt lat="46.20444302" lon="6.09452689"><ele></ele><time>2014-10-8T10:29:39Z</time></trkpt>
<trkpt lat="46.20444353" lon="6.09452723"><ele></ele><time>2014-10-8T10:29:42Z</time></trkpt>
<trkpt lat="46.20444386" lon="6.09452773"><ele></ele><time>2014-10-8T10:29:45Z</time></trkpt>
<trkpt lat="46.20444437" lon="6.09452806"><ele></ele><time>2014-10-8T10:29:48Z</time></trkpt>
<trkpt lat="46.20444445" lon="6.09452899"><ele></ele><time>2014-10-8T10:29:51Z</time></trkpt>
<trkpt lat="46.20444478" lon="6.09452974"><ele></ele><time>2014-10-8T10:29:54Z</time></trkpt>
<trkpt lat="46.20444512" lon="6.09453024"><ele></ele><time>2014-10-8T10:29:57Z</time></trkpt>
<trkpt lat="46.20444587" lon="6.09452999"><ele></ele><time>2014-10-8T10:30:0Z</time></trkpt>
<trkpt lat="46.20444654" lon="6.09452974"><ele></ele><time>2014-10-8T10:30:3Z</time></trkpt>
<trkpt lat="46.20444730" lon="6.09452966"><ele></ele><time>2014-10-8T10:30:6Z</time></trkpt>
<trkpt lat="46.20444797" lon="6.09452957"><ele></ele><time>2014-10-8T10:30:9Z</time></trkpt>
<trkpt lat="46.20444856" lon="6.09452999"><ele></ele><time>2014-10-8T10:30:12Z</time></trkpt>
<trkpt lat="46.20444898" lon="6.09453217"><ele></ele><time>2014-10-8T10:30:15Z</time></trkpt>
<trkpt lat="46.20444906" lon="6.09453552"><ele></ele><time>2014-10-8T10:30:18Z</time></trkpt>
<trkpt lat="46.20444923" lon="6.09453988"><ele></ele><time>2014-10-8T10:30:21Z</time></trkpt>
<trkpt lat="46.20444872" lon="6.09454877"><ele></ele><time>2014-10-8T10:30:24Z</time></trkpt>
<trkpt lat="46.20444956" lon="6.09456067"><ele></ele><time>2014-10-8T10:30:27Z</time></trkpt>
<trkpt lat="46.20445149" lon="6.09456696"><ele></ele><time>2014-10-8T10:30:30Z</time></trkpt>
<trkpt lat="46.20445325" lon="6.09456796"><ele></ele><time>2014-10-8T10:30:33Z</time></trkpt>
<trkpt lat="46.20445333" lon="6.09457098"><ele></ele><time>2014-10-8T10:30:36Z</time></trkpt>
<trkpt lat="46.20445157" lon="6.09458355"><ele></ele><time>2014-10-8T10:30:39Z</time></trkpt>
<trkpt lat="46.20445057" lon="6.09460384"><ele></ele><time>2014-10-8T10:30:42Z</time></trkpt>
<trkpt lat="46.20445023" lon="6.09462772"><ele></ele><time>2014-10-8T10:30:45Z</time></trkpt>
<trkpt lat="46.20445233" lon="6.09465513"><ele></ele><time>2014-10-8T10:30:48Z</time></trkpt>
<trkpt lat="46.20445669" lon="6.09468573"><ele></ele><time>2014-10-8T10:30:51Z</time></trkpt>
<trkpt lat="46.20446633" lon="6.09472043"><ele></ele><time>2014-10-8T10:30:54Z</time></trkpt>
<trkpt lat="46.20448066" lon="6.09475622"><ele></ele><time>2014-10-8T10:30:57Z</time></trkpt>
<trkpt lat="46.20449969" lon="6.09479235"><ele></ele><time>2014-10-8T10:31:0Z</time></trkpt>
<trkpt lat="46.20452123" lon="6.09482889"><ele></ele><time>2014-10-8T10:31:3Z</time></trkpt>
<trkpt lat="46.20454277" lon="6.09486653"><ele></ele><time>2014-10-8T10:31:6Z</time></trkpt>
<trkpt lat="46.20456372" lon="6.09490592"><ele></ele><time>2014-10-8T10:31:9Z</time></trkpt>
<trkpt lat="46.20458434" lon="6.09494708"><ele></ele><time>2014-10-8T10:31:12Z</time></trkpt>
<trkpt lat="46.20460505" lon="6.09498798"><ele></ele><time>2014-10-8T10:31:15Z</time></trkpt>
<trkpt lat="46.20462617" lon="6.09502880"><ele></ele><time>2014-10-8T10:31:18Z</time></trkpt>
<trkpt lat="46.20464746" lon="6.09507012"><ele></ele><time>2014-10-8T10:31:21Z</time></trkpt>
<trkpt lat="46.20466892" lon="6.09511094"><ele></ele><time>2014-10-8T10:31:24Z</time></trkpt>
<trkpt lat="46.20469063" lon="6.09515185"><ele></ele><time>2014-10-8T10:31:27Z</time></trkpt>
<trkpt lat="46.20471242" lon="6.09519275"><ele></ele><time>2014-10-8T10:31:30Z</time></trkpt>
<trkpt lat="46.20473505" lon="6.09523273"><ele></ele><time>2014-10-8T10:31:33Z</time></trkpt>
<trkpt lat="46.20475785" lon="6.09527246"><ele></ele><time>2014-10-8T10:31:36Z</time></trkpt>
<trkpt lat="46.20477998" lon="6.09531236"><ele></ele><time>2014-10-8T10:31:39Z</time></trkpt>
<trkpt lat="46.20480118" lon="6.09535242"><ele></ele><time>2014-10-8T10:31:42Z</time></trkpt>
<trkpt lat="46.20482298" lon="6.09539073"><ele></ele><time>2014-10-8T10:31:45Z</time></trkpt>
<trkpt lat="46.20484636" lon="6.09542702"><ele></ele><time>2014-10-8T10:31:48Z</time></trkpt>
<trkpt lat="46.20486799" lon="6.09546558"><ele></ele><time>2014-10-8T10:31:51Z</time></trkpt>
<trkpt lat="46.20488157" lon="6.09551084"><ele></ele><time>2014-10-8T10:31:54Z</time></trkpt>
<trkpt lat="46.20488316" lon="6.09556013"><ele></ele><time>2014-10-8T10:31:57Z</time></trkpt>
<trkpt lat="46.20487394" lon="6.09560883"><ele></ele><time>2014-10-8T10:32:0Z</time></trkpt>
<trkpt lat="46.20485676" lon="6.09565359"><ele></ele><time>2014-10-8T10:32:3Z</time></trkpt>
<trkpt lat="46.20483513" lon="6.09569483"><ele></ele><time>2014-10-8T10:32:6Z</time></trkpt>
<trkpt lat="46.20481116" lon="6.09573363"><ele></ele><time>2014-10-8T10:32:9Z</time></trkpt>
<trkpt lat="46.20478660" lon="6.09577127"><ele></ele><time>2014-10-8T10:32:12Z</time></trkpt>
<trkpt lat="46.20476296" lon="6.09580857"><ele></ele><time>2014-10-8T10:32:15Z</time></trkpt>
<trkpt lat="46.20474159" lon="6.09584637"><ele></ele><time>2014-10-8T10:32:18Z</time></trkpt>
<trkpt lat="46.20472114" lon="6.09588535"><ele></ele><time>2014-10-8T10:32:21Z</time></trkpt>
<trkpt lat="46.20470479" lon="6.09592214"><ele></ele><time>2014-10-8T10:32:24Z</time></trkpt>
<trkpt lat="46.20468685" lon="6.09595978"><ele></ele><time>2014-10-8T10:32:27Z</time></trkpt>
<trkpt lat="46.20466540" lon="6.09599565"><ele></ele><time>2014-10-8T10:32:30Z</time></trkpt>
<trkpt lat="46.20464377" lon="6.09603035"><ele></ele><time>2014-10-8T10:32:33Z</time></trkpt>
<trkpt lat="46.20462307" lon="6.09606673"><ele></ele><time>2014-10-8T10:32:36Z</time></trkpt>
<trkpt lat="46.20460312" lon="6.09610286"><ele></ele><time>2014-10-8T10:32:39Z</time></trkpt>
<trkpt lat="46.20458267" lon="6.09613915"><ele></ele><time>2014-10-8T10:32:42Z</time></trkpt>
<trkpt lat="46.20456213" lon="6.09617695"><ele></ele><time>2014-10-8T10:32:45Z</time></trkpt>
<trkpt lat="46.20454235" lon="6.09621584"><ele></ele><time>2014-10-8T10:32:48Z</time></trkpt>
<trkpt lat="46.20452056" lon="6.09625289"><ele></ele><time>2014-10-8T10:32:51Z</time></trkpt>
<trkpt lat="46.20449608" lon="6.09628709"><ele></ele><time>2014-10-8T10:32:54Z</time></trkpt>
<trkpt lat="46.20447102" lon="6.09632154"><ele></ele><time>2014-10-8T10:32:57Z</time></trkpt>
<trkpt lat="46.20444680" lon="6.09635775"><ele></ele><time>2014-10-8T10:33:0Z</time></trkpt>
<trkpt lat="46.20442534" lon="6.09639572"><ele></ele><time>2014-10-8T10:33:3Z</time></trkpt>
<trkpt lat="46.20440380" lon="6.09643277"><ele></ele><time>2014-10-8T10:33:6Z</time></trkpt>
<trkpt lat="46.20438804" lon="6.09647493"><ele></ele><time>2014-10-8T10:33:9Z</time></trkpt>
<trkpt lat="46.20438519" lon="6.09652908"><ele></ele><time>2014-10-8T10:33:12Z</time></trkpt>
<trkpt lat="46.20438167" lon="6.09658096"><ele></ele><time>2014-10-8T10:33:15Z</time></trkpt>
<trkpt lat="46.20438829" lon="6.09663175"><ele></ele><time>2014-10-8T10:33:18Z</time></trkpt>
<trkpt lat="46.20440497" lon="6.09667509"><ele></ele><time>2014-10-8T10:33:21Z</time></trkpt>
<trkpt lat="46.20442718" lon="6.09671172"><ele></ele><time>2014-10-8T10:33:24Z</time></trkpt>
<trkpt lat="46.20445166" lon="6.09673418"><ele></ele><time>2014-10-8T10:33:27Z</time></trkpt>
<trkpt lat="46.20447513" lon="6.09675472"><ele></ele><time>2014-10-8T10:33:30Z</time></trkpt>
<trkpt lat="46.20449826" lon="6.09678246"><ele></ele><time>2014-10-8T10:33:33Z</time></trkpt>
<trkpt lat="46.20451813" lon="6.09681347"><ele></ele><time>2014-10-8T10:33:36Z</time></trkpt>
<trkpt lat="46.20453682" lon="6.09684876"><ele></ele><time>2014-10-8T10:33:39Z</time></trkpt>
<trkpt lat="46.20455576" lon="6.09688589"><ele></ele><time>2014-10-8T10:33:42Z</time></trkpt>
<trkpt lat="46.20457579" lon="6.09692269"><ele></ele><time>2014-10-8T10:33:45Z</time></trkpt>
<trkpt lat="46.20460086" lon="6.09695085"><ele></ele><time>2014-10-8T10:33:48Z</time></trkpt>
<trkpt lat="46.20463195" lon="6.09695898"><ele></ele><time>2014-10-8T10:33:51Z</time></trkpt>
<trkpt lat="46.20466305" lon="6.09695027"><ele></ele><time>2014-10-8T10:33:54Z</time></trkpt>
<trkpt lat="46.20469373" lon="6.09693803"><ele></ele><time>2014-10-8T10:33:57Z</time></trkpt>
<trkpt lat="46.20472617" lon="6.09692319"><ele></ele><time>2014-10-8T10:34:0Z</time></trkpt>
<trkpt lat="46.20476263" lon="6.09690668"><ele></ele><time>2014-10-8T10:34:3Z</time></trkpt>
<trkpt lat="46.20479607" lon="6.09689436"><ele></ele><time>2014-10-8T10:34:6Z</time></trkpt>
<trkpt lat="46.20482859" lon="6.09688204"><ele></ele><time>2014-10-8T10:34:9Z</time></trkpt>
<trkpt lat="46.20486430" lon="6.09686913"><ele></ele><time>2014-10-8T10:34:12Z</time></trkpt>
<trkpt lat="46.20489565" lon="6.09685714"><ele></ele><time>2014-10-8T10:34:15Z</time></trkpt>
<trkpt lat="46.20493186" lon="6.09683988"><ele></ele><time>2014-10-8T10:34:18Z</time></trkpt>
<trkpt lat="46.20497226" lon="6.09682152"><ele></ele><time>2014-10-8T10:34:21Z</time></trkpt>
<trkpt lat="46.20500905" lon="6.09680685"><ele></ele><time>2014-10-8T10:34:24Z</time></trkpt>
<trkpt lat="46.20506345" lon="6.09681968"><ele></ele><time>2014-10-8T10:34:27Z</time></trkpt>
<trkpt lat="46.20509757" lon="6.09682404"><ele></ele><time>2014-10-8T10:34:30Z</time></trkpt>
<trkpt lat="46.20515322" lon="6.09679906"><ele></ele><time>2014-10-8T10:34:33Z</time></trkpt>
<trkpt lat="46.20520444" lon="6.09677450"><ele></ele><time>2014-10-8T10:34:36Z</time></trkpt>
<trkpt lat="46.20522439" lon="6.09677265"><ele></ele><time>2014-10-8T10:34:39Z</time></trkpt>
<trkpt lat="46.20526512" lon="6.09675866"><ele></ele><time>2014-10-8T10:34:42Z</time></trkpt>
<trkpt lat="46.20527468" lon="6.09676570"><ele></ele><time>2014-10-8T10:34:45Z</time></trkpt>
<trkpt lat="46.20528717" lon="6.09676779"><ele></ele><time>2014-10-8T10:34:48Z</time></trkpt>
<trkpt lat="46.20530695" lon="6.09676469"><ele></ele><time>2014-10-8T10:34:51Z</time></trkpt>
<trkpt lat="46.20532078" lon="6.09676754"><ele></ele><time>2014-10-8T10:34:54Z</time></trkpt>
<trkpt lat="46.20534844" lon="6.09677123"><ele></ele><time>2014-10-8T10:34:57Z</time></trkpt>
<trkpt lat="46.20537057" lon="6.09679294"><ele></ele><time>2014-10-8T10:35:0Z</time></trkpt>
<trkpt lat="46.20539496" lon="6.09681766"><ele></ele><time>2014-10-8T10:35:3Z</time></trkpt>
<trkpt lat="46.20541767" lon="6.09684725"><ele></ele><time>2014-10-8T10:35:6Z</time></trkpt>
<trkpt lat="46.20543955" lon="6.09687248"><ele></ele><time>2014-10-8T10:35:9Z</time></trkpt>
<trkpt lat="46.20546838" lon="6.09688598"><ele></ele><time>2014-10-8T10:35:12Z</time></trkpt>
<trkpt lat="46.20549386" lon="6.09687215"><ele></ele><time>2014-10-8T10:35:15Z</time></trkpt>
<trkpt lat="46.20552504" lon="6.09684625"><ele></ele><time>2014-10-8T10:35:18Z</time></trkpt>
<trkpt lat="46.20555262" lon="6.09682445"><ele></ele><time>2014-10-8T10:35:21Z</time></trkpt>
<trkpt lat="46.20558942" lon="6.09680023"><ele></ele><time>2014-10-8T10:35:24Z</time></trkpt>
<trkpt lat="46.20562395" lon="6.09677316"><ele></ele><time>2014-10-8T10:35:27Z</time></trkpt>
<trkpt lat="46.20565589" lon="6.09673670"><ele></ele><time>2014-10-8T10:35:30Z</time></trkpt>
<trkpt lat="46.20569226" lon="6.09670023"><ele></ele><time>2014-10-8T10:35:33Z</time></trkpt>
<trkpt lat="46.20572587" lon="6.09667090"><ele></ele><time>2014-10-8T10:35:36Z</time></trkpt>
<trkpt lat="46.20575840" lon="6.09664517"><ele></ele><time>2014-10-8T10:35:39Z</time></trkpt>
<trkpt lat="46.20579192" lon="6.09661885"><ele></ele><time>2014-10-8T10:35:42Z</time></trkpt>
<trkpt lat="46.20582713" lon="6.09660594"><ele></ele><time>2014-10-8T10:35:45Z</time></trkpt>
<trkpt lat="46.20585898" lon="6.09658859"><ele></ele><time>2014-10-8T10:35:48Z</time></trkpt>
<trkpt lat="46.20589418" lon="6.09656763"><ele></ele><time>2014-10-8T10:35:51Z</time></trkpt>
<trkpt lat="46.20592955" lon="6.09654844"><ele></ele><time>2014-10-8T10:35:54Z</time></trkpt>
<trkpt lat="46.20595646" lon="6.09650879"><ele></ele><time>2014-10-8T10:35:57Z</time></trkpt>
<trkpt lat="46.20599150" lon="6.09648172"><ele></ele><time>2014-10-8T10:36:0Z</time></trkpt>
<trkpt lat="46.20599954" lon="6.09649915"><ele></ele><time>2014-10-8T10:36:3Z</time></trkpt>
<trkpt lat="46.20602896" lon="6.09655422"><ele></ele><time>2014-10-8T10:36:6Z</time></trkpt>
<trkpt lat="46.20604497" lon="6.09658507"><ele></ele><time>2014-10-8T10:36:9Z</time></trkpt>
<trkpt lat="46.20605847" lon="6.09662027"><ele></ele><time>2014-10-8T10:36:12Z</time></trkpt>
<trkpt lat="46.20607045" lon="6.09664768"><ele></ele><time>2014-10-8T10:36:15Z</time></trkpt>
<trkpt lat="46.20608680" lon="6.09669185"><ele></ele><time>2014-10-8T10:36:18Z</time></trkpt>
<trkpt lat="46.20609468" lon="6.09672764"><ele></ele><time>2014-10-8T10:36:21Z</time></trkpt>
<trkpt lat="46.20610029" lon="6.09676318"><ele></ele><time>2014-10-8T10:36:24Z</time></trkpt>
<trkpt lat="46.20611094" lon="6.09679478"><ele></ele><time>2014-10-8T10:36:27Z</time></trkpt>
<trkpt lat="46.20610373" lon="6.09682445"><ele></ele><time>2014-10-8T10:36:30Z</time></trkpt>
<trkpt lat="46.20610096" lon="6.09683518"><ele></ele><time>2014-10-8T10:36:33Z</time></trkpt>
<trkpt lat="46.20611513" lon="6.09685396"><ele></ele><time>2014-10-8T10:36:36Z</time></trkpt>
<trkpt lat="46.20612837" lon="6.09686175"><ele></ele><time>2014-10-8T10:36:39Z</time></trkpt>
<trkpt lat="46.20614405" lon="6.09687969"><ele></ele><time>2014-10-8T10:36:42Z</time></trkpt>
<trkpt lat="46.20616148" lon="6.09688925"><ele></ele><time>2014-10-8T10:36:45Z</time></trkpt>
<trkpt lat="46.20617238" lon="6.09690710"><ele></ele><time>2014-10-8T10:36:48Z</time></trkpt>
<trkpt lat="46.20617397" lon="6.09692370"><ele></ele><time>2014-10-8T10:36:51Z</time></trkpt>
<trkpt lat="46.20616467" lon="6.09693727"><ele></ele><time>2014-10-8T10:36:54Z</time></trkpt>
<trkpt lat="46.20616408" lon="6.09693987"><ele></ele><time>2014-10-8T10:36:57Z</time></trkpt>
<trkpt lat="46.20616375" lon="6.09694390"><ele></ele><time>2014-10-8T10:37:0Z</time></trkpt>
<trkpt lat="46.20616274" lon="6.09694884"><ele></ele><time>2014-10-8T10:37:3Z</time></trkpt>
<trkpt lat="46.20615578" lon="6.09696032"><ele></ele><time>2014-10-8T10:37:6Z</time></trkpt>
<trkpt lat="46.20615344" lon="6.09697994"><ele></ele><time>2014-10-8T10:37:9Z</time></trkpt>
<trkpt lat="46.20615536" lon="6.09700760"><ele></ele><time>2014-10-8T10:37:12Z</time></trkpt>
<trkpt lat="46.20616458" lon="6.09705018"><ele></ele><time>2014-10-8T10:37:15Z</time></trkpt>
<trkpt lat="46.20618453" lon="6.09707164"><ele></ele><time>2014-10-8T10:37:18Z</time></trkpt>
<trkpt lat="46.20620322" lon="6.09712008"><ele></ele><time>2014-10-8T10:37:21Z</time></trkpt>
<trkpt lat="46.20622125" lon="6.09716677"><ele></ele><time>2014-10-8T10:37:24Z</time></trkpt>
<trkpt lat="46.20624153" lon="6.09719695"><ele></ele><time>2014-10-8T10:37:27Z</time></trkpt>
<trkpt lat="46.20626433" lon="6.09723148"><ele></ele><time>2014-10-8T10:37:30Z</time></trkpt>
<trkpt lat="46.20628989" lon="6.09726660"><ele></ele><time>2014-10-8T10:37:33Z</time></trkpt>
<trkpt lat="46.20631244" lon="6.09730432"><ele></ele><time>2014-10-8T10:37:36Z</time></trkpt>
<trkpt lat="46.20632594" lon="6.09734254"><ele></ele><time>2014-10-8T10:37:39Z</time></trkpt>
<trkpt lat="46.20634295" lon="6.09737464"><ele></ele><time>2014-10-8T10:37:42Z</time></trkpt>
<trkpt lat="46.20636458" lon="6.09739317"><ele></ele><time>2014-10-8T10:37:45Z</time></trkpt>
<trkpt lat="46.20639148" lon="6.09739987"><ele></ele><time>2014-10-8T10:37:48Z</time></trkpt>
<trkpt lat="46.20641897" lon="6.09739803"><ele></ele><time>2014-10-8T10:37:51Z</time></trkpt>
<trkpt lat="46.20644789" lon="6.09739082"><ele></ele><time>2014-10-8T10:37:54Z</time></trkpt>
<trkpt lat="46.20648050" lon="6.09737967"><ele></ele><time>2014-10-8T10:37:57Z</time></trkpt>
<trkpt lat="46.20651528" lon="6.09737188"><ele></ele><time>2014-10-8T10:38:0Z</time></trkpt>
<trkpt lat="46.20655149" lon="6.09736039"><ele></ele><time>2014-10-8T10:38:3Z</time></trkpt>
<trkpt lat="46.20658452" lon="6.09734933"><ele></ele><time>2014-10-8T10:38:6Z</time></trkpt>
<trkpt lat="46.20661855" lon="6.09733307"><ele></ele><time>2014-10-8T10:38:9Z</time></trkpt>
<trkpt lat="46.20664923" lon="6.09731639"><ele></ele><time>2014-10-8T10:38:12Z</time></trkpt>
<trkpt lat="46.20668208" lon="6.09730365"><ele></ele><time>2014-10-8T10:38:15Z</time></trkpt>
<trkpt lat="46.20671494" lon="6.09729887"><ele></ele><time>2014-10-8T10:38:18Z</time></trkpt>
<trkpt lat="46.20674654" lon="6.09731119"><ele></ele><time>2014-10-8T10:38:21Z</time></trkpt>
<trkpt lat="46.20677319" lon="6.09733952"><ele></ele><time>2014-10-8T10:38:24Z</time></trkpt>
<trkpt lat="46.20679130" lon="6.09737934"><ele></ele><time>2014-10-8T10:38:27Z</time></trkpt>
<trkpt lat="46.20680412" lon="6.09742829"><ele></ele><time>2014-10-8T10:38:30Z</time></trkpt>
<trkpt lat="46.20681100" lon="6.09747497"><ele></ele><time>2014-10-8T10:38:33Z</time></trkpt>
<trkpt lat="46.20680957" lon="6.09751269"><ele></ele><time>2014-10-8T10:38:36Z</time></trkpt>
<trkpt lat="46.20680965" lon="6.09753884"><ele></ele><time>2014-10-8T10:38:39Z</time></trkpt>
<trkpt lat="46.20680857" lon="6.09755494"><ele></ele><time>2014-10-8T10:38:42Z</time></trkpt>
<trkpt lat="46.20680932" lon="6.09756097"><ele></ele><time>2014-10-8T10:38:45Z</time></trkpt>
<trkpt lat="46.20680823" lon="6.09755955"><ele></ele><time>2014-10-8T10:38:48Z</time></trkpt>
<trkpt lat="46.20680613" lon="6.09756189"><ele></ele><time>2014-10-8T10:38:51Z</time></trkpt>
<trkpt lat="46.20680898" lon="6.09756583"><ele></ele><time>2014-10-8T10:38:54Z</time></trkpt>
<trkpt lat="46.20681292" lon="6.09757053"><ele></ele><time>2014-10-8T10:38:57Z</time></trkpt>
<trkpt lat="46.20681544" lon="6.09757489"><ele></ele><time>2014-10-8T10:39:0Z</time></trkpt>
<trkpt lat="46.20681670" lon="6.09757799"><ele></ele><time>2014-10-8T10:39:3Z</time></trkpt>
<trkpt lat="46.20681519" lon="6.09757698"><ele></ele><time>2014-10-8T10:39:6Z</time></trkpt>
<trkpt lat="46.20681468" lon="6.09757598"><ele></ele><time>2014-10-8T10:39:9Z</time></trkpt>
<trkpt lat="46.20681946" lon="6.09757648"><ele></ele><time>2014-10-8T10:39:12Z</time></trkpt>
<trkpt lat="46.20682818" lon="6.09757589"><ele></ele><time>2014-10-8T10:39:15Z</time></trkpt>
<trkpt lat="46.20684016" lon="6.09756617"><ele></ele><time>2014-10-8T10:39:18Z</time></trkpt>
<trkpt lat="46.20685676" lon="6.09754873"><ele></ele><time>2014-10-8T10:39:21Z</time></trkpt>
<trkpt lat="46.20687763" lon="6.09753046"><ele></ele><time>2014-10-8T10:39:24Z</time></trkpt>
<trkpt lat="46.20690286" lon="6.09751822"><ele></ele><time>2014-10-8T10:39:27Z</time></trkpt>
<trkpt lat="46.20693178" lon="6.09750263"><ele></ele><time>2014-10-8T10:39:30Z</time></trkpt>
<trkpt lat="46.20696723" lon="6.09749442"><ele></ele><time>2014-10-8T10:39:33Z</time></trkpt>
<trkpt lat="46.20700445" lon="6.09748218"><ele></ele><time>2014-10-8T10:39:36Z</time></trkpt>
<trkpt lat="46.20703647" lon="6.09746567"><ele></ele><time>2014-10-8T10:39:39Z</time></trkpt>
<trkpt lat="46.20706757" lon="6.09745293"><ele></ele><time>2014-10-8T10:39:42Z</time></trkpt>
<trkpt lat="46.20709648" lon="6.09744547"><ele></ele><time>2014-10-8T10:39:45Z</time></trkpt>
<trkpt lat="46.20711752" lon="6.09743885"><ele></ele><time>2014-10-8T10:39:48Z</time></trkpt>
<trkpt lat="46.20713890" lon="6.09743340"><ele></ele><time>2014-10-8T10:39:51Z</time></trkpt>
<trkpt lat="46.20715013" lon="6.09742812"><ele></ele><time>2014-10-8T10:39:54Z</time></trkpt>
<trkpt lat="46.20715633" lon="6.09742468"><ele></ele><time>2014-10-8T10:39:57Z</time></trkpt>
<trkpt lat="46.20716069" lon="6.09742183"><ele></ele><time>2014-10-8T10:40:0Z</time></trkpt>
<trkpt lat="46.20716312" lon="6.09741999"><ele></ele><time>2014-10-8T10:40:3Z</time></trkpt>
<trkpt lat="46.20716698" lon="6.09741773"><ele></ele><time>2014-10-8T10:40:6Z</time></trkpt>
<trkpt lat="46.20716790" lon="6.09741613"><ele></ele><time>2014-10-8T10:40:9Z</time></trkpt>
<trkpt lat="46.20717058" lon="6.09741898"><ele></ele><time>2014-10-8T10:40:12Z</time></trkpt>
<trkpt lat="46.20718055" lon="6.09743214"><ele></ele><time>2014-10-8T10:40:15Z</time></trkpt>
<trkpt lat="46.20719707" lon="6.09744639"><ele></ele><time>2014-10-8T10:40:18Z</time></trkpt>
<trkpt lat="46.20721735" lon="6.09745620"><ele></ele><time>2014-10-8T10:40:21Z</time></trkpt>
<trkpt lat="46.20724300" lon="6.09746005"><ele></ele><time>2014-10-8T10:40:24Z</time></trkpt>
<trkpt lat="46.20727460" lon="6.09745913"><ele></ele><time>2014-10-8T10:40:27Z</time></trkpt>
<trkpt lat="46.20731257" lon="6.09746324"><ele></ele><time>2014-10-8T10:40:30Z</time></trkpt>
<trkpt lat="46.20735649" lon="6.09747673"><ele></ele><time>2014-10-8T10:40:33Z</time></trkpt>
<trkpt lat="46.20740544" lon="6.09749417"><ele></ele><time>2014-10-8T10:40:36Z</time></trkpt>
<trkpt lat="46.20746093" lon="6.09750012"><ele></ele><time>2014-10-8T10:40:39Z</time></trkpt>
<trkpt lat="46.20752052" lon="6.09749828"><ele></ele><time>2014-10-8T10:40:42Z</time></trkpt>
<trkpt lat="46.20758238" lon="6.09749543"><ele></ele><time>2014-10-8T10:40:45Z</time></trkpt>
<trkpt lat="46.20764533" lon="6.09749794"><ele></ele><time>2014-10-8T10:40:48Z</time></trkpt>
<trkpt lat="46.20770853" lon="6.09750649"><ele></ele><time>2014-10-8T10:40:51Z</time></trkpt>
<trkpt lat="46.20777156" lon="6.09751998"><ele></ele><time>2014-10-8T10:40:54Z</time></trkpt>
<trkpt lat="46.20783359" lon="6.09753893"><ele></ele><time>2014-10-8T10:40:57Z</time></trkpt>
<trkpt lat="46.20789402" lon="6.09756424"><ele></ele><time>2014-10-8T10:41:0Z</time></trkpt>
<trkpt lat="46.20795387" lon="6.09759634"><ele></ele><time>2014-10-8T10:41:3Z</time></trkpt>
<trkpt lat="46.20801388" lon="6.09764999"><ele></ele><time>2014-10-8T10:41:6Z</time></trkpt>
<trkpt lat="46.20807063" lon="6.09769869"><ele></ele><time>2014-10-8T10:41:9Z</time></trkpt>
<trkpt lat="46.20812000" lon="6.09774873"><ele></ele><time>2014-10-8T10:41:12Z</time></trkpt>
<trkpt lat="46.20816853" lon="6.09780380"><ele></ele><time>2014-10-8T10:41:15Z</time></trkpt>
<trkpt lat="46.20821639" lon="6.09786306"><ele></ele><time>2014-10-8T10:41:18Z</time></trkpt>
<trkpt lat="46.20825947" lon="6.09792642"><ele></ele><time>2014-10-8T10:41:21Z</time></trkpt>
<trkpt lat="46.20829962" lon="6.09799306"><ele></ele><time>2014-10-8T10:41:24Z</time></trkpt>
<trkpt lat="46.20833617" lon="6.09806397"><ele></ele><time>2014-10-8T10:41:27Z</time></trkpt>
<trkpt lat="46.20836894" lon="6.09813723"><ele></ele><time>2014-10-8T10:41:30Z</time></trkpt>
<trkpt lat="46.20840004" lon="6.09821199"><ele></ele><time>2014-10-8T10:41:33Z</time></trkpt>
<trkpt lat="46.20842937" lon="6.09828576"><ele></ele><time>2014-10-8T10:41:36Z</time></trkpt>
<trkpt lat="46.20845955" lon="6.09836312"><ele></ele><time>2014-10-8T10:41:39Z</time></trkpt>
<trkpt lat="46.20848126" lon="6.09843655"><ele></ele><time>2014-10-8T10:41:42Z</time></trkpt>
<trkpt lat="46.20850322" lon="6.09850972"><ele></ele><time>2014-10-8T10:41:45Z</time></trkpt>
<trkpt lat="46.20852669" lon="6.09858348"><ele></ele><time>2014-10-8T10:41:48Z</time></trkpt>
<trkpt lat="46.20855007" lon="6.09865699"><ele></ele><time>2014-10-8T10:41:51Z</time></trkpt>
<trkpt lat="46.20857312" lon="6.09873050"><ele></ele><time>2014-10-8T10:41:54Z</time></trkpt>
<trkpt lat="46.20859475" lon="6.09880292"><ele></ele><time>2014-10-8T10:41:57Z</time></trkpt>
<trkpt lat="46.20861797" lon="6.09887660"><ele></ele><time>2014-10-8T10:42:0Z</time></trkpt>
<trkpt lat="46.20864353" lon="6.09895036"><ele></ele><time>2014-10-8T10:42:3Z</time></trkpt>
<trkpt lat="46.20866859" lon="6.09902152"><ele></ele><time>2014-10-8T10:42:6Z</time></trkpt>
<trkpt lat="46.20869248" lon="6.09909176"><ele></ele><time>2014-10-8T10:42:9Z</time></trkpt>
<trkpt lat="46.20871503" lon="6.09916150"><ele></ele><time>2014-10-8T10:42:12Z</time></trkpt>
<trkpt lat="46.20874017" lon="6.09923224"><ele></ele><time>2014-10-8T10:42:15Z</time></trkpt>
<trkpt lat="46.20876507" lon="6.09930407"><ele></ele><time>2014-10-8T10:42:18Z</time></trkpt>
<trkpt lat="46.20878946" lon="6.09937616"><ele></ele><time>2014-10-8T10:42:21Z</time></trkpt>
<trkpt lat="46.20881553" lon="6.09944765"><ele></ele><time>2014-10-8T10:42:24Z</time></trkpt>
<trkpt lat="46.20884160" lon="6.09951798"><ele></ele><time>2014-10-8T10:42:27Z</time></trkpt>
<trkpt lat="46.20886683" lon="6.09958746"><ele></ele><time>2014-10-8T10:42:30Z</time></trkpt>
<trkpt lat="46.20889205" lon="6.09965762"><ele></ele><time>2014-10-8T10:42:33Z</time></trkpt>
<trkpt lat="46.20891754" lon="6.09972887"><ele></ele><time>2014-10-8T10:42:36Z</time></trkpt>
<trkpt lat="46.20894033" lon="6.09979944"><ele></ele><time>2014-10-8T10:42:39Z</time></trkpt>
<trkpt lat="46.20896062" lon="6.09986859"><ele></ele><time>2014-10-8T10:42:42Z</time></trkpt>
<trkpt lat="46.20898048" lon="6.09993707"><ele></ele><time>2014-10-8T10:42:45Z</time></trkpt>
<trkpt lat="46.20900228" lon="6.10000547"><ele></ele><time>2014-10-8T10:42:48Z</time></trkpt>
<trkpt lat="46.20902642" lon="6.10007244"><ele></ele><time>2014-10-8T10:42:51Z</time></trkpt>
<trkpt lat="46.20905072" lon="6.10013799"><ele></ele><time>2014-10-8T10:42:54Z</time></trkpt>
<trkpt lat="46.20907453" lon="6.10020203"><ele></ele><time>2014-10-8T10:42:57Z</time></trkpt>
<trkpt lat="46.20910068" lon="6.10026455"><ele></ele><time>2014-10-8T10:43:0Z</time></trkpt>
<trkpt lat="46.20912625" lon="6.10032608"><ele></ele><time>2014-10-8T10:43:3Z</time></trkpt>
<trkpt lat="46.20914988" lon="6.10038844"><ele></ele><time>2014-10-8T10:43:6Z</time></trkpt>
<trkpt lat="46.20917159" lon="6.10045088"><ele></ele><time>2014-10-8T10:43:9Z</time></trkpt>
<trkpt lat="46.20919204" lon="6.10051308"><ele></ele><time>2014-10-8T10:43:12Z</time></trkpt>
<trkpt lat="46.20921308" lon="6.10057410"><ele></ele><time>2014-10-8T10:43:15Z</time></trkpt>
<trkpt lat="46.20923462" lon="6.10063470"><ele></ele><time>2014-10-8T10:43:18Z</time></trkpt>
<trkpt lat="46.20925583" lon="6.10069706"><ele></ele><time>2014-10-8T10:43:21Z</time></trkpt>
<trkpt lat="46.20927678" lon="6.10076009"><ele></ele><time>2014-10-8T10:43:24Z</time></trkpt>
<trkpt lat="46.20929883" lon="6.10082354"><ele></ele><time>2014-10-8T10:43:27Z</time></trkpt>
<trkpt lat="46.20932079" lon="6.10088725"><ele></ele><time>2014-10-8T10:43:30Z</time></trkpt>
<trkpt lat="46.20934309" lon="6.10095070"><ele></ele><time>2014-10-8T10:43:33Z</time></trkpt>
<trkpt lat="46.20936546" lon="6.10101390"><ele></ele><time>2014-10-8T10:43:36Z</time></trkpt>
<trkpt lat="46.20938759" lon="6.10107760"><ele></ele><time>2014-10-8T10:43:39Z</time></trkpt>
<trkpt lat="46.20940989" lon="6.10114164"><ele></ele><time>2014-10-8T10:43:42Z</time></trkpt>
<trkpt lat="46.20943252" lon="6.10120567"><ele></ele><time>2014-10-8T10:43:45Z</time></trkpt>
<trkpt lat="46.20945490" lon="6.10126988"><ele></ele><time>2014-10-8T10:43:48Z</time></trkpt>
<trkpt lat="46.20947736" lon="6.10133325"><ele></ele><time>2014-10-8T10:43:51Z</time></trkpt>
<trkpt lat="46.20949999" lon="6.10139703"><ele></ele><time>2014-10-8T10:43:54Z</time></trkpt>
<trkpt lat="46.20952263" lon="6.10146116"><ele></ele><time>2014-10-8T10:43:57Z</time></trkpt>
<trkpt lat="46.20954534" lon="6.10152419"><ele></ele><time>2014-10-8T10:44:0Z</time></trkpt>
<trkpt lat="46.20956806" lon="6.10158538"><ele></ele><time>2014-10-8T10:44:3Z</time></trkpt>
<trkpt lat="46.20958943" lon="6.10164598"><ele></ele><time>2014-10-8T10:44:6Z</time></trkpt>
<trkpt lat="46.20961072" lon="6.10170708"><ele></ele><time>2014-10-8T10:44:9Z</time></trkpt>
<trkpt lat="46.20963293" lon="6.10176877"><ele></ele><time>2014-10-8T10:44:12Z</time></trkpt>
<trkpt lat="46.20965548" lon="6.10183105"><ele></ele><time>2014-10-8T10:44:15Z</time></trkpt>
<trkpt lat="46.20967777" lon="6.10189400"><ele></ele><time>2014-10-8T10:44:18Z</time></trkpt>
<trkpt lat="46.20969974" lon="6.10195694"><ele></ele><time>2014-10-8T10:44:21Z</time></trkpt>
<trkpt lat="46.20972170" lon="6.10201864"><ele></ele><time>2014-10-8T10:44:24Z</time></trkpt>
<trkpt lat="46.20974366" lon="6.10207924"><ele></ele><time>2014-10-8T10:44:27Z</time></trkpt>
<trkpt lat="46.20976537" lon="6.10213925"><ele></ele><time>2014-10-8T10:44:30Z</time></trkpt>
<trkpt lat="46.20978682" lon="6.10219860"><ele></ele><time>2014-10-8T10:44:33Z</time></trkpt>
<trkpt lat="46.20980878" lon="6.10225735"><ele></ele><time>2014-10-8T10:44:36Z</time></trkpt>
<trkpt lat="46.20982882" lon="6.10231519"><ele></ele><time>2014-10-8T10:44:39Z</time></trkpt>
<trkpt lat="46.20984994" lon="6.10237445"><ele></ele><time>2014-10-8T10:44:42Z</time></trkpt>
<trkpt lat="46.20987265" lon="6.10243547"><ele></ele><time>2014-10-8T10:44:45Z</time></trkpt>
<trkpt lat="46.20989688" lon="6.10249892"><ele></ele><time>2014-10-8T10:44:48Z</time></trkpt>
<trkpt lat="46.20992152" lon="6.10256539"><ele></ele><time>2014-10-8T10:44:51Z</time></trkpt>
<trkpt lat="46.20994709" lon="6.10263429"><ele></ele><time>2014-10-8T10:44:54Z</time></trkpt>
<trkpt lat="46.20997332" lon="6.10270486"><ele></ele><time>2014-10-8T10:44:57Z</time></trkpt>
<trkpt lat="46.21000065" lon="6.10277628"><ele></ele><time>2014-10-8T10:45:0Z</time></trkpt>
<trkpt lat="46.21002914" lon="6.10284895"><ele></ele><time>2014-10-8T10:45:3Z</time></trkpt>
<trkpt lat="46.21005848" lon="6.10292338"><ele></ele><time>2014-10-8T10:45:6Z</time></trkpt>
<trkpt lat="46.21008924" lon="6.10299873"><ele></ele><time>2014-10-8T10:45:9Z</time></trkpt>
<trkpt lat="46.21012218" lon="6.10307492"><ele></ele><time>2014-10-8T10:45:12Z</time></trkpt>
<trkpt lat="46.21015588" lon="6.10315145"><ele></ele><time>2014-10-8T10:45:15Z</time></trkpt>
<trkpt lat="46.21019117" lon="6.10322798"><ele></ele><time>2014-10-8T10:45:18Z</time></trkpt>
<trkpt lat="46.21022796" lon="6.10330333"><ele></ele><time>2014-10-8T10:45:21Z</time></trkpt>
<trkpt lat="46.21026618" lon="6.10337818"><ele></ele><time>2014-10-8T10:45:24Z</time></trkpt>
<trkpt lat="46.21030625" lon="6.10345144"><ele></ele><time>2014-10-8T10:45:27Z</time></trkpt>
<trkpt lat="46.21034699" lon="6.10352252"><ele></ele><time>2014-10-8T10:45:30Z</time></trkpt>
<trkpt lat="46.21038789" lon="6.10359058"><ele></ele><time>2014-10-8T10:45:33Z</time></trkpt>
<trkpt lat="46.21043013" lon="6.10365470"><ele></ele><time>2014-10-8T10:45:36Z</time></trkpt>
<trkpt lat="46.21047364" lon="6.10371547"><ele></ele><time>2014-10-8T10:45:39Z</time></trkpt>
<trkpt lat="46.21051756" lon="6.10377439"><ele></ele><time>2014-10-8T10:45:42Z</time></trkpt>
<trkpt lat="46.21056207" lon="6.10382946"><ele></ele><time>2014-10-8T10:45:45Z</time></trkpt>
<trkpt lat="46.21060674" lon="6.10388109"><ele></ele><time>2014-10-8T10:45:48Z</time></trkpt>
<trkpt lat="46.21065276" lon="6.10393172"><ele></ele><time>2014-10-8T10:45:51Z</time></trkpt>
<trkpt lat="46.21069978" lon="6.10398168"><ele></ele><time>2014-10-8T10:45:54Z</time></trkpt>
<trkpt lat="46.21074747" lon="6.10403038"><ele></ele><time>2014-10-8T10:45:57Z</time></trkpt>
<trkpt lat="46.21079617" lon="6.10407916"><ele></ele><time>2014-10-8T10:46:0Z</time></trkpt>
<trkpt lat="46.21084403" lon="6.10412744"><ele></ele><time>2014-10-8T10:46:3Z</time></trkpt>
<trkpt lat="46.21089139" lon="6.10417488"><ele></ele><time>2014-10-8T10:46:6Z</time></trkpt>
<trkpt lat="46.21093808" lon="6.10422006"><ele></ele><time>2014-10-8T10:46:9Z</time></trkpt>
<trkpt lat="46.21098443" lon="6.10426373"><ele></ele><time>2014-10-8T10:46:12Z</time></trkpt>
<trkpt lat="46.21103028" lon="6.10430547"><ele></ele><time>2014-10-8T10:46:15Z</time></trkpt>
<trkpt lat="46.21107588" lon="6.10434587"><ele></ele><time>2014-10-8T10:46:18Z</time></trkpt>
<trkpt lat="46.21112122" lon="6.10438585"><ele></ele><time>2014-10-8T10:46:21Z</time></trkpt>
<trkpt lat="46.21116665" lon="6.10442592"><ele></ele><time>2014-10-8T10:46:24Z</time></trkpt>
<trkpt lat="46.21121275" lon="6.10446632"><ele></ele><time>2014-10-8T10:46:27Z</time></trkpt>
<trkpt lat="46.21125818" lon="6.10450739"><ele></ele><time>2014-10-8T10:46:30Z</time></trkpt>
<trkpt lat="46.21130328" lon="6.10455022"><ele></ele><time>2014-10-8T10:46:33Z</time></trkpt>
<trkpt lat="46.21134946" lon="6.10459305"><ele></ele><time>2014-10-8T10:46:36Z</time></trkpt>
<trkpt lat="46.21139615" lon="6.10463429"><ele></ele><time>2014-10-8T10:46:39Z</time></trkpt>
<trkpt lat="46.21144292" lon="6.10467293"><ele></ele><time>2014-10-8T10:46:42Z</time></trkpt>
<trkpt lat="46.21149003" lon="6.10471048"><ele></ele><time>2014-10-8T10:46:45Z</time></trkpt>
<trkpt lat="46.21153395" lon="6.10474996"><ele></ele><time>2014-10-8T10:46:48Z</time></trkpt>
<trkpt lat="46.21157602" lon="6.10478885"><ele></ele><time>2014-10-8T10:46:51Z</time></trkpt>
<trkpt lat="46.21161726" lon="6.10482498"><ele></ele><time>2014-10-8T10:46:54Z</time></trkpt>
<trkpt lat="46.21165842" lon="6.10485868"><ele></ele><time>2014-10-8T10:46:57Z</time></trkpt>
<trkpt lat="46.21169874" lon="6.10489095"><ele></ele><time>2014-10-8T10:47:0Z</time></trkpt>
<trkpt lat="46.21173738" lon="6.10492305"><ele></ele><time>2014-10-8T10:47:3Z</time></trkpt>
<trkpt lat="46.21177426" lon="6.10495456"><ele></ele><time>2014-10-8T10:47:6Z</time></trkpt>
<trkpt lat="46.21180912" lon="6.10498658"><ele></ele><time>2014-10-8T10:47:9Z</time></trkpt>
<trkpt lat="46.21184257" lon="6.10501869"><ele></ele><time>2014-10-8T10:47:12Z</time></trkpt>
<trkpt lat="46.21187509" lon="6.10505062"><ele></ele><time>2014-10-8T10:47:15Z</time></trkpt>
<trkpt lat="46.21190644" lon="6.10508272"><ele></ele><time>2014-10-8T10:47:18Z</time></trkpt>
<trkpt lat="46.21193695" lon="6.10511432"><ele></ele><time>2014-10-8T10:47:21Z</time></trkpt>
<trkpt lat="46.21197039" lon="6.10514467"><ele></ele><time>2014-10-8T10:47:24Z</time></trkpt>
<trkpt lat="46.21200342" lon="6.10517543"><ele></ele><time>2014-10-8T10:47:27Z</time></trkpt>
<trkpt lat="46.21203577" lon="6.10520795"><ele></ele><time>2014-10-8T10:47:30Z</time></trkpt>
<trkpt lat="46.21206754" lon="6.10524047"><ele></ele><time>2014-10-8T10:47:33Z</time></trkpt>
<trkpt lat="46.21209629" lon="6.10526872"><ele></ele><time>2014-10-8T10:47:36Z</time></trkpt>
<trkpt lat="46.21211565" lon="6.10528733"><ele></ele><time>2014-10-8T10:47:39Z</time></trkpt>
<trkpt lat="46.21212278" lon="6.10529428"><ele></ele><time>2014-10-8T10:47:42Z</time></trkpt>
<trkpt lat="46.21212395" lon="6.10529479"><ele></ele><time>2014-10-8T10:47:45Z</time></trkpt>
<trkpt lat="46.21212537" lon="6.10529579"><ele></ele><time>2014-10-8T10:47:48Z</time></trkpt>
<trkpt lat="46.21212479" lon="6.10529554"><ele></ele><time>2014-10-8T10:47:51Z</time></trkpt>
<trkpt lat="46.21212512" lon="6.10529487"><ele></ele><time>2014-10-8T10:47:54Z</time></trkpt>
<trkpt lat="46.21212537" lon="6.10529445"><ele></ele><time>2014-10-8T10:47:57Z</time></trkpt>
<trkpt lat="46.21212588" lon="6.10529437"><ele></ele><time>2014-10-8T10:48:0Z</time></trkpt>
<trkpt lat="46.21212613" lon="6.10529445"><ele></ele><time>2014-10-8T10:48:3Z</time></trkpt>
<trkpt lat="46.21212613" lon="6.10529420"><ele></ele><time>2014-10-8T10:48:6Z</time></trkpt>
<trkpt lat="46.21212630" lon="6.10529386"><ele></ele><time>2014-10-8T10:48:9Z</time></trkpt>
<trkpt lat="46.21212680" lon="6.10529370"><ele></ele><time>2014-10-8T10:48:12Z</time></trkpt>
<trkpt lat="46.21212722" lon="6.10529345"><ele></ele><time>2014-10-8T10:48:15Z</time></trkpt>
<trkpt lat="46.21212722" lon="6.10529319"><ele></ele><time>2014-10-8T10:48:18Z</time></trkpt>
<trkpt lat="46.21212713" lon="6.10529269"><ele></ele><time>2014-10-8T10:48:21Z</time></trkpt>
<trkpt lat="46.21212755" lon="6.10529185"><ele></ele><time>2014-10-8T10:48:24Z</time></trkpt>
<trkpt lat="46.21212898" lon="6.10529269"><ele></ele><time>2014-10-8T10:48:27Z</time></trkpt>
<trkpt lat="46.21212864" lon="6.10529169"><ele></ele><time>2014-10-8T10:48:30Z</time></trkpt>
<trkpt lat="46.21212848" lon="6.10529009"><ele></ele><time>2014-10-8T10:48:33Z</time></trkpt>
<trkpt lat="46.21212856" lon="6.10528942"><ele></ele><time>2014-10-8T10:48:36Z</time></trkpt>
<trkpt lat="46.21212873" lon="6.10528934"><ele></ele><time>2014-10-8T10:48:39Z</time></trkpt>
<trkpt lat="46.21212864" lon="6.10528850"><ele></ele><time>2014-10-8T10:48:42Z</time></trkpt>
<trkpt lat="46.21212856" lon="6.10528775"><ele></ele><time>2014-10-8T10:48:45Z</time></trkpt>
<trkpt lat="46.21212864" lon="6.10528716"><ele></ele><time>2014-10-8T10:48:48Z</time></trkpt>
<trkpt lat="46.21212864" lon="6.10528649"><ele></ele><time>2014-10-8T10:48:51Z</time></trkpt>
<trkpt lat="46.21212848" lon="6.10528582"><ele></ele><time>2014-10-8T10:48:54Z</time></trkpt>
<trkpt lat="46.21212822" lon="6.10528523"><ele></ele><time>2014-10-8T10:48:57Z</time></trkpt>
<trkpt lat="46.21212814" lon="6.10528473"><ele></ele><time>2014-10-8T10:49:0Z</time></trkpt>
<trkpt lat="46.21212789" lon="6.10528414"><ele></ele><time>2014-10-8T10:49:3Z</time></trkpt>
<trkpt lat="46.21212764" lon="6.10528364"><ele></ele><time>2014-10-8T10:49:6Z</time></trkpt>
<trkpt lat="46.21212747" lon="6.10528322"><ele></ele><time>2014-10-8T10:49:9Z</time></trkpt>
<trkpt lat="46.21212722" lon="6.10528272"><ele></ele><time>2014-10-8T10:49:12Z</time></trkpt>
<trkpt lat="46.21212462" lon="6.10528138"><ele></ele><time>2014-10-8T10:49:15Z</time></trkpt>
<trkpt lat="46.21212219" lon="6.10528012"><ele></ele><time>2014-10-8T10:49:18Z</time></trkpt>
<trkpt lat="46.21211967" lon="6.10527903"><ele></ele><time>2014-10-8T10:49:21Z</time></trkpt>
<trkpt lat="46.21212194" lon="6.10528087"><ele></ele><time>2014-10-8T10:49:24Z</time></trkpt>
<trkpt lat="46.21213635" lon="6.10529177"><ele></ele><time>2014-10-8T10:49:27Z</time></trkpt>
<trkpt lat="46.21215505" lon="6.10530845"><ele></ele><time>2014-10-8T10:49:30Z</time></trkpt>
<trkpt lat="46.21217634" lon="6.10532815"><ele></ele><time>2014-10-8T10:49:33Z</time></trkpt>
<trkpt lat="46.21220316" lon="6.10535095"><ele></ele><time>2014-10-8T10:49:36Z</time></trkpt>
<trkpt lat="46.21223903" lon="6.10536545"><ele></ele><time>2014-10-8T10:49:39Z</time></trkpt>
<trkpt lat="46.21228077" lon="6.10535706"><ele></ele><time>2014-10-8T10:49:42Z</time></trkpt>
<trkpt lat="46.21232478" lon="6.10532178"><ele></ele><time>2014-10-8T10:49:45Z</time></trkpt>
<trkpt lat="46.21236158" lon="6.10526713"><ele></ele><time>2014-10-8T10:49:48Z</time></trkpt>
<trkpt lat="46.21239812" lon="6.10520083"><ele></ele><time>2014-10-8T10:49:51Z</time></trkpt>
<trkpt lat="46.21243609" lon="6.10513033"><ele></ele><time>2014-10-8T10:49:54Z</time></trkpt>
<trkpt lat="46.21247708" lon="6.10505624"><ele></ele><time>2014-10-8T10:49:57Z</time></trkpt>
<trkpt lat="46.21252008" lon="6.10497854"><ele></ele><time>2014-10-8T10:50:0Z</time></trkpt>
<trkpt lat="46.21256400" lon="6.10490067"><ele></ele><time>2014-10-8T10:50:3Z</time></trkpt>
<trkpt lat="46.21261077" lon="6.10482314"><ele></ele><time>2014-10-8T10:50:6Z</time></trkpt>
<trkpt lat="46.21266123" lon="6.10474678"><ele></ele><time>2014-10-8T10:50:9Z</time></trkpt>
<trkpt lat="46.21271320" lon="6.10467277"><ele></ele><time>2014-10-8T10:50:12Z</time></trkpt>
<trkpt lat="46.21276466" lon="6.10460009"><ele></ele><time>2014-10-8T10:50:15Z</time></trkpt>
<trkpt lat="46.21281135" lon="6.10452466"><ele></ele><time>2014-10-8T10:50:18Z</time></trkpt>
<trkpt lat="46.21285493" lon="6.10446598"><ele></ele><time>2014-10-8T10:50:21Z</time></trkpt>
<trkpt lat="46.21290749" lon="6.10438569"><ele></ele><time>2014-10-8T10:50:24Z</time></trkpt>
<trkpt lat="46.21295845" lon="6.10431276"><ele></ele><time>2014-10-8T10:50:27Z</time></trkpt>
<trkpt lat="46.21300405" lon="6.10424546"><ele></ele><time>2014-10-8T10:50:30Z</time></trkpt>
<trkpt lat="46.21305132" lon="6.10417538"><ele></ele><time>2014-10-8T10:50:33Z</time></trkpt>
<trkpt lat="46.21309893" lon="6.10410464"><ele></ele><time>2014-10-8T10:50:36Z</time></trkpt>
<trkpt lat="46.21314470" lon="6.10403557"><ele></ele><time>2014-10-8T10:50:39Z</time></trkpt>
<trkpt lat="46.21319147" lon="6.10396433"><ele></ele><time>2014-10-8T10:50:42Z</time></trkpt>
<trkpt lat="46.21324285" lon="6.10388545"><ele></ele><time>2014-10-8T10:50:45Z</time></trkpt>
<trkpt lat="46.21329146" lon="6.10381496"><ele></ele><time>2014-10-8T10:50:48Z</time></trkpt>
<trkpt lat="46.21333949" lon="6.10374288"><ele></ele><time>2014-10-8T10:50:51Z</time></trkpt>
<trkpt lat="46.21338769" lon="6.10367054"><ele></ele><time>2014-10-8T10:50:54Z</time></trkpt>
<trkpt lat="46.21343656" lon="6.10359695"><ele></ele><time>2014-10-8T10:50:57Z</time></trkpt>
<trkpt lat="46.21348458" lon="6.10352562"><ele></ele><time>2014-10-8T10:51:0Z</time></trkpt>
<trkpt lat="46.21353437" lon="6.10345186"><ele></ele><time>2014-10-8T10:51:3Z</time></trkpt>
<trkpt lat="46.21358609" lon="6.10337692"><ele></ele><time>2014-10-8T10:51:6Z</time></trkpt>
<trkpt lat="46.21364183" lon="6.10332236"><ele></ele><time>2014-10-8T10:51:9Z</time></trkpt>
<trkpt lat="46.21369782" lon="6.10333744"><ele></ele><time>2014-10-8T10:51:12Z</time></trkpt>
<trkpt lat="46.21375347" lon="6.10337793"><ele></ele><time>2014-10-8T10:51:15Z</time></trkpt>
<trkpt lat="46.21380846" lon="6.10343199"><ele></ele><time>2014-10-8T10:51:18Z</time></trkpt>
<trkpt lat="46.21386462" lon="6.10348907"><ele></ele><time>2014-10-8T10:51:21Z</time></trkpt>
<trkpt lat="46.21392279" lon="6.10354615"><ele></ele><time>2014-10-8T10:51:24Z</time></trkpt>
<trkpt lat="46.21398130" lon="6.10360265"><ele></ele><time>2014-10-8T10:51:27Z</time></trkpt>
<trkpt lat="46.21404056" lon="6.10365814"><ele></ele><time>2014-10-8T10:51:30Z</time></trkpt>
<trkpt lat="46.21410116" lon="6.10371262"><ele></ele><time>2014-10-8T10:51:33Z</time></trkpt>
<trkpt lat="46.21416335" lon="6.10376509"><ele></ele><time>2014-10-8T10:51:36Z</time></trkpt>
<trkpt lat="46.21422345" lon="6.10382074"><ele></ele><time>2014-10-8T10:51:39Z</time></trkpt>
<trkpt lat="46.21428757" lon="6.10387447"><ele></ele><time>2014-10-8T10:51:42Z</time></trkpt>
<trkpt lat="46.21434817" lon="6.10392937"><ele></ele><time>2014-10-8T10:51:45Z</time></trkpt>
<trkpt lat="46.21440844" lon="6.10398419"><ele></ele><time>2014-10-8T10:51:48Z</time></trkpt>
<trkpt lat="46.21446854" lon="6.10403826"><ele></ele><time>2014-10-8T10:51:51Z</time></trkpt>
<trkpt lat="46.21452788" lon="6.10409190"><ele></ele><time>2014-10-8T10:51:54Z</time></trkpt>
<trkpt lat="46.21458647" lon="6.10414580"><ele></ele><time>2014-10-8T10:51:57Z</time></trkpt>
<trkpt lat="46.21464506" lon="6.10419793"><ele></ele><time>2014-10-8T10:52:0Z</time></trkpt>
<trkpt lat="46.21470499" lon="6.10424914"><ele></ele><time>2014-10-8T10:52:3Z</time></trkpt>
<trkpt lat="46.21476534" lon="6.10430103"><ele></ele><time>2014-10-8T10:52:6Z</time></trkpt>
<trkpt lat="46.21482569" lon="6.10435484"><ele></ele><time>2014-10-8T10:52:9Z</time></trkpt>
<trkpt lat="46.21488562" lon="6.10441024"><ele></ele><time>2014-10-8T10:52:12Z</time></trkpt>
<trkpt lat="46.21494706" lon="6.10446732"><ele></ele><time>2014-10-8T10:52:15Z</time></trkpt>
<trkpt lat="46.21500464" lon="6.10452935"><ele></ele><time>2014-10-8T10:52:18Z</time></trkpt>
<trkpt lat="46.21505929" lon="6.10459758"><ele></ele><time>2014-10-8T10:52:21Z</time></trkpt>
<trkpt lat="46.21511176" lon="6.10466908"><ele></ele><time>2014-10-8T10:52:24Z</time></trkpt>
<trkpt lat="46.21516214" lon="6.10474183"><ele></ele><time>2014-10-8T10:52:27Z</time></trkpt>
<trkpt lat="46.21521042" lon="6.10481668"><ele></ele><time>2014-10-8T10:52:30Z</time></trkpt>
<trkpt lat="46.21525769" lon="6.10489329"><ele></ele><time>2014-10-8T10:52:33Z</time></trkpt>
<trkpt lat="46.21530689" lon="6.10497032"><ele></ele><time>2014-10-8T10:52:36Z</time></trkpt>
<trkpt lat="46.21534260" lon="6.10505783"><ele></ele><time>2014-10-8T10:52:39Z</time></trkpt>
<trkpt lat="46.21538166" lon="6.10513922"><ele></ele><time>2014-10-8T10:52:42Z</time></trkpt>
<trkpt lat="46.21542483" lon="6.10520552"><ele></ele><time>2014-10-8T10:52:45Z</time></trkpt>
<trkpt lat="46.21546020" lon="6.10529043"><ele></ele><time>2014-10-8T10:52:48Z</time></trkpt>
<trkpt lat="46.21550035" lon="6.10536989"><ele></ele><time>2014-10-8T10:52:51Z</time></trkpt>
<trkpt lat="46.21554209" lon="6.10544507"><ele></ele><time>2014-10-8T10:52:54Z</time></trkpt>
<trkpt lat="46.21558794" lon="6.10551397"><ele></ele><time>2014-10-8T10:52:57Z</time></trkpt>
<trkpt lat="46.21564519" lon="6.10555672"><ele></ele><time>2014-10-8T10:53:0Z</time></trkpt>
<trkpt lat="46.21570855" lon="6.10554784"><ele></ele><time>2014-10-8T10:53:3Z</time></trkpt>
<trkpt lat="46.21576454" lon="6.10550844"><ele></ele><time>2014-10-8T10:53:6Z</time></trkpt>
<trkpt lat="46.21581970" lon="6.10544918"><ele></ele><time>2014-10-8T10:53:9Z</time></trkpt>
<trkpt lat="46.21587586" lon="6.10538489"><ele></ele><time>2014-10-8T10:53:12Z</time></trkpt>
<trkpt lat="46.21593604" lon="6.10531960"><ele></ele><time>2014-10-8T10:53:15Z</time></trkpt>
<trkpt lat="46.21599865" lon="6.10525154"><ele></ele><time>2014-10-8T10:53:18Z</time></trkpt>
<trkpt lat="46.21606026" lon="6.10518113"><ele></ele><time>2014-10-8T10:53:21Z</time></trkpt>
<trkpt lat="46.21612228" lon="6.10511089"><ele></ele><time>2014-10-8T10:53:24Z</time></trkpt>
<trkpt lat="46.21618414" lon="6.10503914"><ele></ele><time>2014-10-8T10:53:27Z</time></trkpt>
<trkpt lat="46.21624550" lon="6.10496689"><ele></ele><time>2014-10-8T10:53:30Z</time></trkpt>
<trkpt lat="46.21630568" lon="6.10489438"><ele></ele><time>2014-10-8T10:53:33Z</time></trkpt>
<trkpt lat="46.21636469" lon="6.10482414"><ele></ele><time>2014-10-8T10:53:36Z</time></trkpt>
<trkpt lat="46.21642345" lon="6.10475583"><ele></ele><time>2014-10-8T10:53:39Z</time></trkpt>
<trkpt lat="46.21648086" lon="6.10468836"><ele></ele><time>2014-10-8T10:53:42Z</time></trkpt>
<trkpt lat="46.21653945" lon="6.10462247"><ele></ele><time>2014-10-8T10:53:45Z</time></trkpt>
<trkpt lat="46.21659787" lon="6.10455869"><ele></ele><time>2014-10-8T10:53:48Z</time></trkpt>
<trkpt lat="46.21665713" lon="6.10449675"><ele></ele><time>2014-10-8T10:53:51Z</time></trkpt>
<trkpt lat="46.21671363" lon="6.10443514"><ele></ele><time>2014-10-8T10:53:54Z</time></trkpt>
<trkpt lat="46.21676979" lon="6.10437395"><ele></ele><time>2014-10-8T10:53:57Z</time></trkpt>
<trkpt lat="46.21682419" lon="6.10431176"><ele></ele><time>2014-10-8T10:54:0Z</time></trkpt>
<trkpt lat="46.21687909" lon="6.10424864"><ele></ele><time>2014-10-8T10:54:3Z</time></trkpt>
<trkpt lat="46.21693449" lon="6.10418477"><ele></ele><time>2014-10-8T10:54:6Z</time></trkpt>
<trkpt lat="46.21698688" lon="6.10412040"><ele></ele><time>2014-10-8T10:54:9Z</time></trkpt>
<trkpt lat="46.21703776" lon="6.10405619"><ele></ele><time>2014-10-8T10:54:12Z</time></trkpt>
<trkpt lat="46.21709333" lon="6.10399266"><ele></ele><time>2014-10-8T10:54:15Z</time></trkpt>
<trkpt lat="46.21714764" lon="6.10392896"><ele></ele><time>2014-10-8T10:54:18Z</time></trkpt>
<trkpt lat="46.21720313" lon="6.10386584"><ele></ele><time>2014-10-8T10:54:21Z</time></trkpt>
<trkpt lat="46.21725904" lon="6.10380113"><ele></ele><time>2014-10-8T10:54:24Z</time></trkpt>
<trkpt lat="46.21731352" lon="6.10373885"><ele></ele><time>2014-10-8T10:54:27Z</time></trkpt>
<trkpt lat="46.21736742" lon="6.10367725"><ele></ele><time>2014-10-8T10:54:30Z</time></trkpt>
<trkpt lat="46.21742156" lon="6.10361430"><ele></ele><time>2014-10-8T10:54:33Z</time></trkpt>
<trkpt lat="46.21747739" lon="6.10355185"><ele></ele><time>2014-10-8T10:54:36Z</time></trkpt>
<trkpt lat="46.21753405" lon="6.10349000"><ele></ele><time>2014-10-8T10:54:39Z</time></trkpt>
<trkpt lat="46.21759968" lon="6.10343023"><ele></ele><time>2014-10-8T10:54:42Z</time></trkpt>
<trkpt lat="46.21766053" lon="6.10336896"><ele></ele><time>2014-10-8T10:54:45Z</time></trkpt>
<trkpt lat="46.21771518" lon="6.10330677"><ele></ele><time>2014-10-8T10:54:48Z</time></trkpt>
<trkpt lat="46.21776765" lon="6.10324357"><ele></ele><time>2014-10-8T10:54:51Z</time></trkpt>
<trkpt lat="46.21781836" lon="6.10317978"><ele></ele><time>2014-10-8T10:54:54Z</time></trkpt>
<trkpt lat="46.21786882" lon="6.10311759"><ele></ele><time>2014-10-8T10:54:57Z</time></trkpt>
<trkpt lat="46.21791777" lon="6.10305405"><ele></ele><time>2014-10-8T10:55:0Z</time></trkpt>
<trkpt lat="46.21796865" lon="6.10299169"><ele></ele><time>2014-10-8T10:55:3Z</time></trkpt>
<trkpt lat="46.21802079" lon="6.10293126"><ele></ele><time>2014-10-8T10:55:6Z</time></trkpt>
<trkpt lat="46.21807275" lon="6.10287116"><ele></ele><time>2014-10-8T10:55:9Z</time></trkpt>
<trkpt lat="46.21812657" lon="6.10281366"><ele></ele><time>2014-10-8T10:55:12Z</time></trkpt>
<trkpt lat="46.21818147" lon="6.10275725"><ele></ele><time>2014-10-8T10:55:15Z</time></trkpt>
<trkpt lat="46.21823888" lon="6.10270553"><ele></ele><time>2014-10-8T10:55:18Z</time></trkpt>
<trkpt lat="46.21829764" lon="6.10266907"><ele></ele><time>2014-10-8T10:55:21Z</time></trkpt>
<trkpt lat="46.21835908" lon="6.10264485"><ele></ele><time>2014-10-8T10:55:24Z</time></trkpt>
<trkpt lat="46.21842236" lon="6.10262733"><ele></ele><time>2014-10-8T10:55:27Z</time></trkpt>
<trkpt lat="46.21848824" lon="6.10262356"><ele></ele><time>2014-10-8T10:55:30Z</time></trkpt>
<trkpt lat="46.21854675" lon="6.10266228"><ele></ele><time>2014-10-8T10:55:33Z</time></trkpt>
<trkpt lat="46.21861146" lon="6.10268936"><ele></ele><time>2014-10-8T10:55:36Z</time></trkpt>
<trkpt lat="46.21867566" lon="6.10271844"><ele></ele><time>2014-10-8T10:55:39Z</time></trkpt>
<trkpt lat="46.21873828" lon="6.10275348"><ele></ele><time>2014-10-8T10:55:42Z</time></trkpt>
<trkpt lat="46.21879737" lon="6.10279120"><ele></ele><time>2014-10-8T10:55:45Z</time></trkpt>
<trkpt lat="46.21885587" lon="6.10283067"><ele></ele><time>2014-10-8T10:55:48Z</time></trkpt>
<trkpt lat="46.21891589" lon="6.10287158"><ele></ele><time>2014-10-8T10:55:51Z</time></trkpt>
<trkpt lat="46.21897624" lon="6.10291449"><ele></ele><time>2014-10-8T10:55:54Z</time></trkpt>
<trkpt lat="46.21903609" lon="6.10295984"><ele></ele><time>2014-10-8T10:55:57Z</time></trkpt>
<trkpt lat="46.21909493" lon="6.10300686"><ele></ele><time>2014-10-8T10:56:0Z</time></trkpt>
<trkpt lat="46.21915368" lon="6.10305523"><ele></ele><time>2014-10-8T10:56:3Z</time></trkpt>
<trkpt lat="46.21921143" lon="6.10310334"><ele></ele><time>2014-10-8T10:56:6Z</time></trkpt>
<trkpt lat="46.21926868" lon="6.10315086"><ele></ele><time>2014-10-8T10:56:9Z</time></trkpt>
<trkpt lat="46.21932652" lon="6.10319822"><ele></ele><time>2014-10-8T10:56:12Z</time></trkpt>
<trkpt lat="46.21938494" lon="6.10324373"><ele></ele><time>2014-10-8T10:56:15Z</time></trkpt>
<trkpt lat="46.21944336" lon="6.10328883"><ele></ele><time>2014-10-8T10:56:18Z</time></trkpt>
<trkpt lat="46.21950153" lon="6.10333635"><ele></ele><time>2014-10-8T10:56:21Z</time></trkpt>
<trkpt lat="46.21956037" lon="6.10338606"><ele></ele><time>2014-10-8T10:56:24Z</time></trkpt>
<trkpt lat="46.21961989" lon="6.10343786"><ele></ele><time>2014-10-8T10:56:27Z</time></trkpt>
<trkpt lat="46.21967940" lon="6.10349092"><ele></ele><time>2014-10-8T10:56:30Z</time></trkpt>
<trkpt lat="46.21973908" lon="6.10354557"><ele></ele><time>2014-10-8T10:56:33Z</time></trkpt>
<trkpt lat="46.21980119" lon="6.10360139"><ele></ele><time>2014-10-8T10:56:36Z</time></trkpt>
<trkpt lat="46.21986439" lon="6.10365822"><ele></ele><time>2014-10-8T10:56:39Z</time></trkpt>
<trkpt lat="46.21992608" lon="6.10371513"><ele></ele><time>2014-10-8T10:56:42Z</time></trkpt>
<trkpt lat="46.21998919" lon="6.10377355"><ele></ele><time>2014-10-8T10:56:45Z</time></trkpt>
<trkpt lat="46.22005164" lon="6.10383298"><ele></ele><time>2014-10-8T10:56:48Z</time></trkpt>
<trkpt lat="46.22009958" lon="6.10386802"><ele></ele><time>2014-10-8T10:56:51Z</time></trkpt>
<trkpt lat="46.22012892" lon="6.10388009"><ele></ele><time>2014-10-8T10:56:54Z</time></trkpt>
<trkpt lat="46.22014099" lon="6.10393197"><ele></ele><time>2014-10-8T10:56:57Z</time></trkpt>
<trkpt lat="46.22016672" lon="6.10395368"><ele></ele><time>2014-10-8T10:57:0Z</time></trkpt>
<trkpt lat="46.22029295" lon="6.10404639"><ele></ele><time>2014-10-8T10:57:3Z</time></trkpt>
<trkpt lat="46.22037618" lon="6.10413004"><ele></ele><time>2014-10-8T10:57:6Z</time></trkpt>
<trkpt lat="46.22043536" lon="6.10419315"><ele></ele><time>2014-10-8T10:57:9Z</time></trkpt>
<trkpt lat="46.22049085" lon="6.10423875"><ele></ele><time>2014-10-8T10:57:12Z</time></trkpt>
<trkpt lat="46.22054558" lon="6.10426876"><ele></ele><time>2014-10-8T10:57:15Z</time></trkpt>
<trkpt lat="46.22059789" lon="6.10428854"><ele></ele><time>2014-10-8T10:57:18Z</time></trkpt>
<trkpt lat="46.22065413" lon="6.10427974"><ele></ele><time>2014-10-8T10:57:21Z</time></trkpt>
<trkpt lat="46.22070978" lon="6.10425526"><ele></ele><time>2014-10-8T10:57:24Z</time></trkpt>
<trkpt lat="46.22075245" lon="6.10423557"><ele></ele><time>2014-10-8T10:57:27Z</time></trkpt>
<trkpt lat="46.22079578" lon="6.10419868"><ele></ele><time>2014-10-8T10:57:30Z</time></trkpt>
<trkpt lat="46.22082369" lon="6.10415133"><ele></ele><time>2014-10-8T10:57:33Z</time></trkpt>
<trkpt lat="46.22085697" lon="6.10408327"><ele></ele><time>2014-10-8T10:57:36Z</time></trkpt>
<trkpt lat="46.22089217" lon="6.10402484"><ele></ele><time>2014-10-8T10:57:39Z</time></trkpt>
<trkpt lat="46.22092662" lon="6.10396500"><ele></ele><time>2014-10-8T10:57:42Z</time></trkpt>
<trkpt lat="46.22095747" lon="6.10391705"><ele></ele><time>2014-10-8T10:57:45Z</time></trkpt>
<trkpt lat="46.22099209" lon="6.10388026"><ele></ele><time>2014-10-8T10:57:48Z</time></trkpt>
<trkpt lat="46.22102746" lon="6.10384455"><ele></ele><time>2014-10-8T10:57:51Z</time></trkpt>
<trkpt lat="46.22106199" lon="6.10380935"><ele></ele><time>2014-10-8T10:57:54Z</time></trkpt>
<trkpt lat="46.22109468" lon="6.10376886"><ele></ele><time>2014-10-8T10:57:57Z</time></trkpt>
<trkpt lat="46.22112276" lon="6.10372469"><ele></ele><time>2014-10-8T10:58:0Z</time></trkpt>
<trkpt lat="46.22115218" lon="6.10367498"><ele></ele><time>2014-10-8T10:58:3Z</time></trkpt>
<trkpt lat="46.22118462" lon="6.10362276"><ele></ele><time>2014-10-8T10:58:6Z</time></trkpt>
<trkpt lat="46.22121789" lon="6.10357432"><ele></ele><time>2014-10-8T10:58:9Z</time></trkpt>
<trkpt lat="46.22125125" lon="6.10352629"><ele></ele><time>2014-10-8T10:58:12Z</time></trkpt>
<trkpt lat="46.22128529" lon="6.10347449"><ele></ele><time>2014-10-8T10:58:15Z</time></trkpt>
<trkpt lat="46.22132049" lon="6.10342219"><ele></ele><time>2014-10-8T10:58:18Z</time></trkpt>
<trkpt lat="46.22135687" lon="6.10337189"><ele></ele><time>2014-10-8T10:58:21Z</time></trkpt>
<trkpt lat="46.22139676" lon="6.10331758"><ele></ele><time>2014-10-8T10:58:24Z</time></trkpt>
<trkpt lat="46.22143323" lon="6.10326293"><ele></ele><time>2014-10-8T10:58:27Z</time></trkpt>
<trkpt lat="46.22147153" lon="6.10321037"><ele></ele><time>2014-10-8T10:58:30Z</time></trkpt>
<trkpt lat="46.22151285" lon="6.10316008"><ele></ele><time>2014-10-8T10:58:33Z</time></trkpt>
<trkpt lat="46.22155518" lon="6.10310845"><ele></ele><time>2014-10-8T10:58:36Z</time></trkpt>
<trkpt lat="46.22160003" lon="6.10305967"><ele></ele><time>2014-10-8T10:58:39Z</time></trkpt>
<trkpt lat="46.22165032" lon="6.10302480"><ele></ele><time>2014-10-8T10:58:42Z</time></trkpt>
<trkpt lat="46.22170614" lon="6.10301575"><ele></ele><time>2014-10-8T10:58:45Z</time></trkpt>
<trkpt lat="46.22175853" lon="6.10303494"><ele></ele><time>2014-10-8T10:58:48Z</time></trkpt>
<trkpt lat="46.22180295" lon="6.10307610"><ele></ele><time>2014-10-8T10:58:51Z</time></trkpt>
<trkpt lat="46.22184469" lon="6.10312765"><ele></ele><time>2014-10-8T10:58:54Z</time></trkpt>
<trkpt lat="46.22188250" lon="6.10317718"><ele></ele><time>2014-10-8T10:58:57Z</time></trkpt>
<trkpt lat="46.22191669" lon="6.10322722"><ele></ele><time>2014-10-8T10:59:0Z</time></trkpt>
<trkpt lat="46.22194880" lon="6.10327877"><ele></ele><time>2014-10-8T10:59:3Z</time></trkpt>
<trkpt lat="46.22197973" lon="6.10332764"><ele></ele><time>2014-10-8T10:59:6Z</time></trkpt>
<trkpt lat="46.22201283" lon="6.10337324"><ele></ele><time>2014-10-8T10:59:9Z</time></trkpt>
<trkpt lat="46.22204527" lon="6.10341766"><ele></ele><time>2014-10-8T10:59:12Z</time></trkpt>
<trkpt lat="46.22207696" lon="6.10346342"><ele></ele><time>2014-10-8T10:59:15Z</time></trkpt>
<trkpt lat="46.22210814" lon="6.10351036"><ele></ele><time>2014-10-8T10:59:18Z</time></trkpt>
<trkpt lat="46.22213915" lon="6.10355898"><ele></ele><time>2014-10-8T10:59:21Z</time></trkpt>
<trkpt lat="46.22217000" lon="6.10360692"><ele></ele><time>2014-10-8T10:59:24Z</time></trkpt>
<trkpt lat="46.22220210" lon="6.10365470"><ele></ele><time>2014-10-8T10:59:27Z</time></trkpt>
<trkpt lat="46.22223554" lon="6.10370248"><ele></ele><time>2014-10-8T10:59:30Z</time></trkpt>
<trkpt lat="46.22226957" lon="6.10375185"><ele></ele><time>2014-10-8T10:59:33Z</time></trkpt>
<trkpt lat="46.22230268" lon="6.10380298"><ele></ele><time>2014-10-8T10:59:36Z</time></trkpt>
<trkpt lat="46.22233554" lon="6.10385352"><ele></ele><time>2014-10-8T10:59:39Z</time></trkpt>
<trkpt lat="46.22236865" lon="6.10390146"><ele></ele><time>2014-10-8T10:59:42Z</time></trkpt>
<trkpt lat="46.22240083" lon="6.10394798"><ele></ele><time>2014-10-8T10:59:45Z</time></trkpt>
<trkpt lat="46.22243126" lon="6.10399375"><ele></ele><time>2014-10-8T10:59:48Z</time></trkpt>
<trkpt lat="46.22245976" lon="6.10403666"><ele></ele><time>2014-10-8T10:59:51Z</time></trkpt>
<trkpt lat="46.22248826" lon="6.10407849"><ele></ele><time>2014-10-8T10:59:54Z</time></trkpt>
<trkpt lat="46.22251675" lon="6.10412082"><ele></ele><time>2014-10-8T10:59:57Z</time></trkpt>
<trkpt lat="46.22254467" lon="6.10416239"><ele></ele><time>2014-10-8T11:0:0Z</time></trkpt>
<trkpt lat="46.22257249" lon="6.10420338"><ele></ele><time>2014-10-8T11:0:3Z</time></trkpt>
<trkpt lat="46.22260083" lon="6.10424328"><ele></ele><time>2014-10-8T11:0:6Z</time></trkpt>
<trkpt lat="46.22262949" lon="6.10428393"><ele></ele><time>2014-10-8T11:0:9Z</time></trkpt>
<trkpt lat="46.22265715" lon="6.10432693"><ele></ele><time>2014-10-8T11:0:12Z</time></trkpt>
<trkpt lat="46.22268423" lon="6.10437026"><ele></ele><time>2014-10-8T11:0:15Z</time></trkpt>
<trkpt lat="46.22271155" lon="6.10441293"><ele></ele><time>2014-10-8T11:0:18Z</time></trkpt>
<trkpt lat="46.22273904" lon="6.10445383"><ele></ele><time>2014-10-8T11:0:21Z</time></trkpt>
<trkpt lat="46.22276570" lon="6.10449406"><ele></ele><time>2014-10-8T11:0:24Z</time></trkpt>
<trkpt lat="46.22279336" lon="6.10453706"><ele></ele><time>2014-10-8T11:0:27Z</time></trkpt>
<trkpt lat="46.22282370" lon="6.10458098"><ele></ele><time>2014-10-8T11:0:30Z</time></trkpt>
<trkpt lat="46.22285463" lon="6.10462549"><ele></ele><time>2014-10-8T11:0:33Z</time></trkpt>
<trkpt lat="46.22288707" lon="6.10467067"><ele></ele><time>2014-10-8T11:0:36Z</time></trkpt>
<trkpt lat="46.22291800" lon="6.10471618"><ele></ele><time>2014-10-8T11:0:39Z</time></trkpt>
<trkpt lat="46.22294876" lon="6.10476170"><ele></ele><time>2014-10-8T11:0:42Z</time></trkpt>
<trkpt lat="46.22298094" lon="6.10480579"><ele></ele><time>2014-10-8T11:0:45Z</time></trkpt>
<trkpt lat="46.22301514" lon="6.10484895"><ele></ele><time>2014-10-8T11:0:48Z</time></trkpt>
<trkpt lat="46.22304917" lon="6.10489522"><ele></ele><time>2014-10-8T11:0:51Z</time></trkpt>
<trkpt lat="46.22308086" lon="6.10494476"><ele></ele><time>2014-10-8T11:0:54Z</time></trkpt>
<trkpt lat="46.22311204" lon="6.10499513"><ele></ele><time>2014-10-8T11:0:57Z</time></trkpt>
<trkpt lat="46.22314406" lon="6.10504442"><ele></ele><time>2014-10-8T11:1:0Z</time></trkpt>
<trkpt lat="46.22317524" lon="6.10509588"><ele></ele><time>2014-10-8T11:1:3Z</time></trkpt>
<trkpt lat="46.22320323" lon="6.10515104"><ele></ele><time>2014-10-8T11:1:6Z</time></trkpt>
<trkpt lat="46.22322905" lon="6.10520694"><ele></ele><time>2014-10-8T11:1:9Z</time></trkpt>
<trkpt lat="46.22325713" lon="6.10525833"><ele></ele><time>2014-10-8T11:1:12Z</time></trkpt>
<trkpt lat="46.22328856" lon="6.10530560"><ele></ele><time>2014-10-8T11:1:15Z</time></trkpt>
<trkpt lat="46.22332033" lon="6.10535120"><ele></ele><time>2014-10-8T11:1:18Z</time></trkpt>
<trkpt lat="46.22335126" lon="6.10539587"><ele></ele><time>2014-10-8T11:1:21Z</time></trkpt>
<trkpt lat="46.22338135" lon="6.10544030"><ele></ele><time>2014-10-8T11:1:24Z</time></trkpt>
<trkpt lat="46.22340943" lon="6.10548380"><ele></ele><time>2014-10-8T11:1:27Z</time></trkpt>
<trkpt lat="46.22343608" lon="6.10552629"><ele></ele><time>2014-10-8T11:1:30Z</time></trkpt>
<trkpt lat="46.22346165" lon="6.10556644"><ele></ele><time>2014-10-8T11:1:33Z</time></trkpt>
<trkpt lat="46.22348554" lon="6.10560450"><ele></ele><time>2014-10-8T11:1:36Z</time></trkpt>
<trkpt lat="46.22350875" lon="6.10564046"><ele></ele><time>2014-10-8T11:1:39Z</time></trkpt>
<trkpt lat="46.22353423" lon="6.10567172"><ele></ele><time>2014-10-8T11:1:42Z</time></trkpt>
<trkpt lat="46.22356265" lon="6.10570005"><ele></ele><time>2014-10-8T11:1:45Z</time></trkpt>
<trkpt lat="46.22359433" lon="6.10573165"><ele></ele><time>2014-10-8T11:1:48Z</time></trkpt>
<trkpt lat="46.22362702" lon="6.10577004"><ele></ele><time>2014-10-8T11:1:51Z</time></trkpt>
<trkpt lat="46.22365896" lon="6.10581396"><ele></ele><time>2014-10-8T11:1:54Z</time></trkpt>
<trkpt lat="46.22368938" lon="6.10586216"><ele></ele><time>2014-10-8T11:1:57Z</time></trkpt>
<trkpt lat="46.22372040" lon="6.10591044"><ele></ele><time>2014-10-8T11:2:0Z</time></trkpt>
<trkpt lat="46.22375250" lon="6.10595754"><ele></ele><time>2014-10-8T11:2:3Z</time></trkpt>
<trkpt lat="46.22378393" lon="6.10600499"><ele></ele><time>2014-10-8T11:2:6Z</time></trkpt>
<trkpt lat="46.22381595" lon="6.10605176"><ele></ele><time>2014-10-8T11:2:9Z</time></trkpt>
<trkpt lat="46.22384805" lon="6.10609836"><ele></ele><time>2014-10-8T11:2:12Z</time></trkpt>
<trkpt lat="46.22387814" lon="6.10614714"><ele></ele><time>2014-10-8T11:2:15Z</time></trkpt>
<trkpt lat="46.22390606" lon="6.10619794"><ele></ele><time>2014-10-8T11:2:18Z</time></trkpt>
<trkpt lat="46.22393506" lon="6.10624772"><ele></ele><time>2014-10-8T11:2:21Z</time></trkpt>
<trkpt lat="46.22396699" lon="6.10629366"><ele></ele><time>2014-10-8T11:2:24Z</time></trkpt>
<trkpt lat="46.22400077" lon="6.10633632"><ele></ele><time>2014-10-8T11:2:27Z</time></trkpt>
<trkpt lat="46.22403312" lon="6.10637924"><ele></ele><time>2014-10-8T11:2:30Z</time></trkpt>
<trkpt lat="46.22406296" lon="6.10642400"><ele></ele><time>2014-10-8T11:2:33Z</time></trkpt>
<trkpt lat="46.22409205" lon="6.10646632"><ele></ele><time>2014-10-8T11:2:36Z</time></trkpt>
<trkpt lat="46.22412264" lon="6.10650698"><ele></ele><time>2014-10-8T11:2:39Z</time></trkpt>
<trkpt lat="46.22415408" lon="6.10654905"><ele></ele><time>2014-10-8T11:2:42Z</time></trkpt>
<trkpt lat="46.22418534" lon="6.10659423"><ele></ele><time>2014-10-8T11:2:45Z</time></trkpt>
<trkpt lat="46.22421753" lon="6.10663958"><ele></ele><time>2014-10-8T11:2:48Z</time></trkpt>
<trkpt lat="46.22424913" lon="6.10668384"><ele></ele><time>2014-10-8T11:2:51Z</time></trkpt>
<trkpt lat="46.22428064" lon="6.10672868"><ele></ele><time>2014-10-8T11:2:54Z</time></trkpt>
<trkpt lat="46.22431132" lon="6.10677394"><ele></ele><time>2014-10-8T11:2:57Z</time></trkpt>
<trkpt lat="46.22434208" lon="6.10681929"><ele></ele><time>2014-10-8T11:3:0Z</time></trkpt>
<trkpt lat="46.22437284" lon="6.10686522"><ele></ele><time>2014-10-8T11:3:3Z</time></trkpt>
<trkpt lat="46.22440226" lon="6.10691040"><ele></ele><time>2014-10-8T11:3:6Z</time></trkpt>
<trkpt lat="46.22443018" lon="6.10695482"><ele></ele><time>2014-10-8T11:3:9Z</time></trkpt>
<trkpt lat="46.22445683" lon="6.10700067"><ele></ele><time>2014-10-8T11:3:12Z</time></trkpt>
<trkpt lat="46.22448097" lon="6.10704702"><ele></ele><time>2014-10-8T11:3:15Z</time></trkpt>
<trkpt lat="46.22450637" lon="6.10708684"><ele></ele><time>2014-10-8T11:3:18Z</time></trkpt>
<trkpt lat="46.22453076" lon="6.10712464"><ele></ele><time>2014-10-8T11:3:21Z</time></trkpt>
<trkpt lat="46.22455247" lon="6.10716445"><ele></ele><time>2014-10-8T11:3:24Z</time></trkpt>
<trkpt lat="46.22457460" lon="6.10720117"><ele></ele><time>2014-10-8T11:3:27Z</time></trkpt>
<trkpt lat="46.22459932" lon="6.10723369"><ele></ele><time>2014-10-8T11:3:30Z</time></trkpt>
<trkpt lat="46.22462003" lon="6.10726453"><ele></ele><time>2014-10-8T11:3:33Z</time></trkpt>
<trkpt lat="46.22463319" lon="6.10728742"><ele></ele><time>2014-10-8T11:3:36Z</time></trkpt>
<trkpt lat="46.22463796" lon="6.10729446"><ele></ele><time>2014-10-8T11:3:39Z</time></trkpt>
<trkpt lat="46.22463704" lon="6.10729613"><ele></ele><time>2014-10-8T11:3:42Z</time></trkpt>
<trkpt lat="46.22463402" lon="6.10729957"><ele></ele><time>2014-10-8T11:3:45Z</time></trkpt>
<trkpt lat="46.22462832" lon="6.10730695"><ele></ele><time>2014-10-8T11:3:48Z</time></trkpt>
<trkpt lat="46.22462187" lon="6.10731457"><ele></ele><time>2014-10-8T11:3:51Z</time></trkpt>
<trkpt lat="46.22461785" lon="6.10732346"><ele></ele><time>2014-10-8T11:3:54Z</time></trkpt>
<trkpt lat="46.22461273" lon="6.10733477"><ele></ele><time>2014-10-8T11:3:57Z</time></trkpt>
<trkpt lat="46.22460988" lon="6.10734307"><ele></ele><time>2014-10-8T11:4:0Z</time></trkpt>
<trkpt lat="46.22460712" lon="6.10734927"><ele></ele><time>2014-10-8T11:4:3Z</time></trkpt>
<trkpt lat="46.22460226" lon="6.10735573"><ele></ele><time>2014-10-8T11:4:6Z</time></trkpt>
<trkpt lat="46.22459446" lon="6.10737132"><ele></ele><time>2014-10-8T11:4:9Z</time></trkpt>
<trkpt lat="46.22458792" lon="6.10739496"><ele></ele><time>2014-10-8T11:4:12Z</time></trkpt>
<trkpt lat="46.22458155" lon="6.10742186"><ele></ele><time>2014-10-8T11:4:15Z</time></trkpt>
<trkpt lat="46.22457317" lon="6.10744718"><ele></ele><time>2014-10-8T11:4:18Z</time></trkpt>
<trkpt lat="46.22456060" lon="6.10747090"><ele></ele><time>2014-10-8T11:4:21Z</time></trkpt>
<trkpt lat="46.22454518" lon="6.10749613"><ele></ele><time>2014-10-8T11:4:24Z</time></trkpt>
<trkpt lat="46.22453009" lon="6.10752328"><ele></ele><time>2014-10-8T11:4:27Z</time></trkpt>
<trkpt lat="46.22451592" lon="6.10755337"><ele></ele><time>2014-10-8T11:4:30Z</time></trkpt>
<trkpt lat="46.22450352" lon="6.10758296"><ele></ele><time>2014-10-8T11:4:33Z</time></trkpt>
<trkpt lat="46.22448843" lon="6.10760735"><ele></ele><time>2014-10-8T11:4:36Z</time></trkpt>
<trkpt lat="46.22447586" lon="6.10762898"><ele></ele><time>2014-10-8T11:4:39Z</time></trkpt>
<trkpt lat="46.22447259" lon="6.10764348"><ele></ele><time>2014-10-8T11:4:42Z</time></trkpt>
<trkpt lat="46.22447158" lon="6.10765379"><ele></ele><time>2014-10-8T11:4:45Z</time></trkpt>
<trkpt lat="46.22447024" lon="6.10765689"><ele></ele><time>2014-10-8T11:4:48Z</time></trkpt>
<trkpt lat="46.22447242" lon="6.10765924"><ele></ele><time>2014-10-8T11:4:51Z</time></trkpt>
<trkpt lat="46.22447753" lon="6.10766133"><ele></ele><time>2014-10-8T11:4:54Z</time></trkpt>
<trkpt lat="46.22448348" lon="6.10766158"><ele></ele><time>2014-10-8T11:4:57Z</time></trkpt>
<trkpt lat="46.22448985" lon="6.10765823"><ele></ele><time>2014-10-8T11:5:0Z</time></trkpt>
<trkpt lat="46.22449882" lon="6.10765547"><ele></ele><time>2014-10-8T11:5:3Z</time></trkpt>
<trkpt lat="46.22450536" lon="6.10765236"><ele></ele><time>2014-10-8T11:5:6Z</time></trkpt>
<trkpt lat="46.22450637" lon="6.10765052"><ele></ele><time>2014-10-8T11:5:9Z</time></trkpt>
<trkpt lat="46.22451232" lon="6.10764809"><ele></ele><time>2014-10-8T11:5:12Z</time></trkpt>
<trkpt lat="46.22451793" lon="6.10764323"><ele></ele><time>2014-10-8T11:5:15Z</time></trkpt>
<trkpt lat="46.22452422" lon="6.10763988"><ele></ele><time>2014-10-8T11:5:18Z</time></trkpt>
<trkpt lat="46.22453109" lon="6.10763786"><ele></ele><time>2014-10-8T11:5:21Z</time></trkpt>
<trkpt lat="46.22453906" lon="6.10763283"><ele></ele><time>2014-10-8T11:5:24Z</time></trkpt>
<trkpt lat="46.22454526" lon="6.10763107"><ele></ele><time>2014-10-8T11:5:27Z</time></trkpt>
<trkpt lat="46.22455196" lon="6.10763309"><ele></ele><time>2014-10-8T11:5:30Z</time></trkpt>
<trkpt lat="46.22455733" lon="6.10763158"><ele></ele><time>2014-10-8T11:5:33Z</time></trkpt>
<trkpt lat="46.22456546" lon="6.10763124"><ele></ele><time>2014-10-8T11:5:36Z</time></trkpt>
<trkpt lat="46.22456999" lon="6.10763174"><ele></ele><time>2014-10-8T11:5:39Z</time></trkpt>
<trkpt lat="46.22456806" lon="6.10762948"><ele></ele><time>2014-10-8T11:5:42Z</time></trkpt>
<trkpt lat="46.22456923" lon="6.10762613"><ele></ele><time>2014-10-8T11:5:45Z</time></trkpt>
<trkpt lat="46.22457719" lon="6.10762487"><ele></ele><time>2014-10-8T11:5:48Z</time></trkpt>
<trkpt lat="46.22458247" lon="6.10761892"><ele></ele><time>2014-10-8T11:5:51Z</time></trkpt>
<trkpt lat="46.22459186" lon="6.10761305"><ele></ele><time>2014-10-8T11:5:54Z</time></trkpt>
<trkpt lat="46.22459505" lon="6.10760517"><ele></ele><time>2014-10-8T11:5:57Z</time></trkpt>
<trkpt lat="46.22459957" lon="6.10760048"><ele></ele><time>2014-10-8T11:6:0Z</time></trkpt>
<trkpt lat="46.22459966" lon="6.10759897"><ele></ele><time>2014-10-8T11:6:3Z</time></trkpt>
<trkpt lat="46.22460016" lon="6.10759562"><ele></ele><time>2014-10-8T11:6:6Z</time></trkpt>
<trkpt lat="46.22460343" lon="6.10759235"><ele></ele><time>2014-10-8T11:6:9Z</time></trkpt>
<trkpt lat="46.22460117" lon="6.10759134"><ele></ele><time>2014-10-8T11:6:12Z</time></trkpt>
<trkpt lat="46.22460653" lon="6.10759160"><ele></ele><time>2014-10-8T11:6:15Z</time></trkpt>
<trkpt lat="46.22460955" lon="6.10758782"><ele></ele><time>2014-10-8T11:6:18Z</time></trkpt>
<trkpt lat="46.22461198" lon="6.10757743"><ele></ele><time>2014-10-8T11:6:21Z</time></trkpt>
<trkpt lat="46.22461475" lon="6.10757424"><ele></ele><time>2014-10-8T11:6:24Z</time></trkpt>
<trkpt lat="46.22461659" lon="6.10757072"><ele></ele><time>2014-10-8T11:6:27Z</time></trkpt>
<trkpt lat="46.22462044" lon="6.10756972"><ele></ele><time>2014-10-8T11:6:30Z</time></trkpt>
<trkpt lat="46.22462262" lon="6.10756653"><ele></ele><time>2014-10-8T11:6:33Z</time></trkpt>
<trkpt lat="46.22462539" lon="6.10756477"><ele></ele><time>2014-10-8T11:6:36Z</time></trkpt>
<trkpt lat="46.22462623" lon="6.10756134"><ele></ele><time>2014-10-8T11:6:39Z</time></trkpt>
<trkpt lat="46.22462866" lon="6.10755949"><ele></ele><time>2014-10-8T11:6:42Z</time></trkpt>
<trkpt lat="46.22462958" lon="6.10755606"><ele></ele><time>2014-10-8T11:6:45Z</time></trkpt>
<trkpt lat="46.22463142" lon="6.10755396"><ele></ele><time>2014-10-8T11:6:48Z</time></trkpt>
<trkpt lat="46.22463193" lon="6.10755052"><ele></ele><time>2014-10-8T11:6:51Z</time></trkpt>
<trkpt lat="46.22463377" lon="6.10754834"><ele></ele><time>2014-10-8T11:6:54Z</time></trkpt>
<trkpt lat="46.22463419" lon="6.10754466"><ele></ele><time>2014-10-8T11:6:57Z</time></trkpt>
<trkpt lat="46.22463545" lon="6.10754265"><ele></ele><time>2014-10-8T11:7:0Z</time></trkpt>
<trkpt lat="46.22463763" lon="6.10754114"><ele></ele><time>2014-10-8T11:7:3Z</time></trkpt>
<trkpt lat="46.22463939" lon="6.10753963"><ele></ele><time>2014-10-8T11:7:6Z</time></trkpt>
<trkpt lat="46.22464157" lon="6.10754047"><ele></ele><time>2014-10-8T11:7:9Z</time></trkpt>
<trkpt lat="46.22464366" lon="6.10754047"><ele></ele><time>2014-10-8T11:7:12Z</time></trkpt>
<trkpt lat="46.22464609" lon="6.10754147"><ele></ele><time>2014-10-8T11:7:15Z</time></trkpt>
<trkpt lat="46.22464827" lon="6.10754239"><ele></ele><time>2014-10-8T11:7:18Z</time></trkpt>
<trkpt lat="46.22464953" lon="6.10753896"><ele></ele><time>2014-10-8T11:7:21Z</time></trkpt>
<trkpt lat="46.22465079" lon="6.10754072"><ele></ele><time>2014-10-8T11:7:24Z</time></trkpt>
<trkpt lat="46.22464903" lon="6.10753619"><ele></ele><time>2014-10-8T11:7:27Z</time></trkpt>
<trkpt lat="46.22464400" lon="6.10753242"><ele></ele><time>2014-10-8T11:7:30Z</time></trkpt>
<trkpt lat="46.22464232" lon="6.10752689"><ele></ele><time>2014-10-8T11:7:33Z</time></trkpt>
<trkpt lat="46.22464182" lon="6.10752697"><ele></ele><time>2014-10-8T11:7:36Z</time></trkpt>
<trkpt lat="46.22464215" lon="6.10752395"><ele></ele><time>2014-10-8T11:7:39Z</time></trkpt>
<trkpt lat="46.22464207" lon="6.10752479"><ele></ele><time>2014-10-8T11:7:42Z</time></trkpt>
<trkpt lat="46.22464274" lon="6.10752295"><ele></ele><time>2014-10-8T11:7:45Z</time></trkpt>
<trkpt lat="46.22464266" lon="6.10752404"><ele></ele><time>2014-10-8T11:7:48Z</time></trkpt>
<trkpt lat="46.22464978" lon="6.10751666"><ele></ele><time>2014-10-8T11:7:51Z</time></trkpt>
<trkpt lat="46.22465473" lon="6.10751063"><ele></ele><time>2014-10-8T11:7:54Z</time></trkpt>
<trkpt lat="46.22465984" lon="6.10750065"><ele></ele><time>2014-10-8T11:7:57Z</time></trkpt>
<trkpt lat="46.22466269" lon="6.10749168"><ele></ele><time>2014-10-8T11:8:0Z</time></trkpt>
<trkpt lat="46.22466629" lon="6.10748464"><ele></ele><time>2014-10-8T11:8:3Z</time></trkpt>
<trkpt lat="46.22466839" lon="6.10747844"><ele></ele><time>2014-10-8T11:8:6Z</time></trkpt>
<trkpt lat="46.22467082" lon="6.10747316"><ele></ele><time>2014-10-8T11:8:9Z</time></trkpt>
<trkpt lat="46.22467216" lon="6.10746888"><ele></ele><time>2014-10-8T11:8:12Z</time></trkpt>
<trkpt lat="46.22467308" lon="6.10746268"><ele></ele><time>2014-10-8T11:8:15Z</time></trkpt>
<trkpt lat="46.22467367" lon="6.10745966"><ele></ele><time>2014-10-8T11:8:18Z</time></trkpt>
<trkpt lat="46.22467442" lon="6.10745749"><ele></ele><time>2014-10-8T11:8:21Z</time></trkpt>
<trkpt lat="46.22467476" lon="6.10745556"><ele></ele><time>2014-10-8T11:8:24Z</time></trkpt>
<trkpt lat="46.22467585" lon="6.10745782"><ele></ele><time>2014-10-8T11:8:27Z</time></trkpt>
<trkpt lat="46.22467719" lon="6.10745966"><ele></ele><time>2014-10-8T11:8:30Z</time></trkpt>
<trkpt lat="46.22467786" lon="6.10745966"><ele></ele><time>2014-10-8T11:8:33Z</time></trkpt>
<trkpt lat="46.22467870" lon="6.10746017"><ele></ele><time>2014-10-8T11:8:36Z</time></trkpt>
<trkpt lat="46.22467912" lon="6.10746109"><ele></ele><time>2014-10-8T11:8:39Z</time></trkpt>
<trkpt lat="46.22467929" lon="6.10746210"><ele></ele><time>2014-10-8T11:8:42Z</time></trkpt>
<trkpt lat="46.22467954" lon="6.10746419"><ele></ele><time>2014-10-8T11:8:45Z</time></trkpt>
<trkpt lat="46.22467945" lon="6.10746352"><ele></ele><time>2014-10-8T11:8:48Z</time></trkpt>
<trkpt lat="46.22467929" lon="6.10746335"><ele></ele><time>2014-10-8T11:8:51Z</time></trkpt>
<trkpt lat="46.22467887" lon="6.10746260"><ele></ele><time>2014-10-8T11:8:54Z</time></trkpt>
<trkpt lat="46.22467803" lon="6.10746210"><ele></ele><time>2014-10-8T11:8:57Z</time></trkpt>
<trkpt lat="46.22467736" lon="6.10746159"><ele></ele><time>2014-10-8T11:9:0Z</time></trkpt>
<trkpt lat="46.22467644" lon="6.10746025"><ele></ele><time>2014-10-8T11:9:3Z</time></trkpt>
<trkpt lat="46.22467543" lon="6.10745983"><ele></ele><time>2014-10-8T11:9:6Z</time></trkpt>
<trkpt lat="46.22467484" lon="6.10746042"><ele></ele><time>2014-10-8T11:9:9Z</time></trkpt>
<trkpt lat="46.22467442" lon="6.10746126"><ele></ele><time>2014-10-8T11:9:12Z</time></trkpt>
<trkpt lat="46.22467417" lon="6.10746218"><ele></ele><time>2014-10-8T11:9:15Z</time></trkpt>
<trkpt lat="46.22467384" lon="6.10746293"><ele></ele><time>2014-10-8T11:9:18Z</time></trkpt>
<trkpt lat="46.22467342" lon="6.10746344"><ele></ele><time>2014-10-8T11:9:21Z</time></trkpt>
<trkpt lat="46.22467325" lon="6.10746520"><ele></ele><time>2014-10-8T11:9:24Z</time></trkpt>
<trkpt lat="46.22467275" lon="6.10746645"><ele></ele><time>2014-10-8T11:9:27Z</time></trkpt>
<trkpt lat="46.22467283" lon="6.10745673"><ele></ele><time>2014-10-8T11:9:30Z</time></trkpt>
<trkpt lat="46.22467375" lon="6.10745187"><ele></ele><time>2014-10-8T11:9:33Z</time></trkpt>
<trkpt lat="46.22467417" lon="6.10744852"><ele></ele><time>2014-10-8T11:9:36Z</time></trkpt>
<trkpt lat="46.22467459" lon="6.10744609"><ele></ele><time>2014-10-8T11:9:39Z</time></trkpt>
<trkpt lat="46.22467426" lon="6.10744349"><ele></ele><time>2014-10-8T11:9:42Z</time></trkpt>
<trkpt lat="46.22467317" lon="6.10744265"><ele></ele><time>2014-10-8T11:9:45Z</time></trkpt>
<trkpt lat="46.22467208" lon="6.10744240"><ele></ele><time>2014-10-8T11:9:48Z</time></trkpt>
<trkpt lat="46.22467116" lon="6.10744257"><ele></ele><time>2014-10-8T11:9:51Z</time></trkpt>
<trkpt lat="46.22467032" lon="6.10744349"><ele></ele><time>2014-10-8T11:9:54Z</time></trkpt>
<trkpt lat="46.22466914" lon="6.10744508"><ele></ele><time>2014-10-8T11:9:57Z</time></trkpt>
<trkpt lat="46.22466940" lon="6.10744089"><ele></ele><time>2014-10-8T11:10:0Z</time></trkpt>
<trkpt lat="46.22467048" lon="6.10743603"><ele></ele><time>2014-10-8T11:10:3Z</time></trkpt>
<trkpt lat="46.22467107" lon="6.10743234"><ele></ele><time>2014-10-8T11:10:6Z</time></trkpt>
<trkpt lat="46.22467224" lon="6.10742798"><ele></ele><time>2014-10-8T11:10:9Z</time></trkpt>
<trkpt lat="46.22467426" lon="6.10742245"><ele></ele><time>2014-10-8T11:10:12Z</time></trkpt>
<trkpt lat="46.22467635" lon="6.10741683"><ele></ele><time>2014-10-8T11:10:15Z</time></trkpt>
<trkpt lat="46.22467828" lon="6.10741055"><ele></ele><time>2014-10-8T11:10:18Z</time></trkpt>
<trkpt lat="46.22468029" lon="6.10740527"><ele></ele><time>2014-10-8T11:10:21Z</time></trkpt>
<trkpt lat="46.22468214" lon="6.10740376"><ele></ele><time>2014-10-8T11:10:24Z</time></trkpt>
<trkpt lat="46.22468415" lon="6.10740275"><ele></ele><time>2014-10-8T11:10:27Z</time></trkpt>
<trkpt lat="46.22468809" lon="6.10740258"><ele></ele><time>2014-10-8T11:10:30Z</time></trkpt>
<trkpt lat="46.22469194" lon="6.10740887"><ele></ele><time>2014-10-8T11:10:33Z</time></trkpt>
<trkpt lat="46.22469597" lon="6.10741273"><ele></ele><time>2014-10-8T11:10:36Z</time></trkpt>
<trkpt lat="46.22469555" lon="6.10741457"><ele></ele><time>2014-10-8T11:10:39Z</time></trkpt>
<trkpt lat="46.22469320" lon="6.10741407"><ele></ele><time>2014-10-8T11:10:42Z</time></trkpt>
<trkpt lat="46.22469027" lon="6.10741197"><ele></ele><time>2014-10-8T11:10:45Z</time></trkpt>
<trkpt lat="46.22468733" lon="6.10740937"><ele></ele><time>2014-10-8T11:10:48Z</time></trkpt>
<trkpt lat="46.22468415" lon="6.10740627"><ele></ele><time>2014-10-8T11:10:51Z</time></trkpt>
<trkpt lat="46.22468172" lon="6.10740334"><ele></ele><time>2014-10-8T11:10:54Z</time></trkpt>
<trkpt lat="46.22468046" lon="6.10740074"><ele></ele><time>2014-10-8T11:10:57Z</time></trkpt>
<trkpt lat="46.22467937" lon="6.10739822"><ele></ele><time>2014-10-8T11:11:0Z</time></trkpt>
<trkpt lat="46.22467794" lon="6.10739529"><ele></ele><time>2014-10-8T11:11:3Z</time></trkpt>
<trkpt lat="46.22467618" lon="6.10739135"><ele></ele><time>2014-10-8T11:11:6Z</time></trkpt>
<trkpt lat="46.22467442" lon="6.10738708"><ele></ele><time>2014-10-8T11:11:9Z</time></trkpt>
<trkpt lat="46.22467157" lon="6.10738305"><ele></ele><time>2014-10-8T11:11:12Z</time></trkpt>
<trkpt lat="46.22466889" lon="6.10737928"><ele></ele><time>2014-10-8T11:11:15Z</time></trkpt>
<trkpt lat="46.22466604" lon="6.10737610"><ele></ele><time>2014-10-8T11:11:18Z</time></trkpt>
<trkpt lat="46.22466344" lon="6.10737333"><ele></ele><time>2014-10-8T11:11:21Z</time></trkpt>
<trkpt lat="46.22466135" lon="6.10737124"><ele></ele><time>2014-10-8T11:11:24Z</time></trkpt>
<trkpt lat="46.22465967" lon="6.10736948"><ele></ele><time>2014-10-8T11:11:27Z</time></trkpt>
<trkpt lat="46.22465867" lon="6.10736763"><ele></ele><time>2014-10-8T11:11:30Z</time></trkpt>
<trkpt lat="46.22465825" lon="6.10736528"><ele></ele><time>2014-10-8T11:11:33Z</time></trkpt>
<trkpt lat="46.22465783" lon="6.10736227"><ele></ele><time>2014-10-8T11:11:36Z</time></trkpt>
<trkpt lat="46.22465515" lon="6.10735715"><ele></ele><time>2014-10-8T11:11:39Z</time></trkpt>
<trkpt lat="46.22465037" lon="6.10735590"><ele></ele><time>2014-10-8T11:11:42Z</time></trkpt>
<trkpt lat="46.22465012" lon="6.10735774"><ele></ele><time>2014-10-8T11:11:45Z</time></trkpt>
<trkpt lat="46.22464735" lon="6.10735942"><ele></ele><time>2014-10-8T11:11:48Z</time></trkpt>
<trkpt lat="46.22465255" lon="6.10735824"><ele></ele><time>2014-10-8T11:11:51Z</time></trkpt>
<trkpt lat="46.22465540" lon="6.10735673"><ele></ele><time>2014-10-8T11:11:54Z</time></trkpt>
<trkpt lat="46.22465515" lon="6.10735464"><ele></ele><time>2014-10-8T11:11:57Z</time></trkpt>
<trkpt lat="46.22465657" lon="6.10734902"><ele></ele><time>2014-10-8T11:12:0Z</time></trkpt>
<trkpt lat="46.22465959" lon="6.10735296"><ele></ele><time>2014-10-8T11:12:3Z</time></trkpt>
<trkpt lat="46.22466789" lon="6.10735053"><ele></ele><time>2014-10-8T11:12:6Z</time></trkpt>
<trkpt lat="46.22467183" lon="6.10735162"><ele></ele><time>2014-10-8T11:12:9Z</time></trkpt>
<trkpt lat="46.22467585" lon="6.10735003"><ele></ele><time>2014-10-8T11:12:12Z</time></trkpt>
<trkpt lat="46.22467753" lon="6.10735053"><ele></ele><time>2014-10-8T11:12:15Z</time></trkpt>
<trkpt lat="46.22468096" lon="6.10735196"><ele></ele><time>2014-10-8T11:12:18Z</time></trkpt>
<trkpt lat="46.22468063" lon="6.10735388"><ele></ele><time>2014-10-8T11:12:21Z</time></trkpt>
<trkpt lat="46.22467560" lon="6.10735388"><ele></ele><time>2014-10-8T11:12:24Z</time></trkpt>
<trkpt lat="46.22466889" lon="6.10735523"><ele></ele><time>2014-10-8T11:12:27Z</time></trkpt>
<trkpt lat="46.22466713" lon="6.10735640"><ele></ele><time>2014-10-8T11:12:30Z</time></trkpt>
<trkpt lat="46.22466043" lon="6.10735699"><ele></ele><time>2014-10-8T11:12:33Z</time></trkpt>
<trkpt lat="46.22465615" lon="6.10735824"><ele></ele><time>2014-10-8T11:12:36Z</time></trkpt>
<trkpt lat="46.22465246" lon="6.10735942"><ele></ele><time>2014-10-8T11:12:39Z</time></trkpt>
<trkpt lat="46.22464945" lon="6.10736118"><ele></ele><time>2014-10-8T11:12:42Z</time></trkpt>
<trkpt lat="46.22464584" lon="6.10736646"><ele></ele><time>2014-10-8T11:12:45Z</time></trkpt>
<trkpt lat="46.22463964" lon="6.10737023"><ele></ele><time>2014-10-8T11:12:48Z</time></trkpt>
<trkpt lat="46.22463746" lon="6.10737727"><ele></ele><time>2014-10-8T11:12:51Z</time></trkpt>
<trkpt lat="46.22463729" lon="6.10738356"><ele></ele><time>2014-10-8T11:12:54Z</time></trkpt>
<trkpt lat="46.22462858" lon="6.10739848"><ele></ele><time>2014-10-8T11:12:57Z</time></trkpt>
<trkpt lat="46.22461332" lon="6.10741817"><ele></ele><time>2014-10-8T11:13:0Z</time></trkpt>
<trkpt lat="46.22459823" lon="6.10744407"><ele></ele><time>2014-10-8T11:13:3Z</time></trkpt>
<trkpt lat="46.22457795" lon="6.10747559"><ele></ele><time>2014-10-8T11:13:6Z</time></trkpt>
<trkpt lat="46.22455624" lon="6.10750602"><ele></ele><time>2014-10-8T11:13:9Z</time></trkpt>
<trkpt lat="46.22453336" lon="6.10754348"><ele></ele><time>2014-10-8T11:13:12Z</time></trkpt>
<trkpt lat="46.22451173" lon="6.10761565"><ele></ele><time>2014-10-8T11:13:15Z</time></trkpt>
<trkpt lat="46.22448566" lon="6.10768455"><ele></ele><time>2014-10-8T11:13:18Z</time></trkpt>
<trkpt lat="46.22446756" lon="6.10775270"><ele></ele><time>2014-10-8T11:13:21Z</time></trkpt>
<trkpt lat="46.22443956" lon="6.10781573"><ele></ele><time>2014-10-8T11:13:24Z</time></trkpt>
<trkpt lat="46.22440302" lon="6.10786853"><ele></ele><time>2014-10-8T11:13:27Z</time></trkpt>
<trkpt lat="46.22436530" lon="6.10792000"><ele></ele><time>2014-10-8T11:13:30Z</time></trkpt>
<trkpt lat="46.22432976" lon="6.10797306"><ele></ele><time>2014-10-8T11:13:33Z</time></trkpt>
<trkpt lat="46.22429539" lon="6.10802737"><ele></ele><time>2014-10-8T11:13:36Z</time></trkpt>
<trkpt lat="46.22425868" lon="6.10807800"><ele></ele><time>2014-10-8T11:13:39Z</time></trkpt>
<trkpt lat="46.22422147" lon="6.10812175"><ele></ele><time>2014-10-8T11:13:42Z</time></trkpt>
<trkpt lat="46.22418827" lon="6.10816148"><ele></ele><time>2014-10-8T11:13:45Z</time></trkpt>
<trkpt lat="46.22415902" lon="6.10820842"><ele></ele><time>2014-10-8T11:13:48Z</time></trkpt>
<trkpt lat="46.22413178" lon="6.10824622"><ele></ele><time>2014-10-8T11:13:51Z</time></trkpt>
<trkpt lat="46.22411108" lon="6.10827933"><ele></ele><time>2014-10-8T11:13:54Z</time></trkpt>
<trkpt lat="46.22408995" lon="6.10831303"><ele></ele><time>2014-10-8T11:13:57Z</time></trkpt>
<trkpt lat="46.22407218" lon="6.10834488"><ele></ele><time>2014-10-8T11:14:0Z</time></trkpt>
<trkpt lat="46.22405282" lon="6.10837405"><ele></ele><time>2014-10-8T11:14:3Z</time></trkpt>
<trkpt lat="46.22403547" lon="6.10839693"><ele></ele><time>2014-10-8T11:14:6Z</time></trkpt>
<trkpt lat="46.22402022" lon="6.10841797"><ele></ele><time>2014-10-8T11:14:9Z</time></trkpt>
<trkpt lat="46.22401049" lon="6.10843146"><ele></ele><time>2014-10-8T11:14:12Z</time></trkpt>
<trkpt lat="46.22400748" lon="6.10843616"><ele></ele><time>2014-10-8T11:14:15Z</time></trkpt>
<trkpt lat="46.22400907" lon="6.10843649"><ele></ele><time>2014-10-8T11:14:18Z</time></trkpt>
<trkpt lat="46.22400840" lon="6.10843892"><ele></ele><time>2014-10-8T11:14:21Z</time></trkpt>
<trkpt lat="46.22400580" lon="6.10844202"><ele></ele><time>2014-10-8T11:14:24Z</time></trkpt>
<trkpt lat="46.22400530" lon="6.10844370"><ele></ele><time>2014-10-8T11:14:27Z</time></trkpt>
<trkpt lat="46.22400614" lon="6.10844244"><ele></ele><time>2014-10-8T11:14:30Z</time></trkpt>
<trkpt lat="46.22400672" lon="6.10844135"><ele></ele><time>2014-10-8T11:14:33Z</time></trkpt>
<trkpt lat="46.22400622" lon="6.10844169"><ele></ele><time>2014-10-8T11:14:36Z</time></trkpt>
<trkpt lat="46.22400655" lon="6.10844219"><ele></ele><time>2014-10-8T11:14:39Z</time></trkpt>
<trkpt lat="46.22400639" lon="6.10844328"><ele></ele><time>2014-10-8T11:14:42Z</time></trkpt>
<trkpt lat="46.22400588" lon="6.10844370"><ele></ele><time>2014-10-8T11:14:45Z</time></trkpt>
<trkpt lat="46.22400597" lon="6.10844278"><ele></ele><time>2014-10-8T11:14:48Z</time></trkpt>
<trkpt lat="46.22400597" lon="6.10844169"><ele></ele><time>2014-10-8T11:14:51Z</time></trkpt>
<trkpt lat="46.22400614" lon="6.10844068"><ele></ele><time>2014-10-8T11:14:54Z</time></trkpt>
<trkpt lat="46.22400622" lon="6.10843984"><ele></ele><time>2014-10-8T11:14:57Z</time></trkpt>
<trkpt lat="46.22400563" lon="6.10843775"><ele></ele><time>2014-10-8T11:15:0Z</time></trkpt>
<trkpt lat="46.22400362" lon="6.10843582"><ele></ele><time>2014-10-8T11:15:3Z</time></trkpt>
<trkpt lat="46.22400220" lon="6.10843448"><ele></ele><time>2014-10-8T11:15:6Z</time></trkpt>
<trkpt lat="46.22400236" lon="6.10843322"><ele></ele><time>2014-10-8T11:15:9Z</time></trkpt>
<trkpt lat="46.22400236" lon="6.10843247"><ele></ele><time>2014-10-8T11:15:12Z</time></trkpt>
<trkpt lat="46.22400236" lon="6.10843163"><ele></ele><time>2014-10-8T11:15:15Z</time></trkpt>
<trkpt lat="46.22400228" lon="6.10843104"><ele></ele><time>2014-10-8T11:15:18Z</time></trkpt>
<trkpt lat="46.22400220" lon="6.10843104"><ele></ele><time>2014-10-8T11:15:21Z</time></trkpt>
<trkpt lat="46.22400194" lon="6.10843113"><ele></ele><time>2014-10-8T11:15:24Z</time></trkpt>
<trkpt lat="46.22400253" lon="6.10843029"><ele></ele><time>2014-10-8T11:15:27Z</time></trkpt>
<trkpt lat="46.22400236" lon="6.10842928"><ele></ele><time>2014-10-8T11:15:30Z</time></trkpt>
<trkpt lat="46.22400127" lon="6.10843029"><ele></ele><time>2014-10-8T11:15:33Z</time></trkpt>
<trkpt lat="46.22400295" lon="6.10842853"><ele></ele><time>2014-10-8T11:15:36Z</time></trkpt>
<trkpt lat="46.22400454" lon="6.10842685"><ele></ele><time>2014-10-8T11:15:39Z</time></trkpt>
<trkpt lat="46.22400396" lon="6.10842627"><ele></ele><time>2014-10-8T11:15:42Z</time></trkpt>
<trkpt lat="46.22400329" lon="6.10842618"><ele></ele><time>2014-10-8T11:15:45Z</time></trkpt>
<trkpt lat="46.22400345" lon="6.10842786"><ele></ele><time>2014-10-8T11:15:48Z</time></trkpt>
<trkpt lat="46.22400429" lon="6.10843037"><ele></ele><time>2014-10-8T11:15:51Z</time></trkpt>
<trkpt lat="46.22400488" lon="6.10843104"><ele></ele><time>2014-10-8T11:15:54Z</time></trkpt>
<trkpt lat="46.22400538" lon="6.10843213"><ele></ele><time>2014-10-8T11:15:57Z</time></trkpt>
<trkpt lat="46.22400563" lon="6.10843322"><ele></ele><time>2014-10-8T11:16:0Z</time></trkpt>
<trkpt lat="46.22400588" lon="6.10843440"><ele></ele><time>2014-10-8T11:16:3Z</time></trkpt>
<trkpt lat="46.22400563" lon="6.10843565"><ele></ele><time>2014-10-8T11:16:6Z</time></trkpt>
<trkpt lat="46.22400312" lon="6.10844018"><ele></ele><time>2014-10-8T11:16:9Z</time></trkpt>
<trkpt lat="46.22399515" lon="6.10844823"><ele></ele><time>2014-10-8T11:16:12Z</time></trkpt>
<trkpt lat="46.22398627" lon="6.10845770"><ele></ele><time>2014-10-8T11:16:15Z</time></trkpt>
<trkpt lat="46.22397428" lon="6.10846943"><ele></ele><time>2014-10-8T11:16:18Z</time></trkpt>
<trkpt lat="46.22395987" lon="6.10848553"><ele></ele><time>2014-10-8T11:16:21Z</time></trkpt>
<trkpt lat="46.22394394" lon="6.10850522"><ele></ele><time>2014-10-8T11:16:24Z</time></trkpt>
<trkpt lat="46.22392408" lon="6.10852987"><ele></ele><time>2014-10-8T11:16:27Z</time></trkpt>
<trkpt lat="46.22390287" lon="6.10855526"><ele></ele><time>2014-10-8T11:16:30Z</time></trkpt>
<trkpt lat="46.22387798" lon="6.10858066"><ele></ele><time>2014-10-8T11:16:33Z</time></trkpt>
<trkpt lat="46.22384763" lon="6.10860983"><ele></ele><time>2014-10-8T11:16:36Z</time></trkpt>
<trkpt lat="46.22381905" lon="6.10864487"><ele></ele><time>2014-10-8T11:16:39Z</time></trkpt>
<trkpt lat="46.22378418" lon="6.10867772"><ele></ele><time>2014-10-8T11:16:42Z</time></trkpt>
<trkpt lat="46.22376155" lon="6.10871452"><ele></ele><time>2014-10-8T11:16:45Z</time></trkpt>
<trkpt lat="46.22373029" lon="6.10875115"><ele></ele><time>2014-10-8T11:16:48Z</time></trkpt>
<trkpt lat="46.22369936" lon="6.10879046"><ele></ele><time>2014-10-8T11:16:51Z</time></trkpt>
<trkpt lat="46.22366566" lon="6.10882952"><ele></ele><time>2014-10-8T11:16:54Z</time></trkpt>
<trkpt lat="46.22364102" lon="6.10887730"><ele></ele><time>2014-10-8T11:16:57Z</time></trkpt>
<trkpt lat="46.22361696" lon="6.10892373"><ele></ele><time>2014-10-8T11:17:0Z</time></trkpt>
<trkpt lat="46.22359467" lon="6.10896723"><ele></ele><time>2014-10-8T11:17:3Z</time></trkpt>
<trkpt lat="46.22356466" lon="6.10900378"><ele></ele><time>2014-10-8T11:17:6Z</time></trkpt>
<trkpt lat="46.22353524" lon="6.10903806"><ele></ele><time>2014-10-8T11:17:9Z</time></trkpt>
<trkpt lat="46.22351529" lon="6.10907637"><ele></ele><time>2014-10-8T11:17:12Z</time></trkpt>
<trkpt lat="46.22349123" lon="6.10911056"><ele></ele><time>2014-10-8T11:17:15Z</time></trkpt>
<trkpt lat="46.22345997" lon="6.10914334"><ele></ele><time>2014-10-8T11:17:18Z</time></trkpt>
<trkpt lat="46.22343323" lon="6.10917913"><ele></ele><time>2014-10-8T11:17:21Z</time></trkpt>
<trkpt lat="46.22340943" lon="6.10921986"><ele></ele><time>2014-10-8T11:17:24Z</time></trkpt>
<trkpt lat="46.22337992" lon="6.10925205"><ele></ele><time>2014-10-8T11:17:27Z</time></trkpt>
<trkpt lat="46.22334572" lon="6.10927393"><ele></ele><time>2014-10-8T11:17:30Z</time></trkpt>
<trkpt lat="46.22331932" lon="6.10927979"><ele></ele><time>2014-10-8T11:17:33Z</time></trkpt>
<trkpt lat="46.22330113" lon="6.10927074"><ele></ele><time>2014-10-8T11:17:36Z</time></trkpt>
<trkpt lat="46.22328244" lon="6.10924987"><ele></ele><time>2014-10-8T11:17:39Z</time></trkpt>
<trkpt lat="46.22327155" lon="6.10923185"><ele></ele><time>2014-10-8T11:17:42Z</time></trkpt>
<trkpt lat="46.22325646" lon="6.10921785"><ele></ele><time>2014-10-8T11:17:45Z</time></trkpt>
<trkpt lat="46.22324715" lon="6.10921266"><ele></ele><time>2014-10-8T11:17:48Z</time></trkpt>
<trkpt lat="46.22324145" lon="6.10921525"><ele></ele><time>2014-10-8T11:17:51Z</time></trkpt>
<trkpt lat="46.22324045" lon="6.10922204"><ele></ele><time>2014-10-8T11:17:54Z</time></trkpt>
<trkpt lat="46.22323056" lon="6.10922129"><ele></ele><time>2014-10-8T11:17:57Z</time></trkpt>
<trkpt lat="46.22322427" lon="6.10922607"><ele></ele><time>2014-10-8T11:18:0Z</time></trkpt>
<trkpt lat="46.22322452" lon="6.10922758"><ele></ele><time>2014-10-8T11:18:3Z</time></trkpt>
<trkpt lat="46.22321765" lon="6.10922020"><ele></ele><time>2014-10-8T11:18:6Z</time></trkpt>
<trkpt lat="46.22319787" lon="6.10921056"><ele></ele><time>2014-10-8T11:18:9Z</time></trkpt>
<trkpt lat="46.22317440" lon="6.10921115"><ele></ele><time>2014-10-8T11:18:12Z</time></trkpt>
<trkpt lat="46.22314355" lon="6.10922305"><ele></ele><time>2014-10-8T11:18:15Z</time></trkpt>
<trkpt lat="46.22311539" lon="6.10924375"><ele></ele><time>2014-10-8T11:18:18Z</time></trkpt>
<trkpt lat="46.22309108" lon="6.10924610"><ele></ele><time>2014-10-8T11:18:21Z</time></trkpt>
<trkpt lat="46.22307885" lon="6.10923168"><ele></ele><time>2014-10-8T11:18:24Z</time></trkpt>
<trkpt lat="46.22307583" lon="6.10920000"><ele></ele><time>2014-10-8T11:18:27Z</time></trkpt>
<trkpt lat="46.22307348" lon="6.10916027"><ele></ele><time>2014-10-8T11:18:30Z</time></trkpt>
<trkpt lat="46.22305864" lon="6.10912448"><ele></ele><time>2014-10-8T11:18:33Z</time></trkpt>
<trkpt lat="46.22304347" lon="6.10908726"><ele></ele><time>2014-10-8T11:18:36Z</time></trkpt>
<trkpt lat="46.22302713" lon="6.10904988"><ele></ele><time>2014-10-8T11:18:39Z</time></trkpt>
<trkpt lat="46.22302084" lon="6.10903144"><ele></ele><time>2014-10-8T11:18:42Z</time></trkpt>
<trkpt lat="46.22301162" lon="6.10901333"><ele></ele><time>2014-10-8T11:18:45Z</time></trkpt>
<trkpt lat="46.22299679" lon="6.10899674"><ele></ele><time>2014-10-8T11:18:48Z</time></trkpt>
<trkpt lat="46.22296636" lon="6.10897796"><ele></ele><time>2014-10-8T11:18:51Z</time></trkpt>
<trkpt lat="46.22293786" lon="6.10894552"><ele></ele><time>2014-10-8T11:18:54Z</time></trkpt>
<trkpt lat="46.22291313" lon="6.10891703"><ele></ele><time>2014-10-8T11:18:57Z</time></trkpt>
<trkpt lat="46.22288774" lon="6.10889205"><ele></ele><time>2014-10-8T11:19:0Z</time></trkpt>
<trkpt lat="46.22286418" lon="6.10887109"><ele></ele><time>2014-10-8T11:19:3Z</time></trkpt>
<trkpt lat="46.22283694" lon="6.10885198"><ele></ele><time>2014-10-8T11:19:6Z</time></trkpt>
<trkpt lat="46.22281884" lon="6.10882767"><ele></ele><time>2014-10-8T11:19:9Z</time></trkpt>
<trkpt lat="46.22281062" lon="6.10880219"><ele></ele><time>2014-10-8T11:19:12Z</time></trkpt>
<trkpt lat="46.22280157" lon="6.10878124"><ele></ele><time>2014-10-8T11:19:15Z</time></trkpt>
<trkpt lat="46.22278858" lon="6.10875400"><ele></ele><time>2014-10-8T11:19:18Z</time></trkpt>
<trkpt lat="46.22277299" lon="6.10873723"><ele></ele><time>2014-10-8T11:19:21Z</time></trkpt>
<trkpt lat="46.22275187" lon="6.10871670"><ele></ele><time>2014-10-8T11:19:24Z</time></trkpt>
<trkpt lat="46.22272873" lon="6.10868535"><ele></ele><time>2014-10-8T11:19:27Z</time></trkpt>
<trkpt lat="46.22269722" lon="6.10864897"><ele></ele><time>2014-10-8T11:19:30Z</time></trkpt>
<trkpt lat="46.22266696" lon="6.10860958"><ele></ele><time>2014-10-8T11:19:33Z</time></trkpt>
<trkpt lat="46.22264265" lon="6.10856968"><ele></ele><time>2014-10-8T11:19:36Z</time></trkpt>
<trkpt lat="46.22261885" lon="6.10852660"><ele></ele><time>2014-10-8T11:19:39Z</time></trkpt>
<trkpt lat="46.22259244" lon="6.10848175"><ele></ele><time>2014-10-8T11:19:42Z</time></trkpt>
<trkpt lat="46.22256403" lon="6.10843792"><ele></ele><time>2014-10-8T11:19:45Z</time></trkpt>
<trkpt lat="46.22253352" lon="6.10839684"><ele></ele><time>2014-10-8T11:19:48Z</time></trkpt>
<trkpt lat="46.22250594" lon="6.10835695"><ele></ele><time>2014-10-8T11:19:51Z</time></trkpt>
<trkpt lat="46.22248298" lon="6.10831579"><ele></ele><time>2014-10-8T11:19:54Z</time></trkpt>
<trkpt lat="46.22246194" lon="6.10827304"><ele></ele><time>2014-10-8T11:19:57Z</time></trkpt>
<trkpt lat="46.22244350" lon="6.10822862"><ele></ele><time>2014-10-8T11:20:0Z</time></trkpt>
<trkpt lat="46.22243394" lon="6.10817213"><ele></ele><time>2014-10-8T11:20:3Z</time></trkpt>
<trkpt lat="46.22243553" lon="6.10811236"><ele></ele><time>2014-10-8T11:20:6Z</time></trkpt>
<trkpt lat="46.22243813" lon="6.10806643"><ele></ele><time>2014-10-8T11:20:9Z</time></trkpt>
<trkpt lat="46.22245733" lon="6.10803190"><ele></ele><time>2014-10-8T11:20:12Z</time></trkpt>
<trkpt lat="46.22248189" lon="6.10799166"><ele></ele><time>2014-10-8T11:20:15Z</time></trkpt>
<trkpt lat="46.22250410" lon="6.10795017"><ele></ele><time>2014-10-8T11:20:18Z</time></trkpt>
<trkpt lat="46.22252455" lon="6.10791053"><ele></ele><time>2014-10-8T11:20:21Z</time></trkpt>
<trkpt lat="46.22253830" lon="6.10786778"><ele></ele><time>2014-10-8T11:20:24Z</time></trkpt>
<trkpt lat="46.22254349" lon="6.10781967"><ele></ele><time>2014-10-8T11:20:27Z</time></trkpt>
<trkpt lat="46.22254525" lon="6.10777306"><ele></ele><time>2014-10-8T11:20:30Z</time></trkpt>
<trkpt lat="46.22253972" lon="6.10772730"><ele></ele><time>2014-10-8T11:20:33Z</time></trkpt>
<trkpt lat="46.22253696" lon="6.10767659"><ele></ele><time>2014-10-8T11:20:36Z</time></trkpt>
<trkpt lat="46.22254098" lon="6.10762395"><ele></ele><time>2014-10-8T11:20:39Z</time></trkpt>
<trkpt lat="46.22255288" lon="6.10756905"><ele></ele><time>2014-10-8T11:20:42Z</time></trkpt>
<trkpt lat="46.22256629" lon="6.10751549"><ele></ele><time>2014-10-8T11:20:45Z</time></trkpt>
<trkpt lat="46.22258079" lon="6.10745975"><ele></ele><time>2014-10-8T11:20:48Z</time></trkpt>
<trkpt lat="46.22258993" lon="6.10739437"><ele></ele><time>2014-10-8T11:20:51Z</time></trkpt>
<trkpt lat="46.22259144" lon="6.10732245"><ele></ele><time>2014-10-8T11:20:54Z</time></trkpt>
<trkpt lat="46.22258775" lon="6.10725213"><ele></ele><time>2014-10-8T11:20:57Z</time></trkpt>
<trkpt lat="46.22258088" lon="6.10718558"><ele></ele><time>2014-10-8T11:21:0Z</time></trkpt>
<trkpt lat="46.22257015" lon="6.10712053"><ele></ele><time>2014-10-8T11:21:3Z</time></trkpt>
<trkpt lat="46.22255674" lon="6.10706018"><ele></ele><time>2014-10-8T11:21:6Z</time></trkpt>
<trkpt lat="46.22253788" lon="6.10700218"><ele></ele><time>2014-10-8T11:21:9Z</time></trkpt>
<trkpt lat="46.22251256" lon="6.10695004"><ele></ele><time>2014-10-8T11:21:12Z</time></trkpt>
<trkpt lat="46.22247912" lon="6.10691199"><ele></ele><time>2014-10-8T11:21:15Z</time></trkpt>
<trkpt lat="46.22243746" lon="6.10689137"><ele></ele><time>2014-10-8T11:21:18Z</time></trkpt>
<trkpt lat="46.22238952" lon="6.10689162"><ele></ele><time>2014-10-8T11:21:21Z</time></trkpt>
<trkpt lat="46.22234216" lon="6.10691878"><ele></ele><time>2014-10-8T11:21:24Z</time></trkpt>
<trkpt lat="46.22229053" lon="6.10695147"><ele></ele><time>2014-10-8T11:21:27Z</time></trkpt>
<trkpt lat="46.22224342" lon="6.10699422"><ele></ele><time>2014-10-8T11:21:30Z</time></trkpt>
<trkpt lat="46.22219489" lon="6.10704493"><ele></ele><time>2014-10-8T11:21:33Z</time></trkpt>
<trkpt lat="46.22214636" lon="6.10710310"><ele></ele><time>2014-10-8T11:21:36Z</time></trkpt>
<trkpt lat="46.22209112" lon="6.10715146"><ele></ele><time>2014-10-8T11:21:39Z</time></trkpt>
<trkpt lat="46.22205885" lon="6.10719304"><ele></ele><time>2014-10-8T11:21:42Z</time></trkpt>
<trkpt lat="46.22202742" lon="6.10721315"><ele></ele><time>2014-10-8T11:21:45Z</time></trkpt>
<trkpt lat="46.22201158" lon="6.10721592"><ele></ele><time>2014-10-8T11:21:48Z</time></trkpt>
<trkpt lat="46.22199607" lon="6.10723134"><ele></ele><time>2014-10-8T11:21:51Z</time></trkpt>
<trkpt lat="46.22198786" lon="6.10726713"><ele></ele><time>2014-10-8T11:21:54Z</time></trkpt>
<trkpt lat="46.22201904" lon="6.10732296"><ele></ele><time>2014-10-8T11:21:57Z</time></trkpt>
<trkpt lat="46.22201409" lon="6.10738272"><ele></ele><time>2014-10-8T11:22:0Z</time></trkpt>
<trkpt lat="46.22203974" lon="6.10740233"><ele></ele><time>2014-10-8T11:22:3Z</time></trkpt>
<trkpt lat="46.22205106" lon="6.10743552"><ele></ele><time>2014-10-8T11:22:6Z</time></trkpt>
<trkpt lat="46.22206715" lon="6.10744458"><ele></ele><time>2014-10-8T11:22:9Z</time></trkpt>
<trkpt lat="46.22209422" lon="6.10745547"><ele></ele><time>2014-10-8T11:22:12Z</time></trkpt>
<trkpt lat="46.22211459" lon="6.10747224"><ele></ele><time>2014-10-8T11:22:15Z</time></trkpt>
<trkpt lat="46.22213337" lon="6.10747417"><ele></ele><time>2014-10-8T11:22:18Z</time></trkpt>
<trkpt lat="46.22215047" lon="6.10747777"><ele></ele><time>2014-10-8T11:22:21Z</time></trkpt>
<trkpt lat="46.22217184" lon="6.10745103"><ele></ele><time>2014-10-8T11:22:24Z</time></trkpt>
<trkpt lat="46.22218668" lon="6.10743728"><ele></ele><time>2014-10-8T11:22:27Z</time></trkpt>
<trkpt lat="46.22220009" lon="6.10741155"><ele></ele><time>2014-10-8T11:22:30Z</time></trkpt>
<trkpt lat="46.22220604" lon="6.10740015"><ele></ele><time>2014-10-8T11:22:33Z</time></trkpt>
<trkpt lat="46.22222515" lon="6.10739579"><ele></ele><time>2014-10-8T11:22:36Z</time></trkpt>
<trkpt lat="46.22223856" lon="6.10738565"><ele></ele><time>2014-10-8T11:22:39Z</time></trkpt>
<trkpt lat="46.22225256" lon="6.10736948"><ele></ele><time>2014-10-8T11:22:42Z</time></trkpt>
<trkpt lat="46.22224837" lon="6.10737727"><ele></ele><time>2014-10-8T11:22:45Z</time></trkpt>
<trkpt lat="46.22225323" lon="6.10737668"><ele></ele><time>2014-10-8T11:22:48Z</time></trkpt>
<trkpt lat="46.22225507" lon="6.10738230"><ele></ele><time>2014-10-8T11:22:51Z</time></trkpt>
<trkpt lat="46.22226345" lon="6.10738029"><ele></ele><time>2014-10-8T11:22:54Z</time></trkpt>
<trkpt lat="46.22227058" lon="6.10738079"><ele></ele><time>2014-10-8T11:22:57Z</time></trkpt>
<trkpt lat="46.22227577" lon="6.10739043"><ele></ele><time>2014-10-8T11:23:0Z</time></trkpt>
<trkpt lat="46.22228416" lon="6.10739487"><ele></ele><time>2014-10-8T11:23:3Z</time></trkpt>
<trkpt lat="46.22229589" lon="6.10739068"><ele></ele><time>2014-10-8T11:23:6Z</time></trkpt>
<trkpt lat="46.22230880" lon="6.10739688"><ele></ele><time>2014-10-8T11:23:9Z</time></trkpt>
<trkpt lat="46.22230913" lon="6.10739739"><ele></ele><time>2014-10-8T11:23:12Z</time></trkpt>
<trkpt lat="46.22230855" lon="6.10739035"><ele></ele><time>2014-10-8T11:23:15Z</time></trkpt>
<trkpt lat="46.22230335" lon="6.10738616"><ele></ele><time>2014-10-8T11:23:18Z</time></trkpt>
<trkpt lat="46.22229145" lon="6.10739387"><ele></ele><time>2014-10-8T11:23:21Z</time></trkpt>
<trkpt lat="46.22228206" lon="6.10740175"><ele></ele><time>2014-10-8T11:23:24Z</time></trkpt>
<trkpt lat="46.22227427" lon="6.10740594"><ele></ele><time>2014-10-8T11:23:27Z</time></trkpt>
<trkpt lat="46.22226815" lon="6.10740728"><ele></ele><time>2014-10-8T11:23:30Z</time></trkpt>
<trkpt lat="46.22226806" lon="6.10740225"><ele></ele><time>2014-10-8T11:23:33Z</time></trkpt>
<trkpt lat="46.22226697" lon="6.10740049"><ele></ele><time>2014-10-8T11:23:36Z</time></trkpt>
<trkpt lat="46.22226555" lon="6.10739982"><ele></ele><time>2014-10-8T11:23:39Z</time></trkpt>
<trkpt lat="46.22225767" lon="6.10739395"><ele></ele><time>2014-10-8T11:23:42Z</time></trkpt>
<trkpt lat="46.22224828" lon="6.10739060"><ele></ele><time>2014-10-8T11:23:45Z</time></trkpt>
<trkpt lat="46.22225096" lon="6.10739009"><ele></ele><time>2014-10-8T11:23:48Z</time></trkpt>
<trkpt lat="46.22225113" lon="6.10738884"><ele></ele><time>2014-10-8T11:23:51Z</time></trkpt>
<trkpt lat="46.22224845" lon="6.10738766"><ele></ele><time>2014-10-8T11:23:54Z</time></trkpt>
<trkpt lat="46.22222858" lon="6.10738263"><ele></ele><time>2014-10-8T11:23:57Z</time></trkpt>
<trkpt lat="46.22221425" lon="6.10739328"><ele></ele><time>2014-10-8T11:24:0Z</time></trkpt>
<trkpt lat="46.22221333" lon="6.10740225"><ele></ele><time>2014-10-8T11:24:3Z</time></trkpt>
<trkpt lat="46.22221777" lon="6.10740460"><ele></ele><time>2014-10-8T11:24:6Z</time></trkpt>
<trkpt lat="46.22220444" lon="6.10740015"><ele></ele><time>2014-10-8T11:24:9Z</time></trkpt>
<trkpt lat="46.22220805" lon="6.10740392"><ele></ele><time>2014-10-8T11:24:12Z</time></trkpt>
<trkpt lat="46.22221853" lon="6.10741415"><ele></ele><time>2014-10-8T11:24:15Z</time></trkpt>
<trkpt lat="46.22222783" lon="6.10742664"><ele></ele><time>2014-10-8T11:24:18Z</time></trkpt>
<trkpt lat="46.22222682" lon="6.10742924"><ele></ele><time>2014-10-8T11:24:21Z</time></trkpt>
<trkpt lat="46.22222557" lon="6.10742957"><ele></ele><time>2014-10-8T11:24:24Z</time></trkpt>
<trkpt lat="46.22223454" lon="6.10744315"><ele></ele><time>2014-10-8T11:24:27Z</time></trkpt>
<trkpt lat="46.22223479" lon="6.10745044"><ele></ele><time>2014-10-8T11:24:30Z</time></trkpt>
<trkpt lat="46.22221853" lon="6.10744298"><ele></ele><time>2014-10-8T11:24:33Z</time></trkpt>
<trkpt lat="46.22222037" lon="6.10744868"><ele></ele><time>2014-10-8T11:24:36Z</time></trkpt>
<trkpt lat="46.22221584" lon="6.10745195"><ele></ele><time>2014-10-8T11:24:39Z</time></trkpt>
<trkpt lat="46.22221643" lon="6.10746159"><ele></ele><time>2014-10-8T11:24:42Z</time></trkpt>
<trkpt lat="46.22221593" lon="6.10747056"><ele></ele><time>2014-10-8T11:24:45Z</time></trkpt>
<trkpt lat="46.22221258" lon="6.10747567"><ele></ele><time>2014-10-8T11:24:48Z</time></trkpt>
<trkpt lat="46.22221098" lon="6.10748422"><ele></ele><time>2014-10-8T11:24:51Z</time></trkpt>
<trkpt lat="46.22220956" lon="6.10749160"><ele></ele><time>2014-10-8T11:24:54Z</time></trkpt>
<trkpt lat="46.22220428" lon="6.10749143"><ele></ele><time>2014-10-8T11:24:57Z</time></trkpt>
<trkpt lat="46.22219782" lon="6.10749177"><ele></ele><time>2014-10-8T11:25:0Z</time></trkpt>
<trkpt lat="46.22218776" lon="6.10748774"><ele></ele><time>2014-10-8T11:25:3Z</time></trkpt>
<trkpt lat="46.22218215" lon="6.10749118"><ele></ele><time>2014-10-8T11:25:6Z</time></trkpt>
<trkpt lat="46.22217335" lon="6.10748992"><ele></ele><time>2014-10-8T11:25:9Z</time></trkpt>
<trkpt lat="46.22216564" lon="6.10749085"><ele></ele><time>2014-10-8T11:25:12Z</time></trkpt>
<trkpt lat="46.22215918" lon="6.10749177"><ele></ele><time>2014-10-8T11:25:15Z</time></trkpt>
<trkpt lat="46.22214653" lon="6.10748414"><ele></ele><time>2014-10-8T11:25:18Z</time></trkpt>
<trkpt lat="46.22213152" lon="6.10747492"><ele></ele><time>2014-10-8T11:25:21Z</time></trkpt>
<trkpt lat="46.22212054" lon="6.10746897"><ele></ele><time>2014-10-8T11:25:24Z</time></trkpt>
<trkpt lat="46.22210872" lon="6.10746260"><ele></ele><time>2014-10-8T11:25:27Z</time></trkpt>
<trkpt lat="46.22209565" lon="6.10745447"><ele></ele><time>2014-10-8T11:25:30Z</time></trkpt>
<trkpt lat="46.22209623" lon="6.10745749"><ele></ele><time>2014-10-8T11:25:33Z</time></trkpt>
<trkpt lat="46.22209565" lon="6.10745925"><ele></ele><time>2014-10-8T11:25:36Z</time></trkpt>
<trkpt lat="46.22208928" lon="6.10745640"><ele></ele><time>2014-10-8T11:25:39Z</time></trkpt>
<trkpt lat="46.22208039" lon="6.10745162"><ele></ele><time>2014-10-8T11:25:42Z</time></trkpt>
<trkpt lat="46.22207344" lon="6.10744818"><ele></ele><time>2014-10-8T11:25:45Z</time></trkpt>
<trkpt lat="46.22206002" lon="6.10744055"><ele></ele><time>2014-10-8T11:25:48Z</time></trkpt>
<trkpt lat="46.22205717" lon="6.10743997"><ele></ele><time>2014-10-8T11:25:51Z</time></trkpt>
<trkpt lat="46.22205483" lon="6.10743938"><ele></ele><time>2014-10-8T11:25:54Z</time></trkpt>
<trkpt lat="46.22205215" lon="6.10743812"><ele></ele><time>2014-10-8T11:25:57Z</time></trkpt>
<trkpt lat="46.22204343" lon="6.10743259"><ele></ele><time>2014-10-8T11:26:0Z</time></trkpt>
<trkpt lat="46.22202977" lon="6.10742362"><ele></ele><time>2014-10-8T11:26:3Z</time></trkpt>
<trkpt lat="46.22202205" lon="6.10741826"><ele></ele><time>2014-10-8T11:26:6Z</time></trkpt>
<trkpt lat="46.22201719" lon="6.10741423"><ele></ele><time>2014-10-8T11:26:9Z</time></trkpt>
<trkpt lat="46.22202256" lon="6.10741524"><ele></ele><time>2014-10-8T11:26:12Z</time></trkpt>
<trkpt lat="46.22201258" lon="6.10740686"><ele></ele><time>2014-10-8T11:26:15Z</time></trkpt>
<trkpt lat="46.22200546" lon="6.10740024"><ele></ele><time>2014-10-8T11:26:18Z</time></trkpt>
<trkpt lat="46.22199909" lon="6.10739412"><ele></ele><time>2014-10-8T11:26:21Z</time></trkpt>
<trkpt lat="46.22199087" lon="6.10738699"><ele></ele><time>2014-10-8T11:26:24Z</time></trkpt>
<trkpt lat="46.22198492" lon="6.10738146"><ele></ele><time>2014-10-8T11:26:27Z</time></trkpt>
<trkpt lat="46.22197679" lon="6.10737274"><ele></ele><time>2014-10-8T11:26:30Z</time></trkpt>
<trkpt lat="46.22197243" lon="6.10736872"><ele></ele><time>2014-10-8T11:26:33Z</time></trkpt>
<trkpt lat="46.22197579" lon="6.10737258"><ele></ele><time>2014-10-8T11:26:36Z</time></trkpt>
<trkpt lat="46.22197428" lon="6.10737266"><ele></ele><time>2014-10-8T11:26:39Z</time></trkpt>
<trkpt lat="46.22197922" lon="6.10737442"><ele></ele><time>2014-10-8T11:26:42Z</time></trkpt>
<trkpt lat="46.22198216" lon="6.10737543"><ele></ele><time>2014-10-8T11:26:45Z</time></trkpt>
<trkpt lat="46.22197805" lon="6.10737476"><ele></ele><time>2014-10-8T11:26:48Z</time></trkpt>
<trkpt lat="46.22198132" lon="6.10737635"><ele></ele><time>2014-10-8T11:26:51Z</time></trkpt>
<trkpt lat="46.22198375" lon="6.10737794"><ele></ele><time>2014-10-8T11:26:54Z</time></trkpt>
<trkpt lat="46.22199322" lon="6.10738892"><ele></ele><time>2014-10-8T11:26:57Z</time></trkpt>
<trkpt lat="46.22200378" lon="6.10740057"><ele></ele><time>2014-10-8T11:27:0Z</time></trkpt>
<trkpt lat="46.22201149" lon="6.10740895"><ele></ele><time>2014-10-8T11:27:3Z</time></trkpt>
<trkpt lat="46.22202415" lon="6.10742035"><ele></ele><time>2014-10-8T11:27:6Z</time></trkpt>
<trkpt lat="46.22203345" lon="6.10742865"><ele></ele><time>2014-10-8T11:27:9Z</time></trkpt>
<trkpt lat="46.22203605" lon="6.10743066"><ele></ele><time>2014-10-8T11:27:12Z</time></trkpt>
<trkpt lat="46.22203563" lon="6.10743569"><ele></ele><time>2014-10-8T11:27:15Z</time></trkpt>
<trkpt lat="46.22203857" lon="6.10743904"><ele></ele><time>2014-10-8T11:27:18Z</time></trkpt>
<trkpt lat="46.22203966" lon="6.10744198"><ele></ele><time>2014-10-8T11:27:21Z</time></trkpt>
<trkpt lat="46.22204083" lon="6.10744592"><ele></ele><time>2014-10-8T11:27:24Z</time></trkpt>
<trkpt lat="46.22204569" lon="6.10744902"><ele></ele><time>2014-10-8T11:27:27Z</time></trkpt>
<trkpt lat="46.22205575" lon="6.10745355"><ele></ele><time>2014-10-8T11:27:30Z</time></trkpt>
<trkpt lat="46.22205885" lon="6.10746092"><ele></ele><time>2014-10-8T11:27:33Z</time></trkpt>
<trkpt lat="46.22206908" lon="6.10747090"><ele></ele><time>2014-10-8T11:27:36Z</time></trkpt>
<trkpt lat="46.22207369" lon="6.10747978"><ele></ele><time>2014-10-8T11:27:39Z</time></trkpt>
<trkpt lat="46.22207897" lon="6.10748699"><ele></ele><time>2014-10-8T11:27:42Z</time></trkpt>
<trkpt lat="46.22208307" lon="6.10749168"><ele></ele><time>2014-10-8T11:27:45Z</time></trkpt>
<trkpt lat="46.22208475" lon="6.10749428"><ele></ele><time>2014-10-8T11:27:48Z</time></trkpt>
<trkpt lat="46.22208383" lon="6.10749369"><ele></ele><time>2014-10-8T11:27:51Z</time></trkpt>
<trkpt lat="46.22208819" lon="6.10749504"><ele></ele><time>2014-10-8T11:27:54Z</time></trkpt>
<trkpt lat="46.22209045" lon="6.10749755"><ele></ele><time>2014-10-8T11:27:57Z</time></trkpt>
<trkpt lat="46.22209473" lon="6.10750224"><ele></ele><time>2014-10-8T11:28:0Z</time></trkpt>
<trkpt lat="46.22209590" lon="6.10750174"><ele></ele><time>2014-10-8T11:28:3Z</time></trkpt>
<trkpt lat="46.22210110" lon="6.10751012"><ele></ele><time>2014-10-8T11:28:6Z</time></trkpt>
<trkpt lat="46.22210772" lon="6.10751473"><ele></ele><time>2014-10-8T11:28:9Z</time></trkpt>
<trkpt lat="46.22211853" lon="6.10752412"><ele></ele><time>2014-10-8T11:28:12Z</time></trkpt>
<trkpt lat="46.22212348" lon="6.10752580"><ele></ele><time>2014-10-8T11:28:15Z</time></trkpt>
<trkpt lat="46.22212700" lon="6.10753175"><ele></ele><time>2014-10-8T11:28:18Z</time></trkpt>
<trkpt lat="46.22213328" lon="6.10754164"><ele></ele><time>2014-10-8T11:28:21Z</time></trkpt>
<trkpt lat="46.22214108" lon="6.10755329"><ele></ele><time>2014-10-8T11:28:24Z</time></trkpt>
<trkpt lat="46.22214879" lon="6.10755832"><ele></ele><time>2014-10-8T11:28:27Z</time></trkpt>
<trkpt lat="46.22215566" lon="6.10756360"><ele></ele><time>2014-10-8T11:28:30Z</time></trkpt>
<trkpt lat="46.22215843" lon="6.10756829"><ele></ele><time>2014-10-8T11:28:33Z</time></trkpt>
<trkpt lat="46.22215675" lon="6.10756947"><ele></ele><time>2014-10-8T11:28:36Z</time></trkpt>
<trkpt lat="46.22215415" lon="6.10755899"><ele></ele><time>2014-10-8T11:28:39Z</time></trkpt>
<trkpt lat="46.22214535" lon="6.10754415"><ele></ele><time>2014-10-8T11:28:42Z</time></trkpt>
<trkpt lat="46.22214678" lon="6.10753695"><ele></ele><time>2014-10-8T11:28:45Z</time></trkpt>
<trkpt lat="46.22214753" lon="6.10752974"><ele></ele><time>2014-10-8T11:28:48Z</time></trkpt>
<trkpt lat="46.22214435" lon="6.10752320"><ele></ele><time>2014-10-8T11:28:51Z</time></trkpt>
<trkpt lat="46.22214108" lon="6.10751566"><ele></ele><time>2014-10-8T11:28:54Z</time></trkpt>
<trkpt lat="46.22214829" lon="6.10752018"><ele></ele><time>2014-10-8T11:28:57Z</time></trkpt>
<trkpt lat="46.22214812" lon="6.10751675"><ele></ele><time>2014-10-8T11:29:0Z</time></trkpt>
<trkpt lat="46.22214175" lon="6.10750786"><ele></ele><time>2014-10-8T11:29:3Z</time></trkpt>
<trkpt lat="46.22214242" lon="6.10750744"><ele></ele><time>2014-10-8T11:29:6Z</time></trkpt>
<trkpt lat="46.22215474" lon="6.10751255"><ele></ele><time>2014-10-8T11:29:9Z</time></trkpt>
<trkpt lat="46.22216262" lon="6.10751482"><ele></ele><time>2014-10-8T11:29:12Z</time></trkpt>
<trkpt lat="46.22216513" lon="6.10751725"><ele></ele><time>2014-10-8T11:29:15Z</time></trkpt>
<trkpt lat="46.22217125" lon="6.10752278"><ele></ele><time>2014-10-8T11:29:18Z</time></trkpt>
<trkpt lat="46.22217217" lon="6.10752077"><ele></ele><time>2014-10-8T11:29:21Z</time></trkpt>
<trkpt lat="46.22217243" lon="6.10751968"><ele></ele><time>2014-10-8T11:29:24Z</time></trkpt>
<trkpt lat="46.22217243" lon="6.10751758"><ele></ele><time>2014-10-8T11:29:27Z</time></trkpt>
<trkpt lat="46.22216329" lon="6.10751163"><ele></ele><time>2014-10-8T11:29:30Z</time></trkpt>
<trkpt lat="46.22215935" lon="6.10750769"><ele></ele><time>2014-10-8T11:29:33Z</time></trkpt>
<trkpt lat="46.22216136" lon="6.10750895"><ele></ele><time>2014-10-8T11:29:36Z</time></trkpt>
<trkpt lat="46.22215449" lon="6.10750174"><ele></ele><time>2014-10-8T11:29:39Z</time></trkpt>
<trkpt lat="46.22214795" lon="6.10749587"><ele></ele><time>2014-10-8T11:29:42Z</time></trkpt>
<trkpt lat="46.22212959" lon="6.10747844"><ele></ele><time>2014-10-8T11:29:45Z</time></trkpt>
<trkpt lat="46.22214007" lon="6.10748783"><ele></ele><time>2014-10-8T11:29:48Z</time></trkpt>
<trkpt lat="46.22214787" lon="6.10749235"><ele></ele><time>2014-10-8T11:29:51Z</time></trkpt>
<trkpt lat="46.22215457" lon="6.10749378"><ele></ele><time>2014-10-8T11:29:54Z</time></trkpt>
<trkpt lat="46.22214594" lon="6.10748682"><ele></ele><time>2014-10-8T11:29:57Z</time></trkpt>
<trkpt lat="46.22214376" lon="6.10748246"><ele></ele><time>2014-10-8T11:30:0Z</time></trkpt>
<trkpt lat="46.22214586" lon="6.10748297"><ele></ele><time>2014-10-8T11:30:3Z</time></trkpt>
<trkpt lat="46.22215457" lon="6.10748825"><ele></ele><time>2014-10-8T11:30:6Z</time></trkpt>
<trkpt lat="46.22215834" lon="6.10749428"><ele></ele><time>2014-10-8T11:30:9Z</time></trkpt>
<trkpt lat="46.22215918" lon="6.10749403"><ele></ele><time>2014-10-8T11:30:12Z</time></trkpt>
<trkpt lat="46.22217075" lon="6.10750224"><ele></ele><time>2014-10-8T11:30:15Z</time></trkpt>
<trkpt lat="46.22218165" lon="6.10750769"><ele></ele><time>2014-10-8T11:30:18Z</time></trkpt>
<trkpt lat="46.22219053" lon="6.10751222"><ele></ele><time>2014-10-8T11:30:21Z</time></trkpt>
<trkpt lat="46.22219573" lon="6.10751683"><ele></ele><time>2014-10-8T11:30:24Z</time></trkpt>
<trkpt lat="46.22219296" lon="6.10751314"><ele></ele><time>2014-10-8T11:30:27Z</time></trkpt>
<trkpt lat="46.22218936" lon="6.10751088"><ele></ele><time>2014-10-8T11:30:30Z</time></trkpt>
<trkpt lat="46.22218718" lon="6.10750895"><ele></ele><time>2014-10-8T11:30:33Z</time></trkpt>
<trkpt lat="46.22219422" lon="6.10751683"><ele></ele><time>2014-10-8T11:30:36Z</time></trkpt>
<trkpt lat="46.22219363" lon="6.10751289"><ele></ele><time>2014-10-8T11:30:39Z</time></trkpt>
<trkpt lat="46.22219422" lon="6.10751465"><ele></ele><time>2014-10-8T11:30:42Z</time></trkpt>
<trkpt lat="46.22218659" lon="6.10750442"><ele></ele><time>2014-10-8T11:30:45Z</time></trkpt>
<trkpt lat="46.22218969" lon="6.10750593"><ele></ele><time>2014-10-8T11:30:48Z</time></trkpt>
<trkpt lat="46.22219087" lon="6.10750493"><ele></ele><time>2014-10-8T11:30:51Z</time></trkpt>
<trkpt lat="46.22218307" lon="6.10749889"><ele></ele><time>2014-10-8T11:30:54Z</time></trkpt>
<trkpt lat="46.22218383" lon="6.10750518"><ele></ele><time>2014-10-8T11:30:57Z</time></trkpt>
<trkpt lat="46.22218148" lon="6.10751096"><ele></ele><time>2014-10-8T11:31:0Z</time></trkpt>
<trkpt lat="46.22217804" lon="6.10750987"><ele></ele><time>2014-10-8T11:31:3Z</time></trkpt>
<trkpt lat="46.22217779" lon="6.10751716"><ele></ele><time>2014-10-8T11:31:6Z</time></trkpt>
<trkpt lat="46.22217762" lon="6.10752362"><ele></ele><time>2014-10-8T11:31:9Z</time></trkpt>
<trkpt lat="46.22218257" lon="6.10752873"><ele></ele><time>2014-10-8T11:31:12Z</time></trkpt>
<trkpt lat="46.22218282" lon="6.10752840"><ele></ele><time>2014-10-8T11:31:15Z</time></trkpt>
<trkpt lat="46.22218626" lon="6.10752798"><ele></ele><time>2014-10-8T11:31:18Z</time></trkpt>
<trkpt lat="46.22218257" lon="6.10752647"><ele></ele><time>2014-10-8T11:31:21Z</time></trkpt>
<trkpt lat="46.22219246" lon="6.10753544"><ele></ele><time>2014-10-8T11:31:24Z</time></trkpt>
<trkpt lat="46.22220319" lon="6.10754323"><ele></ele><time>2014-10-8T11:31:27Z</time></trkpt>
<trkpt lat="46.22221367" lon="6.10754977"><ele></ele><time>2014-10-8T11:31:30Z</time></trkpt>
<trkpt lat="46.22220763" lon="6.10754407"><ele></ele><time>2014-10-8T11:31:33Z</time></trkpt>
<trkpt lat="46.22219900" lon="6.10753502"><ele></ele><time>2014-10-8T11:31:36Z</time></trkpt>
<trkpt lat="46.22218466" lon="6.10752605"><ele></ele><time>2014-10-8T11:31:39Z</time></trkpt>
<trkpt lat="46.22217662" lon="6.10752102"><ele></ele><time>2014-10-8T11:31:42Z</time></trkpt>
<trkpt lat="46.22215114" lon="6.10749914"><ele></ele><time>2014-10-8T11:31:45Z</time></trkpt>
<trkpt lat="46.22214552" lon="6.10749864"><ele></ele><time>2014-10-8T11:31:48Z</time></trkpt>
<trkpt lat="46.22214946" lon="6.10750602"><ele></ele><time>2014-10-8T11:31:51Z</time></trkpt>
<trkpt lat="46.22214938" lon="6.10751079"><ele></ele><time>2014-10-8T11:31:54Z</time></trkpt>
<trkpt lat="46.22214979" lon="6.10751029"><ele></ele><time>2014-10-8T11:31:57Z</time></trkpt>
<trkpt lat="46.22215206" lon="6.10751146"><ele></ele><time>2014-10-8T11:32:0Z</time></trkpt>
<trkpt lat="46.22214594" lon="6.10750509"><ele></ele><time>2014-10-8T11:32:3Z</time></trkpt>
<trkpt lat="46.22214979" lon="6.10750669"><ele></ele><time>2014-10-8T11:32:6Z</time></trkpt>
<trkpt lat="46.22215323" lon="6.10750568"><ele></ele><time>2014-10-8T11:32:9Z</time></trkpt>
<trkpt lat="46.22215977" lon="6.10751079"><ele></ele><time>2014-10-8T11:32:12Z</time></trkpt>
<trkpt lat="46.22215290" lon="6.10750048"><ele></ele><time>2014-10-8T11:32:15Z</time></trkpt>
<trkpt lat="46.22214443" lon="6.10749244"><ele></ele><time>2014-10-8T11:32:18Z</time></trkpt>
<trkpt lat="46.22214309" lon="6.10749378"><ele></ele><time>2014-10-8T11:32:21Z</time></trkpt>
<trkpt lat="46.22214803" lon="6.10749445"><ele></ele><time>2014-10-8T11:32:24Z</time></trkpt>
<trkpt lat="46.22215139" lon="6.10749763"><ele></ele><time>2014-10-8T11:32:27Z</time></trkpt>
<trkpt lat="46.22215834" lon="6.10750895"><ele></ele><time>2014-10-8T11:32:30Z</time></trkpt>
<trkpt lat="46.22215793" lon="6.10750945"><ele></ele><time>2014-10-8T11:32:33Z</time></trkpt>
<trkpt lat="46.22215642" lon="6.10750669"><ele></ele><time>2014-10-8T11:32:36Z</time></trkpt>
<trkpt lat="46.22216002" lon="6.10751180"><ele></ele><time>2014-10-8T11:32:39Z</time></trkpt>
<trkpt lat="46.22215549" lon="6.10750543"><ele></ele><time>2014-10-8T11:32:42Z</time></trkpt>
<trkpt lat="46.22214862" lon="6.10749596"><ele></ele><time>2014-10-8T11:32:45Z</time></trkpt>
<trkpt lat="46.22215005" lon="6.10749629"><ele></ele><time>2014-10-8T11:32:48Z</time></trkpt>
<trkpt lat="46.22214787" lon="6.10749126"><ele></ele><time>2014-10-8T11:32:51Z</time></trkpt>
<trkpt lat="46.22214317" lon="6.10748548"><ele></ele><time>2014-10-8T11:32:54Z</time></trkpt>
<trkpt lat="46.22214527" lon="6.10748858"><ele></ele><time>2014-10-8T11:32:57Z</time></trkpt>
<trkpt lat="46.22214175" lon="6.10748439"><ele></ele><time>2014-10-8T11:33:0Z</time></trkpt>
<trkpt lat="46.22213270" lon="6.10747224"><ele></ele><time>2014-10-8T11:33:3Z</time></trkpt>
<trkpt lat="46.22213555" lon="6.10747517"><ele></ele><time>2014-10-8T11:33:6Z</time></trkpt>
<trkpt lat="46.22213865" lon="6.10747802"><ele></ele><time>2014-10-8T11:33:9Z</time></trkpt>
<trkpt lat="46.22213345" lon="6.10747207"><ele></ele><time>2014-10-8T11:33:12Z</time></trkpt>
<trkpt lat="46.22212867" lon="6.10746503"><ele></ele><time>2014-10-8T11:33:15Z</time></trkpt>
<trkpt lat="46.22212716" lon="6.10745749"><ele></ele><time>2014-10-8T11:33:18Z</time></trkpt>
<trkpt lat="46.22213186" lon="6.10745447"><ele></ele><time>2014-10-8T11:33:21Z</time></trkpt>
<trkpt lat="46.22214695" lon="6.10746738"><ele></ele><time>2014-10-8T11:33:24Z</time></trkpt>
<trkpt lat="46.22215055" lon="6.10747056"><ele></ele><time>2014-10-8T11:33:27Z</time></trkpt>
<trkpt lat="46.22214619" lon="6.10746184"><ele></ele><time>2014-10-8T11:33:30Z</time></trkpt>
<trkpt lat="46.22214594" lon="6.10746008"><ele></ele><time>2014-10-8T11:33:33Z</time></trkpt>
<trkpt lat="46.22215239" lon="6.10746712"><ele></ele><time>2014-10-8T11:33:36Z</time></trkpt>
<trkpt lat="46.22215893" lon="6.10747333"><ele></ele><time>2014-10-8T11:33:39Z</time></trkpt>
<trkpt lat="46.22216505" lon="6.10747693"><ele></ele><time>2014-10-8T11:33:42Z</time></trkpt>
<trkpt lat="46.22217880" lon="6.10748883"><ele></ele><time>2014-10-8T11:33:45Z</time></trkpt>
<trkpt lat="46.22219623" lon="6.10750342"><ele></ele><time>2014-10-8T11:33:48Z</time></trkpt>
<trkpt lat="46.22221534" lon="6.10751549"><ele></ele><time>2014-10-8T11:33:51Z</time></trkpt>
<trkpt lat="46.22222188" lon="6.10751968"><ele></ele><time>2014-10-8T11:33:54Z</time></trkpt>
<trkpt lat="46.22222967" lon="6.10752496"><ele></ele><time>2014-10-8T11:33:57Z</time></trkpt>
<trkpt lat="46.22223563" lon="6.10752873"><ele></ele><time>2014-10-8T11:34:0Z</time></trkpt>
<trkpt lat="46.22224116" lon="6.10753234"><ele></ele><time>2014-10-8T11:34:3Z</time></trkpt>
<trkpt lat="46.22224200" lon="6.10753317"><ele></ele><time>2014-10-8T11:34:6Z</time></trkpt>
<trkpt lat="46.22223923" lon="6.10753083"><ele></ele><time>2014-10-8T11:34:9Z</time></trkpt>
<trkpt lat="46.22223009" lon="6.10752387"><ele></ele><time>2014-10-8T11:34:12Z</time></trkpt>
<trkpt lat="46.22222289" lon="6.10751783"><ele></ele><time>2014-10-8T11:34:15Z</time></trkpt>
<trkpt lat="46.22221425" lon="6.10751079"><ele></ele><time>2014-10-8T11:34:18Z</time></trkpt>
<trkpt lat="46.22221098" lon="6.10750996"><ele></ele><time>2014-10-8T11:34:21Z</time></trkpt>
<trkpt lat="46.22221408" lon="6.10751306"><ele></ele><time>2014-10-8T11:34:24Z</time></trkpt>
<trkpt lat="46.22220788" lon="6.10751214"><ele></ele><time>2014-10-8T11:34:27Z</time></trkpt>
<trkpt lat="46.22220344" lon="6.10750945"><ele></ele><time>2014-10-8T11:34:30Z</time></trkpt>
<trkpt lat="46.22218609" lon="6.10749696"><ele></ele><time>2014-10-8T11:34:33Z</time></trkpt>
<trkpt lat="46.22217603" lon="6.10749294"><ele></ele><time>2014-10-8T11:34:36Z</time></trkpt>
<trkpt lat="46.22217595" lon="6.10749906"><ele></ele><time>2014-10-8T11:34:39Z</time></trkpt>
<trkpt lat="46.22216974" lon="6.10749939"><ele></ele><time>2014-10-8T11:34:42Z</time></trkpt>
<trkpt lat="46.22217025" lon="6.10750317"><ele></ele><time>2014-10-8T11:34:45Z</time></trkpt>
<trkpt lat="46.22217000" lon="6.10750794"><ele></ele><time>2014-10-8T11:34:48Z</time></trkpt>
<trkpt lat="46.22217469" lon="6.10751415"><ele></ele><time>2014-10-8T11:34:51Z</time></trkpt>
<trkpt lat="46.22217972" lon="6.10752077"><ele></ele><time>2014-10-8T11:34:54Z</time></trkpt>
<trkpt lat="46.22217695" lon="6.10752035"><ele></ele><time>2014-10-8T11:34:57Z</time></trkpt>
<trkpt lat="46.22218257" lon="6.10752504"><ele></ele><time>2014-10-8T11:35:0Z</time></trkpt>
<trkpt lat="46.22218567" lon="6.10752655"><ele></ele><time>2014-10-8T11:35:3Z</time></trkpt>
<trkpt lat="46.22218416" lon="6.10752404"><ele></ele><time>2014-10-8T11:35:6Z</time></trkpt>
<trkpt lat="46.22218232" lon="6.10752244"><ele></ele><time>2014-10-8T11:35:9Z</time></trkpt>
<trkpt lat="46.22218114" lon="6.10752186"><ele></ele><time>2014-10-8T11:35:12Z</time></trkpt>
<trkpt lat="46.22218416" lon="6.10752446"><ele></ele><time>2014-10-8T11:35:15Z</time></trkpt>
<trkpt lat="46.22218894" lon="6.10752898"><ele></ele><time>2014-10-8T11:35:18Z</time></trkpt>
<trkpt lat="46.22219254" lon="6.10753343"><ele></ele><time>2014-10-8T11:35:21Z</time></trkpt>
<trkpt lat="46.22219254" lon="6.10753502"><ele></ele><time>2014-10-8T11:35:24Z</time></trkpt>
<trkpt lat="46.22219992" lon="6.10754223"><ele></ele><time>2014-10-8T11:35:27Z</time></trkpt>
<trkpt lat="46.22220403" lon="6.10754558"><ele></ele><time>2014-10-8T11:35:30Z</time></trkpt>
<trkpt lat="46.22221283" lon="6.10755312"><ele></ele><time>2014-10-8T11:35:33Z</time></trkpt>
<trkpt lat="46.22221543" lon="6.10755648"><ele></ele><time>2014-10-8T11:35:36Z</time></trkpt>
<trkpt lat="46.22221492" lon="6.10755715"><ele></ele><time>2014-10-8T11:35:39Z</time></trkpt>
<trkpt lat="46.22221123" lon="6.10755438"><ele></ele><time>2014-10-8T11:35:42Z</time></trkpt>
<trkpt lat="46.22221199" lon="6.10755455"><ele></ele><time>2014-10-8T11:35:45Z</time></trkpt>
<trkpt lat="46.22221232" lon="6.10755438"><ele></ele><time>2014-10-8T11:35:48Z</time></trkpt>
<trkpt lat="46.22221316" lon="6.10755379"><ele></ele><time>2014-10-8T11:35:51Z</time></trkpt>
<trkpt lat="46.22221509" lon="6.10755354"><ele></ele><time>2014-10-8T11:35:54Z</time></trkpt>
<trkpt lat="46.22222263" lon="6.10755807"><ele></ele><time>2014-10-8T11:35:57Z</time></trkpt>
<trkpt lat="46.22223110" lon="6.10756243"><ele></ele><time>2014-10-8T11:36:0Z</time></trkpt>
<trkpt lat="46.22224099" lon="6.10756746"><ele></ele><time>2014-10-8T11:36:3Z</time></trkpt>
<trkpt lat="46.22225256" lon="6.10757450"><ele></ele><time>2014-10-8T11:36:6Z</time></trkpt>
<trkpt lat="46.22226714" lon="6.10758455"><ele></ele><time>2014-10-8T11:36:9Z</time></trkpt>
<trkpt lat="46.22227435" lon="6.10758958"><ele></ele><time>2014-10-8T11:36:12Z</time></trkpt>
<trkpt lat="46.22228240" lon="6.10759545"><ele></ele><time>2014-10-8T11:36:15Z</time></trkpt>
<trkpt lat="46.22228298" lon="6.10759629"><ele></ele><time>2014-10-8T11:36:18Z</time></trkpt>
<trkpt lat="46.22228248" lon="6.10759738"><ele></ele><time>2014-10-8T11:36:21Z</time></trkpt>
<trkpt lat="46.22227879" lon="6.10759562"><ele></ele><time>2014-10-8T11:36:24Z</time></trkpt>
<trkpt lat="46.22227385" lon="6.10759160"><ele></ele><time>2014-10-8T11:36:27Z</time></trkpt>
<trkpt lat="46.22226823" lon="6.10758715"><ele></ele><time>2014-10-8T11:36:30Z</time></trkpt>
<trkpt lat="46.22226144" lon="6.10758279"><ele></ele><time>2014-10-8T11:36:33Z</time></trkpt>
<trkpt lat="46.22225625" lon="6.10758129"><ele></ele><time>2014-10-8T11:36:36Z</time></trkpt>
<trkpt lat="46.22225256" lon="6.10758020"><ele></ele><time>2014-10-8T11:36:39Z</time></trkpt>
<trkpt lat="46.22225080" lon="6.10757927"><ele></ele><time>2014-10-8T11:36:42Z</time></trkpt>
<trkpt lat="46.22225130" lon="6.10757969"><ele></ele><time>2014-10-8T11:36:45Z</time></trkpt>
<trkpt lat="46.22225314" lon="6.10758154"><ele></ele><time>2014-10-8T11:36:48Z</time></trkpt>
<trkpt lat="46.22225826" lon="6.10758640"><ele></ele><time>2014-10-8T11:36:51Z</time></trkpt>
<trkpt lat="46.22226345" lon="6.10759109"><ele></ele><time>2014-10-8T11:36:54Z</time></trkpt>
<trkpt lat="46.22226588" lon="6.10759470"><ele></ele><time>2014-10-8T11:36:57Z</time></trkpt>
<trkpt lat="46.22226329" lon="6.10759453"><ele></ele><time>2014-10-8T11:37:0Z</time></trkpt>
<trkpt lat="46.22226203" lon="6.10759503"><ele></ele><time>2014-10-8T11:37:3Z</time></trkpt>
<trkpt lat="46.22226379" lon="6.10759797"><ele></ele><time>2014-10-8T11:37:6Z</time></trkpt>
<trkpt lat="46.22226312" lon="6.10759956"><ele></ele><time>2014-10-8T11:37:9Z</time></trkpt>
<trkpt lat="46.22226144" lon="6.10760065"><ele></ele><time>2014-10-8T11:37:12Z</time></trkpt>
<trkpt lat="46.22225868" lon="6.10759989"><ele></ele><time>2014-10-8T11:37:15Z</time></trkpt>
<trkpt lat="46.22225625" lon="6.10759763"><ele></ele><time>2014-10-8T11:37:18Z</time></trkpt>
<trkpt lat="46.22225448" lon="6.10759537"><ele></ele><time>2014-10-8T11:37:21Z</time></trkpt>
<trkpt lat="46.22225398" lon="6.10759419"><ele></ele><time>2014-10-8T11:37:24Z</time></trkpt>
<trkpt lat="46.22225340" lon="6.10759394"><ele></ele><time>2014-10-8T11:37:27Z</time></trkpt>
<trkpt lat="46.22225063" lon="6.10759277"><ele></ele><time>2014-10-8T11:37:30Z</time></trkpt>
<trkpt lat="46.22224568" lon="6.10758866"><ele></ele><time>2014-10-8T11:37:33Z</time></trkpt>
<trkpt lat="46.22224225" lon="6.10758707"><ele></ele><time>2014-10-8T11:37:36Z</time></trkpt>
<trkpt lat="46.22223923" lon="6.10758615"><ele></ele><time>2014-10-8T11:37:39Z</time></trkpt>
<trkpt lat="46.22223462" lon="6.10758405"><ele></ele><time>2014-10-8T11:37:42Z</time></trkpt>
<trkpt lat="46.22223965" lon="6.10759235"><ele></ele><time>2014-10-8T11:37:45Z</time></trkpt>
<trkpt lat="46.22224409" lon="6.10759964"><ele></ele><time>2014-10-8T11:37:48Z</time></trkpt>
<trkpt lat="46.22224133" lon="6.10759897"><ele></ele><time>2014-10-8T11:37:51Z</time></trkpt>
<trkpt lat="46.22224485" lon="6.10760216"><ele></ele><time>2014-10-8T11:37:54Z</time></trkpt>
<trkpt lat="46.22224585" lon="6.10760299"><ele></ele><time>2014-10-8T11:37:57Z</time></trkpt>
<trkpt lat="46.22224862" lon="6.10760417"><ele></ele><time>2014-10-8T11:38:0Z</time></trkpt>
<trkpt lat="46.22224568" lon="6.10760207"><ele></ele><time>2014-10-8T11:38:3Z</time></trkpt>
<trkpt lat="46.22224468" lon="6.10760006"><ele></ele><time>2014-10-8T11:38:6Z</time></trkpt>
<trkpt lat="46.22225499" lon="6.10760962"><ele></ele><time>2014-10-8T11:38:9Z</time></trkpt>
<trkpt lat="46.22227418" lon="6.10762613"><ele></ele><time>2014-10-8T11:38:12Z</time></trkpt>
<trkpt lat="46.22228466" lon="6.10763426"><ele></ele><time>2014-10-8T11:38:15Z</time></trkpt>
<trkpt lat="46.22228919" lon="6.10763912"><ele></ele><time>2014-10-8T11:38:18Z</time></trkpt>
<trkpt lat="46.22229648" lon="6.10764390"><ele></ele><time>2014-10-8T11:38:21Z</time></trkpt>
<trkpt lat="46.22230184" lon="6.10764809"><ele></ele><time>2014-10-8T11:38:24Z</time></trkpt>
<trkpt lat="46.22229572" lon="6.10764247"><ele></ele><time>2014-10-8T11:38:27Z</time></trkpt>
<trkpt lat="46.22229715" lon="6.10764348"><ele></ele><time>2014-10-8T11:38:30Z</time></trkpt>
<trkpt lat="46.22229807" lon="6.10764432"><ele></ele><time>2014-10-8T11:38:33Z</time></trkpt>
<trkpt lat="46.22230243" lon="6.10765228"><ele></ele><time>2014-10-8T11:38:36Z</time></trkpt>
<trkpt lat="46.22230704" lon="6.10765706"><ele></ele><time>2014-10-8T11:38:39Z</time></trkpt>
<trkpt lat="46.22231802" lon="6.10766628"><ele></ele><time>2014-10-8T11:38:42Z</time></trkpt>
<trkpt lat="46.22232942" lon="6.10767592"><ele></ele><time>2014-10-8T11:38:45Z</time></trkpt>
<trkpt lat="46.22233252" lon="6.10767927"><ele></ele><time>2014-10-8T11:38:48Z</time></trkpt>
<trkpt lat="46.22233327" lon="6.10768178"><ele></ele><time>2014-10-8T11:38:51Z</time></trkpt>
<trkpt lat="46.22232682" lon="6.10767332"><ele></ele><time>2014-10-8T11:38:54Z</time></trkpt>
<trkpt lat="46.22232263" lon="6.10766544"><ele></ele><time>2014-10-8T11:38:57Z</time></trkpt>
<trkpt lat="46.22232154" lon="6.10766385"><ele></ele><time>2014-10-8T11:39:0Z</time></trkpt>
<trkpt lat="46.22231886" lon="6.10766117"><ele></ele><time>2014-10-8T11:39:3Z</time></trkpt>
<trkpt lat="46.22231936" lon="6.10766083"><ele></ele><time>2014-10-8T11:39:6Z</time></trkpt>
<trkpt lat="46.22232037" lon="6.10766058"><ele></ele><time>2014-10-8T11:39:9Z</time></trkpt>
<trkpt lat="46.22231727" lon="6.10765723"><ele></ele><time>2014-10-8T11:39:12Z</time></trkpt>
<trkpt lat="46.22231835" lon="6.10765848"><ele></ele><time>2014-10-8T11:39:15Z</time></trkpt>
<trkpt lat="46.22232288" lon="6.10766125"><ele></ele><time>2014-10-8T11:39:18Z</time></trkpt>
<trkpt lat="46.22232389" lon="6.10766033"><ele></ele><time>2014-10-8T11:39:21Z</time></trkpt>
<trkpt lat="46.22233302" lon="6.10767005"><ele></ele><time>2014-10-8T11:39:24Z</time></trkpt>
<trkpt lat="46.22234132" lon="6.10767986"><ele></ele><time>2014-10-8T11:39:27Z</time></trkpt>
<trkpt lat="46.22234258" lon="6.10768103"><ele></ele><time>2014-10-8T11:39:30Z</time></trkpt>
<trkpt lat="46.22234995" lon="6.10768933"><ele></ele><time>2014-10-8T11:39:33Z</time></trkpt>
<trkpt lat="46.22235666" lon="6.10769738"><ele></ele><time>2014-10-8T11:39:36Z</time></trkpt>
<trkpt lat="46.22235909" lon="6.10769838"><ele></ele><time>2014-10-8T11:39:39Z</time></trkpt>
<trkpt lat="46.22235498" lon="6.10769268"><ele></ele><time>2014-10-8T11:39:42Z</time></trkpt>
<trkpt lat="46.22235859" lon="6.10769570"><ele></ele><time>2014-10-8T11:39:45Z</time></trkpt>
<trkpt lat="46.22235968" lon="6.10769545"><ele></ele><time>2014-10-8T11:39:48Z</time></trkpt>
<trkpt lat="46.22235884" lon="6.10769268"><ele></ele><time>2014-10-8T11:39:51Z</time></trkpt>
<trkpt lat="46.22235104" lon="6.10768782"><ele></ele><time>2014-10-8T11:39:54Z</time></trkpt>
<trkpt lat="46.22235063" lon="6.10769226"><ele></ele><time>2014-10-8T11:39:57Z</time></trkpt>
<trkpt lat="46.22234442" lon="6.10768732"><ele></ele><time>2014-10-8T11:40:0Z</time></trkpt>
<trkpt lat="46.22233344" lon="6.10767432"><ele></ele><time>2014-10-8T11:40:3Z</time></trkpt>
<trkpt lat="46.22234216" lon="6.10768354"><ele></ele><time>2014-10-8T11:40:6Z</time></trkpt>
<trkpt lat="46.22235213" lon="6.10769352"><ele></ele><time>2014-10-8T11:40:9Z</time></trkpt>
<trkpt lat="46.22236513" lon="6.10769972"><ele></ele><time>2014-10-8T11:40:12Z</time></trkpt>
<trkpt lat="46.22237083" lon="6.10770458"><ele></ele><time>2014-10-8T11:40:15Z</time></trkpt>
<trkpt lat="46.22237393" lon="6.10770416"><ele></ele><time>2014-10-8T11:40:18Z</time></trkpt>
<trkpt lat="46.22237468" lon="6.10770006"><ele></ele><time>2014-10-8T11:40:21Z</time></trkpt>
<trkpt lat="46.22237334" lon="6.10769369"><ele></ele><time>2014-10-8T11:40:24Z</time></trkpt>
<trkpt lat="46.22237292" lon="6.10768950"><ele></ele><time>2014-10-8T11:40:27Z</time></trkpt>
<trkpt lat="46.22236462" lon="6.10767935"><ele></ele><time>2014-10-8T11:40:30Z</time></trkpt>
<trkpt lat="46.22235565" lon="6.10766938"><ele></ele><time>2014-10-8T11:40:33Z</time></trkpt>
<trkpt lat="46.22234635" lon="6.10765865"><ele></ele><time>2014-10-8T11:40:36Z</time></trkpt>
<trkpt lat="46.22234384" lon="6.10765354"><ele></ele><time>2014-10-8T11:40:39Z</time></trkpt>
<trkpt lat="46.22234224" lon="6.10764884"><ele></ele><time>2014-10-8T11:40:42Z</time></trkpt>
<trkpt lat="46.22234434" lon="6.10764775"><ele></ele><time>2014-10-8T11:40:45Z</time></trkpt>
<trkpt lat="46.22234685" lon="6.10765035"><ele></ele><time>2014-10-8T11:40:48Z</time></trkpt>
<trkpt lat="46.22233646" lon="6.10764046"><ele></ele><time>2014-10-8T11:40:51Z</time></trkpt>
<trkpt lat="46.22233403" lon="6.10763795"><ele></ele><time>2014-10-8T11:40:54Z</time></trkpt>
<trkpt lat="46.22232028" lon="6.10762336"><ele></ele><time>2014-10-8T11:40:57Z</time></trkpt>
<trkpt lat="46.22231232" lon="6.10761917"><ele></ele><time>2014-10-8T11:41:0Z</time></trkpt>
<trkpt lat="46.22230997" lon="6.10761398"><ele></ele><time>2014-10-8T11:41:3Z</time></trkpt>
<trkpt lat="46.22230075" lon="6.10760660"><ele></ele><time>2014-10-8T11:41:6Z</time></trkpt>
<trkpt lat="46.22229639" lon="6.10760165"><ele></ele><time>2014-10-8T11:41:9Z</time></trkpt>
<trkpt lat="46.22229212" lon="6.10759704"><ele></ele><time>2014-10-8T11:41:12Z</time></trkpt>
<trkpt lat="46.22228776" lon="6.10759553"><ele></ele><time>2014-10-8T11:41:15Z</time></trkpt>
<trkpt lat="46.22228173" lon="6.10758916"><ele></ele><time>2014-10-8T11:41:18Z</time></trkpt>
<trkpt lat="46.22227720" lon="6.10758347"><ele></ele><time>2014-10-8T11:41:21Z</time></trkpt>
<trkpt lat="46.22226882" lon="6.10757433"><ele></ele><time>2014-10-8T11:41:24Z</time></trkpt>
<trkpt lat="46.22227066" lon="6.10757274"><ele></ele><time>2014-10-8T11:41:27Z</time></trkpt>
<trkpt lat="46.22227980" lon="6.10757852"><ele></ele><time>2014-10-8T11:41:30Z</time></trkpt>
<trkpt lat="46.22228223" lon="6.10757869"><ele></ele><time>2014-10-8T11:41:33Z</time></trkpt>
<trkpt lat="46.22228885" lon="6.10758238"><ele></ele><time>2014-10-8T11:41:36Z</time></trkpt>
<trkpt lat="46.22228625" lon="6.10757944"><ele></ele><time>2014-10-8T11:41:39Z</time></trkpt>
<trkpt lat="46.22228877" lon="6.10758497"><ele></ele><time>2014-10-8T11:41:42Z</time></trkpt>
<trkpt lat="46.22228256" lon="6.10757986"><ele></ele><time>2014-10-8T11:41:45Z</time></trkpt>
<trkpt lat="46.22227787" lon="6.10757927"><ele></ele><time>2014-10-8T11:41:48Z</time></trkpt>
<trkpt lat="46.22227862" lon="6.10758028"><ele></ele><time>2014-10-8T11:41:51Z</time></trkpt>
<trkpt lat="46.22228114" lon="6.10758162"><ele></ele><time>2014-10-8T11:41:54Z</time></trkpt>
<trkpt lat="46.22228265" lon="6.10758238"><ele></ele><time>2014-10-8T11:41:57Z</time></trkpt>
<trkpt lat="46.22228508" lon="6.10758196"><ele></ele><time>2014-10-8T11:42:0Z</time></trkpt>
<trkpt lat="46.22228826" lon="6.10758397"><ele></ele><time>2014-10-8T11:42:3Z</time></trkpt>
<trkpt lat="46.22229145" lon="6.10758900"><ele></ele><time>2014-10-8T11:42:6Z</time></trkpt>
<trkpt lat="46.22229296" lon="6.10759403"><ele></ele><time>2014-10-8T11:42:9Z</time></trkpt>
<trkpt lat="46.22229463" lon="6.10759989"><ele></ele><time>2014-10-8T11:42:12Z</time></trkpt>
<trkpt lat="46.22229237" lon="6.10759486"><ele></ele><time>2014-10-8T11:42:15Z</time></trkpt>
<trkpt lat="46.22228516" lon="6.10758967"><ele></ele><time>2014-10-8T11:42:18Z</time></trkpt>
<trkpt lat="46.22227033" lon="6.10757869"><ele></ele><time>2014-10-8T11:42:21Z</time></trkpt>
<trkpt lat="46.22226899" lon="6.10757768"><ele></ele><time>2014-10-8T11:42:24Z</time></trkpt>
<trkpt lat="46.22227024" lon="6.10757785"><ele></ele><time>2014-10-8T11:42:27Z</time></trkpt>
<trkpt lat="46.22227293" lon="6.10757760"><ele></ele><time>2014-10-8T11:42:30Z</time></trkpt>
<trkpt lat="46.22227653" lon="6.10758162"><ele></ele><time>2014-10-8T11:42:33Z</time></trkpt>
<trkpt lat="46.22227946" lon="6.10758397"><ele></ele><time>2014-10-8T11:42:36Z</time></trkpt>
<trkpt lat="46.22228139" lon="6.10758933"><ele></ele><time>2014-10-8T11:42:39Z</time></trkpt>
<trkpt lat="46.22226840" lon="6.10757886"><ele></ele><time>2014-10-8T11:42:42Z</time></trkpt>
<trkpt lat="46.22226915" lon="6.10757978"><ele></ele><time>2014-10-8T11:42:45Z</time></trkpt>
<trkpt lat="46.22225842" lon="6.10756888"><ele></ele><time>2014-10-8T11:42:48Z</time></trkpt>
<trkpt lat="46.22226287" lon="6.10757299"><ele></ele><time>2014-10-8T11:42:51Z</time></trkpt>
<trkpt lat="46.22225708" lon="6.10756754"><ele></ele><time>2014-10-8T11:42:54Z</time></trkpt>
<trkpt lat="46.22225398" lon="6.10756544"><ele></ele><time>2014-10-8T11:42:57Z</time></trkpt>
<trkpt lat="46.22224770" lon="6.10756184"><ele></ele><time>2014-10-8T11:43:0Z</time></trkpt>
<trkpt lat="46.22224686" lon="6.10755874"><ele></ele><time>2014-10-8T11:43:3Z</time></trkpt>
<trkpt lat="46.22224376" lon="6.10755622"><ele></ele><time>2014-10-8T11:43:6Z</time></trkpt>
<trkpt lat="46.22224116" lon="6.10755128"><ele></ele><time>2014-10-8T11:43:9Z</time></trkpt>
<trkpt lat="46.22224275" lon="6.10755245"><ele></ele><time>2014-10-8T11:43:12Z</time></trkpt>
<trkpt lat="46.22224493" lon="6.10755488"><ele></ele><time>2014-10-8T11:43:15Z</time></trkpt>
<trkpt lat="46.22224644" lon="6.10755438"><ele></ele><time>2014-10-8T11:43:18Z</time></trkpt>
<trkpt lat="46.22223898" lon="6.10754575"><ele></ele><time>2014-10-8T11:43:21Z</time></trkpt>
<trkpt lat="46.22223806" lon="6.10754348"><ele></ele><time>2014-10-8T11:43:24Z</time></trkpt>
<trkpt lat="46.22223093" lon="6.10753887"><ele></ele><time>2014-10-8T11:43:27Z</time></trkpt>
<trkpt lat="46.22222506" lon="6.10753359"><ele></ele><time>2014-10-8T11:43:30Z</time></trkpt>
<trkpt lat="46.22221869" lon="6.10753099"><ele></ele><time>2014-10-8T11:43:33Z</time></trkpt>
<trkpt lat="46.22221475" lon="6.10752923"><ele></ele><time>2014-10-8T11:43:36Z</time></trkpt>
<trkpt lat="46.22220964" lon="6.10752320"><ele></ele><time>2014-10-8T11:43:39Z</time></trkpt>
<trkpt lat="46.22220579" lon="6.10751993"><ele></ele><time>2014-10-8T11:43:42Z</time></trkpt>
<trkpt lat="46.22220780" lon="6.10751767"><ele></ele><time>2014-10-8T11:43:45Z</time></trkpt>
<trkpt lat="46.22221232" lon="6.10752328"><ele></ele><time>2014-10-8T11:43:48Z</time></trkpt>
<trkpt lat="46.22220679" lon="6.10752152"><ele></ele><time>2014-10-8T11:43:51Z</time></trkpt>
<trkpt lat="46.22220352" lon="6.10752270"><ele></ele><time>2014-10-8T11:43:54Z</time></trkpt>
<trkpt lat="46.22219782" lon="6.10751943"><ele></ele><time>2014-10-8T11:43:57Z</time></trkpt>
<trkpt lat="46.22219833" lon="6.10752169"><ele></ele><time>2014-10-8T11:44:0Z</time></trkpt>
<trkpt lat="46.22220386" lon="6.10752504"><ele></ele><time>2014-10-8T11:44:3Z</time></trkpt>
<trkpt lat="46.22220939" lon="6.10752580"><ele></ele><time>2014-10-8T11:44:6Z</time></trkpt>
<trkpt lat="46.22220679" lon="6.10753058"><ele></ele><time>2014-10-8T11:44:9Z</time></trkpt>
<trkpt lat="46.22220092" lon="6.10752429"><ele></ele><time>2014-10-8T11:44:12Z</time></trkpt>
<trkpt lat="46.22220218" lon="6.10752915"><ele></ele><time>2014-10-8T11:44:15Z</time></trkpt>
<trkpt lat="46.22220595" lon="6.10753736"><ele></ele><time>2014-10-8T11:44:18Z</time></trkpt>
<trkpt lat="46.22220553" lon="6.10753787"><ele></ele><time>2014-10-8T11:44:21Z</time></trkpt>
<trkpt lat="46.22221174" lon="6.10754575"><ele></ele><time>2014-10-8T11:44:24Z</time></trkpt>
<trkpt lat="46.22221459" lon="6.10754432"><ele></ele><time>2014-10-8T11:44:27Z</time></trkpt>
<trkpt lat="46.22221802" lon="6.10754893"><ele></ele><time>2014-10-8T11:44:30Z</time></trkpt>
<trkpt lat="46.22221802" lon="6.10755027"><ele></ele><time>2014-10-8T11:44:33Z</time></trkpt>
<trkpt lat="46.22221719" lon="6.10755069"><ele></ele><time>2014-10-8T11:44:36Z</time></trkpt>
<trkpt lat="46.22221559" lon="6.10754893"><ele></ele><time>2014-10-8T11:44:39Z</time></trkpt>
<trkpt lat="46.22221014" lon="6.10753644"><ele></ele><time>2014-10-8T11:44:42Z</time></trkpt>
<trkpt lat="46.22220780" lon="6.10752068"><ele></ele><time>2014-10-8T11:44:45Z</time></trkpt>
<trkpt lat="46.22220855" lon="6.10751163"><ele></ele><time>2014-10-8T11:44:48Z</time></trkpt>
<trkpt lat="46.22220646" lon="6.10751297"><ele></ele><time>2014-10-8T11:44:51Z</time></trkpt>
<trkpt lat="46.22220805" lon="6.10752949"><ele></ele><time>2014-10-8T11:44:54Z</time></trkpt>
<trkpt lat="46.22221065" lon="6.10753929"><ele></ele><time>2014-10-8T11:44:57Z</time></trkpt>
<trkpt lat="46.22221836" lon="6.10753963"><ele></ele><time>2014-10-8T11:45:0Z</time></trkpt>
<trkpt lat="46.22222984" lon="6.10754675"><ele></ele><time>2014-10-8T11:45:3Z</time></trkpt>
<trkpt lat="46.22222599" lon="6.10754365"><ele></ele><time>2014-10-8T11:45:6Z</time></trkpt>
<trkpt lat="46.22221509" lon="6.10753695"><ele></ele><time>2014-10-8T11:45:9Z</time></trkpt>
<trkpt lat="46.22221786" lon="6.10752337"><ele></ele><time>2014-10-8T11:45:12Z</time></trkpt>
<trkpt lat="46.22222188" lon="6.10750845"><ele></ele><time>2014-10-8T11:45:15Z</time></trkpt>
<trkpt lat="46.22222339" lon="6.10749353"><ele></ele><time>2014-10-8T11:45:18Z</time></trkpt>
<trkpt lat="46.22221953" lon="6.10747525"><ele></ele><time>2014-10-8T11:45:21Z</time></trkpt>
<trkpt lat="46.22222180" lon="6.10746126"><ele></ele><time>2014-10-8T11:45:24Z</time></trkpt>
<trkpt lat="46.22222004" lon="6.10744298"><ele></ele><time>2014-10-8T11:45:27Z</time></trkpt>
<trkpt lat="46.22220646" lon="6.10743938"><ele></ele><time>2014-10-8T11:45:30Z</time></trkpt>
<trkpt lat="46.22219849" lon="6.10743779"><ele></ele><time>2014-10-8T11:45:33Z</time></trkpt>
<trkpt lat="46.22219807" lon="6.10743904"><ele></ele><time>2014-10-8T11:45:36Z</time></trkpt>
<trkpt lat="46.22220612" lon="6.10744324"><ele></ele><time>2014-10-8T11:45:39Z</time></trkpt>
<trkpt lat="46.22220805" lon="6.10744500"><ele></ele><time>2014-10-8T11:45:42Z</time></trkpt>
<trkpt lat="46.22220520" lon="6.10744676"><ele></ele><time>2014-10-8T11:45:45Z</time></trkpt>
<trkpt lat="46.22220302" lon="6.10745514"><ele></ele><time>2014-10-8T11:45:48Z</time></trkpt>
<trkpt lat="46.22220210" lon="6.10745799"><ele></ele><time>2014-10-8T11:45:51Z</time></trkpt>
<trkpt lat="46.22219707" lon="6.10746218"><ele></ele><time>2014-10-8T11:45:54Z</time></trkpt>
<trkpt lat="46.22219782" lon="6.10745329"><ele></ele><time>2014-10-8T11:45:57Z</time></trkpt>
<trkpt lat="46.22220185" lon="6.10746042"><ele></ele><time>2014-10-8T11:46:0Z</time></trkpt>
<trkpt lat="46.22220042" lon="6.10746402"><ele></ele><time>2014-10-8T11:46:3Z</time></trkpt>
<trkpt lat="46.22220126" lon="6.10746847"><ele></ele><time>2014-10-8T11:46:6Z</time></trkpt>
<trkpt lat="46.22220889" lon="6.10749110"><ele></ele><time>2014-10-8T11:46:9Z</time></trkpt>
<trkpt lat="46.22221626" lon="6.10750878"><ele></ele><time>2014-10-8T11:46:12Z</time></trkpt>
<trkpt lat="46.22221123" lon="6.10752504"><ele></ele><time>2014-10-8T11:46:15Z</time></trkpt>
<trkpt lat="46.22220453" lon="6.10753267"><ele></ele><time>2014-10-8T11:46:18Z</time></trkpt>
<trkpt lat="46.22220218" lon="6.10753980"><ele></ele><time>2014-10-8T11:46:21Z</time></trkpt>
<trkpt lat="46.22220168" lon="6.10757165"><ele></ele><time>2014-10-8T11:46:24Z</time></trkpt>
<trkpt lat="46.22219749" lon="6.10760526"><ele></ele><time>2014-10-8T11:46:27Z</time></trkpt>
<trkpt lat="46.22220160" lon="6.10760434"><ele></ele><time>2014-10-8T11:46:30Z</time></trkpt>
<trkpt lat="46.22220562" lon="6.10759738"><ele></ele><time>2014-10-8T11:46:33Z</time></trkpt>
<trkpt lat="46.22219849" lon="6.10757936"><ele></ele><time>2014-10-8T11:46:36Z</time></trkpt>
<trkpt lat="46.22219640" lon="6.10757567"><ele></ele><time>2014-10-8T11:46:39Z</time></trkpt>
<trkpt lat="46.22219774" lon="6.10757056"><ele></ele><time>2014-10-8T11:46:42Z</time></trkpt>
<trkpt lat="46.22219179" lon="6.10755078"><ele></ele><time>2014-10-8T11:46:45Z</time></trkpt>
<trkpt lat="46.22219506" lon="6.10751306"><ele></ele><time>2014-10-8T11:46:48Z</time></trkpt>
<trkpt lat="46.22220336" lon="6.10749420"><ele></ele><time>2014-10-8T11:46:51Z</time></trkpt>
<trkpt lat="46.22219757" lon="6.10746025"><ele></ele><time>2014-10-8T11:46:54Z</time></trkpt>
<trkpt lat="46.22220017" lon="6.10742999"><ele></ele><time>2014-10-8T11:46:57Z</time></trkpt>
<trkpt lat="46.22219782" lon="6.10740602"><ele></ele><time>2014-10-8T11:47:0Z</time></trkpt>
<trkpt lat="46.22219757" lon="6.10739328"><ele></ele><time>2014-10-8T11:47:3Z</time></trkpt>
<trkpt lat="46.22219833" lon="6.10738817"><ele></ele><time>2014-10-8T11:47:6Z</time></trkpt>
<trkpt lat="46.22219145" lon="6.10736688"><ele></ele><time>2014-10-8T11:47:9Z</time></trkpt>
<trkpt lat="46.22218198" lon="6.10734114"><ele></ele><time>2014-10-8T11:47:12Z</time></trkpt>
<trkpt lat="46.22215692" lon="6.10731357"><ele></ele><time>2014-10-8T11:47:15Z</time></trkpt>
<trkpt lat="46.22212708" lon="6.10728197"><ele></ele><time>2014-10-8T11:47:18Z</time></trkpt>
<trkpt lat="46.22209816" lon="6.10724593"><ele></ele><time>2014-10-8T11:47:21Z</time></trkpt>
<trkpt lat="46.22206028" lon="6.10720008"><ele></ele><time>2014-10-8T11:47:24Z</time></trkpt>
<trkpt lat="46.22203035" lon="6.10715146"><ele></ele><time>2014-10-8T11:47:27Z</time></trkpt>
<trkpt lat="46.22201107" lon="6.10710628"><ele></ele><time>2014-10-8T11:47:30Z</time></trkpt>
<trkpt lat="46.22195458" lon="6.10705758"><ele></ele><time>2014-10-8T11:47:33Z</time></trkpt>
<trkpt lat="46.22192726" lon="6.10701936"><ele></ele><time>2014-10-8T11:47:36Z</time></trkpt>
<trkpt lat="46.22189825" lon="6.10697896"><ele></ele><time>2014-10-8T11:47:39Z</time></trkpt>
<trkpt lat="46.22186732" lon="6.10694233"><ele></ele><time>2014-10-8T11:47:42Z</time></trkpt>
<trkpt lat="46.22184168" lon="6.10691065"><ele></ele><time>2014-10-8T11:47:45Z</time></trkpt>
<trkpt lat="46.22181762" lon="6.10688508"><ele></ele><time>2014-10-8T11:47:48Z</time></trkpt>
<trkpt lat="46.22180329" lon="6.10686966"><ele></ele><time>2014-10-8T11:47:51Z</time></trkpt>
<trkpt lat="46.22179105" lon="6.10685533"><ele></ele><time>2014-10-8T11:47:54Z</time></trkpt>
<trkpt lat="46.22177236" lon="6.10684108"><ele></ele><time>2014-10-8T11:47:57Z</time></trkpt>
<trkpt lat="46.22174822" lon="6.10681979"><ele></ele><time>2014-10-8T11:48:0Z</time></trkpt>
<trkpt lat="46.22172483" lon="6.10678886"><ele></ele><time>2014-10-8T11:48:3Z</time></trkpt>
<trkpt lat="46.22170555" lon="6.10675424"><ele></ele><time>2014-10-8T11:48:6Z</time></trkpt>
<trkpt lat="46.22168535" lon="6.10672155"><ele></ele><time>2014-10-8T11:48:9Z</time></trkpt>
<trkpt lat="46.22166188" lon="6.10669222"><ele></ele><time>2014-10-8T11:48:12Z</time></trkpt>
<trkpt lat="46.22164034" lon="6.10667386"><ele></ele><time>2014-10-8T11:48:15Z</time></trkpt>
<trkpt lat="46.22162157" lon="6.10667638"><ele></ele><time>2014-10-8T11:48:18Z</time></trkpt>
<trkpt lat="46.22159768" lon="6.10669415"><ele></ele><time>2014-10-8T11:48:21Z</time></trkpt>
<trkpt lat="46.22157304" lon="6.10671460"><ele></ele><time>2014-10-8T11:48:24Z</time></trkpt>
<trkpt lat="46.22155644" lon="6.10674175"><ele></ele><time>2014-10-8T11:48:27Z</time></trkpt>
<trkpt lat="46.22154085" lon="6.10676908"><ele></ele><time>2014-10-8T11:48:30Z</time></trkpt>
<trkpt lat="46.22152325" lon="6.10679188"><ele></ele><time>2014-10-8T11:48:33Z</time></trkpt>
<trkpt lat="46.22150908" lon="6.10681325"><ele></ele><time>2014-10-8T11:48:36Z</time></trkpt>
<trkpt lat="46.22149425" lon="6.10683253"><ele></ele><time>2014-10-8T11:48:39Z</time></trkpt>
<trkpt lat="46.22148385" lon="6.10685273"><ele></ele><time>2014-10-8T11:48:42Z</time></trkpt>
<trkpt lat="46.22147446" lon="6.10687369"><ele></ele><time>2014-10-8T11:48:45Z</time></trkpt>
<trkpt lat="46.22146499" lon="6.10689598"><ele></ele><time>2014-10-8T11:48:48Z</time></trkpt>
<trkpt lat="46.22145385" lon="6.10692037"><ele></ele><time>2014-10-8T11:48:51Z</time></trkpt>
<trkpt lat="46.22144287" lon="6.10695013"><ele></ele><time>2014-10-8T11:48:54Z</time></trkpt>
<trkpt lat="46.22142929" lon="6.10698533"><ele></ele><time>2014-10-8T11:48:57Z</time></trkpt>
<trkpt lat="46.22141596" lon="6.10702498"><ele></ele><time>2014-10-8T11:49:0Z</time></trkpt>
<trkpt lat="46.22139878" lon="6.10706563"><ele></ele><time>2014-10-8T11:49:3Z</time></trkpt>
<trkpt lat="46.22138243" lon="6.10710754"><ele></ele><time>2014-10-8T11:49:6Z</time></trkpt>
<trkpt lat="46.22136634" lon="6.10714685"><ele></ele><time>2014-10-8T11:49:9Z</time></trkpt>
<trkpt lat="46.22134966" lon="6.10718323"><ele></ele><time>2014-10-8T11:49:12Z</time></trkpt>
<trkpt lat="46.22133357" lon="6.10721936"><ele></ele><time>2014-10-8T11:49:15Z</time></trkpt>
<trkpt lat="46.22131890" lon="6.10725649"><ele></ele><time>2014-10-8T11:49:18Z</time></trkpt>
<trkpt lat="46.22130440" lon="6.10729337"><ele></ele><time>2014-10-8T11:49:21Z</time></trkpt>
<trkpt lat="46.22128797" lon="6.10733268"><ele></ele><time>2014-10-8T11:49:24Z</time></trkpt>
<trkpt lat="46.22127280" lon="6.10738356"><ele></ele><time>2014-10-8T11:49:27Z</time></trkpt>
<trkpt lat="46.22125218" lon="6.10744265"><ele></ele><time>2014-10-8T11:49:30Z</time></trkpt>
<trkpt lat="46.22122108" lon="6.10750912"><ele></ele><time>2014-10-8T11:49:33Z</time></trkpt>
<trkpt lat="46.22118479" lon="6.10757953"><ele></ele><time>2014-10-8T11:49:36Z</time></trkpt>
<trkpt lat="46.22114313" lon="6.10765404"><ele></ele><time>2014-10-8T11:49:39Z</time></trkpt>
<trkpt lat="46.22110114" lon="6.10773954"><ele></ele><time>2014-10-8T11:49:42Z</time></trkpt>
<trkpt lat="46.22105042" lon="6.10781807"><ele></ele><time>2014-10-8T11:49:45Z</time></trkpt>
<trkpt lat="46.22099494" lon="6.10788815"><ele></ele><time>2014-10-8T11:49:48Z</time></trkpt>
<trkpt lat="46.22093375" lon="6.10794053"><ele></ele><time>2014-10-8T11:49:51Z</time></trkpt>
<trkpt lat="46.22089385" lon="6.10799787"><ele></ele><time>2014-10-8T11:49:54Z</time></trkpt>
<trkpt lat="46.22087834" lon="6.10805788"><ele></ele><time>2014-10-8T11:49:57Z</time></trkpt>
<trkpt lat="46.22086996" lon="6.10811002"><ele></ele><time>2014-10-8T11:50:0Z</time></trkpt>
<trkpt lat="46.22091489" lon="6.10809962"><ele></ele><time>2014-10-8T11:50:3Z</time></trkpt>
<trkpt lat="46.22095873" lon="6.10799585"><ele></ele><time>2014-10-8T11:50:6Z</time></trkpt>
<trkpt lat="46.22089905" lon="6.10780617"><ele></ele><time>2014-10-8T11:50:9Z</time></trkpt>
<trkpt lat="46.22080467" lon="6.10761523"><ele></ele><time>2014-10-8T11:50:12Z</time></trkpt>
<trkpt lat="46.22074214" lon="6.10749453"><ele></ele><time>2014-10-8T11:50:15Z</time></trkpt>
<trkpt lat="46.22070325" lon="6.10736805"><ele></ele><time>2014-10-8T11:50:18Z</time></trkpt>
<trkpt lat="46.22062798" lon="6.10719706"><ele></ele><time>2014-10-8T11:50:21Z</time></trkpt>
<trkpt lat="46.22061138" lon="6.10707644"><ele></ele><time>2014-10-8T11:50:24Z</time></trkpt>
<trkpt lat="46.22062379" lon="6.10696798"><ele></ele><time>2014-10-8T11:50:27Z</time></trkpt>
<trkpt lat="46.22059395" lon="6.10687603"><ele></ele><time>2014-10-8T11:50:30Z</time></trkpt>
<trkpt lat="46.22063460" lon="6.10682247"><ele></ele><time>2014-10-8T11:50:33Z</time></trkpt>
<trkpt lat="46.22057986" lon="6.10676313"><ele></ele><time>2014-10-8T11:50:36Z</time></trkpt>
<trkpt lat="46.22051046" lon="6.10670982"><ele></ele><time>2014-10-8T11:50:39Z</time></trkpt>
<trkpt lat="46.22044374" lon="6.10667353"><ele></ele><time>2014-10-8T11:50:42Z</time></trkpt>
<trkpt lat="46.22039454" lon="6.10664788"><ele></ele><time>2014-10-8T11:50:45Z</time></trkpt>
<trkpt lat="46.22033402" lon="6.10661670"><ele></ele><time>2014-10-8T11:50:48Z</time></trkpt>
<trkpt lat="46.22026546" lon="6.10658132"><ele></ele><time>2014-10-8T11:50:51Z</time></trkpt>
<trkpt lat="46.22020092" lon="6.10654805"><ele></ele><time>2014-10-8T11:50:54Z</time></trkpt>
<trkpt lat="46.22014040" lon="6.10651687"><ele></ele><time>2014-10-8T11:50:57Z</time></trkpt>
<trkpt lat="46.22010277" lon="6.10662458"><ele></ele><time>2014-10-8T11:51:0Z</time></trkpt>
<trkpt lat="46.22009573" lon="6.10653028"><ele></ele><time>2014-10-8T11:51:3Z</time></trkpt>
<trkpt lat="46.22001735" lon="6.10642182"><ele></ele><time>2014-10-8T11:51:6Z</time></trkpt>
<trkpt lat="46.21995105" lon="6.10634546"><ele></ele><time>2014-10-8T11:51:9Z</time></trkpt>
<trkpt lat="46.21988735" lon="6.10628637"><ele></ele><time>2014-10-8T11:51:12Z</time></trkpt>
<trkpt lat="46.21988098" lon="6.10622928"><ele></ele><time>2014-10-8T11:51:15Z</time></trkpt>
<trkpt lat="46.21988408" lon="6.10619073"><ele></ele><time>2014-10-8T11:51:18Z</time></trkpt>
<trkpt lat="46.21988953" lon="6.10616433"><ele></ele><time>2014-10-8T11:51:21Z</time></trkpt>
<trkpt lat="46.21991392" lon="6.10612954"><ele></ele><time>2014-10-8T11:51:24Z</time></trkpt>
<trkpt lat="46.21995566" lon="6.10608654"><ele></ele><time>2014-10-8T11:51:27Z</time></trkpt>
<trkpt lat="46.21998902" lon="6.10605469"><ele></ele><time>2014-10-8T11:51:30Z</time></trkpt>
<trkpt lat="46.22002113" lon="6.10601546"><ele></ele><time>2014-10-8T11:51:33Z</time></trkpt>
<trkpt lat="46.22006178" lon="6.10597632"><ele></ele><time>2014-10-8T11:51:36Z</time></trkpt>
<trkpt lat="46.22009564" lon="6.10593827"><ele></ele><time>2014-10-8T11:51:39Z</time></trkpt>
<trkpt lat="46.22013990" lon="6.10590977"><ele></ele><time>2014-10-8T11:51:42Z</time></trkpt>
<trkpt lat="46.22017544" lon="6.10588286"><ele></ele><time>2014-10-8T11:51:45Z</time></trkpt>
<trkpt lat="46.22021232" lon="6.10584539"><ele></ele><time>2014-10-8T11:51:48Z</time></trkpt>
<trkpt lat="46.22025699" lon="6.10580566"><ele></ele><time>2014-10-8T11:51:51Z</time></trkpt>
<trkpt lat="46.22030427" lon="6.10576250"><ele></ele><time>2014-10-8T11:51:54Z</time></trkpt>
<trkpt lat="46.22035448" lon="6.10569796"><ele></ele><time>2014-10-8T11:51:57Z</time></trkpt>
<trkpt lat="46.22039714" lon="6.10562420"><ele></ele><time>2014-10-8T11:52:0Z</time></trkpt>
<trkpt lat="46.22044357" lon="6.10555270"><ele></ele><time>2014-10-8T11:52:3Z</time></trkpt>
<trkpt lat="46.22047626" lon="6.10547064"><ele></ele><time>2014-10-8T11:52:6Z</time></trkpt>
<trkpt lat="46.22051507" lon="6.10540526"><ele></ele><time>2014-10-8T11:52:9Z</time></trkpt>
<trkpt lat="46.22057308" lon="6.10531038"><ele></ele><time>2014-10-8T11:52:12Z</time></trkpt>
<trkpt lat="46.22062068" lon="6.10523812"><ele></ele><time>2014-10-8T11:52:15Z</time></trkpt>
<trkpt lat="46.22066519" lon="6.10515875"><ele></ele><time>2014-10-8T11:52:18Z</time></trkpt>
<trkpt lat="46.22071364" lon="6.10509102"><ele></ele><time>2014-10-8T11:52:21Z</time></trkpt>
<trkpt lat="46.22076678" lon="6.10501844"><ele></ele><time>2014-10-8T11:52:24Z</time></trkpt>
<trkpt lat="46.22081682" lon="6.10493168"><ele></ele><time>2014-10-8T11:52:27Z</time></trkpt>
<trkpt lat="46.22084213" lon="6.10482926"><ele></ele><time>2014-10-8T11:52:30Z</time></trkpt>
<trkpt lat="46.22087105" lon="6.10473848"><ele></ele><time>2014-10-8T11:52:33Z</time></trkpt>
<trkpt lat="46.22084012" lon="6.10464184"><ele></ele><time>2014-10-8T11:52:36Z</time></trkpt>
<trkpt lat="46.22079469" lon="6.10455433"><ele></ele><time>2014-10-8T11:52:39Z</time></trkpt>
<trkpt lat="46.22075706" lon="6.10447495"><ele></ele><time>2014-10-8T11:52:42Z</time></trkpt>
<trkpt lat="46.22072982" lon="6.10440597"><ele></ele><time>2014-10-8T11:52:45Z</time></trkpt>
<trkpt lat="46.22071825" lon="6.10434470"><ele></ele><time>2014-10-8T11:52:48Z</time></trkpt>
<trkpt lat="46.22070677" lon="6.10429516"><ele></ele><time>2014-10-8T11:52:51Z</time></trkpt>
<trkpt lat="46.22070040" lon="6.10424378"><ele></ele><time>2014-10-8T11:52:54Z</time></trkpt>
<trkpt lat="46.22070132" lon="6.10419508"><ele></ele><time>2014-10-8T11:52:57Z</time></trkpt>
<trkpt lat="46.22069989" lon="6.10414596"><ele></ele><time>2014-10-8T11:53:0Z</time></trkpt>
<trkpt lat="46.22067408" lon="6.10410422"><ele></ele><time>2014-10-8T11:53:3Z</time></trkpt>
<trkpt lat="46.22063158" lon="6.10407664"><ele></ele><time>2014-10-8T11:53:6Z</time></trkpt>
<trkpt lat="46.22057207" lon="6.10405443"><ele></ele><time>2014-10-8T11:53:9Z</time></trkpt>
<trkpt lat="46.22054759" lon="6.10404513"><ele></ele><time>2014-10-8T11:53:12Z</time></trkpt>
<trkpt lat="46.22049269" lon="6.10400883"><ele></ele><time>2014-10-8T11:53:15Z</time></trkpt>
<trkpt lat="46.22042983" lon="6.10395603"><ele></ele><time>2014-10-8T11:53:18Z</time></trkpt>
<trkpt lat="46.22037618" lon="6.10390238"><ele></ele><time>2014-10-8T11:53:21Z</time></trkpt>
<trkpt lat="46.22031910" lon="6.10384497"><ele></ele><time>2014-10-8T11:53:24Z</time></trkpt>
<trkpt lat="46.22026873" lon="6.10379434"><ele></ele><time>2014-10-8T11:53:27Z</time></trkpt>
<trkpt lat="46.22020829" lon="6.10373366"><ele></ele><time>2014-10-8T11:53:30Z</time></trkpt>
<trkpt lat="46.22015800" lon="6.10368303"><ele></ele><time>2014-10-8T11:53:33Z</time></trkpt>
<trkpt lat="46.22013135" lon="6.10369158"><ele></ele><time>2014-10-8T11:53:36Z</time></trkpt>
<trkpt lat="46.22009858" lon="6.10363274"><ele></ele><time>2014-10-8T11:53:39Z</time></trkpt>
<trkpt lat="46.22005013" lon="6.10358127"><ele></ele><time>2014-10-8T11:53:42Z</time></trkpt>
<trkpt lat="46.21999606" lon="6.10353014"><ele></ele><time>2014-10-8T11:53:45Z</time></trkpt>
<trkpt lat="46.21994083" lon="6.10348195"><ele></ele><time>2014-10-8T11:53:48Z</time></trkpt>
<trkpt lat="46.21989079" lon="6.10343903"><ele></ele><time>2014-10-8T11:53:51Z</time></trkpt>
<trkpt lat="46.21983605" lon="6.10339955"><ele></ele><time>2014-10-8T11:53:54Z</time></trkpt>
<trkpt lat="46.21977864" lon="6.10335907"><ele></ele><time>2014-10-8T11:53:57Z</time></trkpt>
<trkpt lat="46.21972466" lon="6.10332185"><ele></ele><time>2014-10-8T11:54:0Z</time></trkpt>
<trkpt lat="46.21966808" lon="6.10328564"><ele></ele><time>2014-10-8T11:54:3Z</time></trkpt>
<trkpt lat="46.21961620" lon="6.10325078"><ele></ele><time>2014-10-8T11:54:6Z</time></trkpt>
<trkpt lat="46.21956272" lon="6.10321255"><ele></ele><time>2014-10-8T11:54:9Z</time></trkpt>
<trkpt lat="46.21950782" lon="6.10317023"><ele></ele><time>2014-10-8T11:54:12Z</time></trkpt>
<trkpt lat="46.21945376" lon="6.10312069"><ele></ele><time>2014-10-8T11:54:15Z</time></trkpt>
<trkpt lat="46.21940405" lon="6.10306118"><ele></ele><time>2014-10-8T11:54:18Z</time></trkpt>
<trkpt lat="46.21935518" lon="6.10299697"><ele></ele><time>2014-10-8T11:54:21Z</time></trkpt>
<trkpt lat="46.21930255" lon="6.10294073"><ele></ele><time>2014-10-8T11:54:24Z</time></trkpt>
<trkpt lat="46.21924396" lon="6.10289304"><ele></ele><time>2014-10-8T11:54:27Z</time></trkpt>
<trkpt lat="46.21918218" lon="6.10284794"><ele></ele><time>2014-10-8T11:54:30Z</time></trkpt>
<trkpt lat="46.21911932" lon="6.10280318"><ele></ele><time>2014-10-8T11:54:33Z</time></trkpt>
<trkpt lat="46.21905595" lon="6.10275825"><ele></ele><time>2014-10-8T11:54:36Z</time></trkpt>
<trkpt lat="46.21899133" lon="6.10271207"><ele></ele><time>2014-10-8T11:54:39Z</time></trkpt>
<trkpt lat="46.21892494" lon="6.10266563"><ele></ele><time>2014-10-8T11:54:42Z</time></trkpt>
<trkpt lat="46.21885663" lon="6.10262155"><ele></ele><time>2014-10-8T11:54:45Z</time></trkpt>
<trkpt lat="46.21878396" lon="6.10258173"><ele></ele><time>2014-10-8T11:54:48Z</time></trkpt>
<trkpt lat="46.21870869" lon="6.10255064"><ele></ele><time>2014-10-8T11:54:51Z</time></trkpt>
<trkpt lat="46.21863082" lon="6.10253094"><ele></ele><time>2014-10-8T11:54:54Z</time></trkpt>
<trkpt lat="46.21855094" lon="6.10252457"><ele></ele><time>2014-10-8T11:54:57Z</time></trkpt>
<trkpt lat="46.21847014" lon="6.10252976"><ele></ele><time>2014-10-8T11:55:0Z</time></trkpt>
<trkpt lat="46.21838925" lon="6.10255307"><ele></ele><time>2014-10-8T11:55:3Z</time></trkpt>
<trkpt lat="46.21831373" lon="6.10259648"><ele></ele><time>2014-10-8T11:55:6Z</time></trkpt>
<trkpt lat="46.21824316" lon="6.10265088"><ele></ele><time>2014-10-8T11:55:9Z</time></trkpt>
<trkpt lat="46.21817778" lon="6.10270922"><ele></ele><time>2014-10-8T11:55:12Z</time></trkpt>
<trkpt lat="46.21811450" lon="6.10277116"><ele></ele><time>2014-10-8T11:55:15Z</time></trkpt>
<trkpt lat="46.21805314" lon="6.10283763"><ele></ele><time>2014-10-8T11:55:18Z</time></trkpt>
<trkpt lat="46.21799296" lon="6.10290527"><ele></ele><time>2014-10-8T11:55:21Z</time></trkpt>
<trkpt lat="46.21793428" lon="6.10297208"><ele></ele><time>2014-10-8T11:55:24Z</time></trkpt>
<trkpt lat="46.21787553" lon="6.10303477"><ele></ele><time>2014-10-8T11:55:27Z</time></trkpt>
<trkpt lat="46.21781727" lon="6.10309529"><ele></ele><time>2014-10-8T11:55:30Z</time></trkpt>
<trkpt lat="46.21776070" lon="6.10315707"><ele></ele><time>2014-10-8T11:55:33Z</time></trkpt>
<trkpt lat="46.21770462" lon="6.10321918"><ele></ele><time>2014-10-8T11:55:36Z</time></trkpt>
<trkpt lat="46.21764855" lon="6.10328129"><ele></ele><time>2014-10-8T11:55:39Z</time></trkpt>
<trkpt lat="46.21759239" lon="6.10334356"><ele></ele><time>2014-10-8T11:55:42Z</time></trkpt>
<trkpt lat="46.21753539" lon="6.10340483"><ele></ele><time>2014-10-8T11:55:45Z</time></trkpt>
<trkpt lat="46.21747755" lon="6.10346527"><ele></ele><time>2014-10-8T11:55:48Z</time></trkpt>
<trkpt lat="46.21742056" lon="6.10352763"><ele></ele><time>2014-10-8T11:55:51Z</time></trkpt>
<trkpt lat="46.21736473" lon="6.10358907"><ele></ele><time>2014-10-8T11:55:54Z</time></trkpt>
<trkpt lat="46.21730849" lon="6.10364900"><ele></ele><time>2014-10-8T11:55:57Z</time></trkpt>
<trkpt lat="46.21725225" lon="6.10370868"><ele></ele><time>2014-10-8T11:56:0Z</time></trkpt>
<trkpt lat="46.21719575" lon="6.10376752"><ele></ele><time>2014-10-8T11:56:3Z</time></trkpt>
<trkpt lat="46.21713934" lon="6.10382795"><ele></ele><time>2014-10-8T11:56:6Z</time></trkpt>
<trkpt lat="46.21708067" lon="6.10388587"><ele></ele><time>2014-10-8T11:56:9Z</time></trkpt>
<trkpt lat="46.21702074" lon="6.10394220"><ele></ele><time>2014-10-8T11:56:12Z</time></trkpt>
<trkpt lat="46.21696140" lon="6.10400112"><ele></ele><time>2014-10-8T11:56:15Z</time></trkpt>
<trkpt lat="46.21690557" lon="6.10406147"><ele></ele><time>2014-10-8T11:56:18Z</time></trkpt>
<trkpt lat="46.21685503" lon="6.10412107"><ele></ele><time>2014-10-8T11:56:21Z</time></trkpt>
<trkpt lat="46.21680256" lon="6.10418368"><ele></ele><time>2014-10-8T11:56:24Z</time></trkpt>
<trkpt lat="46.21674665" lon="6.10424688"><ele></ele><time>2014-10-8T11:56:27Z</time></trkpt>
<trkpt lat="46.21669267" lon="6.10430958"><ele></ele><time>2014-10-8T11:56:30Z</time></trkpt>
<trkpt lat="46.21663777" lon="6.10436892"><ele></ele><time>2014-10-8T11:56:33Z</time></trkpt>
<trkpt lat="46.21658304" lon="6.10442827"><ele></ele><time>2014-10-8T11:56:36Z</time></trkpt>
<trkpt lat="46.21652923" lon="6.10448694"><ele></ele><time>2014-10-8T11:56:39Z</time></trkpt>
<trkpt lat="46.21647877" lon="6.10454796"><ele></ele><time>2014-10-8T11:56:42Z</time></trkpt>
<trkpt lat="46.21642604" lon="6.10460546"><ele></ele><time>2014-10-8T11:56:45Z</time></trkpt>
<trkpt lat="46.21637207" lon="6.10466195"><ele></ele><time>2014-10-8T11:56:48Z</time></trkpt>
<trkpt lat="46.21631758" lon="6.10471912"><ele></ele><time>2014-10-8T11:56:51Z</time></trkpt>
<trkpt lat="46.21626385" lon="6.10477880"><ele></ele><time>2014-10-8T11:56:54Z</time></trkpt>
<trkpt lat="46.21619998" lon="6.10481744"><ele></ele><time>2014-10-8T11:56:57Z</time></trkpt>
<trkpt lat="46.21617023" lon="6.10487209"><ele></ele><time>2014-10-8T11:57:0Z</time></trkpt>
<trkpt lat="46.21611348" lon="6.10492045"><ele></ele><time>2014-10-8T11:57:3Z</time></trkpt>
<trkpt lat="46.21605288" lon="6.10496823"><ele></ele><time>2014-10-8T11:57:6Z</time></trkpt>
<trkpt lat="46.21599605" lon="6.10501584"><ele></ele><time>2014-10-8T11:57:9Z</time></trkpt>
<trkpt lat="46.21594492" lon="6.10506286"><ele></ele><time>2014-10-8T11:57:12Z</time></trkpt>
<trkpt lat="46.21589857" lon="6.10511097"><ele></ele><time>2014-10-8T11:57:15Z</time></trkpt>
<trkpt lat="46.21585398" lon="6.10515900"><ele></ele><time>2014-10-8T11:57:18Z</time></trkpt>
<trkpt lat="46.21581056" lon="6.10520686"><ele></ele><time>2014-10-8T11:57:21Z</time></trkpt>
<trkpt lat="46.21576807" lon="6.10525187"><ele></ele><time>2014-10-8T11:57:24Z</time></trkpt>
<trkpt lat="46.21572515" lon="6.10529445"><ele></ele><time>2014-10-8T11:57:27Z</time></trkpt>
<trkpt lat="46.21568919" lon="6.10533779"><ele></ele><time>2014-10-8T11:57:30Z</time></trkpt>
<trkpt lat="46.21565407" lon="6.10536352"><ele></ele><time>2014-10-8T11:57:33Z</time></trkpt>
<trkpt lat="46.21561929" lon="6.10537928"><ele></ele><time>2014-10-8T11:57:36Z</time></trkpt>
<trkpt lat="46.21559079" lon="6.10537165"><ele></ele><time>2014-10-8T11:57:39Z</time></trkpt>
<trkpt lat="46.21556313" lon="6.10533678"><ele></ele><time>2014-10-8T11:57:42Z</time></trkpt>
<trkpt lat="46.21553178" lon="6.10528246"><ele></ele><time>2014-10-8T11:57:45Z</time></trkpt>
<trkpt lat="46.21549976" lon="6.10521994"><ele></ele><time>2014-10-8T11:57:48Z</time></trkpt>
<trkpt lat="46.21546372" lon="6.10515154"><ele></ele><time>2014-10-8T11:57:51Z</time></trkpt>
<trkpt lat="46.21542382" lon="6.10507912"><ele></ele><time>2014-10-8T11:57:54Z</time></trkpt>
<trkpt lat="46.21538308" lon="6.10500452"><ele></ele><time>2014-10-8T11:57:57Z</time></trkpt>
<trkpt lat="46.21533967" lon="6.10492632"><ele></ele><time>2014-10-8T11:58:0Z</time></trkpt>
<trkpt lat="46.21529449" lon="6.10484845"><ele></ele><time>2014-10-8T11:58:3Z</time></trkpt>
<trkpt lat="46.21525375" lon="6.10478265"><ele></ele><time>2014-10-8T11:58:6Z</time></trkpt>
<trkpt lat="46.21522970" lon="6.10471275"><ele></ele><time>2014-10-8T11:58:9Z</time></trkpt>
<trkpt lat="46.21519005" lon="6.10463622"><ele></ele><time>2014-10-8T11:58:12Z</time></trkpt>
<trkpt lat="46.21514655" lon="6.10455249"><ele></ele><time>2014-10-8T11:58:15Z</time></trkpt>
<trkpt lat="46.21509072" lon="6.10448208"><ele></ele><time>2014-10-8T11:58:18Z</time></trkpt>
<trkpt lat="46.21504705" lon="6.10442324"><ele></ele><time>2014-10-8T11:58:21Z</time></trkpt>
<trkpt lat="46.21500095" lon="6.10437102"><ele></ele><time>2014-10-8T11:58:24Z</time></trkpt>
<trkpt lat="46.21495360" lon="6.10432274"><ele></ele><time>2014-10-8T11:58:27Z</time></trkpt>
<trkpt lat="46.21490817" lon="6.10427739"><ele></ele><time>2014-10-8T11:58:30Z</time></trkpt>
<trkpt lat="46.21485318" lon="6.10422794"><ele></ele><time>2014-10-8T11:58:33Z</time></trkpt>
<trkpt lat="46.21479727" lon="6.10417907"><ele></ele><time>2014-10-8T11:58:36Z</time></trkpt>
<trkpt lat="46.21474137" lon="6.10413062"><ele></ele><time>2014-10-8T11:58:39Z</time></trkpt>
<trkpt lat="46.21468772" lon="6.10408234"><ele></ele><time>2014-10-8T11:58:42Z</time></trkpt>
<trkpt lat="46.21463399" lon="6.10403465"><ele></ele><time>2014-10-8T11:58:45Z</time></trkpt>
<trkpt lat="46.21458127" lon="6.10398922"><ele></ele><time>2014-10-8T11:58:48Z</time></trkpt>
<trkpt lat="46.21452997" lon="6.10394714"><ele></ele><time>2014-10-8T11:58:51Z</time></trkpt>
<trkpt lat="46.21447667" lon="6.10389962"><ele></ele><time>2014-10-8T11:58:54Z</time></trkpt>
<trkpt lat="46.21442453" lon="6.10385042"><ele></ele><time>2014-10-8T11:58:57Z</time></trkpt>
<trkpt lat="46.21437457" lon="6.10379895"><ele></ele><time>2014-10-8T11:59:0Z</time></trkpt>
<trkpt lat="46.21432805" lon="6.10374346"><ele></ele><time>2014-10-8T11:59:3Z</time></trkpt>
<trkpt lat="46.21428279" lon="6.10368932"><ele></ele><time>2014-10-8T11:59:6Z</time></trkpt>
<trkpt lat="46.21423569" lon="6.10364162"><ele></ele><time>2014-10-8T11:59:9Z</time></trkpt>
<trkpt lat="46.21418824" lon="6.10359904"><ele></ele><time>2014-10-8T11:59:12Z</time></trkpt>
<trkpt lat="46.21414265" lon="6.10355864"><ele></ele><time>2014-10-8T11:59:15Z</time></trkpt>
<trkpt lat="46.21409873" lon="6.10351933"><ele></ele><time>2014-10-8T11:59:18Z</time></trkpt>
<trkpt lat="46.21405782" lon="6.10348153"><ele></ele><time>2014-10-8T11:59:21Z</time></trkpt>
<trkpt lat="46.21401415" lon="6.10344264"><ele></ele><time>2014-10-8T11:59:24Z</time></trkpt>
<trkpt lat="46.21397593" lon="6.10340609"><ele></ele><time>2014-10-8T11:59:27Z</time></trkpt>
<trkpt lat="46.21393628" lon="6.10336888"><ele></ele><time>2014-10-8T11:59:30Z</time></trkpt>
<trkpt lat="46.21389672" lon="6.10333392"><ele></ele><time>2014-10-8T11:59:33Z</time></trkpt>
<trkpt lat="46.21385917" lon="6.10330274"><ele></ele><time>2014-10-8T11:59:36Z</time></trkpt>
<trkpt lat="46.21382816" lon="6.10327760"><ele></ele><time>2014-10-8T11:59:39Z</time></trkpt>
<trkpt lat="46.21381114" lon="6.10326502"><ele></ele><time>2014-10-8T11:59:42Z</time></trkpt>
<trkpt lat="46.21380578" lon="6.10326192"><ele></ele><time>2014-10-8T11:59:45Z</time></trkpt>
<trkpt lat="46.21380645" lon="6.10326142"><ele></ele><time>2014-10-8T11:59:48Z</time></trkpt>
<trkpt lat="46.21380444" lon="6.10325983"><ele></ele><time>2014-10-8T11:59:51Z</time></trkpt>
<trkpt lat="46.21380544" lon="6.10326033"><ele></ele><time>2014-10-8T11:59:54Z</time></trkpt>
<trkpt lat="46.21380745" lon="6.10326083"><ele></ele><time>2014-10-8T11:59:57Z</time></trkpt>
<trkpt lat="46.21380972" lon="6.10326209"><ele></ele><time>2014-10-8T12:0:0Z</time></trkpt>
<trkpt lat="46.21381139" lon="6.10326318"><ele></ele><time>2014-10-8T12:0:3Z</time></trkpt>
<trkpt lat="46.21381248" lon="6.10326368"><ele></ele><time>2014-10-8T12:0:6Z</time></trkpt>
<trkpt lat="46.21381307" lon="6.10326419"><ele></ele><time>2014-10-8T12:0:9Z</time></trkpt>
<trkpt lat="46.21381324" lon="6.10326452"><ele></ele><time>2014-10-8T12:0:12Z</time></trkpt>
<trkpt lat="46.21381324" lon="6.10326477"><ele></ele><time>2014-10-8T12:0:15Z</time></trkpt>
<trkpt lat="46.21381299" lon="6.10326553"><ele></ele><time>2014-10-8T12:0:18Z</time></trkpt>
<trkpt lat="46.21381265" lon="6.10326687"><ele></ele><time>2014-10-8T12:0:21Z</time></trkpt>
<trkpt lat="46.21381114" lon="6.10326704"><ele></ele><time>2014-10-8T12:0:24Z</time></trkpt>
<trkpt lat="46.21380955" lon="6.10326729"><ele></ele><time>2014-10-8T12:0:27Z</time></trkpt>
<trkpt lat="46.21380754" lon="6.10326829"><ele></ele><time>2014-10-8T12:0:30Z</time></trkpt>
<trkpt lat="46.21380653" lon="6.10326813"><ele></ele><time>2014-10-8T12:0:33Z</time></trkpt>
<trkpt lat="46.21380578" lon="6.10326737"><ele></ele><time>2014-10-8T12:0:36Z</time></trkpt>
<trkpt lat="46.21380419" lon="6.10326704"><ele></ele><time>2014-10-8T12:0:39Z</time></trkpt>
<trkpt lat="46.21380167" lon="6.10326335"><ele></ele><time>2014-10-8T12:0:42Z</time></trkpt>
<trkpt lat="46.21379916" lon="6.10325958"><ele></ele><time>2014-10-8T12:0:45Z</time></trkpt>
<trkpt lat="46.21379689" lon="6.10325715"><ele></ele><time>2014-10-8T12:0:48Z</time></trkpt>
<trkpt lat="46.21379497" lon="6.10325505"><ele></ele><time>2014-10-8T12:0:51Z</time></trkpt>
<trkpt lat="46.21379312" lon="6.10325304"><ele></ele><time>2014-10-8T12:0:54Z</time></trkpt>
<trkpt lat="46.21379153" lon="6.10325136"><ele></ele><time>2014-10-8T12:0:57Z</time></trkpt>
<trkpt lat="46.21379002" lon="6.10324977"><ele></ele><time>2014-10-8T12:1:0Z</time></trkpt>
<trkpt lat="46.21378868" lon="6.10324818"><ele></ele><time>2014-10-8T12:1:3Z</time></trkpt>
<trkpt lat="46.21378725" lon="6.10324667"><ele></ele><time>2014-10-8T12:1:6Z</time></trkpt>
<trkpt lat="46.21378583" lon="6.10324524"><ele></ele><time>2014-10-8T12:1:9Z</time></trkpt>
<trkpt lat="46.21378457" lon="6.10324399"><ele></ele><time>2014-10-8T12:1:12Z</time></trkpt>
<trkpt lat="46.21378357" lon="6.10324273"><ele></ele><time>2014-10-8T12:1:15Z</time></trkpt>
<trkpt lat="46.21378214" lon="6.10324298"><ele></ele><time>2014-10-8T12:1:18Z</time></trkpt>
<trkpt lat="46.21377720" lon="6.10324105"><ele></ele><time>2014-10-8T12:1:21Z</time></trkpt>
<trkpt lat="46.21376077" lon="6.10322982"><ele></ele><time>2014-10-8T12:1:24Z</time></trkpt>
<trkpt lat="46.21374249" lon="6.10321239"><ele></ele><time>2014-10-8T12:1:27Z</time></trkpt>
<trkpt lat="46.21372229" lon="6.10319428"><ele></ele><time>2014-10-8T12:1:30Z</time></trkpt>
<trkpt lat="46.21370000" lon="6.10317903"><ele></ele><time>2014-10-8T12:1:33Z</time></trkpt>
<trkpt lat="46.21367678" lon="6.10316436"><ele></ele><time>2014-10-8T12:1:36Z</time></trkpt>
<trkpt lat="46.21365155" lon="6.10315413"><ele></ele><time>2014-10-8T12:1:39Z</time></trkpt>
<trkpt lat="46.21362247" lon="6.10315204"><ele></ele><time>2014-10-8T12:1:42Z</time></trkpt>
<trkpt lat="46.21358626" lon="6.10316268"><ele></ele><time>2014-10-8T12:1:45Z</time></trkpt>
<trkpt lat="46.21354694" lon="6.10318867"><ele></ele><time>2014-10-8T12:1:48Z</time></trkpt>
<trkpt lat="46.21350688" lon="6.10322689"><ele></ele><time>2014-10-8T12:1:51Z</time></trkpt>
<trkpt lat="46.21346639" lon="6.10327349"><ele></ele><time>2014-10-8T12:1:54Z</time></trkpt>
<trkpt lat="46.21342583" lon="6.10332588"><ele></ele><time>2014-10-8T12:1:57Z</time></trkpt>
<trkpt lat="46.21338408" lon="6.10338128"><ele></ele><time>2014-10-8T12:2:0Z</time></trkpt>
<trkpt lat="46.21333832" lon="6.10342906"><ele></ele><time>2014-10-8T12:2:3Z</time></trkpt>
<trkpt lat="46.21329079" lon="6.10347642"><ele></ele><time>2014-10-8T12:2:6Z</time></trkpt>
<trkpt lat="46.21324629" lon="6.10353316"><ele></ele><time>2014-10-8T12:2:9Z</time></trkpt>
<trkpt lat="46.21320589" lon="6.10359452"><ele></ele><time>2014-10-8T12:2:12Z</time></trkpt>
<trkpt lat="46.21316532" lon="6.10365269"><ele></ele><time>2014-10-8T12:2:15Z</time></trkpt>
<trkpt lat="46.21312173" lon="6.10371094"><ele></ele><time>2014-10-8T12:2:18Z</time></trkpt>
<trkpt lat="46.21307865" lon="6.10376920"><ele></ele><time>2014-10-8T12:2:21Z</time></trkpt>
<trkpt lat="46.21303506" lon="6.10382636"><ele></ele><time>2014-10-8T12:2:24Z</time></trkpt>
<trkpt lat="46.21298913" lon="6.10388177"><ele></ele><time>2014-10-8T12:2:27Z</time></trkpt>
<trkpt lat="46.21294135" lon="6.10394077"><ele></ele><time>2014-10-8T12:2:30Z</time></trkpt>
<trkpt lat="46.21289399" lon="6.10399844"><ele></ele><time>2014-10-8T12:2:33Z</time></trkpt>
<trkpt lat="46.21284915" lon="6.10406248"><ele></ele><time>2014-10-8T12:2:36Z</time></trkpt>
<trkpt lat="46.21280515" lon="6.10412903"><ele></ele><time>2014-10-8T12:2:39Z</time></trkpt>
<trkpt lat="46.21275997" lon="6.10419692"><ele></ele><time>2014-10-8T12:2:42Z</time></trkpt>
<trkpt lat="46.21271554" lon="6.10426272"><ele></ele><time>2014-10-8T12:2:45Z</time></trkpt>
<trkpt lat="46.21266877" lon="6.10433028"><ele></ele><time>2014-10-8T12:2:48Z</time></trkpt>
<trkpt lat="46.21262326" lon="6.10439315"><ele></ele><time>2014-10-8T12:2:51Z</time></trkpt>
<trkpt lat="46.21257657" lon="6.10445609"><ele></ele><time>2014-10-8T12:2:54Z</time></trkpt>
<trkpt lat="46.21252762" lon="6.10452206"><ele></ele><time>2014-10-8T12:2:57Z</time></trkpt>
<trkpt lat="46.21247842" lon="6.10458995"><ele></ele><time>2014-10-8T12:3:0Z</time></trkpt>
<trkpt lat="46.21242964" lon="6.10465977"><ele></ele><time>2014-10-8T12:3:3Z</time></trkpt>
<trkpt lat="46.21238287" lon="6.10473135"><ele></ele><time>2014-10-8T12:3:6Z</time></trkpt>
<trkpt lat="46.21233802" lon="6.10480503"><ele></ele><time>2014-10-8T12:3:9Z</time></trkpt>
<trkpt lat="46.21229402" lon="6.10487930"><ele></ele><time>2014-10-8T12:3:12Z</time></trkpt>
<trkpt lat="46.21225177" lon="6.10495465"><ele></ele><time>2014-10-8T12:3:15Z</time></trkpt>
<trkpt lat="46.21221246" lon="6.10503369"><ele></ele><time>2014-10-8T12:3:18Z</time></trkpt>
<trkpt lat="46.21217449" lon="6.10511533"><ele></ele><time>2014-10-8T12:3:21Z</time></trkpt>
<trkpt lat="46.21213895" lon="6.10519823"><ele></ele><time>2014-10-8T12:3:24Z</time></trkpt>
<trkpt lat="46.21210375" lon="6.10528322"><ele></ele><time>2014-10-8T12:3:27Z</time></trkpt>
<trkpt lat="46.21207064" lon="6.10536662"><ele></ele><time>2014-10-8T12:3:30Z</time></trkpt>
<trkpt lat="46.21203669" lon="6.10544818"><ele></ele><time>2014-10-8T12:3:33Z</time></trkpt>
<trkpt lat="46.21200484" lon="6.10553049"><ele></ele><time>2014-10-8T12:3:36Z</time></trkpt>
<trkpt lat="46.21197802" lon="6.10560827"><ele></ele><time>2014-10-8T12:3:39Z</time></trkpt>
<trkpt lat="46.21195120" lon="6.10568480"><ele></ele><time>2014-10-8T12:3:42Z</time></trkpt>
<trkpt lat="46.21192748" lon="6.10576484"><ele></ele><time>2014-10-8T12:3:45Z</time></trkpt>
<trkpt lat="46.21191172" lon="6.10584565"><ele></ele><time>2014-10-8T12:3:48Z</time></trkpt>
<trkpt lat="46.21189663" lon="6.10592502"><ele></ele><time>2014-10-8T12:3:51Z</time></trkpt>
<trkpt lat="46.21188180" lon="6.10600314"><ele></ele><time>2014-10-8T12:3:54Z</time></trkpt>
<trkpt lat="46.21186537" lon="6.10607967"><ele></ele><time>2014-10-8T12:3:57Z</time></trkpt>
<trkpt lat="46.21184634" lon="6.10615636"><ele></ele><time>2014-10-8T12:4:0Z</time></trkpt>
<trkpt lat="46.21182689" lon="6.10623406"><ele></ele><time>2014-10-8T12:4:3Z</time></trkpt>
<trkpt lat="46.21180410" lon="6.10631160"><ele></ele><time>2014-10-8T12:4:6Z</time></trkpt>
<trkpt lat="46.21177929" lon="6.10638795"><ele></ele><time>2014-10-8T12:4:9Z</time></trkpt>
<trkpt lat="46.21175473" lon="6.10646406"><ele></ele><time>2014-10-8T12:4:12Z</time></trkpt>
<trkpt lat="46.21173176" lon="6.10654118"><ele></ele><time>2014-10-8T12:4:15Z</time></trkpt>
<trkpt lat="46.21171114" lon="6.10661636"><ele></ele><time>2014-10-8T12:4:18Z</time></trkpt>
<trkpt lat="46.21168926" lon="6.10669138"><ele></ele><time>2014-10-8T12:4:21Z</time></trkpt>
<trkpt lat="46.21166714" lon="6.10676858"><ele></ele><time>2014-10-8T12:4:24Z</time></trkpt>
<trkpt lat="46.21164534" lon="6.10684443"><ele></ele><time>2014-10-8T12:4:27Z</time></trkpt>
<trkpt lat="46.21162330" lon="6.10691836"><ele></ele><time>2014-10-8T12:4:30Z</time></trkpt>
<trkpt lat="46.21160058" lon="6.10699489"><ele></ele><time>2014-10-8T12:4:33Z</time></trkpt>
<trkpt lat="46.21157787" lon="6.10707167"><ele></ele><time>2014-10-8T12:4:36Z</time></trkpt>
<trkpt lat="46.21155700" lon="6.10714878"><ele></ele><time>2014-10-8T12:4:39Z</time></trkpt>
<trkpt lat="46.21153445" lon="6.10722338"><ele></ele><time>2014-10-8T12:4:42Z</time></trkpt>
<trkpt lat="46.21151182" lon="6.10729488"><ele></ele><time>2014-10-8T12:4:45Z</time></trkpt>
<trkpt lat="46.21148936" lon="6.10736562"><ele></ele><time>2014-10-8T12:4:48Z</time></trkpt>
<trkpt lat="46.21146748" lon="6.10744039"><ele></ele><time>2014-10-8T12:4:51Z</time></trkpt>
<trkpt lat="46.21144434" lon="6.10751624"><ele></ele><time>2014-10-8T12:4:54Z</time></trkpt>
<trkpt lat="46.21142037" lon="6.10758766"><ele></ele><time>2014-10-8T12:4:57Z</time></trkpt>
<trkpt lat="46.21139648" lon="6.10765857"><ele></ele><time>2014-10-8T12:5:0Z</time></trkpt>
<trkpt lat="46.21137477" lon="6.10773166"><ele></ele><time>2014-10-8T12:5:3Z</time></trkpt>
<trkpt lat="46.21135172" lon="6.10780776"><ele></ele><time>2014-10-8T12:5:6Z</time></trkpt>
<trkpt lat="46.21133035" lon="6.10788178"><ele></ele><time>2014-10-8T12:5:9Z</time></trkpt>
<trkpt lat="46.21131183" lon="6.10795805"><ele></ele><time>2014-10-8T12:5:12Z</time></trkpt>
<trkpt lat="46.21129557" lon="6.10803718"><ele></ele><time>2014-10-8T12:5:15Z</time></trkpt>
<trkpt lat="46.21127922" lon="6.10811622"><ele></ele><time>2014-10-8T12:5:18Z</time></trkpt>
<trkpt lat="46.21125885" lon="6.10819375"><ele></ele><time>2014-10-8T12:5:21Z</time></trkpt>
<trkpt lat="46.21123957" lon="6.10827304"><ele></ele><time>2014-10-8T12:5:24Z</time></trkpt>
<trkpt lat="46.21122465" lon="6.10835477"><ele></ele><time>2014-10-8T12:5:27Z</time></trkpt>
<trkpt lat="46.21122876" lon="6.10844328"><ele></ele><time>2014-10-8T12:5:30Z</time></trkpt>
<trkpt lat="46.21121217" lon="6.10852459"><ele></ele><time>2014-10-8T12:5:33Z</time></trkpt>
<trkpt lat="46.21118878" lon="6.10859524"><ele></ele><time>2014-10-8T12:5:36Z</time></trkpt>
<trkpt lat="46.21115198" lon="6.10865484"><ele></ele><time>2014-10-8T12:5:39Z</time></trkpt>
<trkpt lat="46.21110446" lon="6.10869943"><ele></ele><time>2014-10-8T12:5:42Z</time></trkpt>
<trkpt lat="46.21105475" lon="6.10872936"><ele></ele><time>2014-10-8T12:5:45Z</time></trkpt>
<trkpt lat="46.21099776" lon="6.10875098"><ele></ele><time>2014-10-8T12:5:48Z</time></trkpt>
<trkpt lat="46.21093724" lon="6.10876934"><ele></ele><time>2014-10-8T12:5:51Z</time></trkpt>
<trkpt lat="46.21087605" lon="6.10878820"><ele></ele><time>2014-10-8T12:5:54Z</time></trkpt>
<trkpt lat="46.21081453" lon="6.10880345"><ele></ele><time>2014-10-8T12:5:57Z</time></trkpt>
<trkpt lat="46.21075200" lon="6.10881669"><ele></ele><time>2014-10-8T12:6:0Z</time></trkpt>
<trkpt lat="46.21069106" lon="6.10882784"><ele></ele><time>2014-10-8T12:6:3Z</time></trkpt>
<trkpt lat="46.21062652" lon="6.10881762"><ele></ele><time>2014-10-8T12:6:6Z</time></trkpt>
<trkpt lat="46.21056357" lon="6.10882265"><ele></ele><time>2014-10-8T12:6:9Z</time></trkpt>
<trkpt lat="46.21050373" lon="6.10884117"><ele></ele><time>2014-10-8T12:6:12Z</time></trkpt>
<trkpt lat="46.21044162" lon="6.10886103"><ele></ele><time>2014-10-8T12:6:15Z</time></trkpt>
<trkpt lat="46.21037347" lon="6.10888124"><ele></ele><time>2014-10-8T12:6:18Z</time></trkpt>
<trkpt lat="46.21030265" lon="6.10890269"><ele></ele><time>2014-10-8T12:6:21Z</time></trkpt>
<trkpt lat="46.21023433" lon="6.10892122"><ele></ele><time>2014-10-8T12:6:24Z</time></trkpt>
<trkpt lat="46.21017046" lon="6.10894024"><ele></ele><time>2014-10-8T12:6:27Z</time></trkpt>
<trkpt lat="46.21010307" lon="6.10895994"><ele></ele><time>2014-10-8T12:6:30Z</time></trkpt>
<trkpt lat="46.21003526" lon="6.10898014"><ele></ele><time>2014-10-8T12:6:33Z</time></trkpt>
<trkpt lat="46.20996645" lon="6.10900118"><ele></ele><time>2014-10-8T12:6:36Z</time></trkpt>
<trkpt lat="46.20989646" lon="6.10901635"><ele></ele><time>2014-10-8T12:6:39Z</time></trkpt>
<trkpt lat="46.20982613" lon="6.10903186"><ele></ele><time>2014-10-8T12:6:42Z</time></trkpt>
<trkpt lat="46.20975782" lon="6.10905248"><ele></ele><time>2014-10-8T12:6:45Z</time></trkpt>
<trkpt lat="46.20968976" lon="6.10907125"><ele></ele><time>2014-10-8T12:6:48Z</time></trkpt>
<trkpt lat="46.20962153" lon="6.10909020"><ele></ele><time>2014-10-8T12:6:51Z</time></trkpt>
<trkpt lat="46.20955439" lon="6.10911006"><ele></ele><time>2014-10-8T12:6:54Z</time></trkpt>
<trkpt lat="46.20948558" lon="6.10912750"><ele></ele><time>2014-10-8T12:6:57Z</time></trkpt>
<trkpt lat="46.20941718" lon="6.10914066"><ele></ele><time>2014-10-8T12:7:0Z</time></trkpt>
<trkpt lat="46.20934644" lon="6.10915465"><ele></ele><time>2014-10-8T12:7:3Z</time></trkpt>
<trkpt lat="46.20927586" lon="6.10917108"><ele></ele><time>2014-10-8T12:7:6Z</time></trkpt>
<trkpt lat="46.20920487" lon="6.10918709"><ele></ele><time>2014-10-8T12:7:9Z</time></trkpt>
<trkpt lat="46.20913312" lon="6.10920235"><ele></ele><time>2014-10-8T12:7:12Z</time></trkpt>
<trkpt lat="46.20906162" lon="6.10921660"><ele></ele><time>2014-10-8T12:7:15Z</time></trkpt>
<trkpt lat="46.20899088" lon="6.10923160"><ele></ele><time>2014-10-8T12:7:18Z</time></trkpt>
<trkpt lat="46.20892013" lon="6.10924786"><ele></ele><time>2014-10-8T12:7:21Z</time></trkpt>
<trkpt lat="46.20884922" lon="6.10926169"><ele></ele><time>2014-10-8T12:7:24Z</time></trkpt>
<trkpt lat="46.20877856" lon="6.10927225"><ele></ele><time>2014-10-8T12:7:27Z</time></trkpt>
<trkpt lat="46.20870757" lon="6.10928499"><ele></ele><time>2014-10-8T12:7:30Z</time></trkpt>
<trkpt lat="46.20863557" lon="6.10930050"><ele></ele><time>2014-10-8T12:7:33Z</time></trkpt>
<trkpt lat="46.20856214" lon="6.10931466"><ele></ele><time>2014-10-8T12:7:36Z</time></trkpt>
<trkpt lat="46.20848754" lon="6.10932883"><ele></ele><time>2014-10-8T12:7:39Z</time></trkpt>
<trkpt lat="46.20841186" lon="6.10934425"><ele></ele><time>2014-10-8T12:7:42Z</time></trkpt>
<trkpt lat="46.20833466" lon="6.10935993"><ele></ele><time>2014-10-8T12:7:45Z</time></trkpt>
<trkpt lat="46.20825646" lon="6.10937585"><ele></ele><time>2014-10-8T12:7:48Z</time></trkpt>
<trkpt lat="46.20817767" lon="6.10939119"><ele></ele><time>2014-10-8T12:7:51Z</time></trkpt>
<trkpt lat="46.20809938" lon="6.10940577"><ele></ele><time>2014-10-8T12:7:54Z</time></trkpt>
<trkpt lat="46.20802159" lon="6.10942019"><ele></ele><time>2014-10-8T12:7:57Z</time></trkpt>
<trkpt lat="46.20794406" lon="6.10943469"><ele></ele><time>2014-10-8T12:8:0Z</time></trkpt>
<trkpt lat="46.20786678" lon="6.10944978"><ele></ele><time>2014-10-8T12:8:3Z</time></trkpt>
<trkpt lat="46.20778933" lon="6.10946663"><ele></ele><time>2014-10-8T12:8:6Z</time></trkpt>
<trkpt lat="46.20770903" lon="6.10948306"><ele></ele><time>2014-10-8T12:8:9Z</time></trkpt>
<trkpt lat="46.20762873" lon="6.10949974"><ele></ele><time>2014-10-8T12:8:12Z</time></trkpt>
<trkpt lat="46.20754978" lon="6.10951734"><ele></ele><time>2014-10-8T12:8:15Z</time></trkpt>
<trkpt lat="46.20747082" lon="6.10953502"><ele></ele><time>2014-10-8T12:8:18Z</time></trkpt>
<trkpt lat="46.20739119" lon="6.10955204"><ele></ele><time>2014-10-8T12:8:21Z</time></trkpt>
<trkpt lat="46.20731249" lon="6.10956972"><ele></ele><time>2014-10-8T12:8:24Z</time></trkpt>
<trkpt lat="46.20723453" lon="6.10958632"><ele></ele><time>2014-10-8T12:8:27Z</time></trkpt>
<trkpt lat="46.20715524" lon="6.10960082"><ele></ele><time>2014-10-8T12:8:30Z</time></trkpt>
<trkpt lat="46.20708215" lon="6.10961515"><ele></ele><time>2014-10-8T12:8:33Z</time></trkpt>
<trkpt lat="46.20700504" lon="6.10962739"><ele></ele><time>2014-10-8T12:8:36Z</time></trkpt>
<trkpt lat="46.20693153" lon="6.10964022"><ele></ele><time>2014-10-8T12:8:39Z</time></trkpt>
<trkpt lat="46.20685986" lon="6.10965304"><ele></ele><time>2014-10-8T12:8:42Z</time></trkpt>
<trkpt lat="46.20678979" lon="6.10966436"><ele></ele><time>2014-10-8T12:8:45Z</time></trkpt>
<trkpt lat="46.20672315" lon="6.10967735"><ele></ele><time>2014-10-8T12:8:48Z</time></trkpt>
<trkpt lat="46.20665769" lon="6.10969126"><ele></ele><time>2014-10-8T12:8:51Z</time></trkpt>
<trkpt lat="46.20659374" lon="6.10970434"><ele></ele><time>2014-10-8T12:8:54Z</time></trkpt>
<trkpt lat="46.20653129" lon="6.10971758"><ele></ele><time>2014-10-8T12:8:57Z</time></trkpt>
<trkpt lat="46.20646792" lon="6.10972856"><ele></ele><time>2014-10-8T12:9:0Z</time></trkpt>
<trkpt lat="46.20640238" lon="6.10973393"><ele></ele><time>2014-10-8T12:9:3Z</time></trkpt>
<trkpt lat="46.20633658" lon="6.10973426"><ele></ele><time>2014-10-8T12:9:6Z</time></trkpt>
<trkpt lat="46.20626978" lon="6.10973275"><ele></ele><time>2014-10-8T12:9:9Z</time></trkpt>
<trkpt lat="46.20620515" lon="6.10973007"><ele></ele><time>2014-10-8T12:9:12Z</time></trkpt>
<trkpt lat="46.20614388" lon="6.10973225"><ele></ele><time>2014-10-8T12:9:15Z</time></trkpt>
<trkpt lat="46.20608412" lon="6.10974004"><ele></ele><time>2014-10-8T12:9:18Z</time></trkpt>
<trkpt lat="46.20602595" lon="6.10975119"><ele></ele><time>2014-10-8T12:9:21Z</time></trkpt>
<trkpt lat="46.20596836" lon="6.10976209"><ele></ele><time>2014-10-8T12:9:24Z</time></trkpt>
<trkpt lat="46.20591128" lon="6.10977257"><ele></ele><time>2014-10-8T12:9:27Z</time></trkpt>
<trkpt lat="46.20585546" lon="6.10978506"><ele></ele><time>2014-10-8T12:9:30Z</time></trkpt>
<trkpt lat="46.20579972" lon="6.10980257"><ele></ele><time>2014-10-8T12:9:33Z</time></trkpt>
<trkpt lat="46.20574482" lon="6.10981992"><ele></ele><time>2014-10-8T12:9:36Z</time></trkpt>
<trkpt lat="46.20568874" lon="6.10983208"><ele></ele><time>2014-10-8T12:9:39Z</time></trkpt>
<trkpt lat="46.20563217" lon="6.10983912"><ele></ele><time>2014-10-8T12:9:42Z</time></trkpt>
<trkpt lat="46.20557643" lon="6.10984482"><ele></ele><time>2014-10-8T12:9:45Z</time></trkpt>
<trkpt lat="46.20551767" lon="6.10985337"><ele></ele><time>2014-10-8T12:9:48Z</time></trkpt>
<trkpt lat="46.20545883" lon="6.10986535"><ele></ele><time>2014-10-8T12:9:51Z</time></trkpt>
<trkpt lat="46.20540275" lon="6.10988086"><ele></ele><time>2014-10-8T12:9:54Z</time></trkpt>
<trkpt lat="46.20534400" lon="6.10989570"><ele></ele><time>2014-10-8T12:9:57Z</time></trkpt>
<trkpt lat="46.20528239" lon="6.10990835"><ele></ele><time>2014-10-8T12:10:0Z</time></trkpt>
<trkpt lat="46.20522455" lon="6.10991942"><ele></ele><time>2014-10-8T12:10:3Z</time></trkpt>
<trkpt lat="46.20517887" lon="6.10992847"><ele></ele><time>2014-10-8T12:10:6Z</time></trkpt>
<trkpt lat="46.20514199" lon="6.10992990"><ele></ele><time>2014-10-8T12:10:9Z</time></trkpt>
<trkpt lat="46.20511232" lon="6.10991665"><ele></ele><time>2014-10-8T12:10:12Z</time></trkpt>
<trkpt lat="46.20508047" lon="6.10989654"><ele></ele><time>2014-10-8T12:10:15Z</time></trkpt>
<trkpt lat="46.20503839" lon="6.10989754"><ele></ele><time>2014-10-8T12:10:18Z</time></trkpt>
<trkpt lat="46.20498869" lon="6.10992579"><ele></ele><time>2014-10-8T12:10:21Z</time></trkpt>
<trkpt lat="46.20493647" lon="6.10996108"><ele></ele><time>2014-10-8T12:10:24Z</time></trkpt>
<trkpt lat="46.20487486" lon="6.10999485"><ele></ele><time>2014-10-8T12:10:27Z</time></trkpt>
<trkpt lat="46.20480378" lon="6.11002159"><ele></ele><time>2014-10-8T12:10:30Z</time></trkpt>
<trkpt lat="46.20473103" lon="6.11004129"><ele></ele><time>2014-10-8T12:10:33Z</time></trkpt>
<trkpt lat="46.20465324" lon="6.11006082"><ele></ele><time>2014-10-8T12:10:36Z</time></trkpt>
<trkpt lat="46.20457060" lon="6.11007968"><ele></ele><time>2014-10-8T12:10:39Z</time></trkpt>
<trkpt lat="46.20448317" lon="6.11009552"><ele></ele><time>2014-10-8T12:10:42Z</time></trkpt>
<trkpt lat="46.20438796" lon="6.11011706"><ele></ele><time>2014-10-8T12:10:45Z</time></trkpt>
<trkpt lat="46.20428913" lon="6.11013819"><ele></ele><time>2014-10-8T12:10:48Z</time></trkpt>
<trkpt lat="46.20418796" lon="6.11015612"><ele></ele><time>2014-10-8T12:10:51Z</time></trkpt>
<trkpt lat="46.20408537" lon="6.11017507"><ele></ele><time>2014-10-8T12:10:54Z</time></trkpt>
<trkpt lat="46.20398336" lon="6.11018772"><ele></ele><time>2014-10-8T12:10:57Z</time></trkpt>
<trkpt lat="46.20388119" lon="6.11020105"><ele></ele><time>2014-10-8T12:11:0Z</time></trkpt>
<trkpt lat="46.20377893" lon="6.11021664"><ele></ele><time>2014-10-8T12:11:3Z</time></trkpt>
<trkpt lat="46.20367692" lon="6.11023315"><ele></ele><time>2014-10-8T12:11:6Z</time></trkpt>
<trkpt lat="46.20357416" lon="6.11025000"><ele></ele><time>2014-10-8T12:11:9Z</time></trkpt>
<trkpt lat="46.20347072" lon="6.11026626"><ele></ele><time>2014-10-8T12:11:12Z</time></trkpt>
<trkpt lat="46.20336813" lon="6.11028294"><ele></ele><time>2014-10-8T12:11:15Z</time></trkpt>
<trkpt lat="46.20326453" lon="6.11030063"><ele></ele><time>2014-10-8T12:11:18Z</time></trkpt>
<trkpt lat="46.20316135" lon="6.11031747"><ele></ele><time>2014-10-8T12:11:21Z</time></trkpt>
<trkpt lat="46.20305926" lon="6.11033348"><ele></ele><time>2014-10-8T12:11:24Z</time></trkpt>
<trkpt lat="46.20295859" lon="6.11035016"><ele></ele><time>2014-10-8T12:11:27Z</time></trkpt>
<trkpt lat="46.20285977" lon="6.11036743"><ele></ele><time>2014-10-8T12:11:30Z</time></trkpt>
<trkpt lat="46.20276296" lon="6.11038352"><ele></ele><time>2014-10-8T12:11:33Z</time></trkpt>
<trkpt lat="46.20266799" lon="6.11039878"><ele></ele><time>2014-10-8T12:11:36Z</time></trkpt>
<trkpt lat="46.20257478" lon="6.11041462"><ele></ele><time>2014-10-8T12:11:39Z</time></trkpt>
<trkpt lat="46.20248325" lon="6.11043063"><ele></ele><time>2014-10-8T12:11:42Z</time></trkpt>
<trkpt lat="46.20239298" lon="6.11044656"><ele></ele><time>2014-10-8T12:11:45Z</time></trkpt>
<trkpt lat="46.20230329" lon="6.11046148"><ele></ele><time>2014-10-8T12:11:48Z</time></trkpt>
<trkpt lat="46.20221294" lon="6.11047857"><ele></ele><time>2014-10-8T12:11:51Z</time></trkpt>
<trkpt lat="46.20212358" lon="6.11049425"><ele></ele><time>2014-10-8T12:11:54Z</time></trkpt>
<trkpt lat="46.20203289" lon="6.11051168"><ele></ele><time>2014-10-8T12:11:57Z</time></trkpt>
<trkpt lat="46.20194145" lon="6.11052962"><ele></ele><time>2014-10-8T12:12:0Z</time></trkpt>
<trkpt lat="46.20184958" lon="6.11054689"><ele></ele><time>2014-10-8T12:12:3Z</time></trkpt>
<trkpt lat="46.20175763" lon="6.11056508"><ele></ele><time>2014-10-8T12:12:6Z</time></trkpt>
<trkpt lat="46.20166576" lon="6.11058293"><ele></ele><time>2014-10-8T12:12:9Z</time></trkpt>
<trkpt lat="46.20157365" lon="6.11059969"><ele></ele><time>2014-10-8T12:12:12Z</time></trkpt>
<trkpt lat="46.20148170" lon="6.11061503"><ele></ele><time>2014-10-8T12:12:15Z</time></trkpt>
<trkpt lat="46.20139042" lon="6.11062945"><ele></ele><time>2014-10-8T12:12:18Z</time></trkpt>
<trkpt lat="46.20129897" lon="6.11064496"><ele></ele><time>2014-10-8T12:12:21Z</time></trkpt>
<trkpt lat="46.20120736" lon="6.11066063"><ele></ele><time>2014-10-8T12:12:24Z</time></trkpt>
<trkpt lat="46.20111600" lon="6.11067723"><ele></ele><time>2014-10-8T12:12:27Z</time></trkpt>
<trkpt lat="46.20102438" lon="6.11069382"><ele></ele><time>2014-10-8T12:12:30Z</time></trkpt>
<trkpt lat="46.20093344" lon="6.11071067"><ele></ele><time>2014-10-8T12:12:33Z</time></trkpt>
<trkpt lat="46.20084300" lon="6.11072727"><ele></ele><time>2014-10-8T12:12:36Z</time></trkpt>
<trkpt lat="46.20075163" lon="6.11074504"><ele></ele><time>2014-10-8T12:12:39Z</time></trkpt>
<trkpt lat="46.20066069" lon="6.11076272"><ele></ele><time>2014-10-8T12:12:42Z</time></trkpt>
<trkpt lat="46.20057025" lon="6.11077974"><ele></ele><time>2014-10-8T12:12:45Z</time></trkpt>
<trkpt lat="46.20048098" lon="6.11079524"><ele></ele><time>2014-10-8T12:12:48Z</time></trkpt>
<trkpt lat="46.20039264" lon="6.11081033"><ele></ele><time>2014-10-8T12:12:51Z</time></trkpt>
<trkpt lat="46.20030463" lon="6.11082584"><ele></ele><time>2014-10-8T12:12:54Z</time></trkpt>
<trkpt lat="46.20021662" lon="6.11084185"><ele></ele><time>2014-10-8T12:12:57Z</time></trkpt>
<trkpt lat="46.20012844" lon="6.11085869"><ele></ele><time>2014-10-8T12:13:0Z</time></trkpt>
<trkpt lat="46.20004035" lon="6.11087395"><ele></ele><time>2014-10-8T12:13:3Z</time></trkpt>
<trkpt lat="46.19995292" lon="6.11088895"><ele></ele><time>2014-10-8T12:13:6Z</time></trkpt>
<trkpt lat="46.19986609" lon="6.11090404"><ele></ele><time>2014-10-8T12:13:9Z</time></trkpt>
<trkpt lat="46.19977984" lon="6.11091745"><ele></ele><time>2014-10-8T12:13:12Z</time></trkpt>
<trkpt lat="46.19969342" lon="6.11093212"><ele></ele><time>2014-10-8T12:13:15Z</time></trkpt>
<trkpt lat="46.19960784" lon="6.11094846"><ele></ele><time>2014-10-8T12:13:18Z</time></trkpt>
<trkpt lat="46.19952293" lon="6.11096665"><ele></ele><time>2014-10-8T12:13:21Z</time></trkpt>
<trkpt lat="46.19943836" lon="6.11098509"><ele></ele><time>2014-10-8T12:13:24Z</time></trkpt>
<trkpt lat="46.19935437" lon="6.11100177"><ele></ele><time>2014-10-8T12:13:27Z</time></trkpt>
<trkpt lat="46.19927064" lon="6.11101753"><ele></ele><time>2014-10-8T12:13:30Z</time></trkpt>
<trkpt lat="46.19918732" lon="6.11103354"><ele></ele><time>2014-10-8T12:13:33Z</time></trkpt>
<trkpt lat="46.19910417" lon="6.11104812"><ele></ele><time>2014-10-8T12:13:36Z</time></trkpt>
<trkpt lat="46.19902220" lon="6.11105986"><ele></ele><time>2014-10-8T12:13:39Z</time></trkpt>
<trkpt lat="46.19894072" lon="6.11107394"><ele></ele><time>2014-10-8T12:13:42Z</time></trkpt>
<trkpt lat="46.19885959" lon="6.11108886"><ele></ele><time>2014-10-8T12:13:45Z</time></trkpt>
<trkpt lat="46.19877895" lon="6.11110286"><ele></ele><time>2014-10-8T12:13:48Z</time></trkpt>
<trkpt lat="46.19869907" lon="6.11111518"><ele></ele><time>2014-10-8T12:13:51Z</time></trkpt>
<trkpt lat="46.19862045" lon="6.11112666"><ele></ele><time>2014-10-8T12:13:54Z</time></trkpt>
<trkpt lat="46.19854258" lon="6.11113882"><ele></ele><time>2014-10-8T12:13:57Z</time></trkpt>
<trkpt lat="46.19846555" lon="6.11115164"><ele></ele><time>2014-10-8T12:14:0Z</time></trkpt>
<trkpt lat="46.19838945" lon="6.11116363"><ele></ele><time>2014-10-8T12:14:3Z</time></trkpt>
<trkpt lat="46.19831426" lon="6.11117494"><ele></ele><time>2014-10-8T12:14:6Z</time></trkpt>
<trkpt lat="46.19823983" lon="6.11118743"><ele></ele><time>2014-10-8T12:14:9Z</time></trkpt>
<trkpt lat="46.19816615" lon="6.11120076"><ele></ele><time>2014-10-8T12:14:12Z</time></trkpt>
<trkpt lat="46.19809264" lon="6.11121375"><ele></ele><time>2014-10-8T12:14:15Z</time></trkpt>
<trkpt lat="46.19801964" lon="6.11122607"><ele></ele><time>2014-10-8T12:14:18Z</time></trkpt>
<trkpt lat="46.19794697" lon="6.11123865"><ele></ele><time>2014-10-8T12:14:21Z</time></trkpt>
<trkpt lat="46.19787438" lon="6.11125063"><ele></ele><time>2014-10-8T12:14:24Z</time></trkpt>
<trkpt lat="46.19780187" lon="6.11126245"><ele></ele><time>2014-10-8T12:14:27Z</time></trkpt>
<trkpt lat="46.19772979" lon="6.11127519"><ele></ele><time>2014-10-8T12:14:30Z</time></trkpt>
<trkpt lat="46.19765787" lon="6.11128852"><ele></ele><time>2014-10-8T12:14:33Z</time></trkpt>
<trkpt lat="46.19758680" lon="6.11130235"><ele></ele><time>2014-10-8T12:14:36Z</time></trkpt>
<trkpt lat="46.19751714" lon="6.11131676"><ele></ele><time>2014-10-8T12:14:39Z</time></trkpt>
<trkpt lat="46.19744883" lon="6.11133319"><ele></ele><time>2014-10-8T12:14:42Z</time></trkpt>
<trkpt lat="46.19738186" lon="6.11135373"><ele></ele><time>2014-10-8T12:14:45Z</time></trkpt>
<trkpt lat="46.19731489" lon="6.11137670"><ele></ele><time>2014-10-8T12:14:48Z</time></trkpt>
<trkpt lat="46.19724817" lon="6.11140243"><ele></ele><time>2014-10-8T12:14:51Z</time></trkpt>
<trkpt lat="46.19718153" lon="6.11142967"><ele></ele><time>2014-10-8T12:14:54Z</time></trkpt>
<trkpt lat="46.19711657" lon="6.11146026"><ele></ele><time>2014-10-8T12:14:57Z</time></trkpt>
<trkpt lat="46.19705094" lon="6.11149287"><ele></ele><time>2014-10-8T12:15:0Z</time></trkpt>
<trkpt lat="46.19698673" lon="6.11152832"><ele></ele><time>2014-10-8T12:15:3Z</time></trkpt>
<trkpt lat="46.19692337" lon="6.11156713"><ele></ele><time>2014-10-8T12:15:6Z</time></trkpt>
<trkpt lat="46.19686017" lon="6.11160862"><ele></ele><time>2014-10-8T12:15:9Z</time></trkpt>
<trkpt lat="46.19679563" lon="6.11165053"><ele></ele><time>2014-10-8T12:15:12Z</time></trkpt>
<trkpt lat="46.19673067" lon="6.11169370"><ele></ele><time>2014-10-8T12:15:15Z</time></trkpt>
<trkpt lat="46.19666613" lon="6.11173737"><ele></ele><time>2014-10-8T12:15:18Z</time></trkpt>
<trkpt lat="46.19659957" lon="6.11177970"><ele></ele><time>2014-10-8T12:15:21Z</time></trkpt>
<trkpt lat="46.19653109" lon="6.11182169"><ele></ele><time>2014-10-8T12:15:24Z</time></trkpt>
<trkpt lat="46.19646404" lon="6.11186243"><ele></ele><time>2014-10-8T12:15:27Z</time></trkpt>
<trkpt lat="46.19639975" lon="6.11189998"><ele></ele><time>2014-10-8T12:15:30Z</time></trkpt>
<trkpt lat="46.19633588" lon="6.11193443"><ele></ele><time>2014-10-8T12:15:33Z</time></trkpt>
<trkpt lat="46.19627260" lon="6.11196452"><ele></ele><time>2014-10-8T12:15:36Z</time></trkpt>
<trkpt lat="46.19620856" lon="6.11199226"><ele></ele><time>2014-10-8T12:15:39Z</time></trkpt>
<trkpt lat="46.19614452" lon="6.11201514"><ele></ele><time>2014-10-8T12:15:42Z</time></trkpt>
<trkpt lat="46.19608082" lon="6.11203442"><ele></ele><time>2014-10-8T12:15:45Z</time></trkpt>
<trkpt lat="46.19601854" lon="6.11205337"><ele></ele><time>2014-10-8T12:15:48Z</time></trkpt>
<trkpt lat="46.19595685" lon="6.11207047"><ele></ele><time>2014-10-8T12:15:51Z</time></trkpt>
<trkpt lat="46.19589575" lon="6.11208363"><ele></ele><time>2014-10-8T12:15:54Z</time></trkpt>
<trkpt lat="46.19583473" lon="6.11209402"><ele></ele><time>2014-10-8T12:15:57Z</time></trkpt>
<trkpt lat="46.19577354" lon="6.11210483"><ele></ele><time>2014-10-8T12:16:0Z</time></trkpt>
<trkpt lat="46.19571126" lon="6.11211397"><ele></ele><time>2014-10-8T12:16:3Z</time></trkpt>
<trkpt lat="46.19564706" lon="6.11211900"><ele></ele><time>2014-10-8T12:16:6Z</time></trkpt>
<trkpt lat="46.19558176" lon="6.11212403"><ele></ele><time>2014-10-8T12:16:9Z</time></trkpt>
<trkpt lat="46.19551697" lon="6.11212822"><ele></ele><time>2014-10-8T12:16:12Z</time></trkpt>
<trkpt lat="46.19545109" lon="6.11213149"><ele></ele><time>2014-10-8T12:16:15Z</time></trkpt>
<trkpt lat="46.19538462" lon="6.11213408"><ele></ele><time>2014-10-8T12:16:18Z</time></trkpt>
<trkpt lat="46.19532008" lon="6.11213408"><ele></ele><time>2014-10-8T12:16:21Z</time></trkpt>
<trkpt lat="46.19525906" lon="6.11213040"><ele></ele><time>2014-10-8T12:16:24Z</time></trkpt>
<trkpt lat="46.19519904" lon="6.11212729"><ele></ele><time>2014-10-8T12:16:27Z</time></trkpt>
<trkpt lat="46.19514037" lon="6.11212545"><ele></ele><time>2014-10-8T12:16:30Z</time></trkpt>
<trkpt lat="46.19508312" lon="6.11212419"><ele></ele><time>2014-10-8T12:16:33Z</time></trkpt>
<trkpt lat="46.19502629" lon="6.11212042"><ele></ele><time>2014-10-8T12:16:36Z</time></trkpt>
<trkpt lat="46.19496904" lon="6.11210542"><ele></ele><time>2014-10-8T12:16:39Z</time></trkpt>
<trkpt lat="46.19491624" lon="6.11206594"><ele></ele><time>2014-10-8T12:16:42Z</time></trkpt>
<trkpt lat="46.19487617" lon="6.11199738"><ele></ele><time>2014-10-8T12:16:45Z</time></trkpt>
<trkpt lat="46.19485337" lon="6.11190886"><ele></ele><time>2014-10-8T12:16:48Z</time></trkpt>
<trkpt lat="46.19484239" lon="6.11181063"><ele></ele><time>2014-10-8T12:16:51Z</time></trkpt>
<trkpt lat="46.19483485" lon="6.11170879"><ele></ele><time>2014-10-8T12:16:54Z</time></trkpt>
<trkpt lat="46.19482756" lon="6.11160276"><ele></ele><time>2014-10-8T12:16:57Z</time></trkpt>
<trkpt lat="46.19482035" lon="6.11149589"><ele></ele><time>2014-10-8T12:17:0Z</time></trkpt>
<trkpt lat="46.19481733" lon="6.11139153"><ele></ele><time>2014-10-8T12:17:3Z</time></trkpt>
<trkpt lat="46.19481146" lon="6.11128449"><ele></ele><time>2014-10-8T12:17:6Z</time></trkpt>
<trkpt lat="46.19481616" lon="6.11118567"><ele></ele><time>2014-10-8T12:17:9Z</time></trkpt>
<trkpt lat="46.19481716" lon="6.11108467"><ele></ele><time>2014-10-8T12:17:12Z</time></trkpt>
<trkpt lat="46.19481683" lon="6.11098199"><ele></ele><time>2014-10-8T12:17:15Z</time></trkpt>
<trkpt lat="46.19481817" lon="6.11087889"><ele></ele><time>2014-10-8T12:17:18Z</time></trkpt>
<trkpt lat="46.19480752" lon="6.11076163"><ele></ele><time>2014-10-8T12:17:21Z</time></trkpt>
<trkpt lat="46.19479529" lon="6.11064278"><ele></ele><time>2014-10-8T12:17:24Z</time></trkpt>
<trkpt lat="46.19478129" lon="6.11052107"><ele></ele><time>2014-10-8T12:17:27Z</time></trkpt>
<trkpt lat="46.19477173" lon="6.11040674"><ele></ele><time>2014-10-8T12:17:30Z</time></trkpt>
<trkpt lat="46.19472639" lon="6.11026995"><ele></ele><time>2014-10-8T12:17:33Z</time></trkpt>
<trkpt lat="46.19470065" lon="6.11017129"><ele></ele><time>2014-10-8T12:17:36Z</time></trkpt>
<trkpt lat="46.19467903" lon="6.11009896"><ele></ele><time>2014-10-8T12:17:39Z</time></trkpt>
<trkpt lat="46.19465112" lon="6.11003257"><ele></ele><time>2014-10-8T12:17:42Z</time></trkpt>
<trkpt lat="46.19462689" lon="6.10996434"><ele></ele><time>2014-10-8T12:17:45Z</time></trkpt>
<trkpt lat="46.19460074" lon="6.10989637"><ele></ele><time>2014-10-8T12:17:48Z</time></trkpt>
<trkpt lat="46.19457568" lon="6.10982839"><ele></ele><time>2014-10-8T12:17:51Z</time></trkpt>
<trkpt lat="46.19455313" lon="6.10976025"><ele></ele><time>2014-10-8T12:17:54Z</time></trkpt>
<trkpt lat="46.19453318" lon="6.10969436"><ele></ele><time>2014-10-8T12:17:57Z</time></trkpt>
<trkpt lat="46.19451458" lon="6.10963385"><ele></ele><time>2014-10-8T12:18:0Z</time></trkpt>
<trkpt lat="46.19449396" lon="6.10957366"><ele></ele><time>2014-10-8T12:18:3Z</time></trkpt>
<trkpt lat="46.19446462" lon="6.10951080"><ele></ele><time>2014-10-8T12:18:6Z</time></trkpt>
<trkpt lat="46.19443713" lon="6.10944978"><ele></ele><time>2014-10-8T12:18:9Z</time></trkpt>
<trkpt lat="46.19438927" lon="6.10938214"><ele></ele><time>2014-10-8T12:18:12Z</time></trkpt>
<trkpt lat="46.19437343" lon="6.10932975"><ele></ele><time>2014-10-8T12:18:15Z</time></trkpt>
<trkpt lat="46.19435842" lon="6.10927393"><ele></ele><time>2014-10-8T12:18:18Z</time></trkpt>
<trkpt lat="46.19434308" lon="6.10921919"><ele></ele><time>2014-10-8T12:18:21Z</time></trkpt>
<trkpt lat="46.19432724" lon="6.10916186"><ele></ele><time>2014-10-8T12:18:24Z</time></trkpt>
<trkpt lat="46.19431383" lon="6.10910838"><ele></ele><time>2014-10-8T12:18:27Z</time></trkpt>
<trkpt lat="46.19430696" lon="6.10906782"><ele></ele><time>2014-10-8T12:18:30Z</time></trkpt>
<trkpt lat="46.19430545" lon="6.10904259"><ele></ele><time>2014-10-8T12:18:33Z</time></trkpt>
<trkpt lat="46.19430989" lon="6.10903278"><ele></ele><time>2014-10-8T12:18:36Z</time></trkpt>
<trkpt lat="46.19431752" lon="6.10903136"><ele></ele><time>2014-10-8T12:18:39Z</time></trkpt>
<trkpt lat="46.19432682" lon="6.10903513"><ele></ele><time>2014-10-8T12:18:42Z</time></trkpt>
<trkpt lat="46.19433604" lon="6.10904217"><ele></ele><time>2014-10-8T12:18:45Z</time></trkpt>
<trkpt lat="46.19434359" lon="6.10904980"><ele></ele><time>2014-10-8T12:18:48Z</time></trkpt>
<trkpt lat="46.19434878" lon="6.10905549"><ele></ele><time>2014-10-8T12:18:51Z</time></trkpt>
<trkpt lat="46.19435214" lon="6.10905893"><ele></ele><time>2014-10-8T12:18:54Z</time></trkpt>
<trkpt lat="46.19435498" lon="6.10906245"><ele></ele><time>2014-10-8T12:18:57Z</time></trkpt>
<trkpt lat="46.19435666" lon="6.10906614"><ele></ele><time>2014-10-8T12:19:0Z</time></trkpt>
<trkpt lat="46.19435733" lon="6.10906882"><ele></ele><time>2014-10-8T12:19:3Z</time></trkpt>
<trkpt lat="46.19435582" lon="6.10906933"><ele></ele><time>2014-10-8T12:19:6Z</time></trkpt>
<trkpt lat="46.19435406" lon="6.10906966"><ele></ele><time>2014-10-8T12:19:9Z</time></trkpt>
<trkpt lat="46.19435255" lon="6.10907025"><ele></ele><time>2014-10-8T12:19:12Z</time></trkpt>
<trkpt lat="46.19435138" lon="6.10907176"><ele></ele><time>2014-10-8T12:19:15Z</time></trkpt>
<trkpt lat="46.19435113" lon="6.10907259"><ele></ele><time>2014-10-8T12:19:18Z</time></trkpt>
<trkpt lat="46.19434836" lon="6.10906597"><ele></ele><time>2014-10-8T12:19:21Z</time></trkpt>
<trkpt lat="46.19434275" lon="6.10905256"><ele></ele><time>2014-10-8T12:19:24Z</time></trkpt>
<trkpt lat="46.19433193" lon="6.10903177"><ele></ele><time>2014-10-8T12:19:27Z</time></trkpt>
<trkpt lat="46.19431710" lon="6.10900302"><ele></ele><time>2014-10-8T12:19:30Z</time></trkpt>
<trkpt lat="46.19429237" lon="6.10895902"><ele></ele><time>2014-10-8T12:19:33Z</time></trkpt>
<trkpt lat="46.19426387" lon="6.10890244"><ele></ele><time>2014-10-8T12:19:36Z</time></trkpt>
<trkpt lat="46.19423454" lon="6.10883564"><ele></ele><time>2014-10-8T12:19:39Z</time></trkpt>
<trkpt lat="46.19420378" lon="6.10876012"><ele></ele><time>2014-10-8T12:19:42Z</time></trkpt>
<trkpt lat="46.19417327" lon="6.10867848"><ele></ele><time>2014-10-8T12:19:45Z</time></trkpt>
<trkpt lat="46.19414276" lon="6.10859172"><ele></ele><time>2014-10-8T12:19:48Z</time></trkpt>
<trkpt lat="46.19411183" lon="6.10849877"><ele></ele><time>2014-10-8T12:19:51Z</time></trkpt>
<trkpt lat="46.19407956" lon="6.10839986"><ele></ele><time>2014-10-8T12:19:54Z</time></trkpt>
<trkpt lat="46.19404745" lon="6.10829785"><ele></ele><time>2014-10-8T12:19:57Z</time></trkpt>
<trkpt lat="46.19401569" lon="6.10819157"><ele></ele><time>2014-10-8T12:20:0Z</time></trkpt>
<trkpt lat="46.19395634" lon="6.10806777"><ele></ele><time>2014-10-8T12:20:3Z</time></trkpt>
<trkpt lat="46.19390345" lon="6.10794665"><ele></ele><time>2014-10-8T12:20:6Z</time></trkpt>
<trkpt lat="46.19385157" lon="6.10782729"><ele></ele><time>2014-10-8T12:20:9Z</time></trkpt>
<trkpt lat="46.19379843" lon="6.10770534"><ele></ele><time>2014-10-8T12:20:12Z</time></trkpt>
<trkpt lat="46.19372793" lon="6.10757919"><ele></ele><time>2014-10-8T12:20:15Z</time></trkpt>
<trkpt lat="46.19367739" lon="6.10745874"><ele></ele><time>2014-10-8T12:20:18Z</time></trkpt>
<trkpt lat="46.19362735" lon="6.10733586"><ele></ele><time>2014-10-8T12:20:21Z</time></trkpt>
<trkpt lat="46.19357823" lon="6.10721114"><ele></ele><time>2014-10-8T12:20:24Z</time></trkpt>
<trkpt lat="46.19352610" lon="6.10708659"><ele></ele><time>2014-10-8T12:20:27Z</time></trkpt>
<trkpt lat="46.19347665" lon="6.10695935"><ele></ele><time>2014-10-8T12:20:30Z</time></trkpt>
<trkpt lat="46.19342887" lon="6.10683312"><ele></ele><time>2014-10-8T12:20:33Z</time></trkpt>
<trkpt lat="46.19337749" lon="6.10670638"><ele></ele><time>2014-10-8T12:20:36Z</time></trkpt>
<trkpt lat="46.19333114" lon="6.10658166"><ele></ele><time>2014-10-8T12:20:39Z</time></trkpt>
<trkpt lat="46.19328562" lon="6.10645987"><ele></ele><time>2014-10-8T12:20:42Z</time></trkpt>
<trkpt lat="46.19324069" lon="6.10633473"><ele></ele><time>2014-10-8T12:20:45Z</time></trkpt>
<trkpt lat="46.19319946" lon="6.10621269"><ele></ele><time>2014-10-8T12:20:48Z</time></trkpt>
<trkpt lat="46.19315629" lon="6.10609174"><ele></ele><time>2014-10-8T12:20:51Z</time></trkpt>
<trkpt lat="46.19311463" lon="6.10597297"><ele></ele><time>2014-10-8T12:20:54Z</time></trkpt>
<trkpt lat="46.19307155" lon="6.10585394"><ele></ele><time>2014-10-8T12:20:57Z</time></trkpt>
<trkpt lat="46.19302830" lon="6.10573366"><ele></ele><time>2014-10-8T12:21:0Z</time></trkpt>
<trkpt lat="46.19298597" lon="6.10561347"><ele></ele><time>2014-10-8T12:21:3Z</time></trkpt>
<trkpt lat="46.19294439" lon="6.10549469"><ele></ele><time>2014-10-8T12:21:6Z</time></trkpt>
<trkpt lat="46.19290156" lon="6.10537592"><ele></ele><time>2014-10-8T12:21:9Z</time></trkpt>
<trkpt lat="46.19286016" lon="6.10525883"><ele></ele><time>2014-10-8T12:21:12Z</time></trkpt>
<trkpt lat="46.19282017" lon="6.10514458"><ele></ele><time>2014-10-8T12:21:15Z</time></trkpt>
<trkpt lat="46.19278447" lon="6.10503227"><ele></ele><time>2014-10-8T12:21:18Z</time></trkpt>
<trkpt lat="46.19274884" lon="6.10492053"><ele></ele><time>2014-10-8T12:21:21Z</time></trkpt>
<trkpt lat="46.19270082" lon="6.10480528"><ele></ele><time>2014-10-8T12:21:24Z</time></trkpt>
<trkpt lat="46.19267274" lon="6.10469590"><ele></ele><time>2014-10-8T12:21:27Z</time></trkpt>
<trkpt lat="46.19264256" lon="6.10458677"><ele></ele><time>2014-10-8T12:21:30Z</time></trkpt>
<trkpt lat="46.19259730" lon="6.10447529"><ele></ele><time>2014-10-8T12:21:33Z</time></trkpt>
<trkpt lat="46.19255656" lon="6.10435819"><ele></ele><time>2014-10-8T12:21:36Z</time></trkpt>
<trkpt lat="46.19250183" lon="6.10424805"><ele></ele><time>2014-10-8T12:21:39Z</time></trkpt>
<trkpt lat="46.19246403" lon="6.10410925"><ele></ele><time>2014-10-8T12:21:42Z</time></trkpt>
<trkpt lat="46.19241918" lon="6.10399358"><ele></ele><time>2014-10-8T12:21:45Z</time></trkpt>
<trkpt lat="46.19236873" lon="6.10388302"><ele></ele><time>2014-10-8T12:21:48Z</time></trkpt>
<trkpt lat="46.19233578" lon="6.10378630"><ele></ele><time>2014-10-8T12:21:51Z</time></trkpt>
<trkpt lat="46.19229656" lon="6.10367834"><ele></ele><time>2014-10-8T12:21:54Z</time></trkpt>
<trkpt lat="46.19226336" lon="6.10357633"><ele></ele><time>2014-10-8T12:21:57Z</time></trkpt>
<trkpt lat="46.19222305" lon="6.10346837"><ele></ele><time>2014-10-8T12:22:0Z</time></trkpt>
<trkpt lat="46.19218784" lon="6.10335974"><ele></ele><time>2014-10-8T12:22:3Z</time></trkpt>
<trkpt lat="46.19215147" lon="6.10324935"><ele></ele><time>2014-10-8T12:22:6Z</time></trkpt>
<trkpt lat="46.19211534" lon="6.10314164"><ele></ele><time>2014-10-8T12:22:9Z</time></trkpt>
<trkpt lat="46.19204594" lon="6.10302153"><ele></ele><time>2014-10-8T12:22:12Z</time></trkpt>
<trkpt lat="46.19201576" lon="6.10291516"><ele></ele><time>2014-10-8T12:22:15Z</time></trkpt>
<trkpt lat="46.19195743" lon="6.10280184"><ele></ele><time>2014-10-8T12:22:18Z</time></trkpt>
<trkpt lat="46.19198785" lon="6.10273386"><ele></ele><time>2014-10-8T12:22:21Z</time></trkpt>
<trkpt lat="46.19195198" lon="6.10264158"><ele></ele><time>2014-10-8T12:22:24Z</time></trkpt>
<trkpt lat="46.19192004" lon="6.10254686"><ele></ele><time>2014-10-8T12:22:27Z</time></trkpt>
<trkpt lat="46.19189012" lon="6.10245315"><ele></ele><time>2014-10-8T12:22:30Z</time></trkpt>
<trkpt lat="46.19186078" lon="6.10236347"><ele></ele><time>2014-10-8T12:22:33Z</time></trkpt>
<trkpt lat="46.19183547" lon="6.10227378"><ele></ele><time>2014-10-8T12:22:36Z</time></trkpt>
<trkpt lat="46.19181795" lon="6.10217739"><ele></ele><time>2014-10-8T12:22:39Z</time></trkpt>
<trkpt lat="46.19180077" lon="6.10208527"><ele></ele><time>2014-10-8T12:22:42Z</time></trkpt>
<trkpt lat="46.19178124" lon="6.10200908"><ele></ele><time>2014-10-8T12:22:45Z</time></trkpt>
<trkpt lat="46.19174645" lon="6.10193012"><ele></ele><time>2014-10-8T12:22:48Z</time></trkpt>
<trkpt lat="46.19171142" lon="6.10185167"><ele></ele><time>2014-10-8T12:22:51Z</time></trkpt>
<trkpt lat="46.19168200" lon="6.10176517"><ele></ele><time>2014-10-8T12:22:54Z</time></trkpt>
<trkpt lat="46.19165040" lon="6.10167565"><ele></ele><time>2014-10-8T12:22:57Z</time></trkpt>
<trkpt lat="46.19161854" lon="6.10158429"><ele></ele><time>2014-10-8T12:23:0Z</time></trkpt>
<trkpt lat="46.19158803" lon="6.10149158"><ele></ele><time>2014-10-8T12:23:3Z</time></trkpt>
<trkpt lat="46.19155962" lon="6.10139712"><ele></ele><time>2014-10-8T12:23:6Z</time></trkpt>
<trkpt lat="46.19152877" lon="6.10129897"><ele></ele><time>2014-10-8T12:23:9Z</time></trkpt>
<trkpt lat="46.19148083" lon="6.10120609"><ele></ele><time>2014-10-8T12:23:12Z</time></trkpt>
<trkpt lat="46.19144822" lon="6.10110434"><ele></ele><time>2014-10-8T12:23:15Z</time></trkpt>
<trkpt lat="46.19139475" lon="6.10099655"><ele></ele><time>2014-10-8T12:23:18Z</time></trkpt>
<trkpt lat="46.19137966" lon="6.10090074"><ele></ele><time>2014-10-8T12:23:21Z</time></trkpt>
<trkpt lat="46.19139383" lon="6.10082489"><ele></ele><time>2014-10-8T12:23:24Z</time></trkpt>
<trkpt lat="46.19136667" lon="6.10073403"><ele></ele><time>2014-10-8T12:23:27Z</time></trkpt>
<trkpt lat="46.19133188" lon="6.10064300"><ele></ele><time>2014-10-8T12:23:30Z</time></trkpt>
<trkpt lat="46.19130917" lon="6.10055859"><ele></ele><time>2014-10-8T12:23:33Z</time></trkpt>
<trkpt lat="46.19128235" lon="6.10047243"><ele></ele><time>2014-10-8T12:23:36Z</time></trkpt>
<trkpt lat="46.19126148" lon="6.10038718"><ele></ele><time>2014-10-8T12:23:39Z</time></trkpt>
<trkpt lat="46.19123449" lon="6.10030068"><ele></ele><time>2014-10-8T12:23:42Z</time></trkpt>
<trkpt lat="46.19120054" lon="6.10020798"><ele></ele><time>2014-10-8T12:23:45Z</time></trkpt>
<trkpt lat="46.19116777" lon="6.10011335"><ele></ele><time>2014-10-8T12:23:48Z</time></trkpt>
<trkpt lat="46.19113516" lon="6.10001679"><ele></ele><time>2014-10-8T12:23:51Z</time></trkpt>
<trkpt lat="46.19110524" lon="6.09992366"><ele></ele><time>2014-10-8T12:23:54Z</time></trkpt>
<trkpt lat="46.19107573" lon="6.09983414"><ele></ele><time>2014-10-8T12:23:57Z</time></trkpt>
<trkpt lat="46.19104514" lon="6.09974563"><ele></ele><time>2014-10-8T12:24:0Z</time></trkpt>
<trkpt lat="46.19101404" lon="6.09965695"><ele></ele><time>2014-10-8T12:24:3Z</time></trkpt>
<trkpt lat="46.19098973" lon="6.09956492"><ele></ele><time>2014-10-8T12:24:6Z</time></trkpt>
<trkpt lat="46.19096576" lon="6.09946995"><ele></ele><time>2014-10-8T12:24:9Z</time></trkpt>
<trkpt lat="46.19093936" lon="6.09937565"><ele></ele><time>2014-10-8T12:24:12Z</time></trkpt>
<trkpt lat="46.19090935" lon="6.09928345"><ele></ele><time>2014-10-8T12:24:15Z</time></trkpt>
<trkpt lat="46.19087834" lon="6.09919335"><ele></ele><time>2014-10-8T12:24:18Z</time></trkpt>
<trkpt lat="46.19084615" lon="6.09909972"><ele></ele><time>2014-10-8T12:24:21Z</time></trkpt>
<trkpt lat="46.19081363" lon="6.09900693"><ele></ele><time>2014-10-8T12:24:24Z</time></trkpt>
<trkpt lat="46.19078144" lon="6.09891348"><ele></ele><time>2014-10-8T12:24:27Z</time></trkpt>
<trkpt lat="46.19074909" lon="6.09882178"><ele></ele><time>2014-10-8T12:24:30Z</time></trkpt>
<trkpt lat="46.19071213" lon="6.09873167"><ele></ele><time>2014-10-8T12:24:33Z</time></trkpt>
<trkpt lat="46.19067407" lon="6.09865540"><ele></ele><time>2014-10-8T12:24:36Z</time></trkpt>
<trkpt lat="46.19062512" lon="6.09860728"><ele></ele><time>2014-10-8T12:24:39Z</time></trkpt>
<trkpt lat="46.19056310" lon="6.09856957"><ele></ele><time>2014-10-8T12:24:42Z</time></trkpt>
<trkpt lat="46.19046737" lon="6.09855565"><ele></ele><time>2014-10-8T12:24:45Z</time></trkpt>
<trkpt lat="46.19039437" lon="6.09857166"><ele></ele><time>2014-10-8T12:24:48Z</time></trkpt>
<trkpt lat="46.19031943" lon="6.09858943"><ele></ele><time>2014-10-8T12:24:51Z</time></trkpt>
<trkpt lat="46.19024618" lon="6.09860226"><ele></ele><time>2014-10-8T12:24:54Z</time></trkpt>
<trkpt lat="46.19017837" lon="6.09858725"><ele></ele><time>2014-10-8T12:24:57Z</time></trkpt>
<trkpt lat="46.19010226" lon="6.09861332"><ele></ele><time>2014-10-8T12:25:0Z</time></trkpt>
<trkpt lat="46.19004468" lon="6.09865154"><ele></ele><time>2014-10-8T12:25:3Z</time></trkpt>
<trkpt lat="46.18999287" lon="6.09869345"><ele></ele><time>2014-10-8T12:25:6Z</time></trkpt>
<trkpt lat="46.18993898" lon="6.09872555"><ele></ele><time>2014-10-8T12:25:9Z</time></trkpt>
<trkpt lat="46.18987788" lon="6.09874978"><ele></ele><time>2014-10-8T12:25:12Z</time></trkpt>
<trkpt lat="46.18981535" lon="6.09878766"><ele></ele><time>2014-10-8T12:25:15Z</time></trkpt>
<trkpt lat="46.18975818" lon="6.09882396"><ele></ele><time>2014-10-8T12:25:18Z</time></trkpt>
<trkpt lat="46.18970194" lon="6.09886453"><ele></ele><time>2014-10-8T12:25:21Z</time></trkpt>
<trkpt lat="46.18964343" lon="6.09890618"><ele></ele><time>2014-10-8T12:25:24Z</time></trkpt>
<trkpt lat="46.18958409" lon="6.09893938"><ele></ele><time>2014-10-8T12:25:27Z</time></trkpt>
<trkpt lat="46.18952852" lon="6.09897466"><ele></ele><time>2014-10-8T12:25:30Z</time></trkpt>
<trkpt lat="46.18947948" lon="6.09901490"><ele></ele><time>2014-10-8T12:25:33Z</time></trkpt>
<trkpt lat="46.18942944" lon="6.09905907"><ele></ele><time>2014-10-8T12:25:36Z</time></trkpt>
<trkpt lat="46.18937714" lon="6.09909478"><ele></ele><time>2014-10-8T12:25:39Z</time></trkpt>
<trkpt lat="46.18931830" lon="6.09912545"><ele></ele><time>2014-10-8T12:25:42Z</time></trkpt>
<trkpt lat="46.18926323" lon="6.09915655"><ele></ele><time>2014-10-8T12:25:45Z</time></trkpt>
<trkpt lat="46.18920883" lon="6.09918656"><ele></ele><time>2014-10-8T12:25:48Z</time></trkpt>
<trkpt lat="46.18915276" lon="6.09921506"><ele></ele><time>2014-10-8T12:25:51Z</time></trkpt>
<trkpt lat="46.18909718" lon="6.09924314"><ele></ele><time>2014-10-8T12:25:54Z</time></trkpt>
<trkpt lat="46.18904237" lon="6.09926929"><ele></ele><time>2014-10-8T12:25:57Z</time></trkpt>
<trkpt lat="46.18898663" lon="6.09929955"><ele></ele><time>2014-10-8T12:26:0Z</time></trkpt>
<trkpt lat="46.18893902" lon="6.09933207"><ele></ele><time>2014-10-8T12:26:3Z</time></trkpt>
<trkpt lat="46.18889024" lon="6.09936836"><ele></ele><time>2014-10-8T12:26:6Z</time></trkpt>
<trkpt lat="46.18884313" lon="6.09940742"><ele></ele><time>2014-10-8T12:26:9Z</time></trkpt>
<trkpt lat="46.18879669" lon="6.09944548"><ele></ele><time>2014-10-8T12:26:12Z</time></trkpt>
<trkpt lat="46.18875043" lon="6.09948579"><ele></ele><time>2014-10-8T12:26:15Z</time></trkpt>
<trkpt lat="46.18870634" lon="6.09952837"><ele></ele><time>2014-10-8T12:26:18Z</time></trkpt>
<trkpt lat="46.18866116" lon="6.09957179"><ele></ele><time>2014-10-8T12:26:21Z</time></trkpt>
<trkpt lat="46.18861942" lon="6.09961596"><ele></ele><time>2014-10-8T12:26:24Z</time></trkpt>
<trkpt lat="46.18856929" lon="6.09966064"><ele></ele><time>2014-10-8T12:26:27Z</time></trkpt>
<trkpt lat="46.18851917" lon="6.09969836"><ele></ele><time>2014-10-8T12:26:30Z</time></trkpt>
<trkpt lat="46.18846913" lon="6.09973390"><ele></ele><time>2014-10-8T12:26:33Z</time></trkpt>
<trkpt lat="46.18841683" lon="6.09976902"><ele></ele><time>2014-10-8T12:26:36Z</time></trkpt>
<trkpt lat="46.18836452" lon="6.09980179"><ele></ele><time>2014-10-8T12:26:39Z</time></trkpt>
<trkpt lat="46.18831205" lon="6.09983238"><ele></ele><time>2014-10-8T12:26:42Z</time></trkpt>
<trkpt lat="46.18825933" lon="6.09985845"><ele></ele><time>2014-10-8T12:26:45Z</time></trkpt>
<trkpt lat="46.18820736" lon="6.09988544"><ele></ele><time>2014-10-8T12:26:48Z</time></trkpt>
<trkpt lat="46.18815699" lon="6.09991184"><ele></ele><time>2014-10-8T12:26:51Z</time></trkpt>
<trkpt lat="46.18810628" lon="6.09994009"><ele></ele><time>2014-10-8T12:26:54Z</time></trkpt>
<trkpt lat="46.18805984" lon="6.09997429"><ele></ele><time>2014-10-8T12:26:57Z</time></trkpt>
<trkpt lat="46.18801089" lon="6.10000899"><ele></ele><time>2014-10-8T12:27:0Z</time></trkpt>
<trkpt lat="46.18796093" lon="6.10004277"><ele></ele><time>2014-10-8T12:27:3Z</time></trkpt>
<trkpt lat="46.18790578" lon="6.10008099"><ele></ele><time>2014-10-8T12:27:6Z</time></trkpt>
<trkpt lat="46.18785423" lon="6.10011896"><ele></ele><time>2014-10-8T12:27:9Z</time></trkpt>
<trkpt lat="46.18779874" lon="6.10015475"><ele></ele><time>2014-10-8T12:27:12Z</time></trkpt>
<trkpt lat="46.18774376" lon="6.10018526"><ele></ele><time>2014-10-8T12:27:15Z</time></trkpt>
<trkpt lat="46.18768492" lon="6.10020798"><ele></ele><time>2014-10-8T12:27:18Z</time></trkpt>
<trkpt lat="46.18763136" lon="6.10022005"><ele></ele><time>2014-10-8T12:27:21Z</time></trkpt>
<trkpt lat="46.18757595" lon="6.10022156"><ele></ele><time>2014-10-8T12:27:24Z</time></trkpt>
<trkpt lat="46.18751996" lon="6.10021393"><ele></ele><time>2014-10-8T12:27:27Z</time></trkpt>
<trkpt lat="46.18746405" lon="6.10020052"><ele></ele><time>2014-10-8T12:27:30Z</time></trkpt>
<trkpt lat="46.18740848" lon="6.10018635"><ele></ele><time>2014-10-8T12:27:33Z</time></trkpt>
<trkpt lat="46.18735207" lon="6.10017445"><ele></ele><time>2014-10-8T12:27:36Z</time></trkpt>
<trkpt lat="46.18729675" lon="6.10016615"><ele></ele><time>2014-10-8T12:27:39Z</time></trkpt>
<trkpt lat="46.18723942" lon="6.10016280"><ele></ele><time>2014-10-8T12:27:42Z</time></trkpt>
<trkpt lat="46.18718259" lon="6.10016339"><ele></ele><time>2014-10-8T12:27:45Z</time></trkpt>
<trkpt lat="46.18712593" lon="6.10016858"><ele></ele><time>2014-10-8T12:27:48Z</time></trkpt>
<trkpt lat="46.18706625" lon="6.10017680"><ele></ele><time>2014-10-8T12:27:51Z</time></trkpt>
<trkpt lat="46.18700833" lon="6.10018602"><ele></ele><time>2014-10-8T12:27:54Z</time></trkpt>
<trkpt lat="46.18695335" lon="6.10019247"><ele></ele><time>2014-10-8T12:27:57Z</time></trkpt>
<trkpt lat="46.18689828" lon="6.10019867"><ele></ele><time>2014-10-8T12:28:0Z</time></trkpt>
<trkpt lat="46.18684455" lon="6.10020504"><ele></ele><time>2014-10-8T12:28:3Z</time></trkpt>
<trkpt lat="46.18678898" lon="6.10021418"><ele></ele><time>2014-10-8T12:28:6Z</time></trkpt>
<trkpt lat="46.18673575" lon="6.10022273"><ele></ele><time>2014-10-8T12:28:9Z</time></trkpt>
<trkpt lat="46.18668010" lon="6.10023455"><ele></ele><time>2014-10-8T12:28:12Z</time></trkpt>
<trkpt lat="46.18662545" lon="6.10024603"><ele></ele><time>2014-10-8T12:28:15Z</time></trkpt>
<trkpt lat="46.18656937" lon="6.10025743"><ele></ele><time>2014-10-8T12:28:18Z</time></trkpt>
<trkpt lat="46.18651128" lon="6.10026699"><ele></ele><time>2014-10-8T12:28:21Z</time></trkpt>
<trkpt lat="46.18645269" lon="6.10027956"><ele></ele><time>2014-10-8T12:28:24Z</time></trkpt>
<trkpt lat="46.18639654" lon="6.10029289"><ele></ele><time>2014-10-8T12:28:27Z</time></trkpt>
<trkpt lat="46.18633937" lon="6.10030537"><ele></ele><time>2014-10-8T12:28:30Z</time></trkpt>
<trkpt lat="46.18628137" lon="6.10031476"><ele></ele><time>2014-10-8T12:28:33Z</time></trkpt>
<trkpt lat="46.18622454" lon="6.10032708"><ele></ele><time>2014-10-8T12:28:36Z</time></trkpt>
<trkpt lat="46.18616888" lon="6.10034058"><ele></ele><time>2014-10-8T12:28:39Z</time></trkpt>
<trkpt lat="46.18611214" lon="6.10035776"><ele></ele><time>2014-10-8T12:28:42Z</time></trkpt>
<trkpt lat="46.18605967" lon="6.10037905"><ele></ele><time>2014-10-8T12:28:45Z</time></trkpt>
<trkpt lat="46.18600619" lon="6.10039850"><ele></ele><time>2014-10-8T12:28:48Z</time></trkpt>
<trkpt lat="46.18595162" lon="6.10041954"><ele></ele><time>2014-10-8T12:28:51Z</time></trkpt>
<trkpt lat="46.18589806" lon="6.10043999"><ele></ele><time>2014-10-8T12:28:54Z</time></trkpt>
<trkpt lat="46.18584677" lon="6.10046203"><ele></ele><time>2014-10-8T12:28:57Z</time></trkpt>
<trkpt lat="46.18579396" lon="6.10048684"><ele></ele><time>2014-10-8T12:29:0Z</time></trkpt>
<trkpt lat="46.18574124" lon="6.10050998"><ele></ele><time>2014-10-8T12:29:3Z</time></trkpt>
<trkpt lat="46.18568944" lon="6.10053043"><ele></ele><time>2014-10-8T12:29:6Z</time></trkpt>
<trkpt lat="46.18563655" lon="6.10054820"><ele></ele><time>2014-10-8T12:29:9Z</time></trkpt>
<trkpt lat="46.18558299" lon="6.10056505"><ele></ele><time>2014-10-8T12:29:12Z</time></trkpt>
<trkpt lat="46.18553085" lon="6.10058399"><ele></ele><time>2014-10-8T12:29:15Z</time></trkpt>
<trkpt lat="46.18547042" lon="6.10060352"><ele></ele><time>2014-10-8T12:29:18Z</time></trkpt>
<trkpt lat="46.18541334" lon="6.10062565"><ele></ele><time>2014-10-8T12:29:21Z</time></trkpt>
<trkpt lat="46.18536296" lon="6.10064945"><ele></ele><time>2014-10-8T12:29:24Z</time></trkpt>
<trkpt lat="46.18530924" lon="6.10067150"><ele></ele><time>2014-10-8T12:29:27Z</time></trkpt>
<trkpt lat="46.18526045" lon="6.10069245"><ele></ele><time>2014-10-8T12:29:30Z</time></trkpt>
<trkpt lat="46.18521569" lon="6.10071450"><ele></ele><time>2014-10-8T12:29:33Z</time></trkpt>
<trkpt lat="46.18517336" lon="6.10073579"><ele></ele><time>2014-10-8T12:29:36Z</time></trkpt>
<trkpt lat="46.18512768" lon="6.10075104"><ele></ele><time>2014-10-8T12:29:39Z</time></trkpt>
<trkpt lat="46.18508485" lon="6.10075523"><ele></ele><time>2014-10-8T12:29:42Z</time></trkpt>
<trkpt lat="46.18503967" lon="6.10073436"><ele></ele><time>2014-10-8T12:29:45Z</time></trkpt>
<trkpt lat="46.18498812" lon="6.10069538"><ele></ele><time>2014-10-8T12:29:48Z</time></trkpt>
<trkpt lat="46.18494144" lon="6.10065046"><ele></ele><time>2014-10-8T12:29:51Z</time></trkpt>
<trkpt lat="46.18489374" lon="6.10060209"><ele></ele><time>2014-10-8T12:29:54Z</time></trkpt>
<trkpt lat="46.18483876" lon="6.10055046"><ele></ele><time>2014-10-8T12:29:57Z</time></trkpt>
<trkpt lat="46.18479442" lon="6.10050084"><ele></ele><time>2014-10-8T12:30:0Z</time></trkpt>
<trkpt lat="46.18474958" lon="6.10045340"><ele></ele><time>2014-10-8T12:30:3Z</time></trkpt>
<trkpt lat="46.18470297" lon="6.10040747"><ele></ele><time>2014-10-8T12:30:6Z</time></trkpt>
<trkpt lat="46.18465804" lon="6.10036363"><ele></ele><time>2014-10-8T12:30:9Z</time></trkpt>
<trkpt lat="46.18460583" lon="6.10031803"><ele></ele><time>2014-10-8T12:30:12Z</time></trkpt>
<trkpt lat="46.18456098" lon="6.10027344"><ele></ele><time>2014-10-8T12:30:15Z</time></trkpt>
<trkpt lat="46.18451932" lon="6.10023027"><ele></ele><time>2014-10-8T12:30:18Z</time></trkpt>
<trkpt lat="46.18447750" lon="6.10018685"><ele></ele><time>2014-10-8T12:30:21Z</time></trkpt>
<trkpt lat="46.18443375" lon="6.10014335"><ele></ele><time>2014-10-8T12:30:24Z</time></trkpt>
<trkpt lat="46.18438614" lon="6.10010119"><ele></ele><time>2014-10-8T12:30:27Z</time></trkpt>
<trkpt lat="46.18433735" lon="6.10006389"><ele></ele><time>2014-10-8T12:30:30Z</time></trkpt>
<trkpt lat="46.18428773" lon="6.10003003"><ele></ele><time>2014-10-8T12:30:33Z</time></trkpt>
<trkpt lat="46.18423996" lon="6.09999944"><ele></ele><time>2014-10-8T12:30:36Z</time></trkpt>
<trkpt lat="46.18419084" lon="6.09997035"><ele></ele><time>2014-10-8T12:30:39Z</time></trkpt>
<trkpt lat="46.18414172" lon="6.09994085"><ele></ele><time>2014-10-8T12:30:42Z</time></trkpt>
<trkpt lat="46.18409378" lon="6.09991084"><ele></ele><time>2014-10-8T12:30:45Z</time></trkpt>
<trkpt lat="46.18404818" lon="6.09987614"><ele></ele><time>2014-10-8T12:30:48Z</time></trkpt>
<trkpt lat="46.18400820" lon="6.09983029"><ele></ele><time>2014-10-8T12:30:51Z</time></trkpt>
<trkpt lat="46.18397567" lon="6.09979089"><ele></ele><time>2014-10-8T12:30:54Z</time></trkpt>
<trkpt lat="46.18392429" lon="6.09974035"><ele></ele><time>2014-10-8T12:30:57Z</time></trkpt>
<trkpt lat="46.18389705" lon="6.09969006"><ele></ele><time>2014-10-8T12:31:0Z</time></trkpt>
<trkpt lat="46.18387375" lon="6.09962552"><ele></ele><time>2014-10-8T12:31:3Z</time></trkpt>
<trkpt lat="46.18384936" lon="6.09955427"><ele></ele><time>2014-10-8T12:31:6Z</time></trkpt>
<trkpt lat="46.18382304" lon="6.09948076"><ele></ele><time>2014-10-8T12:31:9Z</time></trkpt>
<trkpt lat="46.18379253" lon="6.09940474"><ele></ele><time>2014-10-8T12:31:12Z</time></trkpt>
<trkpt lat="46.18375523" lon="6.09932335"><ele></ele><time>2014-10-8T12:31:15Z</time></trkpt>
<trkpt lat="46.18372522" lon="6.09924439"><ele></ele><time>2014-10-8T12:31:18Z</time></trkpt>
<trkpt lat="46.18369077" lon="6.09916292"><ele></ele><time>2014-10-8T12:31:21Z</time></trkpt>
<trkpt lat="46.18365775" lon="6.09907986"><ele></ele><time>2014-10-8T12:31:24Z</time></trkpt>
<trkpt lat="46.18362296" lon="6.09899713"><ele></ele><time>2014-10-8T12:31:27Z</time></trkpt>
<trkpt lat="46.18358189" lon="6.09891146"><ele></ele><time>2014-10-8T12:31:30Z</time></trkpt>
<trkpt lat="46.18354183" lon="6.09881373"><ele></ele><time>2014-10-8T12:31:33Z</time></trkpt>
<trkpt lat="46.18351014" lon="6.09872924"><ele></ele><time>2014-10-8T12:31:36Z</time></trkpt>
<trkpt lat="46.18347687" lon="6.09863277"><ele></ele><time>2014-10-8T12:31:39Z</time></trkpt>
<trkpt lat="46.18344845" lon="6.09855113"><ele></ele><time>2014-10-8T12:31:42Z</time></trkpt>
<trkpt lat="46.18343135" lon="6.09845742"><ele></ele><time>2014-10-8T12:31:45Z</time></trkpt>
<trkpt lat="46.18340763" lon="6.09836689"><ele></ele><time>2014-10-8T12:31:48Z</time></trkpt>
<trkpt lat="46.18338106" lon="6.09827796"><ele></ele><time>2014-10-8T12:31:51Z</time></trkpt>
<trkpt lat="46.18333513" lon="6.09818459"><ele></ele><time>2014-10-8T12:31:54Z</time></trkpt>
<trkpt lat="46.18330998" lon="6.09808543"><ele></ele><time>2014-10-8T12:31:57Z</time></trkpt>
<trkpt lat="46.18327947" lon="6.09798728"><ele></ele><time>2014-10-8T12:32:0Z</time></trkpt>
<trkpt lat="46.18324695" lon="6.09789784"><ele></ele><time>2014-10-8T12:32:3Z</time></trkpt>
<trkpt lat="46.18321225" lon="6.09782425"><ele></ele><time>2014-10-8T12:32:6Z</time></trkpt>
<trkpt lat="46.18314235" lon="6.09774579"><ele></ele><time>2014-10-8T12:32:9Z</time></trkpt>
<trkpt lat="46.18309767" lon="6.09767463"><ele></ele><time>2014-10-8T12:32:12Z</time></trkpt>
<trkpt lat="46.18307504" lon="6.09761059"><ele></ele><time>2014-10-8T12:32:15Z</time></trkpt>
<trkpt lat="46.18307747" lon="6.09758788"><ele></ele><time>2014-10-8T12:32:18Z</time></trkpt>
<trkpt lat="46.18308879" lon="6.09755544"><ele></ele><time>2014-10-8T12:32:21Z</time></trkpt>
<trkpt lat="46.18309448" lon="6.09750833"><ele></ele><time>2014-10-8T12:32:24Z</time></trkpt>
<trkpt lat="46.18308208" lon="6.09746123"><ele></ele><time>2014-10-8T12:32:27Z</time></trkpt>
<trkpt lat="46.18305467" lon="6.09742544"><ele></ele><time>2014-10-8T12:32:30Z</time></trkpt>
<trkpt lat="46.18302098" lon="6.09738487"><ele></ele><time>2014-10-8T12:32:33Z</time></trkpt>
<trkpt lat="46.18298946" lon="6.09733265"><ele></ele><time>2014-10-8T12:32:36Z</time></trkpt>
<trkpt lat="46.18296985" lon="6.09726484"><ele></ele><time>2014-10-8T12:32:39Z</time></trkpt>
<trkpt lat="46.18295392" lon="6.09718605"><ele></ele><time>2014-10-8T12:32:42Z</time></trkpt>
<trkpt lat="46.18294076" lon="6.09710609"><ele></ele><time>2014-10-8T12:32:45Z</time></trkpt>
<trkpt lat="46.18292249" lon="6.09702327"><ele></ele><time>2014-10-8T12:32:48Z</time></trkpt>
<trkpt lat="46.18290304" lon="6.09694054"><ele></ele><time>2014-10-8T12:32:51Z</time></trkpt>
<trkpt lat="46.18288175" lon="6.09685765"><ele></ele><time>2014-10-8T12:32:54Z</time></trkpt>
<trkpt lat="46.18286147" lon="6.09677383"><ele></ele><time>2014-10-8T12:32:57Z</time></trkpt>
<trkpt lat="46.18284093" lon="6.09669294"><ele></ele><time>2014-10-8T12:33:0Z</time></trkpt>
<trkpt lat="46.18282283" lon="6.09661038"><ele></ele><time>2014-10-8T12:33:3Z</time></trkpt>
<trkpt lat="46.18280506" lon="6.09653000"><ele></ele><time>2014-10-8T12:33:6Z</time></trkpt>
<trkpt lat="46.18278502" lon="6.09645322"><ele></ele><time>2014-10-8T12:33:9Z</time></trkpt>
<trkpt lat="46.18276298" lon="6.09638114"><ele></ele><time>2014-10-8T12:33:12Z</time></trkpt>
<trkpt lat="46.18274504" lon="6.09630939"><ele></ele><time>2014-10-8T12:33:15Z</time></trkpt>
<trkpt lat="46.18273180" lon="6.09622372"><ele></ele><time>2014-10-8T12:33:18Z</time></trkpt>
<trkpt lat="46.18271294" lon="6.09614326"><ele></ele><time>2014-10-8T12:33:21Z</time></trkpt>
<trkpt lat="46.18269475" lon="6.09606556"><ele></ele><time>2014-10-8T12:33:24Z</time></trkpt>
<trkpt lat="46.18267715" lon="6.09598744"><ele></ele><time>2014-10-8T12:33:27Z</time></trkpt>
<trkpt lat="46.18266416" lon="6.09590974"><ele></ele><time>2014-10-8T12:33:30Z</time></trkpt>
<trkpt lat="46.18265192" lon="6.09583246"><ele></ele><time>2014-10-8T12:33:33Z</time></trkpt>
<trkpt lat="46.18264236" lon="6.09575492"><ele></ele><time>2014-10-8T12:33:36Z</time></trkpt>
<trkpt lat="46.18263843" lon="6.09567773"><ele></ele><time>2014-10-8T12:33:39Z</time></trkpt>
<trkpt lat="46.18262728" lon="6.09560095"><ele></ele><time>2014-10-8T12:33:42Z</time></trkpt>
<trkpt lat="46.18260867" lon="6.09552409"><ele></ele><time>2014-10-8T12:33:45Z</time></trkpt>
<trkpt lat="46.18259886" lon="6.09544563"><ele></ele><time>2014-10-8T12:33:48Z</time></trkpt>
<trkpt lat="46.18259585" lon="6.09536709"><ele></ele><time>2014-10-8T12:33:51Z</time></trkpt>
<trkpt lat="46.18259819" lon="6.09528327"><ele></ele><time>2014-10-8T12:33:54Z</time></trkpt>
<trkpt lat="46.18259618" lon="6.09520088"><ele></ele><time>2014-10-8T12:33:57Z</time></trkpt>
<trkpt lat="46.18258897" lon="6.09511740"><ele></ele><time>2014-10-8T12:34:0Z</time></trkpt>
<trkpt lat="46.18258025" lon="6.09503316"><ele></ele><time>2014-10-8T12:34:3Z</time></trkpt>
<trkpt lat="46.18256886" lon="6.09494766"><ele></ele><time>2014-10-8T12:34:6Z</time></trkpt>
<trkpt lat="46.18255352" lon="6.09486208"><ele></ele><time>2014-10-8T12:34:9Z</time></trkpt>
<trkpt lat="46.18253709" lon="6.09477617"><ele></ele><time>2014-10-8T12:34:12Z</time></trkpt>
<trkpt lat="46.18252217" lon="6.09468749"><ele></ele><time>2014-10-8T12:34:15Z</time></trkpt>
<trkpt lat="46.18250700" lon="6.09459445"><ele></ele><time>2014-10-8T12:34:18Z</time></trkpt>
<trkpt lat="46.18249820" lon="6.09450007"><ele></ele><time>2014-10-8T12:34:21Z</time></trkpt>
<trkpt lat="46.18249367" lon="6.09440376"><ele></ele><time>2014-10-8T12:34:24Z</time></trkpt>
<trkpt lat="46.18249149" lon="6.09430703"><ele></ele><time>2014-10-8T12:34:27Z</time></trkpt>
<trkpt lat="46.18248772" lon="6.09421014"><ele></ele><time>2014-10-8T12:34:30Z</time></trkpt>
<trkpt lat="46.18248143" lon="6.09411400"><ele></ele><time>2014-10-8T12:34:33Z</time></trkpt>
<trkpt lat="46.18247238" lon="6.09401786"><ele></ele><time>2014-10-8T12:34:36Z</time></trkpt>
<trkpt lat="46.18246282" lon="6.09392130"><ele></ele><time>2014-10-8T12:34:39Z</time></trkpt>
<trkpt lat="46.18245319" lon="6.09382482"><ele></ele><time>2014-10-8T12:34:42Z</time></trkpt>
<trkpt lat="46.18244246" lon="6.09372927"><ele></ele><time>2014-10-8T12:34:45Z</time></trkpt>
<trkpt lat="46.18242896" lon="6.09363212"><ele></ele><time>2014-10-8T12:34:48Z</time></trkpt>
<trkpt lat="46.18241278" lon="6.09353498"><ele></ele><time>2014-10-8T12:34:51Z</time></trkpt>
<trkpt lat="46.18239837" lon="6.09343624"><ele></ele><time>2014-10-8T12:34:54Z</time></trkpt>
<trkpt lat="46.18238940" lon="6.09333683"><ele></ele><time>2014-10-8T12:34:57Z</time></trkpt>
<trkpt lat="46.18237808" lon="6.09323625"><ele></ele><time>2014-10-8T12:35:0Z</time></trkpt>
<trkpt lat="46.18236870" lon="6.09313566"><ele></ele><time>2014-10-8T12:35:3Z</time></trkpt>
<trkpt lat="46.18235864" lon="6.09303525"><ele></ele><time>2014-10-8T12:35:6Z</time></trkpt>
<trkpt lat="46.18234875" lon="6.09294045"><ele></ele><time>2014-10-8T12:35:9Z</time></trkpt>
<trkpt lat="46.18233894" lon="6.09284808"><ele></ele><time>2014-10-8T12:35:12Z</time></trkpt>
<trkpt lat="46.18232888" lon="6.09275714"><ele></ele><time>2014-10-8T12:35:15Z</time></trkpt>
<trkpt lat="46.18231916" lon="6.09267223"><ele></ele><time>2014-10-8T12:35:18Z</time></trkpt>
<trkpt lat="46.18229854" lon="6.09259604"><ele></ele><time>2014-10-8T12:35:21Z</time></trkpt>
<trkpt lat="46.18226887" lon="6.09253284"><ele></ele><time>2014-10-8T12:35:24Z</time></trkpt>
<trkpt lat="46.18222168" lon="6.09248104"><ele></ele><time>2014-10-8T12:35:27Z</time></trkpt>
<trkpt lat="46.18217574" lon="6.09243594"><ele></ele><time>2014-10-8T12:35:30Z</time></trkpt>
<trkpt lat="46.18215202" lon="6.09240384"><ele></ele><time>2014-10-8T12:35:33Z</time></trkpt>
<trkpt lat="46.18210383" lon="6.09236285"><ele></ele><time>2014-10-8T12:35:36Z</time></trkpt>
<trkpt lat="46.18206083" lon="6.09232170"><ele></ele><time>2014-10-8T12:35:39Z</time></trkpt>
<trkpt lat="46.18201473" lon="6.09227928"><ele></ele><time>2014-10-8T12:35:42Z</time></trkpt>
<trkpt lat="46.18196863" lon="6.09223343"><ele></ele><time>2014-10-8T12:35:45Z</time></trkpt>
<trkpt lat="46.18192328" lon="6.09218365"><ele></ele><time>2014-10-8T12:35:48Z</time></trkpt>
<trkpt lat="46.18188028" lon="6.09213218"><ele></ele><time>2014-10-8T12:35:51Z</time></trkpt>
<trkpt lat="46.18183653" lon="6.09207393"><ele></ele><time>2014-10-8T12:35:54Z</time></trkpt>
<trkpt lat="46.18180049" lon="6.09200838"><ele></ele><time>2014-10-8T12:35:57Z</time></trkpt>
<trkpt lat="46.18176704" lon="6.09194024"><ele></ele><time>2014-10-8T12:36:0Z</time></trkpt>
<trkpt lat="46.18173586" lon="6.09186949"><ele></ele><time>2014-10-8T12:36:3Z</time></trkpt>
<trkpt lat="46.18170728" lon="6.09179607"><ele></ele><time>2014-10-8T12:36:6Z</time></trkpt>
<trkpt lat="46.18168306" lon="6.09172264"><ele></ele><time>2014-10-8T12:36:9Z</time></trkpt>
<trkpt lat="46.18165866" lon="6.09164402"><ele></ele><time>2014-10-8T12:36:12Z</time></trkpt>
<trkpt lat="46.18163754" lon="6.09156196"><ele></ele><time>2014-10-8T12:36:15Z</time></trkpt>
<trkpt lat="46.18161013" lon="6.09147848"><ele></ele><time>2014-10-8T12:36:18Z</time></trkpt>
<trkpt lat="46.18158859" lon="6.09140044"><ele></ele><time>2014-10-8T12:36:21Z</time></trkpt>
<trkpt lat="46.18157107" lon="6.09132752"><ele></ele><time>2014-10-8T12:36:24Z</time></trkpt>
<trkpt lat="46.18155465" lon="6.09126667"><ele></ele><time>2014-10-8T12:36:27Z</time></trkpt>
<trkpt lat="46.18153252" lon="6.09120330"><ele></ele><time>2014-10-8T12:36:30Z</time></trkpt>
<trkpt lat="46.18150544" lon="6.09113742"><ele></ele><time>2014-10-8T12:36:33Z</time></trkpt>
<trkpt lat="46.18148239" lon="6.09107975"><ele></ele><time>2014-10-8T12:36:36Z</time></trkpt>
<trkpt lat="46.18144736" lon="6.09102627"><ele></ele><time>2014-10-8T12:36:39Z</time></trkpt>
<trkpt lat="46.18141006" lon="6.09097967"><ele></ele><time>2014-10-8T12:36:42Z</time></trkpt>
<trkpt lat="46.18136865" lon="6.09093198"><ele></ele><time>2014-10-8T12:36:45Z</time></trkpt>
<trkpt lat="46.18133085" lon="6.09088604"><ele></ele><time>2014-10-8T12:36:48Z</time></trkpt>
<trkpt lat="46.18129145" lon="6.09084137"><ele></ele><time>2014-10-8T12:36:51Z</time></trkpt>
<trkpt lat="46.18124376" lon="6.09079275"><ele></ele><time>2014-10-8T12:36:54Z</time></trkpt>
<trkpt lat="46.18119464" lon="6.09074657"><ele></ele><time>2014-10-8T12:36:57Z</time></trkpt>
<trkpt lat="46.18114033" lon="6.09070273"><ele></ele><time>2014-10-8T12:37:0Z</time></trkpt>
<trkpt lat="46.18108962" lon="6.09065386"><ele></ele><time>2014-10-8T12:37:3Z</time></trkpt>
<trkpt lat="46.18104142" lon="6.09060047"><ele></ele><time>2014-10-8T12:37:6Z</time></trkpt>
<trkpt lat="46.18099515" lon="6.09054959"><ele></ele><time>2014-10-8T12:37:9Z</time></trkpt>
<trkpt lat="46.18094838" lon="6.09050224"><ele></ele><time>2014-10-8T12:37:12Z</time></trkpt>
<trkpt lat="46.18090312" lon="6.09045614"><ele></ele><time>2014-10-8T12:37:15Z</time></trkpt>
<trkpt lat="46.18085543" lon="6.09041163"><ele></ele><time>2014-10-8T12:37:18Z</time></trkpt>
<trkpt lat="46.18080866" lon="6.09037039"><ele></ele><time>2014-10-8T12:37:21Z</time></trkpt>
<trkpt lat="46.18076054" lon="6.09032672"><ele></ele><time>2014-10-8T12:37:24Z</time></trkpt>
<trkpt lat="46.18071419" lon="6.09028196"><ele></ele><time>2014-10-8T12:37:27Z</time></trkpt>
<trkpt lat="46.18066826" lon="6.09023896"><ele></ele><time>2014-10-8T12:37:30Z</time></trkpt>
<trkpt lat="46.18062392" lon="6.09019219"><ele></ele><time>2014-10-8T12:37:33Z</time></trkpt>
<trkpt lat="46.18058092" lon="6.09013787"><ele></ele><time>2014-10-8T12:37:36Z</time></trkpt>
<trkpt lat="46.18053742" lon="6.09008272"><ele></ele><time>2014-10-8T12:37:39Z</time></trkpt>
<trkpt lat="46.18049249" lon="6.09003285"><ele></ele><time>2014-10-8T12:37:42Z</time></trkpt>
<trkpt lat="46.18044513" lon="6.08998558"><ele></ele><time>2014-10-8T12:37:45Z</time></trkpt>
<trkpt lat="46.18039618" lon="6.08993612"><ele></ele><time>2014-10-8T12:37:48Z</time></trkpt>
<trkpt lat="46.18034673" lon="6.08988533"><ele></ele><time>2014-10-8T12:37:51Z</time></trkpt>
<trkpt lat="46.18029786" lon="6.08983286"><ele></ele><time>2014-10-8T12:37:54Z</time></trkpt>
<trkpt lat="46.18024992" lon="6.08977603"><ele></ele><time>2014-10-8T12:37:57Z</time></trkpt>
<trkpt lat="46.18020315" lon="6.08971484"><ele></ele><time>2014-10-8T12:38:0Z</time></trkpt>
<trkpt lat="46.18015654" lon="6.08965156"><ele></ele><time>2014-10-8T12:38:3Z</time></trkpt>
<trkpt lat="46.18010826" lon="6.08958668"><ele></ele><time>2014-10-8T12:38:6Z</time></trkpt>
<trkpt lat="46.18006409" lon="6.08952465"><ele></ele><time>2014-10-8T12:38:9Z</time></trkpt>
<trkpt lat="46.18001875" lon="6.08946523"><ele></ele><time>2014-10-8T12:38:12Z</time></trkpt>
<trkpt lat="46.17997156" lon="6.08940857"><ele></ele><time>2014-10-8T12:38:15Z</time></trkpt>
<trkpt lat="46.17992244" lon="6.08935199"><ele></ele><time>2014-10-8T12:38:18Z</time></trkpt>
<trkpt lat="46.17987349" lon="6.08929256"><ele></ele><time>2014-10-8T12:38:21Z</time></trkpt>
<trkpt lat="46.17982269" lon="6.08922693"><ele></ele><time>2014-10-8T12:38:24Z</time></trkpt>
<trkpt lat="46.17977760" lon="6.08915744"><ele></ele><time>2014-10-8T12:38:27Z</time></trkpt>
<trkpt lat="46.17973410" lon="6.08908796"><ele></ele><time>2014-10-8T12:38:30Z</time></trkpt>
<trkpt lat="46.17969009" lon="6.08902099"><ele></ele><time>2014-10-8T12:38:33Z</time></trkpt>
<trkpt lat="46.17964776" lon="6.08895452"><ele></ele><time>2014-10-8T12:38:36Z</time></trkpt>
<trkpt lat="46.17960510" lon="6.08889165"><ele></ele><time>2014-10-8T12:38:39Z</time></trkpt>
<trkpt lat="46.17956738" lon="6.08883508"><ele></ele><time>2014-10-8T12:38:42Z</time></trkpt>
<trkpt lat="46.17953167" lon="6.08877917"><ele></ele><time>2014-10-8T12:38:45Z</time></trkpt>
<trkpt lat="46.17950276" lon="6.08872837"><ele></ele><time>2014-10-8T12:38:48Z</time></trkpt>
<trkpt lat="46.17946428" lon="6.08868697"><ele></ele><time>2014-10-8T12:38:51Z</time></trkpt>
<trkpt lat="46.17941776" lon="6.08866593"><ele></ele><time>2014-10-8T12:38:54Z</time></trkpt>
<trkpt lat="46.17936202" lon="6.08866484"><ele></ele><time>2014-10-8T12:38:57Z</time></trkpt>
<trkpt lat="46.17929849" lon="6.08867180"><ele></ele><time>2014-10-8T12:39:0Z</time></trkpt>
<trkpt lat="46.17922917" lon="6.08867515"><ele></ele><time>2014-10-8T12:39:3Z</time></trkpt>
<trkpt lat="46.17915876" lon="6.08867196"><ele></ele><time>2014-10-8T12:39:6Z</time></trkpt>
<trkpt lat="46.17909539" lon="6.08866098"><ele></ele><time>2014-10-8T12:39:9Z</time></trkpt>
<trkpt lat="46.17903898" lon="6.08864648"><ele></ele><time>2014-10-8T12:39:12Z</time></trkpt>
<trkpt lat="46.17899112" lon="6.08863818"><ele></ele><time>2014-10-8T12:39:15Z</time></trkpt>
<trkpt lat="46.17894435" lon="6.08863684"><ele></ele><time>2014-10-8T12:39:18Z</time></trkpt>
<trkpt lat="46.17889842" lon="6.08863684"><ele></ele><time>2014-10-8T12:39:21Z</time></trkpt>
<trkpt lat="46.17885869" lon="6.08863458"><ele></ele><time>2014-10-8T12:39:24Z</time></trkpt>
<trkpt lat="46.17883069" lon="6.08863114"><ele></ele><time>2014-10-8T12:39:27Z</time></trkpt>
<trkpt lat="46.17881360" lon="6.08862662"><ele></ele><time>2014-10-8T12:39:30Z</time></trkpt>
<trkpt lat="46.17880605" lon="6.08862326"><ele></ele><time>2014-10-8T12:39:33Z</time></trkpt>
<trkpt lat="46.17880404" lon="6.08862159"><ele></ele><time>2014-10-8T12:39:36Z</time></trkpt>
<trkpt lat="46.17881007" lon="6.08862318"><ele></ele><time>2014-10-8T12:39:39Z</time></trkpt>
<trkpt lat="46.17881343" lon="6.08862486"><ele></ele><time>2014-10-8T12:39:42Z</time></trkpt>
<trkpt lat="46.17881150" lon="6.08862477"><ele></ele><time>2014-10-8T12:39:45Z</time></trkpt>
<trkpt lat="46.17880932" lon="6.08862477"><ele></ele><time>2014-10-8T12:39:48Z</time></trkpt>
<trkpt lat="46.17880748" lon="6.08862477"><ele></ele><time>2014-10-8T12:39:51Z</time></trkpt>
<trkpt lat="46.17880546" lon="6.08862444"><ele></ele><time>2014-10-8T12:39:54Z</time></trkpt>
<trkpt lat="46.17880337" lon="6.08862469"><ele></ele><time>2014-10-8T12:39:57Z</time></trkpt>
<trkpt lat="46.17880127" lon="6.08862477"><ele></ele><time>2014-10-8T12:40:0Z</time></trkpt>
<trkpt lat="46.17879968" lon="6.08862486"><ele></ele><time>2014-10-8T12:40:3Z</time></trkpt>
<trkpt lat="46.17879834" lon="6.08862603"><ele></ele><time>2014-10-8T12:40:6Z</time></trkpt>
<trkpt lat="46.17879239" lon="6.08862595"><ele></ele><time>2014-10-8T12:40:9Z</time></trkpt>
<trkpt lat="46.17878719" lon="6.08862570"><ele></ele><time>2014-10-8T12:40:12Z</time></trkpt>
<trkpt lat="46.17878702" lon="6.08863064"><ele></ele><time>2014-10-8T12:40:15Z</time></trkpt>
<trkpt lat="46.17877495" lon="6.08863265"><ele></ele><time>2014-10-8T12:40:18Z</time></trkpt>
<trkpt lat="46.17876213" lon="6.08862913"><ele></ele><time>2014-10-8T12:40:21Z</time></trkpt>
<trkpt lat="46.17874319" lon="6.08860985"><ele></ele><time>2014-10-8T12:40:24Z</time></trkpt>
<trkpt lat="46.17872232" lon="6.08857993"><ele></ele><time>2014-10-8T12:40:27Z</time></trkpt>
<trkpt lat="46.17870815" lon="6.08853953"><ele></ele><time>2014-10-8T12:40:30Z</time></trkpt>
<trkpt lat="46.17870203" lon="6.08848882"><ele></ele><time>2014-10-8T12:40:33Z</time></trkpt>
<trkpt lat="46.17870128" lon="6.08842914"><ele></ele><time>2014-10-8T12:40:36Z</time></trkpt>
<trkpt lat="46.17869893" lon="6.08836150"><ele></ele><time>2014-10-8T12:40:39Z</time></trkpt>
<trkpt lat="46.17869667" lon="6.08828413"><ele></ele><time>2014-10-8T12:40:42Z</time></trkpt>
<trkpt lat="46.17869382" lon="6.08820057"><ele></ele><time>2014-10-8T12:40:45Z</time></trkpt>
<trkpt lat="46.17868954" lon="6.08811306"><ele></ele><time>2014-10-8T12:40:48Z</time></trkpt>
<trkpt lat="46.17868342" lon="6.08802220"><ele></ele><time>2014-10-8T12:40:51Z</time></trkpt>
<trkpt lat="46.17867546" lon="6.08792782"><ele></ele><time>2014-10-8T12:40:54Z</time></trkpt>
<trkpt lat="46.17866976" lon="6.08782858"><ele></ele><time>2014-10-8T12:40:57Z</time></trkpt>
<trkpt lat="46.17866809" lon="6.08772716"><ele></ele><time>2014-10-8T12:41:0Z</time></trkpt>
<trkpt lat="46.17867043" lon="6.08762238"><ele></ele><time>2014-10-8T12:41:3Z</time></trkpt>
<trkpt lat="46.17867437" lon="6.08751618"><ele></ele><time>2014-10-8T12:41:6Z</time></trkpt>
<trkpt lat="46.17867739" lon="6.08741015"><ele></ele><time>2014-10-8T12:41:9Z</time></trkpt>
<trkpt lat="46.17867865" lon="6.08731083"><ele></ele><time>2014-10-8T12:41:12Z</time></trkpt>
<trkpt lat="46.17868418" lon="6.08720622"><ele></ele><time>2014-10-8T12:41:15Z</time></trkpt>
<trkpt lat="46.17868586" lon="6.08711544"><ele></ele><time>2014-10-8T12:41:18Z</time></trkpt>
<trkpt lat="46.17869273" lon="6.08702249"><ele></ele><time>2014-10-8T12:41:21Z</time></trkpt>
<trkpt lat="46.17870555" lon="6.08692358"><ele></ele><time>2014-10-8T12:41:24Z</time></trkpt>
<trkpt lat="46.17871662" lon="6.08682719"><ele></ele><time>2014-10-8T12:41:27Z</time></trkpt>
<trkpt lat="46.17872533" lon="6.08673600"><ele></ele><time>2014-10-8T12:41:30Z</time></trkpt>
<trkpt lat="46.17873522" lon="6.08664782"><ele></ele><time>2014-10-8T12:41:33Z</time></trkpt>
<trkpt lat="46.17874486" lon="6.08655998"><ele></ele><time>2014-10-8T12:41:36Z</time></trkpt>
<trkpt lat="46.17875216" lon="6.08647364"><ele></ele><time>2014-10-8T12:41:39Z</time></trkpt>
<trkpt lat="46.17875936" lon="6.08638756"><ele></ele><time>2014-10-8T12:41:42Z</time></trkpt>
<trkpt lat="46.17876867" lon="6.08630240"><ele></ele><time>2014-10-8T12:41:45Z</time></trkpt>
<trkpt lat="46.17877906" lon="6.08621774"><ele></ele><time>2014-10-8T12:41:48Z</time></trkpt>
<trkpt lat="46.17879063" lon="6.08613417"><ele></ele><time>2014-10-8T12:41:51Z</time></trkpt>
<trkpt lat="46.17880538" lon="6.08605245"><ele></ele><time>2014-10-8T12:41:54Z</time></trkpt>
<trkpt lat="46.17881955" lon="6.08598649"><ele></ele><time>2014-10-8T12:41:57Z</time></trkpt>
<trkpt lat="46.17882835" lon="6.08590895"><ele></ele><time>2014-10-8T12:42:0Z</time></trkpt>
<trkpt lat="46.17883950" lon="6.08583662"><ele></ele><time>2014-10-8T12:42:3Z</time></trkpt>
<trkpt lat="46.17885207" lon="6.08576504"><ele></ele><time>2014-10-8T12:42:6Z</time></trkpt>
<trkpt lat="46.17886623" lon="6.08568968"><ele></ele><time>2014-10-8T12:42:9Z</time></trkpt>
<trkpt lat="46.17888073" lon="6.08561022"><ele></ele><time>2014-10-8T12:42:12Z</time></trkpt>
<trkpt lat="46.17889599" lon="6.08552716"><ele></ele><time>2014-10-8T12:42:15Z</time></trkpt>
<trkpt lat="46.17891887" lon="6.08541174"><ele></ele><time>2014-10-8T12:42:18Z</time></trkpt>
<trkpt lat="46.17893849" lon="6.08531409"><ele></ele><time>2014-10-8T12:42:21Z</time></trkpt>
<trkpt lat="46.17895734" lon="6.08521937"><ele></ele><time>2014-10-8T12:42:24Z</time></trkpt>
<trkpt lat="46.17897612" lon="6.08512089"><ele></ele><time>2014-10-8T12:42:27Z</time></trkpt>
<trkpt lat="46.17899582" lon="6.08502198"><ele></ele><time>2014-10-8T12:42:30Z</time></trkpt>
<trkpt lat="46.17901518" lon="6.08492525"><ele></ele><time>2014-10-8T12:42:33Z</time></trkpt>
<trkpt lat="46.17904527" lon="6.08483708"><ele></ele><time>2014-10-8T12:42:36Z</time></trkpt>
<trkpt lat="46.17908584" lon="6.08475896"><ele></ele><time>2014-10-8T12:42:39Z</time></trkpt>
<trkpt lat="46.17913362" lon="6.08469106"><ele></ele><time>2014-10-8T12:42:42Z</time></trkpt>
<trkpt lat="46.17918265" lon="6.08462736"><ele></ele><time>2014-10-8T12:42:45Z</time></trkpt>
<trkpt lat="46.17923135" lon="6.08456609"><ele></ele><time>2014-10-8T12:42:48Z</time></trkpt>
<trkpt lat="46.17927376" lon="6.08449099"><ele></ele><time>2014-10-8T12:42:51Z</time></trkpt>
<trkpt lat="46.17931165" lon="6.08433953"><ele></ele><time>2014-10-8T12:42:54Z</time></trkpt>
<trkpt lat="46.17933076" lon="6.08425143"><ele></ele><time>2014-10-8T12:42:57Z</time></trkpt>
<trkpt lat="46.17935507" lon="6.08414565"><ele></ele><time>2014-10-8T12:43:0Z</time></trkpt>
<trkpt lat="46.17935557" lon="6.08405286"><ele></ele><time>2014-10-8T12:43:3Z</time></trkpt>
<trkpt lat="46.17934333" lon="6.08393736"><ele></ele><time>2014-10-8T12:43:6Z</time></trkpt>
<trkpt lat="46.17934484" lon="6.08383720"><ele></ele><time>2014-10-8T12:43:9Z</time></trkpt>
<trkpt lat="46.17933302" lon="6.08374349"><ele></ele><time>2014-10-8T12:43:12Z</time></trkpt>
<trkpt lat="46.17931936" lon="6.08365146"><ele></ele><time>2014-10-8T12:43:15Z</time></trkpt>
<trkpt lat="46.17931525" lon="6.08355959"><ele></ele><time>2014-10-8T12:43:18Z</time></trkpt>
<trkpt lat="46.17931274" lon="6.08348876"><ele></ele><time>2014-10-8T12:43:21Z</time></trkpt>
<trkpt lat="46.17932112" lon="6.08340947"><ele></ele><time>2014-10-8T12:43:24Z</time></trkpt>
<trkpt lat="46.17932883" lon="6.08334635"><ele></ele><time>2014-10-8T12:43:27Z</time></trkpt>
<trkpt lat="46.17933763" lon="6.08328450"><ele></ele><time>2014-10-8T12:43:30Z</time></trkpt>
<trkpt lat="46.17934769" lon="6.08321249"><ele></ele><time>2014-10-8T12:43:33Z</time></trkpt>
<trkpt lat="46.17935834" lon="6.08314100"><ele></ele><time>2014-10-8T12:43:36Z</time></trkpt>
<trkpt lat="46.17936655" lon="6.08305869"><ele></ele><time>2014-10-8T12:43:39Z</time></trkpt>
<trkpt lat="46.17937359" lon="6.08298132"><ele></ele><time>2014-10-8T12:43:42Z</time></trkpt>
<trkpt lat="46.17938055" lon="6.08290689"><ele></ele><time>2014-10-8T12:43:45Z</time></trkpt>
<trkpt lat="46.17938432" lon="6.08285006"><ele></ele><time>2014-10-8T12:43:48Z</time></trkpt>
<trkpt lat="46.17939438" lon="6.08275996"><ele></ele><time>2014-10-8T12:43:51Z</time></trkpt>
<trkpt lat="46.17940226" lon="6.08268427"><ele></ele><time>2014-10-8T12:43:54Z</time></trkpt>
<trkpt lat="46.17941106" lon="6.08260942"><ele></ele><time>2014-10-8T12:43:57Z</time></trkpt>
<trkpt lat="46.17942028" lon="6.08253532"><ele></ele><time>2014-10-8T12:44:0Z</time></trkpt>
<trkpt lat="46.17942916" lon="6.08246014"><ele></ele><time>2014-10-8T12:44:3Z</time></trkpt>
<trkpt lat="46.17943830" lon="6.08238713"><ele></ele><time>2014-10-8T12:44:6Z</time></trkpt>
<trkpt lat="46.17944844" lon="6.08231052"><ele></ele><time>2014-10-8T12:44:9Z</time></trkpt>
<trkpt lat="46.17945984" lon="6.08223416"><ele></ele><time>2014-10-8T12:44:12Z</time></trkpt>
<trkpt lat="46.17947225" lon="6.08215612"><ele></ele><time>2014-10-8T12:44:15Z</time></trkpt>
<trkpt lat="46.17948633" lon="6.08207717"><ele></ele><time>2014-10-8T12:44:18Z</time></trkpt>
<trkpt lat="46.17950049" lon="6.08199963"><ele></ele><time>2014-10-8T12:44:21Z</time></trkpt>
<trkpt lat="46.17951164" lon="6.08192872"><ele></ele><time>2014-10-8T12:44:24Z</time></trkpt>
<trkpt lat="46.17952379" lon="6.08185220"><ele></ele><time>2014-10-8T12:44:27Z</time></trkpt>
<trkpt lat="46.17953637" lon="6.08177307"><ele></ele><time>2014-10-8T12:44:30Z</time></trkpt>
<trkpt lat="46.17954886" lon="6.08169219"><ele></ele><time>2014-10-8T12:44:33Z</time></trkpt>
<trkpt lat="46.17956109" lon="6.08160987"><ele></ele><time>2014-10-8T12:44:36Z</time></trkpt>
<trkpt lat="46.17957333" lon="6.08152689"><ele></ele><time>2014-10-8T12:44:39Z</time></trkpt>
<trkpt lat="46.17958632" lon="6.08144433"><ele></ele><time>2014-10-8T12:44:42Z</time></trkpt>
<trkpt lat="46.17959789" lon="6.08136244"><ele></ele><time>2014-10-8T12:44:45Z</time></trkpt>
<trkpt lat="46.17960778" lon="6.08128072"><ele></ele><time>2014-10-8T12:44:48Z</time></trkpt>
<trkpt lat="46.17961859" lon="6.08119849"><ele></ele><time>2014-10-8T12:44:51Z</time></trkpt>
<trkpt lat="46.17962899" lon="6.08111492"><ele></ele><time>2014-10-8T12:44:54Z</time></trkpt>
<trkpt lat="46.17963804" lon="6.08103203"><ele></ele><time>2014-10-8T12:44:57Z</time></trkpt>
<trkpt lat="46.17964743" lon="6.08094754"><ele></ele><time>2014-10-8T12:45:0Z</time></trkpt>
<trkpt lat="46.17965925" lon="6.08085265"><ele></ele><time>2014-10-8T12:45:3Z</time></trkpt>
<trkpt lat="46.17967064" lon="6.08076037"><ele></ele><time>2014-10-8T12:45:6Z</time></trkpt>
<trkpt lat="46.17968037" lon="6.08067454"><ele></ele><time>2014-10-8T12:45:9Z</time></trkpt>
<trkpt lat="46.17968892" lon="6.08058745"><ele></ele><time>2014-10-8T12:45:12Z</time></trkpt>
<trkpt lat="46.17969713" lon="6.08049919"><ele></ele><time>2014-10-8T12:45:15Z</time></trkpt>
<trkpt lat="46.17970535" lon="6.08041126"><ele></ele><time>2014-10-8T12:45:18Z</time></trkpt>
<trkpt lat="46.17971297" lon="6.08032325"><ele></ele><time>2014-10-8T12:45:21Z</time></trkpt>
<trkpt lat="46.17971943" lon="6.08023407"><ele></ele><time>2014-10-8T12:45:24Z</time></trkpt>
<trkpt lat="46.17972546" lon="6.08014430"><ele></ele><time>2014-10-8T12:45:27Z</time></trkpt>
<trkpt lat="46.17972722" lon="6.08007029"><ele></ele><time>2014-10-8T12:45:30Z</time></trkpt>
<trkpt lat="46.17973032" lon="6.07998974"><ele></ele><time>2014-10-8T12:45:33Z</time></trkpt>
<trkpt lat="46.17973669" lon="6.07990248"><ele></ele><time>2014-10-8T12:45:36Z</time></trkpt>
<trkpt lat="46.17974248" lon="6.07980525"><ele></ele><time>2014-10-8T12:45:39Z</time></trkpt>
<trkpt lat="46.17975128" lon="6.07971095"><ele></ele><time>2014-10-8T12:45:42Z</time></trkpt>
<trkpt lat="46.17976016" lon="6.07962035"><ele></ele><time>2014-10-8T12:45:45Z</time></trkpt>
<trkpt lat="46.17976746" lon="6.07953276"><ele></ele><time>2014-10-8T12:45:48Z</time></trkpt>
<trkpt lat="46.17977165" lon="6.07944969"><ele></ele><time>2014-10-8T12:45:51Z</time></trkpt>
<trkpt lat="46.17977022" lon="6.07938574"><ele></ele><time>2014-10-8T12:45:54Z</time></trkpt>
<trkpt lat="46.17977089" lon="6.07930996"><ele></ele><time>2014-10-8T12:45:57Z</time></trkpt>
<trkpt lat="46.17977148" lon="6.07923662"><ele></ele><time>2014-10-8T12:46:0Z</time></trkpt>
<trkpt lat="46.17977274" lon="6.07916496"><ele></ele><time>2014-10-8T12:46:3Z</time></trkpt>
<trkpt lat="46.17977609" lon="6.07908919"><ele></ele><time>2014-10-8T12:46:6Z</time></trkpt>
<trkpt lat="46.17977902" lon="6.07902029"><ele></ele><time>2014-10-8T12:46:9Z</time></trkpt>
<trkpt lat="46.17978615" lon="6.07895792"><ele></ele><time>2014-10-8T12:46:12Z</time></trkpt>
<trkpt lat="46.17979495" lon="6.07891937"><ele></ele><time>2014-10-8T12:46:15Z</time></trkpt>
<trkpt lat="46.17980819" lon="6.07889355"><ele></ele><time>2014-10-8T12:46:18Z</time></trkpt>
<trkpt lat="46.17982253" lon="6.07886237"><ele></ele><time>2014-10-8T12:46:21Z</time></trkpt>
<trkpt lat="46.17982906" lon="6.07884376"><ele></ele><time>2014-10-8T12:46:24Z</time></trkpt>
<trkpt lat="46.17983275" lon="6.07882884"><ele></ele><time>2014-10-8T12:46:27Z</time></trkpt>
<trkpt lat="46.17983133" lon="6.07882163"><ele></ele><time>2014-10-8T12:46:30Z</time></trkpt>
<trkpt lat="46.17983024" lon="6.07881744"><ele></ele><time>2014-10-8T12:46:33Z</time></trkpt>
<trkpt lat="46.17983057" lon="6.07880143"><ele></ele><time>2014-10-8T12:46:36Z</time></trkpt>
<trkpt lat="46.17983082" lon="6.07877587"><ele></ele><time>2014-10-8T12:46:39Z</time></trkpt>
<trkpt lat="46.17983367" lon="6.07874486"><ele></ele><time>2014-10-8T12:46:42Z</time></trkpt>
<trkpt lat="46.17983267" lon="6.07870496"><ele></ele><time>2014-10-8T12:46:45Z</time></trkpt>
<trkpt lat="46.17982722" lon="6.07865785"><ele></ele><time>2014-10-8T12:46:48Z</time></trkpt>
<trkpt lat="46.17981934" lon="6.07860572"><ele></ele><time>2014-10-8T12:46:51Z</time></trkpt>
<trkpt lat="46.17980719" lon="6.07855543"><ele></ele><time>2014-10-8T12:46:54Z</time></trkpt>
<trkpt lat="46.17978849" lon="6.07850815"><ele></ele><time>2014-10-8T12:46:57Z</time></trkpt>
<trkpt lat="46.17976637" lon="6.07846054"><ele></ele><time>2014-10-8T12:47:0Z</time></trkpt>
<trkpt lat="46.17974692" lon="6.07840547"><ele></ele><time>2014-10-8T12:47:3Z</time></trkpt>
<trkpt lat="46.17973502" lon="6.07834646"><ele></ele><time>2014-10-8T12:47:6Z</time></trkpt>
<trkpt lat="46.17973234" lon="6.07827924"><ele></ele><time>2014-10-8T12:47:9Z</time></trkpt>
<trkpt lat="46.17972898" lon="6.07820984"><ele></ele><time>2014-10-8T12:47:12Z</time></trkpt>
<trkpt lat="46.17972647" lon="6.07813423"><ele></ele><time>2014-10-8T12:47:15Z</time></trkpt>
<trkpt lat="46.17972320" lon="6.07805662"><ele></ele><time>2014-10-8T12:47:18Z</time></trkpt>
<trkpt lat="46.17972052" lon="6.07797909"><ele></ele><time>2014-10-8T12:47:21Z</time></trkpt>
<trkpt lat="46.17971398" lon="6.07789845"><ele></ele><time>2014-10-8T12:47:24Z</time></trkpt>
<trkpt lat="46.17970694" lon="6.07781983"><ele></ele><time>2014-10-8T12:47:27Z</time></trkpt>
<trkpt lat="46.17969856" lon="6.07774397"><ele></ele><time>2014-10-8T12:47:30Z</time></trkpt>
<trkpt lat="46.17969017" lon="6.07766116"><ele></ele><time>2014-10-8T12:47:33Z</time></trkpt>
<trkpt lat="46.17968230" lon="6.07757558"><ele></ele><time>2014-10-8T12:47:36Z</time></trkpt>
<trkpt lat="46.17967257" lon="6.07749042"><ele></ele><time>2014-10-8T12:47:39Z</time></trkpt>
<trkpt lat="46.17966117" lon="6.07740467"><ele></ele><time>2014-10-8T12:47:42Z</time></trkpt>
<trkpt lat="46.17964986" lon="6.07731759"><ele></ele><time>2014-10-8T12:47:45Z</time></trkpt>
<trkpt lat="46.17963913" lon="6.07722849"><ele></ele><time>2014-10-8T12:47:48Z</time></trkpt>
<trkpt lat="46.17962806" lon="6.07713679"><ele></ele><time>2014-10-8T12:47:51Z</time></trkpt>
<trkpt lat="46.17961474" lon="6.07704375"><ele></ele><time>2014-10-8T12:47:54Z</time></trkpt>
<trkpt lat="46.17960082" lon="6.07695289"><ele></ele><time>2014-10-8T12:47:57Z</time></trkpt>
<trkpt lat="46.17958666" lon="6.07686086"><ele></ele><time>2014-10-8T12:48:0Z</time></trkpt>
<trkpt lat="46.17957174" lon="6.07676899"><ele></ele><time>2014-10-8T12:48:3Z</time></trkpt>
<trkpt lat="46.17955623" lon="6.07667738"><ele></ele><time>2014-10-8T12:48:6Z</time></trkpt>
<trkpt lat="46.17953913" lon="6.07658618"><ele></ele><time>2014-10-8T12:48:9Z</time></trkpt>
<trkpt lat="46.17952136" lon="6.07649524"><ele></ele><time>2014-10-8T12:48:12Z</time></trkpt>
<trkpt lat="46.17950259" lon="6.07640170"><ele></ele><time>2014-10-8T12:48:15Z</time></trkpt>
<trkpt lat="46.17948130" lon="6.07630949"><ele></ele><time>2014-10-8T12:48:18Z</time></trkpt>
<trkpt lat="46.17945917" lon="6.07621780"><ele></ele><time>2014-10-8T12:48:21Z</time></trkpt>
<trkpt lat="46.17943679" lon="6.07612669"><ele></ele><time>2014-10-8T12:48:24Z</time></trkpt>
<trkpt lat="46.17941206" lon="6.07603658"><ele></ele><time>2014-10-8T12:48:27Z</time></trkpt>
<trkpt lat="46.17938600" lon="6.07594689"><ele></ele><time>2014-10-8T12:48:30Z</time></trkpt>
<trkpt lat="46.17935867" lon="6.07585696"><ele></ele><time>2014-10-8T12:48:33Z</time></trkpt>
<trkpt lat="46.17933076" lon="6.07576777"><ele></ele><time>2014-10-8T12:48:36Z</time></trkpt>
<trkpt lat="46.17930226" lon="6.07567943"><ele></ele><time>2014-10-8T12:48:39Z</time></trkpt>
<trkpt lat="46.17927343" lon="6.07559142"><ele></ele><time>2014-10-8T12:48:42Z</time></trkpt>
<trkpt lat="46.17924392" lon="6.07550458"><ele></ele><time>2014-10-8T12:48:45Z</time></trkpt>
<trkpt lat="46.17921408" lon="6.07541808"><ele></ele><time>2014-10-8T12:48:48Z</time></trkpt>
<trkpt lat="46.17918449" lon="6.07533158"><ele></ele><time>2014-10-8T12:48:51Z</time></trkpt>
<trkpt lat="46.17915482" lon="6.07524600"><ele></ele><time>2014-10-8T12:48:54Z</time></trkpt>
<trkpt lat="46.17912406" lon="6.07516034"><ele></ele><time>2014-10-8T12:48:57Z</time></trkpt>
<trkpt lat="46.17909213" lon="6.07507425"><ele></ele><time>2014-10-8T12:49:0Z</time></trkpt>
<trkpt lat="46.17906036" lon="6.07498683"><ele></ele><time>2014-10-8T12:49:3Z</time></trkpt>
<trkpt lat="46.17902909" lon="6.07489672"><ele></ele><time>2014-10-8T12:49:6Z</time></trkpt>
<trkpt lat="46.17899733" lon="6.07480704"><ele></ele><time>2014-10-8T12:49:9Z</time></trkpt>
<trkpt lat="46.17896489" lon="6.07471903"><ele></ele><time>2014-10-8T12:49:12Z</time></trkpt>
<trkpt lat="46.17893237" lon="6.07463026"><ele></ele><time>2014-10-8T12:49:15Z</time></trkpt>
<trkpt lat="46.17890077" lon="6.07454033"><ele></ele><time>2014-10-8T12:49:18Z</time></trkpt>
<trkpt lat="46.17886917" lon="6.07445039"><ele></ele><time>2014-10-8T12:49:21Z</time></trkpt>
<trkpt lat="46.17883606" lon="6.07436062"><ele></ele><time>2014-10-8T12:49:24Z</time></trkpt>
<trkpt lat="46.17880312" lon="6.07427018"><ele></ele><time>2014-10-8T12:49:27Z</time></trkpt>
<trkpt lat="46.17877043" lon="6.07417974"><ele></ele><time>2014-10-8T12:49:30Z</time></trkpt>
<trkpt lat="46.17873698" lon="6.07409055"><ele></ele><time>2014-10-8T12:49:33Z</time></trkpt>
<trkpt lat="46.17870404" lon="6.07400154"><ele></ele><time>2014-10-8T12:49:36Z</time></trkpt>
<trkpt lat="46.17867169" lon="6.07391235"><ele></ele><time>2014-10-8T12:49:39Z</time></trkpt>
<trkpt lat="46.17863942" lon="6.07382317"><ele></ele><time>2014-10-8T12:49:42Z</time></trkpt>
<trkpt lat="46.17860757" lon="6.07373407"><ele></ele><time>2014-10-8T12:49:45Z</time></trkpt>
<trkpt lat="46.17857144" lon="6.07363265"><ele></ele><time>2014-10-8T12:49:48Z</time></trkpt>
<trkpt lat="46.17853389" lon="6.07354590"><ele></ele><time>2014-10-8T12:49:51Z</time></trkpt>
<trkpt lat="46.17850196" lon="6.07345185"><ele></ele><time>2014-10-8T12:49:54Z</time></trkpt>
<trkpt lat="46.17846399" lon="6.07336242"><ele></ele><time>2014-10-8T12:49:57Z</time></trkpt>
<trkpt lat="46.17843063" lon="6.07327105"><ele></ele><time>2014-10-8T12:50:0Z</time></trkpt>
<trkpt lat="46.17839819" lon="6.07318439"><ele></ele><time>2014-10-8T12:50:3Z</time></trkpt>
<trkpt lat="46.17836516" lon="6.07310073"><ele></ele><time>2014-10-8T12:50:6Z</time></trkpt>
<trkpt lat="46.17833046" lon="6.07301742"><ele></ele><time>2014-10-8T12:50:9Z</time></trkpt>
<trkpt lat="46.17829693" lon="6.07293427"><ele></ele><time>2014-10-8T12:50:12Z</time></trkpt>
<trkpt lat="46.17826575" lon="6.07285347"><ele></ele><time>2014-10-8T12:50:15Z</time></trkpt>
<trkpt lat="46.17824036" lon="6.07277317"><ele></ele><time>2014-10-8T12:50:18Z</time></trkpt>
<trkpt lat="46.17822133" lon="6.07269614"><ele></ele><time>2014-10-8T12:50:21Z</time></trkpt>
<trkpt lat="46.17820767" lon="6.07262246"><ele></ele><time>2014-10-8T12:50:24Z</time></trkpt>
<trkpt lat="46.17820054" lon="6.07255122"><ele></ele><time>2014-10-8T12:50:27Z</time></trkpt>
<trkpt lat="46.17820306" lon="6.07248819"><ele></ele><time>2014-10-8T12:50:30Z</time></trkpt>
<trkpt lat="46.17821127" lon="6.07243530"><ele></ele><time>2014-10-8T12:50:33Z</time></trkpt>
<trkpt lat="46.17821823" lon="6.07239045"><ele></ele><time>2014-10-8T12:50:36Z</time></trkpt>
<trkpt lat="46.17821982" lon="6.07235064"><ele></ele><time>2014-10-8T12:50:39Z</time></trkpt>
<trkpt lat="46.17821027" lon="6.07232063"><ele></ele><time>2014-10-8T12:50:42Z</time></trkpt>
<trkpt lat="46.17819157" lon="6.07230093"><ele></ele><time>2014-10-8T12:50:45Z</time></trkpt>
<trkpt lat="46.17816928" lon="6.07228367"><ele></ele><time>2014-10-8T12:50:48Z</time></trkpt>
<trkpt lat="46.17814438" lon="6.07226062"><ele></ele><time>2014-10-8T12:50:51Z</time></trkpt>
<trkpt lat="46.17811957" lon="6.07222726"><ele></ele><time>2014-10-8T12:50:54Z</time></trkpt>
<trkpt lat="46.17810859" lon="6.07218300"><ele></ele><time>2014-10-8T12:50:57Z</time></trkpt>
<trkpt lat="46.17809594" lon="6.07213070"><ele></ele><time>2014-10-8T12:51:0Z</time></trkpt>
<trkpt lat="46.17807062" lon="6.07208879"><ele></ele><time>2014-10-8T12:51:3Z</time></trkpt>
<trkpt lat="46.17803995" lon="6.07204897"><ele></ele><time>2014-10-8T12:51:6Z</time></trkpt>
<trkpt lat="46.17801229" lon="6.07199759"><ele></ele><time>2014-10-8T12:51:9Z</time></trkpt>
<trkpt lat="46.17798597" lon="6.07193657"><ele></ele><time>2014-10-8T12:51:12Z</time></trkpt>
<trkpt lat="46.17795998" lon="6.07186876"><ele></ele><time>2014-10-8T12:51:15Z</time></trkpt>
<trkpt lat="46.17793308" lon="6.07179567"><ele></ele><time>2014-10-8T12:51:18Z</time></trkpt>
<trkpt lat="46.17790458" lon="6.07171705"><ele></ele><time>2014-10-8T12:51:21Z</time></trkpt>
<trkpt lat="46.17787558" lon="6.07163457"><ele></ele><time>2014-10-8T12:51:24Z</time></trkpt>
<trkpt lat="46.17784565" lon="6.07154975"><ele></ele><time>2014-10-8T12:51:27Z</time></trkpt>
<trkpt lat="46.17781472" lon="6.07146358"><ele></ele><time>2014-10-8T12:51:30Z</time></trkpt>
<trkpt lat="46.17778338" lon="6.07137700"><ele></ele><time>2014-10-8T12:51:33Z</time></trkpt>
<trkpt lat="46.17775152" lon="6.07128974"><ele></ele><time>2014-10-8T12:51:36Z</time></trkpt>
<trkpt lat="46.17772018" lon="6.07120198"><ele></ele><time>2014-10-8T12:51:39Z</time></trkpt>
<trkpt lat="46.17768900" lon="6.07111389"><ele></ele><time>2014-10-8T12:51:42Z</time></trkpt>
<trkpt lat="46.17765673" lon="6.07102630"><ele></ele><time>2014-10-8T12:51:45Z</time></trkpt>
<trkpt lat="46.17762353" lon="6.07093904"><ele></ele><time>2014-10-8T12:51:48Z</time></trkpt>
<trkpt lat="46.17759076" lon="6.07085095"><ele></ele><time>2014-10-8T12:51:51Z</time></trkpt>
<trkpt lat="46.17755983" lon="6.07076126"><ele></ele><time>2014-10-8T12:51:54Z</time></trkpt>
<trkpt lat="46.17752966" lon="6.07067216"><ele></ele><time>2014-10-8T12:51:57Z</time></trkpt>
<trkpt lat="46.17749906" lon="6.07058449"><ele></ele><time>2014-10-8T12:52:0Z</time></trkpt>
<trkpt lat="46.17746763" lon="6.07049664"><ele></ele><time>2014-10-8T12:52:3Z</time></trkpt>
<trkpt lat="46.17743569" lon="6.07040805"><ele></ele><time>2014-10-8T12:52:6Z</time></trkpt>
<trkpt lat="46.17740376" lon="6.07031786"><ele></ele><time>2014-10-8T12:52:9Z</time></trkpt>
<trkpt lat="46.17737174" lon="6.07022608"><ele></ele><time>2014-10-8T12:52:12Z</time></trkpt>
<trkpt lat="46.17733989" lon="6.07013304"><ele></ele><time>2014-10-8T12:52:15Z</time></trkpt>
<trkpt lat="46.17730745" lon="6.07003983"><ele></ele><time>2014-10-8T12:52:18Z</time></trkpt>
<trkpt lat="46.17727459" lon="6.06994654"><ele></ele><time>2014-10-8T12:52:21Z</time></trkpt>
<trkpt lat="46.17724149" lon="6.06985384"><ele></ele><time>2014-10-8T12:52:24Z</time></trkpt>
<trkpt lat="46.17720846" lon="6.06976247"><ele></ele><time>2014-10-8T12:52:27Z</time></trkpt>
<trkpt lat="46.17717653" lon="6.06967128"><ele></ele><time>2014-10-8T12:52:30Z</time></trkpt>
<trkpt lat="46.17714526" lon="6.06958067"><ele></ele><time>2014-10-8T12:52:33Z</time></trkpt>
<trkpt lat="46.17711450" lon="6.06949023"><ele></ele><time>2014-10-8T12:52:36Z</time></trkpt>
<trkpt lat="46.17708332" lon="6.06940239"><ele></ele><time>2014-10-8T12:52:39Z</time></trkpt>
<trkpt lat="46.17705273" lon="6.06931245"><ele></ele><time>2014-10-8T12:52:42Z</time></trkpt>
<trkpt lat="46.17702263" lon="6.06922335"><ele></ele><time>2014-10-8T12:52:45Z</time></trkpt>
<trkpt lat="46.17699347" lon="6.06913383"><ele></ele><time>2014-10-8T12:52:48Z</time></trkpt>
<trkpt lat="46.17696555" lon="6.06904255"><ele></ele><time>2014-10-8T12:52:51Z</time></trkpt>
<trkpt lat="46.17693823" lon="6.06894926"><ele></ele><time>2014-10-8T12:52:54Z</time></trkpt>
<trkpt lat="46.17690923" lon="6.06885572"><ele></ele><time>2014-10-8T12:52:57Z</time></trkpt>
<trkpt lat="46.17687838" lon="6.06876260"><ele></ele><time>2014-10-8T12:53:0Z</time></trkpt>
<trkpt lat="46.17684712" lon="6.06866864"><ele></ele><time>2014-10-8T12:53:3Z</time></trkpt>
<trkpt lat="46.17681677" lon="6.06857384"><ele></ele><time>2014-10-8T12:53:6Z</time></trkpt>
<trkpt lat="46.17678668" lon="6.06847879"><ele></ele><time>2014-10-8T12:53:9Z</time></trkpt>
<trkpt lat="46.17675642" lon="6.06838399"><ele></ele><time>2014-10-8T12:53:12Z</time></trkpt>
<trkpt lat="46.17672633" lon="6.06828952"><ele></ele><time>2014-10-8T12:53:15Z</time></trkpt>
<trkpt lat="46.17669675" lon="6.06819506"><ele></ele><time>2014-10-8T12:53:18Z</time></trkpt>
<trkpt lat="46.17666758" lon="6.06810068"><ele></ele><time>2014-10-8T12:53:21Z</time></trkpt>
<trkpt lat="46.17663765" lon="6.06800655"><ele></ele><time>2014-10-8T12:53:24Z</time></trkpt>
<trkpt lat="46.17660765" lon="6.06791267"><ele></ele><time>2014-10-8T12:53:27Z</time></trkpt>
<trkpt lat="46.17657806" lon="6.06781846"><ele></ele><time>2014-10-8T12:53:30Z</time></trkpt>
<trkpt lat="46.17654839" lon="6.06772400"><ele></ele><time>2014-10-8T12:53:33Z</time></trkpt>
<trkpt lat="46.17651888" lon="6.06762928"><ele></ele><time>2014-10-8T12:53:36Z</time></trkpt>
<trkpt lat="46.17648938" lon="6.06753406"><ele></ele><time>2014-10-8T12:53:39Z</time></trkpt>
<trkpt lat="46.17645979" lon="6.06743842"><ele></ele><time>2014-10-8T12:53:42Z</time></trkpt>
<trkpt lat="46.17642945" lon="6.06734253"><ele></ele><time>2014-10-8T12:53:45Z</time></trkpt>
<trkpt lat="46.17639827" lon="6.06724589"><ele></ele><time>2014-10-8T12:53:48Z</time></trkpt>
<trkpt lat="46.17636742" lon="6.06714849"><ele></ele><time>2014-10-8T12:53:51Z</time></trkpt>
<trkpt lat="46.17633766" lon="6.06705034"><ele></ele><time>2014-10-8T12:53:54Z</time></trkpt>
<trkpt lat="46.17630783" lon="6.06695144"><ele></ele><time>2014-10-8T12:53:57Z</time></trkpt>
<trkpt lat="46.17627773" lon="6.06685152"><ele></ele><time>2014-10-8T12:54:0Z</time></trkpt>
<trkpt lat="46.17624739" lon="6.06675019"><ele></ele><time>2014-10-8T12:54:3Z</time></trkpt>
<trkpt lat="46.17621629" lon="6.06664793"><ele></ele><time>2014-10-8T12:54:6Z</time></trkpt>
<trkpt lat="46.17618520" lon="6.06654433"><ele></ele><time>2014-10-8T12:54:9Z</time></trkpt>
<trkpt lat="46.17615402" lon="6.06643905"><ele></ele><time>2014-10-8T12:54:12Z</time></trkpt>
<trkpt lat="46.17612217" lon="6.06633243"><ele></ele><time>2014-10-8T12:54:15Z</time></trkpt>
<trkpt lat="46.17609023" lon="6.06622397"><ele></ele><time>2014-10-8T12:54:18Z</time></trkpt>
<trkpt lat="46.17605804" lon="6.06611283"><ele></ele><time>2014-10-8T12:54:21Z</time></trkpt>
<trkpt lat="46.17602544" lon="6.06600009"><ele></ele><time>2014-10-8T12:54:24Z</time></trkpt>
<trkpt lat="46.17599292" lon="6.06588593"><ele></ele><time>2014-10-8T12:54:27Z</time></trkpt>
<trkpt lat="46.17596090" lon="6.06577042"><ele></ele><time>2014-10-8T12:54:30Z</time></trkpt>
<trkpt lat="46.17592947" lon="6.06565316"><ele></ele><time>2014-10-8T12:54:33Z</time></trkpt>
<trkpt lat="46.17589896" lon="6.06553447"><ele></ele><time>2014-10-8T12:54:36Z</time></trkpt>
<trkpt lat="46.17586803" lon="6.06541587"><ele></ele><time>2014-10-8T12:54:39Z</time></trkpt>
<trkpt lat="46.17583676" lon="6.06529710"><ele></ele><time>2014-10-8T12:54:42Z</time></trkpt>
<trkpt lat="46.17580676" lon="6.06517799"><ele></ele><time>2014-10-8T12:54:45Z</time></trkpt>
<trkpt lat="46.17577767" lon="6.06505897"><ele></ele><time>2014-10-8T12:54:48Z</time></trkpt>
<trkpt lat="46.17574917" lon="6.06494020"><ele></ele><time>2014-10-8T12:54:51Z</time></trkpt>
<trkpt lat="46.17572210" lon="6.06482159"><ele></ele><time>2014-10-8T12:54:54Z</time></trkpt>
<trkpt lat="46.17569620" lon="6.06470383"><ele></ele><time>2014-10-8T12:54:57Z</time></trkpt>
<trkpt lat="46.17567105" lon="6.06458757"><ele></ele><time>2014-10-8T12:55:0Z</time></trkpt>
<trkpt lat="46.17564633" lon="6.06447198"><ele></ele><time>2014-10-8T12:55:3Z</time></trkpt>
<trkpt lat="46.17562202" lon="6.06435640"><ele></ele><time>2014-10-8T12:55:6Z</time></trkpt>
<trkpt lat="46.17559863" lon="6.06424073"><ele></ele><time>2014-10-8T12:55:9Z</time></trkpt>
<trkpt lat="46.17557617" lon="6.06412447"><ele></ele><time>2014-10-8T12:55:12Z</time></trkpt>
<trkpt lat="46.17555362" lon="6.06400779"><ele></ele><time>2014-10-8T12:55:15Z</time></trkpt>
<trkpt lat="46.17553183" lon="6.06389145"><ele></ele><time>2014-10-8T12:55:18Z</time></trkpt>
<trkpt lat="46.17551045" lon="6.06377603"><ele></ele><time>2014-10-8T12:55:21Z</time></trkpt>
<trkpt lat="46.17548908" lon="6.06366104"><ele></ele><time>2014-10-8T12:55:24Z</time></trkpt>
<trkpt lat="46.17546829" lon="6.06354436"><ele></ele><time>2014-10-8T12:55:27Z</time></trkpt>
<trkpt lat="46.17544893" lon="6.06342609"><ele></ele><time>2014-10-8T12:55:30Z</time></trkpt>
<trkpt lat="46.17543074" lon="6.06330749"><ele></ele><time>2014-10-8T12:55:33Z</time></trkpt>
<trkpt lat="46.17541364" lon="6.06318897"><ele></ele><time>2014-10-8T12:55:36Z</time></trkpt>
<trkpt lat="46.17539713" lon="6.06307095"><ele></ele><time>2014-10-8T12:55:39Z</time></trkpt>
<trkpt lat="46.17538037" lon="6.06295268"><ele></ele><time>2014-10-8T12:55:42Z</time></trkpt>
<trkpt lat="46.17536318" lon="6.06283475"><ele></ele><time>2014-10-8T12:55:45Z</time></trkpt>
<trkpt lat="46.17534692" lon="6.06271732"><ele></ele><time>2014-10-8T12:55:48Z</time></trkpt>
<trkpt lat="46.17533125" lon="6.06260014"><ele></ele><time>2014-10-8T12:55:51Z</time></trkpt>
<trkpt lat="46.17531574" lon="6.06248229"><ele></ele><time>2014-10-8T12:55:54Z</time></trkpt>
<trkpt lat="46.17530049" lon="6.06236352"><ele></ele><time>2014-10-8T12:55:57Z</time></trkpt>
<trkpt lat="46.17528507" lon="6.06224458"><ele></ele><time>2014-10-8T12:56:0Z</time></trkpt>
<trkpt lat="46.17527015" lon="6.06212539"><ele></ele><time>2014-10-8T12:56:3Z</time></trkpt>
<trkpt lat="46.17525489" lon="6.06200586"><ele></ele><time>2014-10-8T12:56:6Z</time></trkpt>
<trkpt lat="46.17523863" lon="6.06188633"><ele></ele><time>2014-10-8T12:56:9Z</time></trkpt>
<trkpt lat="46.17522245" lon="6.06176656"><ele></ele><time>2014-10-8T12:56:12Z</time></trkpt>
<trkpt lat="46.17520795" lon="6.06164569"><ele></ele><time>2014-10-8T12:56:15Z</time></trkpt>
<trkpt lat="46.17519496" lon="6.06152432"><ele></ele><time>2014-10-8T12:56:18Z</time></trkpt>
<trkpt lat="46.17518130" lon="6.06140354"><ele></ele><time>2014-10-8T12:56:21Z</time></trkpt>
<trkpt lat="46.17516655" lon="6.06128309"><ele></ele><time>2014-10-8T12:56:24Z</time></trkpt>
<trkpt lat="46.17515146" lon="6.06116214"><ele></ele><time>2014-10-8T12:56:27Z</time></trkpt>
<trkpt lat="46.17513662" lon="6.06104136"><ele></ele><time>2014-10-8T12:56:30Z</time></trkpt>
<trkpt lat="46.17512179" lon="6.06092032"><ele></ele><time>2014-10-8T12:56:33Z</time></trkpt>
<trkpt lat="46.17510687" lon="6.06079895"><ele></ele><time>2014-10-8T12:56:36Z</time></trkpt>
<trkpt lat="46.17509228" lon="6.06067766"><ele></ele><time>2014-10-8T12:56:39Z</time></trkpt>
<trkpt lat="46.17507778" lon="6.06055655"><ele></ele><time>2014-10-8T12:56:42Z</time></trkpt>
<trkpt lat="46.17506345" lon="6.06043559"><ele></ele><time>2014-10-8T12:56:45Z</time></trkpt>
<trkpt lat="46.17504886" lon="6.06031515"><ele></ele><time>2014-10-8T12:56:48Z</time></trkpt>
<trkpt lat="46.17503512" lon="6.06019705"><ele></ele><time>2014-10-8T12:56:51Z</time></trkpt>
<trkpt lat="46.17502179" lon="6.06007987"><ele></ele><time>2014-10-8T12:56:54Z</time></trkpt>
<trkpt lat="46.17500695" lon="6.05996269"><ele></ele><time>2014-10-8T12:56:57Z</time></trkpt>
<trkpt lat="46.17499195" lon="6.05984568"><ele></ele><time>2014-10-8T12:57:0Z</time></trkpt>
<trkpt lat="46.17497745" lon="6.05972858"><ele></ele><time>2014-10-8T12:57:3Z</time></trkpt>
<trkpt lat="46.17496337" lon="6.05961123"><ele></ele><time>2014-10-8T12:57:6Z</time></trkpt>
<trkpt lat="46.17494954" lon="6.05949406"><ele></ele><time>2014-10-8T12:57:9Z</time></trkpt>
<trkpt lat="46.17493554" lon="6.05937654"><ele></ele><time>2014-10-8T12:57:12Z</time></trkpt>
<trkpt lat="46.17492154" lon="6.05925903"><ele></ele><time>2014-10-8T12:57:15Z</time></trkpt>
<trkpt lat="46.17490662" lon="6.05914135"><ele></ele><time>2014-10-8T12:57:18Z</time></trkpt>
<trkpt lat="46.17489078" lon="6.05902274"><ele></ele><time>2014-10-8T12:57:21Z</time></trkpt>
<trkpt lat="46.17487527" lon="6.05890397"><ele></ele><time>2014-10-8T12:57:24Z</time></trkpt>
<trkpt lat="46.17486094" lon="6.05878520"><ele></ele><time>2014-10-8T12:57:27Z</time></trkpt>
<trkpt lat="46.17484694" lon="6.05866425"><ele></ele><time>2014-10-8T12:57:30Z</time></trkpt>
<trkpt lat="46.17483269" lon="6.05854254"><ele></ele><time>2014-10-8T12:57:33Z</time></trkpt>
<trkpt lat="46.17481719" lon="6.05841983"><ele></ele><time>2014-10-8T12:57:36Z</time></trkpt>
<trkpt lat="46.17480193" lon="6.05829578"><ele></ele><time>2014-10-8T12:57:39Z</time></trkpt>
<trkpt lat="46.17478760" lon="6.05817047"><ele></ele><time>2014-10-8T12:57:42Z</time></trkpt>
<trkpt lat="46.17477218" lon="6.05804357"><ele></ele><time>2014-10-8T12:57:45Z</time></trkpt>
<trkpt lat="46.17475533" lon="6.05791499"><ele></ele><time>2014-10-8T12:57:48Z</time></trkpt>
<trkpt lat="46.17473823" lon="6.05778465"><ele></ele><time>2014-10-8T12:57:51Z</time></trkpt>
<trkpt lat="46.17472130" lon="6.05765272"><ele></ele><time>2014-10-8T12:57:54Z</time></trkpt>
<trkpt lat="46.17470554" lon="6.05751894"><ele></ele><time>2014-10-8T12:57:57Z</time></trkpt>
<trkpt lat="46.17470680" lon="6.05738400"><ele></ele><time>2014-10-8T12:58:0Z</time></trkpt>
<trkpt lat="46.17472918" lon="6.05725215"><ele></ele><time>2014-10-8T12:58:3Z</time></trkpt>
<trkpt lat="46.17474443" lon="6.05711955"><ele></ele><time>2014-10-8T12:58:6Z</time></trkpt>
<trkpt lat="46.17472842" lon="6.05699273"><ele></ele><time>2014-10-8T12:58:9Z</time></trkpt>
<trkpt lat="46.17467470" lon="6.05687815"><ele></ele><time>2014-10-8T12:58:12Z</time></trkpt>
<trkpt lat="46.17462122" lon="6.05675795"><ele></ele><time>2014-10-8T12:58:15Z</time></trkpt>
<trkpt lat="46.17458442" lon="6.05662485"><ele></ele><time>2014-10-8T12:58:18Z</time></trkpt>
<trkpt lat="46.17455986" lon="6.05648244"><ele></ele><time>2014-10-8T12:58:21Z</time></trkpt>
<trkpt lat="46.17453740" lon="6.05633634"><ele></ele><time>2014-10-8T12:58:24Z</time></trkpt>
<trkpt lat="46.17451544" lon="6.05618756"><ele></ele><time>2014-10-8T12:58:27Z</time></trkpt>
<trkpt lat="46.17449407" lon="6.05603769"><ele></ele><time>2014-10-8T12:58:30Z</time></trkpt>
<trkpt lat="46.17447194" lon="6.05588774"><ele></ele><time>2014-10-8T12:58:33Z</time></trkpt>
<trkpt lat="46.17445132" lon="6.05573779"><ele></ele><time>2014-10-8T12:58:36Z</time></trkpt>
<trkpt lat="46.17443087" lon="6.05558767"><ele></ele><time>2014-10-8T12:58:39Z</time></trkpt>
<trkpt lat="46.17440949" lon="6.05543864"><ele></ele><time>2014-10-8T12:58:42Z</time></trkpt>
<trkpt lat="46.17438795" lon="6.05529095"><ele></ele><time>2014-10-8T12:58:45Z</time></trkpt>
<trkpt lat="46.17436658" lon="6.05514552"><ele></ele><time>2014-10-8T12:58:48Z</time></trkpt>
<trkpt lat="46.17434529" lon="6.05500203"><ele></ele><time>2014-10-8T12:58:51Z</time></trkpt>
<trkpt lat="46.17432366" lon="6.05486004"><ele></ele><time>2014-10-8T12:58:54Z</time></trkpt>
<trkpt lat="46.17430128" lon="6.05471939"><ele></ele><time>2014-10-8T12:58:57Z</time></trkpt>
<trkpt lat="46.17427857" lon="6.05457849"><ele></ele><time>2014-10-8T12:59:0Z</time></trkpt>
<trkpt lat="46.17425577" lon="6.05443826"><ele></ele><time>2014-10-8T12:59:3Z</time></trkpt>
<trkpt lat="46.17423230" lon="6.05429929"><ele></ele><time>2014-10-8T12:59:6Z</time></trkpt>
<trkpt lat="46.17420816" lon="6.05416124"><ele></ele><time>2014-10-8T12:59:9Z</time></trkpt>
<trkpt lat="46.17418477" lon="6.05402369"><ele></ele><time>2014-10-8T12:59:12Z</time></trkpt>
<trkpt lat="46.17416189" lon="6.05388698"><ele></ele><time>2014-10-8T12:59:15Z</time></trkpt>
<trkpt lat="46.17413859" lon="6.05375128"><ele></ele><time>2014-10-8T12:59:18Z</time></trkpt>
<trkpt lat="46.17411420" lon="6.05361658"><ele></ele><time>2014-10-8T12:59:21Z</time></trkpt>
<trkpt lat="46.17408897" lon="6.05348255"><ele></ele><time>2014-10-8T12:59:24Z</time></trkpt>
<trkpt lat="46.17406349" lon="6.05334903"><ele></ele><time>2014-10-8T12:59:27Z</time></trkpt>
<trkpt lat="46.17403675" lon="6.05321635"><ele></ele><time>2014-10-8T12:59:30Z</time></trkpt>
<trkpt lat="46.17400984" lon="6.05308383"><ele></ele><time>2014-10-8T12:59:33Z</time></trkpt>
<trkpt lat="46.17398369" lon="6.05295072"><ele></ele><time>2014-10-8T12:59:36Z</time></trkpt>
<trkpt lat="46.17395779" lon="6.05281753"><ele></ele><time>2014-10-8T12:59:39Z</time></trkpt>
<trkpt lat="46.17393122" lon="6.05268485"><ele></ele><time>2014-10-8T12:59:42Z</time></trkpt>
<trkpt lat="46.17390373" lon="6.05255283"><ele></ele><time>2014-10-8T12:59:45Z</time></trkpt>
<trkpt lat="46.17387515" lon="6.05242174"><ele></ele><time>2014-10-8T12:59:48Z</time></trkpt>
<trkpt lat="46.17384640" lon="6.05229132"><ele></ele><time>2014-10-8T12:59:51Z</time></trkpt>
<trkpt lat="46.17381790" lon="6.05216073"><ele></ele><time>2014-10-8T12:59:54Z</time></trkpt>
<trkpt lat="46.17378915" lon="6.05203047"><ele></ele><time>2014-10-8T12:59:57Z</time></trkpt>
<trkpt lat="46.17375998" lon="6.05190039"><ele></ele><time>2014-10-8T13:0:0Z</time></trkpt>
<trkpt lat="46.17373156" lon="6.05176955"><ele></ele><time>2014-10-8T13:0:3Z</time></trkpt>
<trkpt lat="46.17370307" lon="6.05163896"><ele></ele><time>2014-10-8T13:0:6Z</time></trkpt>
<trkpt lat="46.17367390" lon="6.05150912"><ele></ele><time>2014-10-8T13:0:9Z</time></trkpt>
<trkpt lat="46.17364456" lon="6.05137987"><ele></ele><time>2014-10-8T13:0:12Z</time></trkpt>
<trkpt lat="46.17361464" lon="6.05125163"><ele></ele><time>2014-10-8T13:0:15Z</time></trkpt>
<trkpt lat="46.17358438" lon="6.05112456"><ele></ele><time>2014-10-8T13:0:18Z</time></trkpt>
<trkpt lat="46.17355437" lon="6.05099774"><ele></ele><time>2014-10-8T13:0:21Z</time></trkpt>
<trkpt lat="46.17352420" lon="6.05087176"><ele></ele><time>2014-10-8T13:0:24Z</time></trkpt>
<trkpt lat="46.17349427" lon="6.05074653"><ele></ele><time>2014-10-8T13:0:27Z</time></trkpt>
<trkpt lat="46.17346527" lon="6.05062156"><ele></ele><time>2014-10-8T13:0:30Z</time></trkpt>
<trkpt lat="46.17343593" lon="6.05049717"><ele></ele><time>2014-10-8T13:0:33Z</time></trkpt>
<trkpt lat="46.17340626" lon="6.05037387"><ele></ele><time>2014-10-8T13:0:36Z</time></trkpt>
<trkpt lat="46.17337642" lon="6.05025158"><ele></ele><time>2014-10-8T13:0:39Z</time></trkpt>
<trkpt lat="46.17334633" lon="6.05012887"><ele></ele><time>2014-10-8T13:0:42Z</time></trkpt>
<trkpt lat="46.17331725" lon="6.05000557"><ele></ele><time>2014-10-8T13:0:45Z</time></trkpt>
<trkpt lat="46.17328833" lon="6.04988236"><ele></ele><time>2014-10-8T13:0:48Z</time></trkpt>
<trkpt lat="46.17325866" lon="6.04976032"><ele></ele><time>2014-10-8T13:0:51Z</time></trkpt>
<trkpt lat="46.17322865" lon="6.04963954"><ele></ele><time>2014-10-8T13:0:54Z</time></trkpt>
<trkpt lat="46.17319898" lon="6.04951967"><ele></ele><time>2014-10-8T13:0:57Z</time></trkpt>
<trkpt lat="46.17317014" lon="6.04939965"><ele></ele><time>2014-10-8T13:1:0Z</time></trkpt>
<trkpt lat="46.17314173" lon="6.04927987"><ele></ele><time>2014-10-8T13:1:3Z</time></trkpt>
<trkpt lat="46.17311256" lon="6.04916076"><ele></ele><time>2014-10-8T13:1:6Z</time></trkpt>
<trkpt lat="46.17308364" lon="6.04904199"><ele></ele><time>2014-10-8T13:1:9Z</time></trkpt>
<trkpt lat="46.17305548" lon="6.04892322"><ele></ele><time>2014-10-8T13:1:12Z</time></trkpt>
<trkpt lat="46.17302723" lon="6.04880495"><ele></ele><time>2014-10-8T13:1:15Z</time></trkpt>
<trkpt lat="46.17299966" lon="6.04868727"><ele></ele><time>2014-10-8T13:1:18Z</time></trkpt>
<trkpt lat="46.17297342" lon="6.04857026"><ele></ele><time>2014-10-8T13:1:21Z</time></trkpt>
<trkpt lat="46.17294794" lon="6.04845425"><ele></ele><time>2014-10-8T13:1:24Z</time></trkpt>
<trkpt lat="46.17292296" lon="6.04833967"><ele></ele><time>2014-10-8T13:1:27Z</time></trkpt>
<trkpt lat="46.17289882" lon="6.04822593"><ele></ele><time>2014-10-8T13:1:30Z</time></trkpt>
<trkpt lat="46.17287535" lon="6.04811294"><ele></ele><time>2014-10-8T13:1:33Z</time></trkpt>
<trkpt lat="46.17285205" lon="6.04800096"><ele></ele><time>2014-10-8T13:1:36Z</time></trkpt>
<trkpt lat="46.17283034" lon="6.04788898"><ele></ele><time>2014-10-8T13:1:39Z</time></trkpt>
<trkpt lat="46.17281215" lon="6.04777674"><ele></ele><time>2014-10-8T13:1:42Z</time></trkpt>
<trkpt lat="46.17279539" lon="6.04766468"><ele></ele><time>2014-10-8T13:1:45Z</time></trkpt>
<trkpt lat="46.17277846" lon="6.04755387"><ele></ele><time>2014-10-8T13:1:48Z</time></trkpt>
<trkpt lat="46.17276195" lon="6.04744423"><ele></ele><time>2014-10-8T13:1:51Z</time></trkpt>
<trkpt lat="46.17274652" lon="6.04733535"><ele></ele><time>2014-10-8T13:1:54Z</time></trkpt>
<trkpt lat="46.17273252" lon="6.04722689"><ele></ele><time>2014-10-8T13:1:57Z</time></trkpt>
<trkpt lat="46.17272037" lon="6.04711834"><ele></ele><time>2014-10-8T13:2:0Z</time></trkpt>
<trkpt lat="46.17270889" lon="6.04700980"><ele></ele><time>2014-10-8T13:2:3Z</time></trkpt>
<trkpt lat="46.17269699" lon="6.04690142"><ele></ele><time>2014-10-8T13:2:6Z</time></trkpt>
<trkpt lat="46.17268575" lon="6.04679413"><ele></ele><time>2014-10-8T13:2:9Z</time></trkpt>
<trkpt lat="46.17267653" lon="6.04668735"><ele></ele><time>2014-10-8T13:2:12Z</time></trkpt>
<trkpt lat="46.17266933" lon="6.04658157"><ele></ele><time>2014-10-8T13:2:15Z</time></trkpt>
<trkpt lat="46.17266212" lon="6.04647738"><ele></ele><time>2014-10-8T13:2:18Z</time></trkpt>
<trkpt lat="46.17265482" lon="6.04637386"><ele></ele><time>2014-10-8T13:2:21Z</time></trkpt>
<trkpt lat="46.17264854" lon="6.04627093"><ele></ele><time>2014-10-8T13:2:24Z</time></trkpt>
<trkpt lat="46.17264309" lon="6.04616876"><ele></ele><time>2014-10-8T13:2:27Z</time></trkpt>
<trkpt lat="46.17263890" lon="6.04606734"><ele></ele><time>2014-10-8T13:2:30Z</time></trkpt>
<trkpt lat="46.17263529" lon="6.04596717"><ele></ele><time>2014-10-8T13:2:33Z</time></trkpt>
<trkpt lat="46.17263144" lon="6.04586818"><ele></ele><time>2014-10-8T13:2:36Z</time></trkpt>
<trkpt lat="46.17262725" lon="6.04576995"><ele></ele><time>2014-10-8T13:2:39Z</time></trkpt>
<trkpt lat="46.17262314" lon="6.04567230"><ele></ele><time>2014-10-8T13:2:42Z</time></trkpt>
<trkpt lat="46.17261929" lon="6.04557549"><ele></ele><time>2014-10-8T13:2:45Z</time></trkpt>
<trkpt lat="46.17261535" lon="6.04548044"><ele></ele><time>2014-10-8T13:2:48Z</time></trkpt>
<trkpt lat="46.17261174" lon="6.04538538"><ele></ele><time>2014-10-8T13:2:51Z</time></trkpt>
<trkpt lat="46.17260797" lon="6.04529025"><ele></ele><time>2014-10-8T13:2:54Z</time></trkpt>
<trkpt lat="46.17260428" lon="6.04519520"><ele></ele><time>2014-10-8T13:2:57Z</time></trkpt>
<trkpt lat="46.17259959" lon="6.04510283"><ele></ele><time>2014-10-8T13:3:0Z</time></trkpt>
<trkpt lat="46.17259406" lon="6.04501289"><ele></ele><time>2014-10-8T13:3:3Z</time></trkpt>
<trkpt lat="46.17258936" lon="6.04492145"><ele></ele><time>2014-10-8T13:3:6Z</time></trkpt>
<trkpt lat="46.17258559" lon="6.04482983"><ele></ele><time>2014-10-8T13:3:9Z</time></trkpt>
<trkpt lat="46.17258215" lon="6.04473604"><ele></ele><time>2014-10-8T13:3:12Z</time></trkpt>
<trkpt lat="46.17257712" lon="6.04464459"><ele></ele><time>2014-10-8T13:3:15Z</time></trkpt>
<trkpt lat="46.17257193" lon="6.04455172"><ele></ele><time>2014-10-8T13:3:18Z</time></trkpt>
<trkpt lat="46.17256824" lon="6.04445927"><ele></ele><time>2014-10-8T13:3:21Z</time></trkpt>
<trkpt lat="46.17256464" lon="6.04436522"><ele></ele><time>2014-10-8T13:3:24Z</time></trkpt>
<trkpt lat="46.17256028" lon="6.04427076"><ele></ele><time>2014-10-8T13:3:27Z</time></trkpt>
<trkpt lat="46.17255533" lon="6.04417755"><ele></ele><time>2014-10-8T13:3:30Z</time></trkpt>
<trkpt lat="46.17254997" lon="6.04408368"><ele></ele><time>2014-10-8T13:3:33Z</time></trkpt>
<trkpt lat="46.17254477" lon="6.04399516"><ele></ele><time>2014-10-8T13:3:36Z</time></trkpt>
<trkpt lat="46.17253899" lon="6.04390824"><ele></ele><time>2014-10-8T13:3:39Z</time></trkpt>
<trkpt lat="46.17253153" lon="6.04382333"><ele></ele><time>2014-10-8T13:3:42Z</time></trkpt>
<trkpt lat="46.17252390" lon="6.04373968"><ele></ele><time>2014-10-8T13:3:45Z</time></trkpt>
<trkpt lat="46.17251535" lon="6.04365880"><ele></ele><time>2014-10-8T13:3:48Z</time></trkpt>
<trkpt lat="46.17250755" lon="6.04358084"><ele></ele><time>2014-10-8T13:3:51Z</time></trkpt>
<trkpt lat="46.17250906" lon="6.04350675"><ele></ele><time>2014-10-8T13:3:54Z</time></trkpt>
<trkpt lat="46.17252817" lon="6.04344053"><ele></ele><time>2014-10-8T13:3:57Z</time></trkpt>
<trkpt lat="46.17255785" lon="6.04338907"><ele></ele><time>2014-10-8T13:4:0Z</time></trkpt>
<trkpt lat="46.17259095" lon="6.04333878"><ele></ele><time>2014-10-8T13:4:3Z</time></trkpt>
<trkpt lat="46.17262415" lon="6.04328790"><ele></ele><time>2014-10-8T13:4:6Z</time></trkpt>
<trkpt lat="46.17265918" lon="6.04323618"><ele></ele><time>2014-10-8T13:4:9Z</time></trkpt>
<trkpt lat="46.17269539" lon="6.04318287"><ele></ele><time>2014-10-8T13:4:12Z</time></trkpt>
<trkpt lat="46.17273244" lon="6.04312797"><ele></ele><time>2014-10-8T13:4:15Z</time></trkpt>
<trkpt lat="46.17276999" lon="6.04307173"><ele></ele><time>2014-10-8T13:4:18Z</time></trkpt>
<trkpt lat="46.17280763" lon="6.04301440"><ele></ele><time>2014-10-8T13:4:21Z</time></trkpt>
<trkpt lat="46.17284543" lon="6.04295597"><ele></ele><time>2014-10-8T13:4:24Z</time></trkpt>
<trkpt lat="46.17288273" lon="6.04289596"><ele></ele><time>2014-10-8T13:4:27Z</time></trkpt>
<trkpt lat="46.17292028" lon="6.04283678"><ele></ele><time>2014-10-8T13:4:30Z</time></trkpt>
<trkpt lat="46.17295842" lon="6.04277987"><ele></ele><time>2014-10-8T13:4:33Z</time></trkpt>
<trkpt lat="46.17299697" lon="6.04272514"><ele></ele><time>2014-10-8T13:4:36Z</time></trkpt>
<trkpt lat="46.17303494" lon="6.04267065"><ele></ele><time>2014-10-8T13:4:39Z</time></trkpt>
<trkpt lat="46.17307099" lon="6.04261265"><ele></ele><time>2014-10-8T13:4:42Z</time></trkpt>
<trkpt lat="46.17310544" lon="6.04255775"><ele></ele><time>2014-10-8T13:4:45Z</time></trkpt>
<trkpt lat="46.17313804" lon="6.04250494"><ele></ele><time>2014-10-8T13:4:48Z</time></trkpt>
<trkpt lat="46.17316947" lon="6.04245205"><ele></ele><time>2014-10-8T13:4:51Z</time></trkpt>
<trkpt lat="46.17320174" lon="6.04239975"><ele></ele><time>2014-10-8T13:4:54Z</time></trkpt>
<trkpt lat="46.17323468" lon="6.04234678"><ele></ele><time>2014-10-8T13:4:57Z</time></trkpt>
<trkpt lat="46.17326763" lon="6.04229439"><ele></ele><time>2014-10-8T13:5:0Z</time></trkpt>
<trkpt lat="46.17329864" lon="6.04223848"><ele></ele><time>2014-10-8T13:5:3Z</time></trkpt>
<trkpt lat="46.17332756" lon="6.04217956"><ele></ele><time>2014-10-8T13:5:6Z</time></trkpt>
<trkpt lat="46.17335564" lon="6.04211703"><ele></ele><time>2014-10-8T13:5:9Z</time></trkpt>
<trkpt lat="46.17338187" lon="6.04205308"><ele></ele><time>2014-10-8T13:5:12Z</time></trkpt>
<trkpt lat="46.17340576" lon="6.04198795"><ele></ele><time>2014-10-8T13:5:15Z</time></trkpt>
<trkpt lat="46.17342814" lon="6.04192232"><ele></ele><time>2014-10-8T13:5:18Z</time></trkpt>
<trkpt lat="46.17344784" lon="6.04185493"><ele></ele><time>2014-10-8T13:5:21Z</time></trkpt>
<trkpt lat="46.17346779" lon="6.04178553"><ele></ele><time>2014-10-8T13:5:24Z</time></trkpt>
<trkpt lat="46.17349176" lon="6.04171847"><ele></ele><time>2014-10-8T13:5:27Z</time></trkpt>
<trkpt lat="46.17351757" lon="6.04165359"><ele></ele><time>2014-10-8T13:5:30Z</time></trkpt>
<trkpt lat="46.17354247" lon="6.04158830"><ele></ele><time>2014-10-8T13:5:33Z</time></trkpt>
<trkpt lat="46.17356678" lon="6.04152208"><ele></ele><time>2014-10-8T13:5:36Z</time></trkpt>
<trkpt lat="46.17359133" lon="6.04145628"><ele></ele><time>2014-10-8T13:5:39Z</time></trkpt>
<trkpt lat="46.17361489" lon="6.04139099"><ele></ele><time>2014-10-8T13:5:42Z</time></trkpt>
<trkpt lat="46.17363199" lon="6.04131773"><ele></ele><time>2014-10-8T13:5:45Z</time></trkpt>
<trkpt lat="46.17364313" lon="6.04124422"><ele></ele><time>2014-10-8T13:5:48Z</time></trkpt>
<trkpt lat="46.17365244" lon="6.04117608"><ele></ele><time>2014-10-8T13:5:51Z</time></trkpt>
<trkpt lat="46.17366317" lon="6.04111397"><ele></ele><time>2014-10-8T13:5:54Z</time></trkpt>
<trkpt lat="46.17366694" lon="6.04105186"><ele></ele><time>2014-10-8T13:5:57Z</time></trkpt>
<trkpt lat="46.17366216" lon="6.04099603"><ele></ele><time>2014-10-8T13:6:0Z</time></trkpt>
<trkpt lat="46.17366585" lon="6.04095622"><ele></ele><time>2014-10-8T13:6:3Z</time></trkpt>
<trkpt lat="46.17367247" lon="6.04093493"><ele></ele><time>2014-10-8T13:6:6Z</time></trkpt>
<trkpt lat="46.17367373" lon="6.04093074"><ele></ele><time>2014-10-8T13:6:9Z</time></trkpt>
<trkpt lat="46.17367817" lon="6.04093493"><ele></ele><time>2014-10-8T13:6:12Z</time></trkpt>
<trkpt lat="46.17367943" lon="6.04093703"><ele></ele><time>2014-10-8T13:6:15Z</time></trkpt>
<trkpt lat="46.17367658" lon="6.04093543"><ele></ele><time>2014-10-8T13:6:18Z</time></trkpt>
<trkpt lat="46.17367440" lon="6.04093577"><ele></ele><time>2014-10-8T13:6:21Z</time></trkpt>
<trkpt lat="46.17367440" lon="6.04093384"><ele></ele><time>2014-10-8T13:6:24Z</time></trkpt>
<trkpt lat="46.17367616" lon="6.04093032"><ele></ele><time>2014-10-8T13:6:27Z</time></trkpt>
<trkpt lat="46.17367876" lon="6.04092906"><ele></ele><time>2014-10-8T13:6:30Z</time></trkpt>
<trkpt lat="46.17367960" lon="6.04092915"><ele></ele><time>2014-10-8T13:6:33Z</time></trkpt>
<trkpt lat="46.17368035" lon="6.04092915"><ele></ele><time>2014-10-8T13:6:36Z</time></trkpt>
<trkpt lat="46.17368102" lon="6.04092889"><ele></ele><time>2014-10-8T13:6:39Z</time></trkpt>
<trkpt lat="46.17368127" lon="6.04092814"><ele></ele><time>2014-10-8T13:6:42Z</time></trkpt>
<trkpt lat="46.17368245" lon="6.04092713"><ele></ele><time>2014-10-8T13:6:45Z</time></trkpt>
<trkpt lat="46.17368303" lon="6.04092613"><ele></ele><time>2014-10-8T13:6:48Z</time></trkpt>
<trkpt lat="46.17368337" lon="6.04092512"><ele></ele><time>2014-10-8T13:6:51Z</time></trkpt>
<trkpt lat="46.17368362" lon="6.04092437"><ele></ele><time>2014-10-8T13:6:54Z</time></trkpt>
<trkpt lat="46.17368412" lon="6.04092370"><ele></ele><time>2014-10-8T13:6:57Z</time></trkpt>
<trkpt lat="46.17368454" lon="6.04092303"><ele></ele><time>2014-10-8T13:7:0Z</time></trkpt>
<trkpt lat="46.17368488" lon="6.04092227"><ele></ele><time>2014-10-8T13:7:3Z</time></trkpt>
<trkpt lat="46.17368504" lon="6.04092143"><ele></ele><time>2014-10-8T13:7:6Z</time></trkpt>
<trkpt lat="46.17368538" lon="6.04092076"><ele></ele><time>2014-10-8T13:7:9Z</time></trkpt>
<trkpt lat="46.17368563" lon="6.04092009"><ele></ele><time>2014-10-8T13:7:12Z</time></trkpt>
<trkpt lat="46.17368622" lon="6.04091909"><ele></ele><time>2014-10-8T13:7:15Z</time></trkpt>
<trkpt lat="46.17368689" lon="6.04091817"><ele></ele><time>2014-10-8T13:7:18Z</time></trkpt>
<trkpt lat="46.17368739" lon="6.04091750"><ele></ele><time>2014-10-8T13:7:21Z</time></trkpt>
<trkpt lat="46.17368789" lon="6.04091674"><ele></ele><time>2014-10-8T13:7:24Z</time></trkpt>
<trkpt lat="46.17368815" lon="6.04091607"><ele></ele><time>2014-10-8T13:7:27Z</time></trkpt>
<trkpt lat="46.17368840" lon="6.04091548"><ele></ele><time>2014-10-8T13:7:30Z</time></trkpt>
<trkpt lat="46.17368865" lon="6.04091490"><ele></ele><time>2014-10-8T13:7:33Z</time></trkpt>
<trkpt lat="46.17368907" lon="6.04091439"><ele></ele><time>2014-10-8T13:7:36Z</time></trkpt>
<trkpt lat="46.17368924" lon="6.04091389"><ele></ele><time>2014-10-8T13:7:39Z</time></trkpt>
<trkpt lat="46.17368932" lon="6.04091339"><ele></ele><time>2014-10-8T13:7:42Z</time></trkpt>
<trkpt lat="46.17368949" lon="6.04091297"><ele></ele><time>2014-10-8T13:7:45Z</time></trkpt>
<trkpt lat="46.17368957" lon="6.04091247"><ele></ele><time>2014-10-8T13:7:48Z</time></trkpt>
<trkpt lat="46.17368965" lon="6.04091205"><ele></ele><time>2014-10-8T13:7:51Z</time></trkpt>
<trkpt lat="46.17368965" lon="6.04091163"><ele></ele><time>2014-10-8T13:7:54Z</time></trkpt>
<trkpt lat="46.17368965" lon="6.04091129"><ele></ele><time>2014-10-8T13:7:57Z</time></trkpt>
<trkpt lat="46.17368965" lon="6.04091087"><ele></ele><time>2014-10-8T13:8:0Z</time></trkpt>
<trkpt lat="46.17368957" lon="6.04091054"><ele></ele><time>2014-10-8T13:8:3Z</time></trkpt>
<trkpt lat="46.17368949" lon="6.04091012"><ele></ele><time>2014-10-8T13:8:6Z</time></trkpt>
<trkpt lat="46.17368932" lon="6.04090987"><ele></ele><time>2014-10-8T13:8:9Z</time></trkpt>
<trkpt lat="46.17368924" lon="6.04090953"><ele></ele><time>2014-10-8T13:8:12Z</time></trkpt>
<trkpt lat="46.17368907" lon="6.04090920"><ele></ele><time>2014-10-8T13:8:15Z</time></trkpt>
<trkpt lat="46.17368898" lon="6.04090886"><ele></ele><time>2014-10-8T13:8:18Z</time></trkpt>
<trkpt lat="46.17368873" lon="6.04090844"><ele></ele><time>2014-10-8T13:8:21Z</time></trkpt>
<trkpt lat="46.17368865" lon="6.04090819"><ele></ele><time>2014-10-8T13:8:24Z</time></trkpt>
<trkpt lat="46.17368840" lon="6.04090777"><ele></ele><time>2014-10-8T13:8:27Z</time></trkpt>
<trkpt lat="46.17368815" lon="6.04090735"><ele></ele><time>2014-10-8T13:8:30Z</time></trkpt>
<trkpt lat="46.17368798" lon="6.04090693"><ele></ele><time>2014-10-8T13:8:33Z</time></trkpt>
<trkpt lat="46.17368789" lon="6.04090668"><ele></ele><time>2014-10-8T13:8:36Z</time></trkpt>
<trkpt lat="46.17368773" lon="6.04090626"><ele></ele><time>2014-10-8T13:8:39Z</time></trkpt>
<trkpt lat="46.17368756" lon="6.04090593"><ele></ele><time>2014-10-8T13:8:42Z</time></trkpt>
<trkpt lat="46.17368722" lon="6.04090543"><ele></ele><time>2014-10-8T13:8:45Z</time></trkpt>
<trkpt lat="46.17368706" lon="6.04090517"><ele></ele><time>2014-10-8T13:8:48Z</time></trkpt>
<trkpt lat="46.17368697" lon="6.04090475"><ele></ele><time>2014-10-8T13:8:51Z</time></trkpt>
<trkpt lat="46.17368689" lon="6.04090442"><ele></ele><time>2014-10-8T13:8:54Z</time></trkpt>
<trkpt lat="46.17368672" lon="6.04090417"><ele></ele><time>2014-10-8T13:8:57Z</time></trkpt>
<trkpt lat="46.17368655" lon="6.04090375"><ele></ele><time>2014-10-8T13:9:0Z</time></trkpt>
<trkpt lat="46.17368655" lon="6.04090333"><ele></ele><time>2014-10-8T13:9:3Z</time></trkpt>
<trkpt lat="46.17368639" lon="6.04090308"><ele></ele><time>2014-10-8T13:9:6Z</time></trkpt>
<trkpt lat="46.17368639" lon="6.04090274"><ele></ele><time>2014-10-8T13:9:9Z</time></trkpt>
<trkpt lat="46.17368639" lon="6.04090232"><ele></ele><time>2014-10-8T13:9:12Z</time></trkpt>
<trkpt lat="46.17368639" lon="6.04090207"><ele></ele><time>2014-10-8T13:9:15Z</time></trkpt>
<trkpt lat="46.17368622" lon="6.04090174"><ele></ele><time>2014-10-8T13:9:18Z</time></trkpt>
<trkpt lat="46.17368613" lon="6.04090149"><ele></ele><time>2014-10-8T13:9:21Z</time></trkpt>
<trkpt lat="46.17368605" lon="6.04090115"><ele></ele><time>2014-10-8T13:9:24Z</time></trkpt>
<trkpt lat="46.17368613" lon="6.04090090"><ele></ele><time>2014-10-8T13:9:27Z</time></trkpt>
<trkpt lat="46.17368639" lon="6.04090065"><ele></ele><time>2014-10-8T13:9:30Z</time></trkpt>
<trkpt lat="46.17368639" lon="6.04090056"><ele></ele><time>2014-10-8T13:9:33Z</time></trkpt>
<trkpt lat="46.17368647" lon="6.04090023"><ele></ele><time>2014-10-8T13:9:36Z</time></trkpt>
<trkpt lat="46.17368639" lon="6.04090006"><ele></ele><time>2014-10-8T13:9:39Z</time></trkpt>
<trkpt lat="46.17368647" lon="6.04089989"><ele></ele><time>2014-10-8T13:9:42Z</time></trkpt>
<trkpt lat="46.17368664" lon="6.04089964"><ele></ele><time>2014-10-8T13:9:45Z</time></trkpt>
<trkpt lat="46.17368689" lon="6.04089956"><ele></ele><time>2014-10-8T13:9:48Z</time></trkpt>
<trkpt lat="46.17368689" lon="6.04089939"><ele></ele><time>2014-10-8T13:9:51Z</time></trkpt>
<trkpt lat="46.17368689" lon="6.04089914"><ele></ele><time>2014-10-8T13:9:54Z</time></trkpt>
<trkpt lat="46.17368714" lon="6.04089906"><ele></ele><time>2014-10-8T13:9:57Z</time></trkpt>
<trkpt lat="46.17368739" lon="6.04089906"><ele></ele><time>2014-10-8T13:10:0Z</time></trkpt>
<trkpt lat="46.17368739" lon="6.04089872"><ele></ele><time>2014-10-8T13:10:3Z</time></trkpt>
<trkpt lat="46.17368697" lon="6.04089847"><ele></ele><time>2014-10-8T13:10:6Z</time></trkpt>
<trkpt lat="46.17368488" lon="6.04090207"><ele></ele><time>2014-10-8T13:10:9Z</time></trkpt>
<trkpt lat="46.17367876" lon="6.04090635"><ele></ele><time>2014-10-8T13:10:12Z</time></trkpt>
<trkpt lat="46.17367297" lon="6.04090509"><ele></ele><time>2014-10-8T13:10:15Z</time></trkpt>
<trkpt lat="46.17367172" lon="6.04090333"><ele></ele><time>2014-10-8T13:10:18Z</time></trkpt>
<trkpt lat="46.17367130" lon="6.04090484"><ele></ele><time>2014-10-8T13:10:21Z</time></trkpt>
<trkpt lat="46.17367079" lon="6.04090584"><ele></ele><time>2014-10-8T13:10:24Z</time></trkpt>
<trkpt lat="46.17366744" lon="6.04090090"><ele></ele><time>2014-10-8T13:10:27Z</time></trkpt>
<trkpt lat="46.17366333" lon="6.04088749"><ele></ele><time>2014-10-8T13:10:30Z</time></trkpt>
<trkpt lat="46.17365797" lon="6.04086779"><ele></ele><time>2014-10-8T13:10:33Z</time></trkpt>
<trkpt lat="46.17365235" lon="6.04084273"><ele></ele><time>2014-10-8T13:10:36Z</time></trkpt>
<trkpt lat="46.17364565" lon="6.04081046"><ele></ele><time>2014-10-8T13:10:39Z</time></trkpt>
<trkpt lat="46.17363534" lon="6.04077274"><ele></ele><time>2014-10-8T13:10:42Z</time></trkpt>
<trkpt lat="46.17362235" lon="6.04073334"><ele></ele><time>2014-10-8T13:10:45Z</time></trkpt>
<trkpt lat="46.17360248" lon="6.04068833"><ele></ele><time>2014-10-8T13:10:48Z</time></trkpt>
<trkpt lat="46.17357910" lon="6.04064148"><ele></ele><time>2014-10-8T13:10:51Z</time></trkpt>
<trkpt lat="46.17355429" lon="6.04059136"><ele></ele><time>2014-10-8T13:10:54Z</time></trkpt>
<trkpt lat="46.17352948" lon="6.04053830"><ele></ele><time>2014-10-8T13:10:57Z</time></trkpt>
<trkpt lat="46.17350450" lon="6.04048122"><ele></ele><time>2014-10-8T13:11:0Z</time></trkpt>
<trkpt lat="46.17347826" lon="6.04042196"><ele></ele><time>2014-10-8T13:11:3Z</time></trkpt>
<trkpt lat="46.17345253" lon="6.04035943"><ele></ele><time>2014-10-8T13:11:6Z</time></trkpt>
<trkpt lat="46.17342764" lon="6.04029313"><ele></ele><time>2014-10-8T13:11:9Z</time></trkpt>
<trkpt lat="46.17340425" lon="6.04022708"><ele></ele><time>2014-10-8T13:11:12Z</time></trkpt>
<trkpt lat="46.17338112" lon="6.04015952"><ele></ele><time>2014-10-8T13:11:15Z</time></trkpt>
<trkpt lat="46.17336025" lon="6.04008894"><ele></ele><time>2014-10-8T13:11:18Z</time></trkpt>
<trkpt lat="46.17334038" lon="6.04001778"><ele></ele><time>2014-10-8T13:11:21Z</time></trkpt>
<trkpt lat="46.17332395" lon="6.03994369"><ele></ele><time>2014-10-8T13:11:24Z</time></trkpt>
<trkpt lat="46.17331046" lon="6.03986733"><ele></ele><time>2014-10-8T13:11:27Z</time></trkpt>
<trkpt lat="46.17329855" lon="6.03979164"><ele></ele><time>2014-10-8T13:11:30Z</time></trkpt>
<trkpt lat="46.17328799" lon="6.03971645"><ele></ele><time>2014-10-8T13:11:33Z</time></trkpt>
<trkpt lat="46.17327827" lon="6.03963783"><ele></ele><time>2014-10-8T13:11:36Z</time></trkpt>
<trkpt lat="46.17326813" lon="6.03956072"><ele></ele><time>2014-10-8T13:11:39Z</time></trkpt>
<trkpt lat="46.17325614" lon="6.03948369"><ele></ele><time>2014-10-8T13:11:42Z</time></trkpt>
<trkpt lat="46.17323988" lon="6.03940967"><ele></ele><time>2014-10-8T13:11:45Z</time></trkpt>
<trkpt lat="46.17322245" lon="6.03933684"><ele></ele><time>2014-10-8T13:11:48Z</time></trkpt>
<trkpt lat="46.17321054" lon="6.03926316"><ele></ele><time>2014-10-8T13:11:51Z</time></trkpt>
<trkpt lat="46.17320258" lon="6.03918755"><ele></ele><time>2014-10-8T13:11:54Z</time></trkpt>
<trkpt lat="46.17319713" lon="6.03911136"><ele></ele><time>2014-10-8T13:11:57Z</time></trkpt>
<trkpt lat="46.17319462" lon="6.03903752"><ele></ele><time>2014-10-8T13:12:0Z</time></trkpt>
<trkpt lat="46.17319286" lon="6.03896778"><ele></ele><time>2014-10-8T13:12:3Z</time></trkpt>
<trkpt lat="46.17318272" lon="6.03890383"><ele></ele><time>2014-10-8T13:12:6Z</time></trkpt>
<trkpt lat="46.17315455" lon="6.03885706"><ele></ele><time>2014-10-8T13:12:9Z</time></trkpt>
<trkpt lat="46.17311139" lon="6.03883677"><ele></ele><time>2014-10-8T13:12:12Z</time></trkpt>
<trkpt lat="46.17306336" lon="6.03884398"><ele></ele><time>2014-10-8T13:12:15Z</time></trkpt>
<trkpt lat="46.17301458" lon="6.03887005"><ele></ele><time>2014-10-8T13:12:18Z</time></trkpt>
<trkpt lat="46.17296428" lon="6.03890383"><ele></ele><time>2014-10-8T13:12:21Z</time></trkpt>
<trkpt lat="46.17291198" lon="6.03894012"><ele></ele><time>2014-10-8T13:12:24Z</time></trkpt>
<trkpt lat="46.17285792" lon="6.03897683"><ele></ele><time>2014-10-8T13:12:27Z</time></trkpt>
<trkpt lat="46.17280268" lon="6.03901346"><ele></ele><time>2014-10-8T13:12:30Z</time></trkpt>
<trkpt lat="46.17274669" lon="6.03905068"><ele></ele><time>2014-10-8T13:12:33Z</time></trkpt>
<trkpt lat="46.17268994" lon="6.03908706"><ele></ele><time>2014-10-8T13:12:36Z</time></trkpt>
<trkpt lat="46.17263328" lon="6.03912352"><ele></ele><time>2014-10-8T13:12:39Z</time></trkpt>
<trkpt lat="46.17257738" lon="6.03916073"><ele></ele><time>2014-10-8T13:12:42Z</time></trkpt>
<trkpt lat="46.17252247" lon="6.03919736"><ele></ele><time>2014-10-8T13:12:45Z</time></trkpt>
<trkpt lat="46.17246782" lon="6.03923298"><ele></ele><time>2014-10-8T13:12:48Z</time></trkpt>
<trkpt lat="46.17241376" lon="6.03926819"><ele></ele><time>2014-10-8T13:12:51Z</time></trkpt>
<trkpt lat="46.17235978" lon="6.03930289"><ele></ele><time>2014-10-8T13:12:54Z</time></trkpt>
<trkpt lat="46.17230605" lon="6.03933709"><ele></ele><time>2014-10-8T13:12:57Z</time></trkpt>
<trkpt lat="46.17225233" lon="6.03937162"><ele></ele><time>2014-10-8T13:13:0Z</time></trkpt>
<trkpt lat="46.17219885" lon="6.03940682"><ele></ele><time>2014-10-8T13:13:3Z</time></trkpt>
<trkpt lat="46.17214537" lon="6.03944169"><ele></ele><time>2014-10-8T13:13:6Z</time></trkpt>
<trkpt lat="46.17209240" lon="6.03947564"><ele></ele><time>2014-10-8T13:13:9Z</time></trkpt>
<trkpt lat="46.17203976" lon="6.03950917"><ele></ele><time>2014-10-8T13:13:12Z</time></trkpt>
<trkpt lat="46.17198746" lon="6.03954278"><ele></ele><time>2014-10-8T13:13:15Z</time></trkpt>
<trkpt lat="46.17193566" lon="6.03957622"><ele></ele><time>2014-10-8T13:13:18Z</time></trkpt>
<trkpt lat="46.17188377" lon="6.03960782"><ele></ele><time>2014-10-8T13:13:21Z</time></trkpt>
<trkpt lat="46.17183273" lon="6.03963808"><ele></ele><time>2014-10-8T13:13:24Z</time></trkpt>
<trkpt lat="46.17178445" lon="6.03966960"><ele></ele><time>2014-10-8T13:13:27Z</time></trkpt>
<trkpt lat="46.17173902" lon="6.03970053"><ele></ele><time>2014-10-8T13:13:30Z</time></trkpt>
<trkpt lat="46.17169719" lon="6.03973364"><ele></ele><time>2014-10-8T13:13:33Z</time></trkpt>
<trkpt lat="46.17165830" lon="6.03976976"><ele></ele><time>2014-10-8T13:13:36Z</time></trkpt>
<trkpt lat="46.17161958" lon="6.03980153"><ele></ele><time>2014-10-8T13:13:39Z</time></trkpt>
<trkpt lat="46.17158077" lon="6.03982768"><ele></ele><time>2014-10-8T13:13:42Z</time></trkpt>
<trkpt lat="46.17154456" lon="6.03985174"><ele></ele><time>2014-10-8T13:13:45Z</time></trkpt>
<trkpt lat="46.17150986" lon="6.03986858"><ele></ele><time>2014-10-8T13:13:48Z</time></trkpt>
<trkpt lat="46.17147448" lon="6.03986439"><ele></ele><time>2014-10-8T13:13:51Z</time></trkpt>
<trkpt lat="46.17144205" lon="6.03983380"><ele></ele><time>2014-10-8T13:13:54Z</time></trkpt>
<trkpt lat="46.17141606" lon="6.03978108"><ele></ele><time>2014-10-8T13:13:57Z</time></trkpt>
<trkpt lat="46.17139117" lon="6.03972022"><ele></ele><time>2014-10-8T13:14:0Z</time></trkpt>
<trkpt lat="46.17136342" lon="6.03965669"><ele></ele><time>2014-10-8T13:14:3Z</time></trkpt>
<trkpt lat="46.17133518" lon="6.03959098"><ele></ele><time>2014-10-8T13:14:6Z</time></trkpt>
<trkpt lat="46.17130660" lon="6.03952375"><ele></ele><time>2014-10-8T13:14:9Z</time></trkpt>
<trkpt lat="46.17127667" lon="6.03945670"><ele></ele><time>2014-10-8T13:14:12Z</time></trkpt>
<trkpt lat="46.17124608" lon="6.03938847"><ele></ele><time>2014-10-8T13:14:15Z</time></trkpt>
<trkpt lat="46.17121490" lon="6.03932024"><ele></ele><time>2014-10-8T13:14:18Z</time></trkpt>
<trkpt lat="46.17118196" lon="6.03925168"><ele></ele><time>2014-10-8T13:14:21Z</time></trkpt>
<trkpt lat="46.17114868" lon="6.03918102"><ele></ele><time>2014-10-8T13:14:24Z</time></trkpt>
<trkpt lat="46.17111532" lon="6.03910876"><ele></ele><time>2014-10-8T13:14:27Z</time></trkpt>
<trkpt lat="46.17108146" lon="6.03903685"><ele></ele><time>2014-10-8T13:14:30Z</time></trkpt>
<trkpt lat="46.17104550" lon="6.03896409"><ele></ele><time>2014-10-8T13:14:33Z</time></trkpt>
<trkpt lat="46.17100937" lon="6.03888958"><ele></ele><time>2014-10-8T13:14:36Z</time></trkpt>
<trkpt lat="46.17097459" lon="6.03881263"><ele></ele><time>2014-10-8T13:14:39Z</time></trkpt>
<trkpt lat="46.17094257" lon="6.03873334"><ele></ele><time>2014-10-8T13:14:42Z</time></trkpt>
<trkpt lat="46.17091784" lon="6.03865094"><ele></ele><time>2014-10-8T13:14:45Z</time></trkpt>
<trkpt lat="46.17090527" lon="6.03856545"><ele></ele><time>2014-10-8T13:14:48Z</time></trkpt>
<trkpt lat="46.17090477" lon="6.03848130"><ele></ele><time>2014-10-8T13:14:51Z</time></trkpt>
<trkpt lat="46.17090485" lon="6.03840653"><ele></ele><time>2014-10-8T13:14:54Z</time></trkpt>
<trkpt lat="46.17089496" lon="6.03834769"><ele></ele><time>2014-10-8T13:14:57Z</time></trkpt>
<trkpt lat="46.17087526" lon="6.03829614"><ele></ele><time>2014-10-8T13:15:0Z</time></trkpt>
<trkpt lat="46.17084643" lon="6.03824727"><ele></ele><time>2014-10-8T13:15:3Z</time></trkpt>
<trkpt lat="46.17080670" lon="6.03820846"><ele></ele><time>2014-10-8T13:15:6Z</time></trkpt>
<trkpt lat="46.17075817" lon="6.03818022"><ele></ele><time>2014-10-8T13:15:9Z</time></trkpt>
<trkpt lat="46.17070712" lon="6.03814627"><ele></ele><time>2014-10-8T13:15:12Z</time></trkpt>
<trkpt lat="46.17066052" lon="6.03809229"><ele></ele><time>2014-10-8T13:15:15Z</time></trkpt>
<trkpt lat="46.17061894" lon="6.03802079"><ele></ele><time>2014-10-8T13:15:18Z</time></trkpt>
<trkpt lat="46.17058014" lon="6.03793924"><ele></ele><time>2014-10-8T13:15:21Z</time></trkpt>
<trkpt lat="46.17054166" lon="6.03785299"><ele></ele><time>2014-10-8T13:15:24Z</time></trkpt>
<trkpt lat="46.17050109" lon="6.03776632"><ele></ele><time>2014-10-8T13:15:27Z</time></trkpt>
<trkpt lat="46.17045918" lon="6.03767906"><ele></ele><time>2014-10-8T13:15:30Z</time></trkpt>
<trkpt lat="46.17041853" lon="6.03758996"><ele></ele><time>2014-10-8T13:15:33Z</time></trkpt>
<trkpt lat="46.17037838" lon="6.03750003"><ele></ele><time>2014-10-8T13:15:36Z</time></trkpt>
<trkpt lat="46.17033798" lon="6.03741017"><ele></ele><time>2014-10-8T13:15:39Z</time></trkpt>
<trkpt lat="46.17029750" lon="6.03732015"><ele></ele><time>2014-10-8T13:15:42Z</time></trkpt>
<trkpt lat="46.17025676" lon="6.03722988"><ele></ele><time>2014-10-8T13:15:45Z</time></trkpt>
<trkpt lat="46.17021519" lon="6.03713927"><ele></ele><time>2014-10-8T13:15:48Z</time></trkpt>
<trkpt lat="46.17017328" lon="6.03704900"><ele></ele><time>2014-10-8T13:15:51Z</time></trkpt>
<trkpt lat="46.17013145" lon="6.03695847"><ele></ele><time>2014-10-8T13:15:54Z</time></trkpt>
<trkpt lat="46.17008996" lon="6.03686769"><ele></ele><time>2014-10-8T13:15:57Z</time></trkpt>
<trkpt lat="46.17004914" lon="6.03677675"><ele></ele><time>2014-10-8T13:16:0Z</time></trkpt>
<trkpt lat="46.17000924" lon="6.03668623"><ele></ele><time>2014-10-8T13:16:3Z</time></trkpt>
<trkpt lat="46.16996935" lon="6.03659612"><ele></ele><time>2014-10-8T13:16:6Z</time></trkpt>
<trkpt lat="46.16992869" lon="6.03650593"><ele></ele><time>2014-10-8T13:16:9Z</time></trkpt>
<trkpt lat="46.16988838" lon="6.03641507"><ele></ele><time>2014-10-8T13:16:12Z</time></trkpt>
<trkpt lat="46.16984823" lon="6.03632379"><ele></ele><time>2014-10-8T13:16:15Z</time></trkpt>
<trkpt lat="46.16980816" lon="6.03623226"><ele></ele><time>2014-10-8T13:16:18Z</time></trkpt>
<trkpt lat="46.16976868" lon="6.03613989"><ele></ele><time>2014-10-8T13:16:21Z</time></trkpt>
<trkpt lat="46.16972929" lon="6.03604686"><ele></ele><time>2014-10-8T13:16:24Z</time></trkpt>
<trkpt lat="46.16968998" lon="6.03595365"><ele></ele><time>2014-10-8T13:16:27Z</time></trkpt>
<trkpt lat="46.16965134" lon="6.03586078"><ele></ele><time>2014-10-8T13:16:30Z</time></trkpt>
<trkpt lat="46.16961295" lon="6.03576765"><ele></ele><time>2014-10-8T13:16:33Z</time></trkpt>
<trkpt lat="46.16957439" lon="6.03567436"><ele></ele><time>2014-10-8T13:16:36Z</time></trkpt>
<trkpt lat="46.16953525" lon="6.03558107"><ele></ele><time>2014-10-8T13:16:39Z</time></trkpt>
<trkpt lat="46.16949602" lon="6.03548770"><ele></ele><time>2014-10-8T13:16:42Z</time></trkpt>
<trkpt lat="46.16945738" lon="6.03539374"><ele></ele><time>2014-10-8T13:16:45Z</time></trkpt>
<trkpt lat="46.16941958" lon="6.03529894"><ele></ele><time>2014-10-8T13:16:48Z</time></trkpt>
<trkpt lat="46.16938186" lon="6.03520422"><ele></ele><time>2014-10-8T13:16:51Z</time></trkpt>
<trkpt lat="46.16934297" lon="6.03511009"><ele></ele><time>2014-10-8T13:16:54Z</time></trkpt>
<trkpt lat="46.16930416" lon="6.03501496"><ele></ele><time>2014-10-8T13:16:57Z</time></trkpt>
<trkpt lat="46.16926594" lon="6.03491865"><ele></ele><time>2014-10-8T13:17:0Z</time></trkpt>
<trkpt lat="46.16922872" lon="6.03482142"><ele></ele><time>2014-10-8T13:17:3Z</time></trkpt>
<trkpt lat="46.16919184" lon="6.03472377"><ele></ele><time>2014-10-8T13:17:6Z</time></trkpt>
<trkpt lat="46.16915446" lon="6.03462629"><ele></ele><time>2014-10-8T13:17:9Z</time></trkpt>
<trkpt lat="46.16911733" lon="6.03452872"><ele></ele><time>2014-10-8T13:17:12Z</time></trkpt>
<trkpt lat="46.16908086" lon="6.03443099"><ele></ele><time>2014-10-8T13:17:15Z</time></trkpt>
<trkpt lat="46.16904432" lon="6.03433326"><ele></ele><time>2014-10-8T13:17:18Z</time></trkpt>
<trkpt lat="46.16900803" lon="6.03423553"><ele></ele><time>2014-10-8T13:17:21Z</time></trkpt>
<trkpt lat="46.16897257" lon="6.03413712"><ele></ele><time>2014-10-8T13:17:24Z</time></trkpt>
<trkpt lat="46.16893745" lon="6.03403855"><ele></ele><time>2014-10-8T13:17:27Z</time></trkpt>
<trkpt lat="46.16890233" lon="6.03394107"><ele></ele><time>2014-10-8T13:17:30Z</time></trkpt>
<trkpt lat="46.16886763" lon="6.03384342"><ele></ele><time>2014-10-8T13:17:33Z</time></trkpt>
<trkpt lat="46.16883293" lon="6.03374577"><ele></ele><time>2014-10-8T13:17:36Z</time></trkpt>
<trkpt lat="46.16879806" lon="6.03364846"><ele></ele><time>2014-10-8T13:17:39Z</time></trkpt>
<trkpt lat="46.16876386" lon="6.03355098"><ele></ele><time>2014-10-8T13:17:42Z</time></trkpt>
<trkpt lat="46.16873033" lon="6.03345324"><ele></ele><time>2014-10-8T13:17:45Z</time></trkpt>
<trkpt lat="46.16869697" lon="6.03335576"><ele></ele><time>2014-10-8T13:17:48Z</time></trkpt>
<trkpt lat="46.16866370" lon="6.03325778"><ele></ele><time>2014-10-8T13:17:51Z</time></trkpt>
<trkpt lat="46.16863009" lon="6.03315996"><ele></ele><time>2014-10-8T13:17:54Z</time></trkpt>
<trkpt lat="46.16859673" lon="6.03306239"><ele></ele><time>2014-10-8T13:17:57Z</time></trkpt>
<trkpt lat="46.16856362" lon="6.03296416"><ele></ele><time>2014-10-8T13:18:0Z</time></trkpt>
<trkpt lat="46.16853034" lon="6.03286567"><ele></ele><time>2014-10-8T13:18:3Z</time></trkpt>
<trkpt lat="46.16849698" lon="6.03276735"><ele></ele><time>2014-10-8T13:18:6Z</time></trkpt>
<trkpt lat="46.16846345" lon="6.03266903"><ele></ele><time>2014-10-8T13:18:9Z</time></trkpt>
<trkpt lat="46.16843018" lon="6.03257088"><ele></ele><time>2014-10-8T13:18:12Z</time></trkpt>
<trkpt lat="46.16839732" lon="6.03247264"><ele></ele><time>2014-10-8T13:18:15Z</time></trkpt>
<trkpt lat="46.16836480" lon="6.03237458"><ele></ele><time>2014-10-8T13:18:18Z</time></trkpt>
<trkpt lat="46.16833194" lon="6.03227684"><ele></ele><time>2014-10-8T13:18:21Z</time></trkpt>
<trkpt lat="46.16829875" lon="6.03217945"><ele></ele><time>2014-10-8T13:18:24Z</time></trkpt>
<trkpt lat="46.16826673" lon="6.03208163"><ele></ele><time>2014-10-8T13:18:27Z</time></trkpt>
<trkpt lat="46.16823672" lon="6.03198255"><ele></ele><time>2014-10-8T13:18:30Z</time></trkpt>
<trkpt lat="46.16820588" lon="6.03188356"><ele></ele><time>2014-10-8T13:18:33Z</time></trkpt>
<trkpt lat="46.16817419" lon="6.03178483"><ele></ele><time>2014-10-8T13:18:36Z</time></trkpt>
<trkpt lat="46.16814218" lon="6.03168634"><ele></ele><time>2014-10-8T13:18:39Z</time></trkpt>
<trkpt lat="46.16810965" lon="6.03158852"><ele></ele><time>2014-10-8T13:18:42Z</time></trkpt>
<trkpt lat="46.16807763" lon="6.03149028"><ele></ele><time>2014-10-8T13:18:45Z</time></trkpt>
<trkpt lat="46.16804578" lon="6.03139146"><ele></ele><time>2014-10-8T13:18:48Z</time></trkpt>
<trkpt lat="46.16801385" lon="6.03129247"><ele></ele><time>2014-10-8T13:18:51Z</time></trkpt>
<trkpt lat="46.16798149" lon="6.03119348"><ele></ele><time>2014-10-8T13:18:54Z</time></trkpt>
<trkpt lat="46.16794872" lon="6.03109432"><ele></ele><time>2014-10-8T13:18:57Z</time></trkpt>
<trkpt lat="46.16791603" lon="6.03099483"><ele></ele><time>2014-10-8T13:19:0Z</time></trkpt>
<trkpt lat="46.16788368" lon="6.03089483"><ele></ele><time>2014-10-8T13:19:3Z</time></trkpt>
<trkpt lat="46.16785149" lon="6.03079408"><ele></ele><time>2014-10-8T13:19:6Z</time></trkpt>
<trkpt lat="46.16781855" lon="6.03069275"><ele></ele><time>2014-10-8T13:19:9Z</time></trkpt>
<trkpt lat="46.16778544" lon="6.03059107"><ele></ele><time>2014-10-8T13:19:12Z</time></trkpt>
<trkpt lat="46.16775267" lon="6.03048907"><ele></ele><time>2014-10-8T13:19:15Z</time></trkpt>
<trkpt lat="46.16771973" lon="6.03038698"><ele></ele><time>2014-10-8T13:19:18Z</time></trkpt>
<trkpt lat="46.16768687" lon="6.03028522"><ele></ele><time>2014-10-8T13:19:21Z</time></trkpt>
<trkpt lat="46.16765410" lon="6.03018363"><ele></ele><time>2014-10-8T13:19:24Z</time></trkpt>
<trkpt lat="46.16762124" lon="6.03008196"><ele></ele><time>2014-10-8T13:19:27Z</time></trkpt>
<trkpt lat="46.16758796" lon="6.02998037"><ele></ele><time>2014-10-8T13:19:30Z</time></trkpt>
<trkpt lat="46.16755435" lon="6.02987878"><ele></ele><time>2014-10-8T13:19:33Z</time></trkpt>
<trkpt lat="46.16752099" lon="6.02977728"><ele></ele><time>2014-10-8T13:19:36Z</time></trkpt>
<trkpt lat="46.16748797" lon="6.02967594"><ele></ele><time>2014-10-8T13:19:39Z</time></trkpt>
<trkpt lat="46.16745494" lon="6.02957443"><ele></ele><time>2014-10-8T13:19:42Z</time></trkpt>
<trkpt lat="46.16742116" lon="6.02947335"><ele></ele><time>2014-10-8T13:19:45Z</time></trkpt>
<trkpt lat="46.16738713" lon="6.02937235"><ele></ele><time>2014-10-8T13:19:48Z</time></trkpt>
<trkpt lat="46.16735327" lon="6.02927067"><ele></ele><time>2014-10-8T13:19:51Z</time></trkpt>
<trkpt lat="46.16731958" lon="6.02916883"><ele></ele><time>2014-10-8T13:19:54Z</time></trkpt>
<trkpt lat="46.16728563" lon="6.02906733"><ele></ele><time>2014-10-8T13:19:57Z</time></trkpt>
<trkpt lat="46.16725126" lon="6.02896599"><ele></ele><time>2014-10-8T13:20:0Z</time></trkpt>
<trkpt lat="46.16721690" lon="6.02886373"><ele></ele><time>2014-10-8T13:20:3Z</time></trkpt>
<trkpt lat="46.16718303" lon="6.02876147"><ele></ele><time>2014-10-8T13:20:6Z</time></trkpt>
<trkpt lat="46.16714959" lon="6.02865946"><ele></ele><time>2014-10-8T13:20:9Z</time></trkpt>
<trkpt lat="46.16711598" lon="6.02855779"><ele></ele><time>2014-10-8T13:20:12Z</time></trkpt>
<trkpt lat="46.16708228" lon="6.02845629"><ele></ele><time>2014-10-8T13:20:15Z</time></trkpt>
<trkpt lat="46.16704809" lon="6.02835529"><ele></ele><time>2014-10-8T13:20:18Z</time></trkpt>
<trkpt lat="46.16701338" lon="6.02825495"><ele></ele><time>2014-10-8T13:20:21Z</time></trkpt>
<trkpt lat="46.16697935" lon="6.02815479"><ele></ele><time>2014-10-8T13:20:24Z</time></trkpt>
<trkpt lat="46.16694549" lon="6.02805446"><ele></ele><time>2014-10-8T13:20:27Z</time></trkpt>
<trkpt lat="46.16691129" lon="6.02795463"><ele></ele><time>2014-10-8T13:20:30Z</time></trkpt>
<trkpt lat="46.16687735" lon="6.02785463"><ele></ele><time>2014-10-8T13:20:33Z</time></trkpt>
<trkpt lat="46.16684357" lon="6.02775447"><ele></ele><time>2014-10-8T13:20:36Z</time></trkpt>
<trkpt lat="46.16680912" lon="6.02765447"><ele></ele><time>2014-10-8T13:20:39Z</time></trkpt>
<trkpt lat="46.16677458" lon="6.02755490"><ele></ele><time>2014-10-8T13:20:42Z</time></trkpt>
<trkpt lat="46.16674013" lon="6.02745515"><ele></ele><time>2014-10-8T13:20:45Z</time></trkpt>
<trkpt lat="46.16670577" lon="6.02735558"><ele></ele><time>2014-10-8T13:20:48Z</time></trkpt>
<trkpt lat="46.16667107" lon="6.02725608"><ele></ele><time>2014-10-8T13:20:51Z</time></trkpt>
<trkpt lat="46.16663637" lon="6.02715584"><ele></ele><time>2014-10-8T13:20:54Z</time></trkpt>
<trkpt lat="46.16660192" lon="6.02705576"><ele></ele><time>2014-10-8T13:20:57Z</time></trkpt>
<trkpt lat="46.16656680" lon="6.02695559"><ele></ele><time>2014-10-8T13:21:0Z</time></trkpt>
<trkpt lat="46.16653092" lon="6.02685543"><ele></ele><time>2014-10-8T13:21:3Z</time></trkpt>
<trkpt lat="46.16649513" lon="6.02675635"><ele></ele><time>2014-10-8T13:21:6Z</time></trkpt>
<trkpt lat="46.16645976" lon="6.02666080"><ele></ele><time>2014-10-8T13:21:9Z</time></trkpt>
<trkpt lat="46.16642456" lon="6.02656499"><ele></ele><time>2014-10-8T13:21:12Z</time></trkpt>
<trkpt lat="46.16638977" lon="6.02647003"><ele></ele><time>2014-10-8T13:21:15Z</time></trkpt>
<trkpt lat="46.16635482" lon="6.02637565"><ele></ele><time>2014-10-8T13:21:18Z</time></trkpt>
<trkpt lat="46.16632012" lon="6.02628202"><ele></ele><time>2014-10-8T13:21:21Z</time></trkpt>
<trkpt lat="46.16628617" lon="6.02619083"><ele></ele><time>2014-10-8T13:21:24Z</time></trkpt>
<trkpt lat="46.16625340" lon="6.02610139"><ele></ele><time>2014-10-8T13:21:27Z</time></trkpt>
<trkpt lat="46.16622096" lon="6.02601372"><ele></ele><time>2014-10-8T13:21:30Z</time></trkpt>
<trkpt lat="46.16618894" lon="6.02592839"><ele></ele><time>2014-10-8T13:21:33Z</time></trkpt>
<trkpt lat="46.16615717" lon="6.02584566"><ele></ele><time>2014-10-8T13:21:36Z</time></trkpt>
<trkpt lat="46.16612650" lon="6.02576494"><ele></ele><time>2014-10-8T13:21:39Z</time></trkpt>
<trkpt lat="46.16609624" lon="6.02568506"><ele></ele><time>2014-10-8T13:21:42Z</time></trkpt>
<trkpt lat="46.16606648" lon="6.02560745"><ele></ele><time>2014-10-8T13:21:45Z</time></trkpt>
<trkpt lat="46.16604326" lon="6.02552782"><ele></ele><time>2014-10-8T13:21:48Z</time></trkpt>
<trkpt lat="46.16603832" lon="6.02544442"><ele></ele><time>2014-10-8T13:21:51Z</time></trkpt>
<trkpt lat="46.16604896" lon="6.02536169"><ele></ele><time>2014-10-8T13:21:54Z</time></trkpt>
<trkpt lat="46.16605299" lon="6.02527913"><ele></ele><time>2014-10-8T13:21:57Z</time></trkpt>
<trkpt lat="46.16603513" lon="6.02520285"><ele></ele><time>2014-10-8T13:22:0Z</time></trkpt>
<trkpt lat="46.16599876" lon="6.02513999"><ele></ele><time>2014-10-8T13:22:3Z</time></trkpt>
<trkpt lat="46.16594888" lon="6.02509615"><ele></ele><time>2014-10-8T13:22:6Z</time></trkpt>
<trkpt lat="46.16589138" lon="6.02506254"><ele></ele><time>2014-10-8T13:22:9Z</time></trkpt>
<trkpt lat="46.16583807" lon="6.02500722"><ele></ele><time>2014-10-8T13:22:12Z</time></trkpt>
<trkpt lat="46.16579918" lon="6.02492357"><ele></ele><time>2014-10-8T13:22:15Z</time></trkpt>
<trkpt lat="46.16576683" lon="6.02483120"><ele></ele><time>2014-10-8T13:22:18Z</time></trkpt>
<trkpt lat="46.16573355" lon="6.02473699"><ele></ele><time>2014-10-8T13:22:21Z</time></trkpt>
<trkpt lat="46.16569499" lon="6.02464110"><ele></ele><time>2014-10-8T13:22:24Z</time></trkpt>
<trkpt lat="46.16565526" lon="6.02454512"><ele></ele><time>2014-10-8T13:22:27Z</time></trkpt>
<trkpt lat="46.16561780" lon="6.02444965"><ele></ele><time>2014-10-8T13:22:30Z</time></trkpt>
<trkpt lat="46.16557882" lon="6.02435284"><ele></ele><time>2014-10-8T13:22:33Z</time></trkpt>
<trkpt lat="46.16553976" lon="6.02425519"><ele></ele><time>2014-10-8T13:22:36Z</time></trkpt>
<trkpt lat="46.16549970" lon="6.02415629"><ele></ele><time>2014-10-8T13:22:39Z</time></trkpt>
<trkpt lat="46.16545888" lon="6.02405679"><ele></ele><time>2014-10-8T13:22:42Z</time></trkpt>
<trkpt lat="46.16541722" lon="6.02395722"><ele></ele><time>2014-10-8T13:22:45Z</time></trkpt>
<trkpt lat="46.16537556" lon="6.02385672"><ele></ele><time>2014-10-8T13:22:48Z</time></trkpt>
<trkpt lat="46.16533382" lon="6.02375463"><ele></ele><time>2014-10-8T13:22:51Z</time></trkpt>
<trkpt lat="46.16529048" lon="6.02365086"><ele></ele><time>2014-10-8T13:22:54Z</time></trkpt>
<trkpt lat="46.16524715" lon="6.02354424"><ele></ele><time>2014-10-8T13:22:57Z</time></trkpt>
<trkpt lat="46.16520407" lon="6.02343494"><ele></ele><time>2014-10-8T13:23:0Z</time></trkpt>
<trkpt lat="46.16515939" lon="6.02332539"><ele></ele><time>2014-10-8T13:23:3Z</time></trkpt>
<trkpt lat="46.16511379" lon="6.02321592"><ele></ele><time>2014-10-8T13:23:6Z</time></trkpt>
<trkpt lat="46.16506719" lon="6.02310637"><ele></ele><time>2014-10-8T13:23:9Z</time></trkpt>
<trkpt lat="46.16502084" lon="6.02299665"><ele></ele><time>2014-10-8T13:23:12Z</time></trkpt>
<trkpt lat="46.16497507" lon="6.02288643"><ele></ele><time>2014-10-8T13:23:15Z</time></trkpt>
<trkpt lat="46.16492839" lon="6.02277604"><ele></ele><time>2014-10-8T13:23:18Z</time></trkpt>
<trkpt lat="46.16488170" lon="6.02266607"><ele></ele><time>2014-10-8T13:23:21Z</time></trkpt>
<trkpt lat="46.16483568" lon="6.02255719"><ele></ele><time>2014-10-8T13:23:24Z</time></trkpt>
<trkpt lat="46.16478958" lon="6.02244990"><ele></ele><time>2014-10-8T13:23:27Z</time></trkpt>
<trkpt lat="46.16474315" lon="6.02234479"><ele></ele><time>2014-10-8T13:23:30Z</time></trkpt>
<trkpt lat="46.16469855" lon="6.02223993"><ele></ele><time>2014-10-8T13:23:33Z</time></trkpt>
<trkpt lat="46.16465514" lon="6.02213549"><ele></ele><time>2014-10-8T13:23:36Z</time></trkpt>
<trkpt lat="46.16461147" lon="6.02203256"><ele></ele><time>2014-10-8T13:23:39Z</time></trkpt>
<trkpt lat="46.16456805" lon="6.02193022"><ele></ele><time>2014-10-8T13:23:42Z</time></trkpt>
<trkpt lat="46.16452396" lon="6.02182914"><ele></ele><time>2014-10-8T13:23:45Z</time></trkpt>
<trkpt lat="46.16447987" lon="6.02172906"><ele></ele><time>2014-10-8T13:23:48Z</time></trkpt>
<trkpt lat="46.16443746" lon="6.02162856"><ele></ele><time>2014-10-8T13:23:51Z</time></trkpt>
<trkpt lat="46.16439597" lon="6.02152982"><ele></ele><time>2014-10-8T13:23:54Z</time></trkpt>
<trkpt lat="46.16435498" lon="6.02143493"><ele></ele><time>2014-10-8T13:23:57Z</time></trkpt>
<trkpt lat="46.16431508" lon="6.02134458"><ele></ele><time>2014-10-8T13:24:0Z</time></trkpt>
<trkpt lat="46.16427728" lon="6.02125967"><ele></ele><time>2014-10-8T13:24:3Z</time></trkpt>
<trkpt lat="46.16424182" lon="6.02118163"><ele></ele><time>2014-10-8T13:24:6Z</time></trkpt>
<trkpt lat="46.16420587" lon="6.02110838"><ele></ele><time>2014-10-8T13:24:9Z</time></trkpt>
<trkpt lat="46.16416907" lon="6.02102992"><ele></ele><time>2014-10-8T13:24:12Z</time></trkpt>
<trkpt lat="46.16413563" lon="6.02093956"><ele></ele><time>2014-10-8T13:24:15Z</time></trkpt>
<trkpt lat="46.16410218" lon="6.02084208"><ele></ele><time>2014-10-8T13:24:18Z</time></trkpt>
<trkpt lat="46.16406463" lon="6.02074368"><ele></ele><time>2014-10-8T13:24:21Z</time></trkpt>
<trkpt lat="46.16402406" lon="6.02064494"><ele></ele><time>2014-10-8T13:24:24Z</time></trkpt>
<trkpt lat="46.16398157" lon="6.02054595"><ele></ele><time>2014-10-8T13:24:27Z</time></trkpt>
<trkpt lat="46.16393848" lon="6.02044679"><ele></ele><time>2014-10-8T13:24:30Z</time></trkpt>
<trkpt lat="46.16389548" lon="6.02034596"><ele></ele><time>2014-10-8T13:24:33Z</time></trkpt>
<trkpt lat="46.16385190" lon="6.02024378"><ele></ele><time>2014-10-8T13:24:36Z</time></trkpt>
<trkpt lat="46.16380764" lon="6.02014043"><ele></ele><time>2014-10-8T13:24:39Z</time></trkpt>
<trkpt lat="46.16376280" lon="6.02003776"><ele></ele><time>2014-10-8T13:24:42Z</time></trkpt>
<trkpt lat="46.16371754" lon="6.01993466"><ele></ele><time>2014-10-8T13:24:45Z</time></trkpt>
<trkpt lat="46.16367269" lon="6.01982997"><ele></ele><time>2014-10-8T13:24:48Z</time></trkpt>
<trkpt lat="46.16362819" lon="6.01972494"><ele></ele><time>2014-10-8T13:24:51Z</time></trkpt>
<trkpt lat="46.16358326" lon="6.01962176"><ele></ele><time>2014-10-8T13:24:54Z</time></trkpt>
<trkpt lat="46.16353892" lon="6.01951766"><ele></ele><time>2014-10-8T13:24:57Z</time></trkpt>
<trkpt lat="46.16349500" lon="6.01941247"><ele></ele><time>2014-10-8T13:25:0Z</time></trkpt>
<trkpt lat="46.16345066" lon="6.01930744"><ele></ele><time>2014-10-8T13:25:3Z</time></trkpt>
<trkpt lat="46.16340715" lon="6.01920216"><ele></ele><time>2014-10-8T13:25:6Z</time></trkpt>
<trkpt lat="46.16336558" lon="6.01909647"><ele></ele><time>2014-10-8T13:25:9Z</time></trkpt>
<trkpt lat="46.16332510" lon="6.01899220"><ele></ele><time>2014-10-8T13:25:12Z</time></trkpt>
<trkpt lat="46.16328377" lon="6.01889019"><ele></ele><time>2014-10-8T13:25:15Z</time></trkpt>
<trkpt lat="46.16324178" lon="6.01879019"><ele></ele><time>2014-10-8T13:25:18Z</time></trkpt>
<trkpt lat="46.16320012" lon="6.01869137"><ele></ele><time>2014-10-8T13:25:21Z</time></trkpt>
<trkpt lat="46.16315922" lon="6.01859372"><ele></ele><time>2014-10-8T13:25:24Z</time></trkpt>
<trkpt lat="46.16311898" lon="6.01849984"><ele></ele><time>2014-10-8T13:25:27Z</time></trkpt>
<trkpt lat="46.16308076" lon="6.01840798"><ele></ele><time>2014-10-8T13:25:30Z</time></trkpt>
<trkpt lat="46.16304388" lon="6.01831762"><ele></ele><time>2014-10-8T13:25:33Z</time></trkpt>
<trkpt lat="46.16300767" lon="6.01823037"><ele></ele><time>2014-10-8T13:25:36Z</time></trkpt>
<trkpt lat="46.16297373" lon="6.01814370"><ele></ele><time>2014-10-8T13:25:39Z</time></trkpt>
<trkpt lat="46.16294933" lon="6.01805175"><ele></ele><time>2014-10-8T13:25:42Z</time></trkpt>
<trkpt lat="46.16294154" lon="6.01795485"><ele></ele><time>2014-10-8T13:25:45Z</time></trkpt>
<trkpt lat="46.16293718" lon="6.01785628"><ele></ele><time>2014-10-8T13:25:48Z</time></trkpt>
<trkpt lat="46.16291673" lon="6.01776307"><ele></ele><time>2014-10-8T13:25:51Z</time></trkpt>
<trkpt lat="46.16287415" lon="6.01768697"><ele></ele><time>2014-10-8T13:25:54Z</time></trkpt>
<trkpt lat="46.16281447" lon="6.01763466"><ele></ele><time>2014-10-8T13:25:57Z</time></trkpt>
<trkpt lat="46.16275194" lon="6.01758739"><ele></ele><time>2014-10-8T13:26:0Z</time></trkpt>
<trkpt lat="46.16272185" lon="6.01752184"><ele></ele><time>2014-10-8T13:26:3Z</time></trkpt>
<trkpt lat="46.16268866" lon="6.01743576"><ele></ele><time>2014-10-8T13:26:6Z</time></trkpt>
<trkpt lat="46.16265169" lon="6.01734473"><ele></ele><time>2014-10-8T13:26:9Z</time></trkpt>
<trkpt lat="46.16261272" lon="6.01725128"><ele></ele><time>2014-10-8T13:26:12Z</time></trkpt>
<trkpt lat="46.16257257" lon="6.01715589"><ele></ele><time>2014-10-8T13:26:15Z</time></trkpt>
<trkpt lat="46.16253158" lon="6.01706017"><ele></ele><time>2014-10-8T13:26:18Z</time></trkpt>
<trkpt lat="46.16249084" lon="6.01696235"><ele></ele><time>2014-10-8T13:26:21Z</time></trkpt>
<trkpt lat="46.16244919" lon="6.01686479"><ele></ele><time>2014-10-8T13:26:24Z</time></trkpt>
<trkpt lat="46.16240677" lon="6.01676714"><ele></ele><time>2014-10-8T13:26:27Z</time></trkpt>
<trkpt lat="46.16236369" lon="6.01666873"><ele></ele><time>2014-10-8T13:26:30Z</time></trkpt>
<trkpt lat="46.16232027" lon="6.01657033"><ele></ele><time>2014-10-8T13:26:33Z</time></trkpt>
<trkpt lat="46.16227635" lon="6.01647218"><ele></ele><time>2014-10-8T13:26:36Z</time></trkpt>
<trkpt lat="46.16223277" lon="6.01637319"><ele></ele><time>2014-10-8T13:26:39Z</time></trkpt>
<trkpt lat="46.16218926" lon="6.01627353"><ele></ele><time>2014-10-8T13:26:42Z</time></trkpt>
<trkpt lat="46.16214559" lon="6.01617345"><ele></ele><time>2014-10-8T13:26:45Z</time></trkpt>
<trkpt lat="46.16210184" lon="6.01607270"><ele></ele><time>2014-10-8T13:26:48Z</time></trkpt>
<trkpt lat="46.16205809" lon="6.01597128"><ele></ele><time>2014-10-8T13:26:51Z</time></trkpt>
<trkpt lat="46.16201383" lon="6.01586935"><ele></ele><time>2014-10-8T13:26:54Z</time></trkpt>
<trkpt lat="46.16196949" lon="6.01576676"><ele></ele><time>2014-10-8T13:26:57Z</time></trkpt>
<trkpt lat="46.16192456" lon="6.01566399"><ele></ele><time>2014-10-8T13:27:0Z</time></trkpt>
<trkpt lat="46.16187955" lon="6.01556073"><ele></ele><time>2014-10-8T13:27:3Z</time></trkpt>
<trkpt lat="46.16183488" lon="6.01545688"><ele></ele><time>2014-10-8T13:27:6Z</time></trkpt>
<trkpt lat="46.16179003" lon="6.01535286"><ele></ele><time>2014-10-8T13:27:9Z</time></trkpt>
<trkpt lat="46.16174519" lon="6.01524875"><ele></ele><time>2014-10-8T13:27:12Z</time></trkpt>
<trkpt lat="46.16170026" lon="6.01514448"><ele></ele><time>2014-10-8T13:27:15Z</time></trkpt>
<trkpt lat="46.16165525" lon="6.01503996"><ele></ele><time>2014-10-8T13:27:18Z</time></trkpt>
<trkpt lat="46.16160999" lon="6.01493502"><ele></ele><time>2014-10-8T13:27:21Z</time></trkpt>
<trkpt lat="46.16156448" lon="6.01482983"><ele></ele><time>2014-10-8T13:27:24Z</time></trkpt>
<trkpt lat="46.16151880" lon="6.01472430"><ele></ele><time>2014-10-8T13:27:27Z</time></trkpt>
<trkpt lat="46.16147244" lon="6.01461894"><ele></ele><time>2014-10-8T13:27:30Z</time></trkpt>
<trkpt lat="46.16142618" lon="6.01451349"><ele></ele><time>2014-10-8T13:27:33Z</time></trkpt>
<trkpt lat="46.16138033" lon="6.01440688"><ele></ele><time>2014-10-8T13:27:36Z</time></trkpt>
<trkpt lat="46.16133414" lon="6.01429976"><ele></ele><time>2014-10-8T13:27:39Z</time></trkpt>
<trkpt lat="46.16128779" lon="6.01419205"><ele></ele><time>2014-10-8T13:27:42Z</time></trkpt>
<trkpt lat="46.16124135" lon="6.01408300"><ele></ele><time>2014-10-8T13:27:45Z</time></trkpt>
<trkpt lat="46.16119450" lon="6.01397295"><ele></ele><time>2014-10-8T13:27:48Z</time></trkpt>
<trkpt lat="46.16114614" lon="6.01386289"><ele></ele><time>2014-10-8T13:27:51Z</time></trkpt>
<trkpt lat="46.16109727" lon="6.01375267"><ele></ele><time>2014-10-8T13:27:54Z</time></trkpt>
<trkpt lat="46.16104899" lon="6.01364102"><ele></ele><time>2014-10-8T13:27:57Z</time></trkpt>
<trkpt lat="46.16100046" lon="6.01352862"><ele></ele><time>2014-10-8T13:28:0Z</time></trkpt>
<trkpt lat="46.16095235" lon="6.01341572"><ele></ele><time>2014-10-8T13:28:3Z</time></trkpt>
<trkpt lat="46.16090465" lon="6.01330197"><ele></ele><time>2014-10-8T13:28:6Z</time></trkpt>
<trkpt lat="46.16085663" lon="6.01318840"><ele></ele><time>2014-10-8T13:28:9Z</time></trkpt>
<trkpt lat="46.16080784" lon="6.01307533"><ele></ele><time>2014-10-8T13:28:12Z</time></trkpt>
<trkpt lat="46.16075898" lon="6.01296226"><ele></ele><time>2014-10-8T13:28:15Z</time></trkpt>
<trkpt lat="46.16071019" lon="6.01284843"><ele></ele><time>2014-10-8T13:28:18Z</time></trkpt>
<trkpt lat="46.16066066" lon="6.01273427"><ele></ele><time>2014-10-8T13:28:21Z</time></trkpt>
<trkpt lat="46.16061104" lon="6.01261994"><ele></ele><time>2014-10-8T13:28:24Z</time></trkpt>
<trkpt lat="46.16056158" lon="6.01250553"><ele></ele><time>2014-10-8T13:28:27Z</time></trkpt>
<trkpt lat="46.16051213" lon="6.01239120"><ele></ele><time>2014-10-8T13:28:30Z</time></trkpt>
<trkpt lat="46.16046318" lon="6.01227712"><ele></ele><time>2014-10-8T13:28:33Z</time></trkpt>
<trkpt lat="46.16041423" lon="6.01216363"><ele></ele><time>2014-10-8T13:28:36Z</time></trkpt>
<trkpt lat="46.16036570" lon="6.01204972"><ele></ele><time>2014-10-8T13:28:39Z</time></trkpt>
<trkpt lat="46.16031708" lon="6.01193589"><ele></ele><time>2014-10-8T13:28:42Z</time></trkpt>
<trkpt lat="46.16026847" lon="6.01182232"><ele></ele><time>2014-10-8T13:28:45Z</time></trkpt>
<trkpt lat="46.16021994" lon="6.01170916"><ele></ele><time>2014-10-8T13:28:48Z</time></trkpt>
<trkpt lat="46.16017166" lon="6.01159626"><ele></ele><time>2014-10-8T13:28:51Z</time></trkpt>
<trkpt lat="46.16012312" lon="6.01148293"><ele></ele><time>2014-10-8T13:28:54Z</time></trkpt>
<trkpt lat="46.16007409" lon="6.01136936"><ele></ele><time>2014-10-8T13:28:57Z</time></trkpt>
<trkpt lat="46.16002556" lon="6.01125528"><ele></ele><time>2014-10-8T13:29:0Z</time></trkpt>
<trkpt lat="46.15997703" lon="6.01114154"><ele></ele><time>2014-10-8T13:29:3Z</time></trkpt>
<trkpt lat="46.15992766" lon="6.01102855"><ele></ele><time>2014-10-8T13:29:6Z</time></trkpt>
<trkpt lat="46.15987762" lon="6.01091573"><ele></ele><time>2014-10-8T13:29:9Z</time></trkpt>
<trkpt lat="46.15982808" lon="6.01080274"><ele></ele><time>2014-10-8T13:29:12Z</time></trkpt>
<trkpt lat="46.15978014" lon="6.01068908"><ele></ele><time>2014-10-8T13:29:15Z</time></trkpt>
<trkpt lat="46.15973270" lon="6.01057534"><ele></ele><time>2014-10-8T13:29:18Z</time></trkpt>
<trkpt lat="46.15968450" lon="6.01046202"><ele></ele><time>2014-10-8T13:29:21Z</time></trkpt>
<trkpt lat="46.15963597" lon="6.01034878"><ele></ele><time>2014-10-8T13:29:24Z</time></trkpt>
<trkpt lat="46.15958702" lon="6.01023613"><ele></ele><time>2014-10-8T13:29:27Z</time></trkpt>
<trkpt lat="46.15953849" lon="6.01012372"><ele></ele><time>2014-10-8T13:29:30Z</time></trkpt>
<trkpt lat="46.15949046" lon="6.01001116"><ele></ele><time>2014-10-8T13:29:33Z</time></trkpt>
<trkpt lat="46.15944260" lon="6.00989833"><ele></ele><time>2014-10-8T13:29:36Z</time></trkpt>
<trkpt lat="46.15939407" lon="6.00978560"><ele></ele><time>2014-10-8T13:29:39Z</time></trkpt>
<trkpt lat="46.15934554" lon="6.00967278"><ele></ele><time>2014-10-8T13:29:42Z</time></trkpt>
<trkpt lat="46.15929726" lon="6.00955987"><ele></ele><time>2014-10-8T13:29:45Z</time></trkpt>
<trkpt lat="46.15924889" lon="6.00944697"><ele></ele><time>2014-10-8T13:29:48Z</time></trkpt>
<trkpt lat="46.15920019" lon="6.00933398"><ele></ele><time>2014-10-8T13:29:51Z</time></trkpt>
<trkpt lat="46.15915149" lon="6.00922108"><ele></ele><time>2014-10-8T13:29:54Z</time></trkpt>
<trkpt lat="46.15910296" lon="6.00910817"><ele></ele><time>2014-10-8T13:29:57Z</time></trkpt>
<trkpt lat="46.15905418" lon="6.00899485"><ele></ele><time>2014-10-8T13:30:0Z</time></trkpt>
<trkpt lat="46.15900515" lon="6.00888102"><ele></ele><time>2014-10-8T13:30:3Z</time></trkpt>
<trkpt lat="46.15895628" lon="6.00876653"><ele></ele><time>2014-10-8T13:30:6Z</time></trkpt>
<trkpt lat="46.15890699" lon="6.00865203"><ele></ele><time>2014-10-8T13:30:9Z</time></trkpt>
<trkpt lat="46.15885762" lon="6.00853753"><ele></ele><time>2014-10-8T13:30:12Z</time></trkpt>
<trkpt lat="46.15880867" lon="6.00842262"><ele></ele><time>2014-10-8T13:30:15Z</time></trkpt>
<trkpt lat="46.15875914" lon="6.00830778"><ele></ele><time>2014-10-8T13:30:18Z</time></trkpt>
<trkpt lat="46.15870968" lon="6.00819262"><ele></ele><time>2014-10-8T13:30:21Z</time></trkpt>
<trkpt lat="46.15866023" lon="6.00807728"><ele></ele><time>2014-10-8T13:30:24Z</time></trkpt>
<trkpt lat="46.15861086" lon="6.00796195"><ele></ele><time>2014-10-8T13:30:27Z</time></trkpt>
<trkpt lat="46.15856116" lon="6.00784670"><ele></ele><time>2014-10-8T13:30:30Z</time></trkpt>
<trkpt lat="46.15851128" lon="6.00773103"><ele></ele><time>2014-10-8T13:30:33Z</time></trkpt>
<trkpt lat="46.15846116" lon="6.00761544"><ele></ele><time>2014-10-8T13:30:36Z</time></trkpt>
<trkpt lat="46.15841137" lon="6.00749952"><ele></ele><time>2014-10-8T13:30:39Z</time></trkpt>
<trkpt lat="46.15836167" lon="6.00738376"><ele></ele><time>2014-10-8T13:30:42Z</time></trkpt>
<trkpt lat="46.15831163" lon="6.00726910"><ele></ele><time>2014-10-8T13:30:45Z</time></trkpt>
<trkpt lat="46.15826209" lon="6.00715469"><ele></ele><time>2014-10-8T13:30:48Z</time></trkpt>
<trkpt lat="46.15821306" lon="6.00704019"><ele></ele><time>2014-10-8T13:30:51Z</time></trkpt>
<trkpt lat="46.15816402" lon="6.00692594"><ele></ele><time>2014-10-8T13:30:54Z</time></trkpt>
<trkpt lat="46.15811549" lon="6.00681178"><ele></ele><time>2014-10-8T13:30:57Z</time></trkpt>
<trkpt lat="46.15806704" lon="6.00669729"><ele></ele><time>2014-10-8T13:31:0Z</time></trkpt>
<trkpt lat="46.15801826" lon="6.00658329"><ele></ele><time>2014-10-8T13:31:3Z</time></trkpt>
<trkpt lat="46.15796872" lon="6.00647014"><ele></ele><time>2014-10-8T13:31:6Z</time></trkpt>
<trkpt lat="46.15792003" lon="6.00635690"><ele></ele><time>2014-10-8T13:31:9Z</time></trkpt>
<trkpt lat="46.15787183" lon="6.00624324"><ele></ele><time>2014-10-8T13:31:12Z</time></trkpt>
<trkpt lat="46.15782280" lon="6.00613084"><ele></ele><time>2014-10-8T13:31:15Z</time></trkpt>
<trkpt lat="46.15777334" lon="6.00601852"><ele></ele><time>2014-10-8T13:31:18Z</time></trkpt>
<trkpt lat="46.15772473" lon="6.00590578"><ele></ele><time>2014-10-8T13:31:21Z</time></trkpt>
<trkpt lat="46.15767620" lon="6.00579296"><ele></ele><time>2014-10-8T13:31:24Z</time></trkpt>
<trkpt lat="46.15762758" lon="6.00568006"><ele></ele><time>2014-10-8T13:31:27Z</time></trkpt>
<trkpt lat="46.15757955" lon="6.00556665"><ele></ele><time>2014-10-8T13:31:30Z</time></trkpt>
<trkpt lat="46.15753194" lon="6.00545299"><ele></ele><time>2014-10-8T13:31:33Z</time></trkpt>
<trkpt lat="46.15748442" lon="6.00533925"><ele></ele><time>2014-10-8T13:31:36Z</time></trkpt>
<trkpt lat="46.15743714" lon="6.00522576"><ele></ele><time>2014-10-8T13:31:39Z</time></trkpt>
<trkpt lat="46.15738903" lon="6.00511285"><ele></ele><time>2014-10-8T13:31:42Z</time></trkpt>
<trkpt lat="46.15734042" lon="6.00500045"><ele></ele><time>2014-10-8T13:31:45Z</time></trkpt>
<trkpt lat="46.15729205" lon="6.00488772"><ele></ele><time>2014-10-8T13:31:48Z</time></trkpt>
<trkpt lat="46.15724327" lon="6.00477498"><ele></ele><time>2014-10-8T13:31:51Z</time></trkpt>
<trkpt lat="46.15719466" lon="6.00466216"><ele></ele><time>2014-10-8T13:31:54Z</time></trkpt>
<trkpt lat="46.15714654" lon="6.00454909"><ele></ele><time>2014-10-8T13:31:57Z</time></trkpt>
<trkpt lat="46.15709793" lon="6.00443644"><ele></ele><time>2014-10-8T13:32:0Z</time></trkpt>
<trkpt lat="46.15704864" lon="6.00432445"><ele></ele><time>2014-10-8T13:32:3Z</time></trkpt>
<trkpt lat="46.15699986" lon="6.00421205"><ele></ele><time>2014-10-8T13:32:6Z</time></trkpt>
<trkpt lat="46.15695175" lon="6.00409948"><ele></ele><time>2014-10-8T13:32:9Z</time></trkpt>
<trkpt lat="46.15690364" lon="6.00398742"><ele></ele><time>2014-10-8T13:32:12Z</time></trkpt>
<trkpt lat="46.15685619" lon="6.00387585"><ele></ele><time>2014-10-8T13:32:15Z</time></trkpt>
<trkpt lat="46.15680959" lon="6.00376446"><ele></ele><time>2014-10-8T13:32:18Z</time></trkpt>
<trkpt lat="46.15676274" lon="6.00365457"><ele></ele><time>2014-10-8T13:32:21Z</time></trkpt>
<trkpt lat="46.15671580" lon="6.00354636"><ele></ele><time>2014-10-8T13:32:24Z</time></trkpt>
<trkpt lat="46.15666919" lon="6.00343899"><ele></ele><time>2014-10-8T13:32:27Z</time></trkpt>
<trkpt lat="46.15662293" lon="6.00333162"><ele></ele><time>2014-10-8T13:32:30Z</time></trkpt>
<trkpt lat="46.15657750" lon="6.00322424"><ele></ele><time>2014-10-8T13:32:33Z</time></trkpt>
<trkpt lat="46.15653265" lon="6.00311738"><ele></ele><time>2014-10-8T13:32:36Z</time></trkpt>
<trkpt lat="46.15648965" lon="6.00301067"><ele></ele><time>2014-10-8T13:32:39Z</time></trkpt>
<trkpt lat="46.15645160" lon="6.00290288"><ele></ele><time>2014-10-8T13:32:42Z</time></trkpt>
<trkpt lat="46.15641589" lon="6.00279534"><ele></ele><time>2014-10-8T13:32:45Z</time></trkpt>
<trkpt lat="46.15637315" lon="6.00269367"><ele></ele><time>2014-10-8T13:32:48Z</time></trkpt>
<trkpt lat="46.15632369" lon="6.00259460"><ele></ele><time>2014-10-8T13:32:51Z</time></trkpt>
<trkpt lat="46.15627709" lon="6.00248982"><ele></ele><time>2014-10-8T13:32:54Z</time></trkpt>
<trkpt lat="46.15623417" lon="6.00238086"><ele></ele><time>2014-10-8T13:32:57Z</time></trkpt>
<trkpt lat="46.15619117" lon="6.00227164"><ele></ele><time>2014-10-8T13:33:0Z</time></trkpt>
<trkpt lat="46.15614734" lon="6.00216184"><ele></ele><time>2014-10-8T13:33:3Z</time></trkpt>
<trkpt lat="46.15610392" lon="6.00205036"><ele></ele><time>2014-10-8T13:33:6Z</time></trkpt>
<trkpt lat="46.15606117" lon="6.00193754"><ele></ele><time>2014-10-8T13:33:9Z</time></trkpt>
<trkpt lat="46.15601842" lon="6.00182447"><ele></ele><time>2014-10-8T13:33:12Z</time></trkpt>
<trkpt lat="46.15597568" lon="6.00171190"><ele></ele><time>2014-10-8T13:33:15Z</time></trkpt>
<trkpt lat="46.15593226" lon="6.00159958"><ele></ele><time>2014-10-8T13:33:18Z</time></trkpt>
<trkpt lat="46.15588926" lon="6.00148768"><ele></ele><time>2014-10-8T13:33:21Z</time></trkpt>
<trkpt lat="46.15584718" lon="6.00137528"><ele></ele><time>2014-10-8T13:33:24Z</time></trkpt>
<trkpt lat="46.15580603" lon="6.00126212"><ele></ele><time>2014-10-8T13:33:27Z</time></trkpt>
<trkpt lat="46.15576537" lon="6.00114897"><ele></ele><time>2014-10-8T13:33:30Z</time></trkpt>
<trkpt lat="46.15572447" lon="6.00103565"><ele></ele><time>2014-10-8T13:33:33Z</time></trkpt>
<trkpt lat="46.15568415" lon="6.00092165"><ele></ele><time>2014-10-8T13:33:36Z</time></trkpt>
<trkpt lat="46.15564425" lon="6.00080724"><ele></ele><time>2014-10-8T13:33:39Z</time></trkpt>
<trkpt lat="46.15560469" lon="6.00069274"><ele></ele><time>2014-10-8T13:33:42Z</time></trkpt>
<trkpt lat="46.15556546" lon="6.00057833"><ele></ele><time>2014-10-8T13:33:45Z</time></trkpt>
<trkpt lat="46.15552657" lon="6.00046383"><ele></ele><time>2014-10-8T13:33:48Z</time></trkpt>
<trkpt lat="46.15548827" lon="6.00034858"><ele></ele><time>2014-10-8T13:33:51Z</time></trkpt>
<trkpt lat="46.15544996" lon="6.00023266"><ele></ele><time>2014-10-8T13:33:54Z</time></trkpt>
<trkpt lat="46.15541166" lon="6.00011623"><ele></ele><time>2014-10-8T13:33:57Z</time></trkpt>
<trkpt lat="46.15537352" lon="5.99999956"><ele></ele><time>2014-10-8T13:34:0Z</time></trkpt>
<trkpt lat="46.15533605" lon="5.99988204"><ele></ele><time>2014-10-8T13:34:3Z</time></trkpt>
<trkpt lat="46.15529867" lon="5.99976378"><ele></ele><time>2014-10-8T13:34:6Z</time></trkpt>
<trkpt lat="46.15526103" lon="5.99964534"><ele></ele><time>2014-10-8T13:34:9Z</time></trkpt>
<trkpt lat="46.15522239" lon="5.99952715"><ele></ele><time>2014-10-8T13:34:12Z</time></trkpt>
<trkpt lat="46.15518250" lon="5.99940897"><ele></ele><time>2014-10-8T13:34:15Z</time></trkpt>
<trkpt lat="46.15514486" lon="5.99928894"><ele></ele><time>2014-10-8T13:34:18Z</time></trkpt>
<trkpt lat="46.15511100" lon="5.99916598"><ele></ele><time>2014-10-8T13:34:21Z</time></trkpt>
<trkpt lat="46.15507848" lon="5.99904209"><ele></ele><time>2014-10-8T13:34:24Z</time></trkpt>
<trkpt lat="46.15504470" lon="5.99891829"><ele></ele><time>2014-10-8T13:34:27Z</time></trkpt>
<trkpt lat="46.15500933" lon="5.99879483"><ele></ele><time>2014-10-8T13:34:30Z</time></trkpt>
<trkpt lat="46.15497320" lon="5.99867136"><ele></ele><time>2014-10-8T13:34:33Z</time></trkpt>
<trkpt lat="46.15493565" lon="5.99854765"><ele></ele><time>2014-10-8T13:34:36Z</time></trkpt>
<trkpt lat="46.15489868" lon="5.99842343"><ele></ele><time>2014-10-8T13:34:39Z</time></trkpt>
<trkpt lat="46.15486256" lon="5.99829879"><ele></ele><time>2014-10-8T13:34:42Z</time></trkpt>
<trkpt lat="46.15482702" lon="5.99817364"><ele></ele><time>2014-10-8T13:34:45Z</time></trkpt>
<trkpt lat="46.15479173" lon="5.99804825"><ele></ele><time>2014-10-8T13:34:48Z</time></trkpt>
<trkpt lat="46.15475586" lon="5.99792370"><ele></ele><time>2014-10-8T13:34:51Z</time></trkpt>
<trkpt lat="46.15471965" lon="5.99779956"><ele></ele><time>2014-10-8T13:34:54Z</time></trkpt>
<trkpt lat="46.15468377" lon="5.99767534"><ele></ele><time>2014-10-8T13:34:57Z</time></trkpt>
<trkpt lat="46.15464865" lon="5.99755062"><ele></ele><time>2014-10-8T13:35:0Z</time></trkpt>
<trkpt lat="46.15461429" lon="5.99742564"><ele></ele><time>2014-10-8T13:35:3Z</time></trkpt>
<trkpt lat="46.15458252" lon="5.99729924"><ele></ele><time>2014-10-8T13:35:6Z</time></trkpt>
<trkpt lat="46.15455637" lon="5.99716958"><ele></ele><time>2014-10-8T13:35:9Z</time></trkpt>
<trkpt lat="46.15453675" lon="5.99703748"><ele></ele><time>2014-10-8T13:35:12Z</time></trkpt>
<trkpt lat="46.15452125" lon="5.99690362"><ele></ele><time>2014-10-8T13:35:15Z</time></trkpt>
<trkpt lat="46.15451010" lon="5.99676859"><ele></ele><time>2014-10-8T13:35:18Z</time></trkpt>
<trkpt lat="46.15450557" lon="5.99663238"><ele></ele><time>2014-10-8T13:35:21Z</time></trkpt>
<trkpt lat="46.15450884" lon="5.99649559"><ele></ele><time>2014-10-8T13:35:24Z</time></trkpt>
<trkpt lat="46.15451815" lon="5.99635905"><ele></ele><time>2014-10-8T13:35:27Z</time></trkpt>
<trkpt lat="46.15453240" lon="5.99622192"><ele></ele><time>2014-10-8T13:35:30Z</time></trkpt>
<trkpt lat="46.15455176" lon="5.99608714"><ele></ele><time>2014-10-8T13:35:33Z</time></trkpt>
<trkpt lat="46.15457565" lon="5.99595127"><ele></ele><time>2014-10-8T13:35:36Z</time></trkpt>
<trkpt lat="46.15459987" lon="5.99581623"><ele></ele><time>2014-10-8T13:35:39Z</time></trkpt>
<trkpt lat="46.15462569" lon="5.99568263"><ele></ele><time>2014-10-8T13:35:42Z</time></trkpt>
<trkpt lat="46.15465603" lon="5.99554617"><ele></ele><time>2014-10-8T13:35:45Z</time></trkpt>
<trkpt lat="46.15468419" lon="5.99541223"><ele></ele><time>2014-10-8T13:35:48Z</time></trkpt>
<trkpt lat="46.15471168" lon="5.99527518"><ele></ele><time>2014-10-8T13:35:51Z</time></trkpt>
<trkpt lat="46.15474152" lon="5.99513529"><ele></ele><time>2014-10-8T13:35:54Z</time></trkpt>
<trkpt lat="46.15477178" lon="5.99499883"><ele></ele><time>2014-10-8T13:35:57Z</time></trkpt>
<trkpt lat="46.15480372" lon="5.99485978"><ele></ele><time>2014-10-8T13:36:0Z</time></trkpt>
<trkpt lat="46.15483347" lon="5.99472499"><ele></ele><time>2014-10-8T13:36:3Z</time></trkpt>
<trkpt lat="46.15486398" lon="5.99458217"><ele></ele><time>2014-10-8T13:36:6Z</time></trkpt>
<trkpt lat="46.15489667" lon="5.99443364"><ele></ele><time>2014-10-8T13:36:9Z</time></trkpt>
<trkpt lat="46.15493313" lon="5.99429308"><ele></ele><time>2014-10-8T13:36:12Z</time></trkpt>
<trkpt lat="46.15497588" lon="5.99415905"><ele></ele><time>2014-10-8T13:36:15Z</time></trkpt>
<trkpt lat="46.15501570" lon="5.99400708"><ele></ele><time>2014-10-8T13:36:18Z</time></trkpt>
<trkpt lat="46.15505383" lon="5.99387239"><ele></ele><time>2014-10-8T13:36:21Z</time></trkpt>
<trkpt lat="46.15509633" lon="5.99372344"><ele></ele><time>2014-10-8T13:36:24Z</time></trkpt>
<trkpt lat="46.15514243" lon="5.99358799"><ele></ele><time>2014-10-8T13:36:27Z</time></trkpt>
<trkpt lat="46.15518300" lon="5.99344349"><ele></ele><time>2014-10-8T13:36:30Z</time></trkpt>
<trkpt lat="46.15523094" lon="5.99330342"><ele></ele><time>2014-10-8T13:36:33Z</time></trkpt>
<trkpt lat="46.15528903" lon="5.99317510"><ele></ele><time>2014-10-8T13:36:36Z</time></trkpt>
<trkpt lat="46.15535365" lon="5.99305104"><ele></ele><time>2014-10-8T13:36:39Z</time></trkpt>
<trkpt lat="46.15542306" lon="5.99293085"><ele></ele><time>2014-10-8T13:36:42Z</time></trkpt>
<trkpt lat="46.15549623" lon="5.99281535"><ele></ele><time>2014-10-8T13:36:45Z</time></trkpt>
<trkpt lat="46.15557066" lon="5.99270303"><ele></ele><time>2014-10-8T13:36:48Z</time></trkpt>
<trkpt lat="46.15564526" lon="5.99259289"><ele></ele><time>2014-10-8T13:36:51Z</time></trkpt>
<trkpt lat="46.15572053" lon="5.99248426"><ele></ele><time>2014-10-8T13:36:54Z</time></trkpt>
<trkpt lat="46.15579513" lon="5.99237354"><ele></ele><time>2014-10-8T13:36:57Z</time></trkpt>
<trkpt lat="46.15586956" lon="5.99226373"><ele></ele><time>2014-10-8T13:37:0Z</time></trkpt>
<trkpt lat="46.15594449" lon="5.99215443"><ele></ele><time>2014-10-8T13:37:3Z</time></trkpt>
<trkpt lat="46.15601918" lon="5.99204555"><ele></ele><time>2014-10-8T13:37:6Z</time></trkpt>
<trkpt lat="46.15609344" lon="5.99193558"><ele></ele><time>2014-10-8T13:37:9Z</time></trkpt>
<trkpt lat="46.15616636" lon="5.99182469"><ele></ele><time>2014-10-8T13:37:12Z</time></trkpt>
<trkpt lat="46.15623510" lon="5.99170902"><ele></ele><time>2014-10-8T13:37:15Z</time></trkpt>
<trkpt lat="46.15630064" lon="5.99159000"><ele></ele><time>2014-10-8T13:37:18Z</time></trkpt>
<trkpt lat="46.15636183" lon="5.99147466"><ele></ele><time>2014-10-8T13:37:21Z</time></trkpt>
<trkpt lat="46.15641723" lon="5.99134549"><ele></ele><time>2014-10-8T13:37:24Z</time></trkpt>
<trkpt lat="46.15646736" lon="5.99120568"><ele></ele><time>2014-10-8T13:37:27Z</time></trkpt>
<trkpt lat="46.15651446" lon="5.99105976"><ele></ele><time>2014-10-8T13:37:30Z</time></trkpt>
<trkpt lat="46.15655654" lon="5.99090880"><ele></ele><time>2014-10-8T13:37:33Z</time></trkpt>
<trkpt lat="46.15659342" lon="5.99075373"><ele></ele><time>2014-10-8T13:37:36Z</time></trkpt>
<trkpt lat="46.15662393" lon="5.99059506"><ele></ele><time>2014-10-8T13:37:39Z</time></trkpt>
<trkpt lat="46.15664748" lon="5.99043329"><ele></ele><time>2014-10-8T13:37:42Z</time></trkpt>
<trkpt lat="46.15666383" lon="5.99026825"><ele></ele><time>2014-10-8T13:37:45Z</time></trkpt>
<trkpt lat="46.15667799" lon="5.99010070"><ele></ele><time>2014-10-8T13:37:48Z</time></trkpt>
<trkpt lat="46.15668663" lon="5.98992677"><ele></ele><time>2014-10-8T13:37:51Z</time></trkpt>
<trkpt lat="46.15668663" lon="5.98975293"><ele></ele><time>2014-10-8T13:37:54Z</time></trkpt>
<trkpt lat="46.15668428" lon="5.98957943"><ele></ele><time>2014-10-8T13:37:57Z</time></trkpt>
<trkpt lat="46.15668009" lon="5.98940659"><ele></ele><time>2014-10-8T13:38:0Z</time></trkpt>
<trkpt lat="46.15667665" lon="5.98923426"><ele></ele><time>2014-10-8T13:38:3Z</time></trkpt>
<trkpt lat="46.15667456" lon="5.98906143"><ele></ele><time>2014-10-8T13:38:6Z</time></trkpt>
<trkpt lat="46.15667263" lon="5.98888809"><ele></ele><time>2014-10-8T13:38:9Z</time></trkpt>
<trkpt lat="46.15666928" lon="5.98871534"><ele></ele><time>2014-10-8T13:38:12Z</time></trkpt>
<trkpt lat="46.15666542" lon="5.98854334"><ele></ele><time>2014-10-8T13:38:15Z</time></trkpt>
<trkpt lat="46.15666249" lon="5.98837042"><ele></ele><time>2014-10-8T13:38:18Z</time></trkpt>
<trkpt lat="46.15665955" lon="5.98819960"><ele></ele><time>2014-10-8T13:38:21Z</time></trkpt>
<trkpt lat="46.15665578" lon="5.98802794"><ele></ele><time>2014-10-8T13:38:24Z</time></trkpt>
<trkpt lat="46.15665268" lon="5.98785988"><ele></ele><time>2014-10-8T13:38:27Z</time></trkpt>
<trkpt lat="46.15665059" lon="5.98769417"><ele></ele><time>2014-10-8T13:38:30Z</time></trkpt>
<trkpt lat="46.15664832" lon="5.98752779"><ele></ele><time>2014-10-8T13:38:33Z</time></trkpt>
<trkpt lat="46.15664648" lon="5.98736074"><ele></ele><time>2014-10-8T13:38:36Z</time></trkpt>
<trkpt lat="46.15664455" lon="5.98719302"><ele></ele><time>2014-10-8T13:38:39Z</time></trkpt>
<trkpt lat="46.15664237" lon="5.98702488"><ele></ele><time>2014-10-8T13:38:42Z</time></trkpt>
<trkpt lat="46.15663977" lon="5.98685606"><ele></ele><time>2014-10-8T13:38:45Z</time></trkpt>
<trkpt lat="46.15663743" lon="5.98668608"><ele></ele><time>2014-10-8T13:38:48Z</time></trkpt>
<trkpt lat="46.15663500" lon="5.98651584"><ele></ele><time>2014-10-8T13:38:51Z</time></trkpt>
<trkpt lat="46.15663298" lon="5.98634552"><ele></ele><time>2014-10-8T13:38:54Z</time></trkpt>
<trkpt lat="46.15663106" lon="5.98617495"><ele></ele><time>2014-10-8T13:38:57Z</time></trkpt>
<trkpt lat="46.15662888" lon="5.98600455"><ele></ele><time>2014-10-8T13:39:0Z</time></trkpt>
<trkpt lat="46.15662687" lon="5.98583439"><ele></ele><time>2014-10-8T13:39:3Z</time></trkpt>
<trkpt lat="46.15662427" lon="5.98566424"><ele></ele><time>2014-10-8T13:39:6Z</time></trkpt>
<trkpt lat="46.15662158" lon="5.98549426"><ele></ele><time>2014-10-8T13:39:9Z</time></trkpt>
<trkpt lat="46.15661966" lon="5.98532427"><ele></ele><time>2014-10-8T13:39:12Z</time></trkpt>
<trkpt lat="46.15661723" lon="5.98515336"><ele></ele><time>2014-10-8T13:39:15Z</time></trkpt>
<trkpt lat="46.15661480" lon="5.98498095"><ele></ele><time>2014-10-8T13:39:18Z</time></trkpt>
<trkpt lat="46.15661245" lon="5.98480803"><ele></ele><time>2014-10-8T13:39:21Z</time></trkpt>
<trkpt lat="46.15660977" lon="5.98463494"><ele></ele><time>2014-10-8T13:39:24Z</time></trkpt>
<trkpt lat="46.15660717" lon="5.98446286"><ele></ele><time>2014-10-8T13:39:27Z</time></trkpt>
<trkpt lat="46.15660465" lon="5.98429179"><ele></ele><time>2014-10-8T13:39:30Z</time></trkpt>
<trkpt lat="46.15660264" lon="5.98411937"><ele></ele><time>2014-10-8T13:39:33Z</time></trkpt>
<trkpt lat="46.15660029" lon="5.98394637"><ele></ele><time>2014-10-8T13:39:36Z</time></trkpt>
<trkpt lat="46.15659795" lon="5.98377462"><ele></ele><time>2014-10-8T13:39:39Z</time></trkpt>
<trkpt lat="46.15659594" lon="5.98360389"><ele></ele><time>2014-10-8T13:39:42Z</time></trkpt>
<trkpt lat="46.15659384" lon="5.98343340"><ele></ele><time>2014-10-8T13:39:45Z</time></trkpt>
<trkpt lat="46.15658915" lon="5.98326417"><ele></ele><time>2014-10-8T13:39:48Z</time></trkpt>
<trkpt lat="46.15658009" lon="5.98309502"><ele></ele><time>2014-10-8T13:39:51Z</time></trkpt>
<trkpt lat="46.15656367" lon="5.98292436"><ele></ele><time>2014-10-8T13:39:54Z</time></trkpt>
<trkpt lat="46.15653844" lon="5.98275522"><ele></ele><time>2014-10-8T13:39:57Z</time></trkpt>
<trkpt lat="46.15650265" lon="5.98259026"><ele></ele><time>2014-10-8T13:40:0Z</time></trkpt>
<trkpt lat="46.15645587" lon="5.98243210"><ele></ele><time>2014-10-8T13:40:3Z</time></trkpt>
<trkpt lat="46.15640039" lon="5.98228030"><ele></ele><time>2014-10-8T13:40:6Z</time></trkpt>
<trkpt lat="46.15633635" lon="5.98213512"><ele></ele><time>2014-10-8T13:40:9Z</time></trkpt>
<trkpt lat="46.15626628" lon="5.98199523"><ele></ele><time>2014-10-8T13:40:12Z</time></trkpt>
<trkpt lat="46.15619536" lon="5.98185676"><ele></ele><time>2014-10-8T13:40:15Z</time></trkpt>
<trkpt lat="46.15612529" lon="5.98171838"><ele></ele><time>2014-10-8T13:40:18Z</time></trkpt>
<trkpt lat="46.15605522" lon="5.98157999"><ele></ele><time>2014-10-8T13:40:21Z</time></trkpt>
<trkpt lat="46.15598490" lon="5.98144119"><ele></ele><time>2014-10-8T13:40:24Z</time></trkpt>
<trkpt lat="46.15591365" lon="5.98130188"><ele></ele><time>2014-10-8T13:40:27Z</time></trkpt>
<trkpt lat="46.15584140" lon="5.98116232"><ele></ele><time>2014-10-8T13:40:30Z</time></trkpt>
<trkpt lat="46.15576956" lon="5.98102176"><ele></ele><time>2014-10-8T13:40:33Z</time></trkpt>
<trkpt lat="46.15569832" lon="5.98088102"><ele></ele><time>2014-10-8T13:40:36Z</time></trkpt>
<trkpt lat="46.15562724" lon="5.98074088"><ele></ele><time>2014-10-8T13:40:39Z</time></trkpt>
<trkpt lat="46.15555616" lon="5.98060107"><ele></ele><time>2014-10-8T13:40:42Z</time></trkpt>
<trkpt lat="46.15548517" lon="5.98046185"><ele></ele><time>2014-10-8T13:40:45Z</time></trkpt>
<trkpt lat="46.15541417" lon="5.98032338"><ele></ele><time>2014-10-8T13:40:48Z</time></trkpt>
<trkpt lat="46.15534259" lon="5.98018499"><ele></ele><time>2014-10-8T13:40:51Z</time></trkpt>
<trkpt lat="46.15526984" lon="5.98004602"><ele></ele><time>2014-10-8T13:40:54Z</time></trkpt>
<trkpt lat="46.15519649" lon="5.97990713"><ele></ele><time>2014-10-8T13:40:57Z</time></trkpt>
<trkpt lat="46.15512148" lon="5.97976916"><ele></ele><time>2014-10-8T13:41:0Z</time></trkpt>
<trkpt lat="46.15504319" lon="5.97963380"><ele></ele><time>2014-10-8T13:41:3Z</time></trkpt>
<trkpt lat="46.15496088" lon="5.97950212"><ele></ele><time>2014-10-8T13:41:6Z</time></trkpt>
<trkpt lat="46.15487530" lon="5.97937404"><ele></ele><time>2014-10-8T13:41:9Z</time></trkpt>
<trkpt lat="46.15478704" lon="5.97924932"><ele></ele><time>2014-10-8T13:41:12Z</time></trkpt>
<trkpt lat="46.15469626" lon="5.97912812"><ele></ele><time>2014-10-8T13:41:15Z</time></trkpt>
<trkpt lat="46.15460364" lon="5.97901018"><ele></ele><time>2014-10-8T13:41:18Z</time></trkpt>
<trkpt lat="46.15450918" lon="5.97889544"><ele></ele><time>2014-10-8T13:41:21Z</time></trkpt>
<trkpt lat="46.15441228" lon="5.97878555"><ele></ele><time>2014-10-8T13:41:24Z</time></trkpt>
<trkpt lat="46.15431296" lon="5.97868178"><ele></ele><time>2014-10-8T13:41:27Z</time></trkpt>
<trkpt lat="46.15421229" lon="5.97858354"><ele></ele><time>2014-10-8T13:41:30Z</time></trkpt>
<trkpt lat="46.15411188" lon="5.97848799"><ele></ele><time>2014-10-8T13:41:33Z</time></trkpt>
<trkpt lat="46.15401305" lon="5.97839252"><ele></ele><time>2014-10-8T13:41:36Z</time></trkpt>
<trkpt lat="46.15391666" lon="5.97829739"><ele></ele><time>2014-10-8T13:41:39Z</time></trkpt>
<trkpt lat="46.15382220" lon="5.97820460"><ele></ele><time>2014-10-8T13:41:42Z</time></trkpt>
<trkpt lat="46.15372983" lon="5.97811466"><ele></ele><time>2014-10-8T13:41:45Z</time></trkpt>
<trkpt lat="46.15363964" lon="5.97802749"><ele></ele><time>2014-10-8T13:41:48Z</time></trkpt>
<trkpt lat="46.15355113" lon="5.97794342"><ele></ele><time>2014-10-8T13:41:51Z</time></trkpt>
<trkpt lat="46.15346513" lon="5.97786069"><ele></ele><time>2014-10-8T13:41:54Z</time></trkpt>
<trkpt lat="46.15338122" lon="5.97777938"><ele></ele><time>2014-10-8T13:41:57Z</time></trkpt>
<trkpt lat="46.15329858" lon="5.97769959"><ele></ele><time>2014-10-8T13:42:0Z</time></trkpt>
<trkpt lat="46.15321686" lon="5.97761912"><ele></ele><time>2014-10-8T13:42:3Z</time></trkpt>
<trkpt lat="46.15313538" lon="5.97754000"><ele></ele><time>2014-10-8T13:42:6Z</time></trkpt>
<trkpt lat="46.15305374" lon="5.97746205"><ele></ele><time>2014-10-8T13:42:9Z</time></trkpt>
<trkpt lat="46.15297370" lon="5.97738217"><ele></ele><time>2014-10-8T13:42:12Z</time></trkpt>
<trkpt lat="46.15289583" lon="5.97729969"><ele></ele><time>2014-10-8T13:42:15Z</time></trkpt>
<trkpt lat="46.15281913" lon="5.97721612"><ele></ele><time>2014-10-8T13:42:18Z</time></trkpt>
<trkpt lat="46.15274412" lon="5.97713113"><ele></ele><time>2014-10-8T13:42:21Z</time></trkpt>
<trkpt lat="46.15267077" lon="5.97704479"><ele></ele><time>2014-10-8T13:42:24Z</time></trkpt>
<trkpt lat="46.15259886" lon="5.97695712"><ele></ele><time>2014-10-8T13:42:27Z</time></trkpt>
<trkpt lat="46.15252828" lon="5.97686794"><ele></ele><time>2014-10-8T13:42:30Z</time></trkpt>
<trkpt lat="46.15245947" lon="5.97677657"><ele></ele><time>2014-10-8T13:42:33Z</time></trkpt>
<trkpt lat="46.15239233" lon="5.97668345"><ele></ele><time>2014-10-8T13:42:36Z</time></trkpt>
<trkpt lat="46.15232527" lon="5.97659117"><ele></ele><time>2014-10-8T13:42:39Z</time></trkpt>
<trkpt lat="46.15225797" lon="5.97649964"><ele></ele><time>2014-10-8T13:42:42Z</time></trkpt>
<trkpt lat="46.15219116" lon="5.97640802"><ele></ele><time>2014-10-8T13:42:45Z</time></trkpt>
<trkpt lat="46.15212495" lon="5.97631657"><ele></ele><time>2014-10-8T13:42:48Z</time></trkpt>
<trkpt lat="46.15205940" lon="5.97622454"><ele></ele><time>2014-10-8T13:42:51Z</time></trkpt>
<trkpt lat="46.15199402" lon="5.97613284"><ele></ele><time>2014-10-8T13:42:54Z</time></trkpt>
<trkpt lat="46.15192923" lon="5.97604115"><ele></ele><time>2014-10-8T13:42:57Z</time></trkpt>
<trkpt lat="46.15186452" lon="5.97594970"><ele></ele><time>2014-10-8T13:43:0Z</time></trkpt>
<trkpt lat="46.15179998" lon="5.97585834"><ele></ele><time>2014-10-8T13:43:3Z</time></trkpt>
<trkpt lat="46.15173602" lon="5.97576714"><ele></ele><time>2014-10-8T13:43:6Z</time></trkpt>
<trkpt lat="46.15167274" lon="5.97567653"><ele></ele><time>2014-10-8T13:43:9Z</time></trkpt>
<trkpt lat="46.15161004" lon="5.97558609"><ele></ele><time>2014-10-8T13:43:12Z</time></trkpt>
<trkpt lat="46.15154793" lon="5.97549506"><ele></ele><time>2014-10-8T13:43:15Z</time></trkpt>
<trkpt lat="46.15148549" lon="5.97540379"><ele></ele><time>2014-10-8T13:43:18Z</time></trkpt>
<trkpt lat="46.15142162" lon="5.97531334"><ele></ele><time>2014-10-8T13:43:21Z</time></trkpt>
<trkpt lat="46.15135674" lon="5.97522140"><ele></ele><time>2014-10-8T13:43:24Z</time></trkpt>
<trkpt lat="46.15129128" lon="5.97512777"><ele></ele><time>2014-10-8T13:43:27Z</time></trkpt>
<trkpt lat="46.15122523" lon="5.97503238"><ele></ele><time>2014-10-8T13:43:30Z</time></trkpt>
<trkpt lat="46.15115927" lon="5.97493683"><ele></ele><time>2014-10-8T13:43:33Z</time></trkpt>
<trkpt lat="46.15109280" lon="5.97484144"><ele></ele><time>2014-10-8T13:43:36Z</time></trkpt>
<trkpt lat="46.15102549" lon="5.97474606"><ele></ele><time>2014-10-8T13:43:39Z</time></trkpt>
<trkpt lat="46.15095785" lon="5.97465126"><ele></ele><time>2014-10-8T13:43:42Z</time></trkpt>
<trkpt lat="46.15089105" lon="5.97455855"><ele></ele><time>2014-10-8T13:43:45Z</time></trkpt>
<trkpt lat="46.15082927" lon="5.97447197"><ele></ele><time>2014-10-8T13:43:48Z</time></trkpt>
<trkpt lat="46.15077269" lon="5.97438647"><ele></ele><time>2014-10-8T13:43:51Z</time></trkpt>
<trkpt lat="46.15072098" lon="5.97430953"><ele></ele><time>2014-10-8T13:43:54Z</time></trkpt>
<trkpt lat="46.15067027" lon="5.97423837"><ele></ele><time>2014-10-8T13:43:57Z</time></trkpt>
<trkpt lat="46.15062115" lon="5.97417592"><ele></ele><time>2014-10-8T13:44:0Z</time></trkpt>
<trkpt lat="46.15057287" lon="5.97411825"><ele></ele><time>2014-10-8T13:44:3Z</time></trkpt>
<trkpt lat="46.15052610" lon="5.97405857"><ele></ele><time>2014-10-8T13:44:6Z</time></trkpt>
<trkpt lat="46.15047832" lon="5.97399269"><ele></ele><time>2014-10-8T13:44:9Z</time></trkpt>
<trkpt lat="46.15042686" lon="5.97391868"><ele></ele><time>2014-10-8T13:44:12Z</time></trkpt>
<trkpt lat="46.15037103" lon="5.97384232"><ele></ele><time>2014-10-8T13:44:15Z</time></trkpt>
<trkpt lat="46.15031320" lon="5.97376194"><ele></ele><time>2014-10-8T13:44:18Z</time></trkpt>
<trkpt lat="46.15025192" lon="5.97367980"><ele></ele><time>2014-10-8T13:44:21Z</time></trkpt>
<trkpt lat="46.15018965" lon="5.97359665"><ele></ele><time>2014-10-8T13:44:24Z</time></trkpt>
<trkpt lat="46.15012896" lon="5.97351115"><ele></ele><time>2014-10-8T13:44:27Z</time></trkpt>
<trkpt lat="46.15006744" lon="5.97343018"><ele></ele><time>2014-10-8T13:44:30Z</time></trkpt>
<trkpt lat="46.15000449" lon="5.97335022"><ele></ele><time>2014-10-8T13:44:33Z</time></trkpt>
<trkpt lat="46.14994012" lon="5.97327285"><ele></ele><time>2014-10-8T13:44:36Z</time></trkpt>
<trkpt lat="46.14987625" lon="5.97319935"><ele></ele><time>2014-10-8T13:44:39Z</time></trkpt>
<trkpt lat="46.14981447" lon="5.97312273"><ele></ele><time>2014-10-8T13:44:42Z</time></trkpt>
<trkpt lat="46.14975706" lon="5.97304009"><ele></ele><time>2014-10-8T13:44:45Z</time></trkpt>
<trkpt lat="46.14970107" lon="5.97295602"><ele></ele><time>2014-10-8T13:44:48Z</time></trkpt>
<trkpt lat="46.14964784" lon="5.97287505"><ele></ele><time>2014-10-8T13:44:51Z</time></trkpt>
<trkpt lat="46.14959789" lon="5.97280028"><ele></ele><time>2014-10-8T13:44:54Z</time></trkpt>
<trkpt lat="46.14955069" lon="5.97273432"><ele></ele><time>2014-10-8T13:44:57Z</time></trkpt>
<trkpt lat="46.14950283" lon="5.97266919"><ele></ele><time>2014-10-8T13:45:0Z</time></trkpt>
<trkpt lat="46.14945036" lon="5.97260440"><ele></ele><time>2014-10-8T13:45:3Z</time></trkpt>
<trkpt lat="46.14939278" lon="5.97253894"><ele></ele><time>2014-10-8T13:45:6Z</time></trkpt>
<trkpt lat="46.14933444" lon="5.97246886"><ele></ele><time>2014-10-8T13:45:9Z</time></trkpt>
<trkpt lat="46.14927359" lon="5.97239887"><ele></ele><time>2014-10-8T13:45:12Z</time></trkpt>
<trkpt lat="46.14920922" lon="5.97232964"><ele></ele><time>2014-10-8T13:45:15Z</time></trkpt>
<trkpt lat="46.14914878" lon="5.97225378"><ele></ele><time>2014-10-8T13:45:18Z</time></trkpt>
<trkpt lat="46.14908768" lon="5.97217717"><ele></ele><time>2014-10-8T13:45:21Z</time></trkpt>
<trkpt lat="46.14902465" lon="5.97209997"><ele></ele><time>2014-10-8T13:45:24Z</time></trkpt>
<trkpt lat="46.14896229" lon="5.97202529"><ele></ele><time>2014-10-8T13:45:27Z</time></trkpt>
<trkpt lat="46.14889892" lon="5.97195379"><ele></ele><time>2014-10-8T13:45:30Z</time></trkpt>
<trkpt lat="46.14883647" lon="5.97187886"><ele></ele><time>2014-10-8T13:45:33Z</time></trkpt>
<trkpt lat="46.14876799" lon="5.97180108"><ele></ele><time>2014-10-8T13:45:36Z</time></trkpt>
<trkpt lat="46.14871066" lon="5.97171407"><ele></ele><time>2014-10-8T13:45:39Z</time></trkpt>
<trkpt lat="46.14864838" lon="5.97163746"><ele></ele><time>2014-10-8T13:45:42Z</time></trkpt>
<trkpt lat="46.14859466" lon="5.97155012"><ele></ele><time>2014-10-8T13:45:45Z</time></trkpt>
<trkpt lat="46.14853900" lon="5.97146312"><ele></ele><time>2014-10-8T13:45:48Z</time></trkpt>
<trkpt lat="46.14848217" lon="5.97137905"><ele></ele><time>2014-10-8T13:45:51Z</time></trkpt>
<trkpt lat="46.14842727" lon="5.97129540"><ele></ele><time>2014-10-8T13:45:54Z</time></trkpt>
<trkpt lat="46.14837765" lon="5.97120554"><ele></ele><time>2014-10-8T13:45:57Z</time></trkpt>
<trkpt lat="46.14832467" lon="5.97112105"><ele></ele><time>2014-10-8T13:46:0Z</time></trkpt>
<trkpt lat="46.14827430" lon="5.97104134"><ele></ele><time>2014-10-8T13:46:3Z</time></trkpt>
<trkpt lat="46.14821655" lon="5.97096766"><ele></ele><time>2014-10-8T13:46:6Z</time></trkpt>
<trkpt lat="46.14816500" lon="5.97089273"><ele></ele><time>2014-10-8T13:46:9Z</time></trkpt>
<trkpt lat="46.14811613" lon="5.97081637"><ele></ele><time>2014-10-8T13:46:12Z</time></trkpt>
<trkpt lat="46.14807095" lon="5.97073683"><ele></ele><time>2014-10-8T13:46:15Z</time></trkpt>
<trkpt lat="46.14802795" lon="5.97065862"><ele></ele><time>2014-10-8T13:46:18Z</time></trkpt>
<trkpt lat="46.14798747" lon="5.97058763"><ele></ele><time>2014-10-8T13:46:21Z</time></trkpt>
<trkpt lat="46.14794673" lon="5.97052468"><ele></ele><time>2014-10-8T13:46:24Z</time></trkpt>
<trkpt lat="46.14790667" lon="5.97046634"><ele></ele><time>2014-10-8T13:46:27Z</time></trkpt>
<trkpt lat="46.14786266" lon="5.97041354"><ele></ele><time>2014-10-8T13:46:30Z</time></trkpt>
<trkpt lat="46.14781832" lon="5.97035956"><ele></ele><time>2014-10-8T13:46:33Z</time></trkpt>
<trkpt lat="46.14777683" lon="5.97030306"><ele></ele><time>2014-10-8T13:46:36Z</time></trkpt>
<trkpt lat="46.14773828" lon="5.97024665"><ele></ele><time>2014-10-8T13:46:39Z</time></trkpt>
<trkpt lat="46.14769712" lon="5.97018756"><ele></ele><time>2014-10-8T13:46:42Z</time></trkpt>
<trkpt lat="46.14766192" lon="5.97012503"><ele></ele><time>2014-10-8T13:46:45Z</time></trkpt>
<trkpt lat="46.14763149" lon="5.97005999"><ele></ele><time>2014-10-8T13:46:48Z</time></trkpt>
<trkpt lat="46.14759696" lon="5.97000123"><ele></ele><time>2014-10-8T13:46:51Z</time></trkpt>
<trkpt lat="46.14754826" lon="5.96994708"><ele></ele><time>2014-10-8T13:46:54Z</time></trkpt>
<trkpt lat="46.14748992" lon="5.96993669"><ele></ele><time>2014-10-8T13:46:57Z</time></trkpt>
<trkpt lat="46.14742580" lon="5.96998396"><ele></ele><time>2014-10-8T13:47:0Z</time></trkpt>
<trkpt lat="46.14739789" lon="5.97001456"><ele></ele><time>2014-10-8T13:47:3Z</time></trkpt>
<trkpt lat="46.14739068" lon="5.97002788"><ele></ele><time>2014-10-8T13:47:6Z</time></trkpt>
</trkseg></trk></gpx>